<?xml version="1.0" encoding="UTF-8" standalone="no" ?>
<gpx xmlns="http://www.topografix.com/GPX/1/1" xmlns:xsi="http://www.w3.org/2001/XMLSchema-instance" xsi:schemaLocation="http://www.topografix.com/GPX/1/1 http://www.topografix.com/GPX/1/1/gpx.xsd" version="1.1" creator="VisuGPX - https://www.visugpx.com">
  <metadata>
    <name>equihen/Annoeullin</name>
  </metadata>
  <trk>
    <name><![CDATA[equihen/a]]></name>
    <extensions>
      <line xmlns="http://www.topografix.com/GPX/gpx_style/0/2">
        <color>0000FF</color>
        <width>4</width>
      </line>
    </extensions>
    <trkseg>
      <trkpt lat="50.67025" lon="1.57689">
        <ele>82.46</ele>
        <time>2024-07-12T14:55:00.000Z</time>
      </trkpt>
      <trkpt lat="50.67025" lon="1.57689">
        <ele>82.42</ele>
        <time>2024-07-12T14:55:00.000Z</time>
      </trkpt>
      <trkpt lat="50.67027" lon="1.57695">
        <ele>82.74</ele>
        <time>2024-07-12T14:55:00.001Z</time>
      </trkpt>
      <trkpt lat="50.67031" lon="1.57711">
        <ele>82.94</ele>
        <time>2024-07-12T14:55:00.004Z</time>
      </trkpt>
      <trkpt lat="50.67037" lon="1.57737">
        <ele>83.13</ele>
        <time>2024-07-12T14:55:00.009Z</time>
      </trkpt>
      <trkpt lat="50.67041" lon="1.57752">
        <ele>83.39</ele>
        <time>2024-07-12T14:55:00.016Z</time>
      </trkpt>
      <trkpt lat="50.67046" lon="1.57767">
        <ele>83.58</ele>
        <time>2024-07-12T14:55:00.025Z</time>
      </trkpt>
      <trkpt lat="50.67047" lon="1.5779">
        <ele>84.69</ele>
        <time>2024-07-12T14:55:00.036Z</time>
      </trkpt>
      <trkpt lat="50.67044" lon="1.57797">
        <ele>85.38</ele>
        <time>2024-07-12T14:55:00.048Z</time>
      </trkpt>
      <trkpt lat="50.6704" lon="1.57801">
        <ele>85.97</ele>
        <time>2024-07-12T14:55:00.061Z</time>
      </trkpt>
      <trkpt lat="50.67029" lon="1.57808">
        <ele>86.86</ele>
        <time>2024-07-12T14:55:00.076Z</time>
      </trkpt>
      <trkpt lat="50.6702" lon="1.5782">
        <ele>86.97</ele>
        <time>2024-07-12T14:55:00.092Z</time>
      </trkpt>
      <trkpt lat="50.6702" lon="1.5784">
        <ele>87.55</ele>
        <time>2024-07-12T14:55:00.110Z</time>
      </trkpt>
      <trkpt lat="50.67012" lon="1.57845">
        <ele>87.34</ele>
        <time>2024-07-12T14:55:00.130Z</time>
      </trkpt>
      <trkpt lat="50.67009" lon="1.57847">
        <ele>87.41</ele>
        <time>2024-07-12T14:55:00.150Z</time>
      </trkpt>
      <trkpt lat="50.66996" lon="1.57857">
        <ele>87.46</ele>
        <time>2024-07-12T14:55:00.173Z</time>
      </trkpt>
      <trkpt lat="50.66995" lon="1.57861">
        <ele>87.57</ele>
        <time>2024-07-12T14:55:00.196Z</time>
      </trkpt>
      <trkpt lat="50.66996" lon="1.57865">
        <ele>87.67</ele>
        <time>2024-07-12T14:55:00.219Z</time>
      </trkpt>
      <trkpt lat="50.66998" lon="1.57871">
        <ele>87.76</ele>
        <time>2024-07-12T14:55:00.243Z</time>
      </trkpt>
      <trkpt lat="50.67007" lon="1.5789">
        <ele>88</ele>
        <time>2024-07-12T14:55:00.270Z</time>
      </trkpt>
      <trkpt lat="50.67017" lon="1.5792">
        <ele>88</ele>
        <time>2024-07-12T14:55:00.300Z</time>
      </trkpt>
      <trkpt lat="50.67022" lon="1.57929">
        <ele>88</ele>
        <time>2024-07-12T14:55:00.331Z</time>
      </trkpt>
      <trkpt lat="50.6703" lon="1.57948">
        <ele>88</ele>
        <time>2024-07-12T14:55:00.365Z</time>
      </trkpt>
      <trkpt lat="50.67044" lon="1.57975">
        <ele>88.04</ele>
        <time>2024-07-12T14:55:00.402Z</time>
      </trkpt>
      <trkpt lat="50.67058" lon="1.58001">
        <ele>89.86</ele>
        <time>2024-07-12T14:55:00.443Z</time>
      </trkpt>
      <trkpt lat="50.67064" lon="1.58015">
        <ele>90</ele>
        <time>2024-07-12T14:55:00.485Z</time>
      </trkpt>
      <trkpt lat="50.67075" lon="1.58035">
        <ele>90</ele>
        <time>2024-07-12T14:55:00.530Z</time>
      </trkpt>
      <trkpt lat="50.67078" lon="1.58041">
        <ele>90</ele>
        <time>2024-07-12T14:55:00.576Z</time>
      </trkpt>
      <trkpt lat="50.67092" lon="1.58063">
        <ele>90.29</ele>
        <time>2024-07-12T14:55:00.625Z</time>
      </trkpt>
      <trkpt lat="50.67102" lon="1.58083">
        <ele>91.39</ele>
        <time>2024-07-12T14:55:00.677Z</time>
      </trkpt>
      <trkpt lat="50.67104" lon="1.58085">
        <ele>91.52</ele>
        <time>2024-07-12T14:55:00.729Z</time>
      </trkpt>
      <trkpt lat="50.6711" lon="1.58097">
        <ele>92.19</ele>
        <time>2024-07-12T14:55:00.782Z</time>
      </trkpt>
      <trkpt lat="50.67106" lon="1.58113">
        <ele>92.28</ele>
        <time>2024-07-12T14:55:00.837Z</time>
      </trkpt>
      <trkpt lat="50.67103" lon="1.58123">
        <ele>92.11</ele>
        <time>2024-07-12T14:55:00.893Z</time>
      </trkpt>
      <trkpt lat="50.67104" lon="1.58134">
        <ele>92.3</ele>
        <time>2024-07-12T14:55:00.950Z</time>
      </trkpt>
      <trkpt lat="50.67114" lon="1.58154">
        <ele>92.92</ele>
        <time>2024-07-12T14:55:01.010Z</time>
      </trkpt>
      <trkpt lat="50.67116" lon="1.58156">
        <ele>93.01</ele>
        <time>2024-07-12T14:55:01.070Z</time>
      </trkpt>
      <trkpt lat="50.67133" lon="1.58171">
        <ele>93.52</ele>
        <time>2024-07-12T14:55:01.134Z</time>
      </trkpt>
      <trkpt lat="50.67146" lon="1.58184">
        <ele>93.64</ele>
        <time>2024-07-12T14:55:01.200Z</time>
      </trkpt>
      <trkpt lat="50.6716" lon="1.58198">
        <ele>94.16</ele>
        <time>2024-07-12T14:55:01.269Z</time>
      </trkpt>
      <trkpt lat="50.67183" lon="1.58219">
        <ele>94.61</ele>
        <time>2024-07-12T14:55:01.342Z</time>
      </trkpt>
      <trkpt lat="50.67189" lon="1.58225">
        <ele>94.63</ele>
        <time>2024-07-12T14:55:01.416Z</time>
      </trkpt>
      <trkpt lat="50.67204" lon="1.5823">
        <ele>95.18</ele>
        <time>2024-07-12T14:55:01.493Z</time>
      </trkpt>
      <trkpt lat="50.67215" lon="1.58225">
        <ele>95.55</ele>
        <time>2024-07-12T14:55:01.571Z</time>
      </trkpt>
      <trkpt lat="50.67224" lon="1.58218">
        <ele>95.76</ele>
        <time>2024-07-12T14:55:01.651Z</time>
      </trkpt>
      <trkpt lat="50.67256" lon="1.58194">
        <ele>94.9</ele>
        <time>2024-07-12T14:55:01.737Z</time>
      </trkpt>
      <trkpt lat="50.67279" lon="1.58175">
        <ele>94.23</ele>
        <time>2024-07-12T14:55:01.827Z</time>
      </trkpt>
      <trkpt lat="50.67308" lon="1.58153">
        <ele>93</ele>
        <time>2024-07-12T14:55:01.922Z</time>
      </trkpt>
      <trkpt lat="50.67314" lon="1.5815">
        <ele>92.86</ele>
        <time>2024-07-12T14:55:02.018Z</time>
      </trkpt>
      <trkpt lat="50.67327" lon="1.58148">
        <ele>92.39</ele>
        <time>2024-07-12T14:55:02.116Z</time>
      </trkpt>
      <trkpt lat="50.67334" lon="1.58149">
        <ele>92.16</ele>
        <time>2024-07-12T14:55:02.215Z</time>
      </trkpt>
      <trkpt lat="50.6734" lon="1.58152">
        <ele>91.94</ele>
        <time>2024-07-12T14:55:02.315Z</time>
      </trkpt>
      <trkpt lat="50.67357" lon="1.58162">
        <ele>91.32</ele>
        <time>2024-07-12T14:55:02.418Z</time>
      </trkpt>
      <trkpt lat="50.67394" lon="1.58186">
        <ele>91.39</ele>
        <time>2024-07-12T14:55:02.527Z</time>
      </trkpt>
      <trkpt lat="50.67425" lon="1.58205">
        <ele>92.14</ele>
        <time>2024-07-12T14:55:02.642Z</time>
      </trkpt>
      <trkpt lat="50.67436" lon="1.58214">
        <ele>92.52</ele>
        <time>2024-07-12T14:55:02.759Z</time>
      </trkpt>
      <trkpt lat="50.67441" lon="1.58231">
        <ele>92.91</ele>
        <time>2024-07-12T14:55:02.878Z</time>
      </trkpt>
      <trkpt lat="50.67448" lon="1.58247">
        <ele>93.74</ele>
        <time>2024-07-12T14:55:02.999Z</time>
      </trkpt>
      <trkpt lat="50.67448" lon="1.5825">
        <ele>93.86</ele>
        <time>2024-07-12T14:55:03.120Z</time>
      </trkpt>
      <trkpt lat="50.67445" lon="1.58263">
        <ele>93.84</ele>
        <time>2024-07-12T14:55:03.242Z</time>
      </trkpt>
      <trkpt lat="50.67434" lon="1.58305">
        <ele>94.35</ele>
        <time>2024-07-12T14:55:03.369Z</time>
      </trkpt>
      <trkpt lat="50.67417" lon="1.58368">
        <ele>93.66</ele>
        <time>2024-07-12T14:55:03.503Z</time>
      </trkpt>
      <trkpt lat="50.67394" lon="1.58434">
        <ele>91.45</ele>
        <time>2024-07-12T14:55:03.645Z</time>
      </trkpt>
      <trkpt lat="50.67366" lon="1.58509">
        <ele>89.77</ele>
        <time>2024-07-12T14:55:03.795Z</time>
      </trkpt>
      <trkpt lat="50.67353" lon="1.58545">
        <ele>88.99</ele>
        <time>2024-07-12T14:55:03.950Z</time>
      </trkpt>
      <trkpt lat="50.67338" lon="1.58586">
        <ele>87.02</ele>
        <time>2024-07-12T14:55:04.110Z</time>
      </trkpt>
      <trkpt lat="50.67325" lon="1.58623">
        <ele>85.67</ele>
        <time>2024-07-12T14:55:04.274Z</time>
      </trkpt>
      <trkpt lat="50.67312" lon="1.5866">
        <ele>84.31</ele>
        <time>2024-07-12T14:55:04.442Z</time>
      </trkpt>
      <trkpt lat="50.67303" lon="1.58687">
        <ele>83.35</ele>
        <time>2024-07-12T14:55:04.613Z</time>
      </trkpt>
      <trkpt lat="50.67293" lon="1.58714">
        <ele>82.99</ele>
        <time>2024-07-12T14:55:04.787Z</time>
      </trkpt>
      <trkpt lat="50.67283" lon="1.58744">
        <ele>81.64</ele>
        <time>2024-07-12T14:55:04.965Z</time>
      </trkpt>
      <trkpt lat="50.67279" lon="1.58758">
        <ele>80.95</ele>
        <time>2024-07-12T14:55:05.144Z</time>
      </trkpt>
      <trkpt lat="50.67274" lon="1.58772">
        <ele>80.62</ele>
        <time>2024-07-12T14:55:05.325Z</time>
      </trkpt>
      <trkpt lat="50.67255" lon="1.58826">
        <ele>80.98</ele>
        <time>2024-07-12T14:55:05.512Z</time>
      </trkpt>
      <trkpt lat="50.6723" lon="1.58891">
        <ele>79.91</ele>
        <time>2024-07-12T14:55:05.707Z</time>
      </trkpt>
      <trkpt lat="50.67196" lon="1.58972">
        <ele>76.11</ele>
        <time>2024-07-12T14:55:05.912Z</time>
      </trkpt>
      <trkpt lat="50.67191" lon="1.58983">
        <ele>76.56</ele>
        <time>2024-07-12T14:55:06.118Z</time>
      </trkpt>
      <trkpt lat="50.67161" lon="1.59053">
        <ele>79.16</ele>
        <time>2024-07-12T14:55:06.333Z</time>
      </trkpt>
      <trkpt lat="50.67133" lon="1.59119">
        <ele>80.39</ele>
        <time>2024-07-12T14:55:06.556Z</time>
      </trkpt>
      <trkpt lat="50.6712" lon="1.59148">
        <ele>80.16</ele>
        <time>2024-07-12T14:55:06.783Z</time>
      </trkpt>
      <trkpt lat="50.67109" lon="1.59175">
        <ele>80.2</ele>
        <time>2024-07-12T14:55:07.013Z</time>
      </trkpt>
      <trkpt lat="50.67095" lon="1.59211">
        <ele>80.77</ele>
        <time>2024-07-12T14:55:07.247Z</time>
      </trkpt>
      <trkpt lat="50.67091" lon="1.59222">
        <ele>81.02</ele>
        <time>2024-07-12T14:55:07.482Z</time>
      </trkpt>
      <trkpt lat="50.67085" lon="1.59242">
        <ele>82.23</ele>
        <time>2024-07-12T14:55:07.720Z</time>
      </trkpt>
      <trkpt lat="50.6708" lon="1.59261">
        <ele>83.31</ele>
        <time>2024-07-12T14:55:07.960Z</time>
      </trkpt>
      <trkpt lat="50.67078" lon="1.5927">
        <ele>83.62</ele>
        <time>2024-07-12T14:55:08.201Z</time>
      </trkpt>
      <trkpt lat="50.67072" lon="1.59293">
        <ele>84.45</ele>
        <time>2024-07-12T14:55:08.444Z</time>
      </trkpt>
      <trkpt lat="50.67072" lon="1.59297">
        <ele>84.58</ele>
        <time>2024-07-12T14:55:08.688Z</time>
      </trkpt>
      <trkpt lat="50.67068" lon="1.59315">
        <ele>85.25</ele>
        <time>2024-07-12T14:55:08.934Z</time>
      </trkpt>
      <trkpt lat="50.67066" lon="1.5933">
        <ele>85.77</ele>
        <time>2024-07-12T14:55:09.181Z</time>
      </trkpt>
      <trkpt lat="50.67063" lon="1.59343">
        <ele>86.37</ele>
        <time>2024-07-12T14:55:09.430Z</time>
      </trkpt>
      <trkpt lat="50.6706" lon="1.59363">
        <ele>87.97</ele>
        <time>2024-07-12T14:55:09.681Z</time>
      </trkpt>
      <trkpt lat="50.67059" lon="1.5937">
        <ele>88.21</ele>
        <time>2024-07-12T14:55:09.932Z</time>
      </trkpt>
      <trkpt lat="50.67055" lon="1.59392">
        <ele>89.25</ele>
        <time>2024-07-12T14:55:10.186Z</time>
      </trkpt>
      <trkpt lat="50.67054" lon="1.59395">
        <ele>89.49</ele>
        <time>2024-07-12T14:55:10.440Z</time>
      </trkpt>
      <trkpt lat="50.67051" lon="1.59417">
        <ele>90.93</ele>
        <time>2024-07-12T14:55:10.696Z</time>
      </trkpt>
      <trkpt lat="50.67047" lon="1.59435">
        <ele>91.54</ele>
        <time>2024-07-12T14:55:10.954Z</time>
      </trkpt>
      <trkpt lat="50.67043" lon="1.59451">
        <ele>92</ele>
        <time>2024-07-12T14:55:11.214Z</time>
      </trkpt>
      <trkpt lat="50.67036" lon="1.59475">
        <ele>92</ele>
        <time>2024-07-12T14:55:11.477Z</time>
      </trkpt>
      <trkpt lat="50.67019" lon="1.59519">
        <ele>92.49</ele>
        <time>2024-07-12T14:55:11.745Z</time>
      </trkpt>
      <trkpt lat="50.67013" lon="1.59534">
        <ele>92.72</ele>
        <time>2024-07-12T14:55:12.015Z</time>
      </trkpt>
      <trkpt lat="50.66993" lon="1.59575">
        <ele>92.87</ele>
        <time>2024-07-12T14:55:12.290Z</time>
      </trkpt>
      <trkpt lat="50.66969" lon="1.59624">
        <ele>93.21</ele>
        <time>2024-07-12T14:55:12.571Z</time>
      </trkpt>
      <trkpt lat="50.66948" lon="1.59669">
        <ele>94.03</ele>
        <time>2024-07-12T14:55:12.858Z</time>
      </trkpt>
      <trkpt lat="50.66922" lon="1.59736">
        <ele>91.58</ele>
        <time>2024-07-12T14:55:13.153Z</time>
      </trkpt>
      <trkpt lat="50.66919" lon="1.59743">
        <ele>91.43</ele>
        <time>2024-07-12T14:55:13.449Z</time>
      </trkpt>
      <trkpt lat="50.6689" lon="1.59817">
        <ele>92.71</ele>
        <time>2024-07-12T14:55:13.754Z</time>
      </trkpt>
      <trkpt lat="50.66875" lon="1.59857">
        <ele>95.33</ele>
        <time>2024-07-12T14:55:14.063Z</time>
      </trkpt>
      <trkpt lat="50.66863" lon="1.59889">
        <ele>96</ele>
        <time>2024-07-12T14:55:14.376Z</time>
      </trkpt>
      <trkpt lat="50.66834" lon="1.59962">
        <ele>95.34</ele>
        <time>2024-07-12T14:55:14.698Z</time>
      </trkpt>
      <trkpt lat="50.66813" lon="1.60021">
        <ele>94.1</ele>
        <time>2024-07-12T14:55:15.027Z</time>
      </trkpt>
      <trkpt lat="50.6681" lon="1.60037">
        <ele>94</ele>
        <time>2024-07-12T14:55:15.358Z</time>
      </trkpt>
      <trkpt lat="50.66811" lon="1.60057">
        <ele>94.01</ele>
        <time>2024-07-12T14:55:15.691Z</time>
      </trkpt>
      <trkpt lat="50.66811" lon="1.60102">
        <ele>94.02</ele>
        <time>2024-07-12T14:55:16.028Z</time>
      </trkpt>
      <trkpt lat="50.66809" lon="1.60114">
        <ele>93.95</ele>
        <time>2024-07-12T14:55:16.366Z</time>
      </trkpt>
      <trkpt lat="50.66807" lon="1.60125">
        <ele>93.86</ele>
        <time>2024-07-12T14:55:16.706Z</time>
      </trkpt>
      <trkpt lat="50.66797" lon="1.60156">
        <ele>93.5</ele>
        <time>2024-07-12T14:55:17.049Z</time>
      </trkpt>
      <trkpt lat="50.66774" lon="1.60218">
        <ele>94.73</ele>
        <time>2024-07-12T14:55:17.399Z</time>
      </trkpt>
      <trkpt lat="50.66754" lon="1.60268">
        <ele>97.54</ele>
        <time>2024-07-12T14:55:17.755Z</time>
      </trkpt>
      <trkpt lat="50.66742" lon="1.60285">
        <ele>97.72</ele>
        <time>2024-07-12T14:55:18.114Z</time>
      </trkpt>
      <trkpt lat="50.6674" lon="1.60289">
        <ele>97.77</ele>
        <time>2024-07-12T14:55:18.474Z</time>
      </trkpt>
      <trkpt lat="50.66734" lon="1.60299">
        <ele>97.9</ele>
        <time>2024-07-12T14:55:18.835Z</time>
      </trkpt>
      <trkpt lat="50.66724" lon="1.60312">
        <ele>98</ele>
        <time>2024-07-12T14:55:19.198Z</time>
      </trkpt>
      <trkpt lat="50.66722" lon="1.60315">
        <ele>98</ele>
        <time>2024-07-12T14:55:19.561Z</time>
      </trkpt>
      <trkpt lat="50.66704" lon="1.60343">
        <ele>98</ele>
        <time>2024-07-12T14:55:19.929Z</time>
      </trkpt>
      <trkpt lat="50.66681" lon="1.60377">
        <ele>98</ele>
        <time>2024-07-12T14:55:20.302Z</time>
      </trkpt>
      <trkpt lat="50.66658" lon="1.60409">
        <ele>97</ele>
        <time>2024-07-12T14:55:20.679Z</time>
      </trkpt>
      <trkpt lat="50.66654" lon="1.60414">
        <ele>97</ele>
        <time>2024-07-12T14:55:21.057Z</time>
      </trkpt>
      <trkpt lat="50.6665" lon="1.60417">
        <ele>97</ele>
        <time>2024-07-12T14:55:21.436Z</time>
      </trkpt>
      <trkpt lat="50.66641" lon="1.60421">
        <ele>97</ele>
        <time>2024-07-12T14:55:21.817Z</time>
      </trkpt>
      <trkpt lat="50.66636" lon="1.60421">
        <ele>97</ele>
        <time>2024-07-12T14:55:22.198Z</time>
      </trkpt>
      <trkpt lat="50.66602" lon="1.60424">
        <ele>96.85</ele>
        <time>2024-07-12T14:55:22.585Z</time>
      </trkpt>
      <trkpt lat="50.66553" lon="1.60436">
        <ele>96.66</ele>
        <time>2024-07-12T14:55:22.980Z</time>
      </trkpt>
      <trkpt lat="50.66509" lon="1.60444">
        <ele>97.12</ele>
        <time>2024-07-12T14:55:23.382Z</time>
      </trkpt>
      <trkpt lat="50.66467" lon="1.60438">
        <ele>97</ele>
        <time>2024-07-12T14:55:23.791Z</time>
      </trkpt>
      <trkpt lat="50.66448" lon="1.6043">
        <ele>96.97</ele>
        <time>2024-07-12T14:55:24.203Z</time>
      </trkpt>
      <trkpt lat="50.66444" lon="1.6043">
        <ele>96.83</ele>
        <time>2024-07-12T14:55:24.615Z</time>
      </trkpt>
      <trkpt lat="50.66429" lon="1.60431">
        <ele>96.29</ele>
        <time>2024-07-12T14:55:25.030Z</time>
      </trkpt>
      <trkpt lat="50.66419" lon="1.60433">
        <ele>95.91</ele>
        <time>2024-07-12T14:55:25.446Z</time>
      </trkpt>
      <trkpt lat="50.66403" lon="1.60438">
        <ele>95.33</ele>
        <time>2024-07-12T14:55:25.865Z</time>
      </trkpt>
      <trkpt lat="50.66397" lon="1.6044">
        <ele>95.11</ele>
        <time>2024-07-12T14:55:26.285Z</time>
      </trkpt>
      <trkpt lat="50.66377" lon="1.60447">
        <ele>95</ele>
        <time>2024-07-12T14:55:26.708Z</time>
      </trkpt>
      <trkpt lat="50.66349" lon="1.60458">
        <ele>93.44</ele>
        <time>2024-07-12T14:55:27.136Z</time>
      </trkpt>
      <trkpt lat="50.66322" lon="1.60469">
        <ele>92.42</ele>
        <time>2024-07-12T14:55:27.568Z</time>
      </trkpt>
      <trkpt lat="50.66302" lon="1.60478">
        <ele>92</ele>
        <time>2024-07-12T14:55:28.004Z</time>
      </trkpt>
      <trkpt lat="50.66281" lon="1.60484">
        <ele>91.95</ele>
        <time>2024-07-12T14:55:28.443Z</time>
      </trkpt>
      <trkpt lat="50.66268" lon="1.60488">
        <ele>91.49</ele>
        <time>2024-07-12T14:55:28.884Z</time>
      </trkpt>
      <trkpt lat="50.66248" lon="1.60494">
        <ele>90.07</ele>
        <time>2024-07-12T14:55:29.328Z</time>
      </trkpt>
      <trkpt lat="50.66225" lon="1.60498">
        <ele>89.13</ele>
        <time>2024-07-12T14:55:29.776Z</time>
      </trkpt>
      <trkpt lat="50.66203" lon="1.60502">
        <ele>88.19</ele>
        <time>2024-07-12T14:55:30.228Z</time>
      </trkpt>
      <trkpt lat="50.66188" lon="1.60503">
        <ele>87.61</ele>
        <time>2024-07-12T14:55:30.682Z</time>
      </trkpt>
      <trkpt lat="50.66167" lon="1.60506">
        <ele>86.71</ele>
        <time>2024-07-12T14:55:31.140Z</time>
      </trkpt>
      <trkpt lat="50.6616" lon="1.60507">
        <ele>86.43</ele>
        <time>2024-07-12T14:55:31.599Z</time>
      </trkpt>
      <trkpt lat="50.66145" lon="1.60507">
        <ele>86</ele>
        <time>2024-07-12T14:55:32.060Z</time>
      </trkpt>
      <trkpt lat="50.66118" lon="1.60497">
        <ele>85.09</ele>
        <time>2024-07-12T14:55:32.525Z</time>
      </trkpt>
      <trkpt lat="50.66093" lon="1.60483">
        <ele>84.2</ele>
        <time>2024-07-12T14:55:32.995Z</time>
      </trkpt>
      <trkpt lat="50.66082" lon="1.60476">
        <ele>83.77</ele>
        <time>2024-07-12T14:55:33.467Z</time>
      </trkpt>
      <trkpt lat="50.66065" lon="1.60467">
        <ele>83.45</ele>
        <time>2024-07-12T14:55:33.941Z</time>
      </trkpt>
      <trkpt lat="50.66043" lon="1.60457">
        <ele>82.4</ele>
        <time>2024-07-12T14:55:34.419Z</time>
      </trkpt>
      <trkpt lat="50.66027" lon="1.6045">
        <ele>81.73</ele>
        <time>2024-07-12T14:55:34.900Z</time>
      </trkpt>
      <trkpt lat="50.66017" lon="1.60446">
        <ele>81.51</ele>
        <time>2024-07-12T14:55:35.383Z</time>
      </trkpt>
      <trkpt lat="50.65981" lon="1.60441">
        <ele>81</ele>
        <time>2024-07-12T14:55:35.871Z</time>
      </trkpt>
      <trkpt lat="50.65947" lon="1.60446">
        <ele>78.95</ele>
        <time>2024-07-12T14:55:36.365Z</time>
      </trkpt>
      <trkpt lat="50.65912" lon="1.60459">
        <ele>77.27</ele>
        <time>2024-07-12T14:55:36.864Z</time>
      </trkpt>
      <trkpt lat="50.65898" lon="1.60464">
        <ele>76.58</ele>
        <time>2024-07-12T14:55:37.366Z</time>
      </trkpt>
      <trkpt lat="50.65868" lon="1.60475">
        <ele>75.1</ele>
        <time>2024-07-12T14:55:37.873Z</time>
      </trkpt>
      <trkpt lat="50.65847" lon="1.60482">
        <ele>73.37</ele>
        <time>2024-07-12T14:55:38.383Z</time>
      </trkpt>
      <trkpt lat="50.65832" lon="1.60488">
        <ele>73</ele>
        <time>2024-07-12T14:55:38.896Z</time>
      </trkpt>
      <trkpt lat="50.65805" lon="1.60499">
        <ele>72.94</ele>
        <time>2024-07-12T14:55:39.413Z</time>
      </trkpt>
      <trkpt lat="50.65798" lon="1.60502">
        <ele>72.6</ele>
        <time>2024-07-12T14:55:39.931Z</time>
      </trkpt>
      <trkpt lat="50.65771" lon="1.60512">
        <ele>71.27</ele>
        <time>2024-07-12T14:55:40.454Z</time>
      </trkpt>
      <trkpt lat="50.65743" lon="1.60526">
        <ele>70</ele>
        <time>2024-07-12T14:55:40.981Z</time>
      </trkpt>
      <trkpt lat="50.65712" lon="1.60553">
        <ele>69.16</ele>
        <time>2024-07-12T14:55:41.514Z</time>
      </trkpt>
      <trkpt lat="50.65701" lon="1.60563">
        <ele>68.07</ele>
        <time>2024-07-12T14:55:42.049Z</time>
      </trkpt>
      <trkpt lat="50.65684" lon="1.60579">
        <ele>67.45</ele>
        <time>2024-07-12T14:55:42.587Z</time>
      </trkpt>
      <trkpt lat="50.65671" lon="1.60591">
        <ele>67</ele>
        <time>2024-07-12T14:55:43.128Z</time>
      </trkpt>
      <trkpt lat="50.65648" lon="1.60615">
        <ele>66.15</ele>
        <time>2024-07-12T14:55:43.673Z</time>
      </trkpt>
      <trkpt lat="50.65637" lon="1.60629">
        <ele>65.03</ele>
        <time>2024-07-12T14:55:44.220Z</time>
      </trkpt>
      <trkpt lat="50.65621" lon="1.60661">
        <ele>64.17</ele>
        <time>2024-07-12T14:55:44.772Z</time>
      </trkpt>
      <trkpt lat="50.65593" lon="1.60734">
        <ele>64</ele>
        <time>2024-07-12T14:55:45.332Z</time>
      </trkpt>
      <trkpt lat="50.6559" lon="1.60743">
        <ele>64</ele>
        <time>2024-07-12T14:55:45.893Z</time>
      </trkpt>
      <trkpt lat="50.65576" lon="1.60783">
        <ele>65.07</ele>
        <time>2024-07-12T14:55:46.459Z</time>
      </trkpt>
      <trkpt lat="50.65558" lon="1.60833">
        <ele>64.85</ele>
        <time>2024-07-12T14:55:47.031Z</time>
      </trkpt>
      <trkpt lat="50.65545" lon="1.60872">
        <ele>63.66</ele>
        <time>2024-07-12T14:55:47.607Z</time>
      </trkpt>
      <trkpt lat="50.65544" lon="1.60903">
        <ele>63.43</ele>
        <time>2024-07-12T14:55:48.186Z</time>
      </trkpt>
      <trkpt lat="50.65546" lon="1.60929">
        <ele>63.15</ele>
        <time>2024-07-12T14:55:48.768Z</time>
      </trkpt>
      <trkpt lat="50.65547" lon="1.60943">
        <ele>63</ele>
        <time>2024-07-12T14:55:49.352Z</time>
      </trkpt>
      <trkpt lat="50.65551" lon="1.60996">
        <ele>64.05</ele>
        <time>2024-07-12T14:55:49.941Z</time>
      </trkpt>
      <trkpt lat="50.65554" lon="1.61028">
        <ele>65.11</ele>
        <time>2024-07-12T14:55:50.533Z</time>
      </trkpt>
      <trkpt lat="50.65558" lon="1.61031">
        <ele>65.08</ele>
        <time>2024-07-12T14:55:51.126Z</time>
      </trkpt>
      <trkpt lat="50.65561" lon="1.61035">
        <ele>65.13</ele>
        <time>2024-07-12T14:55:51.720Z</time>
      </trkpt>
      <trkpt lat="50.65565" lon="1.61056">
        <ele>65.89</ele>
        <time>2024-07-12T14:55:52.316Z</time>
      </trkpt>
      <trkpt lat="50.65566" lon="1.6106">
        <ele>66.06</ele>
        <time>2024-07-12T14:55:52.912Z</time>
      </trkpt>
      <trkpt lat="50.6557" lon="1.61096">
        <ele>67.33</ele>
        <time>2024-07-12T14:55:53.512Z</time>
      </trkpt>
      <trkpt lat="50.65572" lon="1.61117">
        <ele>68.64</ele>
        <time>2024-07-12T14:55:54.114Z</time>
      </trkpt>
      <trkpt lat="50.65573" lon="1.61128">
        <ele>69</ele>
        <time>2024-07-12T14:55:54.717Z</time>
      </trkpt>
      <trkpt lat="50.65577" lon="1.6117">
        <ele>68.99</ele>
        <time>2024-07-12T14:55:55.325Z</time>
      </trkpt>
      <trkpt lat="50.65575" lon="1.61218">
        <ele>68.44</ele>
        <time>2024-07-12T14:55:55.937Z</time>
      </trkpt>
      <trkpt lat="50.65575" lon="1.61239">
        <ele>68.96</ele>
        <time>2024-07-12T14:55:56.552Z</time>
      </trkpt>
      <trkpt lat="50.65572" lon="1.6126">
        <ele>69</ele>
        <time>2024-07-12T14:55:57.169Z</time>
      </trkpt>
      <trkpt lat="50.65564" lon="1.613">
        <ele>69</ele>
        <time>2024-07-12T14:55:57.790Z</time>
      </trkpt>
      <trkpt lat="50.65559" lon="1.61325">
        <ele>69</ele>
        <time>2024-07-12T14:55:58.414Z</time>
      </trkpt>
      <trkpt lat="50.65554" lon="1.61344">
        <ele>68.72</ele>
        <time>2024-07-12T14:55:59.040Z</time>
      </trkpt>
      <trkpt lat="50.65549" lon="1.61364">
        <ele>67.63</ele>
        <time>2024-07-12T14:55:59.668Z</time>
      </trkpt>
      <trkpt lat="50.65537" lon="1.61402">
        <ele>65.65</ele>
        <time>2024-07-12T14:56:00.300Z</time>
      </trkpt>
      <trkpt lat="50.65531" lon="1.61419">
        <ele>64</ele>
        <time>2024-07-12T14:56:00.934Z</time>
      </trkpt>
      <trkpt lat="50.65523" lon="1.61437">
        <ele>63.09</ele>
        <time>2024-07-12T14:56:01.571Z</time>
      </trkpt>
      <trkpt lat="50.65512" lon="1.61466">
        <ele>62.28</ele>
        <time>2024-07-12T14:56:02.211Z</time>
      </trkpt>
      <trkpt lat="50.655" lon="1.61497">
        <ele>60.86</ele>
        <time>2024-07-12T14:56:02.855Z</time>
      </trkpt>
      <trkpt lat="50.65487" lon="1.6153">
        <ele>59.37</ele>
        <time>2024-07-12T14:56:03.503Z</time>
      </trkpt>
      <trkpt lat="50.65471" lon="1.61571">
        <ele>58.59</ele>
        <time>2024-07-12T14:56:04.156Z</time>
      </trkpt>
      <trkpt lat="50.65461" lon="1.61596">
        <ele>57.85</ele>
        <time>2024-07-12T14:56:04.812Z</time>
      </trkpt>
      <trkpt lat="50.65448" lon="1.61639">
        <ele>57.94</ele>
        <time>2024-07-12T14:56:05.472Z</time>
      </trkpt>
      <trkpt lat="50.65446" lon="1.61648">
        <ele>57.91</ele>
        <time>2024-07-12T14:56:06.133Z</time>
      </trkpt>
      <trkpt lat="50.65443" lon="1.61673">
        <ele>57.79</ele>
        <time>2024-07-12T14:56:06.797Z</time>
      </trkpt>
      <trkpt lat="50.65442" lon="1.617">
        <ele>57.7</ele>
        <time>2024-07-12T14:56:07.464Z</time>
      </trkpt>
      <trkpt lat="50.65442" lon="1.61749">
        <ele>57</ele>
        <time>2024-07-12T14:56:08.136Z</time>
      </trkpt>
      <trkpt lat="50.65442" lon="1.6181">
        <ele>57.27</ele>
        <time>2024-07-12T14:56:08.814Z</time>
      </trkpt>
      <trkpt lat="50.65442" lon="1.61838">
        <ele>58</ele>
        <time>2024-07-12T14:56:09.495Z</time>
      </trkpt>
      <trkpt lat="50.65442" lon="1.61845">
        <ele>58</ele>
        <time>2024-07-12T14:56:10.177Z</time>
      </trkpt>
      <trkpt lat="50.65442" lon="1.61905">
        <ele>58</ele>
        <time>2024-07-12T14:56:10.865Z</time>
      </trkpt>
      <trkpt lat="50.6544" lon="1.61923">
        <ele>58.11</ele>
        <time>2024-07-12T14:56:11.555Z</time>
      </trkpt>
      <trkpt lat="50.65439" lon="1.61935">
        <ele>58.52</ele>
        <time>2024-07-12T14:56:12.246Z</time>
      </trkpt>
      <trkpt lat="50.65435" lon="1.61969">
        <ele>57.73</ele>
        <time>2024-07-12T14:56:12.940Z</time>
      </trkpt>
      <trkpt lat="50.65421" lon="1.62009">
        <ele>57.02</ele>
        <time>2024-07-12T14:56:13.639Z</time>
      </trkpt>
      <trkpt lat="50.65401" lon="1.62052">
        <ele>55.19</ele>
        <time>2024-07-12T14:56:14.343Z</time>
      </trkpt>
      <trkpt lat="50.65397" lon="1.62059">
        <ele>54.59</ele>
        <time>2024-07-12T14:56:15.048Z</time>
      </trkpt>
      <trkpt lat="50.65397" lon="1.62059">
        <ele>54.53</ele>
        <time>2024-07-12T14:56:15.753Z</time>
      </trkpt>
      <trkpt lat="50.65396" lon="1.62057">
        <ele>54.48</ele>
        <time>2024-07-12T14:56:16.459Z</time>
      </trkpt>
      <trkpt lat="50.65395" lon="1.62057">
        <ele>54.26</ele>
        <time>2024-07-12T14:56:17.165Z</time>
      </trkpt>
      <trkpt lat="50.65386" lon="1.62064">
        <ele>53.24</ele>
        <time>2024-07-12T14:56:17.872Z</time>
      </trkpt>
      <trkpt lat="50.65371" lon="1.62086">
        <ele>51.6</ele>
        <time>2024-07-12T14:56:18.583Z</time>
      </trkpt>
      <trkpt lat="50.65355" lon="1.62094">
        <ele>50.24</ele>
        <time>2024-07-12T14:56:19.296Z</time>
      </trkpt>
      <trkpt lat="50.65346" lon="1.621">
        <ele>49.78</ele>
        <time>2024-07-12T14:56:20.011Z</time>
      </trkpt>
      <trkpt lat="50.65343" lon="1.62105">
        <ele>49.87</ele>
        <time>2024-07-12T14:56:20.727Z</time>
      </trkpt>
      <trkpt lat="50.65342" lon="1.62117">
        <ele>50.26</ele>
        <time>2024-07-12T14:56:21.444Z</time>
      </trkpt>
      <trkpt lat="50.65344" lon="1.62122">
        <ele>50.45</ele>
        <time>2024-07-12T14:56:22.161Z</time>
      </trkpt>
      <trkpt lat="50.65349" lon="1.62151">
        <ele>50.83</ele>
        <time>2024-07-12T14:56:22.881Z</time>
      </trkpt>
      <trkpt lat="50.65358" lon="1.62188">
        <ele>50.83</ele>
        <time>2024-07-12T14:56:23.605Z</time>
      </trkpt>
      <trkpt lat="50.65382" lon="1.62247">
        <ele>50.41</ele>
        <time>2024-07-12T14:56:24.337Z</time>
      </trkpt>
      <trkpt lat="50.6539" lon="1.6227">
        <ele>50.17</ele>
        <time>2024-07-12T14:56:25.071Z</time>
      </trkpt>
      <trkpt lat="50.65398" lon="1.62305">
        <ele>50.52</ele>
        <time>2024-07-12T14:56:25.809Z</time>
      </trkpt>
      <trkpt lat="50.65415" lon="1.62384">
        <ele>50.84</ele>
        <time>2024-07-12T14:56:26.556Z</time>
      </trkpt>
      <trkpt lat="50.65435" lon="1.62456">
        <ele>50.98</ele>
        <time>2024-07-12T14:56:27.310Z</time>
      </trkpt>
      <trkpt lat="50.65458" lon="1.62522">
        <ele>53.95</ele>
        <time>2024-07-12T14:56:28.072Z</time>
      </trkpt>
      <trkpt lat="50.65462" lon="1.62535">
        <ele>54.26</ele>
        <time>2024-07-12T14:56:28.836Z</time>
      </trkpt>
      <trkpt lat="50.65477" lon="1.62582">
        <ele>53.45</ele>
        <time>2024-07-12T14:56:29.605Z</time>
      </trkpt>
      <trkpt lat="50.65493" lon="1.62634">
        <ele>53.73</ele>
        <time>2024-07-12T14:56:30.380Z</time>
      </trkpt>
      <trkpt lat="50.65502" lon="1.62662">
        <ele>55.49</ele>
        <time>2024-07-12T14:56:31.158Z</time>
      </trkpt>
      <trkpt lat="50.6552" lon="1.62693">
        <ele>57.08</ele>
        <time>2024-07-12T14:56:31.940Z</time>
      </trkpt>
      <trkpt lat="50.65521" lon="1.62715">
        <ele>57.21</ele>
        <time>2024-07-12T14:56:32.725Z</time>
      </trkpt>
      <trkpt lat="50.65512" lon="1.6274">
        <ele>56.08</ele>
        <time>2024-07-12T14:56:33.512Z</time>
      </trkpt>
      <trkpt lat="50.6549" lon="1.62795">
        <ele>53.98</ele>
        <time>2024-07-12T14:56:34.306Z</time>
      </trkpt>
      <trkpt lat="50.65479" lon="1.62827">
        <ele>52.17</ele>
        <time>2024-07-12T14:56:35.104Z</time>
      </trkpt>
      <trkpt lat="50.65469" lon="1.62861">
        <ele>50.28</ele>
        <time>2024-07-12T14:56:35.906Z</time>
      </trkpt>
      <trkpt lat="50.65465" lon="1.62873">
        <ele>49.77</ele>
        <time>2024-07-12T14:56:36.709Z</time>
      </trkpt>
      <trkpt lat="50.65454" lon="1.62923">
        <ele>48.63</ele>
        <time>2024-07-12T14:56:37.517Z</time>
      </trkpt>
      <trkpt lat="50.65452" lon="1.62936">
        <ele>48.85</ele>
        <time>2024-07-12T14:56:38.327Z</time>
      </trkpt>
      <trkpt lat="50.65448" lon="1.62987">
        <ele>49.79</ele>
        <time>2024-07-12T14:56:39.142Z</time>
      </trkpt>
      <trkpt lat="50.65447" lon="1.63001">
        <ele>49.73</ele>
        <time>2024-07-12T14:56:39.958Z</time>
      </trkpt>
      <trkpt lat="50.65447" lon="1.63029">
        <ele>48.61</ele>
        <time>2024-07-12T14:56:40.777Z</time>
      </trkpt>
      <trkpt lat="50.65444" lon="1.63097">
        <ele>47.23</ele>
        <time>2024-07-12T14:56:41.603Z</time>
      </trkpt>
      <trkpt lat="50.65443" lon="1.6311">
        <ele>47.12</ele>
        <time>2024-07-12T14:56:42.431Z</time>
      </trkpt>
      <trkpt lat="50.65438" lon="1.63134">
        <ele>46.52</ele>
        <time>2024-07-12T14:56:43.261Z</time>
      </trkpt>
      <trkpt lat="50.65435" lon="1.63145">
        <ele>46</ele>
        <time>2024-07-12T14:56:44.092Z</time>
      </trkpt>
      <trkpt lat="50.65414" lon="1.63228">
        <ele>44.47</ele>
        <time>2024-07-12T14:56:44.932Z</time>
      </trkpt>
      <trkpt lat="50.65412" lon="1.63239">
        <ele>44.36</ele>
        <time>2024-07-12T14:56:45.774Z</time>
      </trkpt>
      <trkpt lat="50.65408" lon="1.63307">
        <ele>43.03</ele>
        <time>2024-07-12T14:56:46.623Z</time>
      </trkpt>
      <trkpt lat="50.65408" lon="1.63342">
        <ele>42.51</ele>
        <time>2024-07-12T14:56:47.475Z</time>
      </trkpt>
      <trkpt lat="50.65408" lon="1.63347">
        <ele>42.54</ele>
        <time>2024-07-12T14:56:48.328Z</time>
      </trkpt>
      <trkpt lat="50.65416" lon="1.63389">
        <ele>42.74</ele>
        <time>2024-07-12T14:56:49.185Z</time>
      </trkpt>
      <trkpt lat="50.65419" lon="1.63432">
        <ele>43.23</ele>
        <time>2024-07-12T14:56:50.046Z</time>
      </trkpt>
      <trkpt lat="50.65418" lon="1.63439">
        <ele>43.41</ele>
        <time>2024-07-12T14:56:50.908Z</time>
      </trkpt>
      <trkpt lat="50.65413" lon="1.63471">
        <ele>43.17</ele>
        <time>2024-07-12T14:56:51.774Z</time>
      </trkpt>
      <trkpt lat="50.65407" lon="1.63525">
        <ele>42.74</ele>
        <time>2024-07-12T14:56:52.645Z</time>
      </trkpt>
      <trkpt lat="50.65404" lon="1.63541">
        <ele>43.1</ele>
        <time>2024-07-12T14:56:53.518Z</time>
      </trkpt>
      <trkpt lat="50.65401" lon="1.63547">
        <ele>42.85</ele>
        <time>2024-07-12T14:56:54.392Z</time>
      </trkpt>
      <trkpt lat="50.65397" lon="1.63552">
        <ele>42.4</ele>
        <time>2024-07-12T14:56:55.266Z</time>
      </trkpt>
      <trkpt lat="50.65372" lon="1.63574">
        <ele>41.75</ele>
        <time>2024-07-12T14:56:56.145Z</time>
      </trkpt>
      <trkpt lat="50.65353" lon="1.63602">
        <ele>42.98</ele>
        <time>2024-07-12T14:56:57.028Z</time>
      </trkpt>
      <trkpt lat="50.65349" lon="1.63607">
        <ele>43</ele>
        <time>2024-07-12T14:56:57.912Z</time>
      </trkpt>
      <trkpt lat="50.65341" lon="1.63623">
        <ele>43.1</ele>
        <time>2024-07-12T14:56:58.798Z</time>
      </trkpt>
      <trkpt lat="50.65324" lon="1.63652">
        <ele>42.05</ele>
        <time>2024-07-12T14:56:59.688Z</time>
      </trkpt>
      <trkpt lat="50.65325" lon="1.63673">
        <ele>42.3</ele>
        <time>2024-07-12T14:57:00.580Z</time>
      </trkpt>
      <trkpt lat="50.65327" lon="1.63698">
        <ele>43.81</ele>
        <time>2024-07-12T14:57:01.475Z</time>
      </trkpt>
      <trkpt lat="50.65326" lon="1.63705">
        <ele>44.01</ele>
        <time>2024-07-12T14:57:02.370Z</time>
      </trkpt>
      <trkpt lat="50.65319" lon="1.63746">
        <ele>45.05</ele>
        <time>2024-07-12T14:57:03.270Z</time>
      </trkpt>
      <trkpt lat="50.65309" lon="1.63794">
        <ele>44.9</ele>
        <time>2024-07-12T14:57:04.175Z</time>
      </trkpt>
      <trkpt lat="50.65308" lon="1.63801">
        <ele>44.73</ele>
        <time>2024-07-12T14:57:05.081Z</time>
      </trkpt>
      <trkpt lat="50.65299" lon="1.63856">
        <ele>44.47</ele>
        <time>2024-07-12T14:57:05.992Z</time>
      </trkpt>
      <trkpt lat="50.65293" lon="1.639">
        <ele>44.46</ele>
        <time>2024-07-12T14:57:06.908Z</time>
      </trkpt>
      <trkpt lat="50.65292" lon="1.63907">
        <ele>44.43</ele>
        <time>2024-07-12T14:57:07.825Z</time>
      </trkpt>
      <trkpt lat="50.65284" lon="1.6396">
        <ele>44.2</ele>
        <time>2024-07-12T14:57:08.747Z</time>
      </trkpt>
      <trkpt lat="50.65272" lon="1.64028">
        <ele>41.31</ele>
        <time>2024-07-12T14:57:09.677Z</time>
      </trkpt>
      <trkpt lat="50.65264" lon="1.64078">
        <ele>39.36</ele>
        <time>2024-07-12T14:57:10.612Z</time>
      </trkpt>
      <trkpt lat="50.65259" lon="1.64109">
        <ele>38.39</ele>
        <time>2024-07-12T14:57:11.550Z</time>
      </trkpt>
      <trkpt lat="50.65252" lon="1.6414">
        <ele>38</ele>
        <time>2024-07-12T14:57:12.491Z</time>
      </trkpt>
      <trkpt lat="50.6524" lon="1.64191">
        <ele>37.49</ele>
        <time>2024-07-12T14:57:13.438Z</time>
      </trkpt>
      <trkpt lat="50.65233" lon="1.64231">
        <ele>37.24</ele>
        <time>2024-07-12T14:57:14.389Z</time>
      </trkpt>
      <trkpt lat="50.65232" lon="1.64237">
        <ele>37.17</ele>
        <time>2024-07-12T14:57:15.341Z</time>
      </trkpt>
      <trkpt lat="50.65222" lon="1.64247">
        <ele>37</ele>
        <time>2024-07-12T14:57:16.295Z</time>
      </trkpt>
      <trkpt lat="50.65214" lon="1.64247">
        <ele>36.79</ele>
        <time>2024-07-12T14:57:17.250Z</time>
      </trkpt>
      <trkpt lat="50.65205" lon="1.64243">
        <ele>36.61</ele>
        <time>2024-07-12T14:57:18.206Z</time>
      </trkpt>
      <trkpt lat="50.652" lon="1.6424">
        <ele>36.53</ele>
        <time>2024-07-12T14:57:19.163Z</time>
      </trkpt>
      <trkpt lat="50.65172" lon="1.64232">
        <ele>35.84</ele>
        <time>2024-07-12T14:57:20.125Z</time>
      </trkpt>
      <trkpt lat="50.65134" lon="1.64237">
        <ele>35.93</ele>
        <time>2024-07-12T14:57:21.093Z</time>
      </trkpt>
      <trkpt lat="50.65078" lon="1.64246">
        <ele>35.94</ele>
        <time>2024-07-12T14:57:22.070Z</time>
      </trkpt>
      <trkpt lat="50.65037" lon="1.64252">
        <ele>34.93</ele>
        <time>2024-07-12T14:57:23.054Z</time>
      </trkpt>
      <trkpt lat="50.65022" lon="1.64254">
        <ele>34.29</ele>
        <time>2024-07-12T14:57:24.040Z</time>
      </trkpt>
      <trkpt lat="50.64998" lon="1.64258">
        <ele>32.57</ele>
        <time>2024-07-12T14:57:25.030Z</time>
      </trkpt>
      <trkpt lat="50.64974" lon="1.64262">
        <ele>31</ele>
        <time>2024-07-12T14:57:26.024Z</time>
      </trkpt>
      <trkpt lat="50.64948" lon="1.64265">
        <ele>31</ele>
        <time>2024-07-12T14:57:27.022Z</time>
      </trkpt>
      <trkpt lat="50.64939" lon="1.64267">
        <ele>31</ele>
        <time>2024-07-12T14:57:28.021Z</time>
      </trkpt>
      <trkpt lat="50.64912" lon="1.64271">
        <ele>31.29</ele>
        <time>2024-07-12T14:57:29.025Z</time>
      </trkpt>
      <trkpt lat="50.64885" lon="1.64275">
        <ele>31.19</ele>
        <time>2024-07-12T14:57:30.033Z</time>
      </trkpt>
      <trkpt lat="50.64859" lon="1.64279">
        <ele>30.52</ele>
        <time>2024-07-12T14:57:31.045Z</time>
      </trkpt>
      <trkpt lat="50.64823" lon="1.64284">
        <ele>29.01</ele>
        <time>2024-07-12T14:57:32.063Z</time>
      </trkpt>
      <trkpt lat="50.6481" lon="1.64285">
        <ele>28.26</ele>
        <time>2024-07-12T14:57:33.083Z</time>
      </trkpt>
      <trkpt lat="50.64804" lon="1.64284">
        <ele>28.39</ele>
        <time>2024-07-12T14:57:34.104Z</time>
      </trkpt>
      <trkpt lat="50.64786" lon="1.64287">
        <ele>29.18</ele>
        <time>2024-07-12T14:57:35.128Z</time>
      </trkpt>
      <trkpt lat="50.6476" lon="1.6429">
        <ele>29.31</ele>
        <time>2024-07-12T14:57:36.156Z</time>
      </trkpt>
      <trkpt lat="50.64711" lon="1.64299">
        <ele>30.22</ele>
        <time>2024-07-12T14:57:37.192Z</time>
      </trkpt>
      <trkpt lat="50.64697" lon="1.64301">
        <ele>30.44</ele>
        <time>2024-07-12T14:57:38.230Z</time>
      </trkpt>
      <trkpt lat="50.64677" lon="1.64303">
        <ele>30.77</ele>
        <time>2024-07-12T14:57:39.272Z</time>
      </trkpt>
      <trkpt lat="50.64662" lon="1.64303">
        <ele>31</ele>
        <time>2024-07-12T14:57:40.316Z</time>
      </trkpt>
      <trkpt lat="50.64645" lon="1.64301">
        <ele>31</ele>
        <time>2024-07-12T14:57:41.363Z</time>
      </trkpt>
      <trkpt lat="50.64618" lon="1.64295">
        <ele>31.9</ele>
        <time>2024-07-12T14:57:42.414Z</time>
      </trkpt>
      <trkpt lat="50.64615" lon="1.64294">
        <ele>32.01</ele>
        <time>2024-07-12T14:57:43.466Z</time>
      </trkpt>
      <trkpt lat="50.64592" lon="1.64281">
        <ele>32.83</ele>
        <time>2024-07-12T14:57:44.521Z</time>
      </trkpt>
      <trkpt lat="50.6459" lon="1.64279">
        <ele>32.91</ele>
        <time>2024-07-12T14:57:45.577Z</time>
      </trkpt>
      <trkpt lat="50.64575" lon="1.64261">
        <ele>34.35</ele>
        <time>2024-07-12T14:57:46.636Z</time>
      </trkpt>
      <trkpt lat="50.64567" lon="1.64257">
        <ele>35.26</ele>
        <time>2024-07-12T14:57:47.696Z</time>
      </trkpt>
      <trkpt lat="50.64561" lon="1.64256">
        <ele>35.81</ele>
        <time>2024-07-12T14:57:48.757Z</time>
      </trkpt>
      <trkpt lat="50.64547" lon="1.64264">
        <ele>36.53</ele>
        <time>2024-07-12T14:57:49.820Z</time>
      </trkpt>
      <trkpt lat="50.64538" lon="1.6428">
        <ele>37.39</ele>
        <time>2024-07-12T14:57:50.886Z</time>
      </trkpt>
      <trkpt lat="50.64535" lon="1.64283">
        <ele>37.68</ele>
        <time>2024-07-12T14:57:51.952Z</time>
      </trkpt>
      <trkpt lat="50.64523" lon="1.64298">
        <ele>38.89</ele>
        <time>2024-07-12T14:57:53.021Z</time>
      </trkpt>
      <trkpt lat="50.64495" lon="1.64317">
        <ele>40.25</ele>
        <time>2024-07-12T14:57:54.095Z</time>
      </trkpt>
      <trkpt lat="50.64475" lon="1.64329">
        <ele>40.03</ele>
        <time>2024-07-12T14:57:55.172Z</time>
      </trkpt>
      <trkpt lat="50.64464" lon="1.64333">
        <ele>40.15</ele>
        <time>2024-07-12T14:57:56.251Z</time>
      </trkpt>
      <trkpt lat="50.64442" lon="1.64335">
        <ele>40.43</ele>
        <time>2024-07-12T14:57:57.333Z</time>
      </trkpt>
      <trkpt lat="50.64435" lon="1.64335">
        <ele>40.95</ele>
        <time>2024-07-12T14:57:58.416Z</time>
      </trkpt>
      <trkpt lat="50.64402" lon="1.6434">
        <ele>42.57</ele>
        <time>2024-07-12T14:57:59.505Z</time>
      </trkpt>
      <trkpt lat="50.64398" lon="1.64341">
        <ele>42.69</ele>
        <time>2024-07-12T14:58:00.594Z</time>
      </trkpt>
      <trkpt lat="50.64359" lon="1.64345">
        <ele>43.79</ele>
        <time>2024-07-12T14:58:01.690Z</time>
      </trkpt>
      <trkpt lat="50.64332" lon="1.64351">
        <ele>43.47</ele>
        <time>2024-07-12T14:58:02.790Z</time>
      </trkpt>
      <trkpt lat="50.64328" lon="1.64351">
        <ele>43.49</ele>
        <time>2024-07-12T14:58:03.891Z</time>
      </trkpt>
      <trkpt lat="50.64323" lon="1.64352">
        <ele>43.5</ele>
        <time>2024-07-12T14:58:04.992Z</time>
      </trkpt>
      <trkpt lat="50.64297" lon="1.64356">
        <ele>42.67</ele>
        <time>2024-07-12T14:58:06.098Z</time>
      </trkpt>
      <trkpt lat="50.64255" lon="1.64361">
        <ele>42.04</ele>
        <time>2024-07-12T14:58:07.210Z</time>
      </trkpt>
      <trkpt lat="50.64212" lon="1.64368">
        <ele>42.52</ele>
        <time>2024-07-12T14:58:08.329Z</time>
      </trkpt>
      <trkpt lat="50.64157" lon="1.64378">
        <ele>42.48</ele>
        <time>2024-07-12T14:58:09.457Z</time>
      </trkpt>
      <trkpt lat="50.64152" lon="1.64379">
        <ele>42.49</ele>
        <time>2024-07-12T14:58:10.586Z</time>
      </trkpt>
      <trkpt lat="50.64122" lon="1.64383">
        <ele>43.11</ele>
        <time>2024-07-12T14:58:11.720Z</time>
      </trkpt>
      <trkpt lat="50.64106" lon="1.64384">
        <ele>43.63</ele>
        <time>2024-07-12T14:58:12.856Z</time>
      </trkpt>
      <trkpt lat="50.64105" lon="1.64387">
        <ele>43.4</ele>
        <time>2024-07-12T14:58:13.993Z</time>
      </trkpt>
      <trkpt lat="50.64105" lon="1.64391">
        <ele>43.12</ele>
        <time>2024-07-12T14:58:15.130Z</time>
      </trkpt>
      <trkpt lat="50.641" lon="1.64413">
        <ele>41.8</ele>
        <time>2024-07-12T14:58:16.270Z</time>
      </trkpt>
      <trkpt lat="50.64097" lon="1.64427">
        <ele>41.23</ele>
        <time>2024-07-12T14:58:17.411Z</time>
      </trkpt>
      <trkpt lat="50.64097" lon="1.64428">
        <ele>41.12</ele>
        <time>2024-07-12T14:58:18.552Z</time>
      </trkpt>
      <trkpt lat="50.64098" lon="1.64433">
        <ele>40.77</ele>
        <time>2024-07-12T14:58:19.694Z</time>
      </trkpt>
      <trkpt lat="50.64094" lon="1.64442">
        <ele>40.73</ele>
        <time>2024-07-12T14:58:20.837Z</time>
      </trkpt>
      <trkpt lat="50.6409" lon="1.64444">
        <ele>40.93</ele>
        <time>2024-07-12T14:58:21.980Z</time>
      </trkpt>
      <trkpt lat="50.64085" lon="1.6446">
        <ele>40.66</ele>
        <time>2024-07-12T14:58:23.125Z</time>
      </trkpt>
      <trkpt lat="50.64073" lon="1.6449">
        <ele>39.53</ele>
        <time>2024-07-12T14:58:24.274Z</time>
      </trkpt>
      <trkpt lat="50.64069" lon="1.64505">
        <ele>39.29</ele>
        <time>2024-07-12T14:58:25.425Z</time>
      </trkpt>
      <trkpt lat="50.64058" lon="1.64542">
        <ele>38.71</ele>
        <time>2024-07-12T14:58:26.580Z</time>
      </trkpt>
      <trkpt lat="50.64054" lon="1.64553">
        <ele>38.41</ele>
        <time>2024-07-12T14:58:27.736Z</time>
      </trkpt>
      <trkpt lat="50.6404" lon="1.646">
        <ele>36.91</ele>
        <time>2024-07-12T14:58:28.897Z</time>
      </trkpt>
      <trkpt lat="50.64032" lon="1.64624">
        <ele>36.33</ele>
        <time>2024-07-12T14:58:30.061Z</time>
      </trkpt>
      <trkpt lat="50.6402" lon="1.64662">
        <ele>34.31</ele>
        <time>2024-07-12T14:58:31.229Z</time>
      </trkpt>
      <trkpt lat="50.64017" lon="1.64675">
        <ele>33.72</ele>
        <time>2024-07-12T14:58:32.399Z</time>
      </trkpt>
      <trkpt lat="50.64006" lon="1.64711">
        <ele>32.47</ele>
        <time>2024-07-12T14:58:33.573Z</time>
      </trkpt>
      <trkpt lat="50.63983" lon="1.64785">
        <ele>30.87</ele>
        <time>2024-07-12T14:58:34.755Z</time>
      </trkpt>
      <trkpt lat="50.6397" lon="1.64831">
        <ele>30</ele>
        <time>2024-07-12T14:58:35.942Z</time>
      </trkpt>
      <trkpt lat="50.63952" lon="1.64887">
        <ele>30</ele>
        <time>2024-07-12T14:58:37.136Z</time>
      </trkpt>
      <trkpt lat="50.63939" lon="1.64932">
        <ele>30.35</ele>
        <time>2024-07-12T14:58:38.335Z</time>
      </trkpt>
      <trkpt lat="50.63929" lon="1.64962">
        <ele>31</ele>
        <time>2024-07-12T14:58:39.537Z</time>
      </trkpt>
      <trkpt lat="50.63914" lon="1.65005">
        <ele>30.78</ele>
        <time>2024-07-12T14:58:40.744Z</time>
      </trkpt>
      <trkpt lat="50.639" lon="1.65049">
        <ele>29.87</ele>
        <time>2024-07-12T14:58:41.956Z</time>
      </trkpt>
      <trkpt lat="50.63878" lon="1.6512">
        <ele>26.47</ele>
        <time>2024-07-12T14:58:43.176Z</time>
      </trkpt>
      <trkpt lat="50.63854" lon="1.65193">
        <ele>27.61</ele>
        <time>2024-07-12T14:58:44.405Z</time>
      </trkpt>
      <trkpt lat="50.63832" lon="1.6527">
        <ele>28.63</ele>
        <time>2024-07-12T14:58:45.642Z</time>
      </trkpt>
      <trkpt lat="50.63812" lon="1.65329">
        <ele>29.44</ele>
        <time>2024-07-12T14:58:46.886Z</time>
      </trkpt>
      <trkpt lat="50.63799" lon="1.65356">
        <ele>30.98</ele>
        <time>2024-07-12T14:58:48.133Z</time>
      </trkpt>
      <trkpt lat="50.63796" lon="1.65362">
        <ele>31.24</ele>
        <time>2024-07-12T14:58:49.381Z</time>
      </trkpt>
      <trkpt lat="50.6379" lon="1.65375">
        <ele>31.98</ele>
        <time>2024-07-12T14:58:50.631Z</time>
      </trkpt>
      <trkpt lat="50.63784" lon="1.65388">
        <ele>32.68</ele>
        <time>2024-07-12T14:58:51.883Z</time>
      </trkpt>
      <trkpt lat="50.63777" lon="1.65397">
        <ele>32.64</ele>
        <time>2024-07-12T14:58:53.136Z</time>
      </trkpt>
      <trkpt lat="50.63772" lon="1.65407">
        <ele>32.43</ele>
        <time>2024-07-12T14:58:54.390Z</time>
      </trkpt>
      <trkpt lat="50.63762" lon="1.65423">
        <ele>33.43</ele>
        <time>2024-07-12T14:58:55.646Z</time>
      </trkpt>
      <trkpt lat="50.63758" lon="1.6543">
        <ele>33.8</ele>
        <time>2024-07-12T14:58:56.904Z</time>
      </trkpt>
      <trkpt lat="50.6374" lon="1.65462">
        <ele>35.96</ele>
        <time>2024-07-12T14:58:58.166Z</time>
      </trkpt>
      <trkpt lat="50.63736" lon="1.65469">
        <ele>36.48</ele>
        <time>2024-07-12T14:58:59.429Z</time>
      </trkpt>
      <trkpt lat="50.6372" lon="1.65498">
        <ele>37.54</ele>
        <time>2024-07-12T14:59:00.696Z</time>
      </trkpt>
      <trkpt lat="50.63719" lon="1.655">
        <ele>37.59</ele>
        <time>2024-07-12T14:59:01.963Z</time>
      </trkpt>
      <trkpt lat="50.63706" lon="1.65522">
        <ele>37.57</ele>
        <time>2024-07-12T14:59:03.233Z</time>
      </trkpt>
      <trkpt lat="50.6369" lon="1.65549">
        <ele>37.02</ele>
        <time>2024-07-12T14:59:04.507Z</time>
      </trkpt>
      <trkpt lat="50.63676" lon="1.65574">
        <ele>36.4</ele>
        <time>2024-07-12T14:59:05.784Z</time>
      </trkpt>
      <trkpt lat="50.63662" lon="1.65596">
        <ele>35.69</ele>
        <time>2024-07-12T14:59:07.064Z</time>
      </trkpt>
      <trkpt lat="50.63655" lon="1.65605">
        <ele>35.21</ele>
        <time>2024-07-12T14:59:08.346Z</time>
      </trkpt>
      <trkpt lat="50.63653" lon="1.65605">
        <ele>35.12</ele>
        <time>2024-07-12T14:59:09.628Z</time>
      </trkpt>
      <trkpt lat="50.63649" lon="1.65607">
        <ele>34.75</ele>
        <time>2024-07-12T14:59:10.911Z</time>
      </trkpt>
      <trkpt lat="50.63645" lon="1.65617">
        <ele>34.11</ele>
        <time>2024-07-12T14:59:12.195Z</time>
      </trkpt>
      <trkpt lat="50.63642" lon="1.65619">
        <ele>33.85</ele>
        <time>2024-07-12T14:59:13.479Z</time>
      </trkpt>
      <trkpt lat="50.63637" lon="1.65619">
        <ele>33.65</ele>
        <time>2024-07-12T14:59:14.764Z</time>
      </trkpt>
      <trkpt lat="50.63631" lon="1.65625">
        <ele>33.23</ele>
        <time>2024-07-12T14:59:16.050Z</time>
      </trkpt>
      <trkpt lat="50.63631" lon="1.65634">
        <ele>33</ele>
        <time>2024-07-12T14:59:17.337Z</time>
      </trkpt>
      <trkpt lat="50.63632" lon="1.65643">
        <ele>33</ele>
        <time>2024-07-12T14:59:18.625Z</time>
      </trkpt>
      <trkpt lat="50.63633" lon="1.65646">
        <ele>33</ele>
        <time>2024-07-12T14:59:19.914Z</time>
      </trkpt>
      <trkpt lat="50.63631" lon="1.65653">
        <ele>33</ele>
        <time>2024-07-12T14:59:21.203Z</time>
      </trkpt>
      <trkpt lat="50.63626" lon="1.65659">
        <ele>33</ele>
        <time>2024-07-12T14:59:22.493Z</time>
      </trkpt>
      <trkpt lat="50.63618" lon="1.65676">
        <ele>33</ele>
        <time>2024-07-12T14:59:23.785Z</time>
      </trkpt>
      <trkpt lat="50.6361" lon="1.65705">
        <ele>33.18</ele>
        <time>2024-07-12T14:59:25.081Z</time>
      </trkpt>
      <trkpt lat="50.63608" lon="1.65739">
        <ele>33.43</ele>
        <time>2024-07-12T14:59:26.380Z</time>
      </trkpt>
      <trkpt lat="50.63609" lon="1.6578">
        <ele>34.78</ele>
        <time>2024-07-12T14:59:27.683Z</time>
      </trkpt>
      <trkpt lat="50.63612" lon="1.65795">
        <ele>35.35</ele>
        <time>2024-07-12T14:59:28.988Z</time>
      </trkpt>
      <trkpt lat="50.63614" lon="1.65809">
        <ele>35.95</ele>
        <time>2024-07-12T14:59:30.294Z</time>
      </trkpt>
      <trkpt lat="50.63617" lon="1.65821">
        <ele>36.9</ele>
        <time>2024-07-12T14:59:31.602Z</time>
      </trkpt>
      <trkpt lat="50.63621" lon="1.65836">
        <ele>38.26</ele>
        <time>2024-07-12T14:59:32.911Z</time>
      </trkpt>
      <trkpt lat="50.63625" lon="1.65854">
        <ele>38.96</ele>
        <time>2024-07-12T14:59:34.222Z</time>
      </trkpt>
      <trkpt lat="50.63627" lon="1.65864">
        <ele>39.39</ele>
        <time>2024-07-12T14:59:35.534Z</time>
      </trkpt>
      <trkpt lat="50.63635" lon="1.65902">
        <ele>41.29</ele>
        <time>2024-07-12T14:59:36.850Z</time>
      </trkpt>
      <trkpt lat="50.63636" lon="1.65907">
        <ele>41.47</ele>
        <time>2024-07-12T14:59:38.167Z</time>
      </trkpt>
      <trkpt lat="50.63644" lon="1.65951">
        <ele>43.09</ele>
        <time>2024-07-12T14:59:39.489Z</time>
      </trkpt>
      <trkpt lat="50.63647" lon="1.65963">
        <ele>43.49</ele>
        <time>2024-07-12T14:59:40.812Z</time>
      </trkpt>
      <trkpt lat="50.63654" lon="1.65994">
        <ele>43.79</ele>
        <time>2024-07-12T14:59:42.138Z</time>
      </trkpt>
      <trkpt lat="50.63657" lon="1.6601">
        <ele>43.52</ele>
        <time>2024-07-12T14:59:43.466Z</time>
      </trkpt>
      <trkpt lat="50.63663" lon="1.66035">
        <ele>44.11</ele>
        <time>2024-07-12T14:59:44.797Z</time>
      </trkpt>
      <trkpt lat="50.63665" lon="1.66047">
        <ele>44.54</ele>
        <time>2024-07-12T14:59:46.129Z</time>
      </trkpt>
      <trkpt lat="50.63668" lon="1.66063">
        <ele>45.01</ele>
        <time>2024-07-12T14:59:47.463Z</time>
      </trkpt>
      <trkpt lat="50.63672" lon="1.66077">
        <ele>45.67</ele>
        <time>2024-07-12T14:59:48.798Z</time>
      </trkpt>
      <trkpt lat="50.63676" lon="1.66094">
        <ele>46.42</ele>
        <time>2024-07-12T14:59:50.135Z</time>
      </trkpt>
      <trkpt lat="50.63677" lon="1.66101">
        <ele>46.71</ele>
        <time>2024-07-12T14:59:51.473Z</time>
      </trkpt>
      <trkpt lat="50.63682" lon="1.66124">
        <ele>47.4</ele>
        <time>2024-07-12T14:59:52.813Z</time>
      </trkpt>
      <trkpt lat="50.63688" lon="1.6615">
        <ele>48.23</ele>
        <time>2024-07-12T14:59:54.156Z</time>
      </trkpt>
      <trkpt lat="50.63688" lon="1.66153">
        <ele>48.34</ele>
        <time>2024-07-12T14:59:55.499Z</time>
      </trkpt>
      <trkpt lat="50.63692" lon="1.66174">
        <ele>49.11</ele>
        <time>2024-07-12T14:59:56.845Z</time>
      </trkpt>
      <trkpt lat="50.63693" lon="1.66179">
        <ele>49.26</ele>
        <time>2024-07-12T14:59:58.191Z</time>
      </trkpt>
      <trkpt lat="50.63698" lon="1.66202">
        <ele>50.09</ele>
        <time>2024-07-12T14:59:59.540Z</time>
      </trkpt>
      <trkpt lat="50.63699" lon="1.66209">
        <ele>50.34</ele>
        <time>2024-07-12T15:00:00.889Z</time>
      </trkpt>
      <trkpt lat="50.63702" lon="1.66227">
        <ele>50.87</ele>
        <time>2024-07-12T15:00:02.240Z</time>
      </trkpt>
      <trkpt lat="50.63704" lon="1.66238">
        <ele>50.79</ele>
        <time>2024-07-12T15:00:03.593Z</time>
      </trkpt>
      <trkpt lat="50.63707" lon="1.66258">
        <ele>50.67</ele>
        <time>2024-07-12T15:00:04.948Z</time>
      </trkpt>
      <trkpt lat="50.63716" lon="1.66304">
        <ele>50.35</ele>
        <time>2024-07-12T15:00:06.307Z</time>
      </trkpt>
      <trkpt lat="50.63726" lon="1.6634">
        <ele>51.09</ele>
        <time>2024-07-12T15:00:07.671Z</time>
      </trkpt>
      <trkpt lat="50.63737" lon="1.66391">
        <ele>51.2</ele>
        <time>2024-07-12T15:00:09.040Z</time>
      </trkpt>
      <trkpt lat="50.63738" lon="1.66398">
        <ele>51.12</ele>
        <time>2024-07-12T15:00:10.410Z</time>
      </trkpt>
      <trkpt lat="50.63743" lon="1.66421">
        <ele>50.76</ele>
        <time>2024-07-12T15:00:11.782Z</time>
      </trkpt>
      <trkpt lat="50.63751" lon="1.66459">
        <ele>49.73</ele>
        <time>2024-07-12T15:00:13.158Z</time>
      </trkpt>
      <trkpt lat="50.63755" lon="1.66479">
        <ele>48.81</ele>
        <time>2024-07-12T15:00:14.536Z</time>
      </trkpt>
      <trkpt lat="50.63762" lon="1.66508">
        <ele>46.89</ele>
        <time>2024-07-12T15:00:15.918Z</time>
      </trkpt>
      <trkpt lat="50.63771" lon="1.66527">
        <ele>46.19</ele>
        <time>2024-07-12T15:00:17.302Z</time>
      </trkpt>
      <trkpt lat="50.63771" lon="1.6653">
        <ele>46.08</ele>
        <time>2024-07-12T15:00:18.686Z</time>
      </trkpt>
      <trkpt lat="50.63777" lon="1.66542">
        <ele>45.65</ele>
        <time>2024-07-12T15:00:20.072Z</time>
      </trkpt>
      <trkpt lat="50.63782" lon="1.66551">
        <ele>45.32</ele>
        <time>2024-07-12T15:00:21.459Z</time>
      </trkpt>
      <trkpt lat="50.63785" lon="1.66559">
        <ele>45.04</ele>
        <time>2024-07-12T15:00:22.847Z</time>
      </trkpt>
      <trkpt lat="50.63794" lon="1.66579">
        <ele>45.24</ele>
        <time>2024-07-12T15:00:24.237Z</time>
      </trkpt>
      <trkpt lat="50.63807" lon="1.66602">
        <ele>46.11</ele>
        <time>2024-07-12T15:00:25.631Z</time>
      </trkpt>
      <trkpt lat="50.63813" lon="1.6661">
        <ele>46.45</ele>
        <time>2024-07-12T15:00:27.026Z</time>
      </trkpt>
      <trkpt lat="50.63819" lon="1.6662">
        <ele>47.12</ele>
        <time>2024-07-12T15:00:28.422Z</time>
      </trkpt>
      <trkpt lat="50.63832" lon="1.66643">
        <ele>48.94</ele>
        <time>2024-07-12T15:00:29.821Z</time>
      </trkpt>
      <trkpt lat="50.63842" lon="1.66659">
        <ele>49.18</ele>
        <time>2024-07-12T15:00:31.223Z</time>
      </trkpt>
      <trkpt lat="50.6387" lon="1.66705">
        <ele>50.01</ele>
        <time>2024-07-12T15:00:32.631Z</time>
      </trkpt>
      <trkpt lat="50.63892" lon="1.6674">
        <ele>50.52</ele>
        <time>2024-07-12T15:00:34.044Z</time>
      </trkpt>
      <trkpt lat="50.63923" lon="1.66793">
        <ele>53.29</ele>
        <time>2024-07-12T15:00:35.465Z</time>
      </trkpt>
      <trkpt lat="50.63927" lon="1.668">
        <ele>53.39</ele>
        <time>2024-07-12T15:00:36.886Z</time>
      </trkpt>
      <trkpt lat="50.63947" lon="1.66833">
        <ele>53.86</ele>
        <time>2024-07-12T15:00:38.312Z</time>
      </trkpt>
      <trkpt lat="50.63971" lon="1.66872">
        <ele>53.81</ele>
        <time>2024-07-12T15:00:39.744Z</time>
      </trkpt>
      <trkpt lat="50.63975" lon="1.66878">
        <ele>53.99</ele>
        <time>2024-07-12T15:00:41.176Z</time>
      </trkpt>
      <trkpt lat="50.63998" lon="1.6692">
        <ele>52.79</ele>
        <time>2024-07-12T15:00:42.614Z</time>
      </trkpt>
      <trkpt lat="50.64005" lon="1.66931">
        <ele>52.51</ele>
        <time>2024-07-12T15:00:44.054Z</time>
      </trkpt>
      <trkpt lat="50.64026" lon="1.66966">
        <ele>52.69</ele>
        <time>2024-07-12T15:00:45.499Z</time>
      </trkpt>
      <trkpt lat="50.64051" lon="1.67005">
        <ele>51.5</ele>
        <time>2024-07-12T15:00:46.949Z</time>
      </trkpt>
      <trkpt lat="50.6407" lon="1.67034">
        <ele>49.14</ele>
        <time>2024-07-12T15:00:48.403Z</time>
      </trkpt>
      <trkpt lat="50.64079" lon="1.6705">
        <ele>47.43</ele>
        <time>2024-07-12T15:00:49.860Z</time>
      </trkpt>
      <trkpt lat="50.64085" lon="1.67059">
        <ele>46.42</ele>
        <time>2024-07-12T15:00:51.318Z</time>
      </trkpt>
      <trkpt lat="50.64095" lon="1.67076">
        <ele>44.54</ele>
        <time>2024-07-12T15:00:52.778Z</time>
      </trkpt>
      <trkpt lat="50.64107" lon="1.67095">
        <ele>42.55</ele>
        <time>2024-07-12T15:00:54.241Z</time>
      </trkpt>
      <trkpt lat="50.64118" lon="1.67114">
        <ele>40.49</ele>
        <time>2024-07-12T15:00:55.707Z</time>
      </trkpt>
      <trkpt lat="50.64129" lon="1.67133">
        <ele>39.18</ele>
        <time>2024-07-12T15:00:57.175Z</time>
      </trkpt>
      <trkpt lat="50.64143" lon="1.67158">
        <ele>37.41</ele>
        <time>2024-07-12T15:00:58.647Z</time>
      </trkpt>
      <trkpt lat="50.64148" lon="1.67165">
        <ele>36.98</ele>
        <time>2024-07-12T15:01:00.120Z</time>
      </trkpt>
      <trkpt lat="50.64158" lon="1.6718">
        <ele>36.15</ele>
        <time>2024-07-12T15:01:01.595Z</time>
      </trkpt>
      <trkpt lat="50.64167" lon="1.67196">
        <ele>35.38</ele>
        <time>2024-07-12T15:01:03.072Z</time>
      </trkpt>
      <trkpt lat="50.64177" lon="1.67211">
        <ele>34.35</ele>
        <time>2024-07-12T15:01:04.551Z</time>
      </trkpt>
      <trkpt lat="50.64186" lon="1.67226">
        <ele>33.28</ele>
        <time>2024-07-12T15:01:06.032Z</time>
      </trkpt>
      <trkpt lat="50.64196" lon="1.6724">
        <ele>32.29</ele>
        <time>2024-07-12T15:01:07.516Z</time>
      </trkpt>
      <trkpt lat="50.64204" lon="1.67254">
        <ele>30.91</ele>
        <time>2024-07-12T15:01:09.002Z</time>
      </trkpt>
      <trkpt lat="50.64212" lon="1.67267">
        <ele>29.61</ele>
        <time>2024-07-12T15:01:10.489Z</time>
      </trkpt>
      <trkpt lat="50.64215" lon="1.67274">
        <ele>28.91</ele>
        <time>2024-07-12T15:01:11.977Z</time>
      </trkpt>
      <trkpt lat="50.6422" lon="1.67288">
        <ele>27.82</ele>
        <time>2024-07-12T15:01:13.467Z</time>
      </trkpt>
      <trkpt lat="50.64225" lon="1.67306">
        <ele>27.22</ele>
        <time>2024-07-12T15:01:14.959Z</time>
      </trkpt>
      <trkpt lat="50.64226" lon="1.67322">
        <ele>27.43</ele>
        <time>2024-07-12T15:01:16.453Z</time>
      </trkpt>
      <trkpt lat="50.64225" lon="1.67347">
        <ele>28.04</ele>
        <time>2024-07-12T15:01:17.949Z</time>
      </trkpt>
      <trkpt lat="50.64223" lon="1.67363">
        <ele>28.09</ele>
        <time>2024-07-12T15:01:19.447Z</time>
      </trkpt>
      <trkpt lat="50.6422" lon="1.67385">
        <ele>28.67</ele>
        <time>2024-07-12T15:01:20.947Z</time>
      </trkpt>
      <trkpt lat="50.64215" lon="1.6741">
        <ele>28.2</ele>
        <time>2024-07-12T15:01:22.450Z</time>
      </trkpt>
      <trkpt lat="50.64212" lon="1.67429">
        <ele>27.95</ele>
        <time>2024-07-12T15:01:23.955Z</time>
      </trkpt>
      <trkpt lat="50.64211" lon="1.67432">
        <ele>28.11</ele>
        <time>2024-07-12T15:01:25.460Z</time>
      </trkpt>
      <trkpt lat="50.64209" lon="1.67447">
        <ele>28.45</ele>
        <time>2024-07-12T15:01:26.967Z</time>
      </trkpt>
      <trkpt lat="50.64206" lon="1.67461">
        <ele>28.96</ele>
        <time>2024-07-12T15:01:28.475Z</time>
      </trkpt>
      <trkpt lat="50.64205" lon="1.67467">
        <ele>29.27</ele>
        <time>2024-07-12T15:01:29.984Z</time>
      </trkpt>
      <trkpt lat="50.64203" lon="1.67483">
        <ele>30.12</ele>
        <time>2024-07-12T15:01:31.494Z</time>
      </trkpt>
      <trkpt lat="50.64203" lon="1.67486">
        <ele>30.28</ele>
        <time>2024-07-12T15:01:33.005Z</time>
      </trkpt>
      <trkpt lat="50.64199" lon="1.6751">
        <ele>31.47</ele>
        <time>2024-07-12T15:01:34.518Z</time>
      </trkpt>
      <trkpt lat="50.64196" lon="1.67528">
        <ele>32.49</ele>
        <time>2024-07-12T15:01:36.033Z</time>
      </trkpt>
      <trkpt lat="50.64195" lon="1.67537">
        <ele>32.88</ele>
        <time>2024-07-12T15:01:37.549Z</time>
      </trkpt>
      <trkpt lat="50.64193" lon="1.67548">
        <ele>33.54</ele>
        <time>2024-07-12T15:01:39.066Z</time>
      </trkpt>
      <trkpt lat="50.64192" lon="1.67557">
        <ele>34.06</ele>
        <time>2024-07-12T15:01:40.584Z</time>
      </trkpt>
      <trkpt lat="50.6419" lon="1.67571">
        <ele>34.81</ele>
        <time>2024-07-12T15:01:42.104Z</time>
      </trkpt>
      <trkpt lat="50.64187" lon="1.67586">
        <ele>35.6</ele>
        <time>2024-07-12T15:01:43.625Z</time>
      </trkpt>
      <trkpt lat="50.64185" lon="1.67605">
        <ele>36.26</ele>
        <time>2024-07-12T15:01:45.148Z</time>
      </trkpt>
      <trkpt lat="50.64182" lon="1.67627">
        <ele>37.19</ele>
        <time>2024-07-12T15:01:46.673Z</time>
      </trkpt>
      <trkpt lat="50.64179" lon="1.67645">
        <ele>37.64</ele>
        <time>2024-07-12T15:01:48.200Z</time>
      </trkpt>
      <trkpt lat="50.64179" lon="1.67648">
        <ele>37.74</ele>
        <time>2024-07-12T15:01:49.728Z</time>
      </trkpt>
      <trkpt lat="50.64174" lon="1.67678">
        <ele>38.26</ele>
        <time>2024-07-12T15:01:51.259Z</time>
      </trkpt>
      <trkpt lat="50.64173" lon="1.67682">
        <ele>38.18</ele>
        <time>2024-07-12T15:01:52.790Z</time>
      </trkpt>
      <trkpt lat="50.64167" lon="1.67719">
        <ele>38.27</ele>
        <time>2024-07-12T15:01:54.325Z</time>
      </trkpt>
      <trkpt lat="50.64161" lon="1.67751">
        <ele>38.86</ele>
        <time>2024-07-12T15:01:55.863Z</time>
      </trkpt>
      <trkpt lat="50.6416" lon="1.67762">
        <ele>38.87</ele>
        <time>2024-07-12T15:01:57.403Z</time>
      </trkpt>
      <trkpt lat="50.64161" lon="1.67809">
        <ele>40.21</ele>
        <time>2024-07-12T15:01:58.947Z</time>
      </trkpt>
      <trkpt lat="50.64165" lon="1.67822">
        <ele>40.6</ele>
        <time>2024-07-12T15:02:00.493Z</time>
      </trkpt>
      <trkpt lat="50.64171" lon="1.67834">
        <ele>41</ele>
        <time>2024-07-12T15:02:02.040Z</time>
      </trkpt>
      <trkpt lat="50.64182" lon="1.67855">
        <ele>42.03</ele>
        <time>2024-07-12T15:02:03.590Z</time>
      </trkpt>
      <trkpt lat="50.64186" lon="1.67861">
        <ele>42.37</ele>
        <time>2024-07-12T15:02:05.141Z</time>
      </trkpt>
      <trkpt lat="50.64197" lon="1.67881">
        <ele>42.94</ele>
        <time>2024-07-12T15:02:06.695Z</time>
      </trkpt>
      <trkpt lat="50.64201" lon="1.67888">
        <ele>43</ele>
        <time>2024-07-12T15:02:08.250Z</time>
      </trkpt>
      <trkpt lat="50.64216" lon="1.67916">
        <ele>43</ele>
        <time>2024-07-12T15:02:09.808Z</time>
      </trkpt>
      <trkpt lat="50.64223" lon="1.67929">
        <ele>43</ele>
        <time>2024-07-12T15:02:11.368Z</time>
      </trkpt>
      <trkpt lat="50.64238" lon="1.67954">
        <ele>43.59</ele>
        <time>2024-07-12T15:02:12.932Z</time>
      </trkpt>
      <trkpt lat="50.64244" lon="1.67965">
        <ele>44.2</ele>
        <time>2024-07-12T15:02:14.497Z</time>
      </trkpt>
      <trkpt lat="50.6426" lon="1.67996">
        <ele>45.62</ele>
        <time>2024-07-12T15:02:16.066Z</time>
      </trkpt>
      <trkpt lat="50.64281" lon="1.6803">
        <ele>47.84</ele>
        <time>2024-07-12T15:02:17.640Z</time>
      </trkpt>
      <trkpt lat="50.64282" lon="1.68034">
        <ele>48.05</ele>
        <time>2024-07-12T15:02:19.215Z</time>
      </trkpt>
      <trkpt lat="50.64292" lon="1.68053">
        <ele>49.09</ele>
        <time>2024-07-12T15:02:20.792Z</time>
      </trkpt>
      <trkpt lat="50.64295" lon="1.68054">
        <ele>49.24</ele>
        <time>2024-07-12T15:02:22.370Z</time>
      </trkpt>
      <trkpt lat="50.64301" lon="1.68061">
        <ele>49.67</ele>
        <time>2024-07-12T15:02:23.949Z</time>
      </trkpt>
      <trkpt lat="50.643" lon="1.68067">
        <ele>49.66</ele>
        <time>2024-07-12T15:02:25.528Z</time>
      </trkpt>
      <trkpt lat="50.64301" lon="1.68067">
        <ele>49.67</ele>
        <time>2024-07-12T15:02:27.107Z</time>
      </trkpt>
      <trkpt lat="50.64303" lon="1.68069">
        <ele>49.75</ele>
        <time>2024-07-12T15:02:28.687Z</time>
      </trkpt>
      <trkpt lat="50.64307" lon="1.68078">
        <ele>49.9</ele>
        <time>2024-07-12T15:02:30.268Z</time>
      </trkpt>
      <trkpt lat="50.64314" lon="1.68092">
        <ele>50.29</ele>
        <time>2024-07-12T15:02:31.851Z</time>
      </trkpt>
      <trkpt lat="50.64324" lon="1.68111">
        <ele>51.02</ele>
        <time>2024-07-12T15:02:33.436Z</time>
      </trkpt>
      <trkpt lat="50.64327" lon="1.68112">
        <ele>51.24</ele>
        <time>2024-07-12T15:02:35.022Z</time>
      </trkpt>
      <trkpt lat="50.6433" lon="1.6811">
        <ele>51.49</ele>
        <time>2024-07-12T15:02:36.608Z</time>
      </trkpt>
      <trkpt lat="50.64339" lon="1.68098">
        <ele>51.41</ele>
        <time>2024-07-12T15:02:38.196Z</time>
      </trkpt>
      <trkpt lat="50.64356" lon="1.68075">
        <ele>51.68</ele>
        <time>2024-07-12T15:02:39.788Z</time>
      </trkpt>
      <trkpt lat="50.64373" lon="1.68051">
        <ele>51.65</ele>
        <time>2024-07-12T15:02:41.383Z</time>
      </trkpt>
      <trkpt lat="50.64375" lon="1.68047">
        <ele>51.51</ele>
        <time>2024-07-12T15:02:42.979Z</time>
      </trkpt>
      <trkpt lat="50.64374" lon="1.68047">
        <ele>51.5</ele>
        <time>2024-07-12T15:02:44.575Z</time>
      </trkpt>
      <trkpt lat="50.64373" lon="1.68048">
        <ele>51.54</ele>
        <time>2024-07-12T15:02:46.171Z</time>
      </trkpt>
      <trkpt lat="50.64369" lon="1.68054">
        <ele>51.76</ele>
        <time>2024-07-12T15:02:47.768Z</time>
      </trkpt>
      <trkpt lat="50.64361" lon="1.68066">
        <ele>51.87</ele>
        <time>2024-07-12T15:02:49.367Z</time>
      </trkpt>
      <trkpt lat="50.64346" lon="1.68088">
        <ele>51.29</ele>
        <time>2024-07-12T15:02:50.969Z</time>
      </trkpt>
      <trkpt lat="50.64328" lon="1.68109">
        <ele>51.3</ele>
        <time>2024-07-12T15:02:52.575Z</time>
      </trkpt>
      <trkpt lat="50.64322" lon="1.68118">
        <ele>50.96</ele>
        <time>2024-07-12T15:02:54.182Z</time>
      </trkpt>
      <trkpt lat="50.64309" lon="1.68135">
        <ele>50.68</ele>
        <time>2024-07-12T15:02:55.792Z</time>
      </trkpt>
      <trkpt lat="50.64294" lon="1.68158">
        <ele>51.94</ele>
        <time>2024-07-12T15:02:57.405Z</time>
      </trkpt>
      <trkpt lat="50.64288" lon="1.68166">
        <ele>52.02</ele>
        <time>2024-07-12T15:02:59.019Z</time>
      </trkpt>
      <trkpt lat="50.64278" lon="1.68178">
        <ele>52.46</ele>
        <time>2024-07-12T15:03:00.635Z</time>
      </trkpt>
      <trkpt lat="50.64263" lon="1.682">
        <ele>53.36</ele>
        <time>2024-07-12T15:03:02.255Z</time>
      </trkpt>
      <trkpt lat="50.64236" lon="1.68238">
        <ele>54.74</ele>
        <time>2024-07-12T15:03:03.881Z</time>
      </trkpt>
      <trkpt lat="50.64219" lon="1.68262">
        <ele>54.99</ele>
        <time>2024-07-12T15:03:05.510Z</time>
      </trkpt>
      <trkpt lat="50.64204" lon="1.68292">
        <ele>54.52</ele>
        <time>2024-07-12T15:03:07.143Z</time>
      </trkpt>
      <trkpt lat="50.64188" lon="1.68329">
        <ele>54.92</ele>
        <time>2024-07-12T15:03:08.781Z</time>
      </trkpt>
      <trkpt lat="50.64179" lon="1.6835">
        <ele>55.15</ele>
        <time>2024-07-12T15:03:10.421Z</time>
      </trkpt>
      <trkpt lat="50.64177" lon="1.68354">
        <ele>55.37</ele>
        <time>2024-07-12T15:03:12.062Z</time>
      </trkpt>
      <trkpt lat="50.64169" lon="1.68374">
        <ele>56.23</ele>
        <time>2024-07-12T15:03:13.705Z</time>
      </trkpt>
      <trkpt lat="50.64163" lon="1.68388">
        <ele>56.48</ele>
        <time>2024-07-12T15:03:15.350Z</time>
      </trkpt>
      <trkpt lat="50.64159" lon="1.68396">
        <ele>56.65</ele>
        <time>2024-07-12T15:03:16.996Z</time>
      </trkpt>
      <trkpt lat="50.64151" lon="1.68414">
        <ele>57</ele>
        <time>2024-07-12T15:03:18.644Z</time>
      </trkpt>
      <trkpt lat="50.64144" lon="1.68431">
        <ele>57.03</ele>
        <time>2024-07-12T15:03:20.294Z</time>
      </trkpt>
      <trkpt lat="50.64135" lon="1.68452">
        <ele>57.63</ele>
        <time>2024-07-12T15:03:21.947Z</time>
      </trkpt>
      <trkpt lat="50.64126" lon="1.68467">
        <ele>59.06</ele>
        <time>2024-07-12T15:03:23.602Z</time>
      </trkpt>
      <trkpt lat="50.64125" lon="1.68468">
        <ele>59.3</ele>
        <time>2024-07-12T15:03:25.257Z</time>
      </trkpt>
      <trkpt lat="50.64118" lon="1.68481">
        <ele>60.91</ele>
        <time>2024-07-12T15:03:26.914Z</time>
      </trkpt>
      <trkpt lat="50.64117" lon="1.68484">
        <ele>61.1</ele>
        <time>2024-07-12T15:03:28.571Z</time>
      </trkpt>
      <trkpt lat="50.64114" lon="1.68488">
        <ele>61.47</ele>
        <time>2024-07-12T15:03:30.229Z</time>
      </trkpt>
      <trkpt lat="50.64107" lon="1.68501">
        <ele>62.51</ele>
        <time>2024-07-12T15:03:31.888Z</time>
      </trkpt>
      <trkpt lat="50.64106" lon="1.68502">
        <ele>62.68</ele>
        <time>2024-07-12T15:03:33.548Z</time>
      </trkpt>
      <trkpt lat="50.641" lon="1.68509">
        <ele>63.9</ele>
        <time>2024-07-12T15:03:35.209Z</time>
      </trkpt>
      <trkpt lat="50.641" lon="1.6851">
        <ele>63.92</ele>
        <time>2024-07-12T15:03:36.870Z</time>
      </trkpt>
      <trkpt lat="50.64097" lon="1.68515">
        <ele>64.65</ele>
        <time>2024-07-12T15:03:38.532Z</time>
      </trkpt>
      <trkpt lat="50.64092" lon="1.68524">
        <ele>65.31</ele>
        <time>2024-07-12T15:03:40.195Z</time>
      </trkpt>
      <trkpt lat="50.64089" lon="1.68529">
        <ele>65.75</ele>
        <time>2024-07-12T15:03:41.859Z</time>
      </trkpt>
      <trkpt lat="50.64087" lon="1.68533">
        <ele>66.06</ele>
        <time>2024-07-12T15:03:43.523Z</time>
      </trkpt>
      <trkpt lat="50.64082" lon="1.68541">
        <ele>67.12</ele>
        <time>2024-07-12T15:03:45.188Z</time>
      </trkpt>
      <trkpt lat="50.64081" lon="1.68543">
        <ele>67.47</ele>
        <time>2024-07-12T15:03:46.854Z</time>
      </trkpt>
      <trkpt lat="50.64075" lon="1.68552">
        <ele>68.55</ele>
        <time>2024-07-12T15:03:48.521Z</time>
      </trkpt>
      <trkpt lat="50.64075" lon="1.68553">
        <ele>68.6</ele>
        <time>2024-07-12T15:03:50.188Z</time>
      </trkpt>
      <trkpt lat="50.64068" lon="1.68564">
        <ele>69.46</ele>
        <time>2024-07-12T15:03:51.856Z</time>
      </trkpt>
      <trkpt lat="50.64064" lon="1.68574">
        <ele>70.16</ele>
        <time>2024-07-12T15:03:53.526Z</time>
      </trkpt>
      <trkpt lat="50.64062" lon="1.68576">
        <ele>70.35</ele>
        <time>2024-07-12T15:03:55.196Z</time>
      </trkpt>
      <trkpt lat="50.64058" lon="1.68583">
        <ele>70.85</ele>
        <time>2024-07-12T15:03:56.867Z</time>
      </trkpt>
      <trkpt lat="50.64055" lon="1.68588">
        <ele>71</ele>
        <time>2024-07-12T15:03:58.539Z</time>
      </trkpt>
      <trkpt lat="50.64052" lon="1.68594">
        <ele>71</ele>
        <time>2024-07-12T15:04:00.211Z</time>
      </trkpt>
      <trkpt lat="50.64049" lon="1.68602">
        <ele>71</ele>
        <time>2024-07-12T15:04:01.884Z</time>
      </trkpt>
      <trkpt lat="50.64046" lon="1.68606">
        <ele>71</ele>
        <time>2024-07-12T15:04:03.558Z</time>
      </trkpt>
      <trkpt lat="50.64044" lon="1.68612">
        <ele>71</ele>
        <time>2024-07-12T15:04:05.233Z</time>
      </trkpt>
      <trkpt lat="50.64043" lon="1.68614">
        <ele>71</ele>
        <time>2024-07-12T15:04:06.908Z</time>
      </trkpt>
      <trkpt lat="50.64038" lon="1.6862">
        <ele>71</ele>
        <time>2024-07-12T15:04:08.584Z</time>
      </trkpt>
      <trkpt lat="50.64036" lon="1.68624">
        <ele>71</ele>
        <time>2024-07-12T15:04:10.260Z</time>
      </trkpt>
      <trkpt lat="50.64029" lon="1.68637">
        <ele>70.8</ele>
        <time>2024-07-12T15:04:11.938Z</time>
      </trkpt>
      <trkpt lat="50.64027" lon="1.68639">
        <ele>70.69</ele>
        <time>2024-07-12T15:04:13.617Z</time>
      </trkpt>
      <trkpt lat="50.64012" lon="1.68655">
        <ele>69.66</ele>
        <time>2024-07-12T15:04:15.298Z</time>
      </trkpt>
      <trkpt lat="50.64005" lon="1.68661">
        <ele>69.64</ele>
        <time>2024-07-12T15:04:16.981Z</time>
      </trkpt>
      <trkpt lat="50.63995" lon="1.6867">
        <ele>69.62</ele>
        <time>2024-07-12T15:04:18.666Z</time>
      </trkpt>
      <trkpt lat="50.63974" lon="1.68695">
        <ele>69.81</ele>
        <time>2024-07-12T15:04:20.355Z</time>
      </trkpt>
      <trkpt lat="50.63951" lon="1.68719">
        <ele>71.29</ele>
        <time>2024-07-12T15:04:22.048Z</time>
      </trkpt>
      <trkpt lat="50.63919" lon="1.68746">
        <ele>71.58</ele>
        <time>2024-07-12T15:04:23.747Z</time>
      </trkpt>
      <trkpt lat="50.63882" lon="1.68765">
        <ele>70.61</ele>
        <time>2024-07-12T15:04:25.452Z</time>
      </trkpt>
      <trkpt lat="50.63844" lon="1.68791">
        <ele>71.24</ele>
        <time>2024-07-12T15:04:27.164Z</time>
      </trkpt>
      <trkpt lat="50.63822" lon="1.6881">
        <ele>70.93</ele>
        <time>2024-07-12T15:04:28.880Z</time>
      </trkpt>
      <trkpt lat="50.63794" lon="1.68837">
        <ele>69.82</ele>
        <time>2024-07-12T15:04:30.601Z</time>
      </trkpt>
      <trkpt lat="50.63783" lon="1.68848">
        <ele>69.03</ele>
        <time>2024-07-12T15:04:32.324Z</time>
      </trkpt>
      <trkpt lat="50.63735" lon="1.68892">
        <ele>67.2</ele>
        <time>2024-07-12T15:04:34.056Z</time>
      </trkpt>
      <trkpt lat="50.63699" lon="1.68929">
        <ele>66.24</ele>
        <time>2024-07-12T15:04:35.795Z</time>
      </trkpt>
      <trkpt lat="50.63657" lon="1.6896">
        <ele>66</ele>
        <time>2024-07-12T15:04:37.542Z</time>
      </trkpt>
      <trkpt lat="50.63613" lon="1.68983">
        <ele>67.15</ele>
        <time>2024-07-12T15:04:39.296Z</time>
      </trkpt>
      <trkpt lat="50.63583" lon="1.68994">
        <ele>68.41</ele>
        <time>2024-07-12T15:04:41.055Z</time>
      </trkpt>
      <trkpt lat="50.6356" lon="1.69001">
        <ele>68.15</ele>
        <time>2024-07-12T15:04:42.818Z</time>
      </trkpt>
      <trkpt lat="50.63516" lon="1.69014">
        <ele>67.67</ele>
        <time>2024-07-12T15:04:44.588Z</time>
      </trkpt>
      <trkpt lat="50.63498" lon="1.6902">
        <ele>67.25</ele>
        <time>2024-07-12T15:04:46.361Z</time>
      </trkpt>
      <trkpt lat="50.63478" lon="1.69027">
        <ele>66.28</ele>
        <time>2024-07-12T15:04:48.137Z</time>
      </trkpt>
      <trkpt lat="50.63475" lon="1.6903">
        <ele>66.17</ele>
        <time>2024-07-12T15:04:49.914Z</time>
      </trkpt>
      <trkpt lat="50.63471" lon="1.69036">
        <ele>66.18</ele>
        <time>2024-07-12T15:04:51.692Z</time>
      </trkpt>
      <trkpt lat="50.6347" lon="1.6904">
        <ele>66.19</ele>
        <time>2024-07-12T15:04:53.470Z</time>
      </trkpt>
      <trkpt lat="50.63473" lon="1.69048">
        <ele>66.11</ele>
        <time>2024-07-12T15:04:55.249Z</time>
      </trkpt>
      <trkpt lat="50.63477" lon="1.69056">
        <ele>66</ele>
        <time>2024-07-12T15:04:57.029Z</time>
      </trkpt>
      <trkpt lat="50.63482" lon="1.69066">
        <ele>66</ele>
        <time>2024-07-12T15:04:58.810Z</time>
      </trkpt>
      <trkpt lat="50.63489" lon="1.69086">
        <ele>66</ele>
        <time>2024-07-12T15:05:00.594Z</time>
      </trkpt>
      <trkpt lat="50.63512" lon="1.69139">
        <ele>65.37</ele>
        <time>2024-07-12T15:05:02.384Z</time>
      </trkpt>
      <trkpt lat="50.63528" lon="1.6917">
        <ele>64.25</ele>
        <time>2024-07-12T15:05:04.178Z</time>
      </trkpt>
      <trkpt lat="50.63545" lon="1.69204">
        <ele>64.69</ele>
        <time>2024-07-12T15:05:05.976Z</time>
      </trkpt>
      <trkpt lat="50.63581" lon="1.69278">
        <ele>65</ele>
        <time>2024-07-12T15:05:07.784Z</time>
      </trkpt>
      <trkpt lat="50.63593" lon="1.69302">
        <ele>65.48</ele>
        <time>2024-07-12T15:05:09.595Z</time>
      </trkpt>
      <trkpt lat="50.63627" lon="1.69372">
        <ele>66.13</ele>
        <time>2024-07-12T15:05:11.415Z</time>
      </trkpt>
      <trkpt lat="50.63631" lon="1.6938">
        <ele>65.83</ele>
        <time>2024-07-12T15:05:13.236Z</time>
      </trkpt>
      <trkpt lat="50.63662" lon="1.69446">
        <ele>64.58</ele>
        <time>2024-07-12T15:05:15.066Z</time>
      </trkpt>
      <trkpt lat="50.63678" lon="1.69477">
        <ele>63.45</ele>
        <time>2024-07-12T15:05:16.900Z</time>
      </trkpt>
      <trkpt lat="50.63705" lon="1.69531">
        <ele>60.83</ele>
        <time>2024-07-12T15:05:18.741Z</time>
      </trkpt>
      <trkpt lat="50.63727" lon="1.69576">
        <ele>58.45</ele>
        <time>2024-07-12T15:05:20.587Z</time>
      </trkpt>
      <trkpt lat="50.63749" lon="1.69622">
        <ele>57.8</ele>
        <time>2024-07-12T15:05:22.439Z</time>
      </trkpt>
      <trkpt lat="50.63761" lon="1.69645">
        <ele>57.22</ele>
        <time>2024-07-12T15:05:24.294Z</time>
      </trkpt>
      <trkpt lat="50.63771" lon="1.69666">
        <ele>57.16</ele>
        <time>2024-07-12T15:05:26.152Z</time>
      </trkpt>
      <trkpt lat="50.63792" lon="1.69706">
        <ele>59.02</ele>
        <time>2024-07-12T15:05:28.015Z</time>
      </trkpt>
      <trkpt lat="50.63806" lon="1.69719">
        <ele>59.51</ele>
        <time>2024-07-12T15:05:29.881Z</time>
      </trkpt>
      <trkpt lat="50.63821" lon="1.69727">
        <ele>59.97</ele>
        <time>2024-07-12T15:05:31.749Z</time>
      </trkpt>
      <trkpt lat="50.63852" lon="1.69732">
        <ele>59.72</ele>
        <time>2024-07-12T15:05:33.622Z</time>
      </trkpt>
      <trkpt lat="50.63907" lon="1.69734">
        <ele>59.16</ele>
        <time>2024-07-12T15:05:35.504Z</time>
      </trkpt>
      <trkpt lat="50.63924" lon="1.69734">
        <ele>59.83</ele>
        <time>2024-07-12T15:05:37.389Z</time>
      </trkpt>
      <trkpt lat="50.63976" lon="1.69736">
        <ele>58.63</ele>
        <time>2024-07-12T15:05:39.282Z</time>
      </trkpt>
      <trkpt lat="50.6401" lon="1.69737">
        <ele>57.1</ele>
        <time>2024-07-12T15:05:41.181Z</time>
      </trkpt>
      <trkpt lat="50.64071" lon="1.6974">
        <ele>60.32</ele>
        <time>2024-07-12T15:05:43.089Z</time>
      </trkpt>
      <trkpt lat="50.64125" lon="1.69743">
        <ele>59.27</ele>
        <time>2024-07-12T15:05:45.006Z</time>
      </trkpt>
      <trkpt lat="50.64182" lon="1.69744">
        <ele>56.36</ele>
        <time>2024-07-12T15:05:46.932Z</time>
      </trkpt>
      <trkpt lat="50.64209" lon="1.6975">
        <ele>55.56</ele>
        <time>2024-07-12T15:05:48.863Z</time>
      </trkpt>
      <trkpt lat="50.64216" lon="1.69754">
        <ele>55.85</ele>
        <time>2024-07-12T15:05:50.795Z</time>
      </trkpt>
      <trkpt lat="50.64222" lon="1.69759">
        <ele>56.12</ele>
        <time>2024-07-12T15:05:52.728Z</time>
      </trkpt>
      <trkpt lat="50.64238" lon="1.69779">
        <ele>56.39</ele>
        <time>2024-07-12T15:05:54.664Z</time>
      </trkpt>
      <trkpt lat="50.64275" lon="1.69811">
        <ele>55.22</ele>
        <time>2024-07-12T15:05:56.607Z</time>
      </trkpt>
      <trkpt lat="50.64304" lon="1.69827">
        <ele>54.2</ele>
        <time>2024-07-12T15:05:58.555Z</time>
      </trkpt>
      <trkpt lat="50.64341" lon="1.69847">
        <ele>53.88</ele>
        <time>2024-07-12T15:06:00.509Z</time>
      </trkpt>
      <trkpt lat="50.64348" lon="1.69851">
        <ele>53.6</ele>
        <time>2024-07-12T15:06:02.464Z</time>
      </trkpt>
      <trkpt lat="50.64379" lon="1.6987">
        <ele>53</ele>
        <time>2024-07-12T15:06:04.424Z</time>
      </trkpt>
      <trkpt lat="50.64399" lon="1.69885">
        <ele>52.76</ele>
        <time>2024-07-12T15:06:06.388Z</time>
      </trkpt>
      <trkpt lat="50.6442" lon="1.699">
        <ele>51.82</ele>
        <time>2024-07-12T15:06:08.356Z</time>
      </trkpt>
      <trkpt lat="50.6444" lon="1.69915">
        <ele>49.88</ele>
        <time>2024-07-12T15:06:10.327Z</time>
      </trkpt>
      <trkpt lat="50.64453" lon="1.69925">
        <ele>48.84</ele>
        <time>2024-07-12T15:06:12.301Z</time>
      </trkpt>
      <trkpt lat="50.6446" lon="1.6993">
        <ele>48.59</ele>
        <time>2024-07-12T15:06:14.276Z</time>
      </trkpt>
      <trkpt lat="50.6448" lon="1.69943">
        <ele>47.85</ele>
        <time>2024-07-12T15:06:16.254Z</time>
      </trkpt>
      <trkpt lat="50.64495" lon="1.69948">
        <ele>47.33</ele>
        <time>2024-07-12T15:06:18.235Z</time>
      </trkpt>
      <trkpt lat="50.64502" lon="1.69948">
        <ele>47.06</ele>
        <time>2024-07-12T15:06:20.217Z</time>
      </trkpt>
      <trkpt lat="50.64525" lon="1.69947">
        <ele>46.12</ele>
        <time>2024-07-12T15:06:22.203Z</time>
      </trkpt>
      <trkpt lat="50.64541" lon="1.69944">
        <ele>45.16</ele>
        <time>2024-07-12T15:06:24.191Z</time>
      </trkpt>
      <trkpt lat="50.64548" lon="1.69943">
        <ele>44.58</ele>
        <time>2024-07-12T15:06:26.180Z</time>
      </trkpt>
      <trkpt lat="50.64563" lon="1.69941">
        <ele>43.87</ele>
        <time>2024-07-12T15:06:28.172Z</time>
      </trkpt>
      <trkpt lat="50.64584" lon="1.69941">
        <ele>43.12</ele>
        <time>2024-07-12T15:06:30.167Z</time>
      </trkpt>
      <trkpt lat="50.64598" lon="1.69943">
        <ele>42.61</ele>
        <time>2024-07-12T15:06:32.164Z</time>
      </trkpt>
      <trkpt lat="50.64606" lon="1.69945">
        <ele>42.34</ele>
        <time>2024-07-12T15:06:34.163Z</time>
      </trkpt>
      <trkpt lat="50.64621" lon="1.69951">
        <ele>41.6</ele>
        <time>2024-07-12T15:06:36.164Z</time>
      </trkpt>
      <trkpt lat="50.64629" lon="1.69956">
        <ele>41.21</ele>
        <time>2024-07-12T15:06:38.167Z</time>
      </trkpt>
      <trkpt lat="50.64636" lon="1.69963">
        <ele>40.96</ele>
        <time>2024-07-12T15:06:40.171Z</time>
      </trkpt>
      <trkpt lat="50.64643" lon="1.69971">
        <ele>40.78</ele>
        <time>2024-07-12T15:06:42.176Z</time>
      </trkpt>
      <trkpt lat="50.64649" lon="1.69979">
        <ele>40.58</ele>
        <time>2024-07-12T15:06:44.183Z</time>
      </trkpt>
      <trkpt lat="50.64661" lon="1.69997">
        <ele>40.41</ele>
        <time>2024-07-12T15:06:46.192Z</time>
      </trkpt>
      <trkpt lat="50.64667" lon="1.70006">
        <ele>40.28</ele>
        <time>2024-07-12T15:06:48.202Z</time>
      </trkpt>
      <trkpt lat="50.64696" lon="1.70052">
        <ele>38.2</ele>
        <time>2024-07-12T15:06:50.219Z</time>
      </trkpt>
      <trkpt lat="50.64702" lon="1.70061">
        <ele>37.78</ele>
        <time>2024-07-12T15:06:52.237Z</time>
      </trkpt>
      <trkpt lat="50.64714" lon="1.70077">
        <ele>36.91</ele>
        <time>2024-07-12T15:06:54.258Z</time>
      </trkpt>
      <trkpt lat="50.64726" lon="1.7009">
        <ele>36</ele>
        <time>2024-07-12T15:06:56.281Z</time>
      </trkpt>
      <trkpt lat="50.64733" lon="1.70095">
        <ele>35.53</ele>
        <time>2024-07-12T15:06:58.305Z</time>
      </trkpt>
      <trkpt lat="50.64762" lon="1.70112">
        <ele>33.72</ele>
        <time>2024-07-12T15:07:00.334Z</time>
      </trkpt>
      <trkpt lat="50.64777" lon="1.70119">
        <ele>33.09</ele>
        <time>2024-07-12T15:07:02.366Z</time>
      </trkpt>
      <trkpt lat="50.64815" lon="1.70139">
        <ele>31.6</ele>
        <time>2024-07-12T15:07:04.404Z</time>
      </trkpt>
      <trkpt lat="50.64838" lon="1.70152">
        <ele>31</ele>
        <time>2024-07-12T15:07:06.446Z</time>
      </trkpt>
      <trkpt lat="50.64877" lon="1.70174">
        <ele>30.59</ele>
        <time>2024-07-12T15:07:08.495Z</time>
      </trkpt>
      <trkpt lat="50.64905" lon="1.70189">
        <ele>29.57</ele>
        <time>2024-07-12T15:07:10.549Z</time>
      </trkpt>
      <trkpt lat="50.64924" lon="1.702">
        <ele>28.78</ele>
        <time>2024-07-12T15:07:12.606Z</time>
      </trkpt>
      <trkpt lat="50.64934" lon="1.70213">
        <ele>28.03</ele>
        <time>2024-07-12T15:07:14.665Z</time>
      </trkpt>
      <trkpt lat="50.64941" lon="1.7023">
        <ele>27.28</ele>
        <time>2024-07-12T15:07:16.726Z</time>
      </trkpt>
      <trkpt lat="50.64943" lon="1.70239">
        <ele>27.2</ele>
        <time>2024-07-12T15:07:18.788Z</time>
      </trkpt>
      <trkpt lat="50.64946" lon="1.70248">
        <ele>27.1</ele>
        <time>2024-07-12T15:07:20.851Z</time>
      </trkpt>
      <trkpt lat="50.64951" lon="1.70264">
        <ele>26.9</ele>
        <time>2024-07-12T15:07:22.916Z</time>
      </trkpt>
      <trkpt lat="50.64955" lon="1.70276">
        <ele>26.76</ele>
        <time>2024-07-12T15:07:24.982Z</time>
      </trkpt>
      <trkpt lat="50.64964" lon="1.70299">
        <ele>26.46</ele>
        <time>2024-07-12T15:07:27.051Z</time>
      </trkpt>
      <trkpt lat="50.6497" lon="1.70312">
        <ele>26.24</ele>
        <time>2024-07-12T15:07:29.122Z</time>
      </trkpt>
      <trkpt lat="50.64978" lon="1.70325">
        <ele>25.95</ele>
        <time>2024-07-12T15:07:31.194Z</time>
      </trkpt>
      <trkpt lat="50.64993" lon="1.70341">
        <ele>25.25</ele>
        <time>2024-07-12T15:07:33.269Z</time>
      </trkpt>
      <trkpt lat="50.65003" lon="1.70349">
        <ele>24.32</ele>
        <time>2024-07-12T15:07:35.346Z</time>
      </trkpt>
      <trkpt lat="50.65012" lon="1.70355">
        <ele>23.55</ele>
        <time>2024-07-12T15:07:37.425Z</time>
      </trkpt>
      <trkpt lat="50.65016" lon="1.70358">
        <ele>23.18</ele>
        <time>2024-07-12T15:07:39.504Z</time>
      </trkpt>
      <trkpt lat="50.65021" lon="1.70369">
        <ele>22.28</ele>
        <time>2024-07-12T15:07:41.585Z</time>
      </trkpt>
      <trkpt lat="50.65022" lon="1.70377">
        <ele>21.97</ele>
        <time>2024-07-12T15:07:43.667Z</time>
      </trkpt>
      <trkpt lat="50.65022" lon="1.70386">
        <ele>21.67</ele>
        <time>2024-07-12T15:07:45.750Z</time>
      </trkpt>
      <trkpt lat="50.65023" lon="1.70414">
        <ele>20.64</ele>
        <time>2024-07-12T15:07:47.835Z</time>
      </trkpt>
      <trkpt lat="50.65025" lon="1.70433">
        <ele>20.23</ele>
        <time>2024-07-12T15:07:49.922Z</time>
      </trkpt>
      <trkpt lat="50.65032" lon="1.70465">
        <ele>20</ele>
        <time>2024-07-12T15:07:52.013Z</time>
      </trkpt>
      <trkpt lat="50.65035" lon="1.70489">
        <ele>19.47</ele>
        <time>2024-07-12T15:07:54.106Z</time>
      </trkpt>
      <trkpt lat="50.65036" lon="1.70501">
        <ele>19</ele>
        <time>2024-07-12T15:07:56.201Z</time>
      </trkpt>
      <trkpt lat="50.65035" lon="1.70526">
        <ele>18.16</ele>
        <time>2024-07-12T15:07:58.298Z</time>
      </trkpt>
      <trkpt lat="50.65028" lon="1.70574">
        <ele>16.12</ele>
        <time>2024-07-12T15:08:00.400Z</time>
      </trkpt>
      <trkpt lat="50.65025" lon="1.70597">
        <ele>15.69</ele>
        <time>2024-07-12T15:08:02.505Z</time>
      </trkpt>
      <trkpt lat="50.65011" lon="1.70688">
        <ele>14.23</ele>
        <time>2024-07-12T15:08:04.619Z</time>
      </trkpt>
      <trkpt lat="50.65008" lon="1.70708">
        <ele>14</ele>
        <time>2024-07-12T15:08:06.735Z</time>
      </trkpt>
      <trkpt lat="50.6499" lon="1.7077">
        <ele>13.49</ele>
        <time>2024-07-12T15:08:08.858Z</time>
      </trkpt>
      <trkpt lat="50.64958" lon="1.70844">
        <ele>13.31</ele>
        <time>2024-07-12T15:08:10.990Z</time>
      </trkpt>
      <trkpt lat="50.6495" lon="1.70861">
        <ele>13.05</ele>
        <time>2024-07-12T15:08:13.124Z</time>
      </trkpt>
      <trkpt lat="50.64935" lon="1.70895">
        <ele>13.51</ele>
        <time>2024-07-12T15:08:15.263Z</time>
      </trkpt>
      <trkpt lat="50.64912" lon="1.70946">
        <ele>14.83</ele>
        <time>2024-07-12T15:08:17.408Z</time>
      </trkpt>
      <trkpt lat="50.6488" lon="1.71022">
        <ele>15.02</ele>
        <time>2024-07-12T15:08:19.562Z</time>
      </trkpt>
      <trkpt lat="50.6486" lon="1.71069">
        <ele>16.28</ele>
        <time>2024-07-12T15:08:21.722Z</time>
      </trkpt>
      <trkpt lat="50.64846" lon="1.71101">
        <ele>17.41</ele>
        <time>2024-07-12T15:08:23.886Z</time>
      </trkpt>
      <trkpt lat="50.6482" lon="1.71158">
        <ele>18.47</ele>
        <time>2024-07-12T15:08:26.057Z</time>
      </trkpt>
      <trkpt lat="50.64795" lon="1.71222">
        <ele>19.51</ele>
        <time>2024-07-12T15:08:28.236Z</time>
      </trkpt>
      <trkpt lat="50.64794" lon="1.71229">
        <ele>19.58</ele>
        <time>2024-07-12T15:08:30.416Z</time>
      </trkpt>
      <trkpt lat="50.64791" lon="1.71264">
        <ele>19</ele>
        <time>2024-07-12T15:08:32.599Z</time>
      </trkpt>
      <trkpt lat="50.64794" lon="1.7134">
        <ele>19</ele>
        <time>2024-07-12T15:08:34.790Z</time>
      </trkpt>
      <trkpt lat="50.64796" lon="1.7142">
        <ele>18</ele>
        <time>2024-07-12T15:08:36.989Z</time>
      </trkpt>
      <trkpt lat="50.64798" lon="1.71495">
        <ele>17.4</ele>
        <time>2024-07-12T15:08:39.196Z</time>
      </trkpt>
      <trkpt lat="50.64801" lon="1.71584">
        <ele>14.5</ele>
        <time>2024-07-12T15:08:41.412Z</time>
      </trkpt>
      <trkpt lat="50.64802" lon="1.71612">
        <ele>15.08</ele>
        <time>2024-07-12T15:08:43.631Z</time>
      </trkpt>
      <trkpt lat="50.64802" lon="1.71658">
        <ele>16.99</ele>
        <time>2024-07-12T15:08:45.854Z</time>
      </trkpt>
      <trkpt lat="50.64798" lon="1.71745">
        <ele>17.8</ele>
        <time>2024-07-12T15:08:48.086Z</time>
      </trkpt>
      <trkpt lat="50.64788" lon="1.71818">
        <ele>17.79</ele>
        <time>2024-07-12T15:08:50.326Z</time>
      </trkpt>
      <trkpt lat="50.64771" lon="1.71903">
        <ele>16.39</ele>
        <time>2024-07-12T15:08:52.575Z</time>
      </trkpt>
      <trkpt lat="50.64767" lon="1.71925">
        <ele>15.9</ele>
        <time>2024-07-12T15:08:54.826Z</time>
      </trkpt>
      <trkpt lat="50.6475" lon="1.72014">
        <ele>14.86</ele>
        <time>2024-07-12T15:08:57.087Z</time>
      </trkpt>
      <trkpt lat="50.64745" lon="1.72045">
        <ele>14.34</ele>
        <time>2024-07-12T15:08:59.351Z</time>
      </trkpt>
      <trkpt lat="50.64734" lon="1.72134">
        <ele>14</ele>
        <time>2024-07-12T15:09:01.624Z</time>
      </trkpt>
      <trkpt lat="50.64722" lon="1.72209">
        <ele>14.77</ele>
        <time>2024-07-12T15:09:03.905Z</time>
      </trkpt>
      <trkpt lat="50.64698" lon="1.72275">
        <ele>17.68</ele>
        <time>2024-07-12T15:09:06.194Z</time>
      </trkpt>
      <trkpt lat="50.64669" lon="1.72335">
        <ele>19</ele>
        <time>2024-07-12T15:09:08.490Z</time>
      </trkpt>
      <trkpt lat="50.64648" lon="1.72378">
        <ele>19</ele>
        <time>2024-07-12T15:09:10.792Z</time>
      </trkpt>
      <trkpt lat="50.64645" lon="1.72383">
        <ele>19</ele>
        <time>2024-07-12T15:09:13.095Z</time>
      </trkpt>
      <trkpt lat="50.6463" lon="1.72423">
        <ele>20.46</ele>
        <time>2024-07-12T15:09:15.402Z</time>
      </trkpt>
      <trkpt lat="50.64623" lon="1.72446">
        <ele>21</ele>
        <time>2024-07-12T15:09:17.712Z</time>
      </trkpt>
      <trkpt lat="50.64618" lon="1.72469">
        <ele>21.64</ele>
        <time>2024-07-12T15:09:20.024Z</time>
      </trkpt>
      <trkpt lat="50.6461" lon="1.72504">
        <ele>22.17</ele>
        <time>2024-07-12T15:09:22.340Z</time>
      </trkpt>
      <trkpt lat="50.64606" lon="1.72528">
        <ele>22.35</ele>
        <time>2024-07-12T15:09:24.659Z</time>
      </trkpt>
      <trkpt lat="50.64601" lon="1.72551">
        <ele>22.06</ele>
        <time>2024-07-12T15:09:26.980Z</time>
      </trkpt>
      <trkpt lat="50.64594" lon="1.72583">
        <ele>22.55</ele>
        <time>2024-07-12T15:09:29.305Z</time>
      </trkpt>
      <trkpt lat="50.64588" lon="1.72612">
        <ele>22.94</ele>
        <time>2024-07-12T15:09:31.633Z</time>
      </trkpt>
      <trkpt lat="50.64584" lon="1.72635">
        <ele>23.27</ele>
        <time>2024-07-12T15:09:33.963Z</time>
      </trkpt>
      <trkpt lat="50.64575" lon="1.72673">
        <ele>24.87</ele>
        <time>2024-07-12T15:09:36.297Z</time>
      </trkpt>
      <trkpt lat="50.64572" lon="1.7269">
        <ele>25.12</ele>
        <time>2024-07-12T15:09:38.633Z</time>
      </trkpt>
      <trkpt lat="50.64564" lon="1.72724">
        <ele>26.47</ele>
        <time>2024-07-12T15:09:40.973Z</time>
      </trkpt>
      <trkpt lat="50.64561" lon="1.7274">
        <ele>26.92</ele>
        <time>2024-07-12T15:09:43.315Z</time>
      </trkpt>
      <trkpt lat="50.64552" lon="1.72779">
        <ele>27.27</ele>
        <time>2024-07-12T15:09:45.661Z</time>
      </trkpt>
      <trkpt lat="50.64549" lon="1.72795">
        <ele>26.99</ele>
        <time>2024-07-12T15:09:48.009Z</time>
      </trkpt>
      <trkpt lat="50.64539" lon="1.72835">
        <ele>27.45</ele>
        <time>2024-07-12T15:09:50.361Z</time>
      </trkpt>
      <trkpt lat="50.64535" lon="1.72858">
        <ele>27.81</ele>
        <time>2024-07-12T15:09:52.715Z</time>
      </trkpt>
      <trkpt lat="50.64526" lon="1.72898">
        <ele>27.66</ele>
        <time>2024-07-12T15:09:55.074Z</time>
      </trkpt>
      <trkpt lat="50.64523" lon="1.72914">
        <ele>28.62</ele>
        <time>2024-07-12T15:09:57.434Z</time>
      </trkpt>
      <trkpt lat="50.64517" lon="1.7294">
        <ele>28.66</ele>
        <time>2024-07-12T15:09:59.797Z</time>
      </trkpt>
      <trkpt lat="50.64512" lon="1.72965">
        <ele>29.73</ele>
        <time>2024-07-12T15:10:02.163Z</time>
      </trkpt>
      <trkpt lat="50.64508" lon="1.72979">
        <ele>29.86</ele>
        <time>2024-07-12T15:10:04.530Z</time>
      </trkpt>
      <trkpt lat="50.64499" lon="1.7301">
        <ele>31.19</ele>
        <time>2024-07-12T15:10:06.901Z</time>
      </trkpt>
      <trkpt lat="50.64496" lon="1.73019">
        <ele>31.29</ele>
        <time>2024-07-12T15:10:09.273Z</time>
      </trkpt>
      <trkpt lat="50.64483" lon="1.73056">
        <ele>33.32</ele>
        <time>2024-07-12T15:10:11.649Z</time>
      </trkpt>
      <trkpt lat="50.64481" lon="1.7306">
        <ele>33.59</ele>
        <time>2024-07-12T15:10:14.026Z</time>
      </trkpt>
      <trkpt lat="50.64466" lon="1.7309">
        <ele>34.39</ele>
        <time>2024-07-12T15:10:16.407Z</time>
      </trkpt>
      <trkpt lat="50.64464" lon="1.73094">
        <ele>34.59</ele>
        <time>2024-07-12T15:10:18.788Z</time>
      </trkpt>
      <trkpt lat="50.64454" lon="1.73119">
        <ele>35</ele>
        <time>2024-07-12T15:10:21.172Z</time>
      </trkpt>
      <trkpt lat="50.64451" lon="1.73132">
        <ele>35.44</ele>
        <time>2024-07-12T15:10:23.557Z</time>
      </trkpt>
      <trkpt lat="50.64443" lon="1.73163">
        <ele>36</ele>
        <time>2024-07-12T15:10:25.946Z</time>
      </trkpt>
      <trkpt lat="50.64439" lon="1.73176">
        <ele>36</ele>
        <time>2024-07-12T15:10:28.336Z</time>
      </trkpt>
      <trkpt lat="50.64431" lon="1.73216">
        <ele>37.15</ele>
        <time>2024-07-12T15:10:30.731Z</time>
      </trkpt>
      <trkpt lat="50.64429" lon="1.73225">
        <ele>37.57</ele>
        <time>2024-07-12T15:10:33.127Z</time>
      </trkpt>
      <trkpt lat="50.64417" lon="1.73285">
        <ele>39.11</ele>
        <time>2024-07-12T15:10:35.529Z</time>
      </trkpt>
      <trkpt lat="50.6441" lon="1.73317">
        <ele>38.73</ele>
        <time>2024-07-12T15:10:37.934Z</time>
      </trkpt>
      <trkpt lat="50.64408" lon="1.73326">
        <ele>38.9</ele>
        <time>2024-07-12T15:10:40.340Z</time>
      </trkpt>
      <trkpt lat="50.64402" lon="1.73355">
        <ele>39.91</ele>
        <time>2024-07-12T15:10:42.750Z</time>
      </trkpt>
      <trkpt lat="50.644" lon="1.7336">
        <ele>40.16</ele>
        <time>2024-07-12T15:10:45.160Z</time>
      </trkpt>
      <trkpt lat="50.64386" lon="1.73415">
        <ele>42.19</ele>
        <time>2024-07-12T15:10:47.576Z</time>
      </trkpt>
      <trkpt lat="50.64385" lon="1.7342">
        <ele>42.48</ele>
        <time>2024-07-12T15:10:49.993Z</time>
      </trkpt>
      <trkpt lat="50.64372" lon="1.73455">
        <ele>43.51</ele>
        <time>2024-07-12T15:10:52.414Z</time>
      </trkpt>
      <trkpt lat="50.64371" lon="1.73459">
        <ele>43.59</ele>
        <time>2024-07-12T15:10:54.835Z</time>
      </trkpt>
      <trkpt lat="50.64362" lon="1.73482">
        <ele>44.25</ele>
        <time>2024-07-12T15:10:57.259Z</time>
      </trkpt>
      <trkpt lat="50.64351" lon="1.73503">
        <ele>45.02</ele>
        <time>2024-07-12T15:10:59.686Z</time>
      </trkpt>
      <trkpt lat="50.64349" lon="1.73506">
        <ele>45.16</ele>
        <time>2024-07-12T15:11:02.113Z</time>
      </trkpt>
      <trkpt lat="50.64334" lon="1.73529">
        <ele>46.28</ele>
        <time>2024-07-12T15:11:04.544Z</time>
      </trkpt>
      <trkpt lat="50.64329" lon="1.73534">
        <ele>46.58</ele>
        <time>2024-07-12T15:11:06.975Z</time>
      </trkpt>
      <trkpt lat="50.64318" lon="1.73546">
        <ele>47.27</ele>
        <time>2024-07-12T15:11:09.409Z</time>
      </trkpt>
      <trkpt lat="50.64304" lon="1.73557">
        <ele>47.37</ele>
        <time>2024-07-12T15:11:11.845Z</time>
      </trkpt>
      <trkpt lat="50.64296" lon="1.73563">
        <ele>47.97</ele>
        <time>2024-07-12T15:11:14.283Z</time>
      </trkpt>
      <trkpt lat="50.64274" lon="1.7358">
        <ele>49.27</ele>
        <time>2024-07-12T15:11:16.724Z</time>
      </trkpt>
      <trkpt lat="50.64269" lon="1.73584">
        <ele>49.46</ele>
        <time>2024-07-12T15:11:19.166Z</time>
      </trkpt>
      <trkpt lat="50.64253" lon="1.73595">
        <ele>50.05</ele>
        <time>2024-07-12T15:11:21.611Z</time>
      </trkpt>
      <trkpt lat="50.64248" lon="1.736">
        <ele>50.43</ele>
        <time>2024-07-12T15:11:24.057Z</time>
      </trkpt>
      <trkpt lat="50.64233" lon="1.73617">
        <ele>51.53</ele>
        <time>2024-07-12T15:11:26.506Z</time>
      </trkpt>
      <trkpt lat="50.64223" lon="1.73628">
        <ele>52.24</ele>
        <time>2024-07-12T15:11:28.957Z</time>
      </trkpt>
      <trkpt lat="50.64209" lon="1.73643">
        <ele>52.72</ele>
        <time>2024-07-12T15:11:31.411Z</time>
      </trkpt>
      <trkpt lat="50.64191" lon="1.73664">
        <ele>53.26</ele>
        <time>2024-07-12T15:11:33.868Z</time>
      </trkpt>
      <trkpt lat="50.64182" lon="1.73673">
        <ele>53.57</ele>
        <time>2024-07-12T15:11:36.327Z</time>
      </trkpt>
      <trkpt lat="50.64166" lon="1.73693">
        <ele>54.34</ele>
        <time>2024-07-12T15:11:38.789Z</time>
      </trkpt>
      <trkpt lat="50.64152" lon="1.7371">
        <ele>54.97</ele>
        <time>2024-07-12T15:11:41.254Z</time>
      </trkpt>
      <trkpt lat="50.64141" lon="1.73729">
        <ele>55.18</ele>
        <time>2024-07-12T15:11:43.722Z</time>
      </trkpt>
      <trkpt lat="50.64137" lon="1.73737">
        <ele>55.59</ele>
        <time>2024-07-12T15:11:46.191Z</time>
      </trkpt>
      <trkpt lat="50.64122" lon="1.7378">
        <ele>57.05</ele>
        <time>2024-07-12T15:11:48.665Z</time>
      </trkpt>
      <trkpt lat="50.6412" lon="1.73785">
        <ele>57.27</ele>
        <time>2024-07-12T15:11:51.139Z</time>
      </trkpt>
      <trkpt lat="50.64102" lon="1.7384">
        <ele>59.36</ele>
        <time>2024-07-12T15:11:53.620Z</time>
      </trkpt>
      <trkpt lat="50.64101" lon="1.73845">
        <ele>59.33</ele>
        <time>2024-07-12T15:11:56.101Z</time>
      </trkpt>
      <trkpt lat="50.6409" lon="1.73877">
        <ele>59.66</ele>
        <time>2024-07-12T15:11:58.586Z</time>
      </trkpt>
      <trkpt lat="50.64077" lon="1.73914">
        <ele>60.1</ele>
        <time>2024-07-12T15:12:01.075Z</time>
      </trkpt>
      <trkpt lat="50.64072" lon="1.73931">
        <ele>60.64</ele>
        <time>2024-07-12T15:12:03.566Z</time>
      </trkpt>
      <trkpt lat="50.64059" lon="1.73965">
        <ele>61.08</ele>
        <time>2024-07-12T15:12:06.061Z</time>
      </trkpt>
      <trkpt lat="50.64043" lon="1.74006">
        <ele>62.81</ele>
        <time>2024-07-12T15:12:08.561Z</time>
      </trkpt>
      <trkpt lat="50.64041" lon="1.74011">
        <ele>62.91</ele>
        <time>2024-07-12T15:12:11.062Z</time>
      </trkpt>
      <trkpt lat="50.64031" lon="1.74031">
        <ele>64.08</ele>
        <time>2024-07-12T15:12:13.565Z</time>
      </trkpt>
      <trkpt lat="50.64027" lon="1.74038">
        <ele>64.02</ele>
        <time>2024-07-12T15:12:16.069Z</time>
      </trkpt>
      <trkpt lat="50.64019" lon="1.74059">
        <ele>63.91</ele>
        <time>2024-07-12T15:12:18.576Z</time>
      </trkpt>
      <trkpt lat="50.64014" lon="1.74071">
        <ele>64.6</ele>
        <time>2024-07-12T15:12:21.084Z</time>
      </trkpt>
      <trkpt lat="50.64006" lon="1.74095">
        <ele>65.84</ele>
        <time>2024-07-12T15:12:23.595Z</time>
      </trkpt>
      <trkpt lat="50.64003" lon="1.74106">
        <ele>66.04</ele>
        <time>2024-07-12T15:12:26.107Z</time>
      </trkpt>
      <trkpt lat="50.63996" lon="1.74135">
        <ele>66.88</ele>
        <time>2024-07-12T15:12:28.622Z</time>
      </trkpt>
      <trkpt lat="50.63993" lon="1.74151">
        <ele>67</ele>
        <time>2024-07-12T15:12:31.139Z</time>
      </trkpt>
      <trkpt lat="50.63989" lon="1.74175">
        <ele>67.58</ele>
        <time>2024-07-12T15:12:33.659Z</time>
      </trkpt>
      <trkpt lat="50.63983" lon="1.74208">
        <ele>67</ele>
        <time>2024-07-12T15:12:36.182Z</time>
      </trkpt>
      <trkpt lat="50.63982" lon="1.74213">
        <ele>67</ele>
        <time>2024-07-12T15:12:38.706Z</time>
      </trkpt>
      <trkpt lat="50.63977" lon="1.7425">
        <ele>67</ele>
        <time>2024-07-12T15:12:41.234Z</time>
      </trkpt>
      <trkpt lat="50.63971" lon="1.74279">
        <ele>67.6</ele>
        <time>2024-07-12T15:12:43.765Z</time>
      </trkpt>
      <trkpt lat="50.6396" lon="1.74284">
        <ele>67.42</ele>
        <time>2024-07-12T15:12:46.297Z</time>
      </trkpt>
      <trkpt lat="50.63931" lon="1.74297">
        <ele>66.83</ele>
        <time>2024-07-12T15:12:48.834Z</time>
      </trkpt>
      <trkpt lat="50.63927" lon="1.743">
        <ele>66.8</ele>
        <time>2024-07-12T15:12:51.372Z</time>
      </trkpt>
      <trkpt lat="50.63907" lon="1.74314">
        <ele>67.09</ele>
        <time>2024-07-12T15:12:53.913Z</time>
      </trkpt>
      <trkpt lat="50.63891" lon="1.74322">
        <ele>67.3</ele>
        <time>2024-07-12T15:12:56.457Z</time>
      </trkpt>
      <trkpt lat="50.63887" lon="1.74323">
        <ele>67.17</ele>
        <time>2024-07-12T15:12:59.002Z</time>
      </trkpt>
      <trkpt lat="50.63884" lon="1.74327">
        <ele>67.19</ele>
        <time>2024-07-12T15:13:01.547Z</time>
      </trkpt>
      <trkpt lat="50.63883" lon="1.74335">
        <ele>67.46</ele>
        <time>2024-07-12T15:13:04.093Z</time>
      </trkpt>
      <trkpt lat="50.63885" lon="1.74341">
        <ele>67.75</ele>
        <time>2024-07-12T15:13:06.640Z</time>
      </trkpt>
      <trkpt lat="50.63893" lon="1.74362">
        <ele>69.6</ele>
        <time>2024-07-12T15:13:09.189Z</time>
      </trkpt>
      <trkpt lat="50.63894" lon="1.74366">
        <ele>69.89</ele>
        <time>2024-07-12T15:13:11.739Z</time>
      </trkpt>
      <trkpt lat="50.63898" lon="1.74387">
        <ele>70.69</ele>
        <time>2024-07-12T15:13:14.291Z</time>
      </trkpt>
      <trkpt lat="50.639" lon="1.74398">
        <ele>71.13</ele>
        <time>2024-07-12T15:13:16.844Z</time>
      </trkpt>
      <trkpt lat="50.63902" lon="1.74406">
        <ele>71.68</ele>
        <time>2024-07-12T15:13:19.398Z</time>
      </trkpt>
      <trkpt lat="50.63906" lon="1.7443">
        <ele>72.96</ele>
        <time>2024-07-12T15:13:21.955Z</time>
      </trkpt>
      <trkpt lat="50.6391" lon="1.74453">
        <ele>74.63</ele>
        <time>2024-07-12T15:13:24.514Z</time>
      </trkpt>
      <trkpt lat="50.63911" lon="1.7446">
        <ele>74.65</ele>
        <time>2024-07-12T15:13:27.074Z</time>
      </trkpt>
      <trkpt lat="50.63915" lon="1.74474">
        <ele>74.78</ele>
        <time>2024-07-12T15:13:29.635Z</time>
      </trkpt>
      <trkpt lat="50.6392" lon="1.74485">
        <ele>75.2</ele>
        <time>2024-07-12T15:13:32.198Z</time>
      </trkpt>
      <trkpt lat="50.63928" lon="1.74505">
        <ele>75.93</ele>
        <time>2024-07-12T15:13:34.763Z</time>
      </trkpt>
      <trkpt lat="50.63937" lon="1.74528">
        <ele>76.59</ele>
        <time>2024-07-12T15:13:37.331Z</time>
      </trkpt>
      <trkpt lat="50.63949" lon="1.74554">
        <ele>77</ele>
        <time>2024-07-12T15:13:39.902Z</time>
      </trkpt>
      <trkpt lat="50.63952" lon="1.74571">
        <ele>77.12</ele>
        <time>2024-07-12T15:13:42.475Z</time>
      </trkpt>
      <trkpt lat="50.6395" lon="1.74574">
        <ele>77.07</ele>
        <time>2024-07-12T15:13:45.048Z</time>
      </trkpt>
      <trkpt lat="50.63937" lon="1.74585">
        <ele>76.6</ele>
        <time>2024-07-12T15:13:47.624Z</time>
      </trkpt>
      <trkpt lat="50.63929" lon="1.74597">
        <ele>76.31</ele>
        <time>2024-07-12T15:13:50.202Z</time>
      </trkpt>
      <trkpt lat="50.63928" lon="1.74604">
        <ele>76.03</ele>
        <time>2024-07-12T15:13:52.780Z</time>
      </trkpt>
      <trkpt lat="50.63926" lon="1.74615">
        <ele>75.48</ele>
        <time>2024-07-12T15:13:55.359Z</time>
      </trkpt>
      <trkpt lat="50.63918" lon="1.74625">
        <ele>74.78</ele>
        <time>2024-07-12T15:13:57.940Z</time>
      </trkpt>
      <trkpt lat="50.63912" lon="1.74629">
        <ele>74.4</ele>
        <time>2024-07-12T15:14:00.522Z</time>
      </trkpt>
      <trkpt lat="50.639" lon="1.74634">
        <ele>73.49</ele>
        <time>2024-07-12T15:14:03.106Z</time>
      </trkpt>
      <trkpt lat="50.63895" lon="1.74636">
        <ele>73.19</ele>
        <time>2024-07-12T15:14:05.691Z</time>
      </trkpt>
      <trkpt lat="50.6387" lon="1.74644">
        <ele>70.62</ele>
        <time>2024-07-12T15:14:08.280Z</time>
      </trkpt>
      <trkpt lat="50.63865" lon="1.74645">
        <ele>70.01</ele>
        <time>2024-07-12T15:14:10.870Z</time>
      </trkpt>
      <trkpt lat="50.63856" lon="1.74648">
        <ele>69.36</ele>
        <time>2024-07-12T15:14:13.461Z</time>
      </trkpt>
      <trkpt lat="50.63843" lon="1.74652">
        <ele>68.43</ele>
        <time>2024-07-12T15:14:16.054Z</time>
      </trkpt>
      <trkpt lat="50.63834" lon="1.74654">
        <ele>67.74</ele>
        <time>2024-07-12T15:14:18.649Z</time>
      </trkpt>
      <trkpt lat="50.63824" lon="1.74656">
        <ele>67.05</ele>
        <time>2024-07-12T15:14:21.246Z</time>
      </trkpt>
      <trkpt lat="50.63815" lon="1.74657">
        <ele>66.42</ele>
        <time>2024-07-12T15:14:23.844Z</time>
      </trkpt>
      <trkpt lat="50.63811" lon="1.74657">
        <ele>66.09</ele>
        <time>2024-07-12T15:14:26.443Z</time>
      </trkpt>
      <trkpt lat="50.63798" lon="1.74657">
        <ele>64.82</ele>
        <time>2024-07-12T15:14:29.044Z</time>
      </trkpt>
      <trkpt lat="50.63795" lon="1.74657">
        <ele>64.41</ele>
        <time>2024-07-12T15:14:31.645Z</time>
      </trkpt>
      <trkpt lat="50.63786" lon="1.74658">
        <ele>63.46</ele>
        <time>2024-07-12T15:14:34.248Z</time>
      </trkpt>
      <trkpt lat="50.63773" lon="1.7466">
        <ele>62.06</ele>
        <time>2024-07-12T15:14:36.853Z</time>
      </trkpt>
      <trkpt lat="50.63765" lon="1.7466">
        <ele>61.16</ele>
        <time>2024-07-12T15:14:39.459Z</time>
      </trkpt>
      <trkpt lat="50.63757" lon="1.74661">
        <ele>60.33</ele>
        <time>2024-07-12T15:14:42.066Z</time>
      </trkpt>
      <trkpt lat="50.63746" lon="1.74662">
        <ele>59.1</ele>
        <time>2024-07-12T15:14:44.675Z</time>
      </trkpt>
      <trkpt lat="50.6374" lon="1.74666">
        <ele>58.32</ele>
        <time>2024-07-12T15:14:47.285Z</time>
      </trkpt>
      <trkpt lat="50.63738" lon="1.7467">
        <ele>57.89</ele>
        <time>2024-07-12T15:14:49.896Z</time>
      </trkpt>
      <trkpt lat="50.63738" lon="1.74681">
        <ele>57.43</ele>
        <time>2024-07-12T15:14:52.508Z</time>
      </trkpt>
      <trkpt lat="50.63744" lon="1.74705">
        <ele>57.75</ele>
        <time>2024-07-12T15:14:55.122Z</time>
      </trkpt>
      <trkpt lat="50.63753" lon="1.74729">
        <ele>57.93</ele>
        <time>2024-07-12T15:14:57.739Z</time>
      </trkpt>
      <trkpt lat="50.63767" lon="1.74757">
        <ele>58.36</ele>
        <time>2024-07-12T15:15:00.360Z</time>
      </trkpt>
      <trkpt lat="50.63767" lon="1.74774">
        <ele>57.35</ele>
        <time>2024-07-12T15:15:02.983Z</time>
      </trkpt>
      <trkpt lat="50.6376" lon="1.74793">
        <ele>56.15</ele>
        <time>2024-07-12T15:15:05.608Z</time>
      </trkpt>
      <trkpt lat="50.63757" lon="1.74808">
        <ele>55.42</ele>
        <time>2024-07-12T15:15:08.234Z</time>
      </trkpt>
      <trkpt lat="50.63756" lon="1.74825">
        <ele>54.33</ele>
        <time>2024-07-12T15:15:10.862Z</time>
      </trkpt>
      <trkpt lat="50.63753" lon="1.74851">
        <ele>52.54</ele>
        <time>2024-07-12T15:15:13.493Z</time>
      </trkpt>
      <trkpt lat="50.6375" lon="1.74869">
        <ele>51.63</ele>
        <time>2024-07-12T15:15:16.126Z</time>
      </trkpt>
      <trkpt lat="50.63744" lon="1.74884">
        <ele>50.93</ele>
        <time>2024-07-12T15:15:18.761Z</time>
      </trkpt>
      <trkpt lat="50.63729" lon="1.74906">
        <ele>49.19</ele>
        <time>2024-07-12T15:15:21.399Z</time>
      </trkpt>
      <trkpt lat="50.63725" lon="1.74915">
        <ele>48.83</ele>
        <time>2024-07-12T15:15:24.038Z</time>
      </trkpt>
      <trkpt lat="50.63721" lon="1.74924">
        <ele>48.42</ele>
        <time>2024-07-12T15:15:26.678Z</time>
      </trkpt>
      <trkpt lat="50.63719" lon="1.74934">
        <ele>48.21</ele>
        <time>2024-07-12T15:15:29.319Z</time>
      </trkpt>
      <trkpt lat="50.63716" lon="1.74955">
        <ele>48.38</ele>
        <time>2024-07-12T15:15:31.962Z</time>
      </trkpt>
      <trkpt lat="50.63706" lon="1.75021">
        <ele>50.77</ele>
        <time>2024-07-12T15:15:34.612Z</time>
      </trkpt>
      <trkpt lat="50.63694" lon="1.75066">
        <ele>52</ele>
        <time>2024-07-12T15:15:37.267Z</time>
      </trkpt>
      <trkpt lat="50.63681" lon="1.75091">
        <ele>52</ele>
        <time>2024-07-12T15:15:39.925Z</time>
      </trkpt>
      <trkpt lat="50.63679" lon="1.75095">
        <ele>52</ele>
        <time>2024-07-12T15:15:42.584Z</time>
      </trkpt>
      <trkpt lat="50.6367" lon="1.7511">
        <ele>52</ele>
        <time>2024-07-12T15:15:45.245Z</time>
      </trkpt>
      <trkpt lat="50.63668" lon="1.75112">
        <ele>52</ele>
        <time>2024-07-12T15:15:47.906Z</time>
      </trkpt>
      <trkpt lat="50.63659" lon="1.75124">
        <ele>52.22</ele>
        <time>2024-07-12T15:15:50.569Z</time>
      </trkpt>
      <trkpt lat="50.63649" lon="1.75139">
        <ele>52.76</ele>
        <time>2024-07-12T15:15:53.235Z</time>
      </trkpt>
      <trkpt lat="50.63636" lon="1.75158">
        <ele>54.12</ele>
        <time>2024-07-12T15:15:55.903Z</time>
      </trkpt>
      <trkpt lat="50.63635" lon="1.7516">
        <ele>54.27</ele>
        <time>2024-07-12T15:15:58.572Z</time>
      </trkpt>
      <trkpt lat="50.63625" lon="1.75174">
        <ele>55</ele>
        <time>2024-07-12T15:16:01.243Z</time>
      </trkpt>
      <trkpt lat="50.63616" lon="1.75191">
        <ele>55.6</ele>
        <time>2024-07-12T15:16:03.916Z</time>
      </trkpt>
      <trkpt lat="50.63604" lon="1.75214">
        <ele>57.31</ele>
        <time>2024-07-12T15:16:06.592Z</time>
      </trkpt>
      <trkpt lat="50.6359" lon="1.75234">
        <ele>57.17</ele>
        <time>2024-07-12T15:16:09.271Z</time>
      </trkpt>
      <trkpt lat="50.63586" lon="1.75242">
        <ele>57.5</ele>
        <time>2024-07-12T15:16:11.951Z</time>
      </trkpt>
      <trkpt lat="50.63569" lon="1.75275">
        <ele>58</ele>
        <time>2024-07-12T15:16:14.636Z</time>
      </trkpt>
      <trkpt lat="50.63556" lon="1.75299">
        <ele>58</ele>
        <time>2024-07-12T15:16:17.324Z</time>
      </trkpt>
      <trkpt lat="50.63547" lon="1.75315">
        <ele>58</ele>
        <time>2024-07-12T15:16:20.014Z</time>
      </trkpt>
      <trkpt lat="50.63535" lon="1.75337">
        <ele>58.77</ele>
        <time>2024-07-12T15:16:22.707Z</time>
      </trkpt>
      <trkpt lat="50.63519" lon="1.75371">
        <ele>59.45</ele>
        <time>2024-07-12T15:16:25.404Z</time>
      </trkpt>
      <trkpt lat="50.63501" lon="1.75408">
        <ele>60.66</ele>
        <time>2024-07-12T15:16:28.106Z</time>
      </trkpt>
      <trkpt lat="50.63499" lon="1.75412">
        <ele>60.94</ele>
        <time>2024-07-12T15:16:30.808Z</time>
      </trkpt>
      <trkpt lat="50.63486" lon="1.75438">
        <ele>62.16</ele>
        <time>2024-07-12T15:16:33.514Z</time>
      </trkpt>
      <trkpt lat="50.63483" lon="1.75445">
        <ele>62.52</ele>
        <time>2024-07-12T15:16:36.221Z</time>
      </trkpt>
      <trkpt lat="50.63473" lon="1.75466">
        <ele>63.65</ele>
        <time>2024-07-12T15:16:38.930Z</time>
      </trkpt>
      <trkpt lat="50.6347" lon="1.75472">
        <ele>63.99</ele>
        <time>2024-07-12T15:16:41.640Z</time>
      </trkpt>
      <trkpt lat="50.63459" lon="1.75495">
        <ele>64.62</ele>
        <time>2024-07-12T15:16:44.353Z</time>
      </trkpt>
      <trkpt lat="50.63457" lon="1.75498">
        <ele>64.69</ele>
        <time>2024-07-12T15:16:47.067Z</time>
      </trkpt>
      <trkpt lat="50.63445" lon="1.75523">
        <ele>65.1</ele>
        <time>2024-07-12T15:16:49.784Z</time>
      </trkpt>
      <trkpt lat="50.63442" lon="1.7553">
        <ele>65.23</ele>
        <time>2024-07-12T15:16:52.501Z</time>
      </trkpt>
      <trkpt lat="50.63433" lon="1.75549">
        <ele>66.55</ele>
        <time>2024-07-12T15:16:55.221Z</time>
      </trkpt>
      <trkpt lat="50.63427" lon="1.75561">
        <ele>67.45</ele>
        <time>2024-07-12T15:16:57.942Z</time>
      </trkpt>
      <trkpt lat="50.63417" lon="1.75579">
        <ele>68.69</ele>
        <time>2024-07-12T15:17:00.666Z</time>
      </trkpt>
      <trkpt lat="50.63409" lon="1.75591">
        <ele>69.4</ele>
        <time>2024-07-12T15:17:03.392Z</time>
      </trkpt>
      <trkpt lat="50.63393" lon="1.75617">
        <ele>69.98</ele>
        <time>2024-07-12T15:17:06.121Z</time>
      </trkpt>
      <trkpt lat="50.63372" lon="1.75648">
        <ele>70.72</ele>
        <time>2024-07-12T15:17:08.855Z</time>
      </trkpt>
      <trkpt lat="50.63356" lon="1.75674">
        <ele>72</ele>
        <time>2024-07-12T15:17:11.593Z</time>
      </trkpt>
      <trkpt lat="50.63351" lon="1.75684">
        <ele>72</ele>
        <time>2024-07-12T15:17:14.332Z</time>
      </trkpt>
      <trkpt lat="50.6335" lon="1.75693">
        <ele>72.25</ele>
        <time>2024-07-12T15:17:17.072Z</time>
      </trkpt>
      <trkpt lat="50.63353" lon="1.75726">
        <ele>73.87</ele>
        <time>2024-07-12T15:17:19.815Z</time>
      </trkpt>
      <trkpt lat="50.63354" lon="1.75731">
        <ele>74.04</ele>
        <time>2024-07-12T15:17:22.559Z</time>
      </trkpt>
      <trkpt lat="50.6336" lon="1.75762">
        <ele>75</ele>
        <time>2024-07-12T15:17:25.306Z</time>
      </trkpt>
      <trkpt lat="50.63362" lon="1.75778">
        <ele>75</ele>
        <time>2024-07-12T15:17:28.055Z</time>
      </trkpt>
      <trkpt lat="50.6337" lon="1.75824">
        <ele>74.88</ele>
        <time>2024-07-12T15:17:30.809Z</time>
      </trkpt>
      <trkpt lat="50.63378" lon="1.75868">
        <ele>75.61</ele>
        <time>2024-07-12T15:17:33.567Z</time>
      </trkpt>
      <trkpt lat="50.63378" lon="1.75874">
        <ele>76</ele>
        <time>2024-07-12T15:17:36.326Z</time>
      </trkpt>
      <trkpt lat="50.63383" lon="1.759">
        <ele>76.85</ele>
        <time>2024-07-12T15:17:39.088Z</time>
      </trkpt>
      <trkpt lat="50.63384" lon="1.75906">
        <ele>76.99</ele>
        <time>2024-07-12T15:17:41.850Z</time>
      </trkpt>
      <trkpt lat="50.63386" lon="1.75918">
        <ele>77.29</ele>
        <time>2024-07-12T15:17:44.614Z</time>
      </trkpt>
      <trkpt lat="50.63391" lon="1.75949">
        <ele>78.05</ele>
        <time>2024-07-12T15:17:47.381Z</time>
      </trkpt>
      <trkpt lat="50.63392" lon="1.75961">
        <ele>77.67</ele>
        <time>2024-07-12T15:17:50.149Z</time>
      </trkpt>
      <trkpt lat="50.63397" lon="1.75984">
        <ele>76.84</ele>
        <time>2024-07-12T15:17:52.920Z</time>
      </trkpt>
      <trkpt lat="50.63401" lon="1.75998">
        <ele>76.71</ele>
        <time>2024-07-12T15:17:55.692Z</time>
      </trkpt>
      <trkpt lat="50.63406" lon="1.76017">
        <ele>76.5</ele>
        <time>2024-07-12T15:17:58.466Z</time>
      </trkpt>
      <trkpt lat="50.63418" lon="1.76056">
        <ele>76.74</ele>
        <time>2024-07-12T15:18:01.245Z</time>
      </trkpt>
      <trkpt lat="50.63421" lon="1.76065">
        <ele>77</ele>
        <time>2024-07-12T15:18:04.025Z</time>
      </trkpt>
      <trkpt lat="50.6343" lon="1.76085">
        <ele>77</ele>
        <time>2024-07-12T15:18:06.807Z</time>
      </trkpt>
      <trkpt lat="50.63432" lon="1.76089">
        <ele>77</ele>
        <time>2024-07-12T15:18:09.590Z</time>
      </trkpt>
      <trkpt lat="50.63444" lon="1.76108">
        <ele>77.61</ele>
        <time>2024-07-12T15:18:12.375Z</time>
      </trkpt>
      <trkpt lat="50.63446" lon="1.76111">
        <ele>77.73</ele>
        <time>2024-07-12T15:18:15.161Z</time>
      </trkpt>
      <trkpt lat="50.63464" lon="1.76134">
        <ele>78</ele>
        <time>2024-07-12T15:18:17.950Z</time>
      </trkpt>
      <trkpt lat="50.63471" lon="1.76143">
        <ele>78.06</ele>
        <time>2024-07-12T15:18:20.741Z</time>
      </trkpt>
      <trkpt lat="50.63484" lon="1.76161">
        <ele>78.82</ele>
        <time>2024-07-12T15:18:23.535Z</time>
      </trkpt>
      <trkpt lat="50.63502" lon="1.76184">
        <ele>80.26</ele>
        <time>2024-07-12T15:18:26.332Z</time>
      </trkpt>
      <trkpt lat="50.63515" lon="1.76204">
        <ele>81</ele>
        <time>2024-07-12T15:18:29.132Z</time>
      </trkpt>
      <trkpt lat="50.6352" lon="1.76212">
        <ele>81</ele>
        <time>2024-07-12T15:18:31.934Z</time>
      </trkpt>
      <trkpt lat="50.63532" lon="1.76246">
        <ele>81</ele>
        <time>2024-07-12T15:18:34.739Z</time>
      </trkpt>
      <trkpt lat="50.63526" lon="1.76272">
        <ele>81.19</ele>
        <time>2024-07-12T15:18:37.547Z</time>
      </trkpt>
      <trkpt lat="50.63521" lon="1.76289">
        <ele>81.86</ele>
        <time>2024-07-12T15:18:40.357Z</time>
      </trkpt>
      <trkpt lat="50.63516" lon="1.7631">
        <ele>82.57</ele>
        <time>2024-07-12T15:18:43.169Z</time>
      </trkpt>
      <trkpt lat="50.63508" lon="1.76357">
        <ele>83.86</ele>
        <time>2024-07-12T15:18:45.986Z</time>
      </trkpt>
      <trkpt lat="50.63504" lon="1.76373">
        <ele>84.13</ele>
        <time>2024-07-12T15:18:48.805Z</time>
      </trkpt>
      <trkpt lat="50.63499" lon="1.76399">
        <ele>85</ele>
        <time>2024-07-12T15:18:51.627Z</time>
      </trkpt>
      <trkpt lat="50.63495" lon="1.7642">
        <ele>85.17</ele>
        <time>2024-07-12T15:18:54.451Z</time>
      </trkpt>
      <trkpt lat="50.63492" lon="1.7643">
        <ele>85.64</ele>
        <time>2024-07-12T15:18:57.276Z</time>
      </trkpt>
      <trkpt lat="50.63479" lon="1.7646">
        <ele>86.89</ele>
        <time>2024-07-12T15:19:00.105Z</time>
      </trkpt>
      <trkpt lat="50.63477" lon="1.76464">
        <ele>86.95</ele>
        <time>2024-07-12T15:19:02.934Z</time>
      </trkpt>
      <trkpt lat="50.63467" lon="1.76487">
        <ele>87.57</ele>
        <time>2024-07-12T15:19:05.766Z</time>
      </trkpt>
      <trkpt lat="50.63464" lon="1.76494">
        <ele>87.92</ele>
        <time>2024-07-12T15:19:08.599Z</time>
      </trkpt>
      <trkpt lat="50.63459" lon="1.76514">
        <ele>88</ele>
        <time>2024-07-12T15:19:11.434Z</time>
      </trkpt>
      <trkpt lat="50.63455" lon="1.76525">
        <ele>88.38</ele>
        <time>2024-07-12T15:19:14.271Z</time>
      </trkpt>
      <trkpt lat="50.63449" lon="1.7654">
        <ele>88.81</ele>
        <time>2024-07-12T15:19:17.110Z</time>
      </trkpt>
      <trkpt lat="50.63443" lon="1.76563">
        <ele>88.18</ele>
        <time>2024-07-12T15:19:19.951Z</time>
      </trkpt>
      <trkpt lat="50.63434" lon="1.76594">
        <ele>89</ele>
        <time>2024-07-12T15:19:22.795Z</time>
      </trkpt>
      <trkpt lat="50.63433" lon="1.76598">
        <ele>89</ele>
        <time>2024-07-12T15:19:25.640Z</time>
      </trkpt>
      <trkpt lat="50.63424" lon="1.76635">
        <ele>89</ele>
        <time>2024-07-12T15:19:28.489Z</time>
      </trkpt>
      <trkpt lat="50.63418" lon="1.7667">
        <ele>88.92</ele>
        <time>2024-07-12T15:19:31.342Z</time>
      </trkpt>
      <trkpt lat="50.63417" lon="1.7668">
        <ele>88.87</ele>
        <time>2024-07-12T15:19:34.196Z</time>
      </trkpt>
      <trkpt lat="50.63416" lon="1.76722">
        <ele>88.14</ele>
        <time>2024-07-12T15:19:37.054Z</time>
      </trkpt>
      <trkpt lat="50.63417" lon="1.76732">
        <ele>87.77</ele>
        <time>2024-07-12T15:19:39.913Z</time>
      </trkpt>
      <trkpt lat="50.63422" lon="1.76812">
        <ele>86.03</ele>
        <time>2024-07-12T15:19:42.780Z</time>
      </trkpt>
      <trkpt lat="50.63423" lon="1.76824">
        <ele>85.91</ele>
        <time>2024-07-12T15:19:45.648Z</time>
      </trkpt>
      <trkpt lat="50.63428" lon="1.76915">
        <ele>85.47</ele>
        <time>2024-07-12T15:19:48.526Z</time>
      </trkpt>
      <trkpt lat="50.63429" lon="1.76937">
        <ele>85.36</ele>
        <time>2024-07-12T15:19:51.406Z</time>
      </trkpt>
      <trkpt lat="50.63433" lon="1.76996">
        <ele>85.57</ele>
        <time>2024-07-12T15:19:54.292Z</time>
      </trkpt>
      <trkpt lat="50.63437" lon="1.77067">
        <ele>87.14</ele>
        <time>2024-07-12T15:19:57.185Z</time>
      </trkpt>
      <trkpt lat="50.6344" lon="1.77114">
        <ele>88.82</ele>
        <time>2024-07-12T15:20:00.083Z</time>
      </trkpt>
      <trkpt lat="50.6344" lon="1.77128">
        <ele>89.33</ele>
        <time>2024-07-12T15:20:02.983Z</time>
      </trkpt>
      <trkpt lat="50.63443" lon="1.7716">
        <ele>90.47</ele>
        <time>2024-07-12T15:20:05.886Z</time>
      </trkpt>
      <trkpt lat="50.63444" lon="1.77169">
        <ele>90.81</ele>
        <time>2024-07-12T15:20:08.790Z</time>
      </trkpt>
      <trkpt lat="50.63449" lon="1.7719">
        <ele>92.1</ele>
        <time>2024-07-12T15:20:11.696Z</time>
      </trkpt>
      <trkpt lat="50.6345" lon="1.77193">
        <ele>92.34</ele>
        <time>2024-07-12T15:20:14.602Z</time>
      </trkpt>
      <trkpt lat="50.6346" lon="1.77218">
        <ele>93.56</ele>
        <time>2024-07-12T15:20:17.511Z</time>
      </trkpt>
      <trkpt lat="50.63466" lon="1.77226">
        <ele>93.87</ele>
        <time>2024-07-12T15:20:20.422Z</time>
      </trkpt>
      <trkpt lat="50.63475" lon="1.77241">
        <ele>94.39</ele>
        <time>2024-07-12T15:20:23.335Z</time>
      </trkpt>
      <trkpt lat="50.63481" lon="1.77248">
        <ele>94.65</ele>
        <time>2024-07-12T15:20:26.249Z</time>
      </trkpt>
      <trkpt lat="50.63489" lon="1.77259">
        <ele>95.03</ele>
        <time>2024-07-12T15:20:29.165Z</time>
      </trkpt>
      <trkpt lat="50.63501" lon="1.77273">
        <ele>95.55</ele>
        <time>2024-07-12T15:20:32.083Z</time>
      </trkpt>
      <trkpt lat="50.63503" lon="1.77275">
        <ele>95.62</ele>
        <time>2024-07-12T15:20:35.001Z</time>
      </trkpt>
      <trkpt lat="50.63511" lon="1.77286">
        <ele>96.26</ele>
        <time>2024-07-12T15:20:37.921Z</time>
      </trkpt>
      <trkpt lat="50.63518" lon="1.77295">
        <ele>96.86</ele>
        <time>2024-07-12T15:20:40.843Z</time>
      </trkpt>
      <trkpt lat="50.63524" lon="1.77303">
        <ele>97.34</ele>
        <time>2024-07-12T15:20:43.766Z</time>
      </trkpt>
      <trkpt lat="50.63534" lon="1.77315">
        <ele>97.99</ele>
        <time>2024-07-12T15:20:46.691Z</time>
      </trkpt>
      <trkpt lat="50.63541" lon="1.77327">
        <ele>98</ele>
        <time>2024-07-12T15:20:49.618Z</time>
      </trkpt>
      <trkpt lat="50.63545" lon="1.77334">
        <ele>98</ele>
        <time>2024-07-12T15:20:52.545Z</time>
      </trkpt>
      <trkpt lat="50.6356" lon="1.77366">
        <ele>97.97</ele>
        <time>2024-07-12T15:20:55.477Z</time>
      </trkpt>
      <trkpt lat="50.6357" lon="1.77401">
        <ele>97.62</ele>
        <time>2024-07-12T15:20:58.412Z</time>
      </trkpt>
      <trkpt lat="50.63575" lon="1.77421">
        <ele>97.77</ele>
        <time>2024-07-12T15:21:01.350Z</time>
      </trkpt>
      <trkpt lat="50.6358" lon="1.77449">
        <ele>97.51</ele>
        <time>2024-07-12T15:21:04.291Z</time>
      </trkpt>
      <trkpt lat="50.63588" lon="1.77503">
        <ele>96.95</ele>
        <time>2024-07-12T15:21:07.237Z</time>
      </trkpt>
      <trkpt lat="50.6359" lon="1.77517">
        <ele>97</ele>
        <time>2024-07-12T15:21:10.185Z</time>
      </trkpt>
      <trkpt lat="50.63598" lon="1.77552">
        <ele>97.21</ele>
        <time>2024-07-12T15:21:13.136Z</time>
      </trkpt>
      <trkpt lat="50.63595" lon="1.77573">
        <ele>98.05</ele>
        <time>2024-07-12T15:21:16.090Z</time>
      </trkpt>
      <trkpt lat="50.63583" lon="1.77612">
        <ele>99.14</ele>
        <time>2024-07-12T15:21:19.048Z</time>
      </trkpt>
      <trkpt lat="50.63579" lon="1.77627">
        <ele>99.29</ele>
        <time>2024-07-12T15:21:22.008Z</time>
      </trkpt>
      <trkpt lat="50.63568" lon="1.77664">
        <ele>99.36</ele>
        <time>2024-07-12T15:21:24.972Z</time>
      </trkpt>
      <trkpt lat="50.63567" lon="1.77669">
        <ele>99.47</ele>
        <time>2024-07-12T15:21:27.936Z</time>
      </trkpt>
      <trkpt lat="50.63555" lon="1.77708">
        <ele>100.52</ele>
        <time>2024-07-12T15:21:30.905Z</time>
      </trkpt>
      <trkpt lat="50.63554" lon="1.77712">
        <ele>100.76</ele>
        <time>2024-07-12T15:21:33.874Z</time>
      </trkpt>
      <trkpt lat="50.63545" lon="1.77741">
        <ele>102.01</ele>
        <time>2024-07-12T15:21:36.847Z</time>
      </trkpt>
      <trkpt lat="50.63536" lon="1.77771">
        <ele>103.93</ele>
        <time>2024-07-12T15:21:39.823Z</time>
      </trkpt>
      <trkpt lat="50.63534" lon="1.77778">
        <ele>104.44</ele>
        <time>2024-07-12T15:21:42.800Z</time>
      </trkpt>
      <trkpt lat="50.63529" lon="1.77797">
        <ele>105.19</ele>
        <time>2024-07-12T15:21:45.779Z</time>
      </trkpt>
      <trkpt lat="50.63524" lon="1.77812">
        <ele>105.75</ele>
        <time>2024-07-12T15:21:48.759Z</time>
      </trkpt>
      <trkpt lat="50.63522" lon="1.77819">
        <ele>106.19</ele>
        <time>2024-07-12T15:21:51.740Z</time>
      </trkpt>
      <trkpt lat="50.63516" lon="1.77839">
        <ele>107.1</ele>
        <time>2024-07-12T15:21:54.723Z</time>
      </trkpt>
      <trkpt lat="50.6351" lon="1.77857">
        <ele>108.09</ele>
        <time>2024-07-12T15:21:57.709Z</time>
      </trkpt>
      <trkpt lat="50.63508" lon="1.77867">
        <ele>108.68</ele>
        <time>2024-07-12T15:22:00.696Z</time>
      </trkpt>
      <trkpt lat="50.63505" lon="1.77876">
        <ele>109.13</ele>
        <time>2024-07-12T15:22:03.684Z</time>
      </trkpt>
      <trkpt lat="50.63501" lon="1.77887">
        <ele>109.82</ele>
        <time>2024-07-12T15:22:06.673Z</time>
      </trkpt>
      <trkpt lat="50.635" lon="1.77889">
        <ele>110.01</ele>
        <time>2024-07-12T15:22:09.662Z</time>
      </trkpt>
      <trkpt lat="50.635" lon="1.77889">
        <ele>110.01</ele>
        <time>2024-07-12T15:22:12.651Z</time>
      </trkpt>
      <trkpt lat="50.63498" lon="1.77898">
        <ele>110.72</ele>
        <time>2024-07-12T15:22:15.641Z</time>
      </trkpt>
      <trkpt lat="50.63495" lon="1.77906">
        <ele>111.27</ele>
        <time>2024-07-12T15:22:18.632Z</time>
      </trkpt>
      <trkpt lat="50.63492" lon="1.77915">
        <ele>112.01</ele>
        <time>2024-07-12T15:22:21.624Z</time>
      </trkpt>
      <trkpt lat="50.6349" lon="1.77922">
        <ele>112.8</ele>
        <time>2024-07-12T15:22:24.617Z</time>
      </trkpt>
      <trkpt lat="50.63487" lon="1.77935">
        <ele>114.15</ele>
        <time>2024-07-12T15:22:27.611Z</time>
      </trkpt>
      <trkpt lat="50.63441" lon="1.78119">
        <ele>139.33</ele>
        <time>2024-07-12T15:22:30.626Z</time>
      </trkpt>
      <trkpt lat="50.63442" lon="1.78134">
        <ele>139.89</ele>
        <time>2024-07-12T15:22:33.642Z</time>
      </trkpt>
      <trkpt lat="50.63442" lon="1.78138">
        <ele>140.12</ele>
        <time>2024-07-12T15:22:36.658Z</time>
      </trkpt>
      <trkpt lat="50.63443" lon="1.78149">
        <ele>141.09</ele>
        <time>2024-07-12T15:22:39.676Z</time>
      </trkpt>
      <trkpt lat="50.63444" lon="1.78155">
        <ele>141.72</ele>
        <time>2024-07-12T15:22:42.694Z</time>
      </trkpt>
      <trkpt lat="50.63444" lon="1.78166">
        <ele>143.49</ele>
        <time>2024-07-12T15:22:45.713Z</time>
      </trkpt>
      <trkpt lat="50.63445" lon="1.78171">
        <ele>144.27</ele>
        <time>2024-07-12T15:22:48.733Z</time>
      </trkpt>
      <trkpt lat="50.63446" lon="1.78181">
        <ele>145.36</ele>
        <time>2024-07-12T15:22:51.754Z</time>
      </trkpt>
      <trkpt lat="50.63446" lon="1.78187">
        <ele>146.29</ele>
        <time>2024-07-12T15:22:54.775Z</time>
      </trkpt>
      <trkpt lat="50.63447" lon="1.78194">
        <ele>147.11</ele>
        <time>2024-07-12T15:22:57.797Z</time>
      </trkpt>
      <trkpt lat="50.63447" lon="1.782">
        <ele>148.33</ele>
        <time>2024-07-12T15:23:00.820Z</time>
      </trkpt>
      <trkpt lat="50.63447" lon="1.78205">
        <ele>148.77</ele>
        <time>2024-07-12T15:23:03.843Z</time>
      </trkpt>
      <trkpt lat="50.63448" lon="1.78215">
        <ele>149.43</ele>
        <time>2024-07-12T15:23:06.867Z</time>
      </trkpt>
      <trkpt lat="50.63448" lon="1.78218">
        <ele>149.64</ele>
        <time>2024-07-12T15:23:09.892Z</time>
      </trkpt>
      <trkpt lat="50.63449" lon="1.78228">
        <ele>150.43</ele>
        <time>2024-07-12T15:23:12.918Z</time>
      </trkpt>
      <trkpt lat="50.63449" lon="1.78231">
        <ele>150.84</ele>
        <time>2024-07-12T15:23:15.944Z</time>
      </trkpt>
      <trkpt lat="50.63451" lon="1.78238">
        <ele>150.46</ele>
        <time>2024-07-12T15:23:18.971Z</time>
      </trkpt>
      <trkpt lat="50.63452" lon="1.78242">
        <ele>151.01</ele>
        <time>2024-07-12T15:23:21.998Z</time>
      </trkpt>
      <trkpt lat="50.63452" lon="1.78244">
        <ele>151.05</ele>
        <time>2024-07-12T15:23:25.025Z</time>
      </trkpt>
      <trkpt lat="50.63454" lon="1.78255">
        <ele>151.66</ele>
        <time>2024-07-12T15:23:28.054Z</time>
      </trkpt>
      <trkpt lat="50.63456" lon="1.78269">
        <ele>152.32</ele>
        <time>2024-07-12T15:23:31.084Z</time>
      </trkpt>
      <trkpt lat="50.63457" lon="1.7828">
        <ele>152.64</ele>
        <time>2024-07-12T15:23:34.115Z</time>
      </trkpt>
      <trkpt lat="50.63458" lon="1.78281">
        <ele>152.61</ele>
        <time>2024-07-12T15:23:37.146Z</time>
      </trkpt>
      <trkpt lat="50.63459" lon="1.7829">
        <ele>153.19</ele>
        <time>2024-07-12T15:23:40.178Z</time>
      </trkpt>
      <trkpt lat="50.63459" lon="1.78292">
        <ele>153.26</ele>
        <time>2024-07-12T15:23:43.210Z</time>
      </trkpt>
      <trkpt lat="50.63462" lon="1.78302">
        <ele>153.31</ele>
        <time>2024-07-12T15:23:46.244Z</time>
      </trkpt>
      <trkpt lat="50.63463" lon="1.78309">
        <ele>153.16</ele>
        <time>2024-07-12T15:23:49.278Z</time>
      </trkpt>
      <trkpt lat="50.63464" lon="1.78316">
        <ele>153.49</ele>
        <time>2024-07-12T15:23:52.313Z</time>
      </trkpt>
      <trkpt lat="50.63464" lon="1.78323">
        <ele>153.89</ele>
        <time>2024-07-12T15:23:55.349Z</time>
      </trkpt>
      <trkpt lat="50.63465" lon="1.78328">
        <ele>153.71</ele>
        <time>2024-07-12T15:23:58.385Z</time>
      </trkpt>
      <trkpt lat="50.63467" lon="1.78333">
        <ele>153.44</ele>
        <time>2024-07-12T15:24:01.422Z</time>
      </trkpt>
      <trkpt lat="50.63468" lon="1.78337">
        <ele>153.27</ele>
        <time>2024-07-12T15:24:04.459Z</time>
      </trkpt>
      <trkpt lat="50.6347" lon="1.78341">
        <ele>153.3</ele>
        <time>2024-07-12T15:24:07.497Z</time>
      </trkpt>
      <trkpt lat="50.63472" lon="1.78352">
        <ele>153.17</ele>
        <time>2024-07-12T15:24:10.536Z</time>
      </trkpt>
      <trkpt lat="50.63474" lon="1.78365">
        <ele>153.41</ele>
        <time>2024-07-12T15:24:13.576Z</time>
      </trkpt>
      <trkpt lat="50.63475" lon="1.78367">
        <ele>153.2</ele>
        <time>2024-07-12T15:24:16.617Z</time>
      </trkpt>
      <trkpt lat="50.63478" lon="1.78376">
        <ele>153.34</ele>
        <time>2024-07-12T15:24:19.659Z</time>
      </trkpt>
      <trkpt lat="50.63479" lon="1.78384">
        <ele>154.25</ele>
        <time>2024-07-12T15:24:22.701Z</time>
      </trkpt>
      <trkpt lat="50.63481" lon="1.7839">
        <ele>154.46</ele>
        <time>2024-07-12T15:24:25.744Z</time>
      </trkpt>
      <trkpt lat="50.63484" lon="1.78403">
        <ele>155.67</ele>
        <time>2024-07-12T15:24:28.789Z</time>
      </trkpt>
      <trkpt lat="50.63484" lon="1.78405">
        <ele>155.92</ele>
        <time>2024-07-12T15:24:31.834Z</time>
      </trkpt>
      <trkpt lat="50.63487" lon="1.78415">
        <ele>156.66</ele>
        <time>2024-07-12T15:24:34.880Z</time>
      </trkpt>
      <trkpt lat="50.63488" lon="1.78417">
        <ele>156.84</ele>
        <time>2024-07-12T15:24:37.926Z</time>
      </trkpt>
      <trkpt lat="50.6349" lon="1.78429">
        <ele>158.2</ele>
        <time>2024-07-12T15:24:40.973Z</time>
      </trkpt>
      <trkpt lat="50.63491" lon="1.78438">
        <ele>159.08</ele>
        <time>2024-07-12T15:24:44.021Z</time>
      </trkpt>
      <trkpt lat="50.63492" lon="1.78441">
        <ele>159.27</ele>
        <time>2024-07-12T15:24:47.070Z</time>
      </trkpt>
      <trkpt lat="50.63495" lon="1.78452">
        <ele>160.48</ele>
        <time>2024-07-12T15:24:50.120Z</time>
      </trkpt>
      <trkpt lat="50.63497" lon="1.78465">
        <ele>162.27</ele>
        <time>2024-07-12T15:24:53.171Z</time>
      </trkpt>
      <trkpt lat="50.63497" lon="1.78468">
        <ele>162.92</ele>
        <time>2024-07-12T15:24:56.223Z</time>
      </trkpt>
      <trkpt lat="50.635" lon="1.78477">
        <ele>164.16</ele>
        <time>2024-07-12T15:24:59.276Z</time>
      </trkpt>
      <trkpt lat="50.63501" lon="1.78483">
        <ele>164.71</ele>
        <time>2024-07-12T15:25:02.329Z</time>
      </trkpt>
      <trkpt lat="50.63503" lon="1.7849">
        <ele>165.51</ele>
        <time>2024-07-12T15:25:05.383Z</time>
      </trkpt>
      <trkpt lat="50.63504" lon="1.78494">
        <ele>166.06</ele>
        <time>2024-07-12T15:25:08.437Z</time>
      </trkpt>
      <trkpt lat="50.63505" lon="1.78504">
        <ele>167.45</ele>
        <time>2024-07-12T15:25:11.492Z</time>
      </trkpt>
      <trkpt lat="50.63506" lon="1.78509">
        <ele>168.19</ele>
        <time>2024-07-12T15:25:14.548Z</time>
      </trkpt>
      <trkpt lat="50.63507" lon="1.78517">
        <ele>169.33</ele>
        <time>2024-07-12T15:25:17.605Z</time>
      </trkpt>
      <trkpt lat="50.63508" lon="1.78522">
        <ele>170.01</ele>
        <time>2024-07-12T15:25:20.662Z</time>
      </trkpt>
      <trkpt lat="50.63509" lon="1.7853">
        <ele>171.51</ele>
        <time>2024-07-12T15:25:23.720Z</time>
      </trkpt>
      <trkpt lat="50.63511" lon="1.78545">
        <ele>173.27</ele>
        <time>2024-07-12T15:25:26.780Z</time>
      </trkpt>
      <trkpt lat="50.63511" lon="1.78546">
        <ele>173.15</ele>
        <time>2024-07-12T15:25:29.840Z</time>
      </trkpt>
      <trkpt lat="50.63513" lon="1.78558">
        <ele>173.81</ele>
        <time>2024-07-12T15:25:32.901Z</time>
      </trkpt>
      <trkpt lat="50.63513" lon="1.78561">
        <ele>174.1</ele>
        <time>2024-07-12T15:25:35.962Z</time>
      </trkpt>
      <trkpt lat="50.63513" lon="1.78565">
        <ele>174.49</ele>
        <time>2024-07-12T15:25:39.024Z</time>
      </trkpt>
      <trkpt lat="50.63514" lon="1.78569">
        <ele>174.74</ele>
        <time>2024-07-12T15:25:42.086Z</time>
      </trkpt>
      <trkpt lat="50.63515" lon="1.78571">
        <ele>174.86</ele>
        <time>2024-07-12T15:25:45.148Z</time>
      </trkpt>
      <trkpt lat="50.63515" lon="1.78576">
        <ele>175.25</ele>
        <time>2024-07-12T15:25:48.211Z</time>
      </trkpt>
      <trkpt lat="50.63516" lon="1.78584">
        <ele>175.44</ele>
        <time>2024-07-12T15:25:51.275Z</time>
      </trkpt>
      <trkpt lat="50.63516" lon="1.78586">
        <ele>175.67</ele>
        <time>2024-07-12T15:25:54.339Z</time>
      </trkpt>
      <trkpt lat="50.63516" lon="1.78588">
        <ele>175.69</ele>
        <time>2024-07-12T15:25:57.403Z</time>
      </trkpt>
      <trkpt lat="50.63516" lon="1.78596">
        <ele>176.56</ele>
        <time>2024-07-12T15:26:00.468Z</time>
      </trkpt>
      <trkpt lat="50.63515" lon="1.78601">
        <ele>177.27</ele>
        <time>2024-07-12T15:26:03.534Z</time>
      </trkpt>
      <trkpt lat="50.63515" lon="1.78609">
        <ele>178.22</ele>
        <time>2024-07-12T15:26:06.600Z</time>
      </trkpt>
      <trkpt lat="50.63515" lon="1.78616">
        <ele>179.09</ele>
        <time>2024-07-12T15:26:09.667Z</time>
      </trkpt>
      <trkpt lat="50.63517" lon="1.78622">
        <ele>178.95</ele>
        <time>2024-07-12T15:26:12.735Z</time>
      </trkpt>
      <trkpt lat="50.63517" lon="1.78627">
        <ele>178.87</ele>
        <time>2024-07-12T15:26:15.803Z</time>
      </trkpt>
      <trkpt lat="50.63517" lon="1.78636">
        <ele>179.28</ele>
        <time>2024-07-12T15:26:18.872Z</time>
      </trkpt>
      <trkpt lat="50.63517" lon="1.78643">
        <ele>180.07</ele>
        <time>2024-07-12T15:26:21.942Z</time>
      </trkpt>
      <trkpt lat="50.63516" lon="1.78648">
        <ele>180.54</ele>
        <time>2024-07-12T15:26:25.012Z</time>
      </trkpt>
      <trkpt lat="50.63514" lon="1.78657">
        <ele>181.56</ele>
        <time>2024-07-12T15:26:28.083Z</time>
      </trkpt>
      <trkpt lat="50.63514" lon="1.78662">
        <ele>181.82</ele>
        <time>2024-07-12T15:26:31.155Z</time>
      </trkpt>
      <trkpt lat="50.63512" lon="1.78671">
        <ele>182.43</ele>
        <time>2024-07-12T15:26:34.228Z</time>
      </trkpt>
      <trkpt lat="50.63511" lon="1.78673">
        <ele>182.68</ele>
        <time>2024-07-12T15:26:37.301Z</time>
      </trkpt>
      <trkpt lat="50.63508" lon="1.78681">
        <ele>183.71</ele>
        <time>2024-07-12T15:26:40.375Z</time>
      </trkpt>
      <trkpt lat="50.63507" lon="1.78683">
        <ele>183.93</ele>
        <time>2024-07-12T15:26:43.449Z</time>
      </trkpt>
      <trkpt lat="50.63504" lon="1.78694">
        <ele>184.81</ele>
        <time>2024-07-12T15:26:46.525Z</time>
      </trkpt>
      <trkpt lat="50.63504" lon="1.78696">
        <ele>184.91</ele>
        <time>2024-07-12T15:26:49.601Z</time>
      </trkpt>
      <trkpt lat="50.635" lon="1.78706">
        <ele>185.98</ele>
        <time>2024-07-12T15:26:52.678Z</time>
      </trkpt>
      <trkpt lat="50.63499" lon="1.78708">
        <ele>186.08</ele>
        <time>2024-07-12T15:26:55.755Z</time>
      </trkpt>
      <trkpt lat="50.63494" lon="1.78717">
        <ele>187.62</ele>
        <time>2024-07-12T15:26:58.833Z</time>
      </trkpt>
      <trkpt lat="50.63493" lon="1.78718">
        <ele>187.71</ele>
        <time>2024-07-12T15:27:01.912Z</time>
      </trkpt>
      <trkpt lat="50.63489" lon="1.78728">
        <ele>188.23</ele>
        <time>2024-07-12T15:27:04.992Z</time>
      </trkpt>
      <trkpt lat="50.63489" lon="1.78729">
        <ele>188.29</ele>
        <time>2024-07-12T15:27:08.072Z</time>
      </trkpt>
      <trkpt lat="50.63484" lon="1.78738">
        <ele>189.3</ele>
        <time>2024-07-12T15:27:11.153Z</time>
      </trkpt>
      <trkpt lat="50.63483" lon="1.78739">
        <ele>189.34</ele>
        <time>2024-07-12T15:27:14.234Z</time>
      </trkpt>
      <trkpt lat="50.6348" lon="1.78748">
        <ele>189.7</ele>
        <time>2024-07-12T15:27:17.316Z</time>
      </trkpt>
      <trkpt lat="50.63478" lon="1.78751">
        <ele>189.99</ele>
        <time>2024-07-12T15:27:20.399Z</time>
      </trkpt>
      <trkpt lat="50.63474" lon="1.78758">
        <ele>190.09</ele>
        <time>2024-07-12T15:27:23.483Z</time>
      </trkpt>
      <trkpt lat="50.6347" lon="1.78764">
        <ele>189.79</ele>
        <time>2024-07-12T15:27:26.567Z</time>
      </trkpt>
      <trkpt lat="50.63469" lon="1.78765">
        <ele>189.74</ele>
        <time>2024-07-12T15:27:29.652Z</time>
      </trkpt>
      <trkpt lat="50.63463" lon="1.78771">
        <ele>189.55</ele>
        <time>2024-07-12T15:27:32.738Z</time>
      </trkpt>
      <trkpt lat="50.63462" lon="1.78772">
        <ele>189.5</ele>
        <time>2024-07-12T15:27:35.824Z</time>
      </trkpt>
      <trkpt lat="50.63456" lon="1.78782">
        <ele>189.56</ele>
        <time>2024-07-12T15:27:38.912Z</time>
      </trkpt>
      <trkpt lat="50.63455" lon="1.78787">
        <ele>189.54</ele>
        <time>2024-07-12T15:27:42.000Z</time>
      </trkpt>
      <trkpt lat="50.63454" lon="1.78793">
        <ele>189.66</ele>
        <time>2024-07-12T15:27:45.089Z</time>
      </trkpt>
      <trkpt lat="50.63455" lon="1.78798">
        <ele>189.73</ele>
        <time>2024-07-12T15:27:48.178Z</time>
      </trkpt>
      <trkpt lat="50.63455" lon="1.78799">
        <ele>189.78</ele>
        <time>2024-07-12T15:27:51.267Z</time>
      </trkpt>
      <trkpt lat="50.63457" lon="1.78798">
        <ele>189.53</ele>
        <time>2024-07-12T15:27:54.357Z</time>
      </trkpt>
      <trkpt lat="50.63456" lon="1.78799">
        <ele>189.6</ele>
        <time>2024-07-12T15:27:57.447Z</time>
      </trkpt>
      <trkpt lat="50.63456" lon="1.78799">
        <ele>189.6</ele>
        <time>2024-07-12T15:28:00.537Z</time>
      </trkpt>
      <trkpt lat="50.63457" lon="1.78804">
        <ele>189.69</ele>
        <time>2024-07-12T15:28:03.627Z</time>
      </trkpt>
      <trkpt lat="50.6346" lon="1.78816">
        <ele>189.86</ele>
        <time>2024-07-12T15:28:06.719Z</time>
      </trkpt>
      <trkpt lat="50.63466" lon="1.78836">
        <ele>190.48</ele>
        <time>2024-07-12T15:28:09.813Z</time>
      </trkpt>
      <trkpt lat="50.63469" lon="1.78848">
        <ele>190.98</ele>
        <time>2024-07-12T15:28:12.908Z</time>
      </trkpt>
      <trkpt lat="50.63474" lon="1.78868">
        <ele>192.03</ele>
        <time>2024-07-12T15:28:16.005Z</time>
      </trkpt>
      <trkpt lat="50.63476" lon="1.78876">
        <ele>192.45</ele>
        <time>2024-07-12T15:28:19.103Z</time>
      </trkpt>
      <trkpt lat="50.63484" lon="1.78901">
        <ele>193.59</ele>
        <time>2024-07-12T15:28:22.204Z</time>
      </trkpt>
      <trkpt lat="50.63487" lon="1.78912">
        <ele>193.91</ele>
        <time>2024-07-12T15:28:25.306Z</time>
      </trkpt>
      <trkpt lat="50.63494" lon="1.78935">
        <ele>194.74</ele>
        <time>2024-07-12T15:28:28.411Z</time>
      </trkpt>
      <trkpt lat="50.63497" lon="1.78942">
        <ele>194.96</ele>
        <time>2024-07-12T15:28:31.517Z</time>
      </trkpt>
      <trkpt lat="50.63504" lon="1.78964">
        <ele>195.84</ele>
        <time>2024-07-12T15:28:34.625Z</time>
      </trkpt>
      <trkpt lat="50.63506" lon="1.78971">
        <ele>196.36</ele>
        <time>2024-07-12T15:28:37.734Z</time>
      </trkpt>
      <trkpt lat="50.63511" lon="1.78991">
        <ele>197.52</ele>
        <time>2024-07-12T15:28:40.845Z</time>
      </trkpt>
      <trkpt lat="50.63515" lon="1.79006">
        <ele>198.43</ele>
        <time>2024-07-12T15:28:43.958Z</time>
      </trkpt>
      <trkpt lat="50.63521" lon="1.79026">
        <ele>199.01</ele>
        <time>2024-07-12T15:28:47.073Z</time>
      </trkpt>
      <trkpt lat="50.63534" lon="1.79068">
        <ele>199.88</ele>
        <time>2024-07-12T15:28:50.193Z</time>
      </trkpt>
      <trkpt lat="50.63547" lon="1.79111">
        <ele>198.26</ele>
        <time>2024-07-12T15:28:53.318Z</time>
      </trkpt>
      <trkpt lat="50.63559" lon="1.7916">
        <ele>197.05</ele>
        <time>2024-07-12T15:28:56.448Z</time>
      </trkpt>
      <trkpt lat="50.63574" lon="1.79237">
        <ele>193.43</ele>
        <time>2024-07-12T15:28:59.586Z</time>
      </trkpt>
      <trkpt lat="50.63577" lon="1.79257">
        <ele>192.67</ele>
        <time>2024-07-12T15:29:02.726Z</time>
      </trkpt>
      <trkpt lat="50.63589" lon="1.79332">
        <ele>191.3</ele>
        <time>2024-07-12T15:29:05.874Z</time>
      </trkpt>
      <trkpt lat="50.63605" lon="1.79418">
        <ele>192.15</ele>
        <time>2024-07-12T15:29:09.031Z</time>
      </trkpt>
      <trkpt lat="50.63607" lon="1.79429">
        <ele>192.51</ele>
        <time>2024-07-12T15:29:12.189Z</time>
      </trkpt>
      <trkpt lat="50.6362" lon="1.79513">
        <ele>192.52</ele>
        <time>2024-07-12T15:29:15.356Z</time>
      </trkpt>
      <trkpt lat="50.63623" lon="1.79533">
        <ele>192.85</ele>
        <time>2024-07-12T15:29:18.525Z</time>
      </trkpt>
      <trkpt lat="50.63626" lon="1.79554">
        <ele>192.88</ele>
        <time>2024-07-12T15:29:21.697Z</time>
      </trkpt>
      <trkpt lat="50.63637" lon="1.79615">
        <ele>191.48</ele>
        <time>2024-07-12T15:29:24.875Z</time>
      </trkpt>
      <trkpt lat="50.63639" lon="1.79625">
        <ele>191.21</ele>
        <time>2024-07-12T15:29:28.054Z</time>
      </trkpt>
      <trkpt lat="50.63645" lon="1.79657">
        <ele>190.76</ele>
        <time>2024-07-12T15:29:31.236Z</time>
      </trkpt>
      <trkpt lat="50.63648" lon="1.79676">
        <ele>190.56</ele>
        <time>2024-07-12T15:29:34.421Z</time>
      </trkpt>
      <trkpt lat="50.63652" lon="1.79696">
        <ele>188.04</ele>
        <time>2024-07-12T15:29:37.608Z</time>
      </trkpt>
      <trkpt lat="50.63656" lon="1.79717">
        <ele>185.91</ele>
        <time>2024-07-12T15:29:40.797Z</time>
      </trkpt>
      <trkpt lat="50.63658" lon="1.79738">
        <ele>183.32</ele>
        <time>2024-07-12T15:29:43.988Z</time>
      </trkpt>
      <trkpt lat="50.63662" lon="1.7976">
        <ele>179.62</ele>
        <time>2024-07-12T15:29:47.181Z</time>
      </trkpt>
      <trkpt lat="50.63667" lon="1.79783">
        <ele>175.41</ele>
        <time>2024-07-12T15:29:50.377Z</time>
      </trkpt>
      <trkpt lat="50.63669" lon="1.79795">
        <ele>173.59</ele>
        <time>2024-07-12T15:29:53.574Z</time>
      </trkpt>
      <trkpt lat="50.63674" lon="1.79819">
        <ele>172</ele>
        <time>2024-07-12T15:29:56.774Z</time>
      </trkpt>
      <trkpt lat="50.63687" lon="1.79884">
        <ele>172.17</ele>
        <time>2024-07-12T15:29:59.981Z</time>
      </trkpt>
      <trkpt lat="50.63694" lon="1.79924">
        <ele>173.66</ele>
        <time>2024-07-12T15:30:03.192Z</time>
      </trkpt>
      <trkpt lat="50.63696" lon="1.79943">
        <ele>174.49</ele>
        <time>2024-07-12T15:30:06.405Z</time>
      </trkpt>
      <trkpt lat="50.63697" lon="1.79946">
        <ele>174.67</ele>
        <time>2024-07-12T15:30:09.618Z</time>
      </trkpt>
      <trkpt lat="50.63698" lon="1.79957">
        <ele>175.28</ele>
        <time>2024-07-12T15:30:12.832Z</time>
      </trkpt>
      <trkpt lat="50.63698" lon="1.79968">
        <ele>176.1</ele>
        <time>2024-07-12T15:30:16.047Z</time>
      </trkpt>
      <trkpt lat="50.63698" lon="1.79971">
        <ele>176.32</ele>
        <time>2024-07-12T15:30:19.263Z</time>
      </trkpt>
      <trkpt lat="50.63698" lon="1.79988">
        <ele>177.27</ele>
        <time>2024-07-12T15:30:22.480Z</time>
      </trkpt>
      <trkpt lat="50.63699" lon="1.80001">
        <ele>177.79</ele>
        <time>2024-07-12T15:30:25.699Z</time>
      </trkpt>
      <trkpt lat="50.63699" lon="1.80016">
        <ele>178.32</ele>
        <time>2024-07-12T15:30:28.919Z</time>
      </trkpt>
      <trkpt lat="50.63698" lon="1.80021">
        <ele>178.43</ele>
        <time>2024-07-12T15:30:32.140Z</time>
      </trkpt>
      <trkpt lat="50.63698" lon="1.80031">
        <ele>178.81</ele>
        <time>2024-07-12T15:30:35.362Z</time>
      </trkpt>
      <trkpt lat="50.63698" lon="1.80045">
        <ele>179.58</ele>
        <time>2024-07-12T15:30:38.585Z</time>
      </trkpt>
      <trkpt lat="50.63698" lon="1.80046">
        <ele>179.7</ele>
        <time>2024-07-12T15:30:41.808Z</time>
      </trkpt>
      <trkpt lat="50.63698" lon="1.80049">
        <ele>179.87</ele>
        <time>2024-07-12T15:30:45.032Z</time>
      </trkpt>
      <trkpt lat="50.63697" lon="1.80063">
        <ele>180.79</ele>
        <time>2024-07-12T15:30:48.257Z</time>
      </trkpt>
      <trkpt lat="50.63697" lon="1.80065">
        <ele>180.97</ele>
        <time>2024-07-12T15:30:51.482Z</time>
      </trkpt>
      <trkpt lat="50.63697" lon="1.80084">
        <ele>182.98</ele>
        <time>2024-07-12T15:30:54.709Z</time>
      </trkpt>
      <trkpt lat="50.63695" lon="1.80103">
        <ele>184.33</ele>
        <time>2024-07-12T15:30:57.938Z</time>
      </trkpt>
      <trkpt lat="50.63695" lon="1.8012">
        <ele>185.65</ele>
        <time>2024-07-12T15:31:01.169Z</time>
      </trkpt>
      <trkpt lat="50.63695" lon="1.80122">
        <ele>185.74</ele>
        <time>2024-07-12T15:31:04.400Z</time>
      </trkpt>
      <trkpt lat="50.63694" lon="1.80136">
        <ele>186.66</ele>
        <time>2024-07-12T15:31:07.632Z</time>
      </trkpt>
      <trkpt lat="50.63694" lon="1.80142">
        <ele>187.15</ele>
        <time>2024-07-12T15:31:10.865Z</time>
      </trkpt>
      <trkpt lat="50.63693" lon="1.8015">
        <ele>187.74</ele>
        <time>2024-07-12T15:31:14.099Z</time>
      </trkpt>
      <trkpt lat="50.63693" lon="1.80162">
        <ele>188.15</ele>
        <time>2024-07-12T15:31:17.334Z</time>
      </trkpt>
      <trkpt lat="50.63693" lon="1.80169">
        <ele>188.41</ele>
        <time>2024-07-12T15:31:20.570Z</time>
      </trkpt>
      <trkpt lat="50.63693" lon="1.80184">
        <ele>189.4</ele>
        <time>2024-07-12T15:31:23.807Z</time>
      </trkpt>
      <trkpt lat="50.63692" lon="1.80188">
        <ele>189.7</ele>
        <time>2024-07-12T15:31:27.045Z</time>
      </trkpt>
      <trkpt lat="50.63691" lon="1.80208">
        <ele>190.91</ele>
        <time>2024-07-12T15:31:30.285Z</time>
      </trkpt>
      <trkpt lat="50.63691" lon="1.80226">
        <ele>191.57</ele>
        <time>2024-07-12T15:31:33.527Z</time>
      </trkpt>
      <trkpt lat="50.6369" lon="1.80229">
        <ele>191.63</ele>
        <time>2024-07-12T15:31:36.769Z</time>
      </trkpt>
      <trkpt lat="50.63689" lon="1.80248">
        <ele>192.28</ele>
        <time>2024-07-12T15:31:40.013Z</time>
      </trkpt>
      <trkpt lat="50.63689" lon="1.80251">
        <ele>192.39</ele>
        <time>2024-07-12T15:31:43.257Z</time>
      </trkpt>
      <trkpt lat="50.63689" lon="1.80265">
        <ele>192.92</ele>
        <time>2024-07-12T15:31:46.503Z</time>
      </trkpt>
      <trkpt lat="50.63689" lon="1.80271">
        <ele>193.11</ele>
        <time>2024-07-12T15:31:49.749Z</time>
      </trkpt>
      <trkpt lat="50.63689" lon="1.80281">
        <ele>193.46</ele>
        <time>2024-07-12T15:31:52.996Z</time>
      </trkpt>
      <trkpt lat="50.63689" lon="1.80282">
        <ele>193.51</ele>
        <time>2024-07-12T15:31:56.243Z</time>
      </trkpt>
      <trkpt lat="50.63688" lon="1.80295">
        <ele>194.24</ele>
        <time>2024-07-12T15:31:59.492Z</time>
      </trkpt>
      <trkpt lat="50.63687" lon="1.80309">
        <ele>195.19</ele>
        <time>2024-07-12T15:32:02.742Z</time>
      </trkpt>
      <trkpt lat="50.63686" lon="1.80321">
        <ele>195.79</ele>
        <time>2024-07-12T15:32:05.993Z</time>
      </trkpt>
      <trkpt lat="50.63685" lon="1.80341">
        <ele>196.49</ele>
        <time>2024-07-12T15:32:09.246Z</time>
      </trkpt>
      <trkpt lat="50.63685" lon="1.80353">
        <ele>196.95</ele>
        <time>2024-07-12T15:32:12.501Z</time>
      </trkpt>
      <trkpt lat="50.63684" lon="1.80386">
        <ele>198</ele>
        <time>2024-07-12T15:32:15.759Z</time>
      </trkpt>
      <trkpt lat="50.63684" lon="1.80391">
        <ele>198</ele>
        <time>2024-07-12T15:32:19.018Z</time>
      </trkpt>
      <trkpt lat="50.63683" lon="1.80423">
        <ele>197.89</ele>
        <time>2024-07-12T15:32:22.280Z</time>
      </trkpt>
      <trkpt lat="50.63681" lon="1.80471">
        <ele>197.76</ele>
        <time>2024-07-12T15:32:25.547Z</time>
      </trkpt>
      <trkpt lat="50.6368" lon="1.80503">
        <ele>196.86</ele>
        <time>2024-07-12T15:32:28.817Z</time>
      </trkpt>
      <trkpt lat="50.63679" lon="1.80527">
        <ele>195.91</ele>
        <time>2024-07-12T15:32:32.090Z</time>
      </trkpt>
      <trkpt lat="50.63678" lon="1.8054">
        <ele>195.39</ele>
        <time>2024-07-12T15:32:35.364Z</time>
      </trkpt>
      <trkpt lat="50.63677" lon="1.80581">
        <ele>193.83</ele>
        <time>2024-07-12T15:32:38.642Z</time>
      </trkpt>
      <trkpt lat="50.63676" lon="1.80611">
        <ele>192.68</ele>
        <time>2024-07-12T15:32:41.923Z</time>
      </trkpt>
      <trkpt lat="50.63674" lon="1.80642">
        <ele>191.64</ele>
        <time>2024-07-12T15:32:45.207Z</time>
      </trkpt>
      <trkpt lat="50.63673" lon="1.80671">
        <ele>191.95</ele>
        <time>2024-07-12T15:32:48.494Z</time>
      </trkpt>
      <trkpt lat="50.63672" lon="1.80698">
        <ele>192.06</ele>
        <time>2024-07-12T15:32:51.784Z</time>
      </trkpt>
      <trkpt lat="50.63669" lon="1.8078">
        <ele>193.78</ele>
        <time>2024-07-12T15:32:55.082Z</time>
      </trkpt>
      <trkpt lat="50.63667" lon="1.80819">
        <ele>194.12</ele>
        <time>2024-07-12T15:32:58.384Z</time>
      </trkpt>
      <trkpt lat="50.63666" lon="1.80835">
        <ele>194.16</ele>
        <time>2024-07-12T15:33:01.688Z</time>
      </trkpt>
      <trkpt lat="50.63665" lon="1.80858">
        <ele>194.19</ele>
        <time>2024-07-12T15:33:04.994Z</time>
      </trkpt>
      <trkpt lat="50.63664" lon="1.80884">
        <ele>194.75</ele>
        <time>2024-07-12T15:33:08.303Z</time>
      </trkpt>
      <trkpt lat="50.63663" lon="1.8089">
        <ele>194.99</ele>
        <time>2024-07-12T15:33:11.613Z</time>
      </trkpt>
      <trkpt lat="50.63662" lon="1.80934">
        <ele>195.61</ele>
        <time>2024-07-12T15:33:14.927Z</time>
      </trkpt>
      <trkpt lat="50.63661" lon="1.8094">
        <ele>195.85</ele>
        <time>2024-07-12T15:33:18.242Z</time>
      </trkpt>
      <trkpt lat="50.63659" lon="1.80995">
        <ele>196</ele>
        <time>2024-07-12T15:33:21.562Z</time>
      </trkpt>
      <trkpt lat="50.63658" lon="1.81048">
        <ele>195.52</ele>
        <time>2024-07-12T15:33:24.888Z</time>
      </trkpt>
      <trkpt lat="50.63656" lon="1.81111">
        <ele>195.25</ele>
        <time>2024-07-12T15:33:28.220Z</time>
      </trkpt>
      <trkpt lat="50.63655" lon="1.81131">
        <ele>194.45</ele>
        <time>2024-07-12T15:33:31.554Z</time>
      </trkpt>
      <trkpt lat="50.63654" lon="1.81152">
        <ele>194.4</ele>
        <time>2024-07-12T15:33:34.890Z</time>
      </trkpt>
      <trkpt lat="50.63653" lon="1.81198">
        <ele>193.28</ele>
        <time>2024-07-12T15:33:38.231Z</time>
      </trkpt>
      <trkpt lat="50.63652" lon="1.81232">
        <ele>192.57</ele>
        <time>2024-07-12T15:33:41.575Z</time>
      </trkpt>
      <trkpt lat="50.63651" lon="1.81267">
        <ele>190.27</ele>
        <time>2024-07-12T15:33:44.923Z</time>
      </trkpt>
      <trkpt lat="50.6365" lon="1.81302">
        <ele>188.94</ele>
        <time>2024-07-12T15:33:48.275Z</time>
      </trkpt>
      <trkpt lat="50.63649" lon="1.81339">
        <ele>187.57</ele>
        <time>2024-07-12T15:33:51.630Z</time>
      </trkpt>
      <trkpt lat="50.63648" lon="1.81374">
        <ele>187.02</ele>
        <time>2024-07-12T15:33:54.989Z</time>
      </trkpt>
      <trkpt lat="50.63647" lon="1.81399">
        <ele>185.19</ele>
        <time>2024-07-12T15:33:58.350Z</time>
      </trkpt>
      <trkpt lat="50.63646" lon="1.81425">
        <ele>184.14</ele>
        <time>2024-07-12T15:34:01.714Z</time>
      </trkpt>
      <trkpt lat="50.63646" lon="1.81438">
        <ele>183.65</ele>
        <time>2024-07-12T15:34:05.079Z</time>
      </trkpt>
      <trkpt lat="50.63645" lon="1.81465">
        <ele>182.75</ele>
        <time>2024-07-12T15:34:08.447Z</time>
      </trkpt>
      <trkpt lat="50.63643" lon="1.81503">
        <ele>182</ele>
        <time>2024-07-12T15:34:11.819Z</time>
      </trkpt>
      <trkpt lat="50.63643" lon="1.81515">
        <ele>182.23</ele>
        <time>2024-07-12T15:34:15.192Z</time>
      </trkpt>
      <trkpt lat="50.63641" lon="1.81554">
        <ele>183.52</ele>
        <time>2024-07-12T15:34:18.569Z</time>
      </trkpt>
      <trkpt lat="50.63641" lon="1.81562">
        <ele>183.79</ele>
        <time>2024-07-12T15:34:21.947Z</time>
      </trkpt>
      <trkpt lat="50.6364" lon="1.81575">
        <ele>184.27</ele>
        <time>2024-07-12T15:34:25.326Z</time>
      </trkpt>
      <trkpt lat="50.6364" lon="1.81585">
        <ele>184.63</ele>
        <time>2024-07-12T15:34:28.706Z</time>
      </trkpt>
      <trkpt lat="50.63639" lon="1.81594">
        <ele>185.01</ele>
        <time>2024-07-12T15:34:32.087Z</time>
      </trkpt>
      <trkpt lat="50.63639" lon="1.81609">
        <ele>186.11</ele>
        <time>2024-07-12T15:34:35.470Z</time>
      </trkpt>
      <trkpt lat="50.63639" lon="1.81617">
        <ele>186.6</ele>
        <time>2024-07-12T15:34:38.854Z</time>
      </trkpt>
      <trkpt lat="50.63638" lon="1.81629">
        <ele>187</ele>
        <time>2024-07-12T15:34:42.239Z</time>
      </trkpt>
      <trkpt lat="50.63637" lon="1.81654">
        <ele>188.02</ele>
        <time>2024-07-12T15:34:45.626Z</time>
      </trkpt>
      <trkpt lat="50.63638" lon="1.81662">
        <ele>188.34</ele>
        <time>2024-07-12T15:34:49.014Z</time>
      </trkpt>
      <trkpt lat="50.63637" lon="1.81679">
        <ele>188.91</ele>
        <time>2024-07-12T15:34:52.404Z</time>
      </trkpt>
      <trkpt lat="50.63635" lon="1.81696">
        <ele>189.46</ele>
        <time>2024-07-12T15:34:55.796Z</time>
      </trkpt>
      <trkpt lat="50.63635" lon="1.81724">
        <ele>190.17</ele>
        <time>2024-07-12T15:34:59.191Z</time>
      </trkpt>
      <trkpt lat="50.63634" lon="1.81744">
        <ele>190.41</ele>
        <time>2024-07-12T15:35:02.588Z</time>
      </trkpt>
      <trkpt lat="50.63633" lon="1.81794">
        <ele>190.91</ele>
        <time>2024-07-12T15:35:05.990Z</time>
      </trkpt>
      <trkpt lat="50.63631" lon="1.81849">
        <ele>191.16</ele>
        <time>2024-07-12T15:35:09.397Z</time>
      </trkpt>
      <trkpt lat="50.63629" lon="1.81907">
        <ele>191</ele>
        <time>2024-07-12T15:35:12.810Z</time>
      </trkpt>
      <trkpt lat="50.63629" lon="1.81916">
        <ele>190.82</ele>
        <time>2024-07-12T15:35:16.224Z</time>
      </trkpt>
      <trkpt lat="50.63629" lon="1.81962">
        <ele>188.16</ele>
        <time>2024-07-12T15:35:19.643Z</time>
      </trkpt>
      <trkpt lat="50.63629" lon="1.81999">
        <ele>186.87</ele>
        <time>2024-07-12T15:35:23.066Z</time>
      </trkpt>
      <trkpt lat="50.6363" lon="1.82029">
        <ele>186</ele>
        <time>2024-07-12T15:35:26.492Z</time>
      </trkpt>
      <trkpt lat="50.63631" lon="1.82052">
        <ele>186</ele>
        <time>2024-07-12T15:35:29.920Z</time>
      </trkpt>
      <trkpt lat="50.63632" lon="1.82075">
        <ele>185.61</ele>
        <time>2024-07-12T15:35:33.350Z</time>
      </trkpt>
      <trkpt lat="50.63634" lon="1.82124">
        <ele>184</ele>
        <time>2024-07-12T15:35:36.785Z</time>
      </trkpt>
      <trkpt lat="50.63636" lon="1.8216">
        <ele>182.66</ele>
        <time>2024-07-12T15:35:40.224Z</time>
      </trkpt>
      <trkpt lat="50.63638" lon="1.82206">
        <ele>181.84</ele>
        <time>2024-07-12T15:35:43.668Z</time>
      </trkpt>
      <trkpt lat="50.63641" lon="1.8226">
        <ele>181.85</ele>
        <time>2024-07-12T15:35:47.117Z</time>
      </trkpt>
      <trkpt lat="50.63644" lon="1.82311">
        <ele>180.23</ele>
        <time>2024-07-12T15:35:50.572Z</time>
      </trkpt>
      <trkpt lat="50.63646" lon="1.82362">
        <ele>178.56</ele>
        <time>2024-07-12T15:35:54.032Z</time>
      </trkpt>
      <trkpt lat="50.63647" lon="1.82383">
        <ele>177.39</ele>
        <time>2024-07-12T15:35:57.494Z</time>
      </trkpt>
      <trkpt lat="50.63649" lon="1.82418">
        <ele>175.01</ele>
        <time>2024-07-12T15:36:00.959Z</time>
      </trkpt>
      <trkpt lat="50.63651" lon="1.82443">
        <ele>173.33</ele>
        <time>2024-07-12T15:36:04.427Z</time>
      </trkpt>
      <trkpt lat="50.63651" lon="1.82456">
        <ele>172.54</ele>
        <time>2024-07-12T15:36:07.896Z</time>
      </trkpt>
      <trkpt lat="50.63652" lon="1.82469">
        <ele>172.12</ele>
        <time>2024-07-12T15:36:11.367Z</time>
      </trkpt>
      <trkpt lat="50.63653" lon="1.82482">
        <ele>171.68</ele>
        <time>2024-07-12T15:36:14.839Z</time>
      </trkpt>
      <trkpt lat="50.63653" lon="1.82496">
        <ele>171.22</ele>
        <time>2024-07-12T15:36:18.312Z</time>
      </trkpt>
      <trkpt lat="50.63654" lon="1.82522">
        <ele>170.78</ele>
        <time>2024-07-12T15:36:21.788Z</time>
      </trkpt>
      <trkpt lat="50.63653" lon="1.82534">
        <ele>170.72</ele>
        <time>2024-07-12T15:36:25.265Z</time>
      </trkpt>
      <trkpt lat="50.63651" lon="1.82545">
        <ele>170.91</ele>
        <time>2024-07-12T15:36:28.743Z</time>
      </trkpt>
      <trkpt lat="50.63647" lon="1.82564">
        <ele>171.26</ele>
        <time>2024-07-12T15:36:32.224Z</time>
      </trkpt>
      <trkpt lat="50.63644" lon="1.82572">
        <ele>171.63</ele>
        <time>2024-07-12T15:36:35.705Z</time>
      </trkpt>
      <trkpt lat="50.63631" lon="1.82607">
        <ele>174.11</ele>
        <time>2024-07-12T15:36:39.191Z</time>
      </trkpt>
      <trkpt lat="50.63628" lon="1.82612">
        <ele>174.39</ele>
        <time>2024-07-12T15:36:42.677Z</time>
      </trkpt>
      <trkpt lat="50.63622" lon="1.82628">
        <ele>175.03</ele>
        <time>2024-07-12T15:36:46.165Z</time>
      </trkpt>
      <trkpt lat="50.63615" lon="1.82648">
        <ele>176</ele>
        <time>2024-07-12T15:36:49.655Z</time>
      </trkpt>
      <trkpt lat="50.63613" lon="1.82653">
        <ele>176.21</ele>
        <time>2024-07-12T15:36:53.146Z</time>
      </trkpt>
      <trkpt lat="50.63606" lon="1.82678">
        <ele>177.02</ele>
        <time>2024-07-12T15:36:56.640Z</time>
      </trkpt>
      <trkpt lat="50.63602" lon="1.82689">
        <ele>176.61</ele>
        <time>2024-07-12T15:37:00.135Z</time>
      </trkpt>
      <trkpt lat="50.63589" lon="1.82725">
        <ele>176.87</ele>
        <time>2024-07-12T15:37:03.634Z</time>
      </trkpt>
      <trkpt lat="50.63573" lon="1.8277">
        <ele>176.52</ele>
        <time>2024-07-12T15:37:07.139Z</time>
      </trkpt>
      <trkpt lat="50.63554" lon="1.82831">
        <ele>176.58</ele>
        <time>2024-07-12T15:37:10.651Z</time>
      </trkpt>
      <trkpt lat="50.6353" lon="1.829">
        <ele>173.92</ele>
        <time>2024-07-12T15:37:14.171Z</time>
      </trkpt>
      <trkpt lat="50.6352" lon="1.8293">
        <ele>173.57</ele>
        <time>2024-07-12T15:37:17.694Z</time>
      </trkpt>
      <trkpt lat="50.63506" lon="1.82971">
        <ele>172.06</ele>
        <time>2024-07-12T15:37:21.222Z</time>
      </trkpt>
      <trkpt lat="50.63498" lon="1.82992">
        <ele>171.41</ele>
        <time>2024-07-12T15:37:24.752Z</time>
      </trkpt>
      <trkpt lat="50.6349" lon="1.83014">
        <ele>170.5</ele>
        <time>2024-07-12T15:37:28.285Z</time>
      </trkpt>
      <trkpt lat="50.63476" lon="1.83053">
        <ele>169.57</ele>
        <time>2024-07-12T15:37:31.822Z</time>
      </trkpt>
      <trkpt lat="50.63467" lon="1.83081">
        <ele>168.75</ele>
        <time>2024-07-12T15:37:35.363Z</time>
      </trkpt>
      <trkpt lat="50.63457" lon="1.83108">
        <ele>168.3</ele>
        <time>2024-07-12T15:37:38.907Z</time>
      </trkpt>
      <trkpt lat="50.63444" lon="1.83146">
        <ele>168.67</ele>
        <time>2024-07-12T15:37:42.455Z</time>
      </trkpt>
      <trkpt lat="50.63431" lon="1.83184">
        <ele>169.93</ele>
        <time>2024-07-12T15:37:46.008Z</time>
      </trkpt>
      <trkpt lat="50.63424" lon="1.83203">
        <ele>171.1</ele>
        <time>2024-07-12T15:37:49.563Z</time>
      </trkpt>
      <trkpt lat="50.6342" lon="1.83214">
        <ele>171.7</ele>
        <time>2024-07-12T15:37:53.119Z</time>
      </trkpt>
      <trkpt lat="50.63417" lon="1.83223">
        <ele>172.38</ele>
        <time>2024-07-12T15:37:56.676Z</time>
      </trkpt>
      <trkpt lat="50.63411" lon="1.83243">
        <ele>173.06</ele>
        <time>2024-07-12T15:38:00.235Z</time>
      </trkpt>
      <trkpt lat="50.63409" lon="1.83247">
        <ele>173.15</ele>
        <time>2024-07-12T15:38:03.795Z</time>
      </trkpt>
      <trkpt lat="50.63399" lon="1.83274">
        <ele>173.75</ele>
        <time>2024-07-12T15:38:07.358Z</time>
      </trkpt>
      <trkpt lat="50.63386" lon="1.8331">
        <ele>173.82</ele>
        <time>2024-07-12T15:38:10.925Z</time>
      </trkpt>
      <trkpt lat="50.6337" lon="1.83355">
        <ele>174.17</ele>
        <time>2024-07-12T15:38:14.498Z</time>
      </trkpt>
      <trkpt lat="50.63351" lon="1.83408">
        <ele>173.65</ele>
        <time>2024-07-12T15:38:18.077Z</time>
      </trkpt>
      <trkpt lat="50.63335" lon="1.83456">
        <ele>172.01</ele>
        <time>2024-07-12T15:38:21.661Z</time>
      </trkpt>
      <trkpt lat="50.63331" lon="1.83466">
        <ele>171.77</ele>
        <time>2024-07-12T15:38:25.246Z</time>
      </trkpt>
      <trkpt lat="50.63319" lon="1.83498">
        <ele>170.42</ele>
        <time>2024-07-12T15:38:28.835Z</time>
      </trkpt>
      <trkpt lat="50.63308" lon="1.83529">
        <ele>169.33</ele>
        <time>2024-07-12T15:38:32.428Z</time>
      </trkpt>
      <trkpt lat="50.63298" lon="1.8356">
        <ele>168.59</ele>
        <time>2024-07-12T15:38:36.024Z</time>
      </trkpt>
      <trkpt lat="50.63288" lon="1.83591">
        <ele>167.83</ele>
        <time>2024-07-12T15:38:39.624Z</time>
      </trkpt>
      <trkpt lat="50.63275" lon="1.83632">
        <ele>166.57</ele>
        <time>2024-07-12T15:38:43.229Z</time>
      </trkpt>
      <trkpt lat="50.63267" lon="1.83663">
        <ele>164.99</ele>
        <time>2024-07-12T15:38:46.837Z</time>
      </trkpt>
      <trkpt lat="50.63259" lon="1.83695">
        <ele>164.12</ele>
        <time>2024-07-12T15:38:50.449Z</time>
      </trkpt>
      <trkpt lat="50.63251" lon="1.83726">
        <ele>162.31</ele>
        <time>2024-07-12T15:38:54.064Z</time>
      </trkpt>
      <trkpt lat="50.63243" lon="1.83758">
        <ele>161.03</ele>
        <time>2024-07-12T15:38:57.682Z</time>
      </trkpt>
      <trkpt lat="50.63241" lon="1.83769">
        <ele>160.27</ele>
        <time>2024-07-12T15:39:01.302Z</time>
      </trkpt>
      <trkpt lat="50.63238" lon="1.83781">
        <ele>159.47</ele>
        <time>2024-07-12T15:39:04.923Z</time>
      </trkpt>
      <trkpt lat="50.63232" lon="1.83803">
        <ele>157.89</ele>
        <time>2024-07-12T15:39:08.546Z</time>
      </trkpt>
      <trkpt lat="50.63227" lon="1.83824">
        <ele>156.34</ele>
        <time>2024-07-12T15:39:12.172Z</time>
      </trkpt>
      <trkpt lat="50.63221" lon="1.83847">
        <ele>154.26</ele>
        <time>2024-07-12T15:39:15.800Z</time>
      </trkpt>
      <trkpt lat="50.63218" lon="1.83858">
        <ele>152.79</ele>
        <time>2024-07-12T15:39:19.429Z</time>
      </trkpt>
      <trkpt lat="50.63213" lon="1.83882">
        <ele>150.73</ele>
        <time>2024-07-12T15:39:23.061Z</time>
      </trkpt>
      <trkpt lat="50.6321" lon="1.83893">
        <ele>149.79</ele>
        <time>2024-07-12T15:39:26.694Z</time>
      </trkpt>
      <trkpt lat="50.63204" lon="1.83916">
        <ele>147.91</ele>
        <time>2024-07-12T15:39:30.330Z</time>
      </trkpt>
      <trkpt lat="50.63198" lon="1.83939">
        <ele>145.63</ele>
        <time>2024-07-12T15:39:33.968Z</time>
      </trkpt>
      <trkpt lat="50.63193" lon="1.83962">
        <ele>143.25</ele>
        <time>2024-07-12T15:39:37.609Z</time>
      </trkpt>
      <trkpt lat="50.63187" lon="1.83985">
        <ele>140.95</ele>
        <time>2024-07-12T15:39:41.252Z</time>
      </trkpt>
      <trkpt lat="50.63184" lon="1.83997">
        <ele>139.86</ele>
        <time>2024-07-12T15:39:44.897Z</time>
      </trkpt>
      <trkpt lat="50.63181" lon="1.84009">
        <ele>138.76</ele>
        <time>2024-07-12T15:39:48.543Z</time>
      </trkpt>
      <trkpt lat="50.63174" lon="1.84033">
        <ele>137.29</ele>
        <time>2024-07-12T15:39:52.192Z</time>
      </trkpt>
      <trkpt lat="50.63171" lon="1.84044">
        <ele>136.53</ele>
        <time>2024-07-12T15:39:55.842Z</time>
      </trkpt>
      <trkpt lat="50.63168" lon="1.84055">
        <ele>135.65</ele>
        <time>2024-07-12T15:39:59.493Z</time>
      </trkpt>
      <trkpt lat="50.63166" lon="1.84066">
        <ele>134.8</ele>
        <time>2024-07-12T15:40:03.145Z</time>
      </trkpt>
      <trkpt lat="50.6316" lon="1.84086">
        <ele>133.71</ele>
        <time>2024-07-12T15:40:06.799Z</time>
      </trkpt>
      <trkpt lat="50.63158" lon="1.84096">
        <ele>132.82</ele>
        <time>2024-07-12T15:40:10.455Z</time>
      </trkpt>
      <trkpt lat="50.63155" lon="1.84106">
        <ele>131.96</ele>
        <time>2024-07-12T15:40:14.112Z</time>
      </trkpt>
      <trkpt lat="50.63153" lon="1.84115">
        <ele>131.13</ele>
        <time>2024-07-12T15:40:17.770Z</time>
      </trkpt>
      <trkpt lat="50.63151" lon="1.84124">
        <ele>130.38</ele>
        <time>2024-07-12T15:40:21.429Z</time>
      </trkpt>
      <trkpt lat="50.63147" lon="1.8414">
        <ele>128.87</ele>
        <time>2024-07-12T15:40:25.089Z</time>
      </trkpt>
      <trkpt lat="50.63142" lon="1.84157">
        <ele>127.37</ele>
        <time>2024-07-12T15:40:28.751Z</time>
      </trkpt>
      <trkpt lat="50.63139" lon="1.84172">
        <ele>126.03</ele>
        <time>2024-07-12T15:40:32.415Z</time>
      </trkpt>
      <trkpt lat="50.63135" lon="1.84183">
        <ele>125.2</ele>
        <time>2024-07-12T15:40:36.080Z</time>
      </trkpt>
      <trkpt lat="50.63133" lon="1.84194">
        <ele>124.65</ele>
        <time>2024-07-12T15:40:39.746Z</time>
      </trkpt>
      <trkpt lat="50.63131" lon="1.84198">
        <ele>124.59</ele>
        <time>2024-07-12T15:40:43.413Z</time>
      </trkpt>
      <trkpt lat="50.63129" lon="1.84205">
        <ele>124.47</ele>
        <time>2024-07-12T15:40:47.081Z</time>
      </trkpt>
      <trkpt lat="50.63129" lon="1.84208">
        <ele>124.37</ele>
        <time>2024-07-12T15:40:50.749Z</time>
      </trkpt>
      <trkpt lat="50.63129" lon="1.84208">
        <ele>124.34</ele>
        <time>2024-07-12T15:40:54.417Z</time>
      </trkpt>
      <trkpt lat="50.63129" lon="1.84208">
        <ele>124.35</ele>
        <time>2024-07-12T15:40:58.085Z</time>
      </trkpt>
      <trkpt lat="50.63129" lon="1.84208">
        <ele>124.35</ele>
        <time>2024-07-12T15:41:01.753Z</time>
      </trkpt>
      <trkpt lat="50.63128" lon="1.84213">
        <ele>124.13</ele>
        <time>2024-07-12T15:41:05.421Z</time>
      </trkpt>
      <trkpt lat="50.63125" lon="1.8423">
        <ele>123.41</ele>
        <time>2024-07-12T15:41:09.091Z</time>
      </trkpt>
      <trkpt lat="50.63123" lon="1.84236">
        <ele>123.12</ele>
        <time>2024-07-12T15:41:12.762Z</time>
      </trkpt>
      <trkpt lat="50.63118" lon="1.84252">
        <ele>122.37</ele>
        <time>2024-07-12T15:41:16.435Z</time>
      </trkpt>
      <trkpt lat="50.63113" lon="1.84273">
        <ele>121.48</ele>
        <time>2024-07-12T15:41:20.110Z</time>
      </trkpt>
      <trkpt lat="50.63111" lon="1.84284">
        <ele>121</ele>
        <time>2024-07-12T15:41:23.786Z</time>
      </trkpt>
      <trkpt lat="50.63106" lon="1.84306">
        <ele>120</ele>
        <time>2024-07-12T15:41:27.465Z</time>
      </trkpt>
      <trkpt lat="50.63101" lon="1.84328">
        <ele>118.54</ele>
        <time>2024-07-12T15:41:31.146Z</time>
      </trkpt>
      <trkpt lat="50.63097" lon="1.8434">
        <ele>117.11</ele>
        <time>2024-07-12T15:41:34.828Z</time>
      </trkpt>
      <trkpt lat="50.63094" lon="1.84351">
        <ele>115.97</ele>
        <time>2024-07-12T15:41:38.511Z</time>
      </trkpt>
      <trkpt lat="50.63089" lon="1.84373">
        <ele>114.97</ele>
        <time>2024-07-12T15:41:42.197Z</time>
      </trkpt>
      <trkpt lat="50.63084" lon="1.84395">
        <ele>114.01</ele>
        <time>2024-07-12T15:41:45.885Z</time>
      </trkpt>
      <trkpt lat="50.63079" lon="1.84414">
        <ele>113.7</ele>
        <time>2024-07-12T15:41:49.575Z</time>
      </trkpt>
      <trkpt lat="50.63074" lon="1.84434">
        <ele>113.79</ele>
        <time>2024-07-12T15:41:53.268Z</time>
      </trkpt>
      <trkpt lat="50.63067" lon="1.84457">
        <ele>115.28</ele>
        <time>2024-07-12T15:41:56.963Z</time>
      </trkpt>
      <trkpt lat="50.6306" lon="1.84472">
        <ele>116.33</ele>
        <time>2024-07-12T15:42:00.660Z</time>
      </trkpt>
      <trkpt lat="50.63055" lon="1.84476">
        <ele>116.74</ele>
        <time>2024-07-12T15:42:04.358Z</time>
      </trkpt>
      <trkpt lat="50.63053" lon="1.84479">
        <ele>117.16</ele>
        <time>2024-07-12T15:42:08.056Z</time>
      </trkpt>
      <trkpt lat="50.63046" lon="1.8448">
        <ele>117.73</ele>
        <time>2024-07-12T15:42:11.756Z</time>
      </trkpt>
      <trkpt lat="50.63039" lon="1.84482">
        <ele>118.42</ele>
        <time>2024-07-12T15:42:15.457Z</time>
      </trkpt>
      <trkpt lat="50.63036" lon="1.84482">
        <ele>118.69</ele>
        <time>2024-07-12T15:42:19.158Z</time>
      </trkpt>
      <trkpt lat="50.63025" lon="1.84484">
        <ele>119.6</ele>
        <time>2024-07-12T15:42:22.861Z</time>
      </trkpt>
      <trkpt lat="50.63014" lon="1.84487">
        <ele>120.32</ele>
        <time>2024-07-12T15:42:26.566Z</time>
      </trkpt>
      <trkpt lat="50.63009" lon="1.84489">
        <ele>120.84</ele>
        <time>2024-07-12T15:42:30.271Z</time>
      </trkpt>
      <trkpt lat="50.63005" lon="1.84493">
        <ele>121.58</ele>
        <time>2024-07-12T15:42:33.977Z</time>
      </trkpt>
      <trkpt lat="50.62999" lon="1.84501">
        <ele>122.93</ele>
        <time>2024-07-12T15:42:37.685Z</time>
      </trkpt>
      <trkpt lat="50.62997" lon="1.84505">
        <ele>123.51</ele>
        <time>2024-07-12T15:42:41.393Z</time>
      </trkpt>
      <trkpt lat="50.62994" lon="1.84512">
        <ele>124.31</ele>
        <time>2024-07-12T15:42:45.102Z</time>
      </trkpt>
      <trkpt lat="50.62994" lon="1.84513">
        <ele>124.5</ele>
        <time>2024-07-12T15:42:48.811Z</time>
      </trkpt>
      <trkpt lat="50.62991" lon="1.84521">
        <ele>125.61</ele>
        <time>2024-07-12T15:42:52.521Z</time>
      </trkpt>
      <trkpt lat="50.62989" lon="1.84527">
        <ele>126.17</ele>
        <time>2024-07-12T15:42:56.232Z</time>
      </trkpt>
      <trkpt lat="50.62987" lon="1.84537">
        <ele>126.75</ele>
        <time>2024-07-12T15:42:59.944Z</time>
      </trkpt>
      <trkpt lat="50.62986" lon="1.8454">
        <ele>126.92</ele>
        <time>2024-07-12T15:43:03.656Z</time>
      </trkpt>
      <trkpt lat="50.62986" lon="1.8454">
        <ele>126.95</ele>
        <time>2024-07-12T15:43:07.368Z</time>
      </trkpt>
      <trkpt lat="50.62984" lon="1.84552">
        <ele>127.58</ele>
        <time>2024-07-12T15:43:11.081Z</time>
      </trkpt>
      <trkpt lat="50.62981" lon="1.84569">
        <ele>128.49</ele>
        <time>2024-07-12T15:43:14.796Z</time>
      </trkpt>
      <trkpt lat="50.62981" lon="1.84571">
        <ele>128.56</ele>
        <time>2024-07-12T15:43:18.511Z</time>
      </trkpt>
      <trkpt lat="50.62977" lon="1.84592">
        <ele>129.07</ele>
        <time>2024-07-12T15:43:22.229Z</time>
      </trkpt>
      <trkpt lat="50.62976" lon="1.846">
        <ele>129.24</ele>
        <time>2024-07-12T15:43:25.947Z</time>
      </trkpt>
      <trkpt lat="50.62972" lon="1.84624">
        <ele>129.99</ele>
        <time>2024-07-12T15:43:29.668Z</time>
      </trkpt>
      <trkpt lat="50.62972" lon="1.84627">
        <ele>130.09</ele>
        <time>2024-07-12T15:43:33.389Z</time>
      </trkpt>
      <trkpt lat="50.62969" lon="1.84652">
        <ele>130.85</ele>
        <time>2024-07-12T15:43:37.113Z</time>
      </trkpt>
      <trkpt lat="50.62968" lon="1.84656">
        <ele>131</ele>
        <time>2024-07-12T15:43:40.837Z</time>
      </trkpt>
      <trkpt lat="50.62967" lon="1.8467">
        <ele>131.53</ele>
        <time>2024-07-12T15:43:44.563Z</time>
      </trkpt>
      <trkpt lat="50.62965" lon="1.84678">
        <ele>132.05</ele>
        <time>2024-07-12T15:43:48.289Z</time>
      </trkpt>
      <trkpt lat="50.62964" lon="1.84683">
        <ele>132.24</ele>
        <time>2024-07-12T15:43:52.016Z</time>
      </trkpt>
      <trkpt lat="50.62963" lon="1.8469">
        <ele>132.48</ele>
        <time>2024-07-12T15:43:55.744Z</time>
      </trkpt>
      <trkpt lat="50.62962" lon="1.84691">
        <ele>132.53</ele>
        <time>2024-07-12T15:43:59.472Z</time>
      </trkpt>
      <trkpt lat="50.6296" lon="1.84705">
        <ele>133.05</ele>
        <time>2024-07-12T15:44:03.201Z</time>
      </trkpt>
      <trkpt lat="50.6296" lon="1.84708">
        <ele>133.28</ele>
        <time>2024-07-12T15:44:06.931Z</time>
      </trkpt>
      <trkpt lat="50.62958" lon="1.84722">
        <ele>134.26</ele>
        <time>2024-07-12T15:44:10.662Z</time>
      </trkpt>
      <trkpt lat="50.62956" lon="1.84731">
        <ele>134.91</ele>
        <time>2024-07-12T15:44:14.394Z</time>
      </trkpt>
      <trkpt lat="50.62955" lon="1.84739">
        <ele>135.72</ele>
        <time>2024-07-12T15:44:18.127Z</time>
      </trkpt>
      <trkpt lat="50.62953" lon="1.84751">
        <ele>137.01</ele>
        <time>2024-07-12T15:44:21.861Z</time>
      </trkpt>
      <trkpt lat="50.62953" lon="1.84752">
        <ele>137.15</ele>
        <time>2024-07-12T15:44:25.595Z</time>
      </trkpt>
      <trkpt lat="50.6295" lon="1.84766">
        <ele>138.52</ele>
        <time>2024-07-12T15:44:29.331Z</time>
      </trkpt>
      <trkpt lat="50.62949" lon="1.84768">
        <ele>138.64</ele>
        <time>2024-07-12T15:44:33.067Z</time>
      </trkpt>
      <trkpt lat="50.62948" lon="1.84781">
        <ele>139.51</ele>
        <time>2024-07-12T15:44:36.804Z</time>
      </trkpt>
      <trkpt lat="50.62947" lon="1.84787">
        <ele>139.9</ele>
        <time>2024-07-12T15:44:40.542Z</time>
      </trkpt>
      <trkpt lat="50.62945" lon="1.84796">
        <ele>140.52</ele>
        <time>2024-07-12T15:44:44.281Z</time>
      </trkpt>
      <trkpt lat="50.62944" lon="1.84807">
        <ele>141.23</ele>
        <time>2024-07-12T15:44:48.021Z</time>
      </trkpt>
      <trkpt lat="50.62943" lon="1.8481">
        <ele>141.45</ele>
        <time>2024-07-12T15:44:51.761Z</time>
      </trkpt>
      <trkpt lat="50.62943" lon="1.84812">
        <ele>141.54</ele>
        <time>2024-07-12T15:44:55.502Z</time>
      </trkpt>
      <trkpt lat="50.6294" lon="1.84828">
        <ele>142.63</ele>
        <time>2024-07-12T15:44:59.244Z</time>
      </trkpt>
      <trkpt lat="50.62938" lon="1.84837">
        <ele>142.9</ele>
        <time>2024-07-12T15:45:02.987Z</time>
      </trkpt>
      <trkpt lat="50.62936" lon="1.84851">
        <ele>142.98</ele>
        <time>2024-07-12T15:45:06.732Z</time>
      </trkpt>
      <trkpt lat="50.62932" lon="1.84875">
        <ele>143.55</ele>
        <time>2024-07-12T15:45:10.479Z</time>
      </trkpt>
      <trkpt lat="50.62931" lon="1.84879">
        <ele>143.73</ele>
        <time>2024-07-12T15:45:14.227Z</time>
      </trkpt>
      <trkpt lat="50.62927" lon="1.84908">
        <ele>144.18</ele>
        <time>2024-07-12T15:45:17.978Z</time>
      </trkpt>
      <trkpt lat="50.62925" lon="1.84924">
        <ele>143.77</ele>
        <time>2024-07-12T15:45:21.730Z</time>
      </trkpt>
      <trkpt lat="50.62921" lon="1.84946">
        <ele>143.78</ele>
        <time>2024-07-12T15:45:25.485Z</time>
      </trkpt>
      <trkpt lat="50.62917" lon="1.84972">
        <ele>143.4</ele>
        <time>2024-07-12T15:45:29.242Z</time>
      </trkpt>
      <trkpt lat="50.62913" lon="1.84999">
        <ele>144.52</ele>
        <time>2024-07-12T15:45:33.002Z</time>
      </trkpt>
      <trkpt lat="50.62908" lon="1.85026">
        <ele>145.89</ele>
        <time>2024-07-12T15:45:36.765Z</time>
      </trkpt>
      <trkpt lat="50.62905" lon="1.85035">
        <ele>147.13</ele>
        <time>2024-07-12T15:45:40.529Z</time>
      </trkpt>
      <trkpt lat="50.62899" lon="1.85047">
        <ele>148.28</ele>
        <time>2024-07-12T15:45:44.295Z</time>
      </trkpt>
      <trkpt lat="50.62896" lon="1.85052">
        <ele>148.64</ele>
        <time>2024-07-12T15:45:48.061Z</time>
      </trkpt>
      <trkpt lat="50.6289" lon="1.85057">
        <ele>149.13</ele>
        <time>2024-07-12T15:45:51.829Z</time>
      </trkpt>
      <trkpt lat="50.62882" lon="1.85066">
        <ele>150.09</ele>
        <time>2024-07-12T15:45:55.598Z</time>
      </trkpt>
      <trkpt lat="50.62881" lon="1.85067">
        <ele>150.2</ele>
        <time>2024-07-12T15:45:59.367Z</time>
      </trkpt>
      <trkpt lat="50.62872" lon="1.85077">
        <ele>151.23</ele>
        <time>2024-07-12T15:46:03.138Z</time>
      </trkpt>
      <trkpt lat="50.62871" lon="1.85078">
        <ele>151.4</ele>
        <time>2024-07-12T15:46:06.909Z</time>
      </trkpt>
      <trkpt lat="50.62865" lon="1.85084">
        <ele>152.01</ele>
        <time>2024-07-12T15:46:10.681Z</time>
      </trkpt>
      <trkpt lat="50.62859" lon="1.8509">
        <ele>152.98</ele>
        <time>2024-07-12T15:46:14.455Z</time>
      </trkpt>
      <trkpt lat="50.62858" lon="1.85091">
        <ele>153.15</ele>
        <time>2024-07-12T15:46:18.229Z</time>
      </trkpt>
      <trkpt lat="50.62851" lon="1.85098">
        <ele>154.48</ele>
        <time>2024-07-12T15:46:22.004Z</time>
      </trkpt>
      <trkpt lat="50.62848" lon="1.851">
        <ele>154.97</ele>
        <time>2024-07-12T15:46:25.780Z</time>
      </trkpt>
      <trkpt lat="50.62843" lon="1.85106">
        <ele>155.93</ele>
        <time>2024-07-12T15:46:29.557Z</time>
      </trkpt>
      <trkpt lat="50.62839" lon="1.8511">
        <ele>156.71</ele>
        <time>2024-07-12T15:46:33.334Z</time>
      </trkpt>
      <trkpt lat="50.62836" lon="1.85113">
        <ele>157.18</ele>
        <time>2024-07-12T15:46:37.112Z</time>
      </trkpt>
      <trkpt lat="50.62829" lon="1.8512">
        <ele>158.2</ele>
        <time>2024-07-12T15:46:40.891Z</time>
      </trkpt>
      <trkpt lat="50.62828" lon="1.85121">
        <ele>158.34</ele>
        <time>2024-07-12T15:46:44.670Z</time>
      </trkpt>
      <trkpt lat="50.6282" lon="1.85128">
        <ele>159.14</ele>
        <time>2024-07-12T15:46:48.451Z</time>
      </trkpt>
      <trkpt lat="50.62818" lon="1.8513">
        <ele>159.36</ele>
        <time>2024-07-12T15:46:52.232Z</time>
      </trkpt>
      <trkpt lat="50.62812" lon="1.85136">
        <ele>160.4</ele>
        <time>2024-07-12T15:46:56.014Z</time>
      </trkpt>
      <trkpt lat="50.6281" lon="1.85138">
        <ele>160.81</ele>
        <time>2024-07-12T15:46:59.797Z</time>
      </trkpt>
      <trkpt lat="50.62803" lon="1.85146">
        <ele>161.89</ele>
        <time>2024-07-12T15:47:03.581Z</time>
      </trkpt>
      <trkpt lat="50.62799" lon="1.85151">
        <ele>162.07</ele>
        <time>2024-07-12T15:47:07.366Z</time>
      </trkpt>
      <trkpt lat="50.62795" lon="1.85154">
        <ele>162.19</ele>
        <time>2024-07-12T15:47:11.152Z</time>
      </trkpt>
      <trkpt lat="50.62791" lon="1.85159">
        <ele>162.38</ele>
        <time>2024-07-12T15:47:14.939Z</time>
      </trkpt>
      <trkpt lat="50.62789" lon="1.8516">
        <ele>162.55</ele>
        <time>2024-07-12T15:47:18.726Z</time>
      </trkpt>
      <trkpt lat="50.62787" lon="1.85162">
        <ele>162.74</ele>
        <time>2024-07-12T15:47:22.513Z</time>
      </trkpt>
      <trkpt lat="50.62778" lon="1.85171">
        <ele>163.68</ele>
        <time>2024-07-12T15:47:26.302Z</time>
      </trkpt>
      <trkpt lat="50.62776" lon="1.85174">
        <ele>164.03</ele>
        <time>2024-07-12T15:47:30.091Z</time>
      </trkpt>
      <trkpt lat="50.62766" lon="1.85186">
        <ele>164.88</ele>
        <time>2024-07-12T15:47:33.882Z</time>
      </trkpt>
      <trkpt lat="50.62758" lon="1.85197">
        <ele>165.6</ele>
        <time>2024-07-12T15:47:37.675Z</time>
      </trkpt>
      <trkpt lat="50.62747" lon="1.85215">
        <ele>166.24</ele>
        <time>2024-07-12T15:47:41.471Z</time>
      </trkpt>
      <trkpt lat="50.62737" lon="1.85234">
        <ele>167.37</ele>
        <time>2024-07-12T15:47:45.269Z</time>
      </trkpt>
      <trkpt lat="50.62736" lon="1.85237">
        <ele>167.65</ele>
        <time>2024-07-12T15:47:49.068Z</time>
      </trkpt>
      <trkpt lat="50.62725" lon="1.85257">
        <ele>168.99</ele>
        <time>2024-07-12T15:47:52.869Z</time>
      </trkpt>
      <trkpt lat="50.62723" lon="1.8526">
        <ele>169.09</ele>
        <time>2024-07-12T15:47:56.671Z</time>
      </trkpt>
      <trkpt lat="50.62711" lon="1.85282">
        <ele>170.33</ele>
        <time>2024-07-12T15:48:00.476Z</time>
      </trkpt>
      <trkpt lat="50.62709" lon="1.85285">
        <ele>170.49</ele>
        <time>2024-07-12T15:48:04.281Z</time>
      </trkpt>
      <trkpt lat="50.62694" lon="1.85313">
        <ele>170.84</ele>
        <time>2024-07-12T15:48:08.090Z</time>
      </trkpt>
      <trkpt lat="50.62675" lon="1.85344">
        <ele>170.17</ele>
        <time>2024-07-12T15:48:11.903Z</time>
      </trkpt>
      <trkpt lat="50.6265" lon="1.85392">
        <ele>169.03</ele>
        <time>2024-07-12T15:48:15.722Z</time>
      </trkpt>
      <trkpt lat="50.62614" lon="1.85458">
        <ele>169.09</ele>
        <time>2024-07-12T15:48:19.550Z</time>
      </trkpt>
      <trkpt lat="50.62583" lon="1.85516">
        <ele>168.86</ele>
        <time>2024-07-12T15:48:23.386Z</time>
      </trkpt>
      <trkpt lat="50.62552" lon="1.85574">
        <ele>168.05</ele>
        <time>2024-07-12T15:48:27.230Z</time>
      </trkpt>
      <trkpt lat="50.6252" lon="1.85631">
        <ele>168</ele>
        <time>2024-07-12T15:48:31.082Z</time>
      </trkpt>
      <trkpt lat="50.62482" lon="1.857">
        <ele>168.21</ele>
        <time>2024-07-12T15:48:34.943Z</time>
      </trkpt>
      <trkpt lat="50.62478" lon="1.85707">
        <ele>168.1</ele>
        <time>2024-07-12T15:48:38.805Z</time>
      </trkpt>
      <trkpt lat="50.62441" lon="1.85774">
        <ele>168.49</ele>
        <time>2024-07-12T15:48:42.676Z</time>
      </trkpt>
      <trkpt lat="50.62424" lon="1.85803">
        <ele>168.56</ele>
        <time>2024-07-12T15:48:46.551Z</time>
      </trkpt>
      <trkpt lat="50.62402" lon="1.85844">
        <ele>169</ele>
        <time>2024-07-12T15:48:50.431Z</time>
      </trkpt>
      <trkpt lat="50.62391" lon="1.85863">
        <ele>169</ele>
        <time>2024-07-12T15:48:54.314Z</time>
      </trkpt>
      <trkpt lat="50.62352" lon="1.85932">
        <ele>169</ele>
        <time>2024-07-12T15:48:58.206Z</time>
      </trkpt>
      <trkpt lat="50.62348" lon="1.85939">
        <ele>169</ele>
        <time>2024-07-12T15:49:02.099Z</time>
      </trkpt>
      <trkpt lat="50.62316" lon="1.85997">
        <ele>167.72</ele>
        <time>2024-07-12T15:49:06.000Z</time>
      </trkpt>
      <trkpt lat="50.62301" lon="1.86025">
        <ele>166.7</ele>
        <time>2024-07-12T15:49:09.905Z</time>
      </trkpt>
      <trkpt lat="50.62294" lon="1.86038">
        <ele>165.92</ele>
        <time>2024-07-12T15:49:13.812Z</time>
      </trkpt>
      <trkpt lat="50.62283" lon="1.86059">
        <ele>165.12</ele>
        <time>2024-07-12T15:49:17.721Z</time>
      </trkpt>
      <trkpt lat="50.62273" lon="1.86079">
        <ele>164.38</ele>
        <time>2024-07-12T15:49:21.633Z</time>
      </trkpt>
      <trkpt lat="50.62266" lon="1.86093">
        <ele>163.33</ele>
        <time>2024-07-12T15:49:25.547Z</time>
      </trkpt>
      <trkpt lat="50.62263" lon="1.86101">
        <ele>163</ele>
        <time>2024-07-12T15:49:29.462Z</time>
      </trkpt>
      <trkpt lat="50.62254" lon="1.86126">
        <ele>160.85</ele>
        <time>2024-07-12T15:49:33.380Z</time>
      </trkpt>
      <trkpt lat="50.62249" lon="1.86144">
        <ele>160.01</ele>
        <time>2024-07-12T15:49:37.300Z</time>
      </trkpt>
      <trkpt lat="50.62245" lon="1.86164">
        <ele>159.17</ele>
        <time>2024-07-12T15:49:41.222Z</time>
      </trkpt>
      <trkpt lat="50.62243" lon="1.86184">
        <ele>157.71</ele>
        <time>2024-07-12T15:49:45.146Z</time>
      </trkpt>
      <trkpt lat="50.6224" lon="1.86206">
        <ele>156.48</ele>
        <time>2024-07-12T15:49:49.072Z</time>
      </trkpt>
      <trkpt lat="50.62238" lon="1.86227">
        <ele>155.61</ele>
        <time>2024-07-12T15:49:53.000Z</time>
      </trkpt>
      <trkpt lat="50.62236" lon="1.86249">
        <ele>154.79</ele>
        <time>2024-07-12T15:49:56.930Z</time>
      </trkpt>
      <trkpt lat="50.62234" lon="1.86269">
        <ele>154</ele>
        <time>2024-07-12T15:50:00.863Z</time>
      </trkpt>
      <trkpt lat="50.62232" lon="1.86289">
        <ele>153.89</ele>
        <time>2024-07-12T15:50:04.798Z</time>
      </trkpt>
      <trkpt lat="50.6223" lon="1.8631">
        <ele>153.03</ele>
        <time>2024-07-12T15:50:08.735Z</time>
      </trkpt>
      <trkpt lat="50.62229" lon="1.8632">
        <ele>152.38</ele>
        <time>2024-07-12T15:50:12.673Z</time>
      </trkpt>
      <trkpt lat="50.62229" lon="1.8633">
        <ele>151.72</ele>
        <time>2024-07-12T15:50:16.612Z</time>
      </trkpt>
      <trkpt lat="50.62227" lon="1.8635">
        <ele>150.36</ele>
        <time>2024-07-12T15:50:20.553Z</time>
      </trkpt>
      <trkpt lat="50.62225" lon="1.86371">
        <ele>148.98</ele>
        <time>2024-07-12T15:50:24.496Z</time>
      </trkpt>
      <trkpt lat="50.62223" lon="1.86392">
        <ele>147.47</ele>
        <time>2024-07-12T15:50:28.441Z</time>
      </trkpt>
      <trkpt lat="50.62221" lon="1.86414">
        <ele>145.93</ele>
        <time>2024-07-12T15:50:32.389Z</time>
      </trkpt>
      <trkpt lat="50.62219" lon="1.86435">
        <ele>144.93</ele>
        <time>2024-07-12T15:50:36.339Z</time>
      </trkpt>
      <trkpt lat="50.62218" lon="1.86446">
        <ele>144.58</ele>
        <time>2024-07-12T15:50:40.290Z</time>
      </trkpt>
      <trkpt lat="50.62217" lon="1.86457">
        <ele>143.91</ele>
        <time>2024-07-12T15:50:44.242Z</time>
      </trkpt>
      <trkpt lat="50.62215" lon="1.8648">
        <ele>143.09</ele>
        <time>2024-07-12T15:50:48.196Z</time>
      </trkpt>
      <trkpt lat="50.62211" lon="1.86515">
        <ele>142.65</ele>
        <time>2024-07-12T15:50:52.154Z</time>
      </trkpt>
      <trkpt lat="50.62209" lon="1.86527">
        <ele>142.41</ele>
        <time>2024-07-12T15:50:56.113Z</time>
      </trkpt>
      <trkpt lat="50.62205" lon="1.86564">
        <ele>141.04</ele>
        <time>2024-07-12T15:51:00.076Z</time>
      </trkpt>
      <trkpt lat="50.62201" lon="1.86602">
        <ele>140.5</ele>
        <time>2024-07-12T15:51:04.043Z</time>
      </trkpt>
      <trkpt lat="50.62197" lon="1.86641">
        <ele>139.94</ele>
        <time>2024-07-12T15:51:08.014Z</time>
      </trkpt>
      <trkpt lat="50.62188" lon="1.86733">
        <ele>141.25</ele>
        <time>2024-07-12T15:51:11.995Z</time>
      </trkpt>
      <trkpt lat="50.62187" lon="1.86747">
        <ele>140.7</ele>
        <time>2024-07-12T15:51:15.977Z</time>
      </trkpt>
      <trkpt lat="50.62181" lon="1.86834">
        <ele>135.74</ele>
        <time>2024-07-12T15:51:19.968Z</time>
      </trkpt>
      <trkpt lat="50.62175" lon="1.8691">
        <ele>136.72</ele>
        <time>2024-07-12T15:51:23.967Z</time>
      </trkpt>
      <trkpt lat="50.62166" lon="1.86972">
        <ele>138.73</ele>
        <time>2024-07-12T15:51:27.972Z</time>
      </trkpt>
      <trkpt lat="50.6216" lon="1.87012">
        <ele>140.55</ele>
        <time>2024-07-12T15:51:31.981Z</time>
      </trkpt>
      <trkpt lat="50.62154" lon="1.87044">
        <ele>140.35</ele>
        <time>2024-07-12T15:51:35.994Z</time>
      </trkpt>
      <trkpt lat="50.6215" lon="1.87063">
        <ele>140.18</ele>
        <time>2024-07-12T15:51:40.009Z</time>
      </trkpt>
      <trkpt lat="50.62146" lon="1.87081">
        <ele>140.66</ele>
        <time>2024-07-12T15:51:44.026Z</time>
      </trkpt>
      <trkpt lat="50.62145" lon="1.87086">
        <ele>140.87</ele>
        <time>2024-07-12T15:51:48.043Z</time>
      </trkpt>
      <trkpt lat="50.62143" lon="1.87095">
        <ele>141.26</ele>
        <time>2024-07-12T15:51:52.061Z</time>
      </trkpt>
      <trkpt lat="50.6214" lon="1.87106">
        <ele>142.14</ele>
        <time>2024-07-12T15:51:56.080Z</time>
      </trkpt>
      <trkpt lat="50.62138" lon="1.8711">
        <ele>142.46</ele>
        <time>2024-07-12T15:52:00.100Z</time>
      </trkpt>
      <trkpt lat="50.62133" lon="1.87125">
        <ele>143.52</ele>
        <time>2024-07-12T15:52:04.122Z</time>
      </trkpt>
      <trkpt lat="50.62132" lon="1.87127">
        <ele>143.67</ele>
        <time>2024-07-12T15:52:08.144Z</time>
      </trkpt>
      <trkpt lat="50.62128" lon="1.8714">
        <ele>144.7</ele>
        <time>2024-07-12T15:52:12.167Z</time>
      </trkpt>
      <trkpt lat="50.62127" lon="1.87142">
        <ele>144.98</ele>
        <time>2024-07-12T15:52:16.191Z</time>
      </trkpt>
      <trkpt lat="50.62124" lon="1.87153">
        <ele>146.14</ele>
        <time>2024-07-12T15:52:20.216Z</time>
      </trkpt>
      <trkpt lat="50.62121" lon="1.87158">
        <ele>146.47</ele>
        <time>2024-07-12T15:52:24.241Z</time>
      </trkpt>
      <trkpt lat="50.62117" lon="1.87165">
        <ele>147.24</ele>
        <time>2024-07-12T15:52:28.267Z</time>
      </trkpt>
      <trkpt lat="50.62116" lon="1.87168">
        <ele>147.52</ele>
        <time>2024-07-12T15:52:32.294Z</time>
      </trkpt>
      <trkpt lat="50.62113" lon="1.87178">
        <ele>148.59</ele>
        <time>2024-07-12T15:52:36.322Z</time>
      </trkpt>
      <trkpt lat="50.62111" lon="1.87182">
        <ele>149.04</ele>
        <time>2024-07-12T15:52:40.350Z</time>
      </trkpt>
      <trkpt lat="50.62108" lon="1.87189">
        <ele>149.54</ele>
        <time>2024-07-12T15:52:44.379Z</time>
      </trkpt>
      <trkpt lat="50.62107" lon="1.87192">
        <ele>149.77</ele>
        <time>2024-07-12T15:52:48.409Z</time>
      </trkpt>
      <trkpt lat="50.62101" lon="1.87206">
        <ele>150.73</ele>
        <time>2024-07-12T15:52:52.440Z</time>
      </trkpt>
      <trkpt lat="50.62096" lon="1.87217">
        <ele>150.77</ele>
        <time>2024-07-12T15:52:56.473Z</time>
      </trkpt>
      <trkpt lat="50.62094" lon="1.87219">
        <ele>150.84</ele>
        <time>2024-07-12T15:53:00.506Z</time>
      </trkpt>
      <trkpt lat="50.62089" lon="1.8723">
        <ele>151.91</ele>
        <time>2024-07-12T15:53:04.540Z</time>
      </trkpt>
      <trkpt lat="50.62088" lon="1.87232">
        <ele>152.1</ele>
        <time>2024-07-12T15:53:08.575Z</time>
      </trkpt>
      <trkpt lat="50.62083" lon="1.87242">
        <ele>152</ele>
        <time>2024-07-12T15:53:12.611Z</time>
      </trkpt>
      <trkpt lat="50.62082" lon="1.87243">
        <ele>151.96</ele>
        <time>2024-07-12T15:53:16.647Z</time>
      </trkpt>
      <trkpt lat="50.62078" lon="1.87255">
        <ele>152.45</ele>
        <time>2024-07-12T15:53:20.685Z</time>
      </trkpt>
      <trkpt lat="50.62077" lon="1.87256">
        <ele>152.57</ele>
        <time>2024-07-12T15:53:24.723Z</time>
      </trkpt>
      <trkpt lat="50.62072" lon="1.87268">
        <ele>153.13</ele>
        <time>2024-07-12T15:53:28.762Z</time>
      </trkpt>
      <trkpt lat="50.6207" lon="1.87274">
        <ele>153.63</ele>
        <time>2024-07-12T15:53:32.802Z</time>
      </trkpt>
      <trkpt lat="50.62067" lon="1.87281">
        <ele>154.18</ele>
        <time>2024-07-12T15:53:36.843Z</time>
      </trkpt>
      <trkpt lat="50.62064" lon="1.87291">
        <ele>154.84</ele>
        <time>2024-07-12T15:53:40.885Z</time>
      </trkpt>
      <trkpt lat="50.62063" lon="1.87294">
        <ele>155.05</ele>
        <time>2024-07-12T15:53:44.927Z</time>
      </trkpt>
      <trkpt lat="50.6206" lon="1.87302">
        <ele>156.03</ele>
        <time>2024-07-12T15:53:48.970Z</time>
      </trkpt>
      <trkpt lat="50.62058" lon="1.87308">
        <ele>156.78</ele>
        <time>2024-07-12T15:53:53.014Z</time>
      </trkpt>
      <trkpt lat="50.62054" lon="1.87318">
        <ele>158.02</ele>
        <time>2024-07-12T15:53:57.059Z</time>
      </trkpt>
      <trkpt lat="50.62052" lon="1.87325">
        <ele>158.75</ele>
        <time>2024-07-12T15:54:01.105Z</time>
      </trkpt>
      <trkpt lat="50.62049" lon="1.87334">
        <ele>159.62</ele>
        <time>2024-07-12T15:54:05.152Z</time>
      </trkpt>
      <trkpt lat="50.62049" lon="1.87336">
        <ele>159.8</ele>
        <time>2024-07-12T15:54:09.199Z</time>
      </trkpt>
      <trkpt lat="50.62044" lon="1.87353">
        <ele>161.1</ele>
        <time>2024-07-12T15:54:13.248Z</time>
      </trkpt>
      <trkpt lat="50.62043" lon="1.87355">
        <ele>161.2</ele>
        <time>2024-07-12T15:54:17.297Z</time>
      </trkpt>
      <trkpt lat="50.62039" lon="1.87367">
        <ele>162.53</ele>
        <time>2024-07-12T15:54:21.348Z</time>
      </trkpt>
      <trkpt lat="50.62038" lon="1.87372">
        <ele>163.01</ele>
        <time>2024-07-12T15:54:25.399Z</time>
      </trkpt>
      <trkpt lat="50.62035" lon="1.87385">
        <ele>163.47</ele>
        <time>2024-07-12T15:54:29.452Z</time>
      </trkpt>
      <trkpt lat="50.62033" lon="1.87392">
        <ele>163.74</ele>
        <time>2024-07-12T15:54:33.505Z</time>
      </trkpt>
      <trkpt lat="50.62029" lon="1.87404">
        <ele>164.24</ele>
        <time>2024-07-12T15:54:37.560Z</time>
      </trkpt>
      <trkpt lat="50.62026" lon="1.87421">
        <ele>164.97</ele>
        <time>2024-07-12T15:54:41.617Z</time>
      </trkpt>
      <trkpt lat="50.62025" lon="1.87424">
        <ele>165.09</ele>
        <time>2024-07-12T15:54:45.674Z</time>
      </trkpt>
      <trkpt lat="50.62021" lon="1.87454">
        <ele>166.35</ele>
        <time>2024-07-12T15:54:49.734Z</time>
      </trkpt>
      <trkpt lat="50.62019" lon="1.87461">
        <ele>166.66</ele>
        <time>2024-07-12T15:54:53.795Z</time>
      </trkpt>
      <trkpt lat="50.62017" lon="1.87481">
        <ele>167.45</ele>
        <time>2024-07-12T15:54:57.858Z</time>
      </trkpt>
      <trkpt lat="50.62015" lon="1.875">
        <ele>167.57</ele>
        <time>2024-07-12T15:55:01.923Z</time>
      </trkpt>
      <trkpt lat="50.62013" lon="1.87515">
        <ele>167.8</ele>
        <time>2024-07-12T15:55:05.989Z</time>
      </trkpt>
      <trkpt lat="50.62012" lon="1.87544">
        <ele>168</ele>
        <time>2024-07-12T15:55:10.058Z</time>
      </trkpt>
      <trkpt lat="50.62007" lon="1.87565">
        <ele>168.84</ele>
        <time>2024-07-12T15:55:14.130Z</time>
      </trkpt>
      <trkpt lat="50.62007" lon="1.87567">
        <ele>168.93</ele>
        <time>2024-07-12T15:55:18.202Z</time>
      </trkpt>
      <trkpt lat="50.62006" lon="1.87569">
        <ele>169.01</ele>
        <time>2024-07-12T15:55:22.274Z</time>
      </trkpt>
      <trkpt lat="50.62008" lon="1.87567">
        <ele>168.88</ele>
        <time>2024-07-12T15:55:26.346Z</time>
      </trkpt>
      <trkpt lat="50.62009" lon="1.87572">
        <ele>168.99</ele>
        <time>2024-07-12T15:55:30.419Z</time>
      </trkpt>
      <trkpt lat="50.62007" lon="1.8759">
        <ele>169.72</ele>
        <time>2024-07-12T15:55:34.494Z</time>
      </trkpt>
      <trkpt lat="50.62001" lon="1.87614">
        <ele>170.06</ele>
        <time>2024-07-12T15:55:38.571Z</time>
      </trkpt>
      <trkpt lat="50.61996" lon="1.87634">
        <ele>169.81</ele>
        <time>2024-07-12T15:55:42.651Z</time>
      </trkpt>
      <trkpt lat="50.61989" lon="1.87658">
        <ele>169.53</ele>
        <time>2024-07-12T15:55:46.733Z</time>
      </trkpt>
      <trkpt lat="50.61985" lon="1.87669">
        <ele>169.31</ele>
        <time>2024-07-12T15:55:50.817Z</time>
      </trkpt>
      <trkpt lat="50.61972" lon="1.87713">
        <ele>169.27</ele>
        <time>2024-07-12T15:55:54.906Z</time>
      </trkpt>
      <trkpt lat="50.61953" lon="1.87775">
        <ele>170.79</ele>
        <time>2024-07-12T15:55:59.002Z</time>
      </trkpt>
      <trkpt lat="50.6193" lon="1.87852">
        <ele>170.35</ele>
        <time>2024-07-12T15:56:03.106Z</time>
      </trkpt>
      <trkpt lat="50.61913" lon="1.87906">
        <ele>170.24</ele>
        <time>2024-07-12T15:56:07.216Z</time>
      </trkpt>
      <trkpt lat="50.61909" lon="1.87925">
        <ele>170.41</ele>
        <time>2024-07-12T15:56:11.328Z</time>
      </trkpt>
      <trkpt lat="50.61896" lon="1.87991">
        <ele>169.85</ele>
        <time>2024-07-12T15:56:15.447Z</time>
      </trkpt>
      <trkpt lat="50.6189" lon="1.88021">
        <ele>170.09</ele>
        <time>2024-07-12T15:56:19.570Z</time>
      </trkpt>
      <trkpt lat="50.6189" lon="1.88022">
        <ele>170.07</ele>
        <time>2024-07-12T15:56:23.693Z</time>
      </trkpt>
      <trkpt lat="50.61889" lon="1.88029">
        <ele>170.1</ele>
        <time>2024-07-12T15:56:27.817Z</time>
      </trkpt>
      <trkpt lat="50.61886" lon="1.88049">
        <ele>170.59</ele>
        <time>2024-07-12T15:56:31.943Z</time>
      </trkpt>
      <trkpt lat="50.61882" lon="1.88082">
        <ele>171.35</ele>
        <time>2024-07-12T15:56:36.072Z</time>
      </trkpt>
      <trkpt lat="50.61882" lon="1.88088">
        <ele>171.37</ele>
        <time>2024-07-12T15:56:40.202Z</time>
      </trkpt>
      <trkpt lat="50.61874" lon="1.88131">
        <ele>171.66</ele>
        <time>2024-07-12T15:56:44.336Z</time>
      </trkpt>
      <trkpt lat="50.61873" lon="1.88138">
        <ele>171.43</ele>
        <time>2024-07-12T15:56:48.471Z</time>
      </trkpt>
      <trkpt lat="50.61862" lon="1.88195">
        <ele>172</ele>
        <time>2024-07-12T15:56:52.612Z</time>
      </trkpt>
      <trkpt lat="50.61853" lon="1.88243">
        <ele>171.42</ele>
        <time>2024-07-12T15:56:56.758Z</time>
      </trkpt>
      <trkpt lat="50.61838" lon="1.88318">
        <ele>169.97</ele>
        <time>2024-07-12T15:57:00.912Z</time>
      </trkpt>
      <trkpt lat="50.61823" lon="1.88383">
        <ele>169.48</ele>
        <time>2024-07-12T15:57:05.073Z</time>
      </trkpt>
      <trkpt lat="50.61818" lon="1.88404">
        <ele>169</ele>
        <time>2024-07-12T15:57:09.236Z</time>
      </trkpt>
      <trkpt lat="50.61806" lon="1.88451">
        <ele>169</ele>
        <time>2024-07-12T15:57:13.405Z</time>
      </trkpt>
      <trkpt lat="50.61797" lon="1.88482">
        <ele>168.41</ele>
        <time>2024-07-12T15:57:17.577Z</time>
      </trkpt>
      <trkpt lat="50.61789" lon="1.88503">
        <ele>167.98</ele>
        <time>2024-07-12T15:57:21.752Z</time>
      </trkpt>
      <trkpt lat="50.61788" lon="1.88509">
        <ele>167.82</ele>
        <time>2024-07-12T15:57:25.927Z</time>
      </trkpt>
      <trkpt lat="50.61789" lon="1.88512">
        <ele>167.64</ele>
        <time>2024-07-12T15:57:30.103Z</time>
      </trkpt>
      <trkpt lat="50.61792" lon="1.88521">
        <ele>167.26</ele>
        <time>2024-07-12T15:57:34.279Z</time>
      </trkpt>
      <trkpt lat="50.61792" lon="1.88527">
        <ele>167</ele>
        <time>2024-07-12T15:57:38.456Z</time>
      </trkpt>
      <trkpt lat="50.61794" lon="1.88551">
        <ele>165.64</ele>
        <time>2024-07-12T15:57:42.636Z</time>
      </trkpt>
      <trkpt lat="50.61798" lon="1.88606">
        <ele>164.21</ele>
        <time>2024-07-12T15:57:46.821Z</time>
      </trkpt>
      <trkpt lat="50.61798" lon="1.88616">
        <ele>164.38</ele>
        <time>2024-07-12T15:57:51.007Z</time>
      </trkpt>
      <trkpt lat="50.61794" lon="1.88665">
        <ele>165.55</ele>
        <time>2024-07-12T15:57:55.198Z</time>
      </trkpt>
      <trkpt lat="50.61797" lon="1.88704">
        <ele>164.88</ele>
        <time>2024-07-12T15:57:59.393Z</time>
      </trkpt>
      <trkpt lat="50.618" lon="1.88722">
        <ele>164.63</ele>
        <time>2024-07-12T15:58:03.590Z</time>
      </trkpt>
      <trkpt lat="50.61804" lon="1.88737">
        <ele>164.33</ele>
        <time>2024-07-12T15:58:07.789Z</time>
      </trkpt>
      <trkpt lat="50.6181" lon="1.88747">
        <ele>163.96</ele>
        <time>2024-07-12T15:58:11.989Z</time>
      </trkpt>
      <trkpt lat="50.61814" lon="1.88751">
        <ele>163.82</ele>
        <time>2024-07-12T15:58:16.190Z</time>
      </trkpt>
      <trkpt lat="50.61818" lon="1.88754">
        <ele>163.67</ele>
        <time>2024-07-12T15:58:20.392Z</time>
      </trkpt>
      <trkpt lat="50.61828" lon="1.88762">
        <ele>163.31</ele>
        <time>2024-07-12T15:58:24.596Z</time>
      </trkpt>
      <trkpt lat="50.61836" lon="1.88775">
        <ele>163.01</ele>
        <time>2024-07-12T15:58:28.801Z</time>
      </trkpt>
      <trkpt lat="50.61843" lon="1.88792">
        <ele>162.5</ele>
        <time>2024-07-12T15:58:33.008Z</time>
      </trkpt>
      <trkpt lat="50.61853" lon="1.88821">
        <ele>161.63</ele>
        <time>2024-07-12T15:58:37.219Z</time>
      </trkpt>
      <trkpt lat="50.61861" lon="1.88841">
        <ele>160.4</ele>
        <time>2024-07-12T15:58:41.432Z</time>
      </trkpt>
      <trkpt lat="50.61869" lon="1.88864">
        <ele>159.69</ele>
        <time>2024-07-12T15:58:45.648Z</time>
      </trkpt>
      <trkpt lat="50.61886" lon="1.88912">
        <ele>158.21</ele>
        <time>2024-07-12T15:58:49.870Z</time>
      </trkpt>
      <trkpt lat="50.61905" lon="1.88961">
        <ele>157</ele>
        <time>2024-07-12T15:58:54.097Z</time>
      </trkpt>
      <trkpt lat="50.61923" lon="1.89008">
        <ele>156.89</ele>
        <time>2024-07-12T15:58:58.330Z</time>
      </trkpt>
      <trkpt lat="50.61928" lon="1.89019">
        <ele>156.74</ele>
        <time>2024-07-12T15:59:02.564Z</time>
      </trkpt>
      <trkpt lat="50.61956" lon="1.89068">
        <ele>155.36</ele>
        <time>2024-07-12T15:59:06.805Z</time>
      </trkpt>
      <trkpt lat="50.61974" lon="1.89097">
        <ele>153.17</ele>
        <time>2024-07-12T15:59:11.050Z</time>
      </trkpt>
      <trkpt lat="50.61998" lon="1.89137">
        <ele>152.2</ele>
        <time>2024-07-12T15:59:15.301Z</time>
      </trkpt>
      <trkpt lat="50.62003" lon="1.89147">
        <ele>152</ele>
        <time>2024-07-12T15:59:19.553Z</time>
      </trkpt>
      <trkpt lat="50.62021" lon="1.89188">
        <ele>151.62</ele>
        <time>2024-07-12T15:59:23.810Z</time>
      </trkpt>
      <trkpt lat="50.62023" lon="1.89199">
        <ele>151.28</ele>
        <time>2024-07-12T15:59:28.068Z</time>
      </trkpt>
      <trkpt lat="50.62029" lon="1.89234">
        <ele>150.13</ele>
        <time>2024-07-12T15:59:32.330Z</time>
      </trkpt>
      <trkpt lat="50.62037" lon="1.89269">
        <ele>150</ele>
        <time>2024-07-12T15:59:36.596Z</time>
      </trkpt>
      <trkpt lat="50.62049" lon="1.89304">
        <ele>150</ele>
        <time>2024-07-12T15:59:40.866Z</time>
      </trkpt>
      <trkpt lat="50.62057" lon="1.89326">
        <ele>150</ele>
        <time>2024-07-12T15:59:45.138Z</time>
      </trkpt>
      <trkpt lat="50.6206" lon="1.89338">
        <ele>150.04</ele>
        <time>2024-07-12T15:59:49.412Z</time>
      </trkpt>
      <trkpt lat="50.62062" lon="1.89362">
        <ele>149.44</ele>
        <time>2024-07-12T15:59:53.688Z</time>
      </trkpt>
      <trkpt lat="50.62061" lon="1.89389">
        <ele>149</ele>
        <time>2024-07-12T15:59:57.967Z</time>
      </trkpt>
      <trkpt lat="50.62056" lon="1.89427">
        <ele>148.27</ele>
        <time>2024-07-12T16:00:02.250Z</time>
      </trkpt>
      <trkpt lat="50.62055" lon="1.89439">
        <ele>148.44</ele>
        <time>2024-07-12T16:00:06.534Z</time>
      </trkpt>
      <trkpt lat="50.62053" lon="1.89475">
        <ele>148.64</ele>
        <time>2024-07-12T16:00:10.822Z</time>
      </trkpt>
      <trkpt lat="50.62054" lon="1.89487">
        <ele>148.37</ele>
        <time>2024-07-12T16:00:15.111Z</time>
      </trkpt>
      <trkpt lat="50.62063" lon="1.8955">
        <ele>146.47</ele>
        <time>2024-07-12T16:00:19.407Z</time>
      </trkpt>
      <trkpt lat="50.62065" lon="1.89561">
        <ele>145.97</ele>
        <time>2024-07-12T16:00:23.704Z</time>
      </trkpt>
      <trkpt lat="50.62067" lon="1.89573">
        <ele>145.7</ele>
        <time>2024-07-12T16:00:28.002Z</time>
      </trkpt>
      <trkpt lat="50.62074" lon="1.89595">
        <ele>145.41</ele>
        <time>2024-07-12T16:00:32.303Z</time>
      </trkpt>
      <trkpt lat="50.62079" lon="1.89604">
        <ele>144.93</ele>
        <time>2024-07-12T16:00:36.605Z</time>
      </trkpt>
      <trkpt lat="50.62085" lon="1.89611">
        <ele>144.44</ele>
        <time>2024-07-12T16:00:40.908Z</time>
      </trkpt>
      <trkpt lat="50.62103" lon="1.89629">
        <ele>143.4</ele>
        <time>2024-07-12T16:00:45.214Z</time>
      </trkpt>
      <trkpt lat="50.62115" lon="1.8964">
        <ele>143</ele>
        <time>2024-07-12T16:00:49.523Z</time>
      </trkpt>
      <trkpt lat="50.62132" lon="1.89651">
        <ele>143</ele>
        <time>2024-07-12T16:00:53.835Z</time>
      </trkpt>
      <trkpt lat="50.62137" lon="1.89652">
        <ele>143</ele>
        <time>2024-07-12T16:00:58.147Z</time>
      </trkpt>
      <trkpt lat="50.62146" lon="1.89654">
        <ele>143.12</ele>
        <time>2024-07-12T16:01:02.461Z</time>
      </trkpt>
      <trkpt lat="50.62148" lon="1.89654">
        <ele>143.15</ele>
        <time>2024-07-12T16:01:06.775Z</time>
      </trkpt>
      <trkpt lat="50.62148" lon="1.89653">
        <ele>143.11</ele>
        <time>2024-07-12T16:01:11.089Z</time>
      </trkpt>
      <trkpt lat="50.62148" lon="1.89654">
        <ele>143.14</ele>
        <time>2024-07-12T16:01:15.403Z</time>
      </trkpt>
      <trkpt lat="50.62148" lon="1.89655">
        <ele>143.17</ele>
        <time>2024-07-12T16:01:19.717Z</time>
      </trkpt>
      <trkpt lat="50.62153" lon="1.89655">
        <ele>143.18</ele>
        <time>2024-07-12T16:01:24.032Z</time>
      </trkpt>
      <trkpt lat="50.62166" lon="1.89655">
        <ele>143.19</ele>
        <time>2024-07-12T16:01:28.349Z</time>
      </trkpt>
      <trkpt lat="50.62186" lon="1.89655">
        <ele>142.58</ele>
        <time>2024-07-12T16:01:32.669Z</time>
      </trkpt>
      <trkpt lat="50.62202" lon="1.89654">
        <ele>142.12</ele>
        <time>2024-07-12T16:01:36.992Z</time>
      </trkpt>
      <trkpt lat="50.62206" lon="1.89654">
        <ele>142.13</ele>
        <time>2024-07-12T16:01:41.316Z</time>
      </trkpt>
      <trkpt lat="50.62228" lon="1.89654">
        <ele>142.24</ele>
        <time>2024-07-12T16:01:45.643Z</time>
      </trkpt>
      <trkpt lat="50.62259" lon="1.89652">
        <ele>144.21</ele>
        <time>2024-07-12T16:01:49.975Z</time>
      </trkpt>
      <trkpt lat="50.62291" lon="1.89652">
        <ele>145.35</ele>
        <time>2024-07-12T16:01:54.312Z</time>
      </trkpt>
      <trkpt lat="50.62307" lon="1.89651">
        <ele>145.94</ele>
        <time>2024-07-12T16:01:58.652Z</time>
      </trkpt>
      <trkpt lat="50.62318" lon="1.8965">
        <ele>146.01</ele>
        <time>2024-07-12T16:02:02.994Z</time>
      </trkpt>
      <trkpt lat="50.6233" lon="1.89648">
        <ele>146.06</ele>
        <time>2024-07-12T16:02:07.337Z</time>
      </trkpt>
      <trkpt lat="50.62369" lon="1.89646">
        <ele>145.84</ele>
        <time>2024-07-12T16:02:11.687Z</time>
      </trkpt>
      <trkpt lat="50.62411" lon="1.89635">
        <ele>145</ele>
        <time>2024-07-12T16:02:16.044Z</time>
      </trkpt>
      <trkpt lat="50.6246" lon="1.89619">
        <ele>145</ele>
        <time>2024-07-12T16:02:20.409Z</time>
      </trkpt>
      <trkpt lat="50.62504" lon="1.89615">
        <ele>146</ele>
        <time>2024-07-12T16:02:24.781Z</time>
      </trkpt>
      <trkpt lat="50.62509" lon="1.89615">
        <ele>146</ele>
        <time>2024-07-12T16:02:29.154Z</time>
      </trkpt>
      <trkpt lat="50.62556" lon="1.89624">
        <ele>146</ele>
        <time>2024-07-12T16:02:33.534Z</time>
      </trkpt>
      <trkpt lat="50.62591" lon="1.89635">
        <ele>146.12</ele>
        <time>2024-07-12T16:02:37.920Z</time>
      </trkpt>
      <trkpt lat="50.62598" lon="1.89639">
        <ele>146.38</ele>
        <time>2024-07-12T16:02:42.307Z</time>
      </trkpt>
      <trkpt lat="50.62601" lon="1.8964">
        <ele>146.51</ele>
        <time>2024-07-12T16:02:46.694Z</time>
      </trkpt>
      <trkpt lat="50.62601" lon="1.8964">
        <ele>146.49</ele>
        <time>2024-07-12T16:02:51.081Z</time>
      </trkpt>
      <trkpt lat="50.62601" lon="1.8964">
        <ele>146.51</ele>
        <time>2024-07-12T16:02:55.469Z</time>
      </trkpt>
      <trkpt lat="50.62612" lon="1.89643">
        <ele>146.89</ele>
        <time>2024-07-12T16:02:59.858Z</time>
      </trkpt>
      <trkpt lat="50.62634" lon="1.89649">
        <ele>147.7</ele>
        <time>2024-07-12T16:03:04.251Z</time>
      </trkpt>
      <trkpt lat="50.62663" lon="1.89653">
        <ele>148.75</ele>
        <time>2024-07-12T16:03:08.649Z</time>
      </trkpt>
      <trkpt lat="50.62677" lon="1.89654">
        <ele>149</ele>
        <time>2024-07-12T16:03:13.049Z</time>
      </trkpt>
      <trkpt lat="50.62708" lon="1.89656">
        <ele>148.79</ele>
        <time>2024-07-12T16:03:17.454Z</time>
      </trkpt>
      <trkpt lat="50.62721" lon="1.89658">
        <ele>148.7</ele>
        <time>2024-07-12T16:03:21.861Z</time>
      </trkpt>
      <trkpt lat="50.62757" lon="1.89667">
        <ele>149.11</ele>
        <time>2024-07-12T16:03:26.274Z</time>
      </trkpt>
      <trkpt lat="50.62813" lon="1.89682">
        <ele>150.16</ele>
        <time>2024-07-12T16:03:30.696Z</time>
      </trkpt>
      <trkpt lat="50.62832" lon="1.89693">
        <ele>150.83</ele>
        <time>2024-07-12T16:03:35.121Z</time>
      </trkpt>
      <trkpt lat="50.62836" lon="1.89697">
        <ele>150.95</ele>
        <time>2024-07-12T16:03:39.547Z</time>
      </trkpt>
      <trkpt lat="50.62843" lon="1.89708">
        <ele>151.33</ele>
        <time>2024-07-12T16:03:43.974Z</time>
      </trkpt>
      <trkpt lat="50.62849" lon="1.8972">
        <ele>151.9</ele>
        <time>2024-07-12T16:03:48.403Z</time>
      </trkpt>
      <trkpt lat="50.62852" lon="1.89727">
        <ele>152.12</ele>
        <time>2024-07-12T16:03:52.833Z</time>
      </trkpt>
      <trkpt lat="50.62858" lon="1.89747">
        <ele>152.53</ele>
        <time>2024-07-12T16:03:57.265Z</time>
      </trkpt>
      <trkpt lat="50.62862" lon="1.89757">
        <ele>152.8</ele>
        <time>2024-07-12T16:04:01.698Z</time>
      </trkpt>
      <trkpt lat="50.6287" lon="1.89782">
        <ele>153.93</ele>
        <time>2024-07-12T16:04:06.134Z</time>
      </trkpt>
      <trkpt lat="50.62872" lon="1.89789">
        <ele>154.27</ele>
        <time>2024-07-12T16:04:10.571Z</time>
      </trkpt>
      <trkpt lat="50.62883" lon="1.89816">
        <ele>155.29</ele>
        <time>2024-07-12T16:04:15.011Z</time>
      </trkpt>
      <trkpt lat="50.62885" lon="1.89824">
        <ele>155.73</ele>
        <time>2024-07-12T16:04:19.452Z</time>
      </trkpt>
      <trkpt lat="50.62895" lon="1.89845">
        <ele>157.1</ele>
        <time>2024-07-12T16:04:23.896Z</time>
      </trkpt>
      <trkpt lat="50.62899" lon="1.89856">
        <ele>157.49</ele>
        <time>2024-07-12T16:04:28.341Z</time>
      </trkpt>
      <trkpt lat="50.62909" lon="1.89876">
        <ele>158.15</ele>
        <time>2024-07-12T16:04:32.789Z</time>
      </trkpt>
      <trkpt lat="50.6291" lon="1.89879">
        <ele>158.29</ele>
        <time>2024-07-12T16:04:37.237Z</time>
      </trkpt>
      <trkpt lat="50.62922" lon="1.89907">
        <ele>159.05</ele>
        <time>2024-07-12T16:04:41.688Z</time>
      </trkpt>
      <trkpt lat="50.62936" lon="1.8994">
        <ele>159.15</ele>
        <time>2024-07-12T16:04:46.143Z</time>
      </trkpt>
      <trkpt lat="50.62938" lon="1.89943">
        <ele>159.08</ele>
        <time>2024-07-12T16:04:50.599Z</time>
      </trkpt>
      <trkpt lat="50.62948" lon="1.89967">
        <ele>158.99</ele>
        <time>2024-07-12T16:04:55.058Z</time>
      </trkpt>
      <trkpt lat="50.62952" lon="1.89977">
        <ele>159.14</ele>
        <time>2024-07-12T16:04:59.518Z</time>
      </trkpt>
      <trkpt lat="50.62962" lon="1.9">
        <ele>159.5</ele>
        <time>2024-07-12T16:05:03.981Z</time>
      </trkpt>
      <trkpt lat="50.62972" lon="1.90025">
        <ele>159.87</ele>
        <time>2024-07-12T16:05:08.447Z</time>
      </trkpt>
      <trkpt lat="50.62981" lon="1.90045">
        <ele>160.17</ele>
        <time>2024-07-12T16:05:12.915Z</time>
      </trkpt>
      <trkpt lat="50.62988" lon="1.90061">
        <ele>160.43</ele>
        <time>2024-07-12T16:05:17.385Z</time>
      </trkpt>
      <trkpt lat="50.63001" lon="1.90089">
        <ele>160.91</ele>
        <time>2024-07-12T16:05:21.859Z</time>
      </trkpt>
      <trkpt lat="50.63006" lon="1.90097">
        <ele>161.09</ele>
        <time>2024-07-12T16:05:26.334Z</time>
      </trkpt>
      <trkpt lat="50.63027" lon="1.90124">
        <ele>161.84</ele>
        <time>2024-07-12T16:05:30.813Z</time>
      </trkpt>
      <trkpt lat="50.63033" lon="1.90131">
        <ele>162.05</ele>
        <time>2024-07-12T16:05:35.293Z</time>
      </trkpt>
      <trkpt lat="50.63061" lon="1.90165">
        <ele>163.07</ele>
        <time>2024-07-12T16:05:39.779Z</time>
      </trkpt>
      <trkpt lat="50.63067" lon="1.90174">
        <ele>163.27</ele>
        <time>2024-07-12T16:05:44.267Z</time>
      </trkpt>
      <trkpt lat="50.63083" lon="1.90203">
        <ele>163.83</ele>
        <time>2024-07-12T16:05:48.758Z</time>
      </trkpt>
      <trkpt lat="50.63114" lon="1.90259">
        <ele>164.02</ele>
        <time>2024-07-12T16:05:53.257Z</time>
      </trkpt>
      <trkpt lat="50.63139" lon="1.90311">
        <ele>164.06</ele>
        <time>2024-07-12T16:05:57.763Z</time>
      </trkpt>
      <trkpt lat="50.63147" lon="1.90329">
        <ele>163.71</ele>
        <time>2024-07-12T16:06:02.271Z</time>
      </trkpt>
      <trkpt lat="50.6318" lon="1.90401">
        <ele>163</ele>
        <time>2024-07-12T16:06:06.788Z</time>
      </trkpt>
      <trkpt lat="50.63188" lon="1.90419">
        <ele>163</ele>
        <time>2024-07-12T16:06:11.307Z</time>
      </trkpt>
      <trkpt lat="50.63213" lon="1.90474">
        <ele>164.65</ele>
        <time>2024-07-12T16:06:15.833Z</time>
      </trkpt>
      <trkpt lat="50.6323" lon="1.90514">
        <ele>166.24</ele>
        <time>2024-07-12T16:06:20.364Z</time>
      </trkpt>
      <trkpt lat="50.63246" lon="1.90553">
        <ele>168.22</ele>
        <time>2024-07-12T16:06:24.900Z</time>
      </trkpt>
      <trkpt lat="50.63248" lon="1.90558">
        <ele>168.5</ele>
        <time>2024-07-12T16:06:29.436Z</time>
      </trkpt>
      <trkpt lat="50.63263" lon="1.90596">
        <ele>169.33</ele>
        <time>2024-07-12T16:06:33.977Z</time>
      </trkpt>
      <trkpt lat="50.63265" lon="1.90601">
        <ele>169.41</ele>
        <time>2024-07-12T16:06:38.518Z</time>
      </trkpt>
      <trkpt lat="50.6328" lon="1.90637">
        <ele>170</ele>
        <time>2024-07-12T16:06:43.064Z</time>
      </trkpt>
      <trkpt lat="50.63284" lon="1.90647">
        <ele>170</ele>
        <time>2024-07-12T16:06:47.611Z</time>
      </trkpt>
      <trkpt lat="50.63305" lon="1.9069">
        <ele>170.41</ele>
        <time>2024-07-12T16:06:52.164Z</time>
      </trkpt>
      <trkpt lat="50.63313" lon="1.90705">
        <ele>170.83</ele>
        <time>2024-07-12T16:06:56.719Z</time>
      </trkpt>
      <trkpt lat="50.63324" lon="1.90728">
        <ele>170.45</ele>
        <time>2024-07-12T16:07:01.276Z</time>
      </trkpt>
      <trkpt lat="50.63348" lon="1.90775">
        <ele>168.49</ele>
        <time>2024-07-12T16:07:05.840Z</time>
      </trkpt>
      <trkpt lat="50.63363" lon="1.90806">
        <ele>167.38</ele>
        <time>2024-07-12T16:07:10.408Z</time>
      </trkpt>
      <trkpt lat="50.63375" lon="1.90831">
        <ele>166.12</ele>
        <time>2024-07-12T16:07:14.979Z</time>
      </trkpt>
      <trkpt lat="50.63383" lon="1.9085">
        <ele>165.34</ele>
        <time>2024-07-12T16:07:19.552Z</time>
      </trkpt>
      <trkpt lat="50.63398" lon="1.90889">
        <ele>164.4</ele>
        <time>2024-07-12T16:07:24.130Z</time>
      </trkpt>
      <trkpt lat="50.63401" lon="1.90899">
        <ele>164.03</ele>
        <time>2024-07-12T16:07:28.709Z</time>
      </trkpt>
      <trkpt lat="50.63409" lon="1.9092">
        <ele>163.42</ele>
        <time>2024-07-12T16:07:33.290Z</time>
      </trkpt>
      <trkpt lat="50.63421" lon="1.90952">
        <ele>162.13</ele>
        <time>2024-07-12T16:07:37.875Z</time>
      </trkpt>
      <trkpt lat="50.63436" lon="1.90981">
        <ele>161.43</ele>
        <time>2024-07-12T16:07:42.464Z</time>
      </trkpt>
      <trkpt lat="50.63441" lon="1.9099">
        <ele>161.01</ele>
        <time>2024-07-12T16:07:47.054Z</time>
      </trkpt>
      <trkpt lat="50.63456" lon="1.91019">
        <ele>159.71</ele>
        <time>2024-07-12T16:07:51.648Z</time>
      </trkpt>
      <trkpt lat="50.63474" lon="1.91056">
        <ele>159.08</ele>
        <time>2024-07-12T16:07:56.247Z</time>
      </trkpt>
      <trkpt lat="50.63478" lon="1.91065">
        <ele>158.93</ele>
        <time>2024-07-12T16:08:00.847Z</time>
      </trkpt>
      <trkpt lat="50.63486" lon="1.91084">
        <ele>158.64</ele>
        <time>2024-07-12T16:08:05.449Z</time>
      </trkpt>
      <trkpt lat="50.635" lon="1.91121">
        <ele>158.12</ele>
        <time>2024-07-12T16:08:10.056Z</time>
      </trkpt>
      <trkpt lat="50.63509" lon="1.91134">
        <ele>157.81</ele>
        <time>2024-07-12T16:08:14.664Z</time>
      </trkpt>
      <trkpt lat="50.6352" lon="1.91139">
        <ele>157.41</ele>
        <time>2024-07-12T16:08:19.274Z</time>
      </trkpt>
      <trkpt lat="50.63525" lon="1.91138">
        <ele>157.22</ele>
        <time>2024-07-12T16:08:23.885Z</time>
      </trkpt>
      <trkpt lat="50.6353" lon="1.91136">
        <ele>157.04</ele>
        <time>2024-07-12T16:08:28.497Z</time>
      </trkpt>
      <trkpt lat="50.63541" lon="1.91129">
        <ele>157</ele>
        <time>2024-07-12T16:08:33.111Z</time>
      </trkpt>
      <trkpt lat="50.63546" lon="1.91123">
        <ele>157</ele>
        <time>2024-07-12T16:08:37.726Z</time>
      </trkpt>
      <trkpt lat="50.63573" lon="1.91085">
        <ele>157.51</ele>
        <time>2024-07-12T16:08:42.347Z</time>
      </trkpt>
      <trkpt lat="50.63583" lon="1.91077">
        <ele>157.64</ele>
        <time>2024-07-12T16:08:46.969Z</time>
      </trkpt>
      <trkpt lat="50.63593" lon="1.91073">
        <ele>157.98</ele>
        <time>2024-07-12T16:08:51.593Z</time>
      </trkpt>
      <trkpt lat="50.63603" lon="1.91072">
        <ele>158</ele>
        <time>2024-07-12T16:08:56.219Z</time>
      </trkpt>
      <trkpt lat="50.63615" lon="1.91076">
        <ele>158</ele>
        <time>2024-07-12T16:09:00.847Z</time>
      </trkpt>
      <trkpt lat="50.63642" lon="1.91087">
        <ele>158.23</ele>
        <time>2024-07-12T16:09:05.479Z</time>
      </trkpt>
      <trkpt lat="50.63652" lon="1.91097">
        <ele>158.27</ele>
        <time>2024-07-12T16:09:10.113Z</time>
      </trkpt>
      <trkpt lat="50.6366" lon="1.91096">
        <ele>158.57</ele>
        <time>2024-07-12T16:09:14.748Z</time>
      </trkpt>
      <trkpt lat="50.63662" lon="1.91096">
        <ele>158.66</ele>
        <time>2024-07-12T16:09:19.384Z</time>
      </trkpt>
      <trkpt lat="50.63673" lon="1.91098">
        <ele>158.89</ele>
        <time>2024-07-12T16:09:24.021Z</time>
      </trkpt>
      <trkpt lat="50.63681" lon="1.91102">
        <ele>158.74</ele>
        <time>2024-07-12T16:09:28.660Z</time>
      </trkpt>
      <trkpt lat="50.63678" lon="1.91097">
        <ele>158.92</ele>
        <time>2024-07-12T16:09:33.299Z</time>
      </trkpt>
      <trkpt lat="50.63686" lon="1.91104">
        <ele>158.67</ele>
        <time>2024-07-12T16:09:37.940Z</time>
      </trkpt>
      <trkpt lat="50.63703" lon="1.9111">
        <ele>158.29</ele>
        <time>2024-07-12T16:09:42.584Z</time>
      </trkpt>
      <trkpt lat="50.63709" lon="1.91117">
        <ele>157.78</ele>
        <time>2024-07-12T16:09:47.229Z</time>
      </trkpt>
      <trkpt lat="50.63709" lon="1.91122">
        <ele>157.64</ele>
        <time>2024-07-12T16:09:51.874Z</time>
      </trkpt>
      <trkpt lat="50.63708" lon="1.91126">
        <ele>157.53</ele>
        <time>2024-07-12T16:09:56.520Z</time>
      </trkpt>
      <trkpt lat="50.63703" lon="1.91132">
        <ele>157.47</ele>
        <time>2024-07-12T16:10:01.167Z</time>
      </trkpt>
      <trkpt lat="50.63691" lon="1.9115">
        <ele>157.02</ele>
        <time>2024-07-12T16:10:05.816Z</time>
      </trkpt>
      <trkpt lat="50.63688" lon="1.91155">
        <ele>156.81</ele>
        <time>2024-07-12T16:10:10.466Z</time>
      </trkpt>
      <trkpt lat="50.63665" lon="1.91198">
        <ele>156.08</ele>
        <time>2024-07-12T16:10:15.122Z</time>
      </trkpt>
      <trkpt lat="50.6365" lon="1.9122">
        <ele>154.48</ele>
        <time>2024-07-12T16:10:19.781Z</time>
      </trkpt>
      <trkpt lat="50.63637" lon="1.91233">
        <ele>153.79</ele>
        <time>2024-07-12T16:10:24.443Z</time>
      </trkpt>
      <trkpt lat="50.63582" lon="1.91277">
        <ele>151.62</ele>
        <time>2024-07-12T16:10:29.114Z</time>
      </trkpt>
      <trkpt lat="50.63559" lon="1.91303">
        <ele>151.52</ele>
        <time>2024-07-12T16:10:33.790Z</time>
      </trkpt>
      <trkpt lat="50.63555" lon="1.9131">
        <ele>151.39</ele>
        <time>2024-07-12T16:10:38.467Z</time>
      </trkpt>
      <trkpt lat="50.63526" lon="1.91365">
        <ele>151.25</ele>
        <time>2024-07-12T16:10:43.151Z</time>
      </trkpt>
      <trkpt lat="50.63498" lon="1.91403">
        <ele>150.1</ele>
        <time>2024-07-12T16:10:47.841Z</time>
      </trkpt>
      <trkpt lat="50.63492" lon="1.91411">
        <ele>150.05</ele>
        <time>2024-07-12T16:10:52.532Z</time>
      </trkpt>
      <trkpt lat="50.63465" lon="1.91444">
        <ele>149.39</ele>
        <time>2024-07-12T16:10:57.229Z</time>
      </trkpt>
      <trkpt lat="50.63443" lon="1.91469">
        <ele>149.53</ele>
        <time>2024-07-12T16:11:01.930Z</time>
      </trkpt>
      <trkpt lat="50.63436" lon="1.91477">
        <ele>149.24</ele>
        <time>2024-07-12T16:11:06.633Z</time>
      </trkpt>
      <trkpt lat="50.63413" lon="1.91498">
        <ele>148.49</ele>
        <time>2024-07-12T16:11:11.340Z</time>
      </trkpt>
      <trkpt lat="50.63398" lon="1.9151">
        <ele>148.04</ele>
        <time>2024-07-12T16:11:16.050Z</time>
      </trkpt>
      <trkpt lat="50.6337" lon="1.91536">
        <ele>148.11</ele>
        <time>2024-07-12T16:11:20.765Z</time>
      </trkpt>
      <trkpt lat="50.63365" lon="1.91545">
        <ele>148.01</ele>
        <time>2024-07-12T16:11:25.481Z</time>
      </trkpt>
      <trkpt lat="50.63356" lon="1.91564">
        <ele>147.59</ele>
        <time>2024-07-12T16:11:30.199Z</time>
      </trkpt>
      <trkpt lat="50.63349" lon="1.91585">
        <ele>146.81</ele>
        <time>2024-07-12T16:11:34.920Z</time>
      </trkpt>
      <trkpt lat="50.63337" lon="1.91617">
        <ele>145.99</ele>
        <time>2024-07-12T16:11:39.645Z</time>
      </trkpt>
      <trkpt lat="50.63311" lon="1.91677">
        <ele>147.07</ele>
        <time>2024-07-12T16:11:44.377Z</time>
      </trkpt>
      <trkpt lat="50.63281" lon="1.91733">
        <ele>145.96</ele>
        <time>2024-07-12T16:11:49.116Z</time>
      </trkpt>
      <trkpt lat="50.63255" lon="1.91779">
        <ele>145.74</ele>
        <time>2024-07-12T16:11:53.862Z</time>
      </trkpt>
      <trkpt lat="50.63253" lon="1.91784">
        <ele>145.78</ele>
        <time>2024-07-12T16:11:58.608Z</time>
      </trkpt>
      <trkpt lat="50.63243" lon="1.9181">
        <ele>146.96</ele>
        <time>2024-07-12T16:12:03.357Z</time>
      </trkpt>
      <trkpt lat="50.63241" lon="1.91816">
        <ele>147.05</ele>
        <time>2024-07-12T16:12:08.107Z</time>
      </trkpt>
      <trkpt lat="50.63237" lon="1.91837">
        <ele>147.77</ele>
        <time>2024-07-12T16:12:12.859Z</time>
      </trkpt>
      <trkpt lat="50.63234" lon="1.91852">
        <ele>148.81</ele>
        <time>2024-07-12T16:12:17.613Z</time>
      </trkpt>
      <trkpt lat="50.63228" lon="1.91877">
        <ele>149.43</ele>
        <time>2024-07-12T16:12:22.370Z</time>
      </trkpt>
      <trkpt lat="50.63226" lon="1.91886">
        <ele>149.98</ele>
        <time>2024-07-12T16:12:27.128Z</time>
      </trkpt>
      <trkpt lat="50.63217" lon="1.91921">
        <ele>150.78</ele>
        <time>2024-07-12T16:12:31.889Z</time>
      </trkpt>
      <trkpt lat="50.63214" lon="1.91931">
        <ele>150.68</ele>
        <time>2024-07-12T16:12:36.652Z</time>
      </trkpt>
      <trkpt lat="50.63201" lon="1.91963">
        <ele>150.49</ele>
        <time>2024-07-12T16:12:41.418Z</time>
      </trkpt>
      <trkpt lat="50.63196" lon="1.91974">
        <ele>150.53</ele>
        <time>2024-07-12T16:12:46.186Z</time>
      </trkpt>
      <trkpt lat="50.63172" lon="1.9203">
        <ele>150.13</ele>
        <time>2024-07-12T16:12:50.961Z</time>
      </trkpt>
      <trkpt lat="50.63147" lon="1.92097">
        <ele>149.15</ele>
        <time>2024-07-12T16:12:55.744Z</time>
      </trkpt>
      <trkpt lat="50.63141" lon="1.92116">
        <ele>149</ele>
        <time>2024-07-12T16:13:00.529Z</time>
      </trkpt>
      <trkpt lat="50.63128" lon="1.92155">
        <ele>148.48</ele>
        <time>2024-07-12T16:13:05.318Z</time>
      </trkpt>
      <trkpt lat="50.63121" lon="1.92175">
        <ele>148.23</ele>
        <time>2024-07-12T16:13:10.110Z</time>
      </trkpt>
      <trkpt lat="50.63098" lon="1.92237">
        <ele>146.27</ele>
        <time>2024-07-12T16:13:14.909Z</time>
      </trkpt>
      <trkpt lat="50.63088" lon="1.92259">
        <ele>146</ele>
        <time>2024-07-12T16:13:19.711Z</time>
      </trkpt>
      <trkpt lat="50.63083" lon="1.9227">
        <ele>145.36</ele>
        <time>2024-07-12T16:13:24.514Z</time>
      </trkpt>
      <trkpt lat="50.63065" lon="1.92306">
        <ele>143.41</ele>
        <time>2024-07-12T16:13:29.322Z</time>
      </trkpt>
      <trkpt lat="50.63052" lon="1.92329">
        <ele>142.09</ele>
        <time>2024-07-12T16:13:34.133Z</time>
      </trkpt>
      <trkpt lat="50.6304" lon="1.92352">
        <ele>141.3</ele>
        <time>2024-07-12T16:13:38.947Z</time>
      </trkpt>
      <trkpt lat="50.63027" lon="1.92374">
        <ele>140</ele>
        <time>2024-07-12T16:13:43.764Z</time>
      </trkpt>
      <trkpt lat="50.63012" lon="1.92411">
        <ele>139.29</ele>
        <time>2024-07-12T16:13:48.585Z</time>
      </trkpt>
      <trkpt lat="50.63008" lon="1.92423">
        <ele>139.16</ele>
        <time>2024-07-12T16:13:53.408Z</time>
      </trkpt>
      <trkpt lat="50.63004" lon="1.9245">
        <ele>139.01</ele>
        <time>2024-07-12T16:13:58.234Z</time>
      </trkpt>
      <trkpt lat="50.63003" lon="1.92464">
        <ele>138.73</ele>
        <time>2024-07-12T16:14:03.061Z</time>
      </trkpt>
      <trkpt lat="50.63004" lon="1.92492">
        <ele>137.75</ele>
        <time>2024-07-12T16:14:07.891Z</time>
      </trkpt>
      <trkpt lat="50.63006" lon="1.92518">
        <ele>137.07</ele>
        <time>2024-07-12T16:14:12.724Z</time>
      </trkpt>
      <trkpt lat="50.63008" lon="1.92543">
        <ele>137.29</ele>
        <time>2024-07-12T16:14:17.559Z</time>
      </trkpt>
      <trkpt lat="50.63017" lon="1.92607">
        <ele>137.47</ele>
        <time>2024-07-12T16:14:22.401Z</time>
      </trkpt>
      <trkpt lat="50.6303" lon="1.92685">
        <ele>138.19</ele>
        <time>2024-07-12T16:14:27.251Z</time>
      </trkpt>
      <trkpt lat="50.6303" lon="1.92694">
        <ele>138.51</ele>
        <time>2024-07-12T16:14:32.102Z</time>
      </trkpt>
      <trkpt lat="50.63029" lon="1.92702">
        <ele>138.75</ele>
        <time>2024-07-12T16:14:36.954Z</time>
      </trkpt>
      <trkpt lat="50.63026" lon="1.92709">
        <ele>138.83</ele>
        <time>2024-07-12T16:14:41.807Z</time>
      </trkpt>
      <trkpt lat="50.63017" lon="1.92722">
        <ele>139.02</ele>
        <time>2024-07-12T16:14:46.662Z</time>
      </trkpt>
      <trkpt lat="50.63006" lon="1.92731">
        <ele>138.12</ele>
        <time>2024-07-12T16:14:51.519Z</time>
      </trkpt>
      <trkpt lat="50.62956" lon="1.92767">
        <ele>138</ele>
        <time>2024-07-12T16:14:56.384Z</time>
      </trkpt>
      <trkpt lat="50.62903" lon="1.92805">
        <ele>136.38</ele>
        <time>2024-07-12T16:15:01.259Z</time>
      </trkpt>
      <trkpt lat="50.6289" lon="1.92812">
        <ele>136</ele>
        <time>2024-07-12T16:15:06.136Z</time>
      </trkpt>
      <trkpt lat="50.62834" lon="1.9284">
        <ele>135.3</ele>
        <time>2024-07-12T16:15:11.022Z</time>
      </trkpt>
      <trkpt lat="50.62827" lon="1.92843">
        <ele>135.13</ele>
        <time>2024-07-12T16:15:15.910Z</time>
      </trkpt>
      <trkpt lat="50.62799" lon="1.92858">
        <ele>135.38</ele>
        <time>2024-07-12T16:15:20.802Z</time>
      </trkpt>
      <trkpt lat="50.62771" lon="1.92876">
        <ele>135.36</ele>
        <time>2024-07-12T16:15:25.699Z</time>
      </trkpt>
      <trkpt lat="50.6272" lon="1.92915">
        <ele>136.48</ele>
        <time>2024-07-12T16:15:30.605Z</time>
      </trkpt>
      <trkpt lat="50.62708" lon="1.92925">
        <ele>136.14</ele>
        <time>2024-07-12T16:15:35.513Z</time>
      </trkpt>
      <trkpt lat="50.62667" lon="1.92963">
        <ele>135</ele>
        <time>2024-07-12T16:15:40.429Z</time>
      </trkpt>
      <trkpt lat="50.62625" lon="1.93014">
        <ele>135</ele>
        <time>2024-07-12T16:15:45.353Z</time>
      </trkpt>
      <trkpt lat="50.62602" lon="1.93042">
        <ele>135.47</ele>
        <time>2024-07-12T16:15:50.282Z</time>
      </trkpt>
      <trkpt lat="50.62598" lon="1.93047">
        <ele>135.59</ele>
        <time>2024-07-12T16:15:55.212Z</time>
      </trkpt>
      <trkpt lat="50.62596" lon="1.93053">
        <ele>135.66</ele>
        <time>2024-07-12T16:16:00.143Z</time>
      </trkpt>
      <trkpt lat="50.62596" lon="1.93059">
        <ele>135.66</ele>
        <time>2024-07-12T16:16:05.074Z</time>
      </trkpt>
      <trkpt lat="50.62598" lon="1.93074">
        <ele>135.58</ele>
        <time>2024-07-12T16:16:10.007Z</time>
      </trkpt>
      <trkpt lat="50.62603" lon="1.93125">
        <ele>135</ele>
        <time>2024-07-12T16:16:14.945Z</time>
      </trkpt>
      <trkpt lat="50.62616" lon="1.93191">
        <ele>135.03</ele>
        <time>2024-07-12T16:16:19.890Z</time>
      </trkpt>
      <trkpt lat="50.62634" lon="1.93248">
        <ele>134.7</ele>
        <time>2024-07-12T16:16:24.842Z</time>
      </trkpt>
      <trkpt lat="50.62647" lon="1.93296">
        <ele>135.56</ele>
        <time>2024-07-12T16:16:29.799Z</time>
      </trkpt>
      <trkpt lat="50.62657" lon="1.93352">
        <ele>137</ele>
        <time>2024-07-12T16:16:34.762Z</time>
      </trkpt>
      <trkpt lat="50.62657" lon="1.93369">
        <ele>137.06</ele>
        <time>2024-07-12T16:16:39.727Z</time>
      </trkpt>
      <trkpt lat="50.62655" lon="1.93385">
        <ele>136.89</ele>
        <time>2024-07-12T16:16:44.693Z</time>
      </trkpt>
      <trkpt lat="50.62653" lon="1.93393">
        <ele>136.43</ele>
        <time>2024-07-12T16:16:49.660Z</time>
      </trkpt>
      <trkpt lat="50.62636" lon="1.93439">
        <ele>134.89</ele>
        <time>2024-07-12T16:16:54.633Z</time>
      </trkpt>
      <trkpt lat="50.62606" lon="1.93514">
        <ele>134.43</ele>
        <time>2024-07-12T16:16:59.615Z</time>
      </trkpt>
      <trkpt lat="50.626" lon="1.93529">
        <ele>134.57</ele>
        <time>2024-07-12T16:17:04.598Z</time>
      </trkpt>
      <trkpt lat="50.62576" lon="1.93589">
        <ele>135.73</ele>
        <time>2024-07-12T16:17:09.589Z</time>
      </trkpt>
      <trkpt lat="50.62568" lon="1.93605">
        <ele>136.29</ele>
        <time>2024-07-12T16:17:14.582Z</time>
      </trkpt>
      <trkpt lat="50.62561" lon="1.93617">
        <ele>136.73</ele>
        <time>2024-07-12T16:17:19.576Z</time>
      </trkpt>
      <trkpt lat="50.62558" lon="1.93623">
        <ele>137</ele>
        <time>2024-07-12T16:17:24.571Z</time>
      </trkpt>
      <trkpt lat="50.6255" lon="1.93636">
        <ele>138.33</ele>
        <time>2024-07-12T16:17:29.568Z</time>
      </trkpt>
      <trkpt lat="50.62544" lon="1.93646">
        <ele>139.45</ele>
        <time>2024-07-12T16:17:34.566Z</time>
      </trkpt>
      <trkpt lat="50.62541" lon="1.93651">
        <ele>139.97</ele>
        <time>2024-07-12T16:17:39.565Z</time>
      </trkpt>
      <trkpt lat="50.62537" lon="1.93657">
        <ele>140.66</ele>
        <time>2024-07-12T16:17:44.565Z</time>
      </trkpt>
      <trkpt lat="50.62532" lon="1.93666">
        <ele>141.62</ele>
        <time>2024-07-12T16:17:49.566Z</time>
      </trkpt>
      <trkpt lat="50.62529" lon="1.93672">
        <ele>142.28</ele>
        <time>2024-07-12T16:17:54.568Z</time>
      </trkpt>
      <trkpt lat="50.62524" lon="1.93678">
        <ele>142.68</ele>
        <time>2024-07-12T16:17:59.571Z</time>
      </trkpt>
      <trkpt lat="50.62522" lon="1.93682">
        <ele>142.85</ele>
        <time>2024-07-12T16:18:04.575Z</time>
      </trkpt>
      <trkpt lat="50.62517" lon="1.93688">
        <ele>143.17</ele>
        <time>2024-07-12T16:18:09.580Z</time>
      </trkpt>
      <trkpt lat="50.62515" lon="1.93693">
        <ele>143.39</ele>
        <time>2024-07-12T16:18:14.585Z</time>
      </trkpt>
      <trkpt lat="50.62509" lon="1.93701">
        <ele>143.82</ele>
        <time>2024-07-12T16:18:19.591Z</time>
      </trkpt>
      <trkpt lat="50.62507" lon="1.93704">
        <ele>143.97</ele>
        <time>2024-07-12T16:18:24.598Z</time>
      </trkpt>
      <trkpt lat="50.62505" lon="1.93709">
        <ele>144.24</ele>
        <time>2024-07-12T16:18:29.605Z</time>
      </trkpt>
      <trkpt lat="50.625" lon="1.93718">
        <ele>145.37</ele>
        <time>2024-07-12T16:18:34.614Z</time>
      </trkpt>
      <trkpt lat="50.62495" lon="1.93731">
        <ele>146.59</ele>
        <time>2024-07-12T16:18:39.624Z</time>
      </trkpt>
      <trkpt lat="50.62494" lon="1.93734">
        <ele>146.67</ele>
        <time>2024-07-12T16:18:44.634Z</time>
      </trkpt>
      <trkpt lat="50.62492" lon="1.93744">
        <ele>147.23</ele>
        <time>2024-07-12T16:18:49.645Z</time>
      </trkpt>
      <trkpt lat="50.6249" lon="1.93754">
        <ele>147.88</ele>
        <time>2024-07-12T16:18:54.658Z</time>
      </trkpt>
      <trkpt lat="50.62489" lon="1.93756">
        <ele>147.99</ele>
        <time>2024-07-12T16:18:59.671Z</time>
      </trkpt>
      <trkpt lat="50.62486" lon="1.93766">
        <ele>148.67</ele>
        <time>2024-07-12T16:19:04.685Z</time>
      </trkpt>
      <trkpt lat="50.62485" lon="1.93769">
        <ele>148.84</ele>
        <time>2024-07-12T16:19:09.699Z</time>
      </trkpt>
      <trkpt lat="50.62482" lon="1.93783">
        <ele>150.28</ele>
        <time>2024-07-12T16:19:14.715Z</time>
      </trkpt>
      <trkpt lat="50.62482" lon="1.93785">
        <ele>150.46</ele>
        <time>2024-07-12T16:19:19.731Z</time>
      </trkpt>
      <trkpt lat="50.62479" lon="1.93797">
        <ele>151.76</ele>
        <time>2024-07-12T16:19:24.748Z</time>
      </trkpt>
      <trkpt lat="50.62475" lon="1.9381">
        <ele>153.14</ele>
        <time>2024-07-12T16:19:29.767Z</time>
      </trkpt>
      <trkpt lat="50.62474" lon="1.93813">
        <ele>153.55</ele>
        <time>2024-07-12T16:19:34.786Z</time>
      </trkpt>
      <trkpt lat="50.6247" lon="1.93832">
        <ele>155.04</ele>
        <time>2024-07-12T16:19:39.807Z</time>
      </trkpt>
      <trkpt lat="50.6247" lon="1.93834">
        <ele>155.17</ele>
        <time>2024-07-12T16:19:44.828Z</time>
      </trkpt>
      <trkpt lat="50.62464" lon="1.93852">
        <ele>156</ele>
        <time>2024-07-12T16:19:49.851Z</time>
      </trkpt>
      <trkpt lat="50.62459" lon="1.93873">
        <ele>156</ele>
        <time>2024-07-12T16:19:54.877Z</time>
      </trkpt>
      <trkpt lat="50.62458" lon="1.93877">
        <ele>156</ele>
        <time>2024-07-12T16:19:59.903Z</time>
      </trkpt>
      <trkpt lat="50.62458" lon="1.93877">
        <ele>156</ele>
        <time>2024-07-12T16:20:04.929Z</time>
      </trkpt>
      <trkpt lat="50.62457" lon="1.93879">
        <ele>156</ele>
        <time>2024-07-12T16:20:09.955Z</time>
      </trkpt>
      <trkpt lat="50.62456" lon="1.93889">
        <ele>156</ele>
        <time>2024-07-12T16:20:14.982Z</time>
      </trkpt>
      <trkpt lat="50.62452" lon="1.93908">
        <ele>156</ele>
        <time>2024-07-12T16:20:20.011Z</time>
      </trkpt>
      <trkpt lat="50.62446" lon="1.93943">
        <ele>156</ele>
        <time>2024-07-12T16:20:25.044Z</time>
      </trkpt>
      <trkpt lat="50.62443" lon="1.93981">
        <ele>155.12</ele>
        <time>2024-07-12T16:20:30.081Z</time>
      </trkpt>
      <trkpt lat="50.62437" lon="1.94042">
        <ele>154.19</ele>
        <time>2024-07-12T16:20:35.124Z</time>
      </trkpt>
      <trkpt lat="50.62436" lon="1.94054">
        <ele>154.1</ele>
        <time>2024-07-12T16:20:40.169Z</time>
      </trkpt>
      <trkpt lat="50.62431" lon="1.94116">
        <ele>152.64</ele>
        <time>2024-07-12T16:20:45.220Z</time>
      </trkpt>
      <trkpt lat="50.62431" lon="1.94129">
        <ele>152.37</ele>
        <time>2024-07-12T16:20:50.272Z</time>
      </trkpt>
      <trkpt lat="50.62422" lon="1.94198">
        <ele>152.04</ele>
        <time>2024-07-12T16:20:55.331Z</time>
      </trkpt>
      <trkpt lat="50.62412" lon="1.94227">
        <ele>152.71</ele>
        <time>2024-07-12T16:21:00.394Z</time>
      </trkpt>
      <trkpt lat="50.62405" lon="1.94243">
        <ele>153.3</ele>
        <time>2024-07-12T16:21:05.459Z</time>
      </trkpt>
      <trkpt lat="50.62387" lon="1.94283">
        <ele>154.51</ele>
        <time>2024-07-12T16:21:10.529Z</time>
      </trkpt>
      <trkpt lat="50.62376" lon="1.94303">
        <ele>154.46</ele>
        <time>2024-07-12T16:21:15.601Z</time>
      </trkpt>
      <trkpt lat="50.62367" lon="1.94322">
        <ele>155.09</ele>
        <time>2024-07-12T16:21:20.676Z</time>
      </trkpt>
      <trkpt lat="50.62363" lon="1.94332">
        <ele>154.94</ele>
        <time>2024-07-12T16:21:25.752Z</time>
      </trkpt>
      <trkpt lat="50.6235" lon="1.9436">
        <ele>155</ele>
        <time>2024-07-12T16:21:30.832Z</time>
      </trkpt>
      <trkpt lat="50.62333" lon="1.94398">
        <ele>155</ele>
        <time>2024-07-12T16:21:35.916Z</time>
      </trkpt>
      <trkpt lat="50.62315" lon="1.9444">
        <ele>155</ele>
        <time>2024-07-12T16:21:41.006Z</time>
      </trkpt>
      <trkpt lat="50.62293" lon="1.94485">
        <ele>154.43</ele>
        <time>2024-07-12T16:21:46.101Z</time>
      </trkpt>
      <trkpt lat="50.62288" lon="1.94494">
        <ele>154.25</ele>
        <time>2024-07-12T16:21:51.197Z</time>
      </trkpt>
      <trkpt lat="50.62273" lon="1.94522">
        <ele>153.34</ele>
        <time>2024-07-12T16:21:56.297Z</time>
      </trkpt>
      <trkpt lat="50.62256" lon="1.94551">
        <ele>151.68</ele>
        <time>2024-07-12T16:22:01.401Z</time>
      </trkpt>
      <trkpt lat="50.62251" lon="1.94561">
        <ele>151.03</ele>
        <time>2024-07-12T16:22:06.507Z</time>
      </trkpt>
      <trkpt lat="50.6224" lon="1.94582">
        <ele>149.55</ele>
        <time>2024-07-12T16:22:11.615Z</time>
      </trkpt>
      <trkpt lat="50.62227" lon="1.94616">
        <ele>148.33</ele>
        <time>2024-07-12T16:22:16.727Z</time>
      </trkpt>
      <trkpt lat="50.62222" lon="1.94628">
        <ele>148.03</ele>
        <time>2024-07-12T16:22:21.841Z</time>
      </trkpt>
      <trkpt lat="50.62205" lon="1.94677">
        <ele>147.52</ele>
        <time>2024-07-12T16:22:26.960Z</time>
      </trkpt>
      <trkpt lat="50.62187" lon="1.94724">
        <ele>148.24</ele>
        <time>2024-07-12T16:22:32.085Z</time>
      </trkpt>
      <trkpt lat="50.62167" lon="1.94769">
        <ele>150.61</ele>
        <time>2024-07-12T16:22:37.216Z</time>
      </trkpt>
      <trkpt lat="50.62154" lon="1.94797">
        <ele>152.24</ele>
        <time>2024-07-12T16:22:42.350Z</time>
      </trkpt>
      <trkpt lat="50.62152" lon="1.94803">
        <ele>152.46</ele>
        <time>2024-07-12T16:22:47.485Z</time>
      </trkpt>
      <trkpt lat="50.6215" lon="1.94808">
        <ele>152.65</ele>
        <time>2024-07-12T16:22:52.621Z</time>
      </trkpt>
      <trkpt lat="50.62142" lon="1.94833">
        <ele>153.55</ele>
        <time>2024-07-12T16:22:57.759Z</time>
      </trkpt>
      <trkpt lat="50.62136" lon="1.94855">
        <ele>154.34</ele>
        <time>2024-07-12T16:23:02.900Z</time>
      </trkpt>
      <trkpt lat="50.62133" lon="1.94864">
        <ele>154.66</ele>
        <time>2024-07-12T16:23:08.042Z</time>
      </trkpt>
      <trkpt lat="50.62121" lon="1.9491">
        <ele>155.07</ele>
        <time>2024-07-12T16:23:13.189Z</time>
      </trkpt>
      <trkpt lat="50.62105" lon="1.94951">
        <ele>155.63</ele>
        <time>2024-07-12T16:23:18.341Z</time>
      </trkpt>
      <trkpt lat="50.62082" lon="1.94999">
        <ele>153.29</ele>
        <time>2024-07-12T16:23:23.499Z</time>
      </trkpt>
      <trkpt lat="50.62078" lon="1.95008">
        <ele>152.86</ele>
        <time>2024-07-12T16:23:28.658Z</time>
      </trkpt>
      <trkpt lat="50.62072" lon="1.95025">
        <ele>151.58</ele>
        <time>2024-07-12T16:23:33.819Z</time>
      </trkpt>
      <trkpt lat="50.62066" lon="1.95045">
        <ele>150.06</ele>
        <time>2024-07-12T16:23:38.982Z</time>
      </trkpt>
      <trkpt lat="50.62059" lon="1.95071">
        <ele>148.92</ele>
        <time>2024-07-12T16:23:44.148Z</time>
      </trkpt>
      <trkpt lat="50.62056" lon="1.95085">
        <ele>148.27</ele>
        <time>2024-07-12T16:23:49.316Z</time>
      </trkpt>
      <trkpt lat="50.62045" lon="1.95133">
        <ele>147.01</ele>
        <time>2024-07-12T16:23:54.489Z</time>
      </trkpt>
      <trkpt lat="50.62043" lon="1.95142">
        <ele>146.62</ele>
        <time>2024-07-12T16:23:59.663Z</time>
      </trkpt>
      <trkpt lat="50.62039" lon="1.9516">
        <ele>145.52</ele>
        <time>2024-07-12T16:24:04.839Z</time>
      </trkpt>
      <trkpt lat="50.62036" lon="1.95168">
        <ele>145.33</ele>
        <time>2024-07-12T16:24:10.016Z</time>
      </trkpt>
      <trkpt lat="50.62029" lon="1.95187">
        <ele>145.2</ele>
        <time>2024-07-12T16:24:15.195Z</time>
      </trkpt>
      <trkpt lat="50.62028" lon="1.9519">
        <ele>145.26</ele>
        <time>2024-07-12T16:24:20.374Z</time>
      </trkpt>
      <trkpt lat="50.62027" lon="1.95191">
        <ele>145.27</ele>
        <time>2024-07-12T16:24:25.553Z</time>
      </trkpt>
      <trkpt lat="50.62027" lon="1.95191">
        <ele>145.26</ele>
        <time>2024-07-12T16:24:30.732Z</time>
      </trkpt>
      <trkpt lat="50.62027" lon="1.95193">
        <ele>145.36</ele>
        <time>2024-07-12T16:24:35.912Z</time>
      </trkpt>
      <trkpt lat="50.62028" lon="1.95199">
        <ele>145.57</ele>
        <time>2024-07-12T16:24:41.092Z</time>
      </trkpt>
      <trkpt lat="50.62033" lon="1.95218">
        <ele>146.05</ele>
        <time>2024-07-12T16:24:46.275Z</time>
      </trkpt>
      <trkpt lat="50.62039" lon="1.95246">
        <ele>146.41</ele>
        <time>2024-07-12T16:24:51.461Z</time>
      </trkpt>
      <trkpt lat="50.62047" lon="1.95276">
        <ele>147.49</ele>
        <time>2024-07-12T16:24:56.650Z</time>
      </trkpt>
      <trkpt lat="50.62053" lon="1.95301">
        <ele>148.37</ele>
        <time>2024-07-12T16:25:01.842Z</time>
      </trkpt>
      <trkpt lat="50.62054" lon="1.95306">
        <ele>148.55</ele>
        <time>2024-07-12T16:25:07.034Z</time>
      </trkpt>
      <trkpt lat="50.62059" lon="1.95329">
        <ele>149.39</ele>
        <time>2024-07-12T16:25:12.229Z</time>
      </trkpt>
      <trkpt lat="50.62061" lon="1.95346">
        <ele>149.99</ele>
        <time>2024-07-12T16:25:17.425Z</time>
      </trkpt>
      <trkpt lat="50.62065" lon="1.95375">
        <ele>151.05</ele>
        <time>2024-07-12T16:25:22.624Z</time>
      </trkpt>
      <trkpt lat="50.62067" lon="1.95402">
        <ele>151.29</ele>
        <time>2024-07-12T16:25:27.826Z</time>
      </trkpt>
      <trkpt lat="50.62068" lon="1.95417">
        <ele>151.66</ele>
        <time>2024-07-12T16:25:33.030Z</time>
      </trkpt>
      <trkpt lat="50.62068" lon="1.95439">
        <ele>151.61</ele>
        <time>2024-07-12T16:25:38.236Z</time>
      </trkpt>
      <trkpt lat="50.62061" lon="1.95464">
        <ele>151.08</ele>
        <time>2024-07-12T16:25:43.445Z</time>
      </trkpt>
      <trkpt lat="50.62057" lon="1.95475">
        <ele>151</ele>
        <time>2024-07-12T16:25:48.655Z</time>
      </trkpt>
      <trkpt lat="50.62041" lon="1.95519">
        <ele>150.34</ele>
        <time>2024-07-12T16:25:53.870Z</time>
      </trkpt>
      <trkpt lat="50.62031" lon="1.95567">
        <ele>149.96</ele>
        <time>2024-07-12T16:25:59.090Z</time>
      </trkpt>
      <trkpt lat="50.62021" lon="1.9565">
        <ele>151</ele>
        <time>2024-07-12T16:26:04.319Z</time>
      </trkpt>
      <trkpt lat="50.6202" lon="1.95657">
        <ele>151</ele>
        <time>2024-07-12T16:26:09.549Z</time>
      </trkpt>
      <trkpt lat="50.62016" lon="1.95713">
        <ele>152</ele>
        <time>2024-07-12T16:26:14.784Z</time>
      </trkpt>
      <trkpt lat="50.62012" lon="1.95738">
        <ele>152.71</ele>
        <time>2024-07-12T16:26:20.022Z</time>
      </trkpt>
      <trkpt lat="50.62005" lon="1.95762">
        <ele>153.84</ele>
        <time>2024-07-12T16:26:25.263Z</time>
      </trkpt>
      <trkpt lat="50.61987" lon="1.95813">
        <ele>154.39</ele>
        <time>2024-07-12T16:26:30.510Z</time>
      </trkpt>
      <trkpt lat="50.61985" lon="1.95818">
        <ele>154.67</ele>
        <time>2024-07-12T16:26:35.757Z</time>
      </trkpt>
      <trkpt lat="50.61963" lon="1.95869">
        <ele>155.81</ele>
        <time>2024-07-12T16:26:41.010Z</time>
      </trkpt>
      <trkpt lat="50.61956" lon="1.95884">
        <ele>156.29</ele>
        <time>2024-07-12T16:26:46.265Z</time>
      </trkpt>
      <trkpt lat="50.61943" lon="1.9591">
        <ele>156.3</ele>
        <time>2024-07-12T16:26:51.524Z</time>
      </trkpt>
      <trkpt lat="50.61933" lon="1.95928">
        <ele>156.45</ele>
        <time>2024-07-12T16:26:56.785Z</time>
      </trkpt>
      <trkpt lat="50.61923" lon="1.95944">
        <ele>156.63</ele>
        <time>2024-07-12T16:27:02.048Z</time>
      </trkpt>
      <trkpt lat="50.61915" lon="1.9596">
        <ele>157.28</ele>
        <time>2024-07-12T16:27:07.314Z</time>
      </trkpt>
      <trkpt lat="50.61906" lon="1.95978">
        <ele>158.24</ele>
        <time>2024-07-12T16:27:12.582Z</time>
      </trkpt>
      <trkpt lat="50.61902" lon="1.9599">
        <ele>158.82</ele>
        <time>2024-07-12T16:27:17.851Z</time>
      </trkpt>
      <trkpt lat="50.61894" lon="1.9601">
        <ele>160.68</ele>
        <time>2024-07-12T16:27:23.123Z</time>
      </trkpt>
      <trkpt lat="50.61893" lon="1.96014">
        <ele>160.98</ele>
        <time>2024-07-12T16:27:28.395Z</time>
      </trkpt>
      <trkpt lat="50.61881" lon="1.96043">
        <ele>162.49</ele>
        <time>2024-07-12T16:27:33.671Z</time>
      </trkpt>
      <trkpt lat="50.6187" lon="1.96079">
        <ele>164.17</ele>
        <time>2024-07-12T16:27:38.951Z</time>
      </trkpt>
      <trkpt lat="50.61868" lon="1.96083">
        <ele>164.37</ele>
        <time>2024-07-12T16:27:44.231Z</time>
      </trkpt>
      <trkpt lat="50.61858" lon="1.96115">
        <ele>165.45</ele>
        <time>2024-07-12T16:27:49.515Z</time>
      </trkpt>
      <trkpt lat="50.61849" lon="1.96143">
        <ele>164.75</ele>
        <time>2024-07-12T16:27:54.802Z</time>
      </trkpt>
      <trkpt lat="50.61847" lon="1.9615">
        <ele>164.45</ele>
        <time>2024-07-12T16:28:00.090Z</time>
      </trkpt>
      <trkpt lat="50.61837" lon="1.96187">
        <ele>162.73</ele>
        <time>2024-07-12T16:28:05.382Z</time>
      </trkpt>
      <trkpt lat="50.61824" lon="1.96249">
        <ele>161.54</ele>
        <time>2024-07-12T16:28:10.681Z</time>
      </trkpt>
      <trkpt lat="50.61806" lon="1.96333">
        <ele>160.66</ele>
        <time>2024-07-12T16:28:15.989Z</time>
      </trkpt>
      <trkpt lat="50.61786" lon="1.96424">
        <ele>160.17</ele>
        <time>2024-07-12T16:28:21.306Z</time>
      </trkpt>
      <trkpt lat="50.61781" lon="1.96447">
        <ele>159.98</ele>
        <time>2024-07-12T16:28:26.626Z</time>
      </trkpt>
      <trkpt lat="50.61766" lon="1.96518">
        <ele>157.92</ele>
        <time>2024-07-12T16:28:31.953Z</time>
      </trkpt>
      <trkpt lat="50.61762" lon="1.96543">
        <ele>157.61</ele>
        <time>2024-07-12T16:28:37.283Z</time>
      </trkpt>
      <trkpt lat="50.61748" lon="1.9663">
        <ele>157.6</ele>
        <time>2024-07-12T16:28:42.622Z</time>
      </trkpt>
      <trkpt lat="50.61741" lon="1.96667">
        <ele>157.13</ele>
        <time>2024-07-12T16:28:47.965Z</time>
      </trkpt>
      <trkpt lat="50.61739" lon="1.96679">
        <ele>157.45</ele>
        <time>2024-07-12T16:28:53.309Z</time>
      </trkpt>
      <trkpt lat="50.61724" lon="1.96758">
        <ele>157.92</ele>
        <time>2024-07-12T16:28:58.662Z</time>
      </trkpt>
      <trkpt lat="50.61714" lon="1.9684">
        <ele>158.57</ele>
        <time>2024-07-12T16:29:04.023Z</time>
      </trkpt>
      <trkpt lat="50.61716" lon="1.9691">
        <ele>158</ele>
        <time>2024-07-12T16:29:09.391Z</time>
      </trkpt>
      <trkpt lat="50.61718" lon="1.96948">
        <ele>158</ele>
        <time>2024-07-12T16:29:14.763Z</time>
      </trkpt>
      <trkpt lat="50.61721" lon="1.96999">
        <ele>157.49</ele>
        <time>2024-07-12T16:29:20.141Z</time>
      </trkpt>
      <trkpt lat="50.61727" lon="1.97085">
        <ele>158.94</ele>
        <time>2024-07-12T16:29:25.527Z</time>
      </trkpt>
      <trkpt lat="50.61728" lon="1.97096">
        <ele>158.91</ele>
        <time>2024-07-12T16:29:30.915Z</time>
      </trkpt>
      <trkpt lat="50.61733" lon="1.97175">
        <ele>156.88</ele>
        <time>2024-07-12T16:29:36.311Z</time>
      </trkpt>
      <trkpt lat="50.61734" lon="1.97199">
        <ele>156.67</ele>
        <time>2024-07-12T16:29:41.709Z</time>
      </trkpt>
      <trkpt lat="50.61739" lon="1.97262">
        <ele>156.51</ele>
        <time>2024-07-12T16:29:47.114Z</time>
      </trkpt>
      <trkpt lat="50.61742" lon="1.97301">
        <ele>156</ele>
        <time>2024-07-12T16:29:52.523Z</time>
      </trkpt>
      <trkpt lat="50.61743" lon="1.97314">
        <ele>155.77</ele>
        <time>2024-07-12T16:29:57.933Z</time>
      </trkpt>
      <trkpt lat="50.61749" lon="1.97367">
        <ele>153.36</ele>
        <time>2024-07-12T16:30:03.348Z</time>
      </trkpt>
      <trkpt lat="50.61756" lon="1.97421">
        <ele>152</ele>
        <time>2024-07-12T16:30:08.769Z</time>
      </trkpt>
      <trkpt lat="50.6176" lon="1.97467">
        <ele>150.67</ele>
        <time>2024-07-12T16:30:14.195Z</time>
      </trkpt>
      <trkpt lat="50.6176" lon="1.97499">
        <ele>149.49</ele>
        <time>2024-07-12T16:30:19.624Z</time>
      </trkpt>
      <trkpt lat="50.6176" lon="1.97533">
        <ele>148.27</ele>
        <time>2024-07-12T16:30:25.056Z</time>
      </trkpt>
      <trkpt lat="50.61757" lon="1.97596">
        <ele>146</ele>
        <time>2024-07-12T16:30:30.495Z</time>
      </trkpt>
      <trkpt lat="50.61756" lon="1.97611">
        <ele>146.08</ele>
        <time>2024-07-12T16:30:35.935Z</time>
      </trkpt>
      <trkpt lat="50.61748" lon="1.97678">
        <ele>148.75</ele>
        <time>2024-07-12T16:30:41.382Z</time>
      </trkpt>
      <trkpt lat="50.61738" lon="1.97728">
        <ele>150.9</ele>
        <time>2024-07-12T16:30:46.835Z</time>
      </trkpt>
      <trkpt lat="50.6173" lon="1.97761">
        <ele>152.04</ele>
        <time>2024-07-12T16:30:52.291Z</time>
      </trkpt>
      <trkpt lat="50.61724" lon="1.97784">
        <ele>152.6</ele>
        <time>2024-07-12T16:30:57.750Z</time>
      </trkpt>
      <trkpt lat="50.61721" lon="1.97796">
        <ele>152.86</ele>
        <time>2024-07-12T16:31:03.210Z</time>
      </trkpt>
      <trkpt lat="50.61717" lon="1.97809">
        <ele>153.06</ele>
        <time>2024-07-12T16:31:08.672Z</time>
      </trkpt>
      <trkpt lat="50.6171" lon="1.9784">
        <ele>153.22</ele>
        <time>2024-07-12T16:31:14.137Z</time>
      </trkpt>
      <trkpt lat="50.61704" lon="1.9787">
        <ele>154.03</ele>
        <time>2024-07-12T16:31:19.605Z</time>
      </trkpt>
      <trkpt lat="50.61701" lon="1.97884">
        <ele>154.46</ele>
        <time>2024-07-12T16:31:25.075Z</time>
      </trkpt>
      <trkpt lat="50.61695" lon="1.9794">
        <ele>154.53</ele>
        <time>2024-07-12T16:31:30.551Z</time>
      </trkpt>
      <trkpt lat="50.61691" lon="1.98016">
        <ele>153.76</ele>
        <time>2024-07-12T16:31:36.034Z</time>
      </trkpt>
      <trkpt lat="50.61687" lon="1.98102">
        <ele>155.26</ele>
        <time>2024-07-12T16:31:41.526Z</time>
      </trkpt>
      <trkpt lat="50.61676" lon="1.98181">
        <ele>156.2</ele>
        <time>2024-07-12T16:31:47.026Z</time>
      </trkpt>
      <trkpt lat="50.61662" lon="1.98236">
        <ele>157.01</ele>
        <time>2024-07-12T16:31:52.532Z</time>
      </trkpt>
      <trkpt lat="50.61657" lon="1.98256">
        <ele>157.74</ele>
        <time>2024-07-12T16:31:58.041Z</time>
      </trkpt>
      <trkpt lat="50.6165" lon="1.98282">
        <ele>158.65</ele>
        <time>2024-07-12T16:32:03.552Z</time>
      </trkpt>
      <trkpt lat="50.61643" lon="1.98316">
        <ele>159.9</ele>
        <time>2024-07-12T16:32:09.067Z</time>
      </trkpt>
      <trkpt lat="50.6164" lon="1.98334">
        <ele>159.94</ele>
        <time>2024-07-12T16:32:14.584Z</time>
      </trkpt>
      <trkpt lat="50.61638" lon="1.98367">
        <ele>160.86</ele>
        <time>2024-07-12T16:32:20.104Z</time>
      </trkpt>
      <trkpt lat="50.61638" lon="1.98388">
        <ele>162.13</ele>
        <time>2024-07-12T16:32:25.627Z</time>
      </trkpt>
      <trkpt lat="50.61637" lon="1.98405">
        <ele>163.09</ele>
        <time>2024-07-12T16:32:31.151Z</time>
      </trkpt>
      <trkpt lat="50.61638" lon="1.98443">
        <ele>164</ele>
        <time>2024-07-12T16:32:36.679Z</time>
      </trkpt>
      <trkpt lat="50.61638" lon="1.98448">
        <ele>164</ele>
        <time>2024-07-12T16:32:42.208Z</time>
      </trkpt>
      <trkpt lat="50.61637" lon="1.98488">
        <ele>164.66</ele>
        <time>2024-07-12T16:32:47.741Z</time>
      </trkpt>
      <trkpt lat="50.61638" lon="1.98499">
        <ele>164.66</ele>
        <time>2024-07-12T16:32:53.275Z</time>
      </trkpt>
      <trkpt lat="50.61637" lon="1.98531">
        <ele>165.61</ele>
        <time>2024-07-12T16:32:58.812Z</time>
      </trkpt>
      <trkpt lat="50.61635" lon="1.98557">
        <ele>167.41</ele>
        <time>2024-07-12T16:33:04.352Z</time>
      </trkpt>
      <trkpt lat="50.61633" lon="1.98579">
        <ele>168.69</ele>
        <time>2024-07-12T16:33:09.894Z</time>
      </trkpt>
      <trkpt lat="50.6163" lon="1.98601">
        <ele>169.58</ele>
        <time>2024-07-12T16:33:15.438Z</time>
      </trkpt>
      <trkpt lat="50.61627" lon="1.98629">
        <ele>170</ele>
        <time>2024-07-12T16:33:20.985Z</time>
      </trkpt>
      <trkpt lat="50.61626" lon="1.9865">
        <ele>170.46</ele>
        <time>2024-07-12T16:33:26.534Z</time>
      </trkpt>
      <trkpt lat="50.61626" lon="1.98685">
        <ele>170</ele>
        <time>2024-07-12T16:33:32.087Z</time>
      </trkpt>
      <trkpt lat="50.61626" lon="1.9869">
        <ele>170</ele>
        <time>2024-07-12T16:33:37.640Z</time>
      </trkpt>
      <trkpt lat="50.61631" lon="1.9873">
        <ele>170.22</ele>
        <time>2024-07-12T16:33:43.198Z</time>
      </trkpt>
      <trkpt lat="50.61635" lon="1.98768">
        <ele>170.26</ele>
        <time>2024-07-12T16:33:48.759Z</time>
      </trkpt>
      <trkpt lat="50.61638" lon="1.98806">
        <ele>170.27</ele>
        <time>2024-07-12T16:33:54.324Z</time>
      </trkpt>
      <trkpt lat="50.61642" lon="1.98839">
        <ele>169.27</ele>
        <time>2024-07-12T16:33:59.893Z</time>
      </trkpt>
      <trkpt lat="50.61645" lon="1.98851">
        <ele>168.71</ele>
        <time>2024-07-12T16:34:05.463Z</time>
      </trkpt>
      <trkpt lat="50.61656" lon="1.98882">
        <ele>166.73</ele>
        <time>2024-07-12T16:34:11.037Z</time>
      </trkpt>
      <trkpt lat="50.6166" lon="1.98891">
        <ele>166.4</ele>
        <time>2024-07-12T16:34:16.612Z</time>
      </trkpt>
      <trkpt lat="50.61668" lon="1.98914">
        <ele>165.58</ele>
        <time>2024-07-12T16:34:22.190Z</time>
      </trkpt>
      <trkpt lat="50.6167" lon="1.9892">
        <ele>165.35</ele>
        <time>2024-07-12T16:34:27.768Z</time>
      </trkpt>
      <trkpt lat="50.61671" lon="1.98927">
        <ele>165.12</ele>
        <time>2024-07-12T16:34:33.347Z</time>
      </trkpt>
      <trkpt lat="50.61669" lon="1.98938">
        <ele>164.72</ele>
        <time>2024-07-12T16:34:38.927Z</time>
      </trkpt>
      <trkpt lat="50.61659" lon="1.98968">
        <ele>164.01</ele>
        <time>2024-07-12T16:34:44.511Z</time>
      </trkpt>
      <trkpt lat="50.6165" lon="1.99018">
        <ele>163.69</ele>
        <time>2024-07-12T16:34:50.100Z</time>
      </trkpt>
      <trkpt lat="50.61637" lon="1.99103">
        <ele>164.36</ele>
        <time>2024-07-12T16:34:55.698Z</time>
      </trkpt>
      <trkpt lat="50.61619" lon="1.99189">
        <ele>163.82</ele>
        <time>2024-07-12T16:35:01.305Z</time>
      </trkpt>
      <trkpt lat="50.61599" lon="1.99237">
        <ele>164.58</ele>
        <time>2024-07-12T16:35:06.918Z</time>
      </trkpt>
      <trkpt lat="50.61568" lon="1.993">
        <ele>166.67</ele>
        <time>2024-07-12T16:35:12.539Z</time>
      </trkpt>
      <trkpt lat="50.61535" lon="1.99365">
        <ele>166.04</ele>
        <time>2024-07-12T16:35:18.168Z</time>
      </trkpt>
      <trkpt lat="50.61508" lon="1.99422">
        <ele>164.97</ele>
        <time>2024-07-12T16:35:23.805Z</time>
      </trkpt>
      <trkpt lat="50.61497" lon="1.99446">
        <ele>164.65</ele>
        <time>2024-07-12T16:35:29.445Z</time>
      </trkpt>
      <trkpt lat="50.61495" lon="1.99452">
        <ele>164.57</ele>
        <time>2024-07-12T16:35:35.085Z</time>
      </trkpt>
      <trkpt lat="50.61496" lon="1.99458">
        <ele>164.54</ele>
        <time>2024-07-12T16:35:40.726Z</time>
      </trkpt>
      <trkpt lat="50.61501" lon="1.99466">
        <ele>164.16</ele>
        <time>2024-07-12T16:35:46.368Z</time>
      </trkpt>
      <trkpt lat="50.61522" lon="1.99474">
        <ele>162.75</ele>
        <time>2024-07-12T16:35:52.014Z</time>
      </trkpt>
      <trkpt lat="50.61565" lon="1.99487">
        <ele>162</ele>
        <time>2024-07-12T16:35:57.667Z</time>
      </trkpt>
      <trkpt lat="50.61586" lon="1.99491">
        <ele>162</ele>
        <time>2024-07-12T16:36:03.323Z</time>
      </trkpt>
      <trkpt lat="50.61615" lon="1.995">
        <ele>161.48</ele>
        <time>2024-07-12T16:36:08.984Z</time>
      </trkpt>
      <trkpt lat="50.61673" lon="1.99517">
        <ele>161</ele>
        <time>2024-07-12T16:36:14.654Z</time>
      </trkpt>
      <trkpt lat="50.6168" lon="1.99519">
        <ele>161.17</ele>
        <time>2024-07-12T16:36:20.325Z</time>
      </trkpt>
      <trkpt lat="50.61707" lon="1.99527">
        <ele>161.52</ele>
        <time>2024-07-12T16:36:26.001Z</time>
      </trkpt>
      <trkpt lat="50.6174" lon="1.99539">
        <ele>161.1</ele>
        <time>2024-07-12T16:36:31.682Z</time>
      </trkpt>
      <trkpt lat="50.61797" lon="1.99558">
        <ele>161.42</ele>
        <time>2024-07-12T16:36:37.372Z</time>
      </trkpt>
      <trkpt lat="50.61843" lon="1.9957">
        <ele>160.53</ele>
        <time>2024-07-12T16:36:43.070Z</time>
      </trkpt>
      <trkpt lat="50.61849" lon="1.99574">
        <ele>159.91</ele>
        <time>2024-07-12T16:36:48.769Z</time>
      </trkpt>
      <trkpt lat="50.61856" lon="1.99581">
        <ele>159.24</ele>
        <time>2024-07-12T16:36:54.469Z</time>
      </trkpt>
      <trkpt lat="50.61861" lon="1.99588">
        <ele>158.58</ele>
        <time>2024-07-12T16:37:00.170Z</time>
      </trkpt>
      <trkpt lat="50.61867" lon="1.99596">
        <ele>157.87</ele>
        <time>2024-07-12T16:37:05.873Z</time>
      </trkpt>
      <trkpt lat="50.61871" lon="1.99605">
        <ele>157.46</ele>
        <time>2024-07-12T16:37:11.577Z</time>
      </trkpt>
      <trkpt lat="50.61883" lon="1.99635">
        <ele>156.35</ele>
        <time>2024-07-12T16:37:17.284Z</time>
      </trkpt>
      <trkpt lat="50.61899" lon="1.9969">
        <ele>155.44</ele>
        <time>2024-07-12T16:37:22.998Z</time>
      </trkpt>
      <trkpt lat="50.61912" lon="1.99736">
        <ele>153.59</ele>
        <time>2024-07-12T16:37:28.717Z</time>
      </trkpt>
      <trkpt lat="50.61915" lon="1.99748">
        <ele>153.34</ele>
        <time>2024-07-12T16:37:34.437Z</time>
      </trkpt>
      <trkpt lat="50.6193" lon="1.99798">
        <ele>152.62</ele>
        <time>2024-07-12T16:37:40.163Z</time>
      </trkpt>
      <trkpt lat="50.61943" lon="1.99837">
        <ele>151.53</ele>
        <time>2024-07-12T16:37:45.893Z</time>
      </trkpt>
      <trkpt lat="50.61947" lon="1.99851">
        <ele>150.87</ele>
        <time>2024-07-12T16:37:51.625Z</time>
      </trkpt>
      <trkpt lat="50.61956" lon="1.99879">
        <ele>149.54</ele>
        <time>2024-07-12T16:37:57.360Z</time>
      </trkpt>
      <trkpt lat="50.61971" lon="1.99921">
        <ele>148.16</ele>
        <time>2024-07-12T16:38:03.100Z</time>
      </trkpt>
      <trkpt lat="50.61981" lon="1.99949">
        <ele>147.79</ele>
        <time>2024-07-12T16:38:08.843Z</time>
      </trkpt>
      <trkpt lat="50.62007" lon="2.00032">
        <ele>146.51</ele>
        <time>2024-07-12T16:38:14.595Z</time>
      </trkpt>
      <trkpt lat="50.6201" lon="2.00046">
        <ele>146.9</ele>
        <time>2024-07-12T16:38:20.349Z</time>
      </trkpt>
      <trkpt lat="50.62019" lon="2.00102">
        <ele>147.25</ele>
        <time>2024-07-12T16:38:26.109Z</time>
      </trkpt>
      <trkpt lat="50.62023" lon="2.00131">
        <ele>146.81</ele>
        <time>2024-07-12T16:38:31.872Z</time>
      </trkpt>
      <trkpt lat="50.62034" lon="2.00205">
        <ele>144.8</ele>
        <time>2024-07-12T16:38:37.643Z</time>
      </trkpt>
      <trkpt lat="50.62042" lon="2.0025">
        <ele>144.22</ele>
        <time>2024-07-12T16:38:43.418Z</time>
      </trkpt>
      <trkpt lat="50.62045" lon="2.00265">
        <ele>143.99</ele>
        <time>2024-07-12T16:38:49.195Z</time>
      </trkpt>
      <trkpt lat="50.6205" lon="2.00296">
        <ele>142.17</ele>
        <time>2024-07-12T16:38:54.975Z</time>
      </trkpt>
      <trkpt lat="50.62056" lon="2.00327">
        <ele>140.73</ele>
        <time>2024-07-12T16:39:00.759Z</time>
      </trkpt>
      <trkpt lat="50.62061" lon="2.00358">
        <ele>139.91</ele>
        <time>2024-07-12T16:39:06.546Z</time>
      </trkpt>
      <trkpt lat="50.6207" lon="2.00406">
        <ele>139.59</ele>
        <time>2024-07-12T16:39:12.338Z</time>
      </trkpt>
      <trkpt lat="50.62073" lon="2.00421">
        <ele>139.63</ele>
        <time>2024-07-12T16:39:18.132Z</time>
      </trkpt>
      <trkpt lat="50.62088" lon="2.00498">
        <ele>140.35</ele>
        <time>2024-07-12T16:39:23.934Z</time>
      </trkpt>
      <trkpt lat="50.62104" lon="2.00574">
        <ele>139.83</ele>
        <time>2024-07-12T16:39:29.744Z</time>
      </trkpt>
      <trkpt lat="50.62123" lon="2.00665">
        <ele>139</ele>
        <time>2024-07-12T16:39:35.564Z</time>
      </trkpt>
      <trkpt lat="50.62135" lon="2.00722">
        <ele>137</ele>
        <time>2024-07-12T16:39:41.390Z</time>
      </trkpt>
      <trkpt lat="50.62145" lon="2.00764">
        <ele>135.81</ele>
        <time>2024-07-12T16:39:47.220Z</time>
      </trkpt>
      <trkpt lat="50.62161" lon="2.00831">
        <ele>135.75</ele>
        <time>2024-07-12T16:39:53.058Z</time>
      </trkpt>
      <trkpt lat="50.62163" lon="2.00845">
        <ele>136.14</ele>
        <time>2024-07-12T16:39:58.897Z</time>
      </trkpt>
      <trkpt lat="50.62172" lon="2.00914">
        <ele>138.26</ele>
        <time>2024-07-12T16:40:04.743Z</time>
      </trkpt>
      <trkpt lat="50.62174" lon="2.00928">
        <ele>138.6</ele>
        <time>2024-07-12T16:40:10.591Z</time>
      </trkpt>
      <trkpt lat="50.62181" lon="2.00969">
        <ele>137.03</ele>
        <time>2024-07-12T16:40:16.443Z</time>
      </trkpt>
      <trkpt lat="50.62191" lon="2.01007">
        <ele>133.47</ele>
        <time>2024-07-12T16:40:22.299Z</time>
      </trkpt>
      <trkpt lat="50.62196" lon="2.01018">
        <ele>132.17</ele>
        <time>2024-07-12T16:40:28.157Z</time>
      </trkpt>
      <trkpt lat="50.6221" lon="2.01048">
        <ele>130.55</ele>
        <time>2024-07-12T16:40:34.018Z</time>
      </trkpt>
      <trkpt lat="50.62215" lon="2.01058">
        <ele>130.39</ele>
        <time>2024-07-12T16:40:39.881Z</time>
      </trkpt>
      <trkpt lat="50.62225" lon="2.01076">
        <ele>130</ele>
        <time>2024-07-12T16:40:45.746Z</time>
      </trkpt>
      <trkpt lat="50.62238" lon="2.01099">
        <ele>130.05</ele>
        <time>2024-07-12T16:40:51.614Z</time>
      </trkpt>
      <trkpt lat="50.62241" lon="2.01106">
        <ele>130.3</ele>
        <time>2024-07-12T16:40:57.483Z</time>
      </trkpt>
      <trkpt lat="50.62243" lon="2.01121">
        <ele>130.63</ele>
        <time>2024-07-12T16:41:03.354Z</time>
      </trkpt>
      <trkpt lat="50.62243" lon="2.0113">
        <ele>130.47</ele>
        <time>2024-07-12T16:41:09.226Z</time>
      </trkpt>
      <trkpt lat="50.62242" lon="2.01138">
        <ele>130.14</ele>
        <time>2024-07-12T16:41:15.098Z</time>
      </trkpt>
      <trkpt lat="50.62237" lon="2.01154">
        <ele>129.4</ele>
        <time>2024-07-12T16:41:20.972Z</time>
      </trkpt>
      <trkpt lat="50.62216" lon="2.01215">
        <ele>128</ele>
        <time>2024-07-12T16:41:26.853Z</time>
      </trkpt>
      <trkpt lat="50.62213" lon="2.01224">
        <ele>128</ele>
        <time>2024-07-12T16:41:32.735Z</time>
      </trkpt>
      <trkpt lat="50.62188" lon="2.01286">
        <ele>128.86</ele>
        <time>2024-07-12T16:41:38.625Z</time>
      </trkpt>
      <trkpt lat="50.62182" lon="2.01301">
        <ele>128.42</ele>
        <time>2024-07-12T16:41:44.517Z</time>
      </trkpt>
      <trkpt lat="50.62173" lon="2.01321">
        <ele>128.1</ele>
        <time>2024-07-12T16:41:50.411Z</time>
      </trkpt>
      <trkpt lat="50.62156" lon="2.0137">
        <ele>126.68</ele>
        <time>2024-07-12T16:41:56.311Z</time>
      </trkpt>
      <trkpt lat="50.62147" lon="2.014">
        <ele>126.13</ele>
        <time>2024-07-12T16:42:02.214Z</time>
      </trkpt>
      <trkpt lat="50.62144" lon="2.01406">
        <ele>125.97</ele>
        <time>2024-07-12T16:42:08.118Z</time>
      </trkpt>
      <trkpt lat="50.62132" lon="2.01445">
        <ele>125</ele>
        <time>2024-07-12T16:42:14.026Z</time>
      </trkpt>
      <trkpt lat="50.62129" lon="2.01454">
        <ele>124.7</ele>
        <time>2024-07-12T16:42:19.935Z</time>
      </trkpt>
      <trkpt lat="50.62117" lon="2.01508">
        <ele>124.18</ele>
        <time>2024-07-12T16:42:25.850Z</time>
      </trkpt>
      <trkpt lat="50.62106" lon="2.01546">
        <ele>123.7</ele>
        <time>2024-07-12T16:42:31.770Z</time>
      </trkpt>
      <trkpt lat="50.62104" lon="2.01556">
        <ele>123.62</ele>
        <time>2024-07-12T16:42:37.691Z</time>
      </trkpt>
      <trkpt lat="50.62088" lon="2.01606">
        <ele>122.19</ele>
        <time>2024-07-12T16:42:43.617Z</time>
      </trkpt>
      <trkpt lat="50.62085" lon="2.01616">
        <ele>122.07</ele>
        <time>2024-07-12T16:42:49.544Z</time>
      </trkpt>
      <trkpt lat="50.6206" lon="2.01684">
        <ele>122.18</ele>
        <time>2024-07-12T16:42:55.479Z</time>
      </trkpt>
      <trkpt lat="50.62048" lon="2.01712">
        <ele>121.74</ele>
        <time>2024-07-12T16:43:01.418Z</time>
      </trkpt>
      <trkpt lat="50.62024" lon="2.0177">
        <ele>121.92</ele>
        <time>2024-07-12T16:43:07.364Z</time>
      </trkpt>
      <trkpt lat="50.62002" lon="2.0183">
        <ele>120.08</ele>
        <time>2024-07-12T16:43:13.317Z</time>
      </trkpt>
      <trkpt lat="50.62" lon="2.01839">
        <ele>120.22</ele>
        <time>2024-07-12T16:43:19.271Z</time>
      </trkpt>
      <trkpt lat="50.61997" lon="2.01859">
        <ele>120.85</ele>
        <time>2024-07-12T16:43:25.227Z</time>
      </trkpt>
      <trkpt lat="50.61994" lon="2.01883">
        <ele>121.63</ele>
        <time>2024-07-12T16:43:31.186Z</time>
      </trkpt>
      <trkpt lat="50.61989" lon="2.01903">
        <ele>122</ele>
        <time>2024-07-12T16:43:37.147Z</time>
      </trkpt>
      <trkpt lat="50.61986" lon="2.01918">
        <ele>122.38</ele>
        <time>2024-07-12T16:43:43.109Z</time>
      </trkpt>
      <trkpt lat="50.61986" lon="2.01927">
        <ele>122.36</ele>
        <time>2024-07-12T16:43:49.072Z</time>
      </trkpt>
      <trkpt lat="50.61986" lon="2.01945">
        <ele>122.76</ele>
        <time>2024-07-12T16:43:55.037Z</time>
      </trkpt>
      <trkpt lat="50.61986" lon="2.02013">
        <ele>123.14</ele>
        <time>2024-07-12T16:44:01.009Z</time>
      </trkpt>
      <trkpt lat="50.61983" lon="2.02033">
        <ele>122.77</ele>
        <time>2024-07-12T16:44:06.983Z</time>
      </trkpt>
      <trkpt lat="50.61977" lon="2.02064">
        <ele>121.41</ele>
        <time>2024-07-12T16:44:12.960Z</time>
      </trkpt>
      <trkpt lat="50.61963" lon="2.02139">
        <ele>121.01</ele>
        <time>2024-07-12T16:44:18.945Z</time>
      </trkpt>
      <trkpt lat="50.61961" lon="2.0215">
        <ele>120.92</ele>
        <time>2024-07-12T16:44:24.931Z</time>
      </trkpt>
      <trkpt lat="50.61956" lon="2.02206">
        <ele>121.45</ele>
        <time>2024-07-12T16:44:30.923Z</time>
      </trkpt>
      <trkpt lat="50.61957" lon="2.02229">
        <ele>121.67</ele>
        <time>2024-07-12T16:44:36.918Z</time>
      </trkpt>
      <trkpt lat="50.6196" lon="2.02275">
        <ele>120.51</ele>
        <time>2024-07-12T16:44:42.917Z</time>
      </trkpt>
      <trkpt lat="50.61957" lon="2.02349">
        <ele>117.97</ele>
        <time>2024-07-12T16:44:48.924Z</time>
      </trkpt>
      <trkpt lat="50.61956" lon="2.02361">
        <ele>117.53</ele>
        <time>2024-07-12T16:44:54.932Z</time>
      </trkpt>
      <trkpt lat="50.61956" lon="2.02373">
        <ele>117.08</ele>
        <time>2024-07-12T16:45:00.941Z</time>
      </trkpt>
      <trkpt lat="50.61958" lon="2.02396">
        <ele>117</ele>
        <time>2024-07-12T16:45:06.953Z</time>
      </trkpt>
      <trkpt lat="50.61969" lon="2.02464">
        <ele>117.47</ele>
        <time>2024-07-12T16:45:12.972Z</time>
      </trkpt>
      <trkpt lat="50.6197" lon="2.02474">
        <ele>117.41</ele>
        <time>2024-07-12T16:45:18.992Z</time>
      </trkpt>
      <trkpt lat="50.61975" lon="2.02534">
        <ele>117.08</ele>
        <time>2024-07-12T16:45:25.018Z</time>
      </trkpt>
      <trkpt lat="50.61987" lon="2.02585">
        <ele>117</ele>
        <time>2024-07-12T16:45:31.050Z</time>
      </trkpt>
      <trkpt lat="50.6201" lon="2.02648">
        <ele>117.23</ele>
        <time>2024-07-12T16:45:37.089Z</time>
      </trkpt>
      <trkpt lat="50.6202" lon="2.02706">
        <ele>117</ele>
        <time>2024-07-12T16:45:43.134Z</time>
      </trkpt>
      <trkpt lat="50.62023" lon="2.02779">
        <ele>115.89</ele>
        <time>2024-07-12T16:45:49.187Z</time>
      </trkpt>
      <trkpt lat="50.62023" lon="2.02791">
        <ele>115.71</ele>
        <time>2024-07-12T16:45:55.241Z</time>
      </trkpt>
      <trkpt lat="50.6202" lon="2.02865">
        <ele>114</ele>
        <time>2024-07-12T16:46:01.302Z</time>
      </trkpt>
      <trkpt lat="50.62009" lon="2.0294">
        <ele>114.52</ele>
        <time>2024-07-12T16:46:07.371Z</time>
      </trkpt>
      <trkpt lat="50.62007" lon="2.02966">
        <ele>114.89</ele>
        <time>2024-07-12T16:46:13.443Z</time>
      </trkpt>
      <trkpt lat="50.62005" lon="2.03057">
        <ele>111.53</ele>
        <time>2024-07-12T16:46:19.524Z</time>
      </trkpt>
      <trkpt lat="50.62008" lon="2.03109">
        <ele>110.16</ele>
        <time>2024-07-12T16:46:25.610Z</time>
      </trkpt>
      <trkpt lat="50.62011" lon="2.03134">
        <ele>110.57</ele>
        <time>2024-07-12T16:46:31.699Z</time>
      </trkpt>
      <trkpt lat="50.6202" lon="2.0321">
        <ele>113.96</ele>
        <time>2024-07-12T16:46:37.796Z</time>
      </trkpt>
      <trkpt lat="50.6202" lon="2.03223">
        <ele>113.5</ele>
        <time>2024-07-12T16:46:43.894Z</time>
      </trkpt>
      <trkpt lat="50.62021" lon="2.03286">
        <ele>110.23</ele>
        <time>2024-07-12T16:46:49.999Z</time>
      </trkpt>
      <trkpt lat="50.62019" lon="2.03324">
        <ele>107.86</ele>
        <time>2024-07-12T16:46:56.108Z</time>
      </trkpt>
      <trkpt lat="50.62021" lon="2.03374">
        <ele>107.36</ele>
        <time>2024-07-12T16:47:02.222Z</time>
      </trkpt>
      <trkpt lat="50.62035" lon="2.03431">
        <ele>106</ele>
        <time>2024-07-12T16:47:08.342Z</time>
      </trkpt>
      <trkpt lat="50.62039" lon="2.03442">
        <ele>105.7</ele>
        <time>2024-07-12T16:47:14.463Z</time>
      </trkpt>
      <trkpt lat="50.62058" lon="2.03495">
        <ele>106</ele>
        <time>2024-07-12T16:47:20.590Z</time>
      </trkpt>
      <trkpt lat="50.6206" lon="2.03506">
        <ele>106</ele>
        <time>2024-07-12T16:47:26.719Z</time>
      </trkpt>
      <trkpt lat="50.62063" lon="2.0353">
        <ele>106</ele>
        <time>2024-07-12T16:47:32.850Z</time>
      </trkpt>
      <trkpt lat="50.62061" lon="2.03554">
        <ele>106</ele>
        <time>2024-07-12T16:47:38.983Z</time>
      </trkpt>
      <trkpt lat="50.62049" lon="2.03609">
        <ele>105</ele>
        <time>2024-07-12T16:47:45.122Z</time>
      </trkpt>
      <trkpt lat="50.62046" lon="2.0362">
        <ele>105</ele>
        <time>2024-07-12T16:47:51.263Z</time>
      </trkpt>
      <trkpt lat="50.62024" lon="2.03711">
        <ele>104.92</ele>
        <time>2024-07-12T16:47:57.414Z</time>
      </trkpt>
      <trkpt lat="50.62021" lon="2.03723">
        <ele>104.49</ele>
        <time>2024-07-12T16:48:03.566Z</time>
      </trkpt>
      <trkpt lat="50.62002" lon="2.03806">
        <ele>103.08</ele>
        <time>2024-07-12T16:48:09.727Z</time>
      </trkpt>
      <trkpt lat="50.61977" lon="2.03884">
        <ele>104.93</ele>
        <time>2024-07-12T16:48:15.897Z</time>
      </trkpt>
      <trkpt lat="50.61956" lon="2.03958">
        <ele>104.75</ele>
        <time>2024-07-12T16:48:22.075Z</time>
      </trkpt>
      <trkpt lat="50.61952" lon="2.04007">
        <ele>105.21</ele>
        <time>2024-07-12T16:48:28.258Z</time>
      </trkpt>
      <trkpt lat="50.61953" lon="2.04019">
        <ele>105.26</ele>
        <time>2024-07-12T16:48:34.442Z</time>
      </trkpt>
      <trkpt lat="50.6196" lon="2.04067">
        <ele>104.31</ele>
        <time>2024-07-12T16:48:40.631Z</time>
      </trkpt>
      <trkpt lat="50.61962" lon="2.04079">
        <ele>103.98</ele>
        <time>2024-07-12T16:48:46.822Z</time>
      </trkpt>
      <trkpt lat="50.61979" lon="2.04164">
        <ele>101.75</ele>
        <time>2024-07-12T16:48:53.022Z</time>
      </trkpt>
      <trkpt lat="50.61988" lon="2.04199">
        <ele>101.12</ele>
        <time>2024-07-12T16:48:59.225Z</time>
      </trkpt>
      <trkpt lat="50.61989" lon="2.04211">
        <ele>101.01</ele>
        <time>2024-07-12T16:49:05.430Z</time>
      </trkpt>
      <trkpt lat="50.61991" lon="2.04222">
        <ele>100.93</ele>
        <time>2024-07-12T16:49:11.636Z</time>
      </trkpt>
      <trkpt lat="50.61991" lon="2.04247">
        <ele>100.54</ele>
        <time>2024-07-12T16:49:17.844Z</time>
      </trkpt>
      <trkpt lat="50.61987" lon="2.0433">
        <ele>99.59</ele>
        <time>2024-07-12T16:49:24.061Z</time>
      </trkpt>
      <trkpt lat="50.61986" lon="2.04389">
        <ele>101.26</ele>
        <time>2024-07-12T16:49:30.284Z</time>
      </trkpt>
      <trkpt lat="50.61989" lon="2.04424">
        <ele>101.77</ele>
        <time>2024-07-12T16:49:36.511Z</time>
      </trkpt>
      <trkpt lat="50.62006" lon="2.04508">
        <ele>101.18</ele>
        <time>2024-07-12T16:49:42.746Z</time>
      </trkpt>
      <trkpt lat="50.62025" lon="2.04588">
        <ele>97.23</ele>
        <time>2024-07-12T16:49:48.990Z</time>
      </trkpt>
      <trkpt lat="50.62027" lon="2.046">
        <ele>97.14</ele>
        <time>2024-07-12T16:49:55.236Z</time>
      </trkpt>
      <trkpt lat="50.62027" lon="2.04612">
        <ele>97.13</ele>
        <time>2024-07-12T16:50:01.483Z</time>
      </trkpt>
      <trkpt lat="50.62026" lon="2.04636">
        <ele>97.54</ele>
        <time>2024-07-12T16:50:07.732Z</time>
      </trkpt>
      <trkpt lat="50.62021" lon="2.0472">
        <ele>97.73</ele>
        <time>2024-07-12T16:50:13.990Z</time>
      </trkpt>
      <trkpt lat="50.62021" lon="2.04789">
        <ele>96.76</ele>
        <time>2024-07-12T16:50:20.255Z</time>
      </trkpt>
      <trkpt lat="50.62022" lon="2.04801">
        <ele>96.65</ele>
        <time>2024-07-12T16:50:26.521Z</time>
      </trkpt>
      <trkpt lat="50.62024" lon="2.04835">
        <ele>97.49</ele>
        <time>2024-07-12T16:50:32.790Z</time>
      </trkpt>
      <trkpt lat="50.62031" lon="2.04867">
        <ele>97.97</ele>
        <time>2024-07-12T16:50:39.063Z</time>
      </trkpt>
      <trkpt lat="50.62043" lon="2.04934">
        <ele>95.49</ele>
        <time>2024-07-12T16:50:45.343Z</time>
      </trkpt>
      <trkpt lat="50.62043" lon="2.04946">
        <ele>95.14</ele>
        <time>2024-07-12T16:50:51.624Z</time>
      </trkpt>
      <trkpt lat="50.62042" lon="2.04957">
        <ele>95.22</ele>
        <time>2024-07-12T16:50:57.906Z</time>
      </trkpt>
      <trkpt lat="50.62037" lon="2.04979">
        <ele>95.32</ele>
        <time>2024-07-12T16:51:04.191Z</time>
      </trkpt>
      <trkpt lat="50.62033" lon="2.04989">
        <ele>95.05</ele>
        <time>2024-07-12T16:51:10.477Z</time>
      </trkpt>
      <trkpt lat="50.62009" lon="2.05061">
        <ele>95.57</ele>
        <time>2024-07-12T16:51:16.771Z</time>
      </trkpt>
      <trkpt lat="50.62007" lon="2.05072">
        <ele>95.13</ele>
        <time>2024-07-12T16:51:23.066Z</time>
      </trkpt>
      <trkpt lat="50.62003" lon="2.05107">
        <ele>94.69</ele>
        <time>2024-07-12T16:51:29.365Z</time>
      </trkpt>
      <trkpt lat="50.61992" lon="2.05201">
        <ele>95</ele>
        <time>2024-07-12T16:51:35.674Z</time>
      </trkpt>
      <trkpt lat="50.6199" lon="2.05212">
        <ele>95.08</ele>
        <time>2024-07-12T16:51:41.984Z</time>
      </trkpt>
      <trkpt lat="50.61979" lon="2.05301">
        <ele>96.13</ele>
        <time>2024-07-12T16:51:48.303Z</time>
      </trkpt>
      <trkpt lat="50.61966" lon="2.05393">
        <ele>95.66</ele>
        <time>2024-07-12T16:51:54.632Z</time>
      </trkpt>
      <trkpt lat="50.61966" lon="2.05417">
        <ele>96.11</ele>
        <time>2024-07-12T16:52:00.963Z</time>
      </trkpt>
      <trkpt lat="50.61975" lon="2.05437">
        <ele>97.15</ele>
        <time>2024-07-12T16:52:07.297Z</time>
      </trkpt>
      <trkpt lat="50.61984" lon="2.05452">
        <ele>98.3</ele>
        <time>2024-07-12T16:52:13.633Z</time>
      </trkpt>
      <trkpt lat="50.61985" lon="2.05454">
        <ele>98.51</ele>
        <time>2024-07-12T16:52:19.969Z</time>
      </trkpt>
      <trkpt lat="50.61995" lon="2.0547">
        <ele>99.39</ele>
        <time>2024-07-12T16:52:26.307Z</time>
      </trkpt>
      <trkpt lat="50.61998" lon="2.05475">
        <ele>99.58</ele>
        <time>2024-07-12T16:52:32.646Z</time>
      </trkpt>
      <trkpt lat="50.62005" lon="2.05484">
        <ele>100.27</ele>
        <time>2024-07-12T16:52:38.987Z</time>
      </trkpt>
      <trkpt lat="50.62014" lon="2.05494">
        <ele>101.48</ele>
        <time>2024-07-12T16:52:45.329Z</time>
      </trkpt>
      <trkpt lat="50.62015" lon="2.05496">
        <ele>101.7</ele>
        <time>2024-07-12T16:52:51.672Z</time>
      </trkpt>
      <trkpt lat="50.62027" lon="2.05511">
        <ele>103.45</ele>
        <time>2024-07-12T16:52:58.017Z</time>
      </trkpt>
      <trkpt lat="50.62036" lon="2.05522">
        <ele>104.49</ele>
        <time>2024-07-12T16:53:04.364Z</time>
      </trkpt>
      <trkpt lat="50.6204" lon="2.05527">
        <ele>104.84</ele>
        <time>2024-07-12T16:53:10.712Z</time>
      </trkpt>
      <trkpt lat="50.62046" lon="2.05534">
        <ele>105.49</ele>
        <time>2024-07-12T16:53:17.061Z</time>
      </trkpt>
      <trkpt lat="50.62053" lon="2.05542">
        <ele>106.25</ele>
        <time>2024-07-12T16:53:23.411Z</time>
      </trkpt>
      <trkpt lat="50.62056" lon="2.05545">
        <ele>106.56</ele>
        <time>2024-07-12T16:53:29.762Z</time>
      </trkpt>
      <trkpt lat="50.62064" lon="2.05555">
        <ele>107.13</ele>
        <time>2024-07-12T16:53:36.114Z</time>
      </trkpt>
      <trkpt lat="50.62065" lon="2.05557">
        <ele>107.19</ele>
        <time>2024-07-12T16:53:42.467Z</time>
      </trkpt>
      <trkpt lat="50.62075" lon="2.05575">
        <ele>107.4</ele>
        <time>2024-07-12T16:53:48.822Z</time>
      </trkpt>
      <trkpt lat="50.62077" lon="2.05583">
        <ele>107.07</ele>
        <time>2024-07-12T16:53:55.178Z</time>
      </trkpt>
      <trkpt lat="50.62082" lon="2.05614">
        <ele>106.68</ele>
        <time>2024-07-12T16:54:01.537Z</time>
      </trkpt>
      <trkpt lat="50.62092" lon="2.05652">
        <ele>106.44</ele>
        <time>2024-07-12T16:54:07.900Z</time>
      </trkpt>
      <trkpt lat="50.62103" lon="2.05704">
        <ele>107.13</ele>
        <time>2024-07-12T16:54:14.269Z</time>
      </trkpt>
      <trkpt lat="50.62114" lon="2.05768">
        <ele>106.89</ele>
        <time>2024-07-12T16:54:20.645Z</time>
      </trkpt>
      <trkpt lat="50.62114" lon="2.05776">
        <ele>106.61</ele>
        <time>2024-07-12T16:54:27.022Z</time>
      </trkpt>
      <trkpt lat="50.62113" lon="2.05791">
        <ele>106.02</ele>
        <time>2024-07-12T16:54:33.400Z</time>
      </trkpt>
      <trkpt lat="50.6211" lon="2.05804">
        <ele>105.27</ele>
        <time>2024-07-12T16:54:39.780Z</time>
      </trkpt>
      <trkpt lat="50.62102" lon="2.05813">
        <ele>104.35</ele>
        <time>2024-07-12T16:54:46.161Z</time>
      </trkpt>
      <trkpt lat="50.62098" lon="2.05819">
        <ele>103.86</ele>
        <time>2024-07-12T16:54:52.543Z</time>
      </trkpt>
      <trkpt lat="50.62093" lon="2.05825">
        <ele>103.2</ele>
        <time>2024-07-12T16:54:58.926Z</time>
      </trkpt>
      <trkpt lat="50.62088" lon="2.05841">
        <ele>101.64</ele>
        <time>2024-07-12T16:55:05.311Z</time>
      </trkpt>
      <trkpt lat="50.62086" lon="2.0585">
        <ele>100.95</ele>
        <time>2024-07-12T16:55:11.697Z</time>
      </trkpt>
      <trkpt lat="50.62086" lon="2.05858">
        <ele>100.64</ele>
        <time>2024-07-12T16:55:18.084Z</time>
      </trkpt>
      <trkpt lat="50.6209" lon="2.05884">
        <ele>100.1</ele>
        <time>2024-07-12T16:55:24.473Z</time>
      </trkpt>
      <trkpt lat="50.62092" lon="2.05892">
        <ele>100.18</ele>
        <time>2024-07-12T16:55:30.863Z</time>
      </trkpt>
      <trkpt lat="50.62095" lon="2.05899">
        <ele>100.28</ele>
        <time>2024-07-12T16:55:37.254Z</time>
      </trkpt>
      <trkpt lat="50.62098" lon="2.05904">
        <ele>100.41</ele>
        <time>2024-07-12T16:55:43.646Z</time>
      </trkpt>
      <trkpt lat="50.62102" lon="2.05908">
        <ele>100.55</ele>
        <time>2024-07-12T16:55:50.038Z</time>
      </trkpt>
      <trkpt lat="50.62107" lon="2.05911">
        <ele>100.72</ele>
        <time>2024-07-12T16:55:56.431Z</time>
      </trkpt>
      <trkpt lat="50.62111" lon="2.05913">
        <ele>100.87</ele>
        <time>2024-07-12T16:56:02.825Z</time>
      </trkpt>
      <trkpt lat="50.62124" lon="2.0592">
        <ele>101.35</ele>
        <time>2024-07-12T16:56:09.221Z</time>
      </trkpt>
      <trkpt lat="50.62132" lon="2.05927">
        <ele>101.62</ele>
        <time>2024-07-12T16:56:15.619Z</time>
      </trkpt>
      <trkpt lat="50.62145" lon="2.05941">
        <ele>102.21</ele>
        <time>2024-07-12T16:56:22.019Z</time>
      </trkpt>
      <trkpt lat="50.62154" lon="2.05952">
        <ele>102.84</ele>
        <time>2024-07-12T16:56:28.421Z</time>
      </trkpt>
      <trkpt lat="50.62164" lon="2.05961">
        <ele>103.48</ele>
        <time>2024-07-12T16:56:34.825Z</time>
      </trkpt>
      <trkpt lat="50.62172" lon="2.05972">
        <ele>103.83</ele>
        <time>2024-07-12T16:56:41.231Z</time>
      </trkpt>
      <trkpt lat="50.6218" lon="2.05984">
        <ele>104.26</ele>
        <time>2024-07-12T16:56:47.638Z</time>
      </trkpt>
      <trkpt lat="50.62196" lon="2.06015">
        <ele>104.89</ele>
        <time>2024-07-12T16:56:54.049Z</time>
      </trkpt>
      <trkpt lat="50.62207" lon="2.06039">
        <ele>104.48</ele>
        <time>2024-07-12T16:57:00.463Z</time>
      </trkpt>
      <trkpt lat="50.62226" lon="2.06077">
        <ele>103.85</ele>
        <time>2024-07-12T16:57:06.882Z</time>
      </trkpt>
      <trkpt lat="50.62247" lon="2.06121">
        <ele>104.49</ele>
        <time>2024-07-12T16:57:13.307Z</time>
      </trkpt>
      <trkpt lat="50.62249" lon="2.06128">
        <ele>104.63</ele>
        <time>2024-07-12T16:57:19.733Z</time>
      </trkpt>
      <trkpt lat="50.62255" lon="2.0615">
        <ele>104.33</ele>
        <time>2024-07-12T16:57:26.161Z</time>
      </trkpt>
      <trkpt lat="50.62256" lon="2.06158">
        <ele>104.12</ele>
        <time>2024-07-12T16:57:32.590Z</time>
      </trkpt>
      <trkpt lat="50.62264" lon="2.06216">
        <ele>104.82</ele>
        <time>2024-07-12T16:57:39.025Z</time>
      </trkpt>
      <trkpt lat="50.62266" lon="2.06222">
        <ele>104.66</ele>
        <time>2024-07-12T16:57:45.461Z</time>
      </trkpt>
      <trkpt lat="50.62275" lon="2.06246">
        <ele>104.25</ele>
        <time>2024-07-12T16:57:51.900Z</time>
      </trkpt>
      <trkpt lat="50.62277" lon="2.06252">
        <ele>104.08</ele>
        <time>2024-07-12T16:57:58.339Z</time>
      </trkpt>
      <trkpt lat="50.62304" lon="2.06303">
        <ele>106.64</ele>
        <time>2024-07-12T16:58:04.785Z</time>
      </trkpt>
      <trkpt lat="50.62322" lon="2.06337">
        <ele>108.49</ele>
        <time>2024-07-12T16:58:11.236Z</time>
      </trkpt>
      <trkpt lat="50.62329" lon="2.06349">
        <ele>109.42</ele>
        <time>2024-07-12T16:58:17.688Z</time>
      </trkpt>
      <trkpt lat="50.62353" lon="2.06394">
        <ele>110.11</ele>
        <time>2024-07-12T16:58:24.146Z</time>
      </trkpt>
      <trkpt lat="50.62365" lon="2.06417">
        <ele>110.85</ele>
        <time>2024-07-12T16:58:30.607Z</time>
      </trkpt>
      <trkpt lat="50.62378" lon="2.0644">
        <ele>111.61</ele>
        <time>2024-07-12T16:58:37.071Z</time>
      </trkpt>
      <trkpt lat="50.62407" lon="2.06486">
        <ele>110.19</ele>
        <time>2024-07-12T16:58:43.542Z</time>
      </trkpt>
      <trkpt lat="50.62411" lon="2.0649">
        <ele>109.62</ele>
        <time>2024-07-12T16:58:50.014Z</time>
      </trkpt>
      <trkpt lat="50.62443" lon="2.06524">
        <ele>108.09</ele>
        <time>2024-07-12T16:58:56.492Z</time>
      </trkpt>
      <trkpt lat="50.6245" lon="2.0653">
        <ele>108.05</ele>
        <time>2024-07-12T16:59:02.971Z</time>
      </trkpt>
      <trkpt lat="50.6247" lon="2.0655">
        <ele>109.46</ele>
        <time>2024-07-12T16:59:09.454Z</time>
      </trkpt>
      <trkpt lat="50.6248" lon="2.0656">
        <ele>110.34</ele>
        <time>2024-07-12T16:59:15.939Z</time>
      </trkpt>
      <trkpt lat="50.62497" lon="2.06579">
        <ele>112.63</ele>
        <time>2024-07-12T16:59:22.427Z</time>
      </trkpt>
      <trkpt lat="50.62511" lon="2.06593">
        <ele>113.82</ele>
        <time>2024-07-12T16:59:28.918Z</time>
      </trkpt>
      <trkpt lat="50.62523" lon="2.06605">
        <ele>114.05</ele>
        <time>2024-07-12T16:59:35.411Z</time>
      </trkpt>
      <trkpt lat="50.62533" lon="2.0662">
        <ele>114.35</ele>
        <time>2024-07-12T16:59:41.906Z</time>
      </trkpt>
      <trkpt lat="50.6254" lon="2.0663">
        <ele>114.32</ele>
        <time>2024-07-12T16:59:48.403Z</time>
      </trkpt>
      <trkpt lat="50.62556" lon="2.06656">
        <ele>114.5</ele>
        <time>2024-07-12T16:59:54.904Z</time>
      </trkpt>
      <trkpt lat="50.62559" lon="2.06663">
        <ele>115.14</ele>
        <time>2024-07-12T17:00:01.405Z</time>
      </trkpt>
      <trkpt lat="50.62561" lon="2.06666">
        <ele>115.47</ele>
        <time>2024-07-12T17:00:07.907Z</time>
      </trkpt>
      <trkpt lat="50.62569" lon="2.06674">
        <ele>116.11</ele>
        <time>2024-07-12T17:00:14.410Z</time>
      </trkpt>
      <trkpt lat="50.62571" lon="2.06677">
        <ele>116.37</ele>
        <time>2024-07-12T17:00:20.914Z</time>
      </trkpt>
      <trkpt lat="50.62571" lon="2.06677">
        <ele>116.39</ele>
        <time>2024-07-12T17:00:27.418Z</time>
      </trkpt>
      <trkpt lat="50.62571" lon="2.06675">
        <ele>116.07</ele>
        <time>2024-07-12T17:00:33.922Z</time>
      </trkpt>
      <trkpt lat="50.62571" lon="2.06679">
        <ele>116.72</ele>
        <time>2024-07-12T17:00:40.426Z</time>
      </trkpt>
      <trkpt lat="50.62572" lon="2.06689">
        <ele>117.77</ele>
        <time>2024-07-12T17:00:46.931Z</time>
      </trkpt>
      <trkpt lat="50.62573" lon="2.06691">
        <ele>117.95</ele>
        <time>2024-07-12T17:00:53.437Z</time>
      </trkpt>
      <trkpt lat="50.62575" lon="2.06697">
        <ele>118.48</ele>
        <time>2024-07-12T17:00:59.943Z</time>
      </trkpt>
      <trkpt lat="50.62581" lon="2.06711">
        <ele>119.22</ele>
        <time>2024-07-12T17:01:06.451Z</time>
      </trkpt>
      <trkpt lat="50.6259" lon="2.06733">
        <ele>119.11</ele>
        <time>2024-07-12T17:01:12.962Z</time>
      </trkpt>
      <trkpt lat="50.62595" lon="2.06746">
        <ele>119.58</ele>
        <time>2024-07-12T17:01:19.474Z</time>
      </trkpt>
      <trkpt lat="50.62607" lon="2.06776">
        <ele>121</ele>
        <time>2024-07-12T17:01:25.990Z</time>
      </trkpt>
      <trkpt lat="50.62611" lon="2.06784">
        <ele>121</ele>
        <time>2024-07-12T17:01:32.507Z</time>
      </trkpt>
      <trkpt lat="50.6262" lon="2.06807">
        <ele>121.67</ele>
        <time>2024-07-12T17:01:39.027Z</time>
      </trkpt>
      <trkpt lat="50.62622" lon="2.0681">
        <ele>121.85</ele>
        <time>2024-07-12T17:01:45.547Z</time>
      </trkpt>
      <trkpt lat="50.6263" lon="2.06837">
        <ele>122.55</ele>
        <time>2024-07-12T17:01:52.070Z</time>
      </trkpt>
      <trkpt lat="50.62632" lon="2.0684">
        <ele>122.67</ele>
        <time>2024-07-12T17:01:58.594Z</time>
      </trkpt>
      <trkpt lat="50.62641" lon="2.06863">
        <ele>123</ele>
        <time>2024-07-12T17:02:05.120Z</time>
      </trkpt>
      <trkpt lat="50.62648" lon="2.06882">
        <ele>123.01</ele>
        <time>2024-07-12T17:02:11.649Z</time>
      </trkpt>
      <trkpt lat="50.62655" lon="2.06904">
        <ele>122.49</ele>
        <time>2024-07-12T17:02:18.180Z</time>
      </trkpt>
      <trkpt lat="50.62661" lon="2.06922">
        <ele>122.68</ele>
        <time>2024-07-12T17:02:24.713Z</time>
      </trkpt>
      <trkpt lat="50.62664" lon="2.06933">
        <ele>123.22</ele>
        <time>2024-07-12T17:02:31.247Z</time>
      </trkpt>
      <trkpt lat="50.62673" lon="2.06963">
        <ele>123.19</ele>
        <time>2024-07-12T17:02:37.785Z</time>
      </trkpt>
      <trkpt lat="50.62675" lon="2.06971">
        <ele>123.54</ele>
        <time>2024-07-12T17:02:44.324Z</time>
      </trkpt>
      <trkpt lat="50.62684" lon="2.07004">
        <ele>124.57</ele>
        <time>2024-07-12T17:02:50.866Z</time>
      </trkpt>
      <trkpt lat="50.62687" lon="2.07017">
        <ele>125.02</ele>
        <time>2024-07-12T17:02:57.410Z</time>
      </trkpt>
      <trkpt lat="50.62697" lon="2.07052">
        <ele>126.29</ele>
        <time>2024-07-12T17:03:03.958Z</time>
      </trkpt>
      <trkpt lat="50.62704" lon="2.0708">
        <ele>127.84</ele>
        <time>2024-07-12T17:03:10.509Z</time>
      </trkpt>
      <trkpt lat="50.62707" lon="2.07091">
        <ele>128.76</ele>
        <time>2024-07-12T17:03:17.061Z</time>
      </trkpt>
      <trkpt lat="50.62713" lon="2.07108">
        <ele>129.53</ele>
        <time>2024-07-12T17:03:23.615Z</time>
      </trkpt>
      <trkpt lat="50.6272" lon="2.0713">
        <ele>130</ele>
        <time>2024-07-12T17:03:30.171Z</time>
      </trkpt>
      <trkpt lat="50.62725" lon="2.07148">
        <ele>130</ele>
        <time>2024-07-12T17:03:36.729Z</time>
      </trkpt>
      <trkpt lat="50.62729" lon="2.07164">
        <ele>130.54</ele>
        <time>2024-07-12T17:03:43.289Z</time>
      </trkpt>
      <trkpt lat="50.62736" lon="2.0719">
        <ele>132</ele>
        <time>2024-07-12T17:03:49.852Z</time>
      </trkpt>
      <trkpt lat="50.62738" lon="2.07197">
        <ele>132.32</ele>
        <time>2024-07-12T17:03:56.416Z</time>
      </trkpt>
      <trkpt lat="50.62748" lon="2.07233">
        <ele>133.43</ele>
        <time>2024-07-12T17:04:02.984Z</time>
      </trkpt>
      <trkpt lat="50.6275" lon="2.07237">
        <ele>133.64</ele>
        <time>2024-07-12T17:04:09.552Z</time>
      </trkpt>
      <trkpt lat="50.62763" lon="2.07266">
        <ele>135.03</ele>
        <time>2024-07-12T17:04:16.124Z</time>
      </trkpt>
      <trkpt lat="50.62765" lon="2.0727">
        <ele>134.98</ele>
        <time>2024-07-12T17:04:22.696Z</time>
      </trkpt>
      <trkpt lat="50.6278" lon="2.07295">
        <ele>134.9</ele>
        <time>2024-07-12T17:04:29.272Z</time>
      </trkpt>
      <trkpt lat="50.628" lon="2.07317">
        <ele>136.17</ele>
        <time>2024-07-12T17:04:35.852Z</time>
      </trkpt>
      <trkpt lat="50.62822" lon="2.07336">
        <ele>137.92</ele>
        <time>2024-07-12T17:04:42.436Z</time>
      </trkpt>
      <trkpt lat="50.62827" lon="2.07339">
        <ele>138.3</ele>
        <time>2024-07-12T17:04:49.021Z</time>
      </trkpt>
      <trkpt lat="50.62839" lon="2.07352">
        <ele>138.98</ele>
        <time>2024-07-12T17:04:55.608Z</time>
      </trkpt>
      <trkpt lat="50.62846" lon="2.07358">
        <ele>139.03</ele>
        <time>2024-07-12T17:05:02.196Z</time>
      </trkpt>
      <trkpt lat="50.62863" lon="2.07373">
        <ele>139.36</ele>
        <time>2024-07-12T17:05:08.788Z</time>
      </trkpt>
      <trkpt lat="50.62881" lon="2.07389">
        <ele>139.15</ele>
        <time>2024-07-12T17:05:15.383Z</time>
      </trkpt>
      <trkpt lat="50.62887" lon="2.07395">
        <ele>139.18</ele>
        <time>2024-07-12T17:05:21.979Z</time>
      </trkpt>
      <trkpt lat="50.62901" lon="2.07408">
        <ele>139.1</ele>
        <time>2024-07-12T17:05:28.577Z</time>
      </trkpt>
      <trkpt lat="50.62906" lon="2.07416">
        <ele>139.4</ele>
        <time>2024-07-12T17:05:35.177Z</time>
      </trkpt>
      <trkpt lat="50.62921" lon="2.07433">
        <ele>140.03</ele>
        <time>2024-07-12T17:05:41.780Z</time>
      </trkpt>
      <trkpt lat="50.62925" lon="2.07438">
        <ele>140.35</ele>
        <time>2024-07-12T17:05:48.383Z</time>
      </trkpt>
      <trkpt lat="50.62937" lon="2.07453">
        <ele>141.31</ele>
        <time>2024-07-12T17:05:54.989Z</time>
      </trkpt>
      <trkpt lat="50.62943" lon="2.07459">
        <ele>141.76</ele>
        <time>2024-07-12T17:06:01.596Z</time>
      </trkpt>
      <trkpt lat="50.62957" lon="2.07476">
        <ele>142.3</ele>
        <time>2024-07-12T17:06:08.206Z</time>
      </trkpt>
      <trkpt lat="50.62959" lon="2.07478">
        <ele>142.39</ele>
        <time>2024-07-12T17:06:14.816Z</time>
      </trkpt>
      <trkpt lat="50.62975" lon="2.075">
        <ele>142.96</ele>
        <time>2024-07-12T17:06:21.430Z</time>
      </trkpt>
      <trkpt lat="50.62983" lon="2.0751">
        <ele>143.51</ele>
        <time>2024-07-12T17:06:28.045Z</time>
      </trkpt>
      <trkpt lat="50.62993" lon="2.07523">
        <ele>144.25</ele>
        <time>2024-07-12T17:06:34.662Z</time>
      </trkpt>
      <trkpt lat="50.63001" lon="2.07533">
        <ele>144.8</ele>
        <time>2024-07-12T17:06:41.281Z</time>
      </trkpt>
      <trkpt lat="50.63009" lon="2.07544">
        <ele>145.18</ele>
        <time>2024-07-12T17:06:47.902Z</time>
      </trkpt>
      <trkpt lat="50.63019" lon="2.07558">
        <ele>145.54</ele>
        <time>2024-07-12T17:06:54.525Z</time>
      </trkpt>
      <trkpt lat="50.63027" lon="2.07571">
        <ele>145.97</ele>
        <time>2024-07-12T17:07:01.150Z</time>
      </trkpt>
      <trkpt lat="50.63034" lon="2.07585">
        <ele>146.65</ele>
        <time>2024-07-12T17:07:07.776Z</time>
      </trkpt>
      <trkpt lat="50.63041" lon="2.07605">
        <ele>147.89</ele>
        <time>2024-07-12T17:07:14.405Z</time>
      </trkpt>
      <trkpt lat="50.6305" lon="2.07624">
        <ele>148.97</ele>
        <time>2024-07-12T17:07:21.036Z</time>
      </trkpt>
      <trkpt lat="50.63066" lon="2.07663">
        <ele>150.44</ele>
        <time>2024-07-12T17:07:27.672Z</time>
      </trkpt>
      <trkpt lat="50.63083" lon="2.07701">
        <ele>151.7</ele>
        <time>2024-07-12T17:07:34.313Z</time>
      </trkpt>
      <trkpt lat="50.63087" lon="2.0771">
        <ele>151.98</ele>
        <time>2024-07-12T17:07:40.955Z</time>
      </trkpt>
      <trkpt lat="50.631" lon="2.07731">
        <ele>152</ele>
        <time>2024-07-12T17:07:47.600Z</time>
      </trkpt>
      <trkpt lat="50.63113" lon="2.0775">
        <ele>151.59</ele>
        <time>2024-07-12T17:07:54.248Z</time>
      </trkpt>
      <trkpt lat="50.63123" lon="2.07764">
        <ele>151.06</ele>
        <time>2024-07-12T17:08:00.898Z</time>
      </trkpt>
      <trkpt lat="50.63147" lon="2.07789">
        <ele>151.17</ele>
        <time>2024-07-12T17:08:07.552Z</time>
      </trkpt>
      <trkpt lat="50.6315" lon="2.07792">
        <ele>151.26</ele>
        <time>2024-07-12T17:08:14.207Z</time>
      </trkpt>
      <trkpt lat="50.63168" lon="2.0781">
        <ele>152.47</ele>
        <time>2024-07-12T17:08:20.865Z</time>
      </trkpt>
      <trkpt lat="50.63177" lon="2.07821">
        <ele>153.2</ele>
        <time>2024-07-12T17:08:27.525Z</time>
      </trkpt>
      <trkpt lat="50.63179" lon="2.07821">
        <ele>153.29</ele>
        <time>2024-07-12T17:08:34.185Z</time>
      </trkpt>
      <trkpt lat="50.63193" lon="2.07826">
        <ele>153.8</ele>
        <time>2024-07-12T17:08:40.848Z</time>
      </trkpt>
      <trkpt lat="50.63207" lon="2.07842">
        <ele>154.31</ele>
        <time>2024-07-12T17:08:47.514Z</time>
      </trkpt>
      <trkpt lat="50.63216" lon="2.07857">
        <ele>154.37</ele>
        <time>2024-07-12T17:08:54.182Z</time>
      </trkpt>
      <trkpt lat="50.63234" lon="2.07889">
        <ele>154.55</ele>
        <time>2024-07-12T17:09:00.854Z</time>
      </trkpt>
      <trkpt lat="50.63238" lon="2.07897">
        <ele>154.88</ele>
        <time>2024-07-12T17:09:07.527Z</time>
      </trkpt>
      <trkpt lat="50.63256" lon="2.0793">
        <ele>156.29</ele>
        <time>2024-07-12T17:09:14.205Z</time>
      </trkpt>
      <trkpt lat="50.63276" lon="2.07962">
        <ele>158.35</ele>
        <time>2024-07-12T17:09:20.887Z</time>
      </trkpt>
      <trkpt lat="50.63278" lon="2.07967">
        <ele>158.6</ele>
        <time>2024-07-12T17:09:27.570Z</time>
      </trkpt>
      <trkpt lat="50.63285" lon="2.07992">
        <ele>159</ele>
        <time>2024-07-12T17:09:34.255Z</time>
      </trkpt>
      <trkpt lat="50.63287" lon="2.08005">
        <ele>159</ele>
        <time>2024-07-12T17:09:40.942Z</time>
      </trkpt>
      <trkpt lat="50.63295" lon="2.08063">
        <ele>160</ele>
        <time>2024-07-12T17:09:47.635Z</time>
      </trkpt>
      <trkpt lat="50.63295" lon="2.0807">
        <ele>160</ele>
        <time>2024-07-12T17:09:54.329Z</time>
      </trkpt>
      <trkpt lat="50.63294" lon="2.08121">
        <ele>160</ele>
        <time>2024-07-12T17:10:01.028Z</time>
      </trkpt>
      <trkpt lat="50.63296" lon="2.08138">
        <ele>160</ele>
        <time>2024-07-12T17:10:07.729Z</time>
      </trkpt>
      <trkpt lat="50.63302" lon="2.08172">
        <ele>160.6</ele>
        <time>2024-07-12T17:10:14.433Z</time>
      </trkpt>
      <trkpt lat="50.63306" lon="2.082">
        <ele>160.87</ele>
        <time>2024-07-12T17:10:21.140Z</time>
      </trkpt>
      <trkpt lat="50.63308" lon="2.08213">
        <ele>161</ele>
        <time>2024-07-12T17:10:27.848Z</time>
      </trkpt>
      <trkpt lat="50.63315" lon="2.08253">
        <ele>161.37</ele>
        <time>2024-07-12T17:10:34.561Z</time>
      </trkpt>
      <trkpt lat="50.63315" lon="2.08264">
        <ele>161.42</ele>
        <time>2024-07-12T17:10:41.275Z</time>
      </trkpt>
      <trkpt lat="50.63314" lon="2.08298">
        <ele>163.45</ele>
        <time>2024-07-12T17:10:47.992Z</time>
      </trkpt>
      <trkpt lat="50.63313" lon="2.08307">
        <ele>163.74</ele>
        <time>2024-07-12T17:10:54.710Z</time>
      </trkpt>
      <trkpt lat="50.63312" lon="2.0833">
        <ele>164.72</ele>
        <time>2024-07-12T17:11:01.431Z</time>
      </trkpt>
      <trkpt lat="50.63309" lon="2.08359">
        <ele>166.33</ele>
        <time>2024-07-12T17:11:08.154Z</time>
      </trkpt>
      <trkpt lat="50.63308" lon="2.08367">
        <ele>166.63</ele>
        <time>2024-07-12T17:11:14.878Z</time>
      </trkpt>
      <trkpt lat="50.63303" lon="2.08383">
        <ele>167</ele>
        <time>2024-07-12T17:11:21.604Z</time>
      </trkpt>
      <trkpt lat="50.63298" lon="2.08394">
        <ele>167</ele>
        <time>2024-07-12T17:11:28.331Z</time>
      </trkpt>
      <trkpt lat="50.63288" lon="2.08417">
        <ele>167</ele>
        <time>2024-07-12T17:11:35.061Z</time>
      </trkpt>
      <trkpt lat="50.63279" lon="2.08438">
        <ele>167.38</ele>
        <time>2024-07-12T17:11:41.794Z</time>
      </trkpt>
      <trkpt lat="50.63274" lon="2.08449">
        <ele>168.16</ele>
        <time>2024-07-12T17:11:48.528Z</time>
      </trkpt>
      <trkpt lat="50.63266" lon="2.08473">
        <ele>169.42</ele>
        <time>2024-07-12T17:11:55.265Z</time>
      </trkpt>
      <trkpt lat="50.63261" lon="2.08488">
        <ele>169.26</ele>
        <time>2024-07-12T17:12:02.004Z</time>
      </trkpt>
      <trkpt lat="50.63254" lon="2.08509">
        <ele>169.73</ele>
        <time>2024-07-12T17:12:08.745Z</time>
      </trkpt>
      <trkpt lat="50.6325" lon="2.0852">
        <ele>169.73</ele>
        <time>2024-07-12T17:12:15.488Z</time>
      </trkpt>
      <trkpt lat="50.63246" lon="2.08533">
        <ele>169.4</ele>
        <time>2024-07-12T17:12:22.232Z</time>
      </trkpt>
      <trkpt lat="50.6324" lon="2.08545">
        <ele>169.46</ele>
        <time>2024-07-12T17:12:28.978Z</time>
      </trkpt>
      <trkpt lat="50.63225" lon="2.08563">
        <ele>168.92</ele>
        <time>2024-07-12T17:12:35.727Z</time>
      </trkpt>
      <trkpt lat="50.63209" lon="2.08587">
        <ele>168.38</ele>
        <time>2024-07-12T17:12:42.479Z</time>
      </trkpt>
      <trkpt lat="50.63197" lon="2.08605">
        <ele>168.15</ele>
        <time>2024-07-12T17:12:49.234Z</time>
      </trkpt>
      <trkpt lat="50.63185" lon="2.08622">
        <ele>168.06</ele>
        <time>2024-07-12T17:12:55.991Z</time>
      </trkpt>
      <trkpt lat="50.63164" lon="2.08659">
        <ele>168.66</ele>
        <time>2024-07-12T17:13:02.753Z</time>
      </trkpt>
      <trkpt lat="50.6314" lon="2.08712">
        <ele>170.85</ele>
        <time>2024-07-12T17:13:09.522Z</time>
      </trkpt>
      <trkpt lat="50.63118" lon="2.08771">
        <ele>169.11</ele>
        <time>2024-07-12T17:13:16.298Z</time>
      </trkpt>
      <trkpt lat="50.6309" lon="2.08837">
        <ele>167.77</ele>
        <time>2024-07-12T17:13:23.082Z</time>
      </trkpt>
      <trkpt lat="50.63085" lon="2.08853">
        <ele>167.87</ele>
        <time>2024-07-12T17:13:29.868Z</time>
      </trkpt>
      <trkpt lat="50.63071" lon="2.08905">
        <ele>167.4</ele>
        <time>2024-07-12T17:13:36.660Z</time>
      </trkpt>
      <trkpt lat="50.63058" lon="2.0895">
        <ele>166.33</ele>
        <time>2024-07-12T17:13:43.457Z</time>
      </trkpt>
      <trkpt lat="50.63053" lon="2.08969">
        <ele>166</ele>
        <time>2024-07-12T17:13:50.256Z</time>
      </trkpt>
      <trkpt lat="50.63039" lon="2.09015">
        <ele>164.34</ele>
        <time>2024-07-12T17:13:57.060Z</time>
      </trkpt>
      <trkpt lat="50.63034" lon="2.09035">
        <ele>164.09</ele>
        <time>2024-07-12T17:14:03.866Z</time>
      </trkpt>
      <trkpt lat="50.63023" lon="2.09085">
        <ele>164</ele>
        <time>2024-07-12T17:14:10.678Z</time>
      </trkpt>
      <trkpt lat="50.63016" lon="2.09124">
        <ele>164</ele>
        <time>2024-07-12T17:14:17.494Z</time>
      </trkpt>
      <trkpt lat="50.63011" lon="2.09162">
        <ele>163</ele>
        <time>2024-07-12T17:14:24.314Z</time>
      </trkpt>
      <trkpt lat="50.6301" lon="2.09195">
        <ele>162</ele>
        <time>2024-07-12T17:14:31.137Z</time>
      </trkpt>
      <trkpt lat="50.63009" lon="2.09241">
        <ele>161.92</ele>
        <time>2024-07-12T17:14:37.965Z</time>
      </trkpt>
      <trkpt lat="50.63009" lon="2.09288">
        <ele>160.24</ele>
        <time>2024-07-12T17:14:44.797Z</time>
      </trkpt>
      <trkpt lat="50.63008" lon="2.09299">
        <ele>160</ele>
        <time>2024-07-12T17:14:51.631Z</time>
      </trkpt>
      <trkpt lat="50.63006" lon="2.09345">
        <ele>159.19</ele>
        <time>2024-07-12T17:14:58.469Z</time>
      </trkpt>
      <trkpt lat="50.63004" lon="2.09366">
        <ele>159</ele>
        <time>2024-07-12T17:15:05.309Z</time>
      </trkpt>
      <trkpt lat="50.63001" lon="2.09387">
        <ele>158.59</ele>
        <time>2024-07-12T17:15:12.152Z</time>
      </trkpt>
      <trkpt lat="50.62996" lon="2.09426">
        <ele>157.25</ele>
        <time>2024-07-12T17:15:18.999Z</time>
      </trkpt>
      <trkpt lat="50.62995" lon="2.09435">
        <ele>156.85</ele>
        <time>2024-07-12T17:15:25.847Z</time>
      </trkpt>
      <trkpt lat="50.62991" lon="2.09467">
        <ele>154.99</ele>
        <time>2024-07-12T17:15:32.698Z</time>
      </trkpt>
      <trkpt lat="50.6299" lon="2.09478">
        <ele>154.26</ele>
        <time>2024-07-12T17:15:39.550Z</time>
      </trkpt>
      <trkpt lat="50.62988" lon="2.09487">
        <ele>153.7</ele>
        <time>2024-07-12T17:15:46.403Z</time>
      </trkpt>
      <trkpt lat="50.62988" lon="2.0949">
        <ele>153.46</ele>
        <time>2024-07-12T17:15:53.256Z</time>
      </trkpt>
      <trkpt lat="50.62987" lon="2.0949">
        <ele>153.48</ele>
        <time>2024-07-12T17:16:00.109Z</time>
      </trkpt>
      <trkpt lat="50.62986" lon="2.095">
        <ele>152.85</ele>
        <time>2024-07-12T17:16:06.963Z</time>
      </trkpt>
      <trkpt lat="50.62982" lon="2.09532">
        <ele>151.46</ele>
        <time>2024-07-12T17:16:13.821Z</time>
      </trkpt>
      <trkpt lat="50.62976" lon="2.09577">
        <ele>148.79</ele>
        <time>2024-07-12T17:16:20.683Z</time>
      </trkpt>
      <trkpt lat="50.62975" lon="2.09588">
        <ele>148.48</ele>
        <time>2024-07-12T17:16:27.547Z</time>
      </trkpt>
      <trkpt lat="50.62971" lon="2.09621">
        <ele>147.4</ele>
        <time>2024-07-12T17:16:34.414Z</time>
      </trkpt>
      <trkpt lat="50.62966" lon="2.09656">
        <ele>147.31</ele>
        <time>2024-07-12T17:16:41.285Z</time>
      </trkpt>
      <trkpt lat="50.62964" lon="2.09668">
        <ele>146.54</ele>
        <time>2024-07-12T17:16:48.157Z</time>
      </trkpt>
      <trkpt lat="50.62959" lon="2.09703">
        <ele>145.1</ele>
        <time>2024-07-12T17:16:55.033Z</time>
      </trkpt>
      <trkpt lat="50.62954" lon="2.0974">
        <ele>144.1</ele>
        <time>2024-07-12T17:17:01.912Z</time>
      </trkpt>
      <trkpt lat="50.62951" lon="2.09764">
        <ele>143.59</ele>
        <time>2024-07-12T17:17:08.794Z</time>
      </trkpt>
      <trkpt lat="50.62949" lon="2.09776">
        <ele>143.5</ele>
        <time>2024-07-12T17:17:15.677Z</time>
      </trkpt>
      <trkpt lat="50.62943" lon="2.09826">
        <ele>141.22</ele>
        <time>2024-07-12T17:17:22.565Z</time>
      </trkpt>
      <trkpt lat="50.62945" lon="2.0985">
        <ele>140.26</ele>
        <time>2024-07-12T17:17:29.456Z</time>
      </trkpt>
      <trkpt lat="50.62946" lon="2.09863">
        <ele>140.15</ele>
        <time>2024-07-12T17:17:36.348Z</time>
      </trkpt>
      <trkpt lat="50.62952" lon="2.09899">
        <ele>137.9</ele>
        <time>2024-07-12T17:17:43.244Z</time>
      </trkpt>
      <trkpt lat="50.62954" lon="2.09911">
        <ele>136.96</ele>
        <time>2024-07-12T17:17:50.141Z</time>
      </trkpt>
      <trkpt lat="50.62956" lon="2.09923">
        <ele>136.25</ele>
        <time>2024-07-12T17:17:57.039Z</time>
      </trkpt>
      <trkpt lat="50.62959" lon="2.09947">
        <ele>134.88</ele>
        <time>2024-07-12T17:18:03.940Z</time>
      </trkpt>
      <trkpt lat="50.62963" lon="2.09972">
        <ele>133.83</ele>
        <time>2024-07-12T17:18:10.844Z</time>
      </trkpt>
      <trkpt lat="50.62967" lon="2.09997">
        <ele>132.69</ele>
        <time>2024-07-12T17:18:17.750Z</time>
      </trkpt>
      <trkpt lat="50.62968" lon="2.1001">
        <ele>132.05</ele>
        <time>2024-07-12T17:18:24.658Z</time>
      </trkpt>
      <trkpt lat="50.62969" lon="2.10022">
        <ele>131.05</ele>
        <time>2024-07-12T17:18:31.567Z</time>
      </trkpt>
      <trkpt lat="50.62974" lon="2.1006">
        <ele>128.6</ele>
        <time>2024-07-12T17:18:38.480Z</time>
      </trkpt>
      <trkpt lat="50.62977" lon="2.10098">
        <ele>127.07</ele>
        <time>2024-07-12T17:18:45.397Z</time>
      </trkpt>
      <trkpt lat="50.62979" lon="2.10111">
        <ele>127</ele>
        <time>2024-07-12T17:18:52.315Z</time>
      </trkpt>
      <trkpt lat="50.6298" lon="2.10124">
        <ele>127</ele>
        <time>2024-07-12T17:18:59.234Z</time>
      </trkpt>
      <trkpt lat="50.62982" lon="2.1015">
        <ele>126.2</ele>
        <time>2024-07-12T17:19:06.156Z</time>
      </trkpt>
      <trkpt lat="50.62985" lon="2.10176">
        <ele>124.6</ele>
        <time>2024-07-12T17:19:13.081Z</time>
      </trkpt>
      <trkpt lat="50.62987" lon="2.10203">
        <ele>123.51</ele>
        <time>2024-07-12T17:19:20.008Z</time>
      </trkpt>
      <trkpt lat="50.62987" lon="2.10229">
        <ele>122.53</ele>
        <time>2024-07-12T17:19:26.938Z</time>
      </trkpt>
      <trkpt lat="50.62985" lon="2.10267">
        <ele>121.34</ele>
        <time>2024-07-12T17:19:33.872Z</time>
      </trkpt>
      <trkpt lat="50.62981" lon="2.10291">
        <ele>120.05</ele>
        <time>2024-07-12T17:19:40.808Z</time>
      </trkpt>
      <trkpt lat="50.6298" lon="2.10303">
        <ele>119.57</ele>
        <time>2024-07-12T17:19:47.746Z</time>
      </trkpt>
      <trkpt lat="50.62976" lon="2.10327">
        <ele>118.68</ele>
        <time>2024-07-12T17:19:54.686Z</time>
      </trkpt>
      <trkpt lat="50.62973" lon="2.10351">
        <ele>117.07</ele>
        <time>2024-07-12T17:20:01.629Z</time>
      </trkpt>
      <trkpt lat="50.62969" lon="2.10376">
        <ele>116.31</ele>
        <time>2024-07-12T17:20:08.574Z</time>
      </trkpt>
      <trkpt lat="50.62967" lon="2.10389">
        <ele>115.93</ele>
        <time>2024-07-12T17:20:15.521Z</time>
      </trkpt>
      <trkpt lat="50.62965" lon="2.10401">
        <ele>115.53</ele>
        <time>2024-07-12T17:20:22.469Z</time>
      </trkpt>
      <trkpt lat="50.6296" lon="2.1044">
        <ele>114.77</ele>
        <time>2024-07-12T17:20:29.421Z</time>
      </trkpt>
      <trkpt lat="50.62956" lon="2.10466">
        <ele>112.94</ele>
        <time>2024-07-12T17:20:36.376Z</time>
      </trkpt>
      <trkpt lat="50.62952" lon="2.10493">
        <ele>110.87</ele>
        <time>2024-07-12T17:20:43.334Z</time>
      </trkpt>
      <trkpt lat="50.6295" lon="2.10506">
        <ele>110.39</ele>
        <time>2024-07-12T17:20:50.293Z</time>
      </trkpt>
      <trkpt lat="50.62949" lon="2.10519">
        <ele>109.93</ele>
        <time>2024-07-12T17:20:57.253Z</time>
      </trkpt>
      <trkpt lat="50.62945" lon="2.10544">
        <ele>108.81</ele>
        <time>2024-07-12T17:21:04.216Z</time>
      </trkpt>
      <trkpt lat="50.62942" lon="2.10569">
        <ele>106.88</ele>
        <time>2024-07-12T17:21:11.182Z</time>
      </trkpt>
      <trkpt lat="50.62939" lon="2.10593">
        <ele>105.81</ele>
        <time>2024-07-12T17:21:18.150Z</time>
      </trkpt>
      <trkpt lat="50.62937" lon="2.10605">
        <ele>105.03</ele>
        <time>2024-07-12T17:21:25.119Z</time>
      </trkpt>
      <trkpt lat="50.62934" lon="2.10627">
        <ele>104.02</ele>
        <time>2024-07-12T17:21:32.091Z</time>
      </trkpt>
      <trkpt lat="50.62932" lon="2.10648">
        <ele>103.4</ele>
        <time>2024-07-12T17:21:39.065Z</time>
      </trkpt>
      <trkpt lat="50.62927" lon="2.1068">
        <ele>102.11</ele>
        <time>2024-07-12T17:21:46.042Z</time>
      </trkpt>
      <trkpt lat="50.62926" lon="2.10691">
        <ele>101.73</ele>
        <time>2024-07-12T17:21:53.020Z</time>
      </trkpt>
      <trkpt lat="50.62922" lon="2.10723">
        <ele>100.57</ele>
        <time>2024-07-12T17:22:00.002Z</time>
      </trkpt>
      <trkpt lat="50.62917" lon="2.10756">
        <ele>99.38</ele>
        <time>2024-07-12T17:22:06.987Z</time>
      </trkpt>
      <trkpt lat="50.62916" lon="2.10767">
        <ele>98.99</ele>
        <time>2024-07-12T17:22:13.973Z</time>
      </trkpt>
      <trkpt lat="50.62914" lon="2.10788">
        <ele>98.25</ele>
        <time>2024-07-12T17:22:20.961Z</time>
      </trkpt>
      <trkpt lat="50.62911" lon="2.1082">
        <ele>97.07</ele>
        <time>2024-07-12T17:22:27.953Z</time>
      </trkpt>
      <trkpt lat="50.62907" lon="2.10853">
        <ele>95.35</ele>
        <time>2024-07-12T17:22:34.948Z</time>
      </trkpt>
      <trkpt lat="50.62905" lon="2.10874">
        <ele>93.74</ele>
        <time>2024-07-12T17:22:41.945Z</time>
      </trkpt>
      <trkpt lat="50.62903" lon="2.10894">
        <ele>92.77</ele>
        <time>2024-07-12T17:22:48.944Z</time>
      </trkpt>
      <trkpt lat="50.62901" lon="2.10904">
        <ele>92.36</ele>
        <time>2024-07-12T17:22:55.944Z</time>
      </trkpt>
      <trkpt lat="50.62899" lon="2.10925">
        <ele>91.53</ele>
        <time>2024-07-12T17:23:02.946Z</time>
      </trkpt>
      <trkpt lat="50.62896" lon="2.10947">
        <ele>90.66</ele>
        <time>2024-07-12T17:23:09.951Z</time>
      </trkpt>
      <trkpt lat="50.62895" lon="2.10958">
        <ele>90.2</ele>
        <time>2024-07-12T17:23:16.957Z</time>
      </trkpt>
      <trkpt lat="50.62894" lon="2.1097">
        <ele>89.5</ele>
        <time>2024-07-12T17:23:23.964Z</time>
      </trkpt>
      <trkpt lat="50.6289" lon="2.10995">
        <ele>87.8</ele>
        <time>2024-07-12T17:23:30.974Z</time>
      </trkpt>
      <trkpt lat="50.62887" lon="2.11018">
        <ele>87</ele>
        <time>2024-07-12T17:23:37.986Z</time>
      </trkpt>
      <trkpt lat="50.62883" lon="2.1104">
        <ele>86.83</ele>
        <time>2024-07-12T17:23:45.000Z</time>
      </trkpt>
      <trkpt lat="50.62878" lon="2.11059">
        <ele>85.93</ele>
        <time>2024-07-12T17:23:52.017Z</time>
      </trkpt>
      <trkpt lat="50.62871" lon="2.11078">
        <ele>85.03</ele>
        <time>2024-07-12T17:23:59.036Z</time>
      </trkpt>
      <trkpt lat="50.62867" lon="2.11087">
        <ele>85</ele>
        <time>2024-07-12T17:24:06.056Z</time>
      </trkpt>
      <trkpt lat="50.62862" lon="2.11096">
        <ele>84.9</ele>
        <time>2024-07-12T17:24:13.077Z</time>
      </trkpt>
      <trkpt lat="50.62851" lon="2.11119">
        <ele>83.5</ele>
        <time>2024-07-12T17:24:20.101Z</time>
      </trkpt>
      <trkpt lat="50.62845" lon="2.1113">
        <ele>83.28</ele>
        <time>2024-07-12T17:24:27.127Z</time>
      </trkpt>
      <trkpt lat="50.62819" lon="2.11172">
        <ele>80.12</ele>
        <time>2024-07-12T17:24:34.159Z</time>
      </trkpt>
      <trkpt lat="50.628" lon="2.11203">
        <ele>78.3</ele>
        <time>2024-07-12T17:24:41.195Z</time>
      </trkpt>
      <trkpt lat="50.62782" lon="2.11234">
        <ele>77.01</ele>
        <time>2024-07-12T17:24:48.235Z</time>
      </trkpt>
      <trkpt lat="50.62765" lon="2.11262">
        <ele>76.41</ele>
        <time>2024-07-12T17:24:55.279Z</time>
      </trkpt>
      <trkpt lat="50.6276" lon="2.11272">
        <ele>76.23</ele>
        <time>2024-07-12T17:25:02.324Z</time>
      </trkpt>
      <trkpt lat="50.62748" lon="2.11293">
        <ele>76</ele>
        <time>2024-07-12T17:25:09.372Z</time>
      </trkpt>
      <trkpt lat="50.62744" lon="2.113">
        <ele>76</ele>
        <time>2024-07-12T17:25:16.421Z</time>
      </trkpt>
      <trkpt lat="50.6274" lon="2.11305">
        <ele>76</ele>
        <time>2024-07-12T17:25:23.471Z</time>
      </trkpt>
      <trkpt lat="50.62736" lon="2.11309">
        <ele>76</ele>
        <time>2024-07-12T17:25:30.522Z</time>
      </trkpt>
      <trkpt lat="50.62726" lon="2.11318">
        <ele>76</ele>
        <time>2024-07-12T17:25:37.575Z</time>
      </trkpt>
      <trkpt lat="50.62714" lon="2.11335">
        <ele>75.13</ele>
        <time>2024-07-12T17:25:44.630Z</time>
      </trkpt>
      <trkpt lat="50.62707" lon="2.11348">
        <ele>74.42</ele>
        <time>2024-07-12T17:25:51.687Z</time>
      </trkpt>
      <trkpt lat="50.62697" lon="2.11365">
        <ele>74</ele>
        <time>2024-07-12T17:25:58.746Z</time>
      </trkpt>
      <trkpt lat="50.62691" lon="2.11372">
        <ele>73.96</ele>
        <time>2024-07-12T17:26:05.807Z</time>
      </trkpt>
      <trkpt lat="50.62691" lon="2.11372">
        <ele>73.96</ele>
        <time>2024-07-12T17:26:12.868Z</time>
      </trkpt>
      <trkpt lat="50.62691" lon="2.11378">
        <ele>73.74</ele>
        <time>2024-07-12T17:26:19.929Z</time>
      </trkpt>
      <trkpt lat="50.62692" lon="2.1138">
        <ele>73.7</ele>
        <time>2024-07-12T17:26:26.990Z</time>
      </trkpt>
      <trkpt lat="50.62702" lon="2.11392">
        <ele>73.62</ele>
        <time>2024-07-12T17:26:34.054Z</time>
      </trkpt>
      <trkpt lat="50.62717" lon="2.114">
        <ele>73.87</ele>
        <time>2024-07-12T17:26:41.120Z</time>
      </trkpt>
      <trkpt lat="50.62741" lon="2.11412">
        <ele>74.14</ele>
        <time>2024-07-12T17:26:48.190Z</time>
      </trkpt>
      <trkpt lat="50.62776" lon="2.11428">
        <ele>74.17</ele>
        <time>2024-07-12T17:26:55.266Z</time>
      </trkpt>
      <trkpt lat="50.62816" lon="2.1145">
        <ele>74.64</ele>
        <time>2024-07-12T17:27:02.349Z</time>
      </trkpt>
      <trkpt lat="50.6282" lon="2.11452">
        <ele>74.74</ele>
        <time>2024-07-12T17:27:09.432Z</time>
      </trkpt>
      <trkpt lat="50.62857" lon="2.1146">
        <ele>75.79</ele>
        <time>2024-07-12T17:27:16.521Z</time>
      </trkpt>
      <trkpt lat="50.62877" lon="2.11459">
        <ele>77.01</ele>
        <time>2024-07-12T17:27:23.614Z</time>
      </trkpt>
      <trkpt lat="50.62892" lon="2.11457">
        <ele>78.15</ele>
        <time>2024-07-12T17:27:30.709Z</time>
      </trkpt>
      <trkpt lat="50.62912" lon="2.11456">
        <ele>78.2</ele>
        <time>2024-07-12T17:27:37.807Z</time>
      </trkpt>
      <trkpt lat="50.62915" lon="2.11456">
        <ele>78.23</ele>
        <time>2024-07-12T17:27:44.906Z</time>
      </trkpt>
      <trkpt lat="50.6294" lon="2.11464">
        <ele>77.85</ele>
        <time>2024-07-12T17:27:52.009Z</time>
      </trkpt>
      <trkpt lat="50.62955" lon="2.11473">
        <ele>77.2</ele>
        <time>2024-07-12T17:27:59.114Z</time>
      </trkpt>
      <trkpt lat="50.62964" lon="2.11482">
        <ele>76.52</ele>
        <time>2024-07-12T17:28:06.221Z</time>
      </trkpt>
      <trkpt lat="50.62973" lon="2.11492">
        <ele>75.89</ele>
        <time>2024-07-12T17:28:13.330Z</time>
      </trkpt>
      <trkpt lat="50.6299" lon="2.11516">
        <ele>75.52</ele>
        <time>2024-07-12T17:28:20.442Z</time>
      </trkpt>
      <trkpt lat="50.63026" lon="2.11566">
        <ele>75.8</ele>
        <time>2024-07-12T17:28:27.562Z</time>
      </trkpt>
      <trkpt lat="50.6306" lon="2.11613">
        <ele>76.52</ele>
        <time>2024-07-12T17:28:34.689Z</time>
      </trkpt>
      <trkpt lat="50.63065" lon="2.11621">
        <ele>76.08</ele>
        <time>2024-07-12T17:28:41.817Z</time>
      </trkpt>
      <trkpt lat="50.63094" lon="2.11673">
        <ele>74.74</ele>
        <time>2024-07-12T17:28:48.953Z</time>
      </trkpt>
      <trkpt lat="50.63104" lon="2.11692">
        <ele>74.66</ele>
        <time>2024-07-12T17:28:56.091Z</time>
      </trkpt>
      <trkpt lat="50.63129" lon="2.11739">
        <ele>74.48</ele>
        <time>2024-07-12T17:29:03.235Z</time>
      </trkpt>
      <trkpt lat="50.63134" lon="2.11748">
        <ele>73.99</ele>
        <time>2024-07-12T17:29:10.381Z</time>
      </trkpt>
      <trkpt lat="50.63144" lon="2.11767">
        <ele>72.94</ele>
        <time>2024-07-12T17:29:17.529Z</time>
      </trkpt>
      <trkpt lat="50.63157" lon="2.11792">
        <ele>71.09</ele>
        <time>2024-07-12T17:29:24.680Z</time>
      </trkpt>
      <trkpt lat="50.63164" lon="2.11807">
        <ele>70.47</ele>
        <time>2024-07-12T17:29:31.833Z</time>
      </trkpt>
      <trkpt lat="50.63169" lon="2.11819">
        <ele>70.08</ele>
        <time>2024-07-12T17:29:38.988Z</time>
      </trkpt>
      <trkpt lat="50.63169" lon="2.11832">
        <ele>69.73</ele>
        <time>2024-07-12T17:29:46.144Z</time>
      </trkpt>
      <trkpt lat="50.63165" lon="2.11845">
        <ele>69.39</ele>
        <time>2024-07-12T17:29:53.302Z</time>
      </trkpt>
      <trkpt lat="50.63162" lon="2.11852">
        <ele>69.23</ele>
        <time>2024-07-12T17:30:00.460Z</time>
      </trkpt>
      <trkpt lat="50.63159" lon="2.11858">
        <ele>69.13</ele>
        <time>2024-07-12T17:30:07.619Z</time>
      </trkpt>
      <trkpt lat="50.63152" lon="2.11878">
        <ele>68.02</ele>
        <time>2024-07-12T17:30:14.780Z</time>
      </trkpt>
      <trkpt lat="50.6315" lon="2.1189">
        <ele>67.81</ele>
        <time>2024-07-12T17:30:21.943Z</time>
      </trkpt>
      <trkpt lat="50.63151" lon="2.11904">
        <ele>67.37</ele>
        <time>2024-07-12T17:30:29.107Z</time>
      </trkpt>
      <trkpt lat="50.63156" lon="2.11916">
        <ele>67.48</ele>
        <time>2024-07-12T17:30:36.273Z</time>
      </trkpt>
      <trkpt lat="50.63176" lon="2.11943">
        <ele>68.43</ele>
        <time>2024-07-12T17:30:43.443Z</time>
      </trkpt>
      <trkpt lat="50.63185" lon="2.11956">
        <ele>69.06</ele>
        <time>2024-07-12T17:30:50.615Z</time>
      </trkpt>
      <trkpt lat="50.63197" lon="2.11981">
        <ele>69.18</ele>
        <time>2024-07-12T17:30:57.790Z</time>
      </trkpt>
      <trkpt lat="50.63203" lon="2.12">
        <ele>68.45</ele>
        <time>2024-07-12T17:31:04.967Z</time>
      </trkpt>
      <trkpt lat="50.63209" lon="2.12029">
        <ele>67.61</ele>
        <time>2024-07-12T17:31:12.147Z</time>
      </trkpt>
      <trkpt lat="50.63212" lon="2.12073">
        <ele>68.01</ele>
        <time>2024-07-12T17:31:19.332Z</time>
      </trkpt>
      <trkpt lat="50.63211" lon="2.1212">
        <ele>69</ele>
        <time>2024-07-12T17:31:26.522Z</time>
      </trkpt>
      <trkpt lat="50.63204" lon="2.12178">
        <ele>67.22</ele>
        <time>2024-07-12T17:31:33.718Z</time>
      </trkpt>
      <trkpt lat="50.63195" lon="2.12233">
        <ele>67</ele>
        <time>2024-07-12T17:31:40.919Z</time>
      </trkpt>
      <trkpt lat="50.63193" lon="2.12246">
        <ele>67.57</ele>
        <time>2024-07-12T17:31:48.122Z</time>
      </trkpt>
      <trkpt lat="50.63192" lon="2.12252">
        <ele>67.85</ele>
        <time>2024-07-12T17:31:55.325Z</time>
      </trkpt>
      <trkpt lat="50.63191" lon="2.12257">
        <ele>68.13</ele>
        <time>2024-07-12T17:32:02.529Z</time>
      </trkpt>
      <trkpt lat="50.63189" lon="2.12272">
        <ele>69.32</ele>
        <time>2024-07-12T17:32:09.735Z</time>
      </trkpt>
      <trkpt lat="50.63189" lon="2.12276">
        <ele>69.67</ele>
        <time>2024-07-12T17:32:16.941Z</time>
      </trkpt>
      <trkpt lat="50.63188" lon="2.12286">
        <ele>70.47</ele>
        <time>2024-07-12T17:32:24.148Z</time>
      </trkpt>
      <trkpt lat="50.63186" lon="2.12295">
        <ele>71.32</ele>
        <time>2024-07-12T17:32:31.356Z</time>
      </trkpt>
      <trkpt lat="50.63184" lon="2.12301">
        <ele>71.75</ele>
        <time>2024-07-12T17:32:38.565Z</time>
      </trkpt>
      <trkpt lat="50.63183" lon="2.12309">
        <ele>72.13</ele>
        <time>2024-07-12T17:32:45.774Z</time>
      </trkpt>
      <trkpt lat="50.63181" lon="2.12316">
        <ele>72.56</ele>
        <time>2024-07-12T17:32:52.984Z</time>
      </trkpt>
      <trkpt lat="50.63182" lon="2.12317">
        <ele>72.56</ele>
        <time>2024-07-12T17:33:00.194Z</time>
      </trkpt>
      <trkpt lat="50.63181" lon="2.12327">
        <ele>73.19</ele>
        <time>2024-07-12T17:33:07.405Z</time>
      </trkpt>
      <trkpt lat="50.63178" lon="2.12336">
        <ele>74.11</ele>
        <time>2024-07-12T17:33:14.617Z</time>
      </trkpt>
      <trkpt lat="50.63177" lon="2.12343">
        <ele>74.78</ele>
        <time>2024-07-12T17:33:21.830Z</time>
      </trkpt>
      <trkpt lat="50.63173" lon="2.12354">
        <ele>75.89</ele>
        <time>2024-07-12T17:33:29.044Z</time>
      </trkpt>
      <trkpt lat="50.63173" lon="2.12357">
        <ele>76.06</ele>
        <time>2024-07-12T17:33:36.259Z</time>
      </trkpt>
      <trkpt lat="50.63169" lon="2.1237">
        <ele>76.74</ele>
        <time>2024-07-12T17:33:43.475Z</time>
      </trkpt>
      <trkpt lat="50.63169" lon="2.12371">
        <ele>76.8</ele>
        <time>2024-07-12T17:33:50.691Z</time>
      </trkpt>
      <trkpt lat="50.63166" lon="2.12384">
        <ele>77.5</ele>
        <time>2024-07-12T17:33:57.909Z</time>
      </trkpt>
      <trkpt lat="50.63163" lon="2.12399">
        <ele>78.3</ele>
        <time>2024-07-12T17:34:05.128Z</time>
      </trkpt>
      <trkpt lat="50.63158" lon="2.12416">
        <ele>79.27</ele>
        <time>2024-07-12T17:34:12.349Z</time>
      </trkpt>
      <trkpt lat="50.63156" lon="2.1242">
        <ele>79.51</ele>
        <time>2024-07-12T17:34:19.571Z</time>
      </trkpt>
      <trkpt lat="50.63156" lon="2.12422">
        <ele>79.57</ele>
        <time>2024-07-12T17:34:26.793Z</time>
      </trkpt>
      <trkpt lat="50.63155" lon="2.12425">
        <ele>79.76</ele>
        <time>2024-07-12T17:34:34.015Z</time>
      </trkpt>
      <trkpt lat="50.63153" lon="2.12429">
        <ele>80.04</ele>
        <time>2024-07-12T17:34:41.238Z</time>
      </trkpt>
      <trkpt lat="50.63153" lon="2.12432">
        <ele>80.17</ele>
        <time>2024-07-12T17:34:48.461Z</time>
      </trkpt>
      <trkpt lat="50.63151" lon="2.12445">
        <ele>81.16</ele>
        <time>2024-07-12T17:34:55.685Z</time>
      </trkpt>
      <trkpt lat="50.6315" lon="2.1245">
        <ele>81.65</ele>
        <time>2024-07-12T17:35:02.910Z</time>
      </trkpt>
      <trkpt lat="50.63147" lon="2.12461">
        <ele>82.62</ele>
        <time>2024-07-12T17:35:10.136Z</time>
      </trkpt>
      <trkpt lat="50.63146" lon="2.12466">
        <ele>82.95</ele>
        <time>2024-07-12T17:35:17.363Z</time>
      </trkpt>
      <trkpt lat="50.63141" lon="2.12483">
        <ele>83.79</ele>
        <time>2024-07-12T17:35:24.591Z</time>
      </trkpt>
      <trkpt lat="50.63141" lon="2.12484">
        <ele>83.88</ele>
        <time>2024-07-12T17:35:31.820Z</time>
      </trkpt>
      <trkpt lat="50.63136" lon="2.125">
        <ele>84.84</ele>
        <time>2024-07-12T17:35:39.050Z</time>
      </trkpt>
      <trkpt lat="50.63133" lon="2.12515">
        <ele>85.61</ele>
        <time>2024-07-12T17:35:46.282Z</time>
      </trkpt>
      <trkpt lat="50.63129" lon="2.12532">
        <ele>87</ele>
        <time>2024-07-12T17:35:53.516Z</time>
      </trkpt>
      <trkpt lat="50.63129" lon="2.12533">
        <ele>87.07</ele>
        <time>2024-07-12T17:36:00.750Z</time>
      </trkpt>
      <trkpt lat="50.63126" lon="2.12546">
        <ele>87.63</ele>
        <time>2024-07-12T17:36:07.985Z</time>
      </trkpt>
      <trkpt lat="50.63124" lon="2.12553">
        <ele>87.92</ele>
        <time>2024-07-12T17:36:15.221Z</time>
      </trkpt>
      <trkpt lat="50.63122" lon="2.12563">
        <ele>88.38</ele>
        <time>2024-07-12T17:36:22.458Z</time>
      </trkpt>
      <trkpt lat="50.6312" lon="2.12575">
        <ele>88.98</ele>
        <time>2024-07-12T17:36:29.697Z</time>
      </trkpt>
      <trkpt lat="50.63118" lon="2.12581">
        <ele>89.55</ele>
        <time>2024-07-12T17:36:36.936Z</time>
      </trkpt>
      <trkpt lat="50.63116" lon="2.12594">
        <ele>91.13</ele>
        <time>2024-07-12T17:36:44.176Z</time>
      </trkpt>
      <trkpt lat="50.63116" lon="2.12596">
        <ele>91.36</ele>
        <time>2024-07-12T17:36:51.417Z</time>
      </trkpt>
      <trkpt lat="50.63112" lon="2.12611">
        <ele>92.85</ele>
        <time>2024-07-12T17:36:58.659Z</time>
      </trkpt>
      <trkpt lat="50.63112" lon="2.12613">
        <ele>92.97</ele>
        <time>2024-07-12T17:37:05.902Z</time>
      </trkpt>
      <trkpt lat="50.63108" lon="2.12625">
        <ele>93.98</ele>
        <time>2024-07-12T17:37:13.146Z</time>
      </trkpt>
      <trkpt lat="50.63107" lon="2.12632">
        <ele>94.55</ele>
        <time>2024-07-12T17:37:20.391Z</time>
      </trkpt>
      <trkpt lat="50.63106" lon="2.12639">
        <ele>95.06</ele>
        <time>2024-07-12T17:37:27.636Z</time>
      </trkpt>
      <trkpt lat="50.63103" lon="2.12653">
        <ele>96.16</ele>
        <time>2024-07-12T17:37:34.883Z</time>
      </trkpt>
      <trkpt lat="50.63102" lon="2.12667">
        <ele>97.93</ele>
        <time>2024-07-12T17:37:42.131Z</time>
      </trkpt>
      <trkpt lat="50.63102" lon="2.12673">
        <ele>98.8</ele>
        <time>2024-07-12T17:37:49.380Z</time>
      </trkpt>
      <trkpt lat="50.63103" lon="2.1268">
        <ele>99.78</ele>
        <time>2024-07-12T17:37:56.630Z</time>
      </trkpt>
      <trkpt lat="50.63105" lon="2.12688">
        <ele>100.78</ele>
        <time>2024-07-12T17:38:03.881Z</time>
      </trkpt>
      <trkpt lat="50.63107" lon="2.12693">
        <ele>101.27</ele>
        <time>2024-07-12T17:38:11.132Z</time>
      </trkpt>
      <trkpt lat="50.63108" lon="2.12696">
        <ele>101.48</ele>
        <time>2024-07-12T17:38:18.383Z</time>
      </trkpt>
      <trkpt lat="50.63113" lon="2.127">
        <ele>101.8</ele>
        <time>2024-07-12T17:38:25.635Z</time>
      </trkpt>
      <trkpt lat="50.63119" lon="2.12707">
        <ele>102.33</ele>
        <time>2024-07-12T17:38:32.889Z</time>
      </trkpt>
      <trkpt lat="50.63134" lon="2.12719">
        <ele>103.4</ele>
        <time>2024-07-12T17:38:40.145Z</time>
      </trkpt>
      <trkpt lat="50.63149" lon="2.12733">
        <ele>104.56</ele>
        <time>2024-07-12T17:38:47.404Z</time>
      </trkpt>
      <trkpt lat="50.63163" lon="2.12749">
        <ele>106.14</ele>
        <time>2024-07-12T17:38:54.666Z</time>
      </trkpt>
      <trkpt lat="50.63175" lon="2.12759">
        <ele>107.46</ele>
        <time>2024-07-12T17:39:01.930Z</time>
      </trkpt>
      <trkpt lat="50.63188" lon="2.12769">
        <ele>109.46</ele>
        <time>2024-07-12T17:39:09.196Z</time>
      </trkpt>
      <trkpt lat="50.63191" lon="2.12773">
        <ele>110.3</ele>
        <time>2024-07-12T17:39:16.463Z</time>
      </trkpt>
      <trkpt lat="50.63204" lon="2.12784">
        <ele>113.22</ele>
        <time>2024-07-12T17:39:23.732Z</time>
      </trkpt>
      <trkpt lat="50.63206" lon="2.12786">
        <ele>113.55</ele>
        <time>2024-07-12T17:39:31.002Z</time>
      </trkpt>
      <trkpt lat="50.63214" lon="2.12794">
        <ele>115.58</ele>
        <time>2024-07-12T17:39:38.273Z</time>
      </trkpt>
      <trkpt lat="50.6322" lon="2.12799">
        <ele>116.87</ele>
        <time>2024-07-12T17:39:45.545Z</time>
      </trkpt>
      <trkpt lat="50.63224" lon="2.12803">
        <ele>117.98</ele>
        <time>2024-07-12T17:39:52.818Z</time>
      </trkpt>
      <trkpt lat="50.63234" lon="2.12814">
        <ele>119.23</ele>
        <time>2024-07-12T17:40:00.093Z</time>
      </trkpt>
      <trkpt lat="50.63236" lon="2.12815">
        <ele>119.16</ele>
        <time>2024-07-12T17:40:07.368Z</time>
      </trkpt>
      <trkpt lat="50.63244" lon="2.12821">
        <ele>119.13</ele>
        <time>2024-07-12T17:40:14.645Z</time>
      </trkpt>
      <trkpt lat="50.63247" lon="2.12823">
        <ele>119.19</ele>
        <time>2024-07-12T17:40:21.922Z</time>
      </trkpt>
      <trkpt lat="50.63256" lon="2.1283">
        <ele>119.45</ele>
        <time>2024-07-12T17:40:29.201Z</time>
      </trkpt>
      <trkpt lat="50.63262" lon="2.12835">
        <ele>119.65</ele>
        <time>2024-07-12T17:40:36.481Z</time>
      </trkpt>
      <trkpt lat="50.63267" lon="2.1284">
        <ele>119.95</ele>
        <time>2024-07-12T17:40:43.762Z</time>
      </trkpt>
      <trkpt lat="50.63273" lon="2.12845">
        <ele>120.16</ele>
        <time>2024-07-12T17:40:51.044Z</time>
      </trkpt>
      <trkpt lat="50.63276" lon="2.12848">
        <ele>120.19</ele>
        <time>2024-07-12T17:40:58.327Z</time>
      </trkpt>
      <trkpt lat="50.63285" lon="2.12855">
        <ele>120.37</ele>
        <time>2024-07-12T17:41:05.611Z</time>
      </trkpt>
      <trkpt lat="50.63286" lon="2.12856">
        <ele>120.47</ele>
        <time>2024-07-12T17:41:12.895Z</time>
      </trkpt>
      <trkpt lat="50.63294" lon="2.12863">
        <ele>120.87</ele>
        <time>2024-07-12T17:41:20.181Z</time>
      </trkpt>
      <trkpt lat="50.63295" lon="2.12865">
        <ele>120.95</ele>
        <time>2024-07-12T17:41:27.467Z</time>
      </trkpt>
      <trkpt lat="50.63304" lon="2.12871">
        <ele>121.25</ele>
        <time>2024-07-12T17:41:34.755Z</time>
      </trkpt>
      <trkpt lat="50.63305" lon="2.12873">
        <ele>121.33</ele>
        <time>2024-07-12T17:41:42.043Z</time>
      </trkpt>
      <trkpt lat="50.63311" lon="2.12879">
        <ele>122.02</ele>
        <time>2024-07-12T17:41:49.332Z</time>
      </trkpt>
      <trkpt lat="50.63313" lon="2.12881">
        <ele>122.15</ele>
        <time>2024-07-12T17:41:56.621Z</time>
      </trkpt>
      <trkpt lat="50.63318" lon="2.12886">
        <ele>122.75</ele>
        <time>2024-07-12T17:42:03.911Z</time>
      </trkpt>
      <trkpt lat="50.63319" lon="2.12886">
        <ele>122.71</ele>
        <time>2024-07-12T17:42:11.201Z</time>
      </trkpt>
      <trkpt lat="50.6332" lon="2.12888">
        <ele>122.97</ele>
        <time>2024-07-12T17:42:18.492Z</time>
      </trkpt>
      <trkpt lat="50.6333" lon="2.12895">
        <ele>123.64</ele>
        <time>2024-07-12T17:42:25.784Z</time>
      </trkpt>
      <trkpt lat="50.63332" lon="2.12897">
        <ele>123.81</ele>
        <time>2024-07-12T17:42:33.077Z</time>
      </trkpt>
      <trkpt lat="50.63337" lon="2.12904">
        <ele>124.72</ele>
        <time>2024-07-12T17:42:40.371Z</time>
      </trkpt>
      <trkpt lat="50.6334" lon="2.12908">
        <ele>125.2</ele>
        <time>2024-07-12T17:42:47.666Z</time>
      </trkpt>
      <trkpt lat="50.63344" lon="2.12913">
        <ele>125.7</ele>
        <time>2024-07-12T17:42:54.961Z</time>
      </trkpt>
      <trkpt lat="50.63348" lon="2.12916">
        <ele>126.04</ele>
        <time>2024-07-12T17:43:02.257Z</time>
      </trkpt>
      <trkpt lat="50.63349" lon="2.12919">
        <ele>126.35</ele>
        <time>2024-07-12T17:43:09.553Z</time>
      </trkpt>
      <trkpt lat="50.63354" lon="2.12925">
        <ele>127.17</ele>
        <time>2024-07-12T17:43:16.850Z</time>
      </trkpt>
      <trkpt lat="50.63356" lon="2.12927">
        <ele>127.44</ele>
        <time>2024-07-12T17:43:24.148Z</time>
      </trkpt>
      <trkpt lat="50.63361" lon="2.12937">
        <ele>128.56</ele>
        <time>2024-07-12T17:43:31.447Z</time>
      </trkpt>
      <trkpt lat="50.63362" lon="2.12938">
        <ele>128.58</ele>
        <time>2024-07-12T17:43:38.746Z</time>
      </trkpt>
      <trkpt lat="50.63367" lon="2.12946">
        <ele>129.21</ele>
        <time>2024-07-12T17:43:46.046Z</time>
      </trkpt>
      <trkpt lat="50.63368" lon="2.12947">
        <ele>129.26</ele>
        <time>2024-07-12T17:43:53.347Z</time>
      </trkpt>
      <trkpt lat="50.63372" lon="2.12954">
        <ele>129.85</ele>
        <time>2024-07-12T17:44:00.649Z</time>
      </trkpt>
      <trkpt lat="50.63374" lon="2.12957">
        <ele>130.14</ele>
        <time>2024-07-12T17:44:07.951Z</time>
      </trkpt>
      <trkpt lat="50.63377" lon="2.1296">
        <ele>130.32</ele>
        <time>2024-07-12T17:44:15.254Z</time>
      </trkpt>
      <trkpt lat="50.63379" lon="2.12962">
        <ele>130.47</ele>
        <time>2024-07-12T17:44:22.557Z</time>
      </trkpt>
      <trkpt lat="50.63381" lon="2.12964">
        <ele>130.53</ele>
        <time>2024-07-12T17:44:29.860Z</time>
      </trkpt>
      <trkpt lat="50.63386" lon="2.12973">
        <ele>131</ele>
        <time>2024-07-12T17:44:37.165Z</time>
      </trkpt>
      <trkpt lat="50.63392" lon="2.12983">
        <ele>131.55</ele>
        <time>2024-07-12T17:44:44.471Z</time>
      </trkpt>
      <trkpt lat="50.63394" lon="2.12986">
        <ele>131.68</ele>
        <time>2024-07-12T17:44:51.777Z</time>
      </trkpt>
      <trkpt lat="50.63402" lon="2.13">
        <ele>132.38</ele>
        <time>2024-07-12T17:44:59.085Z</time>
      </trkpt>
      <trkpt lat="50.63406" lon="2.13005">
        <ele>132.63</ele>
        <time>2024-07-12T17:45:06.394Z</time>
      </trkpt>
      <trkpt lat="50.63414" lon="2.13019">
        <ele>133.29</ele>
        <time>2024-07-12T17:45:13.705Z</time>
      </trkpt>
      <trkpt lat="50.63421" lon="2.13035">
        <ele>133.58</ele>
        <time>2024-07-12T17:45:21.018Z</time>
      </trkpt>
      <trkpt lat="50.63424" lon="2.13039">
        <ele>133.65</ele>
        <time>2024-07-12T17:45:28.332Z</time>
      </trkpt>
      <trkpt lat="50.63431" lon="2.13064">
        <ele>134</ele>
        <time>2024-07-12T17:45:35.648Z</time>
      </trkpt>
      <trkpt lat="50.63432" lon="2.13067">
        <ele>134</ele>
        <time>2024-07-12T17:45:42.965Z</time>
      </trkpt>
      <trkpt lat="50.63437" lon="2.13085">
        <ele>134.43</ele>
        <time>2024-07-12T17:45:50.284Z</time>
      </trkpt>
      <trkpt lat="50.63438" lon="2.13088">
        <ele>134.54</ele>
        <time>2024-07-12T17:45:57.603Z</time>
      </trkpt>
      <trkpt lat="50.6344" lon="2.13108">
        <ele>135</ele>
        <time>2024-07-12T17:46:04.924Z</time>
      </trkpt>
      <trkpt lat="50.63442" lon="2.13127">
        <ele>135</ele>
        <time>2024-07-12T17:46:12.247Z</time>
      </trkpt>
      <trkpt lat="50.63443" lon="2.13135">
        <ele>135.47</ele>
        <time>2024-07-12T17:46:19.571Z</time>
      </trkpt>
      <trkpt lat="50.63444" lon="2.13149">
        <ele>136.42</ele>
        <time>2024-07-12T17:46:26.896Z</time>
      </trkpt>
      <trkpt lat="50.63445" lon="2.13159">
        <ele>136.88</ele>
        <time>2024-07-12T17:46:34.222Z</time>
      </trkpt>
      <trkpt lat="50.63445" lon="2.13183">
        <ele>136.95</ele>
        <time>2024-07-12T17:46:41.551Z</time>
      </trkpt>
      <trkpt lat="50.63445" lon="2.13214">
        <ele>137</ele>
        <time>2024-07-12T17:46:48.883Z</time>
      </trkpt>
      <trkpt lat="50.63446" lon="2.13262">
        <ele>137.09</ele>
        <time>2024-07-12T17:46:56.220Z</time>
      </trkpt>
      <trkpt lat="50.63446" lon="2.13319">
        <ele>136.16</ele>
        <time>2024-07-12T17:47:03.563Z</time>
      </trkpt>
      <trkpt lat="50.63446" lon="2.13378">
        <ele>133.96</ele>
        <time>2024-07-12T17:47:10.912Z</time>
      </trkpt>
      <trkpt lat="50.63445" lon="2.13401">
        <ele>132.28</ele>
        <time>2024-07-12T17:47:18.263Z</time>
      </trkpt>
      <trkpt lat="50.63444" lon="2.13447">
        <ele>130.67</ele>
        <time>2024-07-12T17:47:25.619Z</time>
      </trkpt>
      <trkpt lat="50.63443" lon="2.13458">
        <ele>130.37</ele>
        <time>2024-07-12T17:47:32.976Z</time>
      </trkpt>
      <trkpt lat="50.6344" lon="2.13479">
        <ele>130.59</ele>
        <time>2024-07-12T17:47:40.335Z</time>
      </trkpt>
      <trkpt lat="50.63438" lon="2.1349">
        <ele>130.75</ele>
        <time>2024-07-12T17:47:47.695Z</time>
      </trkpt>
      <trkpt lat="50.63432" lon="2.1351">
        <ele>131.87</ele>
        <time>2024-07-12T17:47:55.058Z</time>
      </trkpt>
      <trkpt lat="50.63421" lon="2.13551">
        <ele>134.18</ele>
        <time>2024-07-12T17:48:02.425Z</time>
      </trkpt>
      <trkpt lat="50.6341" lon="2.13586">
        <ele>136.6</ele>
        <time>2024-07-12T17:48:09.796Z</time>
      </trkpt>
      <trkpt lat="50.63408" lon="2.13591">
        <ele>136.94</ele>
        <time>2024-07-12T17:48:17.168Z</time>
      </trkpt>
      <trkpt lat="50.63404" lon="2.13608">
        <ele>138</ele>
        <time>2024-07-12T17:48:24.541Z</time>
      </trkpt>
      <trkpt lat="50.634" lon="2.13619">
        <ele>138.44</ele>
        <time>2024-07-12T17:48:31.916Z</time>
      </trkpt>
      <trkpt lat="50.63396" lon="2.13634">
        <ele>138.88</ele>
        <time>2024-07-12T17:48:39.292Z</time>
      </trkpt>
      <trkpt lat="50.63389" lon="2.13657">
        <ele>140.26</ele>
        <time>2024-07-12T17:48:46.671Z</time>
      </trkpt>
      <trkpt lat="50.63388" lon="2.13661">
        <ele>140.35</ele>
        <time>2024-07-12T17:48:54.050Z</time>
      </trkpt>
      <trkpt lat="50.63378" lon="2.13694">
        <ele>141.01</ele>
        <time>2024-07-12T17:49:01.433Z</time>
      </trkpt>
      <trkpt lat="50.63377" lon="2.13697">
        <ele>141.12</ele>
        <time>2024-07-12T17:49:08.817Z</time>
      </trkpt>
      <trkpt lat="50.6337" lon="2.13722">
        <ele>141.63</ele>
        <time>2024-07-12T17:49:16.203Z</time>
      </trkpt>
      <trkpt lat="50.63369" lon="2.13726">
        <ele>141.5</ele>
        <time>2024-07-12T17:49:23.590Z</time>
      </trkpt>
      <trkpt lat="50.63362" lon="2.13748">
        <ele>141.08</ele>
        <time>2024-07-12T17:49:30.979Z</time>
      </trkpt>
      <trkpt lat="50.63358" lon="2.13765">
        <ele>141.1</ele>
        <time>2024-07-12T17:49:38.370Z</time>
      </trkpt>
      <trkpt lat="50.63355" lon="2.13774">
        <ele>141</ele>
        <time>2024-07-12T17:49:45.762Z</time>
      </trkpt>
      <trkpt lat="50.63347" lon="2.13799">
        <ele>141</ele>
        <time>2024-07-12T17:49:53.157Z</time>
      </trkpt>
      <trkpt lat="50.63343" lon="2.13814">
        <ele>141</ele>
        <time>2024-07-12T17:50:00.554Z</time>
      </trkpt>
      <trkpt lat="50.63339" lon="2.13827">
        <ele>141.07</ele>
        <time>2024-07-12T17:50:07.952Z</time>
      </trkpt>
      <trkpt lat="50.63329" lon="2.13868">
        <ele>142.88</ele>
        <time>2024-07-12T17:50:15.355Z</time>
      </trkpt>
      <trkpt lat="50.63318" lon="2.13904">
        <ele>144.68</ele>
        <time>2024-07-12T17:50:22.762Z</time>
      </trkpt>
      <trkpt lat="50.63303" lon="2.1395">
        <ele>143.91</ele>
        <time>2024-07-12T17:50:30.174Z</time>
      </trkpt>
      <trkpt lat="50.63299" lon="2.13963">
        <ele>143.74</ele>
        <time>2024-07-12T17:50:37.587Z</time>
      </trkpt>
      <trkpt lat="50.63288" lon="2.13993">
        <ele>143.54</ele>
        <time>2024-07-12T17:50:45.004Z</time>
      </trkpt>
      <trkpt lat="50.63271" lon="2.14041">
        <ele>142.18</ele>
        <time>2024-07-12T17:50:52.426Z</time>
      </trkpt>
      <trkpt lat="50.63249" lon="2.14102">
        <ele>140.82</ele>
        <time>2024-07-12T17:50:59.856Z</time>
      </trkpt>
      <trkpt lat="50.63246" lon="2.14112">
        <ele>140.7</ele>
        <time>2024-07-12T17:51:07.287Z</time>
      </trkpt>
      <trkpt lat="50.63232" lon="2.14152">
        <ele>140.2</ele>
        <time>2024-07-12T17:51:14.722Z</time>
      </trkpt>
      <trkpt lat="50.63222" lon="2.14182">
        <ele>139</ele>
        <time>2024-07-12T17:51:22.161Z</time>
      </trkpt>
      <trkpt lat="50.63218" lon="2.14191">
        <ele>138.78</ele>
        <time>2024-07-12T17:51:29.601Z</time>
      </trkpt>
      <trkpt lat="50.63208" lon="2.14222">
        <ele>138.64</ele>
        <time>2024-07-12T17:51:37.044Z</time>
      </trkpt>
      <trkpt lat="50.63206" lon="2.14228">
        <ele>138.43</ele>
        <time>2024-07-12T17:51:44.488Z</time>
      </trkpt>
      <trkpt lat="50.63198" lon="2.1424">
        <ele>138</ele>
        <time>2024-07-12T17:51:51.934Z</time>
      </trkpt>
      <trkpt lat="50.63193" lon="2.14259">
        <ele>137.32</ele>
        <time>2024-07-12T17:51:59.382Z</time>
      </trkpt>
      <trkpt lat="50.63188" lon="2.1427">
        <ele>137.26</ele>
        <time>2024-07-12T17:52:06.831Z</time>
      </trkpt>
      <trkpt lat="50.63184" lon="2.14281">
        <ele>137.04</ele>
        <time>2024-07-12T17:52:14.282Z</time>
      </trkpt>
      <trkpt lat="50.63182" lon="2.14287">
        <ele>136.91</ele>
        <time>2024-07-12T17:52:21.733Z</time>
      </trkpt>
      <trkpt lat="50.63161" lon="2.14333">
        <ele>137</ele>
        <time>2024-07-12T17:52:29.190Z</time>
      </trkpt>
      <trkpt lat="50.63146" lon="2.14371">
        <ele>137.15</ele>
        <time>2024-07-12T17:52:36.652Z</time>
      </trkpt>
      <trkpt lat="50.63146" lon="2.14378">
        <ele>136.93</ele>
        <time>2024-07-12T17:52:44.114Z</time>
      </trkpt>
      <trkpt lat="50.63146" lon="2.14384">
        <ele>136.88</ele>
        <time>2024-07-12T17:52:51.577Z</time>
      </trkpt>
      <trkpt lat="50.63148" lon="2.1439">
        <ele>136.82</ele>
        <time>2024-07-12T17:52:59.041Z</time>
      </trkpt>
      <trkpt lat="50.6315" lon="2.14397">
        <ele>136.74</ele>
        <time>2024-07-12T17:53:06.506Z</time>
      </trkpt>
      <trkpt lat="50.63153" lon="2.14403">
        <ele>136.63</ele>
        <time>2024-07-12T17:53:13.971Z</time>
      </trkpt>
      <trkpt lat="50.63156" lon="2.14409">
        <ele>136.52</ele>
        <time>2024-07-12T17:53:21.437Z</time>
      </trkpt>
      <trkpt lat="50.63176" lon="2.14443">
        <ele>135.52</ele>
        <time>2024-07-12T17:53:28.908Z</time>
      </trkpt>
      <trkpt lat="50.6318" lon="2.1445">
        <ele>135.11</ele>
        <time>2024-07-12T17:53:36.380Z</time>
      </trkpt>
      <trkpt lat="50.63207" lon="2.14499">
        <ele>133.68</ele>
        <time>2024-07-12T17:53:43.858Z</time>
      </trkpt>
      <trkpt lat="50.6321" lon="2.14509">
        <ele>133.33</ele>
        <time>2024-07-12T17:53:51.337Z</time>
      </trkpt>
      <trkpt lat="50.63216" lon="2.14541">
        <ele>132.35</ele>
        <time>2024-07-12T17:53:58.820Z</time>
      </trkpt>
      <trkpt lat="50.63219" lon="2.14564">
        <ele>132.92</ele>
        <time>2024-07-12T17:54:06.305Z</time>
      </trkpt>
      <trkpt lat="50.63227" lon="2.14608">
        <ele>133</ele>
        <time>2024-07-12T17:54:13.795Z</time>
      </trkpt>
      <trkpt lat="50.63231" lon="2.14617">
        <ele>133</ele>
        <time>2024-07-12T17:54:21.286Z</time>
      </trkpt>
      <trkpt lat="50.63235" lon="2.14624">
        <ele>133</ele>
        <time>2024-07-12T17:54:28.778Z</time>
      </trkpt>
      <trkpt lat="50.63246" lon="2.14637">
        <ele>132.72</ele>
        <time>2024-07-12T17:54:36.272Z</time>
      </trkpt>
      <trkpt lat="50.63258" lon="2.14649">
        <ele>132.43</ele>
        <time>2024-07-12T17:54:43.768Z</time>
      </trkpt>
      <trkpt lat="50.63266" lon="2.14665">
        <ele>132.17</ele>
        <time>2024-07-12T17:54:51.267Z</time>
      </trkpt>
      <trkpt lat="50.6327" lon="2.14673">
        <ele>132</ele>
        <time>2024-07-12T17:54:58.767Z</time>
      </trkpt>
      <trkpt lat="50.63272" lon="2.14682">
        <ele>132</ele>
        <time>2024-07-12T17:55:06.268Z</time>
      </trkpt>
      <trkpt lat="50.63278" lon="2.14708">
        <ele>132</ele>
        <time>2024-07-12T17:55:13.771Z</time>
      </trkpt>
      <trkpt lat="50.6328" lon="2.14717">
        <ele>131.92</ele>
        <time>2024-07-12T17:55:21.275Z</time>
      </trkpt>
      <trkpt lat="50.63279" lon="2.1475">
        <ele>131.9</ele>
        <time>2024-07-12T17:55:28.783Z</time>
      </trkpt>
      <trkpt lat="50.63278" lon="2.14773">
        <ele>132</ele>
        <time>2024-07-12T17:55:36.293Z</time>
      </trkpt>
      <trkpt lat="50.63275" lon="2.14802">
        <ele>131.76</ele>
        <time>2024-07-12T17:55:43.806Z</time>
      </trkpt>
      <trkpt lat="50.63276" lon="2.14814">
        <ele>131.32</ele>
        <time>2024-07-12T17:55:51.320Z</time>
      </trkpt>
      <trkpt lat="50.6328" lon="2.14853">
        <ele>130</ele>
        <time>2024-07-12T17:55:58.838Z</time>
      </trkpt>
      <trkpt lat="50.63285" lon="2.14865">
        <ele>130.11</ele>
        <time>2024-07-12T17:56:06.358Z</time>
      </trkpt>
      <trkpt lat="50.6329" lon="2.14882">
        <ele>130.3</ele>
        <time>2024-07-12T17:56:13.880Z</time>
      </trkpt>
      <trkpt lat="50.63291" lon="2.14905">
        <ele>129.75</ele>
        <time>2024-07-12T17:56:21.404Z</time>
      </trkpt>
      <trkpt lat="50.6329" lon="2.14912">
        <ele>129.81</ele>
        <time>2024-07-12T17:56:28.929Z</time>
      </trkpt>
      <trkpt lat="50.63285" lon="2.14949">
        <ele>129.38</ele>
        <time>2024-07-12T17:56:36.458Z</time>
      </trkpt>
      <trkpt lat="50.63282" lon="2.14981">
        <ele>129.69</ele>
        <time>2024-07-12T17:56:43.990Z</time>
      </trkpt>
      <trkpt lat="50.63274" lon="2.15011">
        <ele>130.2</ele>
        <time>2024-07-12T17:56:51.525Z</time>
      </trkpt>
      <trkpt lat="50.63273" lon="2.15013">
        <ele>130.18</ele>
        <time>2024-07-12T17:56:59.060Z</time>
      </trkpt>
      <trkpt lat="50.63273" lon="2.15016">
        <ele>130.29</ele>
        <time>2024-07-12T17:57:06.596Z</time>
      </trkpt>
      <trkpt lat="50.63274" lon="2.15013">
        <ele>130.26</ele>
        <time>2024-07-12T17:57:14.132Z</time>
      </trkpt>
      <trkpt lat="50.63276" lon="2.15005">
        <ele>130.1</ele>
        <time>2024-07-12T17:57:21.669Z</time>
      </trkpt>
      <trkpt lat="50.6328" lon="2.14991">
        <ele>129.89</ele>
        <time>2024-07-12T17:57:29.208Z</time>
      </trkpt>
      <trkpt lat="50.63285" lon="2.14967">
        <ele>129.4</ele>
        <time>2024-07-12T17:57:36.749Z</time>
      </trkpt>
      <trkpt lat="50.63288" lon="2.14937">
        <ele>129.71</ele>
        <time>2024-07-12T17:57:44.293Z</time>
      </trkpt>
      <trkpt lat="50.63289" lon="2.14931">
        <ele>129.84</ele>
        <time>2024-07-12T17:57:51.838Z</time>
      </trkpt>
      <trkpt lat="50.63294" lon="2.14903">
        <ele>130.05</ele>
        <time>2024-07-12T17:57:59.386Z</time>
      </trkpt>
      <trkpt lat="50.63294" lon="2.14891">
        <ele>130.42</ele>
        <time>2024-07-12T17:58:06.935Z</time>
      </trkpt>
      <trkpt lat="50.63291" lon="2.1488">
        <ele>130.34</ele>
        <time>2024-07-12T17:58:14.485Z</time>
      </trkpt>
      <trkpt lat="50.63284" lon="2.14861">
        <ele>130.08</ele>
        <time>2024-07-12T17:58:22.037Z</time>
      </trkpt>
      <trkpt lat="50.63282" lon="2.14854">
        <ele>130.01</ele>
        <time>2024-07-12T17:58:29.590Z</time>
      </trkpt>
      <trkpt lat="50.63277" lon="2.14826">
        <ele>130.91</ele>
        <time>2024-07-12T17:58:37.146Z</time>
      </trkpt>
      <trkpt lat="50.6328" lon="2.14786">
        <ele>132</ele>
        <time>2024-07-12T17:58:44.706Z</time>
      </trkpt>
      <trkpt lat="50.63283" lon="2.14783">
        <ele>132</ele>
        <time>2024-07-12T17:58:52.267Z</time>
      </trkpt>
      <trkpt lat="50.63288" lon="2.14781">
        <ele>132</ele>
        <time>2024-07-12T17:58:59.829Z</time>
      </trkpt>
      <trkpt lat="50.633" lon="2.14775">
        <ele>132</ele>
        <time>2024-07-12T17:59:07.393Z</time>
      </trkpt>
      <trkpt lat="50.63311" lon="2.14782">
        <ele>132.04</ele>
        <time>2024-07-12T17:59:14.959Z</time>
      </trkpt>
      <trkpt lat="50.6332" lon="2.14802">
        <ele>132.39</ele>
        <time>2024-07-12T17:59:22.527Z</time>
      </trkpt>
      <trkpt lat="50.63333" lon="2.14829">
        <ele>132.87</ele>
        <time>2024-07-12T17:59:30.099Z</time>
      </trkpt>
      <trkpt lat="50.63335" lon="2.14832">
        <ele>132.92</ele>
        <time>2024-07-12T17:59:37.671Z</time>
      </trkpt>
      <trkpt lat="50.63337" lon="2.14831">
        <ele>132.98</ele>
        <time>2024-07-12T17:59:45.243Z</time>
      </trkpt>
      <trkpt lat="50.63333" lon="2.1482">
        <ele>132.83</ele>
        <time>2024-07-12T17:59:52.816Z</time>
      </trkpt>
      <trkpt lat="50.63323" lon="2.14801">
        <ele>132.48</ele>
        <time>2024-07-12T18:00:00.392Z</time>
      </trkpt>
      <trkpt lat="50.63318" lon="2.14791">
        <ele>132.31</ele>
        <time>2024-07-12T18:00:07.969Z</time>
      </trkpt>
      <trkpt lat="50.63317" lon="2.14791">
        <ele>132.26</ele>
        <time>2024-07-12T18:00:15.546Z</time>
      </trkpt>
      <trkpt lat="50.63318" lon="2.14795">
        <ele>132.32</ele>
        <time>2024-07-12T18:00:23.124Z</time>
      </trkpt>
      <trkpt lat="50.63319" lon="2.14796">
        <ele>132.36</ele>
        <time>2024-07-12T18:00:30.702Z</time>
      </trkpt>
      <trkpt lat="50.63322" lon="2.14802">
        <ele>132.44</ele>
        <time>2024-07-12T18:00:38.281Z</time>
      </trkpt>
      <trkpt lat="50.63329" lon="2.14822">
        <ele>132.72</ele>
        <time>2024-07-12T18:00:45.862Z</time>
      </trkpt>
      <trkpt lat="50.63343" lon="2.14847">
        <ele>133.46</ele>
        <time>2024-07-12T18:00:53.447Z</time>
      </trkpt>
      <trkpt lat="50.63364" lon="2.14875">
        <ele>134.91</ele>
        <time>2024-07-12T18:01:01.036Z</time>
      </trkpt>
      <trkpt lat="50.63369" lon="2.14885">
        <ele>135</ele>
        <time>2024-07-12T18:01:08.626Z</time>
      </trkpt>
      <trkpt lat="50.63378" lon="2.14904">
        <ele>135</ele>
        <time>2024-07-12T18:01:16.219Z</time>
      </trkpt>
      <trkpt lat="50.63387" lon="2.14934">
        <ele>135</ele>
        <time>2024-07-12T18:01:23.815Z</time>
      </trkpt>
      <trkpt lat="50.63392" lon="2.1495">
        <ele>135.53</ele>
        <time>2024-07-12T18:01:31.413Z</time>
      </trkpt>
      <trkpt lat="50.63401" lon="2.14979">
        <ele>136.58</ele>
        <time>2024-07-12T18:01:39.014Z</time>
      </trkpt>
      <trkpt lat="50.63403" lon="2.14991">
        <ele>137.02</ele>
        <time>2024-07-12T18:01:46.616Z</time>
      </trkpt>
      <trkpt lat="50.63408" lon="2.15011">
        <ele>137.74</ele>
        <time>2024-07-12T18:01:54.221Z</time>
      </trkpt>
      <trkpt lat="50.63414" lon="2.15063">
        <ele>137.76</ele>
        <time>2024-07-12T18:02:01.831Z</time>
      </trkpt>
      <trkpt lat="50.6342" lon="2.15118">
        <ele>136.97</ele>
        <time>2024-07-12T18:02:09.447Z</time>
      </trkpt>
      <trkpt lat="50.63427" lon="2.15158">
        <ele>137</ele>
        <time>2024-07-12T18:02:17.067Z</time>
      </trkpt>
      <trkpt lat="50.63432" lon="2.15173">
        <ele>137.14</ele>
        <time>2024-07-12T18:02:24.689Z</time>
      </trkpt>
      <trkpt lat="50.63452" lon="2.15224">
        <ele>137.14</ele>
        <time>2024-07-12T18:02:32.317Z</time>
      </trkpt>
      <trkpt lat="50.6346" lon="2.15246">
        <ele>137.23</ele>
        <time>2024-07-12T18:02:39.947Z</time>
      </trkpt>
      <trkpt lat="50.63463" lon="2.1526">
        <ele>137</ele>
        <time>2024-07-12T18:02:47.579Z</time>
      </trkpt>
      <trkpt lat="50.63463" lon="2.15258">
        <ele>137</ele>
        <time>2024-07-12T18:02:55.211Z</time>
      </trkpt>
      <trkpt lat="50.63463" lon="2.15265">
        <ele>137</ele>
        <time>2024-07-12T18:03:02.844Z</time>
      </trkpt>
      <trkpt lat="50.63456" lon="2.15282">
        <ele>137</ele>
        <time>2024-07-12T18:03:10.479Z</time>
      </trkpt>
      <trkpt lat="50.63441" lon="2.15297">
        <ele>136.74</ele>
        <time>2024-07-12T18:03:18.116Z</time>
      </trkpt>
      <trkpt lat="50.63433" lon="2.15302">
        <ele>136.45</ele>
        <time>2024-07-12T18:03:25.755Z</time>
      </trkpt>
      <trkpt lat="50.63429" lon="2.15308">
        <ele>136.31</ele>
        <time>2024-07-12T18:03:33.395Z</time>
      </trkpt>
      <trkpt lat="50.6343" lon="2.15323">
        <ele>136.34</ele>
        <time>2024-07-12T18:03:41.036Z</time>
      </trkpt>
      <trkpt lat="50.63435" lon="2.15355">
        <ele>135.52</ele>
        <time>2024-07-12T18:03:48.681Z</time>
      </trkpt>
      <trkpt lat="50.6344" lon="2.15384">
        <ele>135.4</ele>
        <time>2024-07-12T18:03:56.329Z</time>
      </trkpt>
      <trkpt lat="50.63439" lon="2.15391">
        <ele>135.32</ele>
        <time>2024-07-12T18:04:03.977Z</time>
      </trkpt>
      <trkpt lat="50.63431" lon="2.15442">
        <ele>134.49</ele>
        <time>2024-07-12T18:04:11.631Z</time>
      </trkpt>
      <trkpt lat="50.63419" lon="2.15512">
        <ele>133</ele>
        <time>2024-07-12T18:04:19.292Z</time>
      </trkpt>
      <trkpt lat="50.63412" lon="2.15553">
        <ele>133</ele>
        <time>2024-07-12T18:04:26.957Z</time>
      </trkpt>
      <trkpt lat="50.63403" lon="2.15605">
        <ele>132</ele>
        <time>2024-07-12T18:04:34.628Z</time>
      </trkpt>
      <trkpt lat="50.63389" lon="2.15692">
        <ele>132</ele>
        <time>2024-07-12T18:04:42.308Z</time>
      </trkpt>
      <trkpt lat="50.63382" lon="2.15733">
        <ele>131.27</ele>
        <time>2024-07-12T18:04:49.992Z</time>
      </trkpt>
      <trkpt lat="50.63376" lon="2.15762">
        <ele>130.21</ele>
        <time>2024-07-12T18:04:57.680Z</time>
      </trkpt>
      <trkpt lat="50.63373" lon="2.15772">
        <ele>129.88</ele>
        <time>2024-07-12T18:05:05.369Z</time>
      </trkpt>
      <trkpt lat="50.63366" lon="2.15789">
        <ele>129.25</ele>
        <time>2024-07-12T18:05:13.060Z</time>
      </trkpt>
      <trkpt lat="50.63361" lon="2.15797">
        <ele>128.84</ele>
        <time>2024-07-12T18:05:20.752Z</time>
      </trkpt>
      <trkpt lat="50.63335" lon="2.15842">
        <ele>128.05</ele>
        <time>2024-07-12T18:05:28.450Z</time>
      </trkpt>
      <trkpt lat="50.63333" lon="2.15851">
        <ele>128.02</ele>
        <time>2024-07-12T18:05:36.149Z</time>
      </trkpt>
      <trkpt lat="50.6333" lon="2.1586">
        <ele>128</ele>
        <time>2024-07-12T18:05:43.849Z</time>
      </trkpt>
      <trkpt lat="50.63322" lon="2.1591">
        <ele>127.53</ele>
        <time>2024-07-12T18:05:51.554Z</time>
      </trkpt>
      <trkpt lat="50.63309" lon="2.15995">
        <ele>127.85</ele>
        <time>2024-07-12T18:05:59.268Z</time>
      </trkpt>
      <trkpt lat="50.63306" lon="2.16017">
        <ele>127.05</ele>
        <time>2024-07-12T18:06:06.984Z</time>
      </trkpt>
      <trkpt lat="50.63293" lon="2.16096">
        <ele>126</ele>
        <time>2024-07-12T18:06:14.709Z</time>
      </trkpt>
      <trkpt lat="50.63292" lon="2.16107">
        <ele>126.2</ele>
        <time>2024-07-12T18:06:22.435Z</time>
      </trkpt>
      <trkpt lat="50.63288" lon="2.16182">
        <ele>127</ele>
        <time>2024-07-12T18:06:30.169Z</time>
      </trkpt>
      <trkpt lat="50.63288" lon="2.16194">
        <ele>126.88</ele>
        <time>2024-07-12T18:06:37.904Z</time>
      </trkpt>
      <trkpt lat="50.63286" lon="2.16266">
        <ele>125.07</ele>
        <time>2024-07-12T18:06:45.646Z</time>
      </trkpt>
      <trkpt lat="50.63285" lon="2.16278">
        <ele>124.79</ele>
        <time>2024-07-12T18:06:53.389Z</time>
      </trkpt>
      <trkpt lat="50.63277" lon="2.1636">
        <ele>122</ele>
        <time>2024-07-12T18:07:01.141Z</time>
      </trkpt>
      <trkpt lat="50.6328" lon="2.16436">
        <ele>122</ele>
        <time>2024-07-12T18:07:08.901Z</time>
      </trkpt>
      <trkpt lat="50.63284" lon="2.16488">
        <ele>122.07</ele>
        <time>2024-07-12T18:07:16.666Z</time>
      </trkpt>
      <trkpt lat="50.63282" lon="2.16514">
        <ele>122.03</ele>
        <time>2024-07-12T18:07:24.434Z</time>
      </trkpt>
      <trkpt lat="50.63276" lon="2.16551">
        <ele>120.8</ele>
        <time>2024-07-12T18:07:32.206Z</time>
      </trkpt>
      <trkpt lat="50.63269" lon="2.16575">
        <ele>120.53</ele>
        <time>2024-07-12T18:07:39.980Z</time>
      </trkpt>
      <trkpt lat="50.63247" lon="2.16642">
        <ele>118.75</ele>
        <time>2024-07-12T18:07:47.762Z</time>
      </trkpt>
      <trkpt lat="50.63244" lon="2.16653">
        <ele>118.64</ele>
        <time>2024-07-12T18:07:55.545Z</time>
      </trkpt>
      <trkpt lat="50.63232" lon="2.16696">
        <ele>118</ele>
        <time>2024-07-12T18:08:03.333Z</time>
      </trkpt>
      <trkpt lat="50.63229" lon="2.1672">
        <ele>118</ele>
        <time>2024-07-12T18:08:11.123Z</time>
      </trkpt>
      <trkpt lat="50.63227" lon="2.16792">
        <ele>117.21</ele>
        <time>2024-07-12T18:08:18.921Z</time>
      </trkpt>
      <trkpt lat="50.63225" lon="2.16855">
        <ele>115.87</ele>
        <time>2024-07-12T18:08:26.725Z</time>
      </trkpt>
      <trkpt lat="50.63225" lon="2.16906">
        <ele>115.02</ele>
        <time>2024-07-12T18:08:34.534Z</time>
      </trkpt>
      <trkpt lat="50.63234" lon="2.16991">
        <ele>116.68</ele>
        <time>2024-07-12T18:08:42.352Z</time>
      </trkpt>
      <trkpt lat="50.63245" lon="2.17072">
        <ele>115.77</ele>
        <time>2024-07-12T18:08:50.179Z</time>
      </trkpt>
      <trkpt lat="50.63246" lon="2.17094">
        <ele>115.71</ele>
        <time>2024-07-12T18:08:58.008Z</time>
      </trkpt>
      <trkpt lat="50.63242" lon="2.17151">
        <ele>115.16</ele>
        <time>2024-07-12T18:09:05.843Z</time>
      </trkpt>
      <trkpt lat="50.63236" lon="2.17242">
        <ele>115.03</ele>
        <time>2024-07-12T18:09:13.687Z</time>
      </trkpt>
      <trkpt lat="50.63233" lon="2.17276">
        <ele>115.5</ele>
        <time>2024-07-12T18:09:21.534Z</time>
      </trkpt>
      <trkpt lat="50.63233" lon="2.17298">
        <ele>116.24</ele>
        <time>2024-07-12T18:09:29.384Z</time>
      </trkpt>
      <trkpt lat="50.63236" lon="2.1732">
        <ele>116.82</ele>
        <time>2024-07-12T18:09:37.236Z</time>
      </trkpt>
      <trkpt lat="50.63251" lon="2.17369">
        <ele>117.09</ele>
        <time>2024-07-12T18:09:45.093Z</time>
      </trkpt>
      <trkpt lat="50.63278" lon="2.17447">
        <ele>115.13</ele>
        <time>2024-07-12T18:09:52.960Z</time>
      </trkpt>
      <trkpt lat="50.63285" lon="2.17465">
        <ele>115</ele>
        <time>2024-07-12T18:10:00.829Z</time>
      </trkpt>
      <trkpt lat="50.63308" lon="2.17536">
        <ele>116.73</ele>
        <time>2024-07-12T18:10:08.706Z</time>
      </trkpt>
      <trkpt lat="50.63324" lon="2.17604">
        <ele>117.51</ele>
        <time>2024-07-12T18:10:16.590Z</time>
      </trkpt>
      <trkpt lat="50.63334" lon="2.17658">
        <ele>117.29</ele>
        <time>2024-07-12T18:10:24.480Z</time>
      </trkpt>
      <trkpt lat="50.63343" lon="2.17697">
        <ele>116.79</ele>
        <time>2024-07-12T18:10:32.374Z</time>
      </trkpt>
      <trkpt lat="50.63351" lon="2.17737">
        <ele>117.34</ele>
        <time>2024-07-12T18:10:40.272Z</time>
      </trkpt>
      <trkpt lat="50.6336" lon="2.17783">
        <ele>118.53</ele>
        <time>2024-07-12T18:10:48.175Z</time>
      </trkpt>
      <trkpt lat="50.6337" lon="2.17819">
        <ele>119.6</ele>
        <time>2024-07-12T18:10:56.082Z</time>
      </trkpt>
      <trkpt lat="50.63381" lon="2.17852">
        <ele>121.35</ele>
        <time>2024-07-12T18:11:03.993Z</time>
      </trkpt>
      <trkpt lat="50.63393" lon="2.17876">
        <ele>121.81</ele>
        <time>2024-07-12T18:11:11.907Z</time>
      </trkpt>
      <trkpt lat="50.63419" lon="2.17924">
        <ele>120.79</ele>
        <time>2024-07-12T18:11:19.828Z</time>
      </trkpt>
      <trkpt lat="50.63422" lon="2.1793">
        <ele>120.56</ele>
        <time>2024-07-12T18:11:27.749Z</time>
      </trkpt>
      <trkpt lat="50.63442" lon="2.17974">
        <ele>120.47</ele>
        <time>2024-07-12T18:11:35.676Z</time>
      </trkpt>
      <trkpt lat="50.63449" lon="2.18016">
        <ele>122.72</ele>
        <time>2024-07-12T18:11:43.607Z</time>
      </trkpt>
      <trkpt lat="50.63451" lon="2.18073">
        <ele>123.65</ele>
        <time>2024-07-12T18:11:51.544Z</time>
      </trkpt>
      <trkpt lat="50.63451" lon="2.18088">
        <ele>123.76</ele>
        <time>2024-07-12T18:11:59.483Z</time>
      </trkpt>
      <trkpt lat="50.63453" lon="2.1812">
        <ele>124.33</ele>
        <time>2024-07-12T18:12:07.425Z</time>
      </trkpt>
      <trkpt lat="50.63453" lon="2.18128">
        <ele>124.57</ele>
        <time>2024-07-12T18:12:15.368Z</time>
      </trkpt>
      <trkpt lat="50.63457" lon="2.18159">
        <ele>127.45</ele>
        <time>2024-07-12T18:12:23.314Z</time>
      </trkpt>
      <trkpt lat="50.63459" lon="2.18165">
        <ele>127.96</ele>
        <time>2024-07-12T18:12:31.261Z</time>
      </trkpt>
      <trkpt lat="50.63465" lon="2.18183">
        <ele>129.47</ele>
        <time>2024-07-12T18:12:39.210Z</time>
      </trkpt>
      <trkpt lat="50.63466" lon="2.18186">
        <ele>129.75</ele>
        <time>2024-07-12T18:12:47.159Z</time>
      </trkpt>
      <trkpt lat="50.63474" lon="2.18201">
        <ele>130.78</ele>
        <time>2024-07-12T18:12:55.110Z</time>
      </trkpt>
      <trkpt lat="50.63479" lon="2.18212">
        <ele>131.72</ele>
        <time>2024-07-12T18:13:03.062Z</time>
      </trkpt>
      <trkpt lat="50.63481" lon="2.18222">
        <ele>132.47</ele>
        <time>2024-07-12T18:13:11.015Z</time>
      </trkpt>
      <trkpt lat="50.63486" lon="2.18235">
        <ele>133.64</ele>
        <time>2024-07-12T18:13:18.970Z</time>
      </trkpt>
      <trkpt lat="50.63488" lon="2.18245">
        <ele>134.42</ele>
        <time>2024-07-12T18:13:26.926Z</time>
      </trkpt>
      <trkpt lat="50.6349" lon="2.18257">
        <ele>135.12</ele>
        <time>2024-07-12T18:13:34.883Z</time>
      </trkpt>
      <trkpt lat="50.63494" lon="2.18274">
        <ele>136.07</ele>
        <time>2024-07-12T18:13:42.842Z</time>
      </trkpt>
      <trkpt lat="50.63495" lon="2.1828">
        <ele>136.44</ele>
        <time>2024-07-12T18:13:50.802Z</time>
      </trkpt>
      <trkpt lat="50.635" lon="2.18299">
        <ele>137.14</ele>
        <time>2024-07-12T18:13:58.764Z</time>
      </trkpt>
      <trkpt lat="50.63501" lon="2.18302">
        <ele>137.11</ele>
        <time>2024-07-12T18:14:06.726Z</time>
      </trkpt>
      <trkpt lat="50.63505" lon="2.18319">
        <ele>136.92</ele>
        <time>2024-07-12T18:14:14.690Z</time>
      </trkpt>
      <trkpt lat="50.63504" lon="2.18321">
        <ele>136.95</ele>
        <time>2024-07-12T18:14:22.654Z</time>
      </trkpt>
      <trkpt lat="50.63505" lon="2.18335">
        <ele>137.33</ele>
        <time>2024-07-12T18:14:30.620Z</time>
      </trkpt>
      <trkpt lat="50.63506" lon="2.18339">
        <ele>137.37</ele>
        <time>2024-07-12T18:14:38.586Z</time>
      </trkpt>
      <trkpt lat="50.63519" lon="2.18358">
        <ele>137.13</ele>
        <time>2024-07-12T18:14:46.555Z</time>
      </trkpt>
      <trkpt lat="50.63541" lon="2.18377">
        <ele>136.53</ele>
        <time>2024-07-12T18:14:54.528Z</time>
      </trkpt>
      <trkpt lat="50.63551" lon="2.18387">
        <ele>136.54</ele>
        <time>2024-07-12T18:15:02.503Z</time>
      </trkpt>
      <trkpt lat="50.63562" lon="2.184">
        <ele>136.5</ele>
        <time>2024-07-12T18:15:10.480Z</time>
      </trkpt>
      <trkpt lat="50.63576" lon="2.18419">
        <ele>136.22</ele>
        <time>2024-07-12T18:15:18.460Z</time>
      </trkpt>
      <trkpt lat="50.63583" lon="2.1843">
        <ele>136.1</ele>
        <time>2024-07-12T18:15:26.442Z</time>
      </trkpt>
      <trkpt lat="50.63599" lon="2.18463">
        <ele>136.09</ele>
        <time>2024-07-12T18:15:34.428Z</time>
      </trkpt>
      <trkpt lat="50.63622" lon="2.18515">
        <ele>135.34</ele>
        <time>2024-07-12T18:15:42.420Z</time>
      </trkpt>
      <trkpt lat="50.63642" lon="2.18558">
        <ele>135.06</ele>
        <time>2024-07-12T18:15:50.418Z</time>
      </trkpt>
      <trkpt lat="50.63653" lon="2.18578">
        <ele>134.87</ele>
        <time>2024-07-12T18:15:58.419Z</time>
      </trkpt>
      <trkpt lat="50.63658" lon="2.18585">
        <ele>135.21</ele>
        <time>2024-07-12T18:16:06.421Z</time>
      </trkpt>
      <trkpt lat="50.63667" lon="2.18599">
        <ele>135.84</ele>
        <time>2024-07-12T18:16:14.425Z</time>
      </trkpt>
      <trkpt lat="50.63689" lon="2.18624">
        <ele>138.09</ele>
        <time>2024-07-12T18:16:22.433Z</time>
      </trkpt>
      <trkpt lat="50.63698" lon="2.18633">
        <ele>139.07</ele>
        <time>2024-07-12T18:16:30.443Z</time>
      </trkpt>
      <trkpt lat="50.63702" lon="2.18638">
        <ele>139.29</ele>
        <time>2024-07-12T18:16:38.454Z</time>
      </trkpt>
      <trkpt lat="50.63706" lon="2.18642">
        <ele>139.42</ele>
        <time>2024-07-12T18:16:46.465Z</time>
      </trkpt>
      <trkpt lat="50.63715" lon="2.18651">
        <ele>139.73</ele>
        <time>2024-07-12T18:16:54.478Z</time>
      </trkpt>
      <trkpt lat="50.63717" lon="2.18653">
        <ele>139.81</ele>
        <time>2024-07-12T18:17:02.491Z</time>
      </trkpt>
      <trkpt lat="50.63726" lon="2.18665">
        <ele>140.23</ele>
        <time>2024-07-12T18:17:10.506Z</time>
      </trkpt>
      <trkpt lat="50.63729" lon="2.1867">
        <ele>140.42</ele>
        <time>2024-07-12T18:17:18.522Z</time>
      </trkpt>
      <trkpt lat="50.63735" lon="2.18681">
        <ele>140.82</ele>
        <time>2024-07-12T18:17:26.539Z</time>
      </trkpt>
      <trkpt lat="50.63738" lon="2.18696">
        <ele>141.36</ele>
        <time>2024-07-12T18:17:34.558Z</time>
      </trkpt>
      <trkpt lat="50.63739" lon="2.18699">
        <ele>141.45</ele>
        <time>2024-07-12T18:17:42.577Z</time>
      </trkpt>
      <trkpt lat="50.63738" lon="2.18717">
        <ele>141.42</ele>
        <time>2024-07-12T18:17:50.598Z</time>
      </trkpt>
      <trkpt lat="50.63737" lon="2.1872">
        <ele>141.38</ele>
        <time>2024-07-12T18:17:58.619Z</time>
      </trkpt>
      <trkpt lat="50.63724" lon="2.18736">
        <ele>141.87</ele>
        <time>2024-07-12T18:18:06.643Z</time>
      </trkpt>
      <trkpt lat="50.63708" lon="2.18752">
        <ele>142.65</ele>
        <time>2024-07-12T18:18:14.670Z</time>
      </trkpt>
      <trkpt lat="50.63705" lon="2.18755">
        <ele>142.76</ele>
        <time>2024-07-12T18:18:22.698Z</time>
      </trkpt>
      <trkpt lat="50.6369" lon="2.18781">
        <ele>143.44</ele>
        <time>2024-07-12T18:18:30.729Z</time>
      </trkpt>
      <trkpt lat="50.63689" lon="2.18794">
        <ele>143.88</ele>
        <time>2024-07-12T18:18:38.762Z</time>
      </trkpt>
      <trkpt lat="50.63689" lon="2.18806">
        <ele>144</ele>
        <time>2024-07-12T18:18:46.796Z</time>
      </trkpt>
      <trkpt lat="50.63688" lon="2.18859">
        <ele>143.57</ele>
        <time>2024-07-12T18:18:54.835Z</time>
      </trkpt>
      <trkpt lat="50.63688" lon="2.189">
        <ele>144.38</ele>
        <time>2024-07-12T18:19:02.878Z</time>
      </trkpt>
      <trkpt lat="50.63687" lon="2.18907">
        <ele>144.42</ele>
        <time>2024-07-12T18:19:10.922Z</time>
      </trkpt>
      <trkpt lat="50.63678" lon="2.1893">
        <ele>145.26</ele>
        <time>2024-07-12T18:19:18.969Z</time>
      </trkpt>
      <trkpt lat="50.63656" lon="2.18958">
        <ele>145.27</ele>
        <time>2024-07-12T18:19:27.020Z</time>
      </trkpt>
      <trkpt lat="50.63635" lon="2.18983">
        <ele>144.19</ele>
        <time>2024-07-12T18:19:35.076Z</time>
      </trkpt>
      <trkpt lat="50.63628" lon="2.18996">
        <ele>143.91</ele>
        <time>2024-07-12T18:19:43.133Z</time>
      </trkpt>
      <trkpt lat="50.63624" lon="2.19008">
        <ele>143.61</ele>
        <time>2024-07-12T18:19:51.192Z</time>
      </trkpt>
      <trkpt lat="50.63623" lon="2.19015">
        <ele>143.55</ele>
        <time>2024-07-12T18:19:59.251Z</time>
      </trkpt>
      <trkpt lat="50.63622" lon="2.19029">
        <ele>143.26</ele>
        <time>2024-07-12T18:20:07.312Z</time>
      </trkpt>
      <trkpt lat="50.63623" lon="2.19036">
        <ele>143.27</ele>
        <time>2024-07-12T18:20:15.374Z</time>
      </trkpt>
      <trkpt lat="50.63628" lon="2.19111">
        <ele>143</ele>
        <time>2024-07-12T18:20:23.443Z</time>
      </trkpt>
      <trkpt lat="50.63634" lon="2.19162">
        <ele>142.69</ele>
        <time>2024-07-12T18:20:31.518Z</time>
      </trkpt>
      <trkpt lat="50.63644" lon="2.19225">
        <ele>142</ele>
        <time>2024-07-12T18:20:39.599Z</time>
      </trkpt>
      <trkpt lat="50.63651" lon="2.19275">
        <ele>141.08</ele>
        <time>2024-07-12T18:20:47.685Z</time>
      </trkpt>
      <trkpt lat="50.63654" lon="2.19301">
        <ele>139.71</ele>
        <time>2024-07-12T18:20:55.774Z</time>
      </trkpt>
      <trkpt lat="50.63661" lon="2.19342">
        <ele>138.71</ele>
        <time>2024-07-12T18:21:03.867Z</time>
      </trkpt>
      <trkpt lat="50.63672" lon="2.19381">
        <ele>137.08</ele>
        <time>2024-07-12T18:21:11.965Z</time>
      </trkpt>
      <trkpt lat="50.63679" lon="2.19406">
        <ele>137.02</ele>
        <time>2024-07-12T18:21:20.065Z</time>
      </trkpt>
      <trkpt lat="50.63689" lon="2.19438">
        <ele>136.96</ele>
        <time>2024-07-12T18:21:28.169Z</time>
      </trkpt>
      <trkpt lat="50.63692" lon="2.19455">
        <ele>137.29</ele>
        <time>2024-07-12T18:21:36.275Z</time>
      </trkpt>
      <trkpt lat="50.63692" lon="2.19468">
        <ele>137.23</ele>
        <time>2024-07-12T18:21:44.382Z</time>
      </trkpt>
      <trkpt lat="50.63692" lon="2.19498">
        <ele>136.28</ele>
        <time>2024-07-12T18:21:52.492Z</time>
      </trkpt>
      <trkpt lat="50.6369" lon="2.19518">
        <ele>135.69</ele>
        <time>2024-07-12T18:22:00.604Z</time>
      </trkpt>
      <trkpt lat="50.63686" lon="2.19538">
        <ele>135.65</ele>
        <time>2024-07-12T18:22:08.718Z</time>
      </trkpt>
      <trkpt lat="50.63686" lon="2.19537">
        <ele>135.64</ele>
        <time>2024-07-12T18:22:16.832Z</time>
      </trkpt>
      <trkpt lat="50.63687" lon="2.19543">
        <ele>135.86</ele>
        <time>2024-07-12T18:22:24.947Z</time>
      </trkpt>
      <trkpt lat="50.63684" lon="2.19575">
        <ele>136</ele>
        <time>2024-07-12T18:22:33.065Z</time>
      </trkpt>
      <trkpt lat="50.63681" lon="2.19611">
        <ele>136.61</ele>
        <time>2024-07-12T18:22:41.187Z</time>
      </trkpt>
      <trkpt lat="50.63677" lon="2.19656">
        <ele>137</ele>
        <time>2024-07-12T18:22:49.314Z</time>
      </trkpt>
      <trkpt lat="50.63676" lon="2.19667">
        <ele>136.79</ele>
        <time>2024-07-12T18:22:57.442Z</time>
      </trkpt>
      <trkpt lat="50.63672" lon="2.19702">
        <ele>136.44</ele>
        <time>2024-07-12T18:23:05.573Z</time>
      </trkpt>
      <trkpt lat="50.63669" lon="2.19739">
        <ele>136</ele>
        <time>2024-07-12T18:23:13.708Z</time>
      </trkpt>
      <trkpt lat="50.63666" lon="2.19765">
        <ele>136</ele>
        <time>2024-07-12T18:23:21.846Z</time>
      </trkpt>
      <trkpt lat="50.63658" lon="2.19845">
        <ele>134.28</ele>
        <time>2024-07-12T18:23:29.992Z</time>
      </trkpt>
      <trkpt lat="50.63657" lon="2.19858">
        <ele>133.79</ele>
        <time>2024-07-12T18:23:38.140Z</time>
      </trkpt>
      <trkpt lat="50.6365" lon="2.19954">
        <ele>131</ele>
        <time>2024-07-12T18:23:46.297Z</time>
      </trkpt>
      <trkpt lat="50.63649" lon="2.19968">
        <ele>130.86</ele>
        <time>2024-07-12T18:23:54.456Z</time>
      </trkpt>
      <trkpt lat="50.6364" lon="2.20059">
        <ele>130.1</ele>
        <time>2024-07-12T18:24:02.624Z</time>
      </trkpt>
      <trkpt lat="50.63639" lon="2.20072">
        <ele>130.14</ele>
        <time>2024-07-12T18:24:10.793Z</time>
      </trkpt>
      <trkpt lat="50.63634" lon="2.20145">
        <ele>129.49</ele>
        <time>2024-07-12T18:24:18.970Z</time>
      </trkpt>
      <trkpt lat="50.63633" lon="2.20156">
        <ele>129.34</ele>
        <time>2024-07-12T18:24:27.148Z</time>
      </trkpt>
      <trkpt lat="50.63629" lon="2.20208">
        <ele>129.48</ele>
        <time>2024-07-12T18:24:35.331Z</time>
      </trkpt>
      <trkpt lat="50.63628" lon="2.20216">
        <ele>129.45</ele>
        <time>2024-07-12T18:24:43.515Z</time>
      </trkpt>
      <trkpt lat="50.63623" lon="2.2023">
        <ele>129.15</ele>
        <time>2024-07-12T18:24:51.701Z</time>
      </trkpt>
      <trkpt lat="50.6362" lon="2.20235">
        <ele>129.03</ele>
        <time>2024-07-12T18:24:59.888Z</time>
      </trkpt>
      <trkpt lat="50.63619" lon="2.20241">
        <ele>128.91</ele>
        <time>2024-07-12T18:25:08.075Z</time>
      </trkpt>
      <trkpt lat="50.63615" lon="2.20264">
        <ele>128.15</ele>
        <time>2024-07-12T18:25:16.265Z</time>
      </trkpt>
      <trkpt lat="50.63615" lon="2.20274">
        <ele>127.83</ele>
        <time>2024-07-12T18:25:24.456Z</time>
      </trkpt>
      <trkpt lat="50.63615" lon="2.20305">
        <ele>127.02</ele>
        <time>2024-07-12T18:25:32.650Z</time>
      </trkpt>
      <trkpt lat="50.63616" lon="2.20317">
        <ele>126.93</ele>
        <time>2024-07-12T18:25:40.845Z</time>
      </trkpt>
      <trkpt lat="50.63617" lon="2.20328">
        <ele>126.85</ele>
        <time>2024-07-12T18:25:49.041Z</time>
      </trkpt>
      <trkpt lat="50.63626" lon="2.20389">
        <ele>126.16</ele>
        <time>2024-07-12T18:25:57.244Z</time>
      </trkpt>
      <trkpt lat="50.63642" lon="2.20464">
        <ele>125</ele>
        <time>2024-07-12T18:26:05.455Z</time>
      </trkpt>
      <trkpt lat="50.63645" lon="2.20477">
        <ele>124.47</ele>
        <time>2024-07-12T18:26:13.667Z</time>
      </trkpt>
      <trkpt lat="50.63653" lon="2.20516">
        <ele>122.75</ele>
        <time>2024-07-12T18:26:21.883Z</time>
      </trkpt>
      <trkpt lat="50.63665" lon="2.20572">
        <ele>121.33</ele>
        <time>2024-07-12T18:26:30.105Z</time>
      </trkpt>
      <trkpt lat="50.6367" lon="2.20599">
        <ele>121.01</ele>
        <time>2024-07-12T18:26:38.330Z</time>
      </trkpt>
      <trkpt lat="50.63679" lon="2.2064">
        <ele>120.43</ele>
        <time>2024-07-12T18:26:46.559Z</time>
      </trkpt>
      <trkpt lat="50.63684" lon="2.20667">
        <ele>120.01</ele>
        <time>2024-07-12T18:26:54.791Z</time>
      </trkpt>
      <trkpt lat="50.63695" lon="2.20724">
        <ele>117.38</ele>
        <time>2024-07-12T18:27:03.029Z</time>
      </trkpt>
      <trkpt lat="50.63699" lon="2.20739">
        <ele>116.15</ele>
        <time>2024-07-12T18:27:11.269Z</time>
      </trkpt>
      <trkpt lat="50.63702" lon="2.20754">
        <ele>114.69</ele>
        <time>2024-07-12T18:27:19.511Z</time>
      </trkpt>
      <trkpt lat="50.63712" lon="2.20802">
        <ele>110.98</ele>
        <time>2024-07-12T18:27:27.758Z</time>
      </trkpt>
      <trkpt lat="50.63719" lon="2.20835">
        <ele>109.64</ele>
        <time>2024-07-12T18:27:36.008Z</time>
      </trkpt>
      <trkpt lat="50.63723" lon="2.20852">
        <ele>109.03</ele>
        <time>2024-07-12T18:27:44.260Z</time>
      </trkpt>
      <trkpt lat="50.63726" lon="2.20869">
        <ele>108.99</ele>
        <time>2024-07-12T18:27:52.514Z</time>
      </trkpt>
      <trkpt lat="50.63734" lon="2.20922">
        <ele>107.69</ele>
        <time>2024-07-12T18:28:00.774Z</time>
      </trkpt>
      <trkpt lat="50.63739" lon="2.20957">
        <ele>106.79</ele>
        <time>2024-07-12T18:28:09.037Z</time>
      </trkpt>
      <trkpt lat="50.63748" lon="2.21025">
        <ele>106.78</ele>
        <time>2024-07-12T18:28:17.307Z</time>
      </trkpt>
      <trkpt lat="50.63752" lon="2.21073">
        <ele>105.94</ele>
        <time>2024-07-12T18:28:25.582Z</time>
      </trkpt>
      <trkpt lat="50.6375" lon="2.21132">
        <ele>105.85</ele>
        <time>2024-07-12T18:28:33.863Z</time>
      </trkpt>
      <trkpt lat="50.63745" lon="2.21208">
        <ele>106.67</ele>
        <time>2024-07-12T18:28:42.152Z</time>
      </trkpt>
      <trkpt lat="50.63742" lon="2.21251">
        <ele>107.56</ele>
        <time>2024-07-12T18:28:50.445Z</time>
      </trkpt>
      <trkpt lat="50.6374" lon="2.21268">
        <ele>107.5</ele>
        <time>2024-07-12T18:28:58.740Z</time>
      </trkpt>
      <trkpt lat="50.63737" lon="2.21298">
        <ele>108.86</ele>
        <time>2024-07-12T18:29:07.038Z</time>
      </trkpt>
      <trkpt lat="50.63736" lon="2.21311">
        <ele>109.7</ele>
        <time>2024-07-12T18:29:15.338Z</time>
      </trkpt>
      <trkpt lat="50.63735" lon="2.21341">
        <ele>111.76</ele>
        <time>2024-07-12T18:29:23.641Z</time>
      </trkpt>
      <trkpt lat="50.63733" lon="2.21358">
        <ele>112.7</ele>
        <time>2024-07-12T18:29:31.945Z</time>
      </trkpt>
      <trkpt lat="50.63732" lon="2.21376">
        <ele>113.26</ele>
        <time>2024-07-12T18:29:40.251Z</time>
      </trkpt>
      <trkpt lat="50.63733" lon="2.21412">
        <ele>113.13</ele>
        <time>2024-07-12T18:29:48.561Z</time>
      </trkpt>
      <trkpt lat="50.63737" lon="2.21466">
        <ele>112.93</ele>
        <time>2024-07-12T18:29:56.876Z</time>
      </trkpt>
      <trkpt lat="50.63743" lon="2.21538">
        <ele>112.24</ele>
        <time>2024-07-12T18:30:05.199Z</time>
      </trkpt>
      <trkpt lat="50.63743" lon="2.21576">
        <ele>113.02</ele>
        <time>2024-07-12T18:30:13.526Z</time>
      </trkpt>
      <trkpt lat="50.63742" lon="2.21584">
        <ele>113.31</ele>
        <time>2024-07-12T18:30:21.854Z</time>
      </trkpt>
      <trkpt lat="50.6374" lon="2.21592">
        <ele>113.59</ele>
        <time>2024-07-12T18:30:30.182Z</time>
      </trkpt>
      <trkpt lat="50.63735" lon="2.21607">
        <ele>114.14</ele>
        <time>2024-07-12T18:30:38.512Z</time>
      </trkpt>
      <trkpt lat="50.63731" lon="2.21614">
        <ele>114.38</ele>
        <time>2024-07-12T18:30:46.843Z</time>
      </trkpt>
      <trkpt lat="50.63726" lon="2.2162">
        <ele>114.6</ele>
        <time>2024-07-12T18:30:55.175Z</time>
      </trkpt>
      <trkpt lat="50.63711" lon="2.21633">
        <ele>113.99</ele>
        <time>2024-07-12T18:31:03.510Z</time>
      </trkpt>
      <trkpt lat="50.63678" lon="2.21654">
        <ele>112.23</ele>
        <time>2024-07-12T18:31:11.851Z</time>
      </trkpt>
      <trkpt lat="50.6367" lon="2.2167">
        <ele>112.3</ele>
        <time>2024-07-12T18:31:20.194Z</time>
      </trkpt>
      <trkpt lat="50.63667" lon="2.21679">
        <ele>112.29</ele>
        <time>2024-07-12T18:31:28.538Z</time>
      </trkpt>
      <trkpt lat="50.63664" lon="2.21688">
        <ele>112.55</ele>
        <time>2024-07-12T18:31:36.883Z</time>
      </trkpt>
      <trkpt lat="50.63657" lon="2.21722">
        <ele>112.29</ele>
        <time>2024-07-12T18:31:45.231Z</time>
      </trkpt>
      <trkpt lat="50.63656" lon="2.21728">
        <ele>112.42</ele>
        <time>2024-07-12T18:31:53.580Z</time>
      </trkpt>
      <trkpt lat="50.63654" lon="2.2176">
        <ele>113.02</ele>
        <time>2024-07-12T18:32:01.932Z</time>
      </trkpt>
      <trkpt lat="50.6366" lon="2.21798">
        <ele>114.63</ele>
        <time>2024-07-12T18:32:10.288Z</time>
      </trkpt>
      <trkpt lat="50.63675" lon="2.21834">
        <ele>115.16</ele>
        <time>2024-07-12T18:32:18.649Z</time>
      </trkpt>
      <trkpt lat="50.63687" lon="2.21874">
        <ele>114.87</ele>
        <time>2024-07-12T18:32:27.014Z</time>
      </trkpt>
      <trkpt lat="50.63691" lon="2.21901">
        <ele>114.03</ele>
        <time>2024-07-12T18:32:35.382Z</time>
      </trkpt>
      <trkpt lat="50.63692" lon="2.21906">
        <ele>113.86</ele>
        <time>2024-07-12T18:32:43.750Z</time>
      </trkpt>
      <trkpt lat="50.63692" lon="2.21906">
        <ele>113.9</ele>
        <time>2024-07-12T18:32:52.119Z</time>
      </trkpt>
      <trkpt lat="50.63693" lon="2.21906">
        <ele>113.9</ele>
        <time>2024-07-12T18:33:00.488Z</time>
      </trkpt>
      <trkpt lat="50.63693" lon="2.21906">
        <ele>113.9</ele>
        <time>2024-07-12T18:33:08.857Z</time>
      </trkpt>
      <trkpt lat="50.6369" lon="2.21922">
        <ele>112.76</ele>
        <time>2024-07-12T18:33:17.227Z</time>
      </trkpt>
      <trkpt lat="50.63685" lon="2.21941">
        <ele>111.39</ele>
        <time>2024-07-12T18:33:25.599Z</time>
      </trkpt>
      <trkpt lat="50.63682" lon="2.21956">
        <ele>111</ele>
        <time>2024-07-12T18:33:33.973Z</time>
      </trkpt>
      <trkpt lat="50.63679" lon="2.21964">
        <ele>111</ele>
        <time>2024-07-12T18:33:42.348Z</time>
      </trkpt>
      <trkpt lat="50.63675" lon="2.21983">
        <ele>110.48</ele>
        <time>2024-07-12T18:33:50.725Z</time>
      </trkpt>
      <trkpt lat="50.6367" lon="2.22004">
        <ele>110</ele>
        <time>2024-07-12T18:33:59.104Z</time>
      </trkpt>
      <trkpt lat="50.63665" lon="2.22024">
        <ele>109.63</ele>
        <time>2024-07-12T18:34:07.486Z</time>
      </trkpt>
      <trkpt lat="50.63659" lon="2.22045">
        <ele>108.67</ele>
        <time>2024-07-12T18:34:15.870Z</time>
      </trkpt>
      <trkpt lat="50.63658" lon="2.22058">
        <ele>107.82</ele>
        <time>2024-07-12T18:34:24.255Z</time>
      </trkpt>
      <trkpt lat="50.63656" lon="2.2207">
        <ele>106.55</ele>
        <time>2024-07-12T18:34:32.642Z</time>
      </trkpt>
      <trkpt lat="50.63652" lon="2.22096">
        <ele>103.07</ele>
        <time>2024-07-12T18:34:41.031Z</time>
      </trkpt>
      <trkpt lat="50.63648" lon="2.22123">
        <ele>99.98</ele>
        <time>2024-07-12T18:34:49.423Z</time>
      </trkpt>
      <trkpt lat="50.63643" lon="2.22151">
        <ele>97.59</ele>
        <time>2024-07-12T18:34:57.818Z</time>
      </trkpt>
      <trkpt lat="50.63638" lon="2.22179">
        <ele>95.95</ele>
        <time>2024-07-12T18:35:06.216Z</time>
      </trkpt>
      <trkpt lat="50.63636" lon="2.22194">
        <ele>94.99</ele>
        <time>2024-07-12T18:35:14.616Z</time>
      </trkpt>
      <trkpt lat="50.63632" lon="2.22222">
        <ele>93.04</ele>
        <time>2024-07-12T18:35:23.019Z</time>
      </trkpt>
      <trkpt lat="50.6363" lon="2.22252">
        <ele>90.84</ele>
        <time>2024-07-12T18:35:31.425Z</time>
      </trkpt>
      <trkpt lat="50.6363" lon="2.22283">
        <ele>89.53</ele>
        <time>2024-07-12T18:35:39.834Z</time>
      </trkpt>
      <trkpt lat="50.63632" lon="2.22332">
        <ele>86.76</ele>
        <time>2024-07-12T18:35:48.248Z</time>
      </trkpt>
      <trkpt lat="50.63633" lon="2.22367">
        <ele>85.18</ele>
        <time>2024-07-12T18:35:56.665Z</time>
      </trkpt>
      <trkpt lat="50.63636" lon="2.22419">
        <ele>83.65</ele>
        <time>2024-07-12T18:36:05.088Z</time>
      </trkpt>
      <trkpt lat="50.63639" lon="2.22454">
        <ele>82.37</ele>
        <time>2024-07-12T18:36:13.514Z</time>
      </trkpt>
      <trkpt lat="50.63642" lon="2.2249">
        <ele>81.06</ele>
        <time>2024-07-12T18:36:21.944Z</time>
      </trkpt>
      <trkpt lat="50.63649" lon="2.22543">
        <ele>80.63</ele>
        <time>2024-07-12T18:36:30.379Z</time>
      </trkpt>
      <trkpt lat="50.63654" lon="2.22578">
        <ele>79.74</ele>
        <time>2024-07-12T18:36:38.818Z</time>
      </trkpt>
      <trkpt lat="50.63667" lon="2.22674">
        <ele>79</ele>
        <time>2024-07-12T18:36:47.267Z</time>
      </trkpt>
      <trkpt lat="50.63669" lon="2.22689">
        <ele>78.94</ele>
        <time>2024-07-12T18:36:55.718Z</time>
      </trkpt>
      <trkpt lat="50.6368" lon="2.22784">
        <ele>80.41</ele>
        <time>2024-07-12T18:37:04.179Z</time>
      </trkpt>
      <trkpt lat="50.63691" lon="2.22878">
        <ele>80.63</ele>
        <time>2024-07-12T18:37:12.649Z</time>
      </trkpt>
      <trkpt lat="50.63693" lon="2.22889">
        <ele>80.57</ele>
        <time>2024-07-12T18:37:21.120Z</time>
      </trkpt>
      <trkpt lat="50.63704" lon="2.22963">
        <ele>80.81</ele>
        <time>2024-07-12T18:37:29.599Z</time>
      </trkpt>
      <trkpt lat="50.63717" lon="2.23054">
        <ele>80.48</ele>
        <time>2024-07-12T18:37:38.088Z</time>
      </trkpt>
      <trkpt lat="50.63719" lon="2.23073">
        <ele>80.3</ele>
        <time>2024-07-12T18:37:46.579Z</time>
      </trkpt>
      <trkpt lat="50.63722" lon="2.23093">
        <ele>80.58</ele>
        <time>2024-07-12T18:37:55.072Z</time>
      </trkpt>
      <trkpt lat="50.63732" lon="2.23159">
        <ele>82.41</ele>
        <time>2024-07-12T18:38:03.572Z</time>
      </trkpt>
      <trkpt lat="50.63745" lon="2.23249">
        <ele>81.78</ele>
        <time>2024-07-12T18:38:12.081Z</time>
      </trkpt>
      <trkpt lat="50.63746" lon="2.23259">
        <ele>81.57</ele>
        <time>2024-07-12T18:38:20.591Z</time>
      </trkpt>
      <trkpt lat="50.6376" lon="2.23347">
        <ele>79.45</ele>
        <time>2024-07-12T18:38:29.110Z</time>
      </trkpt>
      <trkpt lat="50.63778" lon="2.23438">
        <ele>77.86</ele>
        <time>2024-07-12T18:38:37.639Z</time>
      </trkpt>
      <trkpt lat="50.63781" lon="2.2345">
        <ele>77.96</ele>
        <time>2024-07-12T18:38:46.169Z</time>
      </trkpt>
      <trkpt lat="50.638" lon="2.23535">
        <ele>79.3</ele>
        <time>2024-07-12T18:38:54.708Z</time>
      </trkpt>
      <trkpt lat="50.63807" lon="2.23565">
        <ele>79.89</ele>
        <time>2024-07-12T18:39:03.251Z</time>
      </trkpt>
      <trkpt lat="50.63825" lon="2.23645">
        <ele>79</ele>
        <time>2024-07-12T18:39:11.802Z</time>
      </trkpt>
      <trkpt lat="50.63827" lon="2.23656">
        <ele>79</ele>
        <time>2024-07-12T18:39:20.354Z</time>
      </trkpt>
      <trkpt lat="50.63832" lon="2.23676">
        <ele>79</ele>
        <time>2024-07-12T18:39:28.909Z</time>
      </trkpt>
      <trkpt lat="50.63843" lon="2.23753">
        <ele>78.62</ele>
        <time>2024-07-12T18:39:37.472Z</time>
      </trkpt>
      <trkpt lat="50.63844" lon="2.23789">
        <ele>77.58</ele>
        <time>2024-07-12T18:39:46.038Z</time>
      </trkpt>
      <trkpt lat="50.63844" lon="2.23815">
        <ele>77</ele>
        <time>2024-07-12T18:39:54.607Z</time>
      </trkpt>
      <trkpt lat="50.63845" lon="2.23829">
        <ele>76.9</ele>
        <time>2024-07-12T18:40:03.177Z</time>
      </trkpt>
      <trkpt lat="50.63845" lon="2.23843">
        <ele>76.39</ele>
        <time>2024-07-12T18:40:11.749Z</time>
      </trkpt>
      <trkpt lat="50.63845" lon="2.23872">
        <ele>75.35</ele>
        <time>2024-07-12T18:40:20.324Z</time>
      </trkpt>
      <trkpt lat="50.63845" lon="2.23901">
        <ele>74.3</ele>
        <time>2024-07-12T18:40:28.902Z</time>
      </trkpt>
      <trkpt lat="50.63845" lon="2.23929">
        <ele>72.6</ele>
        <time>2024-07-12T18:40:37.483Z</time>
      </trkpt>
      <trkpt lat="50.63846" lon="2.23942">
        <ele>71.83</ele>
        <time>2024-07-12T18:40:46.065Z</time>
      </trkpt>
      <trkpt lat="50.63846" lon="2.23955">
        <ele>71.05</ele>
        <time>2024-07-12T18:40:54.648Z</time>
      </trkpt>
      <trkpt lat="50.63846" lon="2.2398">
        <ele>69.52</ele>
        <time>2024-07-12T18:41:03.234Z</time>
      </trkpt>
      <trkpt lat="50.63845" lon="2.24006">
        <ele>67.78</ele>
        <time>2024-07-12T18:41:11.823Z</time>
      </trkpt>
      <trkpt lat="50.63843" lon="2.2402">
        <ele>67.23</ele>
        <time>2024-07-12T18:41:20.413Z</time>
      </trkpt>
      <trkpt lat="50.63841" lon="2.24034">
        <ele>66.67</ele>
        <time>2024-07-12T18:41:29.004Z</time>
      </trkpt>
      <trkpt lat="50.63836" lon="2.24059">
        <ele>65.18</ele>
        <time>2024-07-12T18:41:37.598Z</time>
      </trkpt>
      <trkpt lat="50.63829" lon="2.24082">
        <ele>63.5</ele>
        <time>2024-07-12T18:41:46.195Z</time>
      </trkpt>
      <trkpt lat="50.63819" lon="2.24112">
        <ele>61.78</ele>
        <time>2024-07-12T18:41:54.795Z</time>
      </trkpt>
      <trkpt lat="50.63811" lon="2.24127">
        <ele>61.15</ele>
        <time>2024-07-12T18:42:03.397Z</time>
      </trkpt>
      <trkpt lat="50.63803" lon="2.2414">
        <ele>60.49</ele>
        <time>2024-07-12T18:42:12.001Z</time>
      </trkpt>
      <trkpt lat="50.63799" lon="2.24148">
        <ele>60.02</ele>
        <time>2024-07-12T18:42:20.606Z</time>
      </trkpt>
      <trkpt lat="50.63798" lon="2.24152">
        <ele>59.86</ele>
        <time>2024-07-12T18:42:29.211Z</time>
      </trkpt>
      <trkpt lat="50.63797" lon="2.24155">
        <ele>59.71</ele>
        <time>2024-07-12T18:42:37.817Z</time>
      </trkpt>
      <trkpt lat="50.63798" lon="2.2416">
        <ele>59.55</ele>
        <time>2024-07-12T18:42:46.423Z</time>
      </trkpt>
      <trkpt lat="50.63795" lon="2.2417">
        <ele>59.11</ele>
        <time>2024-07-12T18:42:55.030Z</time>
      </trkpt>
      <trkpt lat="50.63793" lon="2.24181">
        <ele>59</ele>
        <time>2024-07-12T18:43:03.639Z</time>
      </trkpt>
      <trkpt lat="50.63785" lon="2.24214">
        <ele>58.16</ele>
        <time>2024-07-12T18:43:12.251Z</time>
      </trkpt>
      <trkpt lat="50.63783" lon="2.24224">
        <ele>57.72</ele>
        <time>2024-07-12T18:43:20.864Z</time>
      </trkpt>
      <trkpt lat="50.63777" lon="2.24245">
        <ele>56.74</ele>
        <time>2024-07-12T18:43:29.480Z</time>
      </trkpt>
      <trkpt lat="50.6377" lon="2.24267">
        <ele>55.72</ele>
        <time>2024-07-12T18:43:38.098Z</time>
      </trkpt>
      <trkpt lat="50.63764" lon="2.24288">
        <ele>54.72</ele>
        <time>2024-07-12T18:43:46.718Z</time>
      </trkpt>
      <trkpt lat="50.63761" lon="2.24298">
        <ele>54.25</ele>
        <time>2024-07-12T18:43:55.340Z</time>
      </trkpt>
      <trkpt lat="50.63756" lon="2.24319">
        <ele>53.25</ele>
        <time>2024-07-12T18:44:03.964Z</time>
      </trkpt>
      <trkpt lat="50.63751" lon="2.24353">
        <ele>51.08</ele>
        <time>2024-07-12T18:44:12.591Z</time>
      </trkpt>
      <trkpt lat="50.6375" lon="2.24365">
        <ele>50.61</ele>
        <time>2024-07-12T18:44:21.220Z</time>
      </trkpt>
      <trkpt lat="50.63748" lon="2.24391">
        <ele>49.67</ele>
        <time>2024-07-12T18:44:29.851Z</time>
      </trkpt>
      <trkpt lat="50.63748" lon="2.2443">
        <ele>47.31</ele>
        <time>2024-07-12T18:44:38.486Z</time>
      </trkpt>
      <trkpt lat="50.63748" lon="2.24443">
        <ele>46.58</ele>
        <time>2024-07-12T18:44:47.123Z</time>
      </trkpt>
      <trkpt lat="50.63748" lon="2.24466">
        <ele>45.97</ele>
        <time>2024-07-12T18:44:55.762Z</time>
      </trkpt>
      <trkpt lat="50.63748" lon="2.24483">
        <ele>45.37</ele>
        <time>2024-07-12T18:45:04.403Z</time>
      </trkpt>
      <trkpt lat="50.63746" lon="2.24492">
        <ele>45.03</ele>
        <time>2024-07-12T18:45:13.045Z</time>
      </trkpt>
      <trkpt lat="50.63744" lon="2.24496">
        <ele>45</ele>
        <time>2024-07-12T18:45:21.687Z</time>
      </trkpt>
      <trkpt lat="50.63738" lon="2.24511">
        <ele>45</ele>
        <time>2024-07-12T18:45:30.331Z</time>
      </trkpt>
      <trkpt lat="50.63743" lon="2.24534">
        <ele>44.53</ele>
        <time>2024-07-12T18:45:38.977Z</time>
      </trkpt>
      <trkpt lat="50.63746" lon="2.24545">
        <ele>44.28</ele>
        <time>2024-07-12T18:45:47.625Z</time>
      </trkpt>
      <trkpt lat="50.6375" lon="2.24568">
        <ele>44.12</ele>
        <time>2024-07-12T18:45:56.275Z</time>
      </trkpt>
      <trkpt lat="50.63754" lon="2.24582">
        <ele>43.78</ele>
        <time>2024-07-12T18:46:04.927Z</time>
      </trkpt>
      <trkpt lat="50.63755" lon="2.24595">
        <ele>43.4</ele>
        <time>2024-07-12T18:46:13.580Z</time>
      </trkpt>
      <trkpt lat="50.63758" lon="2.24634">
        <ele>43</ele>
        <time>2024-07-12T18:46:22.237Z</time>
      </trkpt>
      <trkpt lat="50.63758" lon="2.24677">
        <ele>42.51</ele>
        <time>2024-07-12T18:46:30.898Z</time>
      </trkpt>
      <trkpt lat="50.63757" lon="2.24684">
        <ele>42.22</ele>
        <time>2024-07-12T18:46:39.560Z</time>
      </trkpt>
      <trkpt lat="50.63753" lon="2.24716">
        <ele>41.92</ele>
        <time>2024-07-12T18:46:48.225Z</time>
      </trkpt>
      <trkpt lat="50.63751" lon="2.24732">
        <ele>41.28</ele>
        <time>2024-07-12T18:46:56.892Z</time>
      </trkpt>
      <trkpt lat="50.63752" lon="2.24738">
        <ele>41.14</ele>
        <time>2024-07-12T18:47:05.560Z</time>
      </trkpt>
      <trkpt lat="50.63752" lon="2.24738">
        <ele>41.08</ele>
        <time>2024-07-12T18:47:14.228Z</time>
      </trkpt>
      <trkpt lat="50.63753" lon="2.24732">
        <ele>41.35</ele>
        <time>2024-07-12T18:47:22.896Z</time>
      </trkpt>
      <trkpt lat="50.63755" lon="2.24716">
        <ele>42.05</ele>
        <time>2024-07-12T18:47:31.566Z</time>
      </trkpt>
      <trkpt lat="50.6376" lon="2.24701">
        <ele>42.2</ele>
        <time>2024-07-12T18:47:40.238Z</time>
      </trkpt>
      <trkpt lat="50.63762" lon="2.247">
        <ele>42.27</ele>
        <time>2024-07-12T18:47:48.910Z</time>
      </trkpt>
      <trkpt lat="50.63766" lon="2.24699">
        <ele>42.41</ele>
        <time>2024-07-12T18:47:57.583Z</time>
      </trkpt>
      <trkpt lat="50.63768" lon="2.247">
        <ele>42.49</ele>
        <time>2024-07-12T18:48:06.256Z</time>
      </trkpt>
      <trkpt lat="50.63783" lon="2.24709">
        <ele>43.03</ele>
        <time>2024-07-12T18:48:14.932Z</time>
      </trkpt>
      <trkpt lat="50.63783" lon="2.24711">
        <ele>43.04</ele>
        <time>2024-07-12T18:48:23.608Z</time>
      </trkpt>
      <trkpt lat="50.63783" lon="2.24714">
        <ele>43.05</ele>
        <time>2024-07-12T18:48:32.284Z</time>
      </trkpt>
      <trkpt lat="50.63778" lon="2.24733">
        <ele>42.86</ele>
        <time>2024-07-12T18:48:40.962Z</time>
      </trkpt>
      <trkpt lat="50.63764" lon="2.24757">
        <ele>41.37</ele>
        <time>2024-07-12T18:48:49.644Z</time>
      </trkpt>
      <trkpt lat="50.63753" lon="2.24778">
        <ele>40.66</ele>
        <time>2024-07-12T18:48:58.328Z</time>
      </trkpt>
      <trkpt lat="50.63742" lon="2.24799">
        <ele>39.15</ele>
        <time>2024-07-12T18:49:07.015Z</time>
      </trkpt>
      <trkpt lat="50.63724" lon="2.2484">
        <ele>38.94</ele>
        <time>2024-07-12T18:49:15.707Z</time>
      </trkpt>
      <trkpt lat="50.63711" lon="2.24872">
        <ele>39</ele>
        <time>2024-07-12T18:49:24.403Z</time>
      </trkpt>
      <trkpt lat="50.63709" lon="2.24878">
        <ele>39</ele>
        <time>2024-07-12T18:49:33.100Z</time>
      </trkpt>
      <trkpt lat="50.63706" lon="2.24883">
        <ele>39</ele>
        <time>2024-07-12T18:49:41.798Z</time>
      </trkpt>
      <trkpt lat="50.63696" lon="2.2491">
        <ele>38.98</ele>
        <time>2024-07-12T18:49:50.499Z</time>
      </trkpt>
      <trkpt lat="50.63687" lon="2.24935">
        <ele>38.08</ele>
        <time>2024-07-12T18:49:59.203Z</time>
      </trkpt>
      <trkpt lat="50.63686" lon="2.24939">
        <ele>37.93</ele>
        <time>2024-07-12T18:50:07.907Z</time>
      </trkpt>
      <trkpt lat="50.63686" lon="2.24943">
        <ele>37.79</ele>
        <time>2024-07-12T18:50:16.612Z</time>
      </trkpt>
      <trkpt lat="50.63686" lon="2.24943">
        <ele>37.79</ele>
        <time>2024-07-12T18:50:25.317Z</time>
      </trkpt>
      <trkpt lat="50.63685" lon="2.24944">
        <ele>37.75</ele>
        <time>2024-07-12T18:50:34.022Z</time>
      </trkpt>
      <trkpt lat="50.63686" lon="2.24944">
        <ele>37.77</ele>
        <time>2024-07-12T18:50:42.727Z</time>
      </trkpt>
      <trkpt lat="50.63687" lon="2.24946">
        <ele>37.69</ele>
        <time>2024-07-12T18:50:51.432Z</time>
      </trkpt>
      <trkpt lat="50.63686" lon="2.24961">
        <ele>37.14</ele>
        <time>2024-07-12T18:51:00.139Z</time>
      </trkpt>
      <trkpt lat="50.63682" lon="2.24989">
        <ele>37.46</ele>
        <time>2024-07-12T18:51:08.849Z</time>
      </trkpt>
      <trkpt lat="50.63684" lon="2.25027">
        <ele>37.73</ele>
        <time>2024-07-12T18:51:17.562Z</time>
      </trkpt>
      <trkpt lat="50.63684" lon="2.25034">
        <ele>37.97</ele>
        <time>2024-07-12T18:51:26.276Z</time>
      </trkpt>
      <trkpt lat="50.63685" lon="2.25052">
        <ele>38</ele>
        <time>2024-07-12T18:51:34.992Z</time>
      </trkpt>
      <trkpt lat="50.63688" lon="2.25072">
        <ele>38</ele>
        <time>2024-07-12T18:51:43.710Z</time>
      </trkpt>
      <trkpt lat="50.63692" lon="2.25128">
        <ele>38</ele>
        <time>2024-07-12T18:51:52.434Z</time>
      </trkpt>
      <trkpt lat="50.637" lon="2.25189">
        <ele>36.03</ele>
        <time>2024-07-12T18:52:01.164Z</time>
      </trkpt>
      <trkpt lat="50.6371" lon="2.25268">
        <ele>37.49</ele>
        <time>2024-07-12T18:52:09.902Z</time>
      </trkpt>
      <trkpt lat="50.63717" lon="2.25338">
        <ele>37.32</ele>
        <time>2024-07-12T18:52:18.648Z</time>
      </trkpt>
      <trkpt lat="50.63721" lon="2.25366">
        <ele>37</ele>
        <time>2024-07-12T18:52:27.397Z</time>
      </trkpt>
      <trkpt lat="50.63726" lon="2.25393">
        <ele>37.37</ele>
        <time>2024-07-12T18:52:36.148Z</time>
      </trkpt>
      <trkpt lat="50.63741" lon="2.25448">
        <ele>38.53</ele>
        <time>2024-07-12T18:52:44.906Z</time>
      </trkpt>
      <trkpt lat="50.63764" lon="2.25501">
        <ele>40.34</ele>
        <time>2024-07-12T18:52:53.670Z</time>
      </trkpt>
      <trkpt lat="50.63771" lon="2.25516">
        <ele>40.62</ele>
        <time>2024-07-12T18:53:02.436Z</time>
      </trkpt>
      <trkpt lat="50.63779" lon="2.25536">
        <ele>40.36</ele>
        <time>2024-07-12T18:53:11.204Z</time>
      </trkpt>
      <trkpt lat="50.63788" lon="2.25555">
        <ele>40.44</ele>
        <time>2024-07-12T18:53:19.975Z</time>
      </trkpt>
      <trkpt lat="50.63789" lon="2.25559">
        <ele>40.55</ele>
        <time>2024-07-12T18:53:28.746Z</time>
      </trkpt>
      <trkpt lat="50.63797" lon="2.25583">
        <ele>41.1</ele>
        <time>2024-07-12T18:53:37.520Z</time>
      </trkpt>
      <trkpt lat="50.63799" lon="2.25614">
        <ele>41.24</ele>
        <time>2024-07-12T18:53:46.297Z</time>
      </trkpt>
      <trkpt lat="50.63797" lon="2.25625">
        <ele>41.13</ele>
        <time>2024-07-12T18:53:55.075Z</time>
      </trkpt>
      <trkpt lat="50.63797" lon="2.25633">
        <ele>41.13</ele>
        <time>2024-07-12T18:54:03.854Z</time>
      </trkpt>
      <trkpt lat="50.63796" lon="2.25658">
        <ele>41.05</ele>
        <time>2024-07-12T18:54:12.636Z</time>
      </trkpt>
      <trkpt lat="50.63796" lon="2.2567">
        <ele>41.05</ele>
        <time>2024-07-12T18:54:21.419Z</time>
      </trkpt>
      <trkpt lat="50.63791" lon="2.25683">
        <ele>40.69</ele>
        <time>2024-07-12T18:54:30.203Z</time>
      </trkpt>
      <trkpt lat="50.63779" lon="2.257">
        <ele>39.92</ele>
        <time>2024-07-12T18:54:38.990Z</time>
      </trkpt>
      <trkpt lat="50.63772" lon="2.25713">
        <ele>39.63</ele>
        <time>2024-07-12T18:54:47.779Z</time>
      </trkpt>
      <trkpt lat="50.63746" lon="2.2575">
        <ele>39</ele>
        <time>2024-07-12T18:54:56.573Z</time>
      </trkpt>
      <trkpt lat="50.63742" lon="2.25756">
        <ele>39</ele>
        <time>2024-07-12T18:55:05.368Z</time>
      </trkpt>
      <trkpt lat="50.63739" lon="2.25765">
        <ele>39</ele>
        <time>2024-07-12T18:55:14.164Z</time>
      </trkpt>
      <trkpt lat="50.6374" lon="2.25769">
        <ele>39</ele>
        <time>2024-07-12T18:55:22.961Z</time>
      </trkpt>
      <trkpt lat="50.63744" lon="2.25777">
        <ele>38.8</ele>
        <time>2024-07-12T18:55:31.759Z</time>
      </trkpt>
      <trkpt lat="50.6375" lon="2.25786">
        <ele>38.45</ele>
        <time>2024-07-12T18:55:40.558Z</time>
      </trkpt>
      <trkpt lat="50.63756" lon="2.25799">
        <ele>38.05</ele>
        <time>2024-07-12T18:55:49.359Z</time>
      </trkpt>
      <trkpt lat="50.63773" lon="2.25846">
        <ele>37.7</ele>
        <time>2024-07-12T18:55:58.165Z</time>
      </trkpt>
      <trkpt lat="50.63781" lon="2.2586">
        <ele>37.76</ele>
        <time>2024-07-12T18:56:06.973Z</time>
      </trkpt>
      <trkpt lat="50.63791" lon="2.25871">
        <ele>38.04</ele>
        <time>2024-07-12T18:56:15.783Z</time>
      </trkpt>
      <trkpt lat="50.63796" lon="2.25876">
        <ele>38.25</ele>
        <time>2024-07-12T18:56:24.594Z</time>
      </trkpt>
      <trkpt lat="50.63825" lon="2.25907">
        <ele>38.64</ele>
        <time>2024-07-12T18:56:33.411Z</time>
      </trkpt>
      <trkpt lat="50.63829" lon="2.25913">
        <ele>38.57</ele>
        <time>2024-07-12T18:56:42.229Z</time>
      </trkpt>
      <trkpt lat="50.63833" lon="2.2592">
        <ele>38.48</ele>
        <time>2024-07-12T18:56:51.047Z</time>
      </trkpt>
      <trkpt lat="50.63845" lon="2.25949">
        <ele>37.86</ele>
        <time>2024-07-12T18:56:59.869Z</time>
      </trkpt>
      <trkpt lat="50.63871" lon="2.2602">
        <ele>38</ele>
        <time>2024-07-12T18:57:08.699Z</time>
      </trkpt>
      <trkpt lat="50.63888" lon="2.2605">
        <ele>38.77</ele>
        <time>2024-07-12T18:57:17.533Z</time>
      </trkpt>
      <trkpt lat="50.63888" lon="2.26055">
        <ele>38.59</ele>
        <time>2024-07-12T18:57:26.368Z</time>
      </trkpt>
      <trkpt lat="50.63885" lon="2.26063">
        <ele>38.21</ele>
        <time>2024-07-12T18:57:35.204Z</time>
      </trkpt>
      <trkpt lat="50.63878" lon="2.26083">
        <ele>38.22</ele>
        <time>2024-07-12T18:57:44.042Z</time>
      </trkpt>
      <trkpt lat="50.63878" lon="2.2609">
        <ele>38.46</ele>
        <time>2024-07-12T18:57:52.881Z</time>
      </trkpt>
      <trkpt lat="50.63884" lon="2.26137">
        <ele>37.67</ele>
        <time>2024-07-12T18:58:01.725Z</time>
      </trkpt>
      <trkpt lat="50.63892" lon="2.26193">
        <ele>36.77</ele>
        <time>2024-07-12T18:58:10.575Z</time>
      </trkpt>
      <trkpt lat="50.63903" lon="2.26248">
        <ele>36.86</ele>
        <time>2024-07-12T18:58:19.430Z</time>
      </trkpt>
      <trkpt lat="50.6391" lon="2.26284">
        <ele>38.26</ele>
        <time>2024-07-12T18:58:28.289Z</time>
      </trkpt>
      <trkpt lat="50.63919" lon="2.26353">
        <ele>37.98</ele>
        <time>2024-07-12T18:58:37.156Z</time>
      </trkpt>
      <trkpt lat="50.63919" lon="2.26423">
        <ele>37.44</ele>
        <time>2024-07-12T18:58:46.030Z</time>
      </trkpt>
      <trkpt lat="50.63918" lon="2.2651">
        <ele>38.83</ele>
        <time>2024-07-12T18:58:54.913Z</time>
      </trkpt>
      <trkpt lat="50.63918" lon="2.26538">
        <ele>38.71</ele>
        <time>2024-07-12T18:59:03.798Z</time>
      </trkpt>
      <trkpt lat="50.63917" lon="2.26582">
        <ele>39.67</ele>
        <time>2024-07-12T18:59:12.688Z</time>
      </trkpt>
      <trkpt lat="50.63916" lon="2.2667">
        <ele>39.83</ele>
        <time>2024-07-12T18:59:21.587Z</time>
      </trkpt>
      <trkpt lat="50.63915" lon="2.26686">
        <ele>39.79</ele>
        <time>2024-07-12T18:59:30.488Z</time>
      </trkpt>
      <trkpt lat="50.63908" lon="2.26748">
        <ele>40.16</ele>
        <time>2024-07-12T18:59:39.395Z</time>
      </trkpt>
      <trkpt lat="50.639" lon="2.26829">
        <ele>40.24</ele>
        <time>2024-07-12T18:59:48.310Z</time>
      </trkpt>
      <trkpt lat="50.63892" lon="2.269">
        <ele>39.94</ele>
        <time>2024-07-12T18:59:57.233Z</time>
      </trkpt>
      <trkpt lat="50.63883" lon="2.26958">
        <ele>39.99</ele>
        <time>2024-07-12T19:00:06.162Z</time>
      </trkpt>
      <trkpt lat="50.63881" lon="2.2697">
        <ele>40.12</ele>
        <time>2024-07-12T19:00:15.092Z</time>
      </trkpt>
      <trkpt lat="50.63864" lon="2.2704">
        <ele>38.22</ele>
        <time>2024-07-12T19:00:24.030Z</time>
      </trkpt>
      <trkpt lat="50.63839" lon="2.2712">
        <ele>37.55</ele>
        <time>2024-07-12T19:00:32.977Z</time>
      </trkpt>
      <trkpt lat="50.63832" lon="2.27142">
        <ele>37.6</ele>
        <time>2024-07-12T19:00:41.926Z</time>
      </trkpt>
      <trkpt lat="50.63813" lon="2.27205">
        <ele>37</ele>
        <time>2024-07-12T19:00:50.882Z</time>
      </trkpt>
      <trkpt lat="50.63812" lon="2.27216">
        <ele>37</ele>
        <time>2024-07-12T19:00:59.839Z</time>
      </trkpt>
      <trkpt lat="50.63813" lon="2.27251">
        <ele>37.86</ele>
        <time>2024-07-12T19:01:08.800Z</time>
      </trkpt>
      <trkpt lat="50.63815" lon="2.27263">
        <ele>37.8</ele>
        <time>2024-07-12T19:01:17.762Z</time>
      </trkpt>
      <trkpt lat="50.63825" lon="2.27357">
        <ele>38</ele>
        <time>2024-07-12T19:01:26.734Z</time>
      </trkpt>
      <trkpt lat="50.63826" lon="2.27368">
        <ele>38</ele>
        <time>2024-07-12T19:01:35.707Z</time>
      </trkpt>
      <trkpt lat="50.63831" lon="2.27425">
        <ele>37</ele>
        <time>2024-07-12T19:01:44.686Z</time>
      </trkpt>
      <trkpt lat="50.63836" lon="2.27503">
        <ele>35.64</ele>
        <time>2024-07-12T19:01:53.673Z</time>
      </trkpt>
      <trkpt lat="50.63839" lon="2.27549">
        <ele>34.99</ele>
        <time>2024-07-12T19:02:02.665Z</time>
      </trkpt>
      <trkpt lat="50.63842" lon="2.27573">
        <ele>34.15</ele>
        <time>2024-07-12T19:02:11.659Z</time>
      </trkpt>
      <trkpt lat="50.6385" lon="2.27596">
        <ele>33.31</ele>
        <time>2024-07-12T19:02:20.656Z</time>
      </trkpt>
      <trkpt lat="50.63864" lon="2.2763">
        <ele>33</ele>
        <time>2024-07-12T19:02:29.657Z</time>
      </trkpt>
      <trkpt lat="50.63886" lon="2.27684">
        <ele>35.47</ele>
        <time>2024-07-12T19:02:38.664Z</time>
      </trkpt>
      <trkpt lat="50.63904" lon="2.27726">
        <ele>37</ele>
        <time>2024-07-12T19:02:47.677Z</time>
      </trkpt>
      <trkpt lat="50.63916" lon="2.27759">
        <ele>36.46</ele>
        <time>2024-07-12T19:02:56.693Z</time>
      </trkpt>
      <trkpt lat="50.63945" lon="2.27835">
        <ele>33.72</ele>
        <time>2024-07-12T19:03:05.718Z</time>
      </trkpt>
      <trkpt lat="50.63948" lon="2.27845">
        <ele>33.36</ele>
        <time>2024-07-12T19:03:14.745Z</time>
      </trkpt>
      <trkpt lat="50.63977" lon="2.27928">
        <ele>35.13</ele>
        <time>2024-07-12T19:03:23.781Z</time>
      </trkpt>
      <trkpt lat="50.6398" lon="2.27938">
        <ele>35.57</ele>
        <time>2024-07-12T19:03:32.818Z</time>
      </trkpt>
      <trkpt lat="50.63997" lon="2.28008">
        <ele>36.79</ele>
        <time>2024-07-12T19:03:41.863Z</time>
      </trkpt>
      <trkpt lat="50.64013" lon="2.28086">
        <ele>34.01</ele>
        <time>2024-07-12T19:03:50.916Z</time>
      </trkpt>
      <trkpt lat="50.64028" lon="2.28176">
        <ele>32.86</ele>
        <time>2024-07-12T19:03:59.979Z</time>
      </trkpt>
      <trkpt lat="50.6403" lon="2.28186">
        <ele>32.92</ele>
        <time>2024-07-12T19:04:09.043Z</time>
      </trkpt>
      <trkpt lat="50.64046" lon="2.2827">
        <ele>33.5</ele>
        <time>2024-07-12T19:04:18.116Z</time>
      </trkpt>
      <trkpt lat="50.6405" lon="2.28292">
        <ele>33.73</ele>
        <time>2024-07-12T19:04:27.191Z</time>
      </trkpt>
      <trkpt lat="50.64057" lon="2.28362">
        <ele>33.91</ele>
        <time>2024-07-12T19:04:36.273Z</time>
      </trkpt>
      <trkpt lat="50.64059" lon="2.284">
        <ele>33.99</ele>
        <time>2024-07-12T19:04:45.359Z</time>
      </trkpt>
      <trkpt lat="50.64067" lon="2.28464">
        <ele>33.08</ele>
        <time>2024-07-12T19:04:54.452Z</time>
      </trkpt>
      <trkpt lat="50.64085" lon="2.28555">
        <ele>32</ele>
        <time>2024-07-12T19:05:03.555Z</time>
      </trkpt>
      <trkpt lat="50.64088" lon="2.28568">
        <ele>32</ele>
        <time>2024-07-12T19:05:12.659Z</time>
      </trkpt>
      <trkpt lat="50.64106" lon="2.28657">
        <ele>31.66</ele>
        <time>2024-07-12T19:05:21.773Z</time>
      </trkpt>
      <trkpt lat="50.64109" lon="2.28681">
        <ele>31.79</ele>
        <time>2024-07-12T19:05:30.889Z</time>
      </trkpt>
      <trkpt lat="50.64123" lon="2.28764">
        <ele>31.29</ele>
        <time>2024-07-12T19:05:40.014Z</time>
      </trkpt>
      <trkpt lat="50.64125" lon="2.28776">
        <ele>31.37</ele>
        <time>2024-07-12T19:05:49.140Z</time>
      </trkpt>
      <trkpt lat="50.64147" lon="2.28865">
        <ele>32.25</ele>
        <time>2024-07-12T19:05:58.276Z</time>
      </trkpt>
      <trkpt lat="50.64149" lon="2.28876">
        <ele>32.45</ele>
        <time>2024-07-12T19:06:07.413Z</time>
      </trkpt>
      <trkpt lat="50.64173" lon="2.28962">
        <ele>33.31</ele>
        <time>2024-07-12T19:06:16.559Z</time>
      </trkpt>
      <trkpt lat="50.64195" lon="2.29047">
        <ele>32.88</ele>
        <time>2024-07-12T19:06:25.715Z</time>
      </trkpt>
      <trkpt lat="50.64204" lon="2.29081">
        <ele>33.18</ele>
        <time>2024-07-12T19:06:34.875Z</time>
      </trkpt>
      <trkpt lat="50.64223" lon="2.2916">
        <ele>33</ele>
        <time>2024-07-12T19:06:44.043Z</time>
      </trkpt>
      <trkpt lat="50.64232" lon="2.29196">
        <ele>32.93</ele>
        <time>2024-07-12T19:06:53.215Z</time>
      </trkpt>
      <trkpt lat="50.64253" lon="2.29275">
        <ele>31.83</ele>
        <time>2024-07-12T19:07:02.396Z</time>
      </trkpt>
      <trkpt lat="50.64259" lon="2.29298">
        <ele>31.21</ele>
        <time>2024-07-12T19:07:11.579Z</time>
      </trkpt>
      <trkpt lat="50.64277" lon="2.29367">
        <ele>30.57</ele>
        <time>2024-07-12T19:07:20.770Z</time>
      </trkpt>
      <trkpt lat="50.64288" lon="2.29414">
        <ele>30</ele>
        <time>2024-07-12T19:07:29.966Z</time>
      </trkpt>
      <trkpt lat="50.64305" lon="2.29497">
        <ele>29</ele>
        <time>2024-07-12T19:07:39.171Z</time>
      </trkpt>
      <trkpt lat="50.64308" lon="2.2952">
        <ele>29</ele>
        <time>2024-07-12T19:07:48.378Z</time>
      </trkpt>
      <trkpt lat="50.64312" lon="2.29552">
        <ele>29.14</ele>
        <time>2024-07-12T19:07:57.589Z</time>
      </trkpt>
      <trkpt lat="50.64312" lon="2.29561">
        <ele>29.17</ele>
        <time>2024-07-12T19:08:06.801Z</time>
      </trkpt>
      <trkpt lat="50.64312" lon="2.29569">
        <ele>29.17</ele>
        <time>2024-07-12T19:08:16.013Z</time>
      </trkpt>
      <trkpt lat="50.64313" lon="2.29574">
        <ele>29.23</ele>
        <time>2024-07-12T19:08:25.226Z</time>
      </trkpt>
      <trkpt lat="50.64316" lon="2.29586">
        <ele>29.47</ele>
        <time>2024-07-12T19:08:34.440Z</time>
      </trkpt>
      <trkpt lat="50.64319" lon="2.29591">
        <ele>29.67</ele>
        <time>2024-07-12T19:08:43.655Z</time>
      </trkpt>
      <trkpt lat="50.64322" lon="2.29603">
        <ele>29.91</ele>
        <time>2024-07-12T19:08:52.871Z</time>
      </trkpt>
      <trkpt lat="50.64327" lon="2.29626">
        <ele>29.63</ele>
        <time>2024-07-12T19:09:02.090Z</time>
      </trkpt>
      <trkpt lat="50.64338" lon="2.29675">
        <ele>30.02</ele>
        <time>2024-07-12T19:09:11.314Z</time>
      </trkpt>
      <trkpt lat="50.64349" lon="2.29726">
        <ele>31</ele>
        <time>2024-07-12T19:09:20.544Z</time>
      </trkpt>
      <trkpt lat="50.64365" lon="2.29809">
        <ele>31.01</ele>
        <time>2024-07-12T19:09:29.782Z</time>
      </trkpt>
      <trkpt lat="50.6438" lon="2.29877">
        <ele>31</ele>
        <time>2024-07-12T19:09:39.028Z</time>
      </trkpt>
      <trkpt lat="50.64397" lon="2.29927">
        <ele>30.56</ele>
        <time>2024-07-12T19:09:48.279Z</time>
      </trkpt>
      <trkpt lat="50.64423" lon="2.29973">
        <ele>30.06</ele>
        <time>2024-07-12T19:09:57.537Z</time>
      </trkpt>
      <trkpt lat="50.64461" lon="2.30043">
        <ele>31.14</ele>
        <time>2024-07-12T19:10:06.804Z</time>
      </trkpt>
      <trkpt lat="50.64466" lon="2.30061">
        <ele>30.88</ele>
        <time>2024-07-12T19:10:16.073Z</time>
      </trkpt>
      <trkpt lat="50.6447" lon="2.30082">
        <ele>30.77</ele>
        <time>2024-07-12T19:10:25.344Z</time>
      </trkpt>
      <trkpt lat="50.64484" lon="2.3017">
        <ele>31.28</ele>
        <time>2024-07-12T19:10:34.625Z</time>
      </trkpt>
      <trkpt lat="50.64501" lon="2.3026">
        <ele>32</ele>
        <time>2024-07-12T19:10:43.915Z</time>
      </trkpt>
      <trkpt lat="50.64507" lon="2.30294">
        <ele>32</ele>
        <time>2024-07-12T19:10:53.209Z</time>
      </trkpt>
      <trkpt lat="50.64517" lon="2.30375">
        <ele>31.78</ele>
        <time>2024-07-12T19:11:02.511Z</time>
      </trkpt>
      <trkpt lat="50.6453" lon="2.30463">
        <ele>31</ele>
        <time>2024-07-12T19:11:11.822Z</time>
      </trkpt>
      <trkpt lat="50.64533" lon="2.30474">
        <ele>30.77</ele>
        <time>2024-07-12T19:11:21.135Z</time>
      </trkpt>
      <trkpt lat="50.64545" lon="2.30553">
        <ele>31.46</ele>
        <time>2024-07-12T19:11:30.456Z</time>
      </trkpt>
      <trkpt lat="50.64556" lon="2.30621">
        <ele>31.72</ele>
        <time>2024-07-12T19:11:39.784Z</time>
      </trkpt>
      <trkpt lat="50.64569" lon="2.30701">
        <ele>32.9</ele>
        <time>2024-07-12T19:11:49.120Z</time>
      </trkpt>
      <trkpt lat="50.64574" lon="2.30749">
        <ele>32.34</ele>
        <time>2024-07-12T19:11:58.461Z</time>
      </trkpt>
      <trkpt lat="50.64576" lon="2.30753">
        <ele>32.3</ele>
        <time>2024-07-12T19:12:07.803Z</time>
      </trkpt>
      <trkpt lat="50.64583" lon="2.30755">
        <ele>32.47</ele>
        <time>2024-07-12T19:12:17.146Z</time>
      </trkpt>
      <trkpt lat="50.64601" lon="2.30751">
        <ele>32.51</ele>
        <time>2024-07-12T19:12:26.492Z</time>
      </trkpt>
      <trkpt lat="50.64618" lon="2.30748">
        <ele>32.09</ele>
        <time>2024-07-12T19:12:35.841Z</time>
      </trkpt>
      <trkpt lat="50.64621" lon="2.30747">
        <ele>32.22</ele>
        <time>2024-07-12T19:12:45.190Z</time>
      </trkpt>
      <trkpt lat="50.64651" lon="2.3074">
        <ele>33.27</ele>
        <time>2024-07-12T19:12:54.544Z</time>
      </trkpt>
      <trkpt lat="50.64677" lon="2.30733">
        <ele>34.86</ele>
        <time>2024-07-12T19:13:03.902Z</time>
      </trkpt>
      <trkpt lat="50.64689" lon="2.3073">
        <ele>35.81</ele>
        <time>2024-07-12T19:13:13.262Z</time>
      </trkpt>
      <trkpt lat="50.64695" lon="2.30728">
        <ele>36.32</ele>
        <time>2024-07-12T19:13:22.623Z</time>
      </trkpt>
      <trkpt lat="50.64719" lon="2.30724">
        <ele>36.75</ele>
        <time>2024-07-12T19:13:31.988Z</time>
      </trkpt>
      <trkpt lat="50.64723" lon="2.30724">
        <ele>36.74</ele>
        <time>2024-07-12T19:13:41.354Z</time>
      </trkpt>
      <trkpt lat="50.64725" lon="2.30723">
        <ele>36.76</ele>
        <time>2024-07-12T19:13:50.720Z</time>
      </trkpt>
      <trkpt lat="50.64726" lon="2.30724">
        <ele>36.75</ele>
        <time>2024-07-12T19:14:00.086Z</time>
      </trkpt>
      <trkpt lat="50.64726" lon="2.30722">
        <ele>36.8</ele>
        <time>2024-07-12T19:14:09.452Z</time>
      </trkpt>
      <trkpt lat="50.64727" lon="2.30717">
        <ele>37</ele>
        <time>2024-07-12T19:14:18.819Z</time>
      </trkpt>
      <trkpt lat="50.64722" lon="2.30716">
        <ele>37</ele>
        <time>2024-07-12T19:14:28.187Z</time>
      </trkpt>
      <trkpt lat="50.64698" lon="2.30724">
        <ele>36.74</ele>
        <time>2024-07-12T19:14:37.559Z</time>
      </trkpt>
      <trkpt lat="50.6467" lon="2.30731">
        <ele>34.4</ele>
        <time>2024-07-12T19:14:46.935Z</time>
      </trkpt>
      <trkpt lat="50.64665" lon="2.30732">
        <ele>34.04</ele>
        <time>2024-07-12T19:14:56.312Z</time>
      </trkpt>
      <trkpt lat="50.64645" lon="2.30736">
        <ele>33.07</ele>
        <time>2024-07-12T19:15:05.692Z</time>
      </trkpt>
      <trkpt lat="50.64638" lon="2.30742">
        <ele>32.93</ele>
        <time>2024-07-12T19:15:15.073Z</time>
      </trkpt>
      <trkpt lat="50.64638" lon="2.30752">
        <ele>32.81</ele>
        <time>2024-07-12T19:15:24.456Z</time>
      </trkpt>
      <trkpt lat="50.64638" lon="2.30758">
        <ele>32.84</ele>
        <time>2024-07-12T19:15:33.839Z</time>
      </trkpt>
      <trkpt lat="50.64642" lon="2.30775">
        <ele>33.04</ele>
        <time>2024-07-12T19:15:43.224Z</time>
      </trkpt>
      <trkpt lat="50.64645" lon="2.30795">
        <ele>33.8</ele>
        <time>2024-07-12T19:15:52.611Z</time>
      </trkpt>
      <trkpt lat="50.64652" lon="2.30844">
        <ele>34</ele>
        <time>2024-07-12T19:16:02.003Z</time>
      </trkpt>
      <trkpt lat="50.64659" lon="2.30881">
        <ele>34</ele>
        <time>2024-07-12T19:16:11.399Z</time>
      </trkpt>
      <trkpt lat="50.64665" lon="2.30893">
        <ele>34</ele>
        <time>2024-07-12T19:16:20.797Z</time>
      </trkpt>
      <trkpt lat="50.6467" lon="2.30903">
        <ele>34</ele>
        <time>2024-07-12T19:16:30.196Z</time>
      </trkpt>
      <trkpt lat="50.64684" lon="2.30919">
        <ele>34.47</ele>
        <time>2024-07-12T19:16:39.598Z</time>
      </trkpt>
      <trkpt lat="50.64692" lon="2.30926">
        <ele>34.76</ele>
        <time>2024-07-12T19:16:49.001Z</time>
      </trkpt>
      <trkpt lat="50.64712" lon="2.30942">
        <ele>35.46</ele>
        <time>2024-07-12T19:16:58.408Z</time>
      </trkpt>
      <trkpt lat="50.64727" lon="2.30954">
        <ele>36</ele>
        <time>2024-07-12T19:17:07.817Z</time>
      </trkpt>
      <trkpt lat="50.64742" lon="2.30967">
        <ele>36</ele>
        <time>2024-07-12T19:17:17.229Z</time>
      </trkpt>
      <trkpt lat="50.64771" lon="2.30988">
        <ele>36.6</ele>
        <time>2024-07-12T19:17:26.646Z</time>
      </trkpt>
      <trkpt lat="50.64786" lon="2.31">
        <ele>37.15</ele>
        <time>2024-07-12T19:17:36.066Z</time>
      </trkpt>
      <trkpt lat="50.648" lon="2.31013">
        <ele>37.64</ele>
        <time>2024-07-12T19:17:45.489Z</time>
      </trkpt>
      <trkpt lat="50.64828" lon="2.31045">
        <ele>38</ele>
        <time>2024-07-12T19:17:54.917Z</time>
      </trkpt>
      <trkpt lat="50.6484" lon="2.31062">
        <ele>38</ele>
        <time>2024-07-12T19:18:04.348Z</time>
      </trkpt>
      <trkpt lat="50.64853" lon="2.31079">
        <ele>37.95</ele>
        <time>2024-07-12T19:18:13.782Z</time>
      </trkpt>
      <trkpt lat="50.64877" lon="2.31111">
        <ele>37.43</ele>
        <time>2024-07-12T19:18:23.221Z</time>
      </trkpt>
      <trkpt lat="50.64881" lon="2.31115">
        <ele>37.55</ele>
        <time>2024-07-12T19:18:32.660Z</time>
      </trkpt>
      <trkpt lat="50.64911" lon="2.31154">
        <ele>38.65</ele>
        <time>2024-07-12T19:18:42.105Z</time>
      </trkpt>
      <trkpt lat="50.64919" lon="2.31162">
        <ele>38.93</ele>
        <time>2024-07-12T19:18:51.552Z</time>
      </trkpt>
      <trkpt lat="50.64941" lon="2.31183">
        <ele>39.77</ele>
        <time>2024-07-12T19:19:01.003Z</time>
      </trkpt>
      <trkpt lat="50.64979" lon="2.31215">
        <ele>39.89</ele>
        <time>2024-07-12T19:19:10.461Z</time>
      </trkpt>
      <trkpt lat="50.65017" lon="2.31244">
        <ele>38.47</ele>
        <time>2024-07-12T19:19:19.926Z</time>
      </trkpt>
      <trkpt lat="50.6507" lon="2.31279">
        <ele>38.64</ele>
        <time>2024-07-12T19:19:29.400Z</time>
      </trkpt>
      <trkpt lat="50.65126" lon="2.31314">
        <ele>37</ele>
        <time>2024-07-12T19:19:38.884Z</time>
      </trkpt>
      <trkpt lat="50.65132" lon="2.31318">
        <ele>37</ele>
        <time>2024-07-12T19:19:48.369Z</time>
      </trkpt>
      <trkpt lat="50.65184" lon="2.31353">
        <ele>36.12</ele>
        <time>2024-07-12T19:19:57.863Z</time>
      </trkpt>
      <trkpt lat="50.65195" lon="2.31362">
        <ele>36</ele>
        <time>2024-07-12T19:20:07.359Z</time>
      </trkpt>
      <trkpt lat="50.65222" lon="2.31384">
        <ele>37.69</ele>
        <time>2024-07-12T19:20:16.860Z</time>
      </trkpt>
      <trkpt lat="50.65227" lon="2.31388">
        <ele>37.99</ele>
        <time>2024-07-12T19:20:26.361Z</time>
      </trkpt>
      <trkpt lat="50.65246" lon="2.31407">
        <ele>38.72</ele>
        <time>2024-07-12T19:20:35.866Z</time>
      </trkpt>
      <trkpt lat="50.65272" lon="2.31434">
        <ele>39.64</ele>
        <time>2024-07-12T19:20:45.376Z</time>
      </trkpt>
      <trkpt lat="50.65276" lon="2.31437">
        <ele>39.76</ele>
        <time>2024-07-12T19:20:54.887Z</time>
      </trkpt>
      <trkpt lat="50.65305" lon="2.31468">
        <ele>40.03</ele>
        <time>2024-07-12T19:21:04.403Z</time>
      </trkpt>
      <trkpt lat="50.65318" lon="2.31482">
        <ele>41.14</ele>
        <time>2024-07-12T19:21:13.922Z</time>
      </trkpt>
      <trkpt lat="50.65338" lon="2.31506">
        <ele>43.03</ele>
        <time>2024-07-12T19:21:23.445Z</time>
      </trkpt>
      <trkpt lat="50.65343" lon="2.31515">
        <ele>43.36</ele>
        <time>2024-07-12T19:21:32.969Z</time>
      </trkpt>
      <trkpt lat="50.6535" lon="2.31537">
        <ele>43.86</ele>
        <time>2024-07-12T19:21:42.496Z</time>
      </trkpt>
      <trkpt lat="50.65366" lon="2.31602">
        <ele>44.17</ele>
        <time>2024-07-12T19:21:52.030Z</time>
      </trkpt>
      <trkpt lat="50.65367" lon="2.31608">
        <ele>44.12</ele>
        <time>2024-07-12T19:22:01.564Z</time>
      </trkpt>
      <trkpt lat="50.6538" lon="2.31653">
        <ele>45</ele>
        <time>2024-07-12T19:22:11.103Z</time>
      </trkpt>
      <trkpt lat="50.65381" lon="2.31658">
        <ele>45.11</ele>
        <time>2024-07-12T19:22:20.643Z</time>
      </trkpt>
      <trkpt lat="50.65395" lon="2.31696">
        <ele>44.91</ele>
        <time>2024-07-12T19:22:30.187Z</time>
      </trkpt>
      <trkpt lat="50.65399" lon="2.31705">
        <ele>45.04</ele>
        <time>2024-07-12T19:22:39.733Z</time>
      </trkpt>
      <trkpt lat="50.65409" lon="2.31719">
        <ele>45.61</ele>
        <time>2024-07-12T19:22:49.281Z</time>
      </trkpt>
      <trkpt lat="50.65424" lon="2.31724">
        <ele>46.95</ele>
        <time>2024-07-12T19:22:58.831Z</time>
      </trkpt>
      <trkpt lat="50.65427" lon="2.31724">
        <ele>47.14</ele>
        <time>2024-07-12T19:23:08.382Z</time>
      </trkpt>
      <trkpt lat="50.65445" lon="2.3172">
        <ele>47.84</ele>
        <time>2024-07-12T19:23:17.936Z</time>
      </trkpt>
      <trkpt lat="50.65456" lon="2.31717">
        <ele>48.27</ele>
        <time>2024-07-12T19:23:27.491Z</time>
      </trkpt>
      <trkpt lat="50.65466" lon="2.31713">
        <ele>48.6</ele>
        <time>2024-07-12T19:23:37.048Z</time>
      </trkpt>
      <trkpt lat="50.6547" lon="2.31712">
        <ele>48.76</ele>
        <time>2024-07-12T19:23:46.606Z</time>
      </trkpt>
      <trkpt lat="50.65487" lon="2.31707">
        <ele>49.77</ele>
        <time>2024-07-12T19:23:56.166Z</time>
      </trkpt>
      <trkpt lat="50.65489" lon="2.31707">
        <ele>49.91</ele>
        <time>2024-07-12T19:24:05.727Z</time>
      </trkpt>
      <trkpt lat="50.65502" lon="2.31702">
        <ele>50.81</ele>
        <time>2024-07-12T19:24:15.290Z</time>
      </trkpt>
      <trkpt lat="50.65503" lon="2.31703">
        <ele>50.87</ele>
        <time>2024-07-12T19:24:24.853Z</time>
      </trkpt>
      <trkpt lat="50.65511" lon="2.317">
        <ele>51.47</ele>
        <time>2024-07-12T19:24:34.417Z</time>
      </trkpt>
      <trkpt lat="50.65515" lon="2.31698">
        <ele>51.82</ele>
        <time>2024-07-12T19:24:43.982Z</time>
      </trkpt>
      <trkpt lat="50.65521" lon="2.31695">
        <ele>52.61</ele>
        <time>2024-07-12T19:24:53.548Z</time>
      </trkpt>
      <trkpt lat="50.65527" lon="2.31694">
        <ele>53.27</ele>
        <time>2024-07-12T19:25:03.115Z</time>
      </trkpt>
      <trkpt lat="50.65529" lon="2.31694">
        <ele>53.49</ele>
        <time>2024-07-12T19:25:12.682Z</time>
      </trkpt>
      <trkpt lat="50.65537" lon="2.31691">
        <ele>54.29</ele>
        <time>2024-07-12T19:25:22.251Z</time>
      </trkpt>
      <trkpt lat="50.65543" lon="2.31689">
        <ele>54.78</ele>
        <time>2024-07-12T19:25:31.821Z</time>
      </trkpt>
      <trkpt lat="50.65549" lon="2.31688">
        <ele>55.19</ele>
        <time>2024-07-12T19:25:41.392Z</time>
      </trkpt>
      <trkpt lat="50.65552" lon="2.31687">
        <ele>55.44</ele>
        <time>2024-07-12T19:25:50.963Z</time>
      </trkpt>
      <trkpt lat="50.65562" lon="2.31684">
        <ele>56.37</ele>
        <time>2024-07-12T19:26:00.536Z</time>
      </trkpt>
      <trkpt lat="50.65568" lon="2.31682">
        <ele>57.18</ele>
        <time>2024-07-12T19:26:10.110Z</time>
      </trkpt>
      <trkpt lat="50.65574" lon="2.31681">
        <ele>57.82</ele>
        <time>2024-07-12T19:26:19.685Z</time>
      </trkpt>
      <trkpt lat="50.65577" lon="2.3168">
        <ele>58.17</ele>
        <time>2024-07-12T19:26:29.260Z</time>
      </trkpt>
      <trkpt lat="50.6559" lon="2.31676">
        <ele>59.6</ele>
        <time>2024-07-12T19:26:38.837Z</time>
      </trkpt>
      <trkpt lat="50.656" lon="2.31673">
        <ele>60.48</ele>
        <time>2024-07-12T19:26:48.416Z</time>
      </trkpt>
      <trkpt lat="50.65604" lon="2.31672">
        <ele>60.76</ele>
        <time>2024-07-12T19:26:57.996Z</time>
      </trkpt>
      <trkpt lat="50.65613" lon="2.31668">
        <ele>61.53</ele>
        <time>2024-07-12T19:27:07.577Z</time>
      </trkpt>
      <trkpt lat="50.65617" lon="2.31668">
        <ele>61.88</ele>
        <time>2024-07-12T19:27:17.159Z</time>
      </trkpt>
      <trkpt lat="50.65623" lon="2.31667">
        <ele>62.35</ele>
        <time>2024-07-12T19:27:26.742Z</time>
      </trkpt>
      <trkpt lat="50.65626" lon="2.31666">
        <ele>62.59</ele>
        <time>2024-07-12T19:27:36.325Z</time>
      </trkpt>
      <trkpt lat="50.65633" lon="2.31664">
        <ele>63.16</ele>
        <time>2024-07-12T19:27:45.909Z</time>
      </trkpt>
      <trkpt lat="50.65634" lon="2.31664">
        <ele>63.2</ele>
        <time>2024-07-12T19:27:55.493Z</time>
      </trkpt>
      <trkpt lat="50.65636" lon="2.31664">
        <ele>63.38</ele>
        <time>2024-07-12T19:28:05.078Z</time>
      </trkpt>
      <trkpt lat="50.65637" lon="2.31664">
        <ele>63.44</ele>
        <time>2024-07-12T19:28:14.663Z</time>
      </trkpt>
      <trkpt lat="50.65639" lon="2.31663">
        <ele>63.63</ele>
        <time>2024-07-12T19:28:24.248Z</time>
      </trkpt>
      <trkpt lat="50.65643" lon="2.3166">
        <ele>64</ele>
        <time>2024-07-12T19:28:33.834Z</time>
      </trkpt>
      <trkpt lat="50.65643" lon="2.31661">
        <ele>63.99</ele>
        <time>2024-07-12T19:28:43.420Z</time>
      </trkpt>
      <trkpt lat="50.65643" lon="2.31661">
        <ele>63.99</ele>
        <time>2024-07-12T19:28:53.006Z</time>
      </trkpt>
      <trkpt lat="50.65648" lon="2.31657">
        <ele>64.32</ele>
        <time>2024-07-12T19:29:02.593Z</time>
      </trkpt>
      <trkpt lat="50.6565" lon="2.31657">
        <ele>64.43</ele>
        <time>2024-07-12T19:29:12.180Z</time>
      </trkpt>
      <trkpt lat="50.65663" lon="2.31649">
        <ele>65.15</ele>
        <time>2024-07-12T19:29:21.769Z</time>
      </trkpt>
      <trkpt lat="50.65668" lon="2.31645">
        <ele>65.46</ele>
        <time>2024-07-12T19:29:31.359Z</time>
      </trkpt>
      <trkpt lat="50.6568" lon="2.31637">
        <ele>66</ele>
        <time>2024-07-12T19:29:40.951Z</time>
      </trkpt>
      <trkpt lat="50.65692" lon="2.31635">
        <ele>66</ele>
        <time>2024-07-12T19:29:50.545Z</time>
      </trkpt>
      <trkpt lat="50.65699" lon="2.31651">
        <ele>65.95</ele>
        <time>2024-07-12T19:30:00.141Z</time>
      </trkpt>
      <trkpt lat="50.65705" lon="2.31673">
        <ele>64.97</ele>
        <time>2024-07-12T19:30:09.740Z</time>
      </trkpt>
      <trkpt lat="50.65715" lon="2.31706">
        <ele>62.19</ele>
        <time>2024-07-12T19:30:19.343Z</time>
      </trkpt>
      <trkpt lat="50.65718" lon="2.31715">
        <ele>61.47</ele>
        <time>2024-07-12T19:30:28.947Z</time>
      </trkpt>
      <trkpt lat="50.65731" lon="2.31753">
        <ele>60.54</ele>
        <time>2024-07-12T19:30:38.555Z</time>
      </trkpt>
      <trkpt lat="50.65737" lon="2.31774">
        <ele>59.63</ele>
        <time>2024-07-12T19:30:48.165Z</time>
      </trkpt>
      <trkpt lat="50.65748" lon="2.31807">
        <ele>59.22</ele>
        <time>2024-07-12T19:30:57.779Z</time>
      </trkpt>
      <trkpt lat="50.65752" lon="2.31819">
        <ele>59.09</ele>
        <time>2024-07-12T19:31:07.395Z</time>
      </trkpt>
      <trkpt lat="50.65761" lon="2.31854">
        <ele>57.62</ele>
        <time>2024-07-12T19:31:17.014Z</time>
      </trkpt>
      <trkpt lat="50.6577" lon="2.31887">
        <ele>55.78</ele>
        <time>2024-07-12T19:31:26.637Z</time>
      </trkpt>
      <trkpt lat="50.65775" lon="2.31909">
        <ele>54.59</ele>
        <time>2024-07-12T19:31:36.262Z</time>
      </trkpt>
      <trkpt lat="50.65784" lon="2.31939">
        <ele>53.88</ele>
        <time>2024-07-12T19:31:45.891Z</time>
      </trkpt>
      <trkpt lat="50.65792" lon="2.31958">
        <ele>52.63</ele>
        <time>2024-07-12T19:31:55.522Z</time>
      </trkpt>
      <trkpt lat="50.65797" lon="2.31967">
        <ele>51.98</ele>
        <time>2024-07-12T19:32:05.154Z</time>
      </trkpt>
      <trkpt lat="50.65809" lon="2.31994">
        <ele>50.09</ele>
        <time>2024-07-12T19:32:14.790Z</time>
      </trkpt>
      <trkpt lat="50.65814" lon="2.32015">
        <ele>49.12</ele>
        <time>2024-07-12T19:32:24.428Z</time>
      </trkpt>
      <trkpt lat="50.65816" lon="2.32027">
        <ele>48.77</ele>
        <time>2024-07-12T19:32:34.067Z</time>
      </trkpt>
      <trkpt lat="50.65823" lon="2.32061">
        <ele>48.53</ele>
        <time>2024-07-12T19:32:43.710Z</time>
      </trkpt>
      <trkpt lat="50.65831" lon="2.32091">
        <ele>48.22</ele>
        <time>2024-07-12T19:32:53.356Z</time>
      </trkpt>
      <trkpt lat="50.65834" lon="2.321">
        <ele>48.13</ele>
        <time>2024-07-12T19:33:03.003Z</time>
      </trkpt>
      <trkpt lat="50.65844" lon="2.32133">
        <ele>48.51</ele>
        <time>2024-07-12T19:33:12.654Z</time>
      </trkpt>
      <trkpt lat="50.65845" lon="2.3214">
        <ele>48.7</ele>
        <time>2024-07-12T19:33:22.306Z</time>
      </trkpt>
      <trkpt lat="50.6584" lon="2.32153">
        <ele>48.91</ele>
        <time>2024-07-12T19:33:31.959Z</time>
      </trkpt>
      <trkpt lat="50.65828" lon="2.32158">
        <ele>48.66</ele>
        <time>2024-07-12T19:33:41.614Z</time>
      </trkpt>
      <trkpt lat="50.65807" lon="2.32162">
        <ele>47.89</ele>
        <time>2024-07-12T19:33:51.273Z</time>
      </trkpt>
      <trkpt lat="50.65783" lon="2.32165">
        <ele>46.94</ele>
        <time>2024-07-12T19:34:00.936Z</time>
      </trkpt>
      <trkpt lat="50.65749" lon="2.32176">
        <ele>46.47</ele>
        <time>2024-07-12T19:34:10.604Z</time>
      </trkpt>
      <trkpt lat="50.65743" lon="2.32179">
        <ele>46.38</ele>
        <time>2024-07-12T19:34:20.273Z</time>
      </trkpt>
      <trkpt lat="50.65709" lon="2.32198">
        <ele>46.34</ele>
        <time>2024-07-12T19:34:29.948Z</time>
      </trkpt>
      <trkpt lat="50.65704" lon="2.32204">
        <ele>46.29</ele>
        <time>2024-07-12T19:34:39.624Z</time>
      </trkpt>
      <trkpt lat="50.657" lon="2.32211">
        <ele>46.18</ele>
        <time>2024-07-12T19:34:49.301Z</time>
      </trkpt>
      <trkpt lat="50.6569" lon="2.32236">
        <ele>45.31</ele>
        <time>2024-07-12T19:34:58.981Z</time>
      </trkpt>
      <trkpt lat="50.65673" lon="2.32288">
        <ele>43.53</ele>
        <time>2024-07-12T19:35:08.667Z</time>
      </trkpt>
      <trkpt lat="50.6567" lon="2.32296">
        <ele>43.14</ele>
        <time>2024-07-12T19:35:18.354Z</time>
      </trkpt>
      <trkpt lat="50.65657" lon="2.32339">
        <ele>42.63</ele>
        <time>2024-07-12T19:35:28.046Z</time>
      </trkpt>
      <trkpt lat="50.65657" lon="2.32346">
        <ele>42.35</ele>
        <time>2024-07-12T19:35:37.738Z</time>
      </trkpt>
      <trkpt lat="50.65659" lon="2.32354">
        <ele>42.09</ele>
        <time>2024-07-12T19:35:47.431Z</time>
      </trkpt>
      <trkpt lat="50.65665" lon="2.32364">
        <ele>42</ele>
        <time>2024-07-12T19:35:57.126Z</time>
      </trkpt>
      <trkpt lat="50.65671" lon="2.32371">
        <ele>42.01</ele>
        <time>2024-07-12T19:36:06.822Z</time>
      </trkpt>
      <trkpt lat="50.65683" lon="2.32382">
        <ele>42.43</ele>
        <time>2024-07-12T19:36:16.520Z</time>
      </trkpt>
      <trkpt lat="50.65711" lon="2.32406">
        <ele>41.84</ele>
        <time>2024-07-12T19:36:26.223Z</time>
      </trkpt>
      <trkpt lat="50.65752" lon="2.3244">
        <ele>41.92</ele>
        <time>2024-07-12T19:36:35.934Z</time>
      </trkpt>
      <trkpt lat="50.65772" lon="2.32455">
        <ele>41.37</ele>
        <time>2024-07-12T19:36:45.648Z</time>
      </trkpt>
      <trkpt lat="50.65805" lon="2.3248">
        <ele>40.16</ele>
        <time>2024-07-12T19:36:55.368Z</time>
      </trkpt>
      <trkpt lat="50.65819" lon="2.32491">
        <ele>39.68</ele>
        <time>2024-07-12T19:37:05.090Z</time>
      </trkpt>
      <trkpt lat="50.65854" lon="2.32519">
        <ele>38.43</ele>
        <time>2024-07-12T19:37:14.819Z</time>
      </trkpt>
      <trkpt lat="50.6586" lon="2.32525">
        <ele>38.11</ele>
        <time>2024-07-12T19:37:24.549Z</time>
      </trkpt>
      <trkpt lat="50.65885" lon="2.32553">
        <ele>36.91</ele>
        <time>2024-07-12T19:37:34.284Z</time>
      </trkpt>
      <trkpt lat="50.6589" lon="2.32561">
        <ele>36.63</ele>
        <time>2024-07-12T19:37:44.020Z</time>
      </trkpt>
      <trkpt lat="50.65895" lon="2.3257">
        <ele>36.38</ele>
        <time>2024-07-12T19:37:53.757Z</time>
      </trkpt>
      <trkpt lat="50.65899" lon="2.32579">
        <ele>36.19</ele>
        <time>2024-07-12T19:38:03.495Z</time>
      </trkpt>
      <trkpt lat="50.65905" lon="2.326">
        <ele>36</ele>
        <time>2024-07-12T19:38:13.236Z</time>
      </trkpt>
      <trkpt lat="50.65907" lon="2.32611">
        <ele>35.65</ele>
        <time>2024-07-12T19:38:22.978Z</time>
      </trkpt>
      <trkpt lat="50.6591" lon="2.32644">
        <ele>34.38</ele>
        <time>2024-07-12T19:38:32.723Z</time>
      </trkpt>
      <trkpt lat="50.65916" lon="2.32688">
        <ele>34.19</ele>
        <time>2024-07-12T19:38:42.473Z</time>
      </trkpt>
      <trkpt lat="50.65923" lon="2.3276">
        <ele>34</ele>
        <time>2024-07-12T19:38:52.230Z</time>
      </trkpt>
      <trkpt lat="50.65924" lon="2.3277">
        <ele>34</ele>
        <time>2024-07-12T19:39:01.988Z</time>
      </trkpt>
      <trkpt lat="50.65935" lon="2.32844">
        <ele>36</ele>
        <time>2024-07-12T19:39:11.754Z</time>
      </trkpt>
      <trkpt lat="50.65935" lon="2.32851">
        <ele>36</ele>
        <time>2024-07-12T19:39:21.521Z</time>
      </trkpt>
      <trkpt lat="50.65941" lon="2.32891">
        <ele>34.46</ele>
        <time>2024-07-12T19:39:31.292Z</time>
      </trkpt>
      <trkpt lat="50.65944" lon="2.329">
        <ele>34.24</ele>
        <time>2024-07-12T19:39:41.064Z</time>
      </trkpt>
      <trkpt lat="50.65949" lon="2.32904">
        <ele>34.28</ele>
        <time>2024-07-12T19:39:50.837Z</time>
      </trkpt>
      <trkpt lat="50.65968" lon="2.32903">
        <ele>33.63</ele>
        <time>2024-07-12T19:40:00.613Z</time>
      </trkpt>
      <trkpt lat="50.65999" lon="2.32902">
        <ele>32.54</ele>
        <time>2024-07-12T19:40:10.394Z</time>
      </trkpt>
      <trkpt lat="50.66016" lon="2.32909">
        <ele>32.09</ele>
        <time>2024-07-12T19:40:20.178Z</time>
      </trkpt>
      <trkpt lat="50.66012" lon="2.32924">
        <ele>32</ele>
        <time>2024-07-12T19:40:29.963Z</time>
      </trkpt>
      <trkpt lat="50.66009" lon="2.3293">
        <ele>32</ele>
        <time>2024-07-12T19:40:39.749Z</time>
      </trkpt>
      <trkpt lat="50.66002" lon="2.32948">
        <ele>32</ele>
        <time>2024-07-12T19:40:49.537Z</time>
      </trkpt>
      <trkpt lat="50.66001" lon="2.32955">
        <ele>32</ele>
        <time>2024-07-12T19:40:59.326Z</time>
      </trkpt>
      <trkpt lat="50.65994" lon="2.32986">
        <ele>32</ele>
        <time>2024-07-12T19:41:09.118Z</time>
      </trkpt>
      <trkpt lat="50.65988" lon="2.32999">
        <ele>31.87</ele>
        <time>2024-07-12T19:41:18.912Z</time>
      </trkpt>
      <trkpt lat="50.65973" lon="2.33023">
        <ele>31</ele>
        <time>2024-07-12T19:41:28.709Z</time>
      </trkpt>
      <trkpt lat="50.65968" lon="2.33038">
        <ele>31</ele>
        <time>2024-07-12T19:41:38.508Z</time>
      </trkpt>
      <trkpt lat="50.65951" lon="2.331">
        <ele>31.24</ele>
        <time>2024-07-12T19:41:48.314Z</time>
      </trkpt>
      <trkpt lat="50.65931" lon="2.3317">
        <ele>30.69</ele>
        <time>2024-07-12T19:41:58.128Z</time>
      </trkpt>
      <trkpt lat="50.65911" lon="2.33244">
        <ele>30.37</ele>
        <time>2024-07-12T19:42:07.950Z</time>
      </trkpt>
      <trkpt lat="50.65896" lon="2.33299">
        <ele>32.73</ele>
        <time>2024-07-12T19:42:17.778Z</time>
      </trkpt>
      <trkpt lat="50.65873" lon="2.33384">
        <ele>35.71</ele>
        <time>2024-07-12T19:42:27.615Z</time>
      </trkpt>
      <trkpt lat="50.65871" lon="2.33391">
        <ele>35.55</ele>
        <time>2024-07-12T19:42:37.453Z</time>
      </trkpt>
      <trkpt lat="50.65849" lon="2.33445">
        <ele>34.42</ele>
        <time>2024-07-12T19:42:47.298Z</time>
      </trkpt>
      <trkpt lat="50.65818" lon="2.33506">
        <ele>34.7</ele>
        <time>2024-07-12T19:42:57.151Z</time>
      </trkpt>
      <trkpt lat="50.65784" lon="2.33571">
        <ele>34</ele>
        <time>2024-07-12T19:43:07.012Z</time>
      </trkpt>
      <trkpt lat="50.65748" lon="2.33643">
        <ele>33.76</ele>
        <time>2024-07-12T19:43:16.883Z</time>
      </trkpt>
      <trkpt lat="50.65744" lon="2.33651">
        <ele>33.61</ele>
        <time>2024-07-12T19:43:26.755Z</time>
      </trkpt>
      <trkpt lat="50.6571" lon="2.33718">
        <ele>32.81</ele>
        <time>2024-07-12T19:43:36.635Z</time>
      </trkpt>
      <trkpt lat="50.65701" lon="2.33734">
        <ele>32.68</ele>
        <time>2024-07-12T19:43:46.518Z</time>
      </trkpt>
      <trkpt lat="50.65672" lon="2.33781">
        <ele>33</ele>
        <time>2024-07-12T19:43:56.407Z</time>
      </trkpt>
      <trkpt lat="50.65623" lon="2.33827">
        <ele>32.06</ele>
        <time>2024-07-12T19:44:06.305Z</time>
      </trkpt>
      <trkpt lat="50.65576" lon="2.3387">
        <ele>31.51</ele>
        <time>2024-07-12T19:44:16.212Z</time>
      </trkpt>
      <trkpt lat="50.65571" lon="2.33877">
        <ele>31.59</ele>
        <time>2024-07-12T19:44:26.120Z</time>
      </trkpt>
      <trkpt lat="50.6555" lon="2.33911">
        <ele>32.36</ele>
        <time>2024-07-12T19:44:36.033Z</time>
      </trkpt>
      <trkpt lat="50.65516" lon="2.33956">
        <ele>32.56</ele>
        <time>2024-07-12T19:44:45.953Z</time>
      </trkpt>
      <trkpt lat="50.65493" lon="2.33986">
        <ele>32</ele>
        <time>2024-07-12T19:44:55.878Z</time>
      </trkpt>
      <trkpt lat="50.65486" lon="2.34">
        <ele>32</ele>
        <time>2024-07-12T19:45:05.805Z</time>
      </trkpt>
      <trkpt lat="50.65483" lon="2.34018">
        <ele>32</ele>
        <time>2024-07-12T19:45:15.734Z</time>
      </trkpt>
      <trkpt lat="50.65483" lon="2.34026">
        <ele>32</ele>
        <time>2024-07-12T19:45:25.663Z</time>
      </trkpt>
      <trkpt lat="50.65484" lon="2.34034">
        <ele>32</ele>
        <time>2024-07-12T19:45:35.593Z</time>
      </trkpt>
      <trkpt lat="50.65492" lon="2.34086">
        <ele>32.71</ele>
        <time>2024-07-12T19:45:45.529Z</time>
      </trkpt>
      <trkpt lat="50.65507" lon="2.34144">
        <ele>32</ele>
        <time>2024-07-12T19:45:55.471Z</time>
      </trkpt>
      <trkpt lat="50.65523" lon="2.34213">
        <ele>32</ele>
        <time>2024-07-12T19:46:05.421Z</time>
      </trkpt>
      <trkpt lat="50.65521" lon="2.3423">
        <ele>31.57</ele>
        <time>2024-07-12T19:46:15.372Z</time>
      </trkpt>
      <trkpt lat="50.65516" lon="2.34244">
        <ele>31.58</ele>
        <time>2024-07-12T19:46:25.325Z</time>
      </trkpt>
      <trkpt lat="50.65508" lon="2.34255">
        <ele>31.66</ele>
        <time>2024-07-12T19:46:35.280Z</time>
      </trkpt>
      <trkpt lat="50.65501" lon="2.34265">
        <ele>31.31</ele>
        <time>2024-07-12T19:46:45.236Z</time>
      </trkpt>
      <trkpt lat="50.6547" lon="2.34304">
        <ele>33.48</ele>
        <time>2024-07-12T19:46:55.199Z</time>
      </trkpt>
      <trkpt lat="50.65465" lon="2.34319">
        <ele>33.87</ele>
        <time>2024-07-12T19:47:05.163Z</time>
      </trkpt>
      <trkpt lat="50.65462" lon="2.34336">
        <ele>34.28</ele>
        <time>2024-07-12T19:47:15.129Z</time>
      </trkpt>
      <trkpt lat="50.65464" lon="2.34352">
        <ele>34.46</ele>
        <time>2024-07-12T19:47:25.097Z</time>
      </trkpt>
      <trkpt lat="50.65466" lon="2.3436">
        <ele>34.39</ele>
        <time>2024-07-12T19:47:35.066Z</time>
      </trkpt>
      <trkpt lat="50.65468" lon="2.34368">
        <ele>34.29</ele>
        <time>2024-07-12T19:47:45.036Z</time>
      </trkpt>
      <trkpt lat="50.65474" lon="2.34381">
        <ele>34.09</ele>
        <time>2024-07-12T19:47:55.007Z</time>
      </trkpt>
      <trkpt lat="50.65483" lon="2.34403">
        <ele>34.41</ele>
        <time>2024-07-12T19:48:04.981Z</time>
      </trkpt>
      <trkpt lat="50.65511" lon="2.34467">
        <ele>34.52</ele>
        <time>2024-07-12T19:48:14.963Z</time>
      </trkpt>
      <trkpt lat="50.6554" lon="2.34545">
        <ele>31.23</ele>
        <time>2024-07-12T19:48:24.954Z</time>
      </trkpt>
      <trkpt lat="50.65544" lon="2.34555">
        <ele>30.85</ele>
        <time>2024-07-12T19:48:34.946Z</time>
      </trkpt>
      <trkpt lat="50.65551" lon="2.34577">
        <ele>30.09</ele>
        <time>2024-07-12T19:48:44.941Z</time>
      </trkpt>
      <trkpt lat="50.65579" lon="2.34656">
        <ele>31.47</ele>
        <time>2024-07-12T19:48:54.945Z</time>
      </trkpt>
      <trkpt lat="50.65583" lon="2.34668">
        <ele>32.03</ele>
        <time>2024-07-12T19:49:04.950Z</time>
      </trkpt>
      <trkpt lat="50.65608" lon="2.34749">
        <ele>35.26</ele>
        <time>2024-07-12T19:49:14.964Z</time>
      </trkpt>
      <trkpt lat="50.65613" lon="2.34758">
        <ele>34.96</ele>
        <time>2024-07-12T19:49:24.980Z</time>
      </trkpt>
      <trkpt lat="50.65619" lon="2.34767">
        <ele>34.21</ele>
        <time>2024-07-12T19:49:34.997Z</time>
      </trkpt>
      <trkpt lat="50.65625" lon="2.34775">
        <ele>33.29</ele>
        <time>2024-07-12T19:49:45.015Z</time>
      </trkpt>
      <trkpt lat="50.65637" lon="2.34789">
        <ele>31.87</ele>
        <time>2024-07-12T19:49:55.036Z</time>
      </trkpt>
      <trkpt lat="50.65668" lon="2.34825">
        <ele>29.2</ele>
        <time>2024-07-12T19:50:05.063Z</time>
      </trkpt>
      <trkpt lat="50.65676" lon="2.34844">
        <ele>28.81</ele>
        <time>2024-07-12T19:50:15.092Z</time>
      </trkpt>
      <trkpt lat="50.65685" lon="2.34884">
        <ele>28.51</ele>
        <time>2024-07-12T19:50:25.125Z</time>
      </trkpt>
      <trkpt lat="50.65688" lon="2.3491">
        <ele>28.71</ele>
        <time>2024-07-12T19:50:35.161Z</time>
      </trkpt>
      <trkpt lat="50.65687" lon="2.34916">
        <ele>29.03</ele>
        <time>2024-07-12T19:50:45.198Z</time>
      </trkpt>
      <trkpt lat="50.65687" lon="2.3494">
        <ele>29.85</ele>
        <time>2024-07-12T19:50:55.237Z</time>
      </trkpt>
      <trkpt lat="50.65695" lon="2.34973">
        <ele>29.42</ele>
        <time>2024-07-12T19:51:05.280Z</time>
      </trkpt>
      <trkpt lat="50.65709" lon="2.3502">
        <ele>29.64</ele>
        <time>2024-07-12T19:51:15.328Z</time>
      </trkpt>
      <trkpt lat="50.6571" lon="2.35037">
        <ele>30</ele>
        <time>2024-07-12T19:51:25.378Z</time>
      </trkpt>
      <trkpt lat="50.65708" lon="2.35054">
        <ele>30</ele>
        <time>2024-07-12T19:51:35.430Z</time>
      </trkpt>
      <trkpt lat="50.65707" lon="2.35084">
        <ele>30</ele>
        <time>2024-07-12T19:51:45.485Z</time>
      </trkpt>
      <trkpt lat="50.6571" lon="2.35099">
        <ele>30</ele>
        <time>2024-07-12T19:51:55.541Z</time>
      </trkpt>
      <trkpt lat="50.65717" lon="2.35132">
        <ele>30.88</ele>
        <time>2024-07-12T19:52:05.601Z</time>
      </trkpt>
      <trkpt lat="50.65716" lon="2.35148">
        <ele>31</ele>
        <time>2024-07-12T19:52:15.662Z</time>
      </trkpt>
      <trkpt lat="50.65712" lon="2.35162">
        <ele>30.49</ele>
        <time>2024-07-12T19:52:25.725Z</time>
      </trkpt>
      <trkpt lat="50.65705" lon="2.35182">
        <ele>30.7</ele>
        <time>2024-07-12T19:52:35.790Z</time>
      </trkpt>
      <trkpt lat="50.65693" lon="2.35222">
        <ele>30.85</ele>
        <time>2024-07-12T19:52:45.860Z</time>
      </trkpt>
      <trkpt lat="50.65692" lon="2.35228">
        <ele>30.65</ele>
        <time>2024-07-12T19:52:55.930Z</time>
      </trkpt>
      <trkpt lat="50.65689" lon="2.3526">
        <ele>29.83</ele>
        <time>2024-07-12T19:53:06.004Z</time>
      </trkpt>
      <trkpt lat="50.6569" lon="2.35307">
        <ele>28.78</ele>
        <time>2024-07-12T19:53:16.083Z</time>
      </trkpt>
      <trkpt lat="50.65689" lon="2.354">
        <ele>28.66</ele>
        <time>2024-07-12T19:53:26.171Z</time>
      </trkpt>
      <trkpt lat="50.65689" lon="2.3549">
        <ele>28.89</ele>
        <time>2024-07-12T19:53:36.268Z</time>
      </trkpt>
      <trkpt lat="50.65682" lon="2.35555">
        <ele>27.38</ele>
        <time>2024-07-12T19:53:46.372Z</time>
      </trkpt>
      <trkpt lat="50.6568" lon="2.35563">
        <ele>27.41</ele>
        <time>2024-07-12T19:53:56.477Z</time>
      </trkpt>
      <trkpt lat="50.65666" lon="2.35623">
        <ele>28.95</ele>
        <time>2024-07-12T19:54:06.588Z</time>
      </trkpt>
      <trkpt lat="50.65653" lon="2.35672">
        <ele>30.98</ele>
        <time>2024-07-12T19:54:16.705Z</time>
      </trkpt>
      <trkpt lat="50.65644" lon="2.35704">
        <ele>31.44</ele>
        <time>2024-07-12T19:54:26.825Z</time>
      </trkpt>
      <trkpt lat="50.65624" lon="2.35779">
        <ele>31.71</ele>
        <time>2024-07-12T19:54:36.954Z</time>
      </trkpt>
      <trkpt lat="50.65599" lon="2.35839">
        <ele>31.57</ele>
        <time>2024-07-12T19:54:47.090Z</time>
      </trkpt>
      <trkpt lat="50.65591" lon="2.35856">
        <ele>31.86</ele>
        <time>2024-07-12T19:54:57.228Z</time>
      </trkpt>
      <trkpt lat="50.65579" lon="2.35881">
        <ele>33.15</ele>
        <time>2024-07-12T19:55:07.369Z</time>
      </trkpt>
      <trkpt lat="50.6557" lon="2.35901">
        <ele>34.2</ele>
        <time>2024-07-12T19:55:17.513Z</time>
      </trkpt>
      <trkpt lat="50.65559" lon="2.3593">
        <ele>35</ele>
        <time>2024-07-12T19:55:27.660Z</time>
      </trkpt>
      <trkpt lat="50.65554" lon="2.35943">
        <ele>35</ele>
        <time>2024-07-12T19:55:37.809Z</time>
      </trkpt>
      <trkpt lat="50.65548" lon="2.35963">
        <ele>35</ele>
        <time>2024-07-12T19:55:47.960Z</time>
      </trkpt>
      <trkpt lat="50.65542" lon="2.3599">
        <ele>35.35</ele>
        <time>2024-07-12T19:55:58.114Z</time>
      </trkpt>
      <trkpt lat="50.65538" lon="2.36006">
        <ele>35.36</ele>
        <time>2024-07-12T19:56:08.270Z</time>
      </trkpt>
      <trkpt lat="50.65523" lon="2.36063">
        <ele>37</ele>
        <time>2024-07-12T19:56:18.432Z</time>
      </trkpt>
      <trkpt lat="50.6552" lon="2.36076">
        <ele>37</ele>
        <time>2024-07-12T19:56:28.595Z</time>
      </trkpt>
      <trkpt lat="50.65509" lon="2.36123">
        <ele>36.44</ele>
        <time>2024-07-12T19:56:38.763Z</time>
      </trkpt>
      <trkpt lat="50.65495" lon="2.3618">
        <ele>35.25</ele>
        <time>2024-07-12T19:56:48.938Z</time>
      </trkpt>
      <trkpt lat="50.65479" lon="2.36242">
        <ele>35.09</ele>
        <time>2024-07-12T19:56:59.119Z</time>
      </trkpt>
      <trkpt lat="50.65477" lon="2.36251">
        <ele>35.03</ele>
        <time>2024-07-12T19:57:09.301Z</time>
      </trkpt>
      <trkpt lat="50.65459" lon="2.36323">
        <ele>33</ele>
        <time>2024-07-12T19:57:19.491Z</time>
      </trkpt>
      <trkpt lat="50.65457" lon="2.36334">
        <ele>33</ele>
        <time>2024-07-12T19:57:29.682Z</time>
      </trkpt>
      <trkpt lat="50.65437" lon="2.36414">
        <ele>31</ele>
        <time>2024-07-12T19:57:39.882Z</time>
      </trkpt>
      <trkpt lat="50.65435" lon="2.36425">
        <ele>31</ele>
        <time>2024-07-12T19:57:50.083Z</time>
      </trkpt>
      <trkpt lat="50.65417" lon="2.36495">
        <ele>29.87</ele>
        <time>2024-07-12T19:58:00.292Z</time>
      </trkpt>
      <trkpt lat="50.654" lon="2.36562">
        <ele>30</ele>
        <time>2024-07-12T19:58:10.508Z</time>
      </trkpt>
      <trkpt lat="50.65376" lon="2.36649">
        <ele>28</ele>
        <time>2024-07-12T19:58:20.734Z</time>
      </trkpt>
      <trkpt lat="50.65367" lon="2.36679">
        <ele>28.51</ele>
        <time>2024-07-12T19:58:30.963Z</time>
      </trkpt>
      <trkpt lat="50.65348" lon="2.36747">
        <ele>31.63</ele>
        <time>2024-07-12T19:58:41.200Z</time>
      </trkpt>
      <trkpt lat="50.65324" lon="2.36828">
        <ele>32.54</ele>
        <time>2024-07-12T19:58:51.446Z</time>
      </trkpt>
      <trkpt lat="50.65313" lon="2.36865">
        <ele>31.74</ele>
        <time>2024-07-12T19:59:01.696Z</time>
      </trkpt>
      <trkpt lat="50.65284" lon="2.36947">
        <ele>31.16</ele>
        <time>2024-07-12T19:59:11.956Z</time>
      </trkpt>
      <trkpt lat="50.65281" lon="2.36957">
        <ele>31.6</ele>
        <time>2024-07-12T19:59:22.217Z</time>
      </trkpt>
      <trkpt lat="50.65267" lon="2.37018">
        <ele>32.53</ele>
        <time>2024-07-12T19:59:32.484Z</time>
      </trkpt>
      <trkpt lat="50.65259" lon="2.37097">
        <ele>30.57</ele>
        <time>2024-07-12T19:59:42.760Z</time>
      </trkpt>
      <trkpt lat="50.65256" lon="2.37179">
        <ele>28.42</ele>
        <time>2024-07-12T19:59:53.044Z</time>
      </trkpt>
      <trkpt lat="50.65255" lon="2.37191">
        <ele>28.01</ele>
        <time>2024-07-12T20:00:03.329Z</time>
      </trkpt>
      <trkpt lat="50.6525" lon="2.37286">
        <ele>28.86</ele>
        <time>2024-07-12T20:00:13.624Z</time>
      </trkpt>
      <trkpt lat="50.6525" lon="2.37323">
        <ele>29.73</ele>
        <time>2024-07-12T20:00:23.923Z</time>
      </trkpt>
      <trkpt lat="50.65255" lon="2.37394">
        <ele>29.68</ele>
        <time>2024-07-12T20:00:34.229Z</time>
      </trkpt>
      <trkpt lat="50.65265" lon="2.37479">
        <ele>27</ele>
        <time>2024-07-12T20:00:44.544Z</time>
      </trkpt>
      <trkpt lat="50.6527" lon="2.37528">
        <ele>26.42</ele>
        <time>2024-07-12T20:00:54.864Z</time>
      </trkpt>
      <trkpt lat="50.65277" lon="2.37579">
        <ele>26</ele>
        <time>2024-07-12T20:01:05.189Z</time>
      </trkpt>
      <trkpt lat="50.65282" lon="2.37642">
        <ele>26.75</ele>
        <time>2024-07-12T20:01:15.521Z</time>
      </trkpt>
      <trkpt lat="50.65282" lon="2.37681">
        <ele>25.38</ele>
        <time>2024-07-12T20:01:25.857Z</time>
      </trkpt>
      <trkpt lat="50.6528" lon="2.3772">
        <ele>23.18</ele>
        <time>2024-07-12T20:01:36.197Z</time>
      </trkpt>
      <trkpt lat="50.65272" lon="2.37785">
        <ele>23.35</ele>
        <time>2024-07-12T20:01:46.543Z</time>
      </trkpt>
      <trkpt lat="50.65269" lon="2.3781">
        <ele>22.7</ele>
        <time>2024-07-12T20:01:56.892Z</time>
      </trkpt>
      <trkpt lat="50.65256" lon="2.37888">
        <ele>21.08</ele>
        <time>2024-07-12T20:02:07.249Z</time>
      </trkpt>
      <trkpt lat="50.65251" lon="2.37927">
        <ele>22</ele>
        <time>2024-07-12T20:02:17.610Z</time>
      </trkpt>
      <trkpt lat="50.65241" lon="2.38016">
        <ele>22.5</ele>
        <time>2024-07-12T20:02:27.980Z</time>
      </trkpt>
      <trkpt lat="50.65238" lon="2.3804">
        <ele>22.27</ele>
        <time>2024-07-12T20:02:38.353Z</time>
      </trkpt>
      <trkpt lat="50.65235" lon="2.38063">
        <ele>21.25</ele>
        <time>2024-07-12T20:02:48.728Z</time>
      </trkpt>
      <trkpt lat="50.65227" lon="2.38142">
        <ele>23.21</ele>
        <time>2024-07-12T20:02:59.111Z</time>
      </trkpt>
      <trkpt lat="50.65215" lon="2.3823">
        <ele>24.02</ele>
        <time>2024-07-12T20:03:09.504Z</time>
      </trkpt>
      <trkpt lat="50.65208" lon="2.38251">
        <ele>23.52</ele>
        <time>2024-07-12T20:03:19.899Z</time>
      </trkpt>
      <trkpt lat="50.65199" lon="2.38269">
        <ele>23.18</ele>
        <time>2024-07-12T20:03:30.296Z</time>
      </trkpt>
      <trkpt lat="50.65173" lon="2.38305">
        <ele>22</ele>
        <time>2024-07-12T20:03:40.699Z</time>
      </trkpt>
      <trkpt lat="50.65143" lon="2.38344">
        <ele>21.5</ele>
        <time>2024-07-12T20:03:51.108Z</time>
      </trkpt>
      <trkpt lat="50.65116" lon="2.3839">
        <ele>22</ele>
        <time>2024-07-12T20:04:01.523Z</time>
      </trkpt>
      <trkpt lat="50.65083" lon="2.38456">
        <ele>22</ele>
        <time>2024-07-12T20:04:11.947Z</time>
      </trkpt>
      <trkpt lat="50.65055" lon="2.38512">
        <ele>21.81</ele>
        <time>2024-07-12T20:04:22.378Z</time>
      </trkpt>
      <trkpt lat="50.65023" lon="2.38565">
        <ele>22.44</ele>
        <time>2024-07-12T20:04:32.817Z</time>
      </trkpt>
      <trkpt lat="50.64997" lon="2.3861">
        <ele>23</ele>
        <time>2024-07-12T20:04:43.262Z</time>
      </trkpt>
      <trkpt lat="50.64979" lon="2.38655">
        <ele>22.91</ele>
        <time>2024-07-12T20:04:53.712Z</time>
      </trkpt>
      <trkpt lat="50.64956" lon="2.38732">
        <ele>23</ele>
        <time>2024-07-12T20:05:04.171Z</time>
      </trkpt>
      <trkpt lat="50.64935" lon="2.38801">
        <ele>22.49</ele>
        <time>2024-07-12T20:05:14.638Z</time>
      </trkpt>
      <trkpt lat="50.64917" lon="2.38867">
        <ele>21.68</ele>
        <time>2024-07-12T20:05:25.112Z</time>
      </trkpt>
      <trkpt lat="50.64903" lon="2.38927">
        <ele>22</ele>
        <time>2024-07-12T20:05:35.593Z</time>
      </trkpt>
      <trkpt lat="50.64897" lon="2.38951">
        <ele>22.33</ele>
        <time>2024-07-12T20:05:46.076Z</time>
      </trkpt>
      <trkpt lat="50.64897" lon="2.38955">
        <ele>22.5</ele>
        <time>2024-07-12T20:05:56.560Z</time>
      </trkpt>
      <trkpt lat="50.64894" lon="2.38984">
        <ele>23</ele>
        <time>2024-07-12T20:06:07.047Z</time>
      </trkpt>
      <trkpt lat="50.64892" lon="2.38997">
        <ele>23</ele>
        <time>2024-07-12T20:06:17.535Z</time>
      </trkpt>
      <trkpt lat="50.64888" lon="2.39008">
        <ele>23.4</ele>
        <time>2024-07-12T20:06:28.024Z</time>
      </trkpt>
      <trkpt lat="50.64885" lon="2.39014">
        <ele>23.61</ele>
        <time>2024-07-12T20:06:38.514Z</time>
      </trkpt>
      <trkpt lat="50.64882" lon="2.3902">
        <ele>23.61</ele>
        <time>2024-07-12T20:06:49.005Z</time>
      </trkpt>
      <trkpt lat="50.64867" lon="2.39052">
        <ele>23.06</ele>
        <time>2024-07-12T20:06:59.500Z</time>
      </trkpt>
      <trkpt lat="50.6484" lon="2.39117">
        <ele>22.07</ele>
        <time>2024-07-12T20:07:10.003Z</time>
      </trkpt>
      <trkpt lat="50.64809" lon="2.39184">
        <ele>22.97</ele>
        <time>2024-07-12T20:07:20.514Z</time>
      </trkpt>
      <trkpt lat="50.6479" lon="2.3921">
        <ele>20.93</ele>
        <time>2024-07-12T20:07:31.029Z</time>
      </trkpt>
      <trkpt lat="50.64786" lon="2.39212">
        <ele>20.54</ele>
        <time>2024-07-12T20:07:41.545Z</time>
      </trkpt>
      <trkpt lat="50.64782" lon="2.39212">
        <ele>20.26</ele>
        <time>2024-07-12T20:07:52.062Z</time>
      </trkpt>
      <trkpt lat="50.64772" lon="2.39211">
        <ele>20.65</ele>
        <time>2024-07-12T20:08:02.580Z</time>
      </trkpt>
      <trkpt lat="50.64763" lon="2.39217">
        <ele>20.76</ele>
        <time>2024-07-12T20:08:13.100Z</time>
      </trkpt>
      <trkpt lat="50.6476" lon="2.39221">
        <ele>20.74</ele>
        <time>2024-07-12T20:08:23.620Z</time>
      </trkpt>
      <trkpt lat="50.64757" lon="2.39226">
        <ele>20.66</ele>
        <time>2024-07-12T20:08:34.141Z</time>
      </trkpt>
      <trkpt lat="50.64754" lon="2.39239">
        <ele>20.31</ele>
        <time>2024-07-12T20:08:44.664Z</time>
      </trkpt>
      <trkpt lat="50.64754" lon="2.39246">
        <ele>20.04</ele>
        <time>2024-07-12T20:08:55.187Z</time>
      </trkpt>
      <trkpt lat="50.64755" lon="2.39253">
        <ele>19.97</ele>
        <time>2024-07-12T20:09:05.711Z</time>
      </trkpt>
      <trkpt lat="50.64756" lon="2.39267">
        <ele>19.94</ele>
        <time>2024-07-12T20:09:16.236Z</time>
      </trkpt>
      <trkpt lat="50.64753" lon="2.39282">
        <ele>20.34</ele>
        <time>2024-07-12T20:09:26.763Z</time>
      </trkpt>
      <trkpt lat="50.64747" lon="2.39297">
        <ele>21.32</ele>
        <time>2024-07-12T20:09:37.292Z</time>
      </trkpt>
      <trkpt lat="50.64742" lon="2.39302">
        <ele>21.86</ele>
        <time>2024-07-12T20:09:47.822Z</time>
      </trkpt>
      <trkpt lat="50.64737" lon="2.39307">
        <ele>22.41</ele>
        <time>2024-07-12T20:09:58.353Z</time>
      </trkpt>
      <trkpt lat="50.64715" lon="2.3932">
        <ele>23.58</ele>
        <time>2024-07-12T20:10:08.887Z</time>
      </trkpt>
      <trkpt lat="50.6468" lon="2.39342">
        <ele>22.32</ele>
        <time>2024-07-12T20:10:19.428Z</time>
      </trkpt>
      <trkpt lat="50.64625" lon="2.39379">
        <ele>21.74</ele>
        <time>2024-07-12T20:10:29.978Z</time>
      </trkpt>
      <trkpt lat="50.64577" lon="2.39402">
        <ele>23.58</ele>
        <time>2024-07-12T20:10:40.536Z</time>
      </trkpt>
      <trkpt lat="50.64528" lon="2.39441">
        <ele>22.85</ele>
        <time>2024-07-12T20:10:51.103Z</time>
      </trkpt>
      <trkpt lat="50.64502" lon="2.39463">
        <ele>22</ele>
        <time>2024-07-12T20:11:01.675Z</time>
      </trkpt>
      <trkpt lat="50.64453" lon="2.39508">
        <ele>22</ele>
        <time>2024-07-12T20:11:12.256Z</time>
      </trkpt>
      <trkpt lat="50.64448" lon="2.39513">
        <ele>22.02</ele>
        <time>2024-07-12T20:11:22.838Z</time>
      </trkpt>
      <trkpt lat="50.64412" lon="2.39544">
        <ele>23</ele>
        <time>2024-07-12T20:11:33.426Z</time>
      </trkpt>
      <trkpt lat="50.64364" lon="2.39586">
        <ele>22</ele>
        <time>2024-07-12T20:11:44.023Z</time>
      </trkpt>
      <trkpt lat="50.64354" lon="2.39595">
        <ele>22</ele>
        <time>2024-07-12T20:11:54.622Z</time>
      </trkpt>
      <trkpt lat="50.64305" lon="2.39638">
        <ele>22.34</ele>
        <time>2024-07-12T20:12:05.230Z</time>
      </trkpt>
      <trkpt lat="50.64266" lon="2.39673">
        <ele>23.42</ele>
        <time>2024-07-12T20:12:15.845Z</time>
      </trkpt>
      <trkpt lat="50.64225" lon="2.39709">
        <ele>23.02</ele>
        <time>2024-07-12T20:12:26.468Z</time>
      </trkpt>
      <trkpt lat="50.64191" lon="2.3974">
        <ele>24</ele>
        <time>2024-07-12T20:12:37.097Z</time>
      </trkpt>
      <trkpt lat="50.64188" lon="2.39743">
        <ele>24</ele>
        <time>2024-07-12T20:12:47.726Z</time>
      </trkpt>
      <trkpt lat="50.64178" lon="2.3975">
        <ele>23.9</ele>
        <time>2024-07-12T20:12:58.357Z</time>
      </trkpt>
      <trkpt lat="50.64174" lon="2.3975">
        <ele>23.91</ele>
        <time>2024-07-12T20:13:08.989Z</time>
      </trkpt>
      <trkpt lat="50.6417" lon="2.39748">
        <ele>24.01</ele>
        <time>2024-07-12T20:13:19.622Z</time>
      </trkpt>
      <trkpt lat="50.64151" lon="2.39741">
        <ele>24.47</ele>
        <time>2024-07-12T20:13:30.258Z</time>
      </trkpt>
      <trkpt lat="50.64113" lon="2.39726">
        <ele>24.92</ele>
        <time>2024-07-12T20:13:40.900Z</time>
      </trkpt>
      <trkpt lat="50.64108" lon="2.39726">
        <ele>24.75</ele>
        <time>2024-07-12T20:13:51.543Z</time>
      </trkpt>
      <trkpt lat="50.64097" lon="2.39722">
        <ele>24.34</ele>
        <time>2024-07-12T20:14:02.188Z</time>
      </trkpt>
      <trkpt lat="50.64096" lon="2.39718">
        <ele>24.3</ele>
        <time>2024-07-12T20:14:12.833Z</time>
      </trkpt>
      <trkpt lat="50.64096" lon="2.39717">
        <ele>24.3</ele>
        <time>2024-07-12T20:14:23.478Z</time>
      </trkpt>
      <trkpt lat="50.64091" lon="2.39716">
        <ele>24.13</ele>
        <time>2024-07-12T20:14:34.124Z</time>
      </trkpt>
      <trkpt lat="50.64091" lon="2.39717">
        <ele>24.12</ele>
        <time>2024-07-12T20:14:44.770Z</time>
      </trkpt>
      <trkpt lat="50.64093" lon="2.39724">
        <ele>24.19</ele>
        <time>2024-07-12T20:14:55.417Z</time>
      </trkpt>
      <trkpt lat="50.641" lon="2.39724">
        <ele>24.46</ele>
        <time>2024-07-12T20:15:06.065Z</time>
      </trkpt>
      <trkpt lat="50.64118" lon="2.39733">
        <ele>25</ele>
        <time>2024-07-12T20:15:16.716Z</time>
      </trkpt>
      <trkpt lat="50.64136" lon="2.39742">
        <ele>25</ele>
        <time>2024-07-12T20:15:27.370Z</time>
      </trkpt>
      <trkpt lat="50.64138" lon="2.39747">
        <ele>25</ele>
        <time>2024-07-12T20:15:38.024Z</time>
      </trkpt>
      <trkpt lat="50.64138" lon="2.39754">
        <ele>24.77</ele>
        <time>2024-07-12T20:15:48.679Z</time>
      </trkpt>
      <trkpt lat="50.64134" lon="2.39787">
        <ele>23.86</ele>
        <time>2024-07-12T20:15:59.338Z</time>
      </trkpt>
      <trkpt lat="50.64127" lon="2.39824">
        <ele>22.64</ele>
        <time>2024-07-12T20:16:10.001Z</time>
      </trkpt>
      <trkpt lat="50.64121" lon="2.39853">
        <ele>21.57</ele>
        <time>2024-07-12T20:16:20.667Z</time>
      </trkpt>
      <trkpt lat="50.64118" lon="2.39899">
        <ele>21.7</ele>
        <time>2024-07-12T20:16:31.337Z</time>
      </trkpt>
      <trkpt lat="50.64125" lon="2.39953">
        <ele>21.65</ele>
        <time>2024-07-12T20:16:42.013Z</time>
      </trkpt>
      <trkpt lat="50.6413" lon="2.39983">
        <ele>21.46</ele>
        <time>2024-07-12T20:16:52.692Z</time>
      </trkpt>
      <trkpt lat="50.64134" lon="2.39995">
        <ele>21.3</ele>
        <time>2024-07-12T20:17:03.373Z</time>
      </trkpt>
      <trkpt lat="50.64137" lon="2.4">
        <ele>21.31</ele>
        <time>2024-07-12T20:17:14.054Z</time>
      </trkpt>
      <trkpt lat="50.6414" lon="2.40005">
        <ele>21.35</ele>
        <time>2024-07-12T20:17:24.736Z</time>
      </trkpt>
      <trkpt lat="50.64155" lon="2.40017">
        <ele>21.25</ele>
        <time>2024-07-12T20:17:35.421Z</time>
      </trkpt>
      <trkpt lat="50.64164" lon="2.40019">
        <ele>21.04</ele>
        <time>2024-07-12T20:17:46.107Z</time>
      </trkpt>
      <trkpt lat="50.64165" lon="2.40024">
        <ele>21.14</ele>
        <time>2024-07-12T20:17:56.794Z</time>
      </trkpt>
      <trkpt lat="50.6418" lon="2.40045">
        <ele>21.39</ele>
        <time>2024-07-12T20:18:07.484Z</time>
      </trkpt>
      <trkpt lat="50.64189" lon="2.40065">
        <ele>21.33</ele>
        <time>2024-07-12T20:18:18.176Z</time>
      </trkpt>
      <trkpt lat="50.64194" lon="2.40076">
        <ele>21.15</ele>
        <time>2024-07-12T20:18:28.870Z</time>
      </trkpt>
      <trkpt lat="50.64194" lon="2.40077">
        <ele>21.14</ele>
        <time>2024-07-12T20:18:39.564Z</time>
      </trkpt>
      <trkpt lat="50.64194" lon="2.40077">
        <ele>21.14</ele>
        <time>2024-07-12T20:18:50.258Z</time>
      </trkpt>
      <trkpt lat="50.64199" lon="2.40083">
        <ele>20.98</ele>
        <time>2024-07-12T20:19:00.953Z</time>
      </trkpt>
      <trkpt lat="50.64206" lon="2.40098">
        <ele>20.72</ele>
        <time>2024-07-12T20:19:11.650Z</time>
      </trkpt>
      <trkpt lat="50.64213" lon="2.40105">
        <ele>20.46</ele>
        <time>2024-07-12T20:19:22.348Z</time>
      </trkpt>
      <trkpt lat="50.64228" lon="2.40118">
        <ele>20</ele>
        <time>2024-07-12T20:19:33.049Z</time>
      </trkpt>
      <trkpt lat="50.64244" lon="2.40136">
        <ele>20</ele>
        <time>2024-07-12T20:19:43.753Z</time>
      </trkpt>
      <trkpt lat="50.64256" lon="2.40153">
        <ele>20.08</ele>
        <time>2024-07-12T20:19:54.460Z</time>
      </trkpt>
      <trkpt lat="50.64253" lon="2.40166">
        <ele>20</ele>
        <time>2024-07-12T20:20:05.168Z</time>
      </trkpt>
      <trkpt lat="50.64247" lon="2.40183">
        <ele>20</ele>
        <time>2024-07-12T20:20:15.878Z</time>
      </trkpt>
      <trkpt lat="50.64248" lon="2.40187">
        <ele>20</ele>
        <time>2024-07-12T20:20:26.588Z</time>
      </trkpt>
      <trkpt lat="50.64249" lon="2.40189">
        <ele>20</ele>
        <time>2024-07-12T20:20:37.299Z</time>
      </trkpt>
      <trkpt lat="50.64255" lon="2.402">
        <ele>20</ele>
        <time>2024-07-12T20:20:48.011Z</time>
      </trkpt>
      <trkpt lat="50.64271" lon="2.40228">
        <ele>20.31</ele>
        <time>2024-07-12T20:20:58.727Z</time>
      </trkpt>
      <trkpt lat="50.64288" lon="2.40267">
        <ele>20.58</ele>
        <time>2024-07-12T20:21:09.448Z</time>
      </trkpt>
      <trkpt lat="50.64305" lon="2.40298">
        <ele>19.31</ele>
        <time>2024-07-12T20:21:20.173Z</time>
      </trkpt>
      <trkpt lat="50.64311" lon="2.40308">
        <ele>18.82</ele>
        <time>2024-07-12T20:21:30.899Z</time>
      </trkpt>
      <trkpt lat="50.64321" lon="2.40336">
        <ele>18</ele>
        <time>2024-07-12T20:21:41.629Z</time>
      </trkpt>
      <trkpt lat="50.6433" lon="2.40372">
        <ele>18</ele>
        <time>2024-07-12T20:21:52.362Z</time>
      </trkpt>
      <trkpt lat="50.64335" lon="2.40391">
        <ele>18.25</ele>
        <time>2024-07-12T20:22:03.098Z</time>
      </trkpt>
      <trkpt lat="50.64343" lon="2.40416">
        <ele>18.91</ele>
        <time>2024-07-12T20:22:13.836Z</time>
      </trkpt>
      <trkpt lat="50.64353" lon="2.4045">
        <ele>18.42</ele>
        <time>2024-07-12T20:22:24.578Z</time>
      </trkpt>
      <trkpt lat="50.64361" lon="2.40471">
        <ele>18.15</ele>
        <time>2024-07-12T20:22:35.323Z</time>
      </trkpt>
      <trkpt lat="50.64367" lon="2.405">
        <ele>18.05</ele>
        <time>2024-07-12T20:22:46.071Z</time>
      </trkpt>
      <trkpt lat="50.64365" lon="2.40506">
        <ele>18.01</ele>
        <time>2024-07-12T20:22:56.819Z</time>
      </trkpt>
      <trkpt lat="50.6436" lon="2.40514">
        <ele>18.19</ele>
        <time>2024-07-12T20:23:07.569Z</time>
      </trkpt>
      <trkpt lat="50.64356" lon="2.40518">
        <ele>18.27</ele>
        <time>2024-07-12T20:23:18.319Z</time>
      </trkpt>
      <trkpt lat="50.64354" lon="2.40523">
        <ele>18.09</ele>
        <time>2024-07-12T20:23:29.070Z</time>
      </trkpt>
      <trkpt lat="50.64345" lon="2.40543">
        <ele>17.71</ele>
        <time>2024-07-12T20:23:39.823Z</time>
      </trkpt>
      <trkpt lat="50.64343" lon="2.4055">
        <ele>17.78</ele>
        <time>2024-07-12T20:23:50.577Z</time>
      </trkpt>
      <trkpt lat="50.64342" lon="2.40559">
        <ele>17.84</ele>
        <time>2024-07-12T20:24:01.332Z</time>
      </trkpt>
      <trkpt lat="50.6434" lon="2.40576">
        <ele>17.89</ele>
        <time>2024-07-12T20:24:12.089Z</time>
      </trkpt>
      <trkpt lat="50.64341" lon="2.40584">
        <ele>17.66</ele>
        <time>2024-07-12T20:24:22.847Z</time>
      </trkpt>
      <trkpt lat="50.64343" lon="2.40615">
        <ele>17.37</ele>
        <time>2024-07-12T20:24:33.608Z</time>
      </trkpt>
      <trkpt lat="50.64343" lon="2.40648">
        <ele>16.62</ele>
        <time>2024-07-12T20:24:44.372Z</time>
      </trkpt>
      <trkpt lat="50.64341" lon="2.4066">
        <ele>16.7</ele>
        <time>2024-07-12T20:24:55.138Z</time>
      </trkpt>
      <trkpt lat="50.64335" lon="2.40667">
        <ele>17.1</ele>
        <time>2024-07-12T20:25:05.905Z</time>
      </trkpt>
      <trkpt lat="50.64307" lon="2.40681">
        <ele>18.09</ele>
        <time>2024-07-12T20:25:16.676Z</time>
      </trkpt>
      <trkpt lat="50.64282" lon="2.40702">
        <ele>19</ele>
        <time>2024-07-12T20:25:27.452Z</time>
      </trkpt>
      <trkpt lat="50.64277" lon="2.40708">
        <ele>19</ele>
        <time>2024-07-12T20:25:38.229Z</time>
      </trkpt>
      <trkpt lat="50.64273" lon="2.40716">
        <ele>19</ele>
        <time>2024-07-12T20:25:49.007Z</time>
      </trkpt>
      <trkpt lat="50.64267" lon="2.40733">
        <ele>19.9</ele>
        <time>2024-07-12T20:25:59.787Z</time>
      </trkpt>
      <trkpt lat="50.64264" lon="2.40743">
        <ele>19.71</ele>
        <time>2024-07-12T20:26:10.568Z</time>
      </trkpt>
      <trkpt lat="50.64243" lon="2.40829">
        <ele>20.76</ele>
        <time>2024-07-12T20:26:21.359Z</time>
      </trkpt>
      <trkpt lat="50.64241" lon="2.40838">
        <ele>20.56</ele>
        <time>2024-07-12T20:26:32.151Z</time>
      </trkpt>
      <trkpt lat="50.64227" lon="2.40893">
        <ele>20.51</ele>
        <time>2024-07-12T20:26:42.949Z</time>
      </trkpt>
      <trkpt lat="50.64225" lon="2.40911">
        <ele>21.81</ele>
        <time>2024-07-12T20:26:53.748Z</time>
      </trkpt>
      <trkpt lat="50.64226" lon="2.40928">
        <ele>23.04</ele>
        <time>2024-07-12T20:27:04.549Z</time>
      </trkpt>
      <trkpt lat="50.64227" lon="2.40937">
        <ele>23.6</ele>
        <time>2024-07-12T20:27:15.351Z</time>
      </trkpt>
      <trkpt lat="50.64233" lon="2.40974">
        <ele>24.92</ele>
        <time>2024-07-12T20:27:26.157Z</time>
      </trkpt>
      <trkpt lat="50.64241" lon="2.41032">
        <ele>25.23</ele>
        <time>2024-07-12T20:27:36.969Z</time>
      </trkpt>
      <trkpt lat="50.64248" lon="2.41094">
        <ele>22.52</ele>
        <time>2024-07-12T20:27:47.787Z</time>
      </trkpt>
      <trkpt lat="50.64254" lon="2.41168">
        <ele>20.87</ele>
        <time>2024-07-12T20:27:58.613Z</time>
      </trkpt>
      <trkpt lat="50.64253" lon="2.41178">
        <ele>20.57</ele>
        <time>2024-07-12T20:28:09.440Z</time>
      </trkpt>
      <trkpt lat="50.64247" lon="2.41214">
        <ele>20.04</ele>
        <time>2024-07-12T20:28:20.271Z</time>
      </trkpt>
      <trkpt lat="50.64244" lon="2.41222">
        <ele>20.08</ele>
        <time>2024-07-12T20:28:31.103Z</time>
      </trkpt>
      <trkpt lat="50.6424" lon="2.41228">
        <ele>20.21</ele>
        <time>2024-07-12T20:28:41.936Z</time>
      </trkpt>
      <trkpt lat="50.64232" lon="2.41238">
        <ele>20.7</ele>
        <time>2024-07-12T20:28:52.770Z</time>
      </trkpt>
      <trkpt lat="50.64229" lon="2.41242">
        <ele>20.92</ele>
        <time>2024-07-12T20:29:03.605Z</time>
      </trkpt>
      <trkpt lat="50.64226" lon="2.41246">
        <ele>21.05</ele>
        <time>2024-07-12T20:29:14.441Z</time>
      </trkpt>
      <trkpt lat="50.64214" lon="2.4126">
        <ele>21.41</ele>
        <time>2024-07-12T20:29:25.279Z</time>
      </trkpt>
      <trkpt lat="50.64212" lon="2.41262">
        <ele>21.56</ele>
        <time>2024-07-12T20:29:36.117Z</time>
      </trkpt>
      <trkpt lat="50.64196" lon="2.41264">
        <ele>22.88</ele>
        <time>2024-07-12T20:29:46.958Z</time>
      </trkpt>
      <trkpt lat="50.64193" lon="2.41264">
        <ele>23.04</ele>
        <time>2024-07-12T20:29:57.799Z</time>
      </trkpt>
      <trkpt lat="50.64176" lon="2.41262">
        <ele>24.43</ele>
        <time>2024-07-12T20:30:08.643Z</time>
      </trkpt>
      <trkpt lat="50.64174" lon="2.41262">
        <ele>24.64</ele>
        <time>2024-07-12T20:30:19.487Z</time>
      </trkpt>
      <trkpt lat="50.6417" lon="2.41266">
        <ele>25</ele>
        <time>2024-07-12T20:30:30.332Z</time>
      </trkpt>
      <trkpt lat="50.64171" lon="2.41273">
        <ele>24.93</ele>
        <time>2024-07-12T20:30:41.178Z</time>
      </trkpt>
      <trkpt lat="50.64183" lon="2.41289">
        <ele>23.26</ele>
        <time>2024-07-12T20:30:52.026Z</time>
      </trkpt>
      <trkpt lat="50.64191" lon="2.413">
        <ele>22.11</ele>
        <time>2024-07-12T20:31:02.876Z</time>
      </trkpt>
      <trkpt lat="50.64203" lon="2.41322">
        <ele>20.55</ele>
        <time>2024-07-12T20:31:13.729Z</time>
      </trkpt>
      <trkpt lat="50.64228" lon="2.41362">
        <ele>18.17</ele>
        <time>2024-07-12T20:31:24.588Z</time>
      </trkpt>
      <trkpt lat="50.64252" lon="2.41406">
        <ele>20.61</ele>
        <time>2024-07-12T20:31:35.453Z</time>
      </trkpt>
      <trkpt lat="50.64277" lon="2.41452">
        <ele>22</ele>
        <time>2024-07-12T20:31:46.324Z</time>
      </trkpt>
      <trkpt lat="50.64292" lon="2.41493">
        <ele>20.4</ele>
        <time>2024-07-12T20:31:57.200Z</time>
      </trkpt>
      <trkpt lat="50.64299" lon="2.41516">
        <ele>19.02</ele>
        <time>2024-07-12T20:32:08.078Z</time>
      </trkpt>
      <trkpt lat="50.64308" lon="2.41555">
        <ele>18.1</ele>
        <time>2024-07-12T20:32:18.960Z</time>
      </trkpt>
      <trkpt lat="50.64314" lon="2.41591">
        <ele>19.2</ele>
        <time>2024-07-12T20:32:29.846Z</time>
      </trkpt>
      <trkpt lat="50.64316" lon="2.41613">
        <ele>19.63</ele>
        <time>2024-07-12T20:32:40.734Z</time>
      </trkpt>
      <trkpt lat="50.64318" lon="2.4164">
        <ele>19.38</ele>
        <time>2024-07-12T20:32:51.625Z</time>
      </trkpt>
      <trkpt lat="50.64323" lon="2.41658">
        <ele>19.05</ele>
        <time>2024-07-12T20:33:02.518Z</time>
      </trkpt>
      <trkpt lat="50.64326" lon="2.41659">
        <ele>18.78</ele>
        <time>2024-07-12T20:33:13.412Z</time>
      </trkpt>
      <trkpt lat="50.64332" lon="2.41651">
        <ele>18.42</ele>
        <time>2024-07-12T20:33:24.307Z</time>
      </trkpt>
      <trkpt lat="50.64332" lon="2.41628">
        <ele>18.51</ele>
        <time>2024-07-12T20:33:35.204Z</time>
      </trkpt>
      <trkpt lat="50.64327" lon="2.41577">
        <ele>18.2</ele>
        <time>2024-07-12T20:33:46.107Z</time>
      </trkpt>
      <trkpt lat="50.64318" lon="2.41517">
        <ele>17.99</ele>
        <time>2024-07-12T20:33:57.016Z</time>
      </trkpt>
      <trkpt lat="50.64305" lon="2.41471">
        <ele>19.47</ele>
        <time>2024-07-12T20:34:07.930Z</time>
      </trkpt>
      <trkpt lat="50.64301" lon="2.41456">
        <ele>19.92</ele>
        <time>2024-07-12T20:34:18.846Z</time>
      </trkpt>
      <trkpt lat="50.64294" lon="2.41435">
        <ele>20.71</ele>
        <time>2024-07-12T20:34:29.764Z</time>
      </trkpt>
      <trkpt lat="50.64289" lon="2.41422">
        <ele>21.24</ele>
        <time>2024-07-12T20:34:40.684Z</time>
      </trkpt>
      <trkpt lat="50.64266" lon="2.41371">
        <ele>19.87</ele>
        <time>2024-07-12T20:34:51.610Z</time>
      </trkpt>
      <trkpt lat="50.64258" lon="2.41346">
        <ele>18.54</ele>
        <time>2024-07-12T20:35:02.539Z</time>
      </trkpt>
      <trkpt lat="50.64255" lon="2.41344">
        <ele>18.47</ele>
        <time>2024-07-12T20:35:13.468Z</time>
      </trkpt>
      <trkpt lat="50.64249" lon="2.41347">
        <ele>18.57</ele>
        <time>2024-07-12T20:35:24.398Z</time>
      </trkpt>
      <trkpt lat="50.64232" lon="2.41358">
        <ele>18.21</ele>
        <time>2024-07-12T20:35:35.331Z</time>
      </trkpt>
      <trkpt lat="50.64228" lon="2.41369">
        <ele>18.41</ele>
        <time>2024-07-12T20:35:46.266Z</time>
      </trkpt>
      <trkpt lat="50.64223" lon="2.41383">
        <ele>19.24</ele>
        <time>2024-07-12T20:35:57.202Z</time>
      </trkpt>
      <trkpt lat="50.6422" lon="2.41391">
        <ele>19.62</ele>
        <time>2024-07-12T20:36:08.139Z</time>
      </trkpt>
      <trkpt lat="50.64207" lon="2.41411">
        <ele>20.68</ele>
        <time>2024-07-12T20:36:19.079Z</time>
      </trkpt>
      <trkpt lat="50.64173" lon="2.41468">
        <ele>21.07</ele>
        <time>2024-07-12T20:36:30.027Z</time>
      </trkpt>
      <trkpt lat="50.64145" lon="2.41523">
        <ele>21.17</ele>
        <time>2024-07-12T20:36:40.982Z</time>
      </trkpt>
      <trkpt lat="50.6411" lon="2.41598">
        <ele>20.96</ele>
        <time>2024-07-12T20:36:51.947Z</time>
      </trkpt>
      <trkpt lat="50.64103" lon="2.41616">
        <ele>21.65</ele>
        <time>2024-07-12T20:37:02.914Z</time>
      </trkpt>
      <trkpt lat="50.64074" lon="2.41689">
        <ele>22.22</ele>
        <time>2024-07-12T20:37:13.889Z</time>
      </trkpt>
      <trkpt lat="50.64067" lon="2.41707">
        <ele>20.79</ele>
        <time>2024-07-12T20:37:24.867Z</time>
      </trkpt>
      <trkpt lat="50.64044" lon="2.41784">
        <ele>20.39</ele>
        <time>2024-07-12T20:37:35.853Z</time>
      </trkpt>
      <trkpt lat="50.64039" lon="2.41803">
        <ele>20.74</ele>
        <time>2024-07-12T20:37:46.841Z</time>
      </trkpt>
      <trkpt lat="50.64019" lon="2.41885">
        <ele>18.16</ele>
        <time>2024-07-12T20:37:57.838Z</time>
      </trkpt>
      <trkpt lat="50.64017" lon="2.41895">
        <ele>17.37</ele>
        <time>2024-07-12T20:38:08.836Z</time>
      </trkpt>
      <trkpt lat="50.63997" lon="2.41972">
        <ele>15.79</ele>
        <time>2024-07-12T20:38:19.843Z</time>
      </trkpt>
      <trkpt lat="50.63975" lon="2.42051">
        <ele>15.13</ele>
        <time>2024-07-12T20:38:30.859Z</time>
      </trkpt>
      <trkpt lat="50.63967" lon="2.42081">
        <ele>15.62</ele>
        <time>2024-07-12T20:38:41.878Z</time>
      </trkpt>
      <trkpt lat="50.63945" lon="2.4217">
        <ele>20.19</ele>
        <time>2024-07-12T20:38:52.907Z</time>
      </trkpt>
      <trkpt lat="50.63926" lon="2.42249">
        <ele>22</ele>
        <time>2024-07-12T20:39:03.944Z</time>
      </trkpt>
      <trkpt lat="50.63918" lon="2.42279">
        <ele>22.01</ele>
        <time>2024-07-12T20:39:14.985Z</time>
      </trkpt>
      <trkpt lat="50.63896" lon="2.42366">
        <ele>21.75</ele>
        <time>2024-07-12T20:39:26.035Z</time>
      </trkpt>
      <trkpt lat="50.63891" lon="2.42386">
        <ele>21.94</ele>
        <time>2024-07-12T20:39:37.087Z</time>
      </trkpt>
      <trkpt lat="50.63872" lon="2.42465">
        <ele>18.45</ele>
        <time>2024-07-12T20:39:48.148Z</time>
      </trkpt>
      <trkpt lat="50.63858" lon="2.42526">
        <ele>18</ele>
        <time>2024-07-12T20:39:59.216Z</time>
      </trkpt>
      <trkpt lat="50.63838" lon="2.42608">
        <ele>18.97</ele>
        <time>2024-07-12T20:40:10.293Z</time>
      </trkpt>
      <trkpt lat="50.6383" lon="2.42639">
        <ele>19.26</ele>
        <time>2024-07-12T20:40:21.373Z</time>
      </trkpt>
      <trkpt lat="50.63809" lon="2.42724">
        <ele>19.11</ele>
        <time>2024-07-12T20:40:32.462Z</time>
      </trkpt>
      <trkpt lat="50.63801" lon="2.42756">
        <ele>19.68</ele>
        <time>2024-07-12T20:40:43.555Z</time>
      </trkpt>
      <trkpt lat="50.6378" lon="2.42843">
        <ele>24.61</ele>
        <time>2024-07-12T20:40:54.657Z</time>
      </trkpt>
      <trkpt lat="50.63775" lon="2.42864">
        <ele>25.21</ele>
        <time>2024-07-12T20:41:05.762Z</time>
      </trkpt>
      <trkpt lat="50.63754" lon="2.42951">
        <ele>23.64</ele>
        <time>2024-07-12T20:41:16.876Z</time>
      </trkpt>
      <trkpt lat="50.63749" lon="2.42973">
        <ele>22.38</ele>
        <time>2024-07-12T20:41:27.992Z</time>
      </trkpt>
      <trkpt lat="50.63727" lon="2.43058">
        <ele>21.45</ele>
        <time>2024-07-12T20:41:39.118Z</time>
      </trkpt>
      <trkpt lat="50.63717" lon="2.43101">
        <ele>23.07</ele>
        <time>2024-07-12T20:41:50.248Z</time>
      </trkpt>
      <trkpt lat="50.63696" lon="2.43188">
        <ele>19.16</ele>
        <time>2024-07-12T20:42:01.388Z</time>
      </trkpt>
      <trkpt lat="50.63688" lon="2.43221">
        <ele>19</ele>
        <time>2024-07-12T20:42:12.531Z</time>
      </trkpt>
      <trkpt lat="50.63668" lon="2.43307">
        <ele>18.87</ele>
        <time>2024-07-12T20:42:23.684Z</time>
      </trkpt>
      <trkpt lat="50.63665" lon="2.43317">
        <ele>18.51</ele>
        <time>2024-07-12T20:42:34.838Z</time>
      </trkpt>
      <trkpt lat="50.63643" lon="2.43406">
        <ele>17.99</ele>
        <time>2024-07-12T20:42:46.002Z</time>
      </trkpt>
      <trkpt lat="50.63633" lon="2.43447">
        <ele>18.34</ele>
        <time>2024-07-12T20:42:57.170Z</time>
      </trkpt>
      <trkpt lat="50.63617" lon="2.43508">
        <ele>19.57</ele>
        <time>2024-07-12T20:43:08.345Z</time>
      </trkpt>
      <trkpt lat="50.63597" lon="2.43589">
        <ele>19.64</ele>
        <time>2024-07-12T20:43:19.529Z</time>
      </trkpt>
      <trkpt lat="50.6359" lon="2.43618">
        <ele>19.67</ele>
        <time>2024-07-12T20:43:30.716Z</time>
      </trkpt>
      <trkpt lat="50.63569" lon="2.43695">
        <ele>18.26</ele>
        <time>2024-07-12T20:43:41.911Z</time>
      </trkpt>
      <trkpt lat="50.63546" lon="2.43774">
        <ele>21.89</ele>
        <time>2024-07-12T20:43:53.115Z</time>
      </trkpt>
      <trkpt lat="50.63525" lon="2.43854">
        <ele>19.18</ele>
        <time>2024-07-12T20:44:04.328Z</time>
      </trkpt>
      <trkpt lat="50.63521" lon="2.43863">
        <ele>18.86</ele>
        <time>2024-07-12T20:44:15.542Z</time>
      </trkpt>
      <trkpt lat="50.63507" lon="2.43887">
        <ele>18</ele>
        <time>2024-07-12T20:44:26.759Z</time>
      </trkpt>
      <trkpt lat="50.63504" lon="2.43895">
        <ele>18.01</ele>
        <time>2024-07-12T20:44:37.977Z</time>
      </trkpt>
      <trkpt lat="50.63502" lon="2.43904">
        <ele>18.04</ele>
        <time>2024-07-12T20:44:49.196Z</time>
      </trkpt>
      <trkpt lat="50.63502" lon="2.43924">
        <ele>18.32</ele>
        <time>2024-07-12T20:45:00.417Z</time>
      </trkpt>
      <trkpt lat="50.63501" lon="2.43946">
        <ele>18.9</ele>
        <time>2024-07-12T20:45:11.641Z</time>
      </trkpt>
      <trkpt lat="50.63496" lon="2.43966">
        <ele>18.72</ele>
        <time>2024-07-12T20:45:22.867Z</time>
      </trkpt>
      <trkpt lat="50.63476" lon="2.44048">
        <ele>18.99</ele>
        <time>2024-07-12T20:45:34.102Z</time>
      </trkpt>
      <trkpt lat="50.63466" lon="2.4409">
        <ele>20.64</ele>
        <time>2024-07-12T20:45:45.341Z</time>
      </trkpt>
      <trkpt lat="50.63448" lon="2.44176">
        <ele>19.6</ele>
        <time>2024-07-12T20:45:56.590Z</time>
      </trkpt>
      <trkpt lat="50.63441" lon="2.44208">
        <ele>18.18</ele>
        <time>2024-07-12T20:46:07.842Z</time>
      </trkpt>
      <trkpt lat="50.63423" lon="2.44299">
        <ele>18</ele>
        <time>2024-07-12T20:46:19.104Z</time>
      </trkpt>
      <trkpt lat="50.63421" lon="2.4431">
        <ele>18.2</ele>
        <time>2024-07-12T20:46:30.367Z</time>
      </trkpt>
      <trkpt lat="50.63401" lon="2.44396">
        <ele>19.6</ele>
        <time>2024-07-12T20:46:41.639Z</time>
      </trkpt>
      <trkpt lat="50.63399" lon="2.44406">
        <ele>19.86</ele>
        <time>2024-07-12T20:46:52.912Z</time>
      </trkpt>
      <trkpt lat="50.63379" lon="2.44488">
        <ele>22.62</ele>
        <time>2024-07-12T20:47:04.194Z</time>
      </trkpt>
      <trkpt lat="50.63372" lon="2.44518">
        <ele>23</ele>
        <time>2024-07-12T20:47:15.479Z</time>
      </trkpt>
      <trkpt lat="50.63353" lon="2.44595">
        <ele>21.55</ele>
        <time>2024-07-12T20:47:26.773Z</time>
      </trkpt>
      <trkpt lat="50.63331" lon="2.44681">
        <ele>24.14</ele>
        <time>2024-07-12T20:47:38.076Z</time>
      </trkpt>
      <trkpt lat="50.63329" lon="2.44691">
        <ele>24.78</ele>
        <time>2024-07-12T20:47:49.380Z</time>
      </trkpt>
      <trkpt lat="50.63309" lon="2.44771">
        <ele>24.19</ele>
        <time>2024-07-12T20:48:00.693Z</time>
      </trkpt>
      <trkpt lat="50.63303" lon="2.44797">
        <ele>23.26</ele>
        <time>2024-07-12T20:48:12.009Z</time>
      </trkpt>
      <trkpt lat="50.63282" lon="2.44882">
        <ele>19.98</ele>
        <time>2024-07-12T20:48:23.334Z</time>
      </trkpt>
      <trkpt lat="50.63277" lon="2.44901">
        <ele>19.67</ele>
        <time>2024-07-12T20:48:34.661Z</time>
      </trkpt>
      <trkpt lat="50.63256" lon="2.44985">
        <ele>21.82</ele>
        <time>2024-07-12T20:48:45.998Z</time>
      </trkpt>
      <trkpt lat="50.63252" lon="2.45004">
        <ele>21.81</ele>
        <time>2024-07-12T20:48:57.337Z</time>
      </trkpt>
      <trkpt lat="50.63231" lon="2.45088">
        <ele>19.58</ele>
        <time>2024-07-12T20:49:08.685Z</time>
      </trkpt>
      <trkpt lat="50.63229" lon="2.45098">
        <ele>19.32</ele>
        <time>2024-07-12T20:49:20.034Z</time>
      </trkpt>
      <trkpt lat="50.6321" lon="2.45181">
        <ele>20.01</ele>
        <time>2024-07-12T20:49:31.392Z</time>
      </trkpt>
      <trkpt lat="50.63202" lon="2.4521">
        <ele>19.4</ele>
        <time>2024-07-12T20:49:42.753Z</time>
      </trkpt>
      <trkpt lat="50.63182" lon="2.45296">
        <ele>20</ele>
        <time>2024-07-12T20:49:54.123Z</time>
      </trkpt>
      <trkpt lat="50.6316" lon="2.45382">
        <ele>19.38</ele>
        <time>2024-07-12T20:50:05.503Z</time>
      </trkpt>
      <trkpt lat="50.63138" lon="2.45468">
        <ele>18.31</ele>
        <time>2024-07-12T20:50:16.892Z</time>
      </trkpt>
      <trkpt lat="50.63133" lon="2.45487">
        <ele>18.66</ele>
        <time>2024-07-12T20:50:28.283Z</time>
      </trkpt>
      <trkpt lat="50.63109" lon="2.4557">
        <ele>18.97</ele>
        <time>2024-07-12T20:50:39.684Z</time>
      </trkpt>
      <trkpt lat="50.63084" lon="2.45653">
        <ele>20.55</ele>
        <time>2024-07-12T20:50:51.094Z</time>
      </trkpt>
      <trkpt lat="50.63079" lon="2.45672">
        <ele>20.71</ele>
        <time>2024-07-12T20:51:02.506Z</time>
      </trkpt>
      <trkpt lat="50.6306" lon="2.45743">
        <ele>19.01</ele>
        <time>2024-07-12T20:51:13.926Z</time>
      </trkpt>
      <trkpt lat="50.63044" lon="2.45808">
        <ele>20</ele>
        <time>2024-07-12T20:51:25.353Z</time>
      </trkpt>
      <trkpt lat="50.6304" lon="2.45815">
        <ele>20</ele>
        <time>2024-07-12T20:51:36.781Z</time>
      </trkpt>
      <trkpt lat="50.63027" lon="2.45843">
        <ele>19.84</ele>
        <time>2024-07-12T20:51:48.212Z</time>
      </trkpt>
      <trkpt lat="50.63025" lon="2.4585">
        <ele>19.76</ele>
        <time>2024-07-12T20:51:59.644Z</time>
      </trkpt>
      <trkpt lat="50.63023" lon="2.45858">
        <ele>19.69</ele>
        <time>2024-07-12T20:52:11.077Z</time>
        <extensions>
          <visugpx:TrkExtension xmlns:visugpx="https://www.visugpx.com/editgpx/">
            <visugpx:node>1</visugpx:node>
            </visugpx:TrkExtension>
        </extensions>
      </trkpt>
      <trkpt lat="50.63021" lon="2.45872">
        <ele>21</ele>
        <extensions>
          <visugpx:TrkExtension xmlns:visugpx="https://www.visugpx.com/editgpx/">
            <visugpx:node>2</visugpx:node>
            </visugpx:TrkExtension>
        </extensions>
      </trkpt>
      <trkpt lat="50.63021" lon="2.45882">
        <ele>21.3</ele>
      </trkpt>
      <trkpt lat="50.63021" lon="2.45895">
        <ele>20.9</ele>
      </trkpt>
      <trkpt lat="50.63021" lon="2.45904">
        <ele>20</ele>
      </trkpt>
      <trkpt lat="50.63019" lon="2.45912">
        <ele>19.1</ele>
      </trkpt>
      <trkpt lat="50.63017" lon="2.45923">
        <ele>18.4</ele>
      </trkpt>
      <trkpt lat="50.63011" lon="2.45955">
        <ele>17.6</ele>
      </trkpt>
      <trkpt lat="50.63002" lon="2.45998">
        <ele>17.9</ele>
      </trkpt>
      <trkpt lat="50.62998" lon="2.46022">
        <ele>17.2</ele>
        <extensions>
          <visugpx:TrkExtension xmlns:visugpx="https://www.visugpx.com/editgpx/">
            <visugpx:node>3</visugpx:node>
            </visugpx:TrkExtension>
        </extensions>
      </trkpt>
      <trkpt lat="50.63003" lon="2.46027">
        <ele>17.1</ele>
      </trkpt>
      <trkpt lat="50.63024" lon="2.46054">
        <ele>18</ele>
      </trkpt>
      <trkpt lat="50.63044" lon="2.46077">
        <ele>17.7</ele>
      </trkpt>
      <trkpt lat="50.63069" lon="2.46107">
        <ele>18</ele>
      </trkpt>
      <trkpt lat="50.63081" lon="2.4612">
        <ele>18</ele>
        <extensions>
          <visugpx:TrkExtension xmlns:visugpx="https://www.visugpx.com/editgpx/">
            <visugpx:node>4</visugpx:node>
            </visugpx:TrkExtension>
        </extensions>
      </trkpt>
      <trkpt lat="50.63085" lon="2.46127">
        <ele>18</ele>
      </trkpt>
      <trkpt lat="50.63092" lon="2.46138">
        <ele>18</ele>
      </trkpt>
      <trkpt lat="50.63101" lon="2.46151">
        <ele>18</ele>
      </trkpt>
      <trkpt lat="50.63102" lon="2.4616">
        <ele>18</ele>
      </trkpt>
      <trkpt lat="50.63102" lon="2.46166">
        <ele>18</ele>
        <extensions>
          <visugpx:TrkExtension xmlns:visugpx="https://www.visugpx.com/editgpx/">
            <visugpx:node>5</visugpx:node>
            </visugpx:TrkExtension>
        </extensions>
      </trkpt>
      <trkpt lat="50.63103" lon="2.46189">
        <ele>17.4</ele>
      </trkpt>
      <trkpt lat="50.63104" lon="2.46225">
        <ele>17.4</ele>
      </trkpt>
      <trkpt lat="50.63105" lon="2.46252">
        <ele>18.2</ele>
      </trkpt>
      <trkpt lat="50.63104" lon="2.46277">
        <ele>18.5</ele>
      </trkpt>
      <trkpt lat="50.63104" lon="2.46289">
        <ele>17.9</ele>
      </trkpt>
      <trkpt lat="50.63102" lon="2.46297">
        <ele>17.5</ele>
      </trkpt>
      <trkpt lat="50.631" lon="2.46304">
        <ele>17.1</ele>
      </trkpt>
      <trkpt lat="50.63094" lon="2.46315">
        <ele>17</ele>
      </trkpt>
      <trkpt lat="50.6308" lon="2.46343">
        <ele>17.1</ele>
      </trkpt>
      <trkpt lat="50.63074" lon="2.46353">
        <ele>17.1</ele>
      </trkpt>
      <trkpt lat="50.63051" lon="2.46398">
        <ele>17</ele>
      </trkpt>
      <trkpt lat="50.63023" lon="2.46462">
        <ele>17.1</ele>
      </trkpt>
      <trkpt lat="50.63019" lon="2.4647">
        <ele>17</ele>
      </trkpt>
      <trkpt lat="50.63018" lon="2.46478">
        <ele>17.2</ele>
      </trkpt>
      <trkpt lat="50.63017" lon="2.46485">
        <ele>17.5</ele>
      </trkpt>
      <trkpt lat="50.63016" lon="2.4649">
        <ele>17.6</ele>
      </trkpt>
      <trkpt lat="50.63016" lon="2.46498">
        <ele>17.9</ele>
      </trkpt>
      <trkpt lat="50.63018" lon="2.46505">
        <ele>18</ele>
      </trkpt>
      <trkpt lat="50.6302" lon="2.46511">
        <ele>18</ele>
      </trkpt>
      <trkpt lat="50.63023" lon="2.46516">
        <ele>18</ele>
      </trkpt>
      <trkpt lat="50.63047" lon="2.46544">
        <ele>17.1</ele>
      </trkpt>
      <trkpt lat="50.63059" lon="2.4656">
        <ele>17</ele>
      </trkpt>
      <trkpt lat="50.63063" lon="2.46568">
        <ele>17</ele>
      </trkpt>
      <trkpt lat="50.63066" lon="2.46574">
        <ele>17</ele>
      </trkpt>
      <trkpt lat="50.63068" lon="2.46581">
        <ele>17</ele>
      </trkpt>
      <trkpt lat="50.63069" lon="2.46588">
        <ele>17.1</ele>
      </trkpt>
      <trkpt lat="50.63069" lon="2.46596">
        <ele>17.2</ele>
      </trkpt>
      <trkpt lat="50.63068" lon="2.46604">
        <ele>17.4</ele>
      </trkpt>
      <trkpt lat="50.63069" lon="2.46611">
        <ele>17.5</ele>
      </trkpt>
      <trkpt lat="50.63069" lon="2.46618">
        <ele>17.6</ele>
      </trkpt>
      <trkpt lat="50.63071" lon="2.46629">
        <ele>17.8</ele>
      </trkpt>
      <trkpt lat="50.63072" lon="2.46638">
        <ele>18</ele>
      </trkpt>
      <trkpt lat="50.63072" lon="2.46645">
        <ele>17.9</ele>
      </trkpt>
      <trkpt lat="50.63072" lon="2.46652">
        <ele>17.7</ele>
      </trkpt>
      <trkpt lat="50.63071" lon="2.46659">
        <ele>17.6</ele>
      </trkpt>
      <trkpt lat="50.63069" lon="2.46667">
        <ele>17.5</ele>
      </trkpt>
      <trkpt lat="50.63064" lon="2.46679">
        <ele>17.4</ele>
      </trkpt>
      <trkpt lat="50.6306" lon="2.46691">
        <ele>17.1</ele>
      </trkpt>
      <trkpt lat="50.63054" lon="2.4671">
        <ele>17</ele>
      </trkpt>
      <trkpt lat="50.63046" lon="2.46736">
        <ele>17</ele>
      </trkpt>
      <trkpt lat="50.63037" lon="2.4676">
        <ele>17</ele>
      </trkpt>
      <trkpt lat="50.63031" lon="2.4677">
        <ele>17</ele>
      </trkpt>
      <trkpt lat="50.63026" lon="2.4678">
        <ele>17</ele>
      </trkpt>
      <trkpt lat="50.6302" lon="2.46788">
        <ele>17</ele>
      </trkpt>
      <trkpt lat="50.63014" lon="2.46795">
        <ele>17</ele>
      </trkpt>
      <trkpt lat="50.63006" lon="2.46802">
        <ele>17</ele>
      </trkpt>
      <trkpt lat="50.62999" lon="2.46806">
        <ele>17</ele>
      </trkpt>
      <trkpt lat="50.62989" lon="2.46812">
        <ele>17</ele>
      </trkpt>
      <trkpt lat="50.6298" lon="2.46818">
        <ele>17</ele>
      </trkpt>
      <trkpt lat="50.62973" lon="2.46825">
        <ele>17</ele>
      </trkpt>
      <trkpt lat="50.62967" lon="2.46833">
        <ele>17.2</ele>
      </trkpt>
      <trkpt lat="50.62958" lon="2.46847">
        <ele>17.3</ele>
      </trkpt>
      <trkpt lat="50.6295" lon="2.46861">
        <ele>17</ele>
      </trkpt>
      <trkpt lat="50.62941" lon="2.46874">
        <ele>17.1</ele>
      </trkpt>
      <trkpt lat="50.62935" lon="2.46883">
        <ele>17.1</ele>
      </trkpt>
      <trkpt lat="50.62931" lon="2.46889">
        <ele>17</ele>
      </trkpt>
      <trkpt lat="50.62929" lon="2.46893">
        <ele>17</ele>
      </trkpt>
      <trkpt lat="50.62927" lon="2.46893">
        <ele>17</ele>
      </trkpt>
      <trkpt lat="50.62925" lon="2.46892">
        <ele>17</ele>
      </trkpt>
      <trkpt lat="50.62921" lon="2.46892">
        <ele>17</ele>
      </trkpt>
      <trkpt lat="50.62917" lon="2.46892">
        <ele>17</ele>
      </trkpt>
      <trkpt lat="50.62912" lon="2.46893">
        <ele>17.2</ele>
      </trkpt>
      <trkpt lat="50.6291" lon="2.46897">
        <ele>17.2</ele>
      </trkpt>
      <trkpt lat="50.62908" lon="2.46902">
        <ele>17.3</ele>
      </trkpt>
      <trkpt lat="50.62904" lon="2.46912">
        <ele>17.5</ele>
      </trkpt>
      <trkpt lat="50.629" lon="2.46926">
        <ele>17.6</ele>
      </trkpt>
      <trkpt lat="50.62896" lon="2.46941">
        <ele>17.7</ele>
      </trkpt>
      <trkpt lat="50.62893" lon="2.46954">
        <ele>17.6</ele>
      </trkpt>
      <trkpt lat="50.62891" lon="2.46963">
        <ele>17.3</ele>
      </trkpt>
      <trkpt lat="50.62888" lon="2.46973">
        <ele>17</ele>
      </trkpt>
      <trkpt lat="50.62882" lon="2.46989">
        <ele>17.2</ele>
      </trkpt>
      <trkpt lat="50.62876" lon="2.47004">
        <ele>17.5</ele>
      </trkpt>
      <trkpt lat="50.62867" lon="2.47021">
        <ele>17.8</ele>
      </trkpt>
      <trkpt lat="50.62859" lon="2.47038">
        <ele>17.6</ele>
      </trkpt>
      <trkpt lat="50.62853" lon="2.47049">
        <ele>17.2</ele>
      </trkpt>
      <trkpt lat="50.62849" lon="2.47057">
        <ele>17</ele>
      </trkpt>
      <trkpt lat="50.62847" lon="2.47064">
        <ele>17</ele>
      </trkpt>
      <trkpt lat="50.62844" lon="2.47074">
        <ele>17</ele>
      </trkpt>
      <trkpt lat="50.62839" lon="2.47097">
        <ele>17</ele>
      </trkpt>
      <trkpt lat="50.62836" lon="2.47117">
        <ele>17</ele>
      </trkpt>
      <trkpt lat="50.62833" lon="2.4713">
        <ele>17</ele>
      </trkpt>
      <trkpt lat="50.6283" lon="2.47145">
        <ele>17</ele>
      </trkpt>
      <trkpt lat="50.62828" lon="2.4715">
        <ele>17</ele>
      </trkpt>
      <trkpt lat="50.62824" lon="2.47163">
        <ele>17</ele>
      </trkpt>
      <trkpt lat="50.62823" lon="2.47164">
        <ele>17</ele>
        <extensions>
          <visugpx:TrkExtension xmlns:visugpx="https://www.visugpx.com/editgpx/">
            <visugpx:node>6</visugpx:node>
            </visugpx:TrkExtension>
        </extensions>
      </trkpt>
      <trkpt lat="50.62816" lon="2.47186">
        <ele>17.4</ele>
      </trkpt>
      <trkpt lat="50.62808" lon="2.4721">
        <ele>17.4</ele>
      </trkpt>
      <trkpt lat="50.62799" lon="2.47235">
        <ele>17.6</ele>
      </trkpt>
      <trkpt lat="50.6279" lon="2.47265">
        <ele>17.5</ele>
      </trkpt>
      <trkpt lat="50.62782" lon="2.47288">
        <ele>17</ele>
      </trkpt>
      <trkpt lat="50.62775" lon="2.47309">
        <ele>17.1</ele>
      </trkpt>
      <trkpt lat="50.62766" lon="2.47336">
        <ele>17.5</ele>
      </trkpt>
      <trkpt lat="50.6276" lon="2.47352">
        <ele>17.9</ele>
      </trkpt>
      <trkpt lat="50.62754" lon="2.47368">
        <ele>17.8</ele>
      </trkpt>
      <trkpt lat="50.6275" lon="2.47378">
        <ele>17.4</ele>
      </trkpt>
      <trkpt lat="50.62743" lon="2.47393">
        <ele>17.2</ele>
      </trkpt>
      <trkpt lat="50.62733" lon="2.47409">
        <ele>17.2</ele>
      </trkpt>
      <trkpt lat="50.6272" lon="2.4743">
        <ele>17.1</ele>
      </trkpt>
      <trkpt lat="50.62709" lon="2.47446">
        <ele>17.5</ele>
      </trkpt>
      <trkpt lat="50.627" lon="2.47457">
        <ele>17.5</ele>
      </trkpt>
      <trkpt lat="50.62692" lon="2.47467">
        <ele>17.3</ele>
      </trkpt>
      <trkpt lat="50.62689" lon="2.47473">
        <ele>17.2</ele>
      </trkpt>
      <trkpt lat="50.62681" lon="2.47485">
        <ele>17.5</ele>
      </trkpt>
      <trkpt lat="50.62675" lon="2.47496">
        <ele>17.7</ele>
      </trkpt>
      <trkpt lat="50.62672" lon="2.47504">
        <ele>17.8</ele>
      </trkpt>
      <trkpt lat="50.62669" lon="2.47511">
        <ele>17.9</ele>
      </trkpt>
      <trkpt lat="50.62666" lon="2.47519">
        <ele>18</ele>
      </trkpt>
      <trkpt lat="50.62662" lon="2.47541">
        <ele>17.6</ele>
      </trkpt>
      <trkpt lat="50.62654" lon="2.47579">
        <ele>17.1</ele>
      </trkpt>
      <trkpt lat="50.62647" lon="2.47619">
        <ele>17.4</ele>
      </trkpt>
      <trkpt lat="50.62645" lon="2.47628">
        <ele>17.6</ele>
      </trkpt>
      <trkpt lat="50.6264" lon="2.47654">
        <ele>18</ele>
      </trkpt>
      <trkpt lat="50.62634" lon="2.47688">
        <ele>17.3</ele>
      </trkpt>
      <trkpt lat="50.62628" lon="2.4772">
        <ele>18</ele>
      </trkpt>
      <trkpt lat="50.62622" lon="2.47746">
        <ele>17.7</ele>
      </trkpt>
      <trkpt lat="50.62615" lon="2.4778">
        <ele>17</ele>
      </trkpt>
      <trkpt lat="50.62607" lon="2.47816">
        <ele>17.1</ele>
      </trkpt>
      <trkpt lat="50.62606" lon="2.4782">
        <ele>17.1</ele>
      </trkpt>
      <trkpt lat="50.62604" lon="2.47833">
        <ele>17.3</ele>
      </trkpt>
      <trkpt lat="50.626" lon="2.47847">
        <ele>17.2</ele>
      </trkpt>
      <trkpt lat="50.62598" lon="2.47856">
        <ele>17.1</ele>
      </trkpt>
      <trkpt lat="50.62597" lon="2.47859">
        <ele>17</ele>
      </trkpt>
      <trkpt lat="50.62595" lon="2.47862">
        <ele>17</ele>
      </trkpt>
      <trkpt lat="50.6259" lon="2.4787">
        <ele>17</ele>
      </trkpt>
      <trkpt lat="50.62582" lon="2.4788">
        <ele>17</ele>
      </trkpt>
      <trkpt lat="50.62574" lon="2.4789">
        <ele>17</ele>
      </trkpt>
      <trkpt lat="50.62563" lon="2.47901">
        <ele>17</ele>
      </trkpt>
      <trkpt lat="50.62558" lon="2.47907">
        <ele>17</ele>
      </trkpt>
      <trkpt lat="50.62553" lon="2.47912">
        <ele>17</ele>
      </trkpt>
      <trkpt lat="50.62548" lon="2.4792">
        <ele>17</ele>
      </trkpt>
      <trkpt lat="50.62543" lon="2.4793">
        <ele>17</ele>
      </trkpt>
      <trkpt lat="50.62537" lon="2.47943">
        <ele>17</ele>
      </trkpt>
      <trkpt lat="50.6253" lon="2.47955">
        <ele>17</ele>
      </trkpt>
      <trkpt lat="50.62524" lon="2.47964">
        <ele>17</ele>
      </trkpt>
      <trkpt lat="50.62517" lon="2.47973">
        <ele>17</ele>
      </trkpt>
      <trkpt lat="50.62508" lon="2.47983">
        <ele>17.1</ele>
      </trkpt>
      <trkpt lat="50.62499" lon="2.47995">
        <ele>17</ele>
      </trkpt>
      <trkpt lat="50.62477" lon="2.48021">
        <ele>17</ele>
      </trkpt>
      <trkpt lat="50.62466" lon="2.48037">
        <ele>17.2</ele>
      </trkpt>
      <trkpt lat="50.62448" lon="2.48057">
        <ele>17.8</ele>
      </trkpt>
      <trkpt lat="50.62436" lon="2.48073">
        <ele>17.4</ele>
      </trkpt>
      <trkpt lat="50.62428" lon="2.48087">
        <ele>17.1</ele>
      </trkpt>
      <trkpt lat="50.62425" lon="2.48092">
        <ele>17.3</ele>
      </trkpt>
      <trkpt lat="50.62403" lon="2.48128">
        <ele>18</ele>
      </trkpt>
      <trkpt lat="50.62381" lon="2.48166">
        <ele>17.3</ele>
        <extensions>
          <visugpx:TrkExtension xmlns:visugpx="https://www.visugpx.com/editgpx/">
            <visugpx:node>7</visugpx:node>
            </visugpx:TrkExtension>
        </extensions>
      </trkpt>
      <trkpt lat="50.62376" lon="2.48174">
        <ele>17.3</ele>
      </trkpt>
      <trkpt lat="50.62366" lon="2.4819">
        <ele>17.1</ele>
      </trkpt>
      <trkpt lat="50.62362" lon="2.48199">
        <ele>17</ele>
      </trkpt>
      <trkpt lat="50.62358" lon="2.4821">
        <ele>17</ele>
      </trkpt>
      <trkpt lat="50.62355" lon="2.48221">
        <ele>17</ele>
      </trkpt>
      <trkpt lat="50.62347" lon="2.4825">
        <ele>17.5</ele>
      </trkpt>
      <trkpt lat="50.62342" lon="2.48267">
        <ele>17.7</ele>
      </trkpt>
      <trkpt lat="50.62332" lon="2.48303">
        <ele>17.1</ele>
      </trkpt>
      <trkpt lat="50.62326" lon="2.48326">
        <ele>17.8</ele>
      </trkpt>
      <trkpt lat="50.62321" lon="2.48343">
        <ele>18</ele>
      </trkpt>
      <trkpt lat="50.62312" lon="2.48375">
        <ele>18</ele>
      </trkpt>
      <trkpt lat="50.62303" lon="2.48405">
        <ele>18</ele>
      </trkpt>
      <trkpt lat="50.62302" lon="2.48408">
        <ele>18</ele>
      </trkpt>
      <trkpt lat="50.62293" lon="2.48434">
        <ele>18</ele>
      </trkpt>
      <trkpt lat="50.62285" lon="2.48457">
        <ele>17.5</ele>
      </trkpt>
      <trkpt lat="50.62277" lon="2.48478">
        <ele>17</ele>
      </trkpt>
      <trkpt lat="50.62272" lon="2.48489">
        <ele>17.1</ele>
      </trkpt>
      <trkpt lat="50.62267" lon="2.48501">
        <ele>17</ele>
      </trkpt>
      <trkpt lat="50.62246" lon="2.48546">
        <ele>17.1</ele>
      </trkpt>
      <trkpt lat="50.62244" lon="2.4855">
        <ele>17.2</ele>
      </trkpt>
      <trkpt lat="50.62236" lon="2.48568">
        <ele>17.5</ele>
      </trkpt>
      <trkpt lat="50.62225" lon="2.48595">
        <ele>17.5</ele>
      </trkpt>
      <trkpt lat="50.62218" lon="2.48615">
        <ele>17.2</ele>
      </trkpt>
      <trkpt lat="50.62216" lon="2.48623">
        <ele>17.2</ele>
      </trkpt>
      <trkpt lat="50.62211" lon="2.48643">
        <ele>17.4</ele>
      </trkpt>
      <trkpt lat="50.62195" lon="2.48701">
        <ele>18</ele>
      </trkpt>
      <trkpt lat="50.62176" lon="2.48768">
        <ele>17.4</ele>
      </trkpt>
      <trkpt lat="50.62166" lon="2.48799">
        <ele>18</ele>
      </trkpt>
      <trkpt lat="50.6216" lon="2.48815">
        <ele>18</ele>
      </trkpt>
      <trkpt lat="50.62155" lon="2.48825">
        <ele>18</ele>
      </trkpt>
      <trkpt lat="50.62137" lon="2.48855">
        <ele>18</ele>
      </trkpt>
      <trkpt lat="50.62136" lon="2.48858">
        <ele>18</ele>
      </trkpt>
      <trkpt lat="50.62135" lon="2.48863">
        <ele>17.9</ele>
      </trkpt>
      <trkpt lat="50.62134" lon="2.48869">
        <ele>17.7</ele>
      </trkpt>
      <trkpt lat="50.62136" lon="2.48875">
        <ele>17.5</ele>
      </trkpt>
      <trkpt lat="50.6214" lon="2.4888">
        <ele>17.3</ele>
      </trkpt>
      <trkpt lat="50.6215" lon="2.48883">
        <ele>17.5</ele>
      </trkpt>
      <trkpt lat="50.62163" lon="2.48884">
        <ele>17.9</ele>
      </trkpt>
      <trkpt lat="50.62175" lon="2.48883">
        <ele>18</ele>
      </trkpt>
      <trkpt lat="50.62187" lon="2.48884">
        <ele>18</ele>
      </trkpt>
      <trkpt lat="50.62194" lon="2.48887">
        <ele>18</ele>
      </trkpt>
      <trkpt lat="50.622" lon="2.48891">
        <ele>18</ele>
      </trkpt>
      <trkpt lat="50.62212" lon="2.48904">
        <ele>18</ele>
      </trkpt>
      <trkpt lat="50.62221" lon="2.48915">
        <ele>18</ele>
      </trkpt>
      <trkpt lat="50.62234" lon="2.48929">
        <ele>18</ele>
      </trkpt>
      <trkpt lat="50.62242" lon="2.48935">
        <ele>18</ele>
      </trkpt>
      <trkpt lat="50.62253" lon="2.4894">
        <ele>18</ele>
      </trkpt>
      <trkpt lat="50.62264" lon="2.48947">
        <ele>18</ele>
      </trkpt>
      <trkpt lat="50.62276" lon="2.48953">
        <ele>18</ele>
      </trkpt>
      <trkpt lat="50.62284" lon="2.48959">
        <ele>18</ele>
      </trkpt>
      <trkpt lat="50.62292" lon="2.48965">
        <ele>18</ele>
      </trkpt>
      <trkpt lat="50.62296" lon="2.48969">
        <ele>18</ele>
      </trkpt>
      <trkpt lat="50.6231" lon="2.48982">
        <ele>17.8</ele>
      </trkpt>
      <trkpt lat="50.62313" lon="2.48985">
        <ele>17.7</ele>
      </trkpt>
      <trkpt lat="50.62332" lon="2.49002">
        <ele>17</ele>
      </trkpt>
      <trkpt lat="50.62345" lon="2.49014">
        <ele>17</ele>
      </trkpt>
      <trkpt lat="50.62359" lon="2.49025">
        <ele>17</ele>
      </trkpt>
      <trkpt lat="50.62369" lon="2.49033">
        <ele>17</ele>
      </trkpt>
      <trkpt lat="50.62394" lon="2.49049">
        <ele>17</ele>
      </trkpt>
      <trkpt lat="50.62401" lon="2.49053">
        <ele>17</ele>
      </trkpt>
      <trkpt lat="50.62424" lon="2.49068">
        <ele>17</ele>
      </trkpt>
      <trkpt lat="50.62434" lon="2.49074">
        <ele>17</ele>
      </trkpt>
      <trkpt lat="50.62435" lon="2.49075">
        <ele>17</ele>
      </trkpt>
      <trkpt lat="50.62442" lon="2.49079">
        <ele>17</ele>
      </trkpt>
      <trkpt lat="50.6245" lon="2.49085">
        <ele>17</ele>
      </trkpt>
      <trkpt lat="50.62455" lon="2.49091">
        <ele>17</ele>
      </trkpt>
      <trkpt lat="50.62458" lon="2.49097">
        <ele>17</ele>
      </trkpt>
      <trkpt lat="50.6246" lon="2.49103">
        <ele>17</ele>
      </trkpt>
      <trkpt lat="50.6246" lon="2.49107">
        <ele>17</ele>
      </trkpt>
      <trkpt lat="50.62459" lon="2.49112">
        <ele>17</ele>
      </trkpt>
      <trkpt lat="50.62455" lon="2.49128">
        <ele>17</ele>
      </trkpt>
      <trkpt lat="50.62451" lon="2.49144">
        <ele>17</ele>
      </trkpt>
      <trkpt lat="50.62448" lon="2.49168">
        <ele>17</ele>
      </trkpt>
      <trkpt lat="50.62443" lon="2.49202">
        <ele>17</ele>
      </trkpt>
      <trkpt lat="50.62439" lon="2.49229">
        <ele>17</ele>
      </trkpt>
      <trkpt lat="50.62436" lon="2.49254">
        <ele>17</ele>
      </trkpt>
      <trkpt lat="50.62435" lon="2.49269">
        <ele>17</ele>
      </trkpt>
      <trkpt lat="50.62435" lon="2.49283">
        <ele>17</ele>
      </trkpt>
      <trkpt lat="50.62436" lon="2.49296">
        <ele>17</ele>
      </trkpt>
      <trkpt lat="50.62438" lon="2.49315">
        <ele>17</ele>
      </trkpt>
      <trkpt lat="50.62439" lon="2.49325">
        <ele>17</ele>
      </trkpt>
      <trkpt lat="50.62439" lon="2.49337">
        <ele>17</ele>
      </trkpt>
      <trkpt lat="50.6244" lon="2.49363">
        <ele>17</ele>
      </trkpt>
      <trkpt lat="50.6244" lon="2.49393">
        <ele>16.8</ele>
      </trkpt>
      <trkpt lat="50.6244" lon="2.49401">
        <ele>16.8</ele>
      </trkpt>
      <trkpt lat="50.62441" lon="2.49424">
        <ele>16.9</ele>
      </trkpt>
      <trkpt lat="50.62443" lon="2.49437">
        <ele>16.9</ele>
      </trkpt>
      <trkpt lat="50.62445" lon="2.49447">
        <ele>17</ele>
      </trkpt>
      <trkpt lat="50.62448" lon="2.49454">
        <ele>17</ele>
      </trkpt>
      <trkpt lat="50.62451" lon="2.4946">
        <ele>17</ele>
      </trkpt>
      <trkpt lat="50.62456" lon="2.49467">
        <ele>17</ele>
      </trkpt>
      <trkpt lat="50.62468" lon="2.49477">
        <ele>17</ele>
      </trkpt>
      <trkpt lat="50.62481" lon="2.49484">
        <ele>17.2</ele>
      </trkpt>
      <trkpt lat="50.62493" lon="2.49493">
        <ele>17.2</ele>
      </trkpt>
      <trkpt lat="50.62506" lon="2.49504">
        <ele>16.9</ele>
      </trkpt>
      <trkpt lat="50.62515" lon="2.49514">
        <ele>16.8</ele>
      </trkpt>
      <trkpt lat="50.62525" lon="2.49527">
        <ele>16.9</ele>
      </trkpt>
      <trkpt lat="50.62535" lon="2.49545">
        <ele>17</ele>
      </trkpt>
      <trkpt lat="50.6254" lon="2.49556">
        <ele>17</ele>
      </trkpt>
      <trkpt lat="50.62543" lon="2.4956">
        <ele>16.9</ele>
      </trkpt>
      <trkpt lat="50.62546" lon="2.4957">
        <ele>16.8</ele>
      </trkpt>
      <trkpt lat="50.62549" lon="2.49583">
        <ele>16.8</ele>
      </trkpt>
      <trkpt lat="50.62551" lon="2.49591">
        <ele>16.8</ele>
      </trkpt>
      <trkpt lat="50.62551" lon="2.49604">
        <ele>16.8</ele>
      </trkpt>
      <trkpt lat="50.62551" lon="2.4962">
        <ele>16.8</ele>
      </trkpt>
      <trkpt lat="50.62551" lon="2.49629">
        <ele>16.8</ele>
      </trkpt>
      <trkpt lat="50.6255" lon="2.49661">
        <ele>16.8</ele>
      </trkpt>
      <trkpt lat="50.62546" lon="2.49695">
        <ele>16.7</ele>
      </trkpt>
      <trkpt lat="50.62546" lon="2.497">
        <ele>16.7</ele>
      </trkpt>
      <trkpt lat="50.62544" lon="2.49721">
        <ele>16.6</ele>
      </trkpt>
      <trkpt lat="50.62542" lon="2.49745">
        <ele>16.9</ele>
      </trkpt>
      <trkpt lat="50.62539" lon="2.4978">
        <ele>17</ele>
      </trkpt>
      <trkpt lat="50.62537" lon="2.4981">
        <ele>17</ele>
      </trkpt>
      <trkpt lat="50.62537" lon="2.49842">
        <ele>17</ele>
      </trkpt>
      <trkpt lat="50.62539" lon="2.49871">
        <ele>17.1</ele>
      </trkpt>
      <trkpt lat="50.62541" lon="2.49899">
        <ele>17.3</ele>
      </trkpt>
      <trkpt lat="50.62544" lon="2.49926">
        <ele>17.1</ele>
      </trkpt>
      <trkpt lat="50.62549" lon="2.49952">
        <ele>17.2</ele>
      </trkpt>
      <trkpt lat="50.62553" lon="2.49973">
        <ele>17</ele>
      </trkpt>
      <trkpt lat="50.62561" lon="2.50014">
        <ele>17.1</ele>
      </trkpt>
      <trkpt lat="50.62569" lon="2.50055">
        <ele>17</ele>
      </trkpt>
      <trkpt lat="50.62572" lon="2.50069">
        <ele>17.2</ele>
      </trkpt>
      <trkpt lat="50.62577" lon="2.50094">
        <ele>17.5</ele>
      </trkpt>
      <trkpt lat="50.62577" lon="2.50097">
        <ele>17.6</ele>
        <extensions>
          <visugpx:TrkExtension xmlns:visugpx="https://www.visugpx.com/editgpx/">
            <visugpx:node>8</visugpx:node>
            </visugpx:TrkExtension>
        </extensions>
      </trkpt>
      <trkpt lat="50.62587" lon="2.5015">
        <ele>17</ele>
      </trkpt>
      <trkpt lat="50.62595" lon="2.50186">
        <ele>17</ele>
      </trkpt>
      <trkpt lat="50.62602" lon="2.5022">
        <ele>17.9</ele>
      </trkpt>
      <trkpt lat="50.62603" lon="2.50225">
        <ele>17.9</ele>
      </trkpt>
      <trkpt lat="50.62604" lon="2.50231">
        <ele>17.7</ele>
      </trkpt>
      <trkpt lat="50.62605" lon="2.50244">
        <ele>17.2</ele>
      </trkpt>
      <trkpt lat="50.62605" lon="2.50262">
        <ele>17.1</ele>
      </trkpt>
      <trkpt lat="50.62605" lon="2.50284">
        <ele>17.3</ele>
      </trkpt>
      <trkpt lat="50.62604" lon="2.50298">
        <ele>17.6</ele>
      </trkpt>
      <trkpt lat="50.62604" lon="2.50305">
        <ele>17.7</ele>
      </trkpt>
      <trkpt lat="50.62604" lon="2.50307">
        <ele>17.7</ele>
      </trkpt>
      <trkpt lat="50.62604" lon="2.50311">
        <ele>17.6</ele>
      </trkpt>
      <trkpt lat="50.62606" lon="2.50326">
        <ele>17.2</ele>
      </trkpt>
      <trkpt lat="50.62611" lon="2.50357">
        <ele>17</ele>
      </trkpt>
      <trkpt lat="50.62615" lon="2.50383">
        <ele>17</ele>
      </trkpt>
      <trkpt lat="50.6262" lon="2.50409">
        <ele>17</ele>
      </trkpt>
      <trkpt lat="50.62622" lon="2.50424">
        <ele>17</ele>
      </trkpt>
      <trkpt lat="50.62625" lon="2.50437">
        <ele>17</ele>
      </trkpt>
      <trkpt lat="50.62621" lon="2.50457">
        <ele>17</ele>
      </trkpt>
      <trkpt lat="50.62615" lon="2.50488">
        <ele>17</ele>
      </trkpt>
      <trkpt lat="50.62609" lon="2.50513">
        <ele>17</ele>
      </trkpt>
      <trkpt lat="50.62608" lon="2.50519">
        <ele>17</ele>
      </trkpt>
      <trkpt lat="50.62602" lon="2.50544">
        <ele>17</ele>
      </trkpt>
      <trkpt lat="50.62595" lon="2.50581">
        <ele>17</ele>
      </trkpt>
      <trkpt lat="50.62589" lon="2.50622">
        <ele>17</ele>
      </trkpt>
      <trkpt lat="50.62584" lon="2.50657">
        <ele>17</ele>
      </trkpt>
      <trkpt lat="50.6258" lon="2.50687">
        <ele>17</ele>
      </trkpt>
      <trkpt lat="50.62576" lon="2.50727">
        <ele>17</ele>
      </trkpt>
      <trkpt lat="50.62573" lon="2.50773">
        <ele>17</ele>
      </trkpt>
      <trkpt lat="50.62571" lon="2.5081">
        <ele>17</ele>
      </trkpt>
      <trkpt lat="50.62571" lon="2.50813">
        <ele>17</ele>
      </trkpt>
      <trkpt lat="50.62571" lon="2.50832">
        <ele>17</ele>
      </trkpt>
      <trkpt lat="50.62571" lon="2.50849">
        <ele>17</ele>
      </trkpt>
      <trkpt lat="50.62572" lon="2.50864">
        <ele>17</ele>
      </trkpt>
      <trkpt lat="50.62572" lon="2.50865">
        <ele>17.1</ele>
      </trkpt>
      <trkpt lat="50.62574" lon="2.50876">
        <ele>17.2</ele>
      </trkpt>
      <trkpt lat="50.62582" lon="2.50913">
        <ele>17.9</ele>
      </trkpt>
      <trkpt lat="50.62582" lon="2.50914">
        <ele>17.9</ele>
      </trkpt>
      <trkpt lat="50.6259" lon="2.50947">
        <ele>17</ele>
      </trkpt>
      <trkpt lat="50.626" lon="2.50992">
        <ele>17.3</ele>
      </trkpt>
      <trkpt lat="50.62606" lon="2.51018">
        <ele>17.2</ele>
      </trkpt>
      <trkpt lat="50.62609" lon="2.51037">
        <ele>17.1</ele>
      </trkpt>
      <trkpt lat="50.6261" lon="2.51046">
        <ele>17</ele>
      </trkpt>
      <trkpt lat="50.62613" lon="2.51068">
        <ele>17</ele>
      </trkpt>
      <trkpt lat="50.62616" lon="2.51104">
        <ele>17.1</ele>
      </trkpt>
      <trkpt lat="50.62617" lon="2.5113">
        <ele>17.1</ele>
      </trkpt>
      <trkpt lat="50.62617" lon="2.51136">
        <ele>17</ele>
      </trkpt>
      <trkpt lat="50.62617" lon="2.51149">
        <ele>17</ele>
      </trkpt>
      <trkpt lat="50.62617" lon="2.51169">
        <ele>17</ele>
      </trkpt>
      <trkpt lat="50.62615" lon="2.5119">
        <ele>17</ele>
      </trkpt>
      <trkpt lat="50.62615" lon="2.51194">
        <ele>17</ele>
      </trkpt>
      <trkpt lat="50.62613" lon="2.5121">
        <ele>17</ele>
      </trkpt>
      <trkpt lat="50.62609" lon="2.51235">
        <ele>17</ele>
      </trkpt>
      <trkpt lat="50.62603" lon="2.51265">
        <ele>17.1</ele>
      </trkpt>
      <trkpt lat="50.62598" lon="2.51294">
        <ele>17</ele>
      </trkpt>
      <trkpt lat="50.62595" lon="2.51306">
        <ele>17</ele>
      </trkpt>
      <trkpt lat="50.62587" lon="2.51349">
        <ele>17</ele>
      </trkpt>
      <trkpt lat="50.62578" lon="2.514">
        <ele>17</ele>
      </trkpt>
      <trkpt lat="50.62565" lon="2.5147">
        <ele>17</ele>
      </trkpt>
      <trkpt lat="50.62554" lon="2.51535">
        <ele>17</ele>
      </trkpt>
      <trkpt lat="50.62545" lon="2.51586">
        <ele>17</ele>
      </trkpt>
      <trkpt lat="50.62541" lon="2.5161">
        <ele>17</ele>
        <extensions>
          <visugpx:TrkExtension xmlns:visugpx="https://www.visugpx.com/editgpx/">
            <visugpx:node>9</visugpx:node>
            </visugpx:TrkExtension>
        </extensions>
      </trkpt>
      <trkpt lat="50.6254" lon="2.51621">
        <ele>17</ele>
      </trkpt>
      <trkpt lat="50.62535" lon="2.51651">
        <ele>17</ele>
      </trkpt>
      <trkpt lat="50.62533" lon="2.51675">
        <ele>17</ele>
      </trkpt>
      <trkpt lat="50.6253" lon="2.51702">
        <ele>17</ele>
      </trkpt>
      <trkpt lat="50.62529" lon="2.51717">
        <ele>17</ele>
      </trkpt>
      <trkpt lat="50.62528" lon="2.51727">
        <ele>17</ele>
      </trkpt>
      <trkpt lat="50.62528" lon="2.51739">
        <ele>17</ele>
      </trkpt>
      <trkpt lat="50.62527" lon="2.51746">
        <ele>17</ele>
      </trkpt>
      <trkpt lat="50.62527" lon="2.51748">
        <ele>17</ele>
      </trkpt>
      <trkpt lat="50.62527" lon="2.51758">
        <ele>17</ele>
      </trkpt>
      <trkpt lat="50.62527" lon="2.51766">
        <ele>17</ele>
      </trkpt>
      <trkpt lat="50.62527" lon="2.51778">
        <ele>17</ele>
      </trkpt>
      <trkpt lat="50.62527" lon="2.51787">
        <ele>17</ele>
      </trkpt>
      <trkpt lat="50.62528" lon="2.51796">
        <ele>17</ele>
      </trkpt>
      <trkpt lat="50.62529" lon="2.51807">
        <ele>17</ele>
      </trkpt>
      <trkpt lat="50.6253" lon="2.51818">
        <ele>17</ele>
      </trkpt>
      <trkpt lat="50.62531" lon="2.51831">
        <ele>17</ele>
      </trkpt>
      <trkpt lat="50.62533" lon="2.51846">
        <ele>17</ele>
      </trkpt>
      <trkpt lat="50.62534" lon="2.51859">
        <ele>17</ele>
      </trkpt>
      <trkpt lat="50.62535" lon="2.51876">
        <ele>17</ele>
      </trkpt>
      <trkpt lat="50.62537" lon="2.51892">
        <ele>17</ele>
      </trkpt>
      <trkpt lat="50.62538" lon="2.51906">
        <ele>17</ele>
      </trkpt>
      <trkpt lat="50.62539" lon="2.51922">
        <ele>17</ele>
      </trkpt>
      <trkpt lat="50.6254" lon="2.51927">
        <ele>17</ele>
      </trkpt>
      <trkpt lat="50.62541" lon="2.5194">
        <ele>17</ele>
      </trkpt>
      <trkpt lat="50.62544" lon="2.51958">
        <ele>16.8</ele>
      </trkpt>
      <trkpt lat="50.62545" lon="2.51973">
        <ele>16.6</ele>
      </trkpt>
      <trkpt lat="50.62549" lon="2.52005">
        <ele>17</ele>
      </trkpt>
      <trkpt lat="50.62551" lon="2.52024">
        <ele>17</ele>
      </trkpt>
      <trkpt lat="50.62554" lon="2.52041">
        <ele>17</ele>
      </trkpt>
      <trkpt lat="50.62558" lon="2.52072">
        <ele>17</ele>
      </trkpt>
      <trkpt lat="50.62564" lon="2.52116">
        <ele>17</ele>
      </trkpt>
      <trkpt lat="50.62566" lon="2.52132">
        <ele>17</ele>
      </trkpt>
      <trkpt lat="50.62566" lon="2.52141">
        <ele>17</ele>
      </trkpt>
      <trkpt lat="50.62567" lon="2.52149">
        <ele>16.8</ele>
      </trkpt>
      <trkpt lat="50.62568" lon="2.52157">
        <ele>16.6</ele>
      </trkpt>
      <trkpt lat="50.62569" lon="2.52163">
        <ele>16.6</ele>
      </trkpt>
      <trkpt lat="50.62569" lon="2.52172">
        <ele>16.5</ele>
      </trkpt>
      <trkpt lat="50.62569" lon="2.52179">
        <ele>16.5</ele>
      </trkpt>
      <trkpt lat="50.62569" lon="2.52188">
        <ele>16.5</ele>
      </trkpt>
      <trkpt lat="50.62569" lon="2.52197">
        <ele>16.5</ele>
      </trkpt>
      <trkpt lat="50.62569" lon="2.52201">
        <ele>16.5</ele>
      </trkpt>
      <trkpt lat="50.6257" lon="2.52207">
        <ele>16.5</ele>
      </trkpt>
      <trkpt lat="50.62569" lon="2.52226">
        <ele>16.5</ele>
      </trkpt>
      <trkpt lat="50.62569" lon="2.52245">
        <ele>16.5</ele>
      </trkpt>
      <trkpt lat="50.62569" lon="2.52247">
        <ele>16.5</ele>
      </trkpt>
      <trkpt lat="50.62569" lon="2.52253">
        <ele>16.5</ele>
      </trkpt>
      <trkpt lat="50.62569" lon="2.52261">
        <ele>16.7</ele>
      </trkpt>
      <trkpt lat="50.62569" lon="2.52272">
        <ele>16.9</ele>
      </trkpt>
      <trkpt lat="50.6257" lon="2.52329">
        <ele>17</ele>
      </trkpt>
      <trkpt lat="50.6257" lon="2.52382">
        <ele>17</ele>
      </trkpt>
      <trkpt lat="50.6257" lon="2.52435">
        <ele>17</ele>
      </trkpt>
      <trkpt lat="50.6257" lon="2.52493">
        <ele>16.5</ele>
      </trkpt>
      <trkpt lat="50.6257" lon="2.52531">
        <ele>16.5</ele>
      </trkpt>
      <trkpt lat="50.6257" lon="2.52537">
        <ele>16.5</ele>
      </trkpt>
      <trkpt lat="50.6257" lon="2.52594">
        <ele>16.5</ele>
      </trkpt>
      <trkpt lat="50.62571" lon="2.52627">
        <ele>16.8</ele>
      </trkpt>
      <trkpt lat="50.62572" lon="2.52652">
        <ele>17</ele>
      </trkpt>
      <trkpt lat="50.62576" lon="2.52682">
        <ele>17</ele>
      </trkpt>
      <trkpt lat="50.62581" lon="2.52708">
        <ele>17</ele>
      </trkpt>
      <trkpt lat="50.62582" lon="2.5271">
        <ele>17</ele>
      </trkpt>
      <trkpt lat="50.62588" lon="2.52744">
        <ele>17</ele>
      </trkpt>
      <trkpt lat="50.62595" lon="2.52781">
        <ele>17</ele>
      </trkpt>
      <trkpt lat="50.62599" lon="2.52817">
        <ele>16.7</ele>
      </trkpt>
      <trkpt lat="50.62603" lon="2.52844">
        <ele>17</ele>
      </trkpt>
      <trkpt lat="50.62604" lon="2.52849">
        <ele>17</ele>
      </trkpt>
      <trkpt lat="50.62605" lon="2.52857">
        <ele>17</ele>
      </trkpt>
      <trkpt lat="50.62613" lon="2.52896">
        <ele>17</ele>
      </trkpt>
      <trkpt lat="50.62622" lon="2.52947">
        <ele>16.6</ele>
      </trkpt>
      <trkpt lat="50.62631" lon="2.52986">
        <ele>16.9</ele>
      </trkpt>
      <trkpt lat="50.62642" lon="2.5303">
        <ele>16.9</ele>
      </trkpt>
      <trkpt lat="50.62646" lon="2.53053">
        <ele>16.3</ele>
      </trkpt>
      <trkpt lat="50.62649" lon="2.53076">
        <ele>16.4</ele>
      </trkpt>
      <trkpt lat="50.62651" lon="2.53103">
        <ele>16.4</ele>
      </trkpt>
      <trkpt lat="50.62654" lon="2.53135">
        <ele>16.5</ele>
      </trkpt>
      <trkpt lat="50.62661" lon="2.53172">
        <ele>16</ele>
      </trkpt>
      <trkpt lat="50.62669" lon="2.53225">
        <ele>16</ele>
      </trkpt>
      <trkpt lat="50.62678" lon="2.53276">
        <ele>16</ele>
      </trkpt>
      <trkpt lat="50.62686" lon="2.5332">
        <ele>16</ele>
      </trkpt>
      <trkpt lat="50.62687" lon="2.53329">
        <ele>16</ele>
      </trkpt>
      <trkpt lat="50.62688" lon="2.53336">
        <ele>16</ele>
      </trkpt>
      <trkpt lat="50.62688" lon="2.53343">
        <ele>16</ele>
      </trkpt>
      <trkpt lat="50.62687" lon="2.53359">
        <ele>16</ele>
      </trkpt>
      <trkpt lat="50.62685" lon="2.53389">
        <ele>16</ele>
      </trkpt>
      <trkpt lat="50.62684" lon="2.53402">
        <ele>16</ele>
      </trkpt>
      <trkpt lat="50.62682" lon="2.53416">
        <ele>16</ele>
      </trkpt>
      <trkpt lat="50.6268" lon="2.53445">
        <ele>16</ele>
      </trkpt>
      <trkpt lat="50.62673" lon="2.5352">
        <ele>16</ele>
      </trkpt>
      <trkpt lat="50.62672" lon="2.53524">
        <ele>16</ele>
      </trkpt>
      <trkpt lat="50.6267" lon="2.53552">
        <ele>16</ele>
      </trkpt>
      <trkpt lat="50.62667" lon="2.53599">
        <ele>16</ele>
      </trkpt>
      <trkpt lat="50.6266" lon="2.53683">
        <ele>16.2</ele>
      </trkpt>
      <trkpt lat="50.62655" lon="2.53724">
        <ele>16.4</ele>
      </trkpt>
      <trkpt lat="50.62655" lon="2.53729">
        <ele>16.3</ele>
      </trkpt>
      <trkpt lat="50.62655" lon="2.53736">
        <ele>16.2</ele>
      </trkpt>
      <trkpt lat="50.62656" lon="2.53742">
        <ele>16.1</ele>
      </trkpt>
      <trkpt lat="50.62658" lon="2.53747">
        <ele>16</ele>
      </trkpt>
      <trkpt lat="50.62661" lon="2.53754">
        <ele>16</ele>
      </trkpt>
      <trkpt lat="50.62664" lon="2.53759">
        <ele>16</ele>
      </trkpt>
      <trkpt lat="50.62671" lon="2.53765">
        <ele>16</ele>
      </trkpt>
      <trkpt lat="50.62675" lon="2.5377">
        <ele>16</ele>
      </trkpt>
      <trkpt lat="50.62679" lon="2.53776">
        <ele>16</ele>
      </trkpt>
      <trkpt lat="50.62682" lon="2.53783">
        <ele>16</ele>
      </trkpt>
      <trkpt lat="50.62684" lon="2.53791">
        <ele>16</ele>
      </trkpt>
      <trkpt lat="50.62685" lon="2.53799">
        <ele>16</ele>
      </trkpt>
      <trkpt lat="50.62686" lon="2.53811">
        <ele>16</ele>
      </trkpt>
      <trkpt lat="50.62685" lon="2.53866">
        <ele>16</ele>
      </trkpt>
      <trkpt lat="50.62683" lon="2.53939">
        <ele>16</ele>
      </trkpt>
      <trkpt lat="50.62682" lon="2.53984">
        <ele>16</ele>
      </trkpt>
      <trkpt lat="50.62682" lon="2.53988">
        <ele>16</ele>
      </trkpt>
      <trkpt lat="50.62682" lon="2.53993">
        <ele>16</ele>
      </trkpt>
      <trkpt lat="50.62681" lon="2.53998">
        <ele>16</ele>
      </trkpt>
      <trkpt lat="50.62679" lon="2.54003">
        <ele>16</ele>
      </trkpt>
      <trkpt lat="50.62677" lon="2.54007">
        <ele>16</ele>
      </trkpt>
      <trkpt lat="50.62675" lon="2.54011">
        <ele>16</ele>
      </trkpt>
      <trkpt lat="50.62671" lon="2.54016">
        <ele>16</ele>
      </trkpt>
      <trkpt lat="50.62665" lon="2.54023">
        <ele>16</ele>
      </trkpt>
      <trkpt lat="50.62659" lon="2.54031">
        <ele>16</ele>
      </trkpt>
      <trkpt lat="50.62648" lon="2.54044">
        <ele>16</ele>
      </trkpt>
      <trkpt lat="50.62646" lon="2.54049">
        <ele>16</ele>
      </trkpt>
      <trkpt lat="50.62631" lon="2.54082">
        <ele>16</ele>
      </trkpt>
      <trkpt lat="50.62623" lon="2.54096">
        <ele>16</ele>
        <extensions>
          <visugpx:TrkExtension xmlns:visugpx="https://www.visugpx.com/editgpx/">
            <visugpx:node>10</visugpx:node>
            </visugpx:TrkExtension>
        </extensions>
      </trkpt>
      <trkpt lat="50.626" lon="2.54139">
        <ele>16</ele>
      </trkpt>
      <trkpt lat="50.62594" lon="2.54146">
        <ele>16</ele>
      </trkpt>
      <trkpt lat="50.6259" lon="2.54152">
        <ele>16</ele>
      </trkpt>
      <trkpt lat="50.62581" lon="2.54164">
        <ele>16</ele>
      </trkpt>
      <trkpt lat="50.62565" lon="2.54183">
        <ele>16</ele>
      </trkpt>
      <trkpt lat="50.6254" lon="2.54206">
        <ele>16</ele>
      </trkpt>
      <trkpt lat="50.62469" lon="2.54264">
        <ele>16</ele>
      </trkpt>
      <trkpt lat="50.62465" lon="2.54267">
        <ele>16</ele>
      </trkpt>
      <trkpt lat="50.62461" lon="2.54271">
        <ele>16</ele>
      </trkpt>
      <trkpt lat="50.62456" lon="2.54275">
        <ele>16</ele>
      </trkpt>
      <trkpt lat="50.62453" lon="2.54277">
        <ele>16</ele>
      </trkpt>
      <trkpt lat="50.62431" lon="2.54294">
        <ele>16</ele>
      </trkpt>
      <trkpt lat="50.62372" lon="2.54344">
        <ele>16</ele>
      </trkpt>
      <trkpt lat="50.62356" lon="2.54355">
        <ele>16</ele>
      </trkpt>
      <trkpt lat="50.62345" lon="2.54359">
        <ele>16</ele>
      </trkpt>
      <trkpt lat="50.62342" lon="2.54359">
        <ele>16</ele>
      </trkpt>
      <trkpt lat="50.62334" lon="2.54371">
        <ele>16</ele>
      </trkpt>
      <trkpt lat="50.62325" lon="2.54382">
        <ele>16.2</ele>
      </trkpt>
      <trkpt lat="50.62318" lon="2.54395">
        <ele>16.4</ele>
      </trkpt>
      <trkpt lat="50.6228" lon="2.54475">
        <ele>16</ele>
      </trkpt>
      <trkpt lat="50.62274" lon="2.54485">
        <ele>16.1</ele>
      </trkpt>
      <trkpt lat="50.62276" lon="2.54492">
        <ele>16</ele>
      </trkpt>
      <trkpt lat="50.62279" lon="2.54511">
        <ele>16</ele>
      </trkpt>
      <trkpt lat="50.62279" lon="2.54513">
        <ele>16</ele>
        <extensions>
          <visugpx:TrkExtension xmlns:visugpx="https://www.visugpx.com/editgpx/">
            <visugpx:node>11</visugpx:node>
            </visugpx:TrkExtension>
        </extensions>
      </trkpt>
      <trkpt lat="50.6228" lon="2.54521">
        <ele>16</ele>
      </trkpt>
      <trkpt lat="50.62282" lon="2.54537">
        <ele>16.3</ele>
      </trkpt>
      <trkpt lat="50.62289" lon="2.54603">
        <ele>17</ele>
      </trkpt>
      <trkpt lat="50.62358" lon="2.54581">
        <ele>16.9</ele>
      </trkpt>
      <trkpt lat="50.62365" lon="2.54581">
        <ele>16.8</ele>
      </trkpt>
      <trkpt lat="50.62372" lon="2.54586">
        <ele>16.6</ele>
      </trkpt>
      <trkpt lat="50.62392" lon="2.54612">
        <ele>16</ele>
      </trkpt>
      <trkpt lat="50.62403" lon="2.54627">
        <ele>16</ele>
        <extensions>
          <visugpx:TrkExtension xmlns:visugpx="https://www.visugpx.com/editgpx/">
            <visugpx:node>12</visugpx:node>
            </visugpx:TrkExtension>
        </extensions>
      </trkpt>
      <trkpt lat="50.6242" lon="2.54649">
        <ele>16</ele>
      </trkpt>
      <trkpt lat="50.62415" lon="2.54668">
        <ele>16</ele>
      </trkpt>
      <trkpt lat="50.62415" lon="2.54669">
        <ele>16</ele>
      </trkpt>
      <trkpt lat="50.62411" lon="2.54681">
        <ele>16.1</ele>
      </trkpt>
      <trkpt lat="50.62401" lon="2.54704">
        <ele>16.6</ele>
        <extensions>
          <visugpx:TrkExtension xmlns:visugpx="https://www.visugpx.com/editgpx/">
            <visugpx:node>13</visugpx:node>
            </visugpx:TrkExtension>
        </extensions>
      </trkpt>
      <trkpt lat="50.62387" lon="2.54733">
        <ele>17</ele>
      </trkpt>
      <trkpt lat="50.62381" lon="2.54754">
        <ele>17</ele>
      </trkpt>
      <trkpt lat="50.62374" lon="2.54788">
        <ele>17</ele>
      </trkpt>
      <trkpt lat="50.6237" lon="2.54818">
        <ele>17</ele>
      </trkpt>
      <trkpt lat="50.62369" lon="2.54855">
        <ele>17</ele>
      </trkpt>
      <trkpt lat="50.62373" lon="2.54907">
        <ele>17</ele>
      </trkpt>
      <trkpt lat="50.62374" lon="2.54934">
        <ele>17</ele>
      </trkpt>
      <trkpt lat="50.6238" lon="2.54937">
        <ele>17</ele>
        <extensions>
          <visugpx:TrkExtension xmlns:visugpx="https://www.visugpx.com/editgpx/">
            <visugpx:node>14</visugpx:node>
            </visugpx:TrkExtension>
        </extensions>
      </trkpt>
      <trkpt lat="50.62389" lon="2.54941">
        <ele>17</ele>
      </trkpt>
      <trkpt lat="50.62394" lon="2.54943">
        <ele>17</ele>
      </trkpt>
      <trkpt lat="50.62394" lon="2.54945">
        <ele>17</ele>
      </trkpt>
      <trkpt lat="50.62399" lon="2.54967">
        <ele>17</ele>
      </trkpt>
      <trkpt lat="50.624" lon="2.54989">
        <ele>17</ele>
      </trkpt>
      <trkpt lat="50.62401" lon="2.55084">
        <ele>17</ele>
      </trkpt>
      <trkpt lat="50.6238" lon="2.55085">
        <ele>17</ele>
      </trkpt>
      <trkpt lat="50.62378" lon="2.55109">
        <ele>16.4</ele>
      </trkpt>
      <trkpt lat="50.62379" lon="2.55141">
        <ele>16.4</ele>
      </trkpt>
      <trkpt lat="50.62379" lon="2.55154">
        <ele>16.7</ele>
        <extensions>
          <visugpx:TrkExtension xmlns:visugpx="https://www.visugpx.com/editgpx/">
            <visugpx:node>15</visugpx:node>
            </visugpx:TrkExtension>
        </extensions>
      </trkpt>
      <trkpt lat="50.62379" lon="2.55156">
        <ele>16.8</ele>
      </trkpt>
      <trkpt lat="50.62378" lon="2.55167">
        <ele>17</ele>
      </trkpt>
      <trkpt lat="50.62375" lon="2.55175">
        <ele>17</ele>
      </trkpt>
      <trkpt lat="50.62373" lon="2.55179">
        <ele>17</ele>
      </trkpt>
      <trkpt lat="50.62371" lon="2.55184">
        <ele>17</ele>
      </trkpt>
      <trkpt lat="50.6237" lon="2.55187">
        <ele>17</ele>
      </trkpt>
      <trkpt lat="50.62371" lon="2.55189">
        <ele>17</ele>
      </trkpt>
      <trkpt lat="50.62371" lon="2.55195">
        <ele>17</ele>
      </trkpt>
      <trkpt lat="50.62372" lon="2.55196">
        <ele>16.9</ele>
        <extensions>
          <visugpx:TrkExtension xmlns:visugpx="https://www.visugpx.com/editgpx/">
            <visugpx:node>16</visugpx:node>
            </visugpx:TrkExtension>
        </extensions>
      </trkpt>
      <trkpt lat="50.62373" lon="2.55199">
        <ele>16.8</ele>
      </trkpt>
      <trkpt lat="50.62375" lon="2.55203">
        <ele>16.7</ele>
      </trkpt>
      <trkpt lat="50.62378" lon="2.55206">
        <ele>16.6</ele>
      </trkpt>
      <trkpt lat="50.62382" lon="2.55207">
        <ele>16.5</ele>
      </trkpt>
      <trkpt lat="50.62382" lon="2.55207">
        <ele>16.5</ele>
      </trkpt>
      <trkpt lat="50.62382" lon="2.55229">
        <ele>16</ele>
      </trkpt>
      <trkpt lat="50.62383" lon="2.55265">
        <ele>16</ele>
        <extensions>
          <visugpx:TrkExtension xmlns:visugpx="https://www.visugpx.com/editgpx/">
            <visugpx:node>17</visugpx:node>
            </visugpx:TrkExtension>
        </extensions>
      </trkpt>
      <trkpt lat="50.62383" lon="2.55285">
        <ele>16</ele>
      </trkpt>
      <trkpt lat="50.62384" lon="2.55306">
        <ele>16</ele>
      </trkpt>
      <trkpt lat="50.62384" lon="2.55307">
        <ele>16</ele>
      </trkpt>
      <trkpt lat="50.62384" lon="2.55319">
        <ele>16</ele>
      </trkpt>
      <trkpt lat="50.62384" lon="2.5532">
        <ele>16</ele>
      </trkpt>
      <trkpt lat="50.62384" lon="2.55326">
        <ele>16</ele>
      </trkpt>
      <trkpt lat="50.62384" lon="2.55341">
        <ele>16</ele>
      </trkpt>
      <trkpt lat="50.62384" lon="2.55356">
        <ele>16</ele>
      </trkpt>
      <trkpt lat="50.62384" lon="2.55368">
        <ele>16</ele>
      </trkpt>
      <trkpt lat="50.62383" lon="2.55377">
        <ele>16</ele>
      </trkpt>
      <trkpt lat="50.62383" lon="2.55385">
        <ele>16</ele>
      </trkpt>
      <trkpt lat="50.62382" lon="2.55393">
        <ele>16</ele>
      </trkpt>
      <trkpt lat="50.62381" lon="2.55397">
        <ele>16</ele>
      </trkpt>
      <trkpt lat="50.62375" lon="2.55419">
        <ele>16</ele>
      </trkpt>
      <trkpt lat="50.62371" lon="2.55437">
        <ele>16</ele>
      </trkpt>
      <trkpt lat="50.62366" lon="2.55451">
        <ele>16</ele>
      </trkpt>
      <trkpt lat="50.62358" lon="2.55469">
        <ele>16</ele>
      </trkpt>
      <trkpt lat="50.62342" lon="2.55504">
        <ele>17</ele>
      </trkpt>
      <trkpt lat="50.6228" lon="2.55642">
        <ele>17</ele>
      </trkpt>
      <trkpt lat="50.62269" lon="2.5567">
        <ele>17</ele>
      </trkpt>
      <trkpt lat="50.62263" lon="2.55685">
        <ele>16.6</ele>
      </trkpt>
      <trkpt lat="50.6226" lon="2.55701">
        <ele>16.5</ele>
      </trkpt>
      <trkpt lat="50.62256" lon="2.55719">
        <ele>16.9</ele>
      </trkpt>
      <trkpt lat="50.62254" lon="2.55738">
        <ele>17</ele>
      </trkpt>
      <trkpt lat="50.62253" lon="2.55757">
        <ele>17</ele>
      </trkpt>
      <trkpt lat="50.62253" lon="2.55774">
        <ele>17</ele>
      </trkpt>
      <trkpt lat="50.62253" lon="2.55791">
        <ele>17</ele>
      </trkpt>
      <trkpt lat="50.62255" lon="2.55813">
        <ele>17</ele>
      </trkpt>
      <trkpt lat="50.62259" lon="2.55834">
        <ele>17</ele>
      </trkpt>
      <trkpt lat="50.62264" lon="2.55857">
        <ele>17</ele>
      </trkpt>
      <trkpt lat="50.62284" lon="2.55941">
        <ele>16</ele>
      </trkpt>
      <trkpt lat="50.62288" lon="2.55963">
        <ele>16.2</ele>
      </trkpt>
      <trkpt lat="50.62291" lon="2.55985">
        <ele>16.7</ele>
      </trkpt>
      <trkpt lat="50.62294" lon="2.56004">
        <ele>17</ele>
      </trkpt>
      <trkpt lat="50.62295" lon="2.56015">
        <ele>17</ele>
      </trkpt>
      <trkpt lat="50.62296" lon="2.56025">
        <ele>17</ele>
      </trkpt>
      <trkpt lat="50.62298" lon="2.56059">
        <ele>17</ele>
      </trkpt>
      <trkpt lat="50.62299" lon="2.56085">
        <ele>17</ele>
      </trkpt>
      <trkpt lat="50.62301" lon="2.56097">
        <ele>17</ele>
        <extensions>
          <visugpx:TrkExtension xmlns:visugpx="https://www.visugpx.com/editgpx/">
            <visugpx:node>18</visugpx:node>
            </visugpx:TrkExtension>
        </extensions>
      </trkpt>
      <trkpt lat="50.62303" lon="2.56119">
        <ele>17</ele>
      </trkpt>
      <trkpt lat="50.62305" lon="2.56142">
        <ele>17</ele>
      </trkpt>
      <trkpt lat="50.62308" lon="2.56165">
        <ele>17</ele>
      </trkpt>
      <trkpt lat="50.62311" lon="2.56192">
        <ele>17</ele>
      </trkpt>
      <trkpt lat="50.62315" lon="2.56216">
        <ele>17</ele>
      </trkpt>
      <trkpt lat="50.62319" lon="2.56238">
        <ele>17</ele>
      </trkpt>
      <trkpt lat="50.62321" lon="2.56252">
        <ele>17</ele>
      </trkpt>
      <trkpt lat="50.62323" lon="2.56277">
        <ele>17</ele>
      </trkpt>
      <trkpt lat="50.62324" lon="2.56301">
        <ele>17</ele>
      </trkpt>
      <trkpt lat="50.62325" lon="2.56312">
        <ele>17</ele>
      </trkpt>
      <trkpt lat="50.62325" lon="2.56326">
        <ele>17</ele>
      </trkpt>
      <trkpt lat="50.62326" lon="2.56348">
        <ele>17</ele>
      </trkpt>
      <trkpt lat="50.62328" lon="2.56367">
        <ele>16.8</ele>
      </trkpt>
      <trkpt lat="50.6233" lon="2.56389">
        <ele>16</ele>
      </trkpt>
      <trkpt lat="50.6233" lon="2.56394">
        <ele>16</ele>
      </trkpt>
      <trkpt lat="50.62332" lon="2.56411">
        <ele>16</ele>
      </trkpt>
      <trkpt lat="50.62334" lon="2.5643">
        <ele>16</ele>
      </trkpt>
      <trkpt lat="50.62336" lon="2.56446">
        <ele>16</ele>
      </trkpt>
      <trkpt lat="50.62337" lon="2.56453">
        <ele>16</ele>
      </trkpt>
      <trkpt lat="50.62337" lon="2.56461">
        <ele>16</ele>
      </trkpt>
      <trkpt lat="50.6234" lon="2.56514">
        <ele>16.4</ele>
      </trkpt>
      <trkpt lat="50.62342" lon="2.56546">
        <ele>16.2</ele>
      </trkpt>
      <trkpt lat="50.62344" lon="2.56571">
        <ele>16</ele>
      </trkpt>
      <trkpt lat="50.62346" lon="2.56584">
        <ele>16</ele>
      </trkpt>
      <trkpt lat="50.62349" lon="2.56605">
        <ele>16</ele>
      </trkpt>
      <trkpt lat="50.62353" lon="2.56627">
        <ele>16</ele>
      </trkpt>
      <trkpt lat="50.62358" lon="2.56647">
        <ele>16</ele>
      </trkpt>
      <trkpt lat="50.62363" lon="2.56659">
        <ele>16</ele>
      </trkpt>
      <trkpt lat="50.62368" lon="2.56669">
        <ele>16</ele>
      </trkpt>
      <trkpt lat="50.62376" lon="2.56682">
        <ele>16</ele>
      </trkpt>
      <trkpt lat="50.62386" lon="2.56691">
        <ele>16</ele>
      </trkpt>
      <trkpt lat="50.62443" lon="2.56736">
        <ele>16</ele>
      </trkpt>
      <trkpt lat="50.6249" lon="2.56773">
        <ele>16.3</ele>
      </trkpt>
      <trkpt lat="50.62536" lon="2.56811">
        <ele>16.8</ele>
      </trkpt>
      <trkpt lat="50.62579" lon="2.56843">
        <ele>16.2</ele>
      </trkpt>
      <trkpt lat="50.62586" lon="2.56846">
        <ele>16</ele>
      </trkpt>
      <trkpt lat="50.62604" lon="2.56856">
        <ele>16</ele>
      </trkpt>
      <trkpt lat="50.62629" lon="2.56863">
        <ele>16.1</ele>
      </trkpt>
      <trkpt lat="50.62637" lon="2.56864">
        <ele>16.1</ele>
      </trkpt>
      <trkpt lat="50.62669" lon="2.56871">
        <ele>17</ele>
      </trkpt>
      <trkpt lat="50.62671" lon="2.56871">
        <ele>17</ele>
      </trkpt>
      <trkpt lat="50.62695" lon="2.56876">
        <ele>17</ele>
      </trkpt>
      <trkpt lat="50.62702" lon="2.56879">
        <ele>17</ele>
      </trkpt>
      <trkpt lat="50.62707" lon="2.56882">
        <ele>17</ele>
      </trkpt>
      <trkpt lat="50.62718" lon="2.56896">
        <ele>17</ele>
      </trkpt>
      <trkpt lat="50.62737" lon="2.56924">
        <ele>16.5</ele>
      </trkpt>
      <trkpt lat="50.62755" lon="2.56956">
        <ele>16.4</ele>
      </trkpt>
      <trkpt lat="50.62767" lon="2.56985">
        <ele>17</ele>
      </trkpt>
      <trkpt lat="50.62781" lon="2.57021">
        <ele>17</ele>
      </trkpt>
      <trkpt lat="50.62793" lon="2.57067">
        <ele>17</ele>
      </trkpt>
      <trkpt lat="50.62806" lon="2.57121">
        <ele>17</ele>
      </trkpt>
      <trkpt lat="50.62812" lon="2.57145">
        <ele>17</ele>
      </trkpt>
      <trkpt lat="50.62838" lon="2.57247">
        <ele>17</ele>
      </trkpt>
      <trkpt lat="50.62842" lon="2.57262">
        <ele>17</ele>
      </trkpt>
      <trkpt lat="50.62866" lon="2.5735">
        <ele>16.5</ele>
      </trkpt>
      <trkpt lat="50.62874" lon="2.57381">
        <ele>16.9</ele>
      </trkpt>
      <trkpt lat="50.62888" lon="2.57442">
        <ele>16</ele>
      </trkpt>
      <trkpt lat="50.62907" lon="2.57514">
        <ele>16.2</ele>
      </trkpt>
      <trkpt lat="50.6291" lon="2.57526">
        <ele>16.2</ele>
      </trkpt>
      <trkpt lat="50.6292" lon="2.57562">
        <ele>16</ele>
      </trkpt>
      <trkpt lat="50.62921" lon="2.57566">
        <ele>16</ele>
      </trkpt>
      <trkpt lat="50.62928" lon="2.57588">
        <ele>16</ele>
      </trkpt>
      <trkpt lat="50.62943" lon="2.57635">
        <ele>16</ele>
      </trkpt>
      <trkpt lat="50.62964" lon="2.5769">
        <ele>16.8</ele>
      </trkpt>
      <trkpt lat="50.62989" lon="2.57756">
        <ele>17</ele>
      </trkpt>
      <trkpt lat="50.62994" lon="2.57767">
        <ele>17</ele>
      </trkpt>
      <trkpt lat="50.63016" lon="2.57821">
        <ele>17.3</ele>
      </trkpt>
      <trkpt lat="50.63035" lon="2.57863">
        <ele>18</ele>
      </trkpt>
      <trkpt lat="50.63043" lon="2.57879">
        <ele>18</ele>
      </trkpt>
      <trkpt lat="50.63054" lon="2.57898">
        <ele>18</ele>
      </trkpt>
      <trkpt lat="50.63057" lon="2.57904">
        <ele>18</ele>
      </trkpt>
      <trkpt lat="50.63073" lon="2.57936">
        <ele>18</ele>
      </trkpt>
      <trkpt lat="50.63086" lon="2.57964">
        <ele>18</ele>
      </trkpt>
      <trkpt lat="50.63102" lon="2.58003">
        <ele>18.4</ele>
      </trkpt>
      <trkpt lat="50.63104" lon="2.58008">
        <ele>18.5</ele>
      </trkpt>
      <trkpt lat="50.63113" lon="2.58031">
        <ele>18.9</ele>
      </trkpt>
      <trkpt lat="50.63114" lon="2.58036">
        <ele>18.9</ele>
      </trkpt>
      <trkpt lat="50.63128" lon="2.58062">
        <ele>18.4</ele>
      </trkpt>
      <trkpt lat="50.63129" lon="2.58065">
        <ele>18.4</ele>
      </trkpt>
      <trkpt lat="50.63145" lon="2.58091">
        <ele>18.2</ele>
        <extensions>
          <visugpx:TrkExtension xmlns:visugpx="https://www.visugpx.com/editgpx/">
            <visugpx:node>19</visugpx:node>
            </visugpx:TrkExtension>
        </extensions>
      </trkpt>
      <trkpt lat="50.63146" lon="2.58092">
        <ele>18.2</ele>
      </trkpt>
      <trkpt lat="50.63163" lon="2.5812">
        <ele>18.4</ele>
      </trkpt>
      <trkpt lat="50.63177" lon="2.58147">
        <ele>19</ele>
      </trkpt>
      <trkpt lat="50.63191" lon="2.58177">
        <ele>19</ele>
      </trkpt>
      <trkpt lat="50.63198" lon="2.58195">
        <ele>19</ele>
      </trkpt>
      <trkpt lat="50.63211" lon="2.58226">
        <ele>19</ele>
      </trkpt>
      <trkpt lat="50.63227" lon="2.58269">
        <ele>18.3</ele>
      </trkpt>
      <trkpt lat="50.63234" lon="2.58287">
        <ele>18.2</ele>
      </trkpt>
      <trkpt lat="50.63255" lon="2.58342">
        <ele>18</ele>
      </trkpt>
      <trkpt lat="50.63257" lon="2.58348">
        <ele>18</ele>
      </trkpt>
      <trkpt lat="50.63262" lon="2.58366">
        <ele>18.2</ele>
      </trkpt>
      <trkpt lat="50.63267" lon="2.58393">
        <ele>19</ele>
      </trkpt>
      <trkpt lat="50.6327" lon="2.58426">
        <ele>19</ele>
      </trkpt>
      <trkpt lat="50.63272" lon="2.58486">
        <ele>18.2</ele>
      </trkpt>
      <trkpt lat="50.63275" lon="2.58572">
        <ele>18.1</ele>
      </trkpt>
      <trkpt lat="50.63276" lon="2.58584">
        <ele>18.1</ele>
      </trkpt>
      <trkpt lat="50.63277" lon="2.58614">
        <ele>18</ele>
      </trkpt>
      <trkpt lat="50.63278" lon="2.58627">
        <ele>18</ele>
      </trkpt>
      <trkpt lat="50.63281" lon="2.58658">
        <ele>18.6</ele>
      </trkpt>
      <trkpt lat="50.6329" lon="2.58735">
        <ele>18.8</ele>
      </trkpt>
      <trkpt lat="50.633" lon="2.58822">
        <ele>18.2</ele>
      </trkpt>
      <trkpt lat="50.6331" lon="2.58885">
        <ele>18</ele>
      </trkpt>
      <trkpt lat="50.63316" lon="2.58923">
        <ele>17.9</ele>
      </trkpt>
      <trkpt lat="50.63317" lon="2.58943">
        <ele>17.6</ele>
      </trkpt>
      <trkpt lat="50.63317" lon="2.58954">
        <ele>17.6</ele>
      </trkpt>
      <trkpt lat="50.63317" lon="2.58976">
        <ele>17.6</ele>
      </trkpt>
      <trkpt lat="50.63313" lon="2.58998">
        <ele>17.7</ele>
      </trkpt>
      <trkpt lat="50.63307" lon="2.59021">
        <ele>17.2</ele>
      </trkpt>
      <trkpt lat="50.63297" lon="2.59046">
        <ele>17.3</ele>
      </trkpt>
      <trkpt lat="50.63277" lon="2.5909">
        <ele>17</ele>
      </trkpt>
      <trkpt lat="50.63276" lon="2.59095">
        <ele>17</ele>
      </trkpt>
      <trkpt lat="50.63262" lon="2.59122">
        <ele>17.2</ele>
      </trkpt>
      <trkpt lat="50.63248" lon="2.59147">
        <ele>17.7</ele>
      </trkpt>
      <trkpt lat="50.63228" lon="2.5918">
        <ele>17</ele>
      </trkpt>
      <trkpt lat="50.63209" lon="2.59208">
        <ele>17.5</ele>
      </trkpt>
      <trkpt lat="50.63196" lon="2.59231">
        <ele>17.3</ele>
      </trkpt>
      <trkpt lat="50.6319" lon="2.5924">
        <ele>16.9</ele>
      </trkpt>
      <trkpt lat="50.63183" lon="2.59255">
        <ele>16.9</ele>
      </trkpt>
      <trkpt lat="50.63171" lon="2.5928">
        <ele>17.8</ele>
      </trkpt>
      <trkpt lat="50.63156" lon="2.59308">
        <ele>17.4</ele>
      </trkpt>
      <trkpt lat="50.63151" lon="2.59318">
        <ele>17.6</ele>
      </trkpt>
      <trkpt lat="50.63141" lon="2.59335">
        <ele>17.9</ele>
      </trkpt>
      <trkpt lat="50.63134" lon="2.59348">
        <ele>18</ele>
      </trkpt>
      <trkpt lat="50.63116" lon="2.59379">
        <ele>18</ele>
      </trkpt>
      <trkpt lat="50.63102" lon="2.59402">
        <ele>18</ele>
      </trkpt>
      <trkpt lat="50.63093" lon="2.59425">
        <ele>18</ele>
      </trkpt>
      <trkpt lat="50.63084" lon="2.59454">
        <ele>18</ele>
      </trkpt>
      <trkpt lat="50.6308" lon="2.59484">
        <ele>18</ele>
      </trkpt>
      <trkpt lat="50.63077" lon="2.59514">
        <ele>17.5</ele>
      </trkpt>
      <trkpt lat="50.63075" lon="2.59529">
        <ele>17</ele>
      </trkpt>
      <trkpt lat="50.63074" lon="2.59536">
        <ele>17</ele>
      </trkpt>
      <trkpt lat="50.63069" lon="2.59558">
        <ele>17</ele>
      </trkpt>
      <trkpt lat="50.63062" lon="2.59577">
        <ele>17</ele>
      </trkpt>
      <trkpt lat="50.63053" lon="2.59598">
        <ele>17</ele>
      </trkpt>
      <trkpt lat="50.63044" lon="2.59621">
        <ele>17</ele>
      </trkpt>
      <trkpt lat="50.63039" lon="2.59639">
        <ele>17</ele>
      </trkpt>
      <trkpt lat="50.63036" lon="2.59663">
        <ele>17</ele>
      </trkpt>
      <trkpt lat="50.63035" lon="2.59697">
        <ele>17.1</ele>
      </trkpt>
      <trkpt lat="50.63035" lon="2.59738">
        <ele>17.7</ele>
      </trkpt>
      <trkpt lat="50.63033" lon="2.59767">
        <ele>17.8</ele>
      </trkpt>
      <trkpt lat="50.63032" lon="2.59771">
        <ele>17.8</ele>
      </trkpt>
      <trkpt lat="50.63027" lon="2.59799">
        <ele>18</ele>
      </trkpt>
      <trkpt lat="50.63019" lon="2.59847">
        <ele>18</ele>
      </trkpt>
      <trkpt lat="50.63015" lon="2.5989">
        <ele>18</ele>
      </trkpt>
      <trkpt lat="50.63012" lon="2.59938">
        <ele>18</ele>
      </trkpt>
      <trkpt lat="50.6301" lon="2.60003">
        <ele>17.6</ele>
      </trkpt>
      <trkpt lat="50.6301" lon="2.60044">
        <ele>17.6</ele>
      </trkpt>
      <trkpt lat="50.63011" lon="2.60087">
        <ele>17.6</ele>
      </trkpt>
      <trkpt lat="50.63012" lon="2.60115">
        <ele>17.6</ele>
      </trkpt>
      <trkpt lat="50.63012" lon="2.60118">
        <ele>17.7</ele>
      </trkpt>
      <trkpt lat="50.63014" lon="2.60145">
        <ele>18</ele>
      </trkpt>
      <trkpt lat="50.63014" lon="2.60166">
        <ele>18</ele>
      </trkpt>
      <trkpt lat="50.63006" lon="2.60211">
        <ele>18</ele>
      </trkpt>
      <trkpt lat="50.62986" lon="2.60262">
        <ele>18.2</ele>
      </trkpt>
      <trkpt lat="50.62974" lon="2.60287">
        <ele>18.1</ele>
      </trkpt>
      <trkpt lat="50.62962" lon="2.60315">
        <ele>18</ele>
      </trkpt>
      <trkpt lat="50.62951" lon="2.60338">
        <ele>18</ele>
      </trkpt>
      <trkpt lat="50.62939" lon="2.6036">
        <ele>18</ele>
      </trkpt>
      <trkpt lat="50.62929" lon="2.60377">
        <ele>18</ele>
      </trkpt>
      <trkpt lat="50.62921" lon="2.6039">
        <ele>18</ele>
      </trkpt>
      <trkpt lat="50.62899" lon="2.60418">
        <ele>18.6</ele>
      </trkpt>
      <trkpt lat="50.62889" lon="2.60428">
        <ele>19</ele>
      </trkpt>
      <trkpt lat="50.6287" lon="2.60444">
        <ele>19</ele>
      </trkpt>
      <trkpt lat="50.6284" lon="2.60468">
        <ele>19</ele>
      </trkpt>
      <trkpt lat="50.628" lon="2.60495">
        <ele>19</ele>
      </trkpt>
      <trkpt lat="50.62775" lon="2.60513">
        <ele>19</ele>
      </trkpt>
      <trkpt lat="50.62765" lon="2.60519">
        <ele>19.3</ele>
      </trkpt>
      <trkpt lat="50.6276" lon="2.60522">
        <ele>19.5</ele>
      </trkpt>
      <trkpt lat="50.62754" lon="2.60526">
        <ele>19.8</ele>
      </trkpt>
      <trkpt lat="50.62734" lon="2.60541">
        <ele>19.2</ele>
      </trkpt>
      <trkpt lat="50.62725" lon="2.60549">
        <ele>19</ele>
      </trkpt>
      <trkpt lat="50.62715" lon="2.60558">
        <ele>18.8</ele>
      </trkpt>
      <trkpt lat="50.62697" lon="2.60575">
        <ele>18.7</ele>
      </trkpt>
      <trkpt lat="50.6268" lon="2.60591">
        <ele>19</ele>
      </trkpt>
      <trkpt lat="50.62658" lon="2.60614">
        <ele>19</ele>
      </trkpt>
      <trkpt lat="50.6265" lon="2.60621">
        <ele>19</ele>
      </trkpt>
      <trkpt lat="50.62613" lon="2.60662">
        <ele>19</ele>
      </trkpt>
      <trkpt lat="50.62612" lon="2.60663">
        <ele>19</ele>
      </trkpt>
      <trkpt lat="50.62577" lon="2.60697">
        <ele>19</ele>
      </trkpt>
      <trkpt lat="50.62571" lon="2.60703">
        <ele>19</ele>
      </trkpt>
      <trkpt lat="50.62561" lon="2.60712">
        <ele>19</ele>
      </trkpt>
      <trkpt lat="50.62545" lon="2.60728">
        <ele>19</ele>
      </trkpt>
      <trkpt lat="50.62445" lon="2.60823">
        <ele>19</ele>
      </trkpt>
      <trkpt lat="50.62421" lon="2.60846">
        <ele>19</ele>
      </trkpt>
      <trkpt lat="50.62404" lon="2.60864">
        <ele>19</ele>
      </trkpt>
      <trkpt lat="50.62383" lon="2.60892">
        <ele>19</ele>
      </trkpt>
      <trkpt lat="50.62376" lon="2.60902">
        <ele>19</ele>
      </trkpt>
      <trkpt lat="50.62372" lon="2.60909">
        <ele>19</ele>
      </trkpt>
      <trkpt lat="50.62359" lon="2.60927">
        <ele>19</ele>
      </trkpt>
      <trkpt lat="50.62315" lon="2.60993">
        <ele>19</ele>
        <extensions>
          <visugpx:TrkExtension xmlns:visugpx="https://www.visugpx.com/editgpx/">
            <visugpx:node>20</visugpx:node>
            </visugpx:TrkExtension>
        </extensions>
      </trkpt>
      <trkpt lat="50.62313" lon="2.60997">
        <ele>19</ele>
      </trkpt>
      <trkpt lat="50.62253" lon="2.61085">
        <ele>19</ele>
      </trkpt>
      <trkpt lat="50.62241" lon="2.61095">
        <ele>19</ele>
      </trkpt>
      <trkpt lat="50.62242" lon="2.61097">
        <ele>19</ele>
      </trkpt>
      <trkpt lat="50.62242" lon="2.61102">
        <ele>19</ele>
      </trkpt>
      <trkpt lat="50.62241" lon="2.61108">
        <ele>19</ele>
      </trkpt>
      <trkpt lat="50.6224" lon="2.61115">
        <ele>18.9</ele>
      </trkpt>
      <trkpt lat="50.62238" lon="2.61123">
        <ele>18.8</ele>
      </trkpt>
      <trkpt lat="50.62235" lon="2.6113">
        <ele>18.6</ele>
      </trkpt>
      <trkpt lat="50.62234" lon="2.61139">
        <ele>18.4</ele>
      </trkpt>
      <trkpt lat="50.62233" lon="2.61147">
        <ele>18.3</ele>
      </trkpt>
      <trkpt lat="50.62233" lon="2.61157">
        <ele>18.1</ele>
      </trkpt>
      <trkpt lat="50.62235" lon="2.61165">
        <ele>18</ele>
      </trkpt>
      <trkpt lat="50.62238" lon="2.61175">
        <ele>18</ele>
      </trkpt>
      <trkpt lat="50.62242" lon="2.61182">
        <ele>18</ele>
      </trkpt>
      <trkpt lat="50.62249" lon="2.61198">
        <ele>18</ele>
      </trkpt>
      <trkpt lat="50.62258" lon="2.61213">
        <ele>18</ele>
      </trkpt>
      <trkpt lat="50.62268" lon="2.6123">
        <ele>18</ele>
      </trkpt>
      <trkpt lat="50.62275" lon="2.61245">
        <ele>18</ele>
      </trkpt>
      <trkpt lat="50.62279" lon="2.61253">
        <ele>18</ele>
      </trkpt>
      <trkpt lat="50.62282" lon="2.61262">
        <ele>18</ele>
      </trkpt>
      <trkpt lat="50.62285" lon="2.61271">
        <ele>18</ele>
      </trkpt>
      <trkpt lat="50.62288" lon="2.61282">
        <ele>17.9</ele>
      </trkpt>
      <trkpt lat="50.62292" lon="2.61295">
        <ele>17.7</ele>
      </trkpt>
      <trkpt lat="50.62295" lon="2.61304">
        <ele>17.6</ele>
      </trkpt>
      <trkpt lat="50.62298" lon="2.61317">
        <ele>17.7</ele>
      </trkpt>
      <trkpt lat="50.62302" lon="2.61327">
        <ele>17.9</ele>
      </trkpt>
      <trkpt lat="50.62305" lon="2.61334">
        <ele>18</ele>
      </trkpt>
      <trkpt lat="50.62305" lon="2.61335">
        <ele>17.9</ele>
      </trkpt>
      <trkpt lat="50.6231" lon="2.61344">
        <ele>17.7</ele>
      </trkpt>
      <trkpt lat="50.62317" lon="2.61359">
        <ele>17.5</ele>
      </trkpt>
      <trkpt lat="50.62333" lon="2.6139">
        <ele>18</ele>
      </trkpt>
      <trkpt lat="50.62361" lon="2.61442">
        <ele>18</ele>
      </trkpt>
      <trkpt lat="50.62401" lon="2.61513">
        <ele>18.2</ele>
      </trkpt>
      <trkpt lat="50.62402" lon="2.61516">
        <ele>18.2</ele>
      </trkpt>
      <trkpt lat="50.62404" lon="2.61521">
        <ele>18.1</ele>
      </trkpt>
      <trkpt lat="50.62406" lon="2.61526">
        <ele>18</ele>
      </trkpt>
      <trkpt lat="50.62407" lon="2.61532">
        <ele>18</ele>
      </trkpt>
      <trkpt lat="50.62407" lon="2.61537">
        <ele>18</ele>
      </trkpt>
      <trkpt lat="50.62407" lon="2.61542">
        <ele>18</ele>
      </trkpt>
      <trkpt lat="50.62406" lon="2.61543">
        <ele>18</ele>
      </trkpt>
      <trkpt lat="50.62405" lon="2.61546">
        <ele>18</ele>
      </trkpt>
      <trkpt lat="50.62404" lon="2.61551">
        <ele>18</ele>
      </trkpt>
      <trkpt lat="50.62401" lon="2.61558">
        <ele>18</ele>
      </trkpt>
      <trkpt lat="50.62395" lon="2.61566">
        <ele>18.1</ele>
      </trkpt>
      <trkpt lat="50.62369" lon="2.616">
        <ele>16.8</ele>
      </trkpt>
      <trkpt lat="50.62367" lon="2.61603">
        <ele>16.8</ele>
      </trkpt>
      <trkpt lat="50.62364" lon="2.61606">
        <ele>16.9</ele>
      </trkpt>
      <trkpt lat="50.62358" lon="2.61614">
        <ele>17.1</ele>
      </trkpt>
      <trkpt lat="50.62327" lon="2.61654">
        <ele>17.6</ele>
      </trkpt>
      <trkpt lat="50.62318" lon="2.61668">
        <ele>18</ele>
      </trkpt>
      <trkpt lat="50.62315" lon="2.61673">
        <ele>17.8</ele>
      </trkpt>
      <trkpt lat="50.62314" lon="2.61678">
        <ele>17.7</ele>
      </trkpt>
      <trkpt lat="50.62313" lon="2.61682">
        <ele>17.6</ele>
      </trkpt>
      <trkpt lat="50.62301" lon="2.6169">
        <ele>17.4</ele>
      </trkpt>
      <trkpt lat="50.62288" lon="2.61704">
        <ele>18.4</ele>
      </trkpt>
      <trkpt lat="50.6227" lon="2.61726">
        <ele>19</ele>
      </trkpt>
      <trkpt lat="50.62261" lon="2.61736">
        <ele>19</ele>
      </trkpt>
      <trkpt lat="50.62252" lon="2.61746">
        <ele>19</ele>
      </trkpt>
      <trkpt lat="50.62246" lon="2.61754">
        <ele>19</ele>
      </trkpt>
      <trkpt lat="50.62241" lon="2.6176">
        <ele>19</ele>
      </trkpt>
      <trkpt lat="50.62236" lon="2.61766">
        <ele>19</ele>
      </trkpt>
      <trkpt lat="50.62229" lon="2.61772">
        <ele>19</ele>
      </trkpt>
      <trkpt lat="50.62219" lon="2.61782">
        <ele>19</ele>
      </trkpt>
      <trkpt lat="50.62212" lon="2.61789">
        <ele>19</ele>
      </trkpt>
      <trkpt lat="50.62198" lon="2.61801">
        <ele>19</ele>
      </trkpt>
      <trkpt lat="50.6219" lon="2.61808">
        <ele>19</ele>
      </trkpt>
      <trkpt lat="50.62167" lon="2.6183">
        <ele>19</ele>
      </trkpt>
      <trkpt lat="50.62145" lon="2.61849">
        <ele>19</ele>
      </trkpt>
      <trkpt lat="50.62144" lon="2.61851">
        <ele>19</ele>
      </trkpt>
      <trkpt lat="50.62132" lon="2.61861">
        <ele>19</ele>
      </trkpt>
      <trkpt lat="50.62123" lon="2.6187">
        <ele>19.1</ele>
      </trkpt>
      <trkpt lat="50.62119" lon="2.61875">
        <ele>19.1</ele>
      </trkpt>
      <trkpt lat="50.62113" lon="2.61882">
        <ele>19.1</ele>
      </trkpt>
      <trkpt lat="50.62098" lon="2.619">
        <ele>19</ele>
      </trkpt>
      <trkpt lat="50.62086" lon="2.61917">
        <ele>19</ele>
      </trkpt>
      <trkpt lat="50.62079" lon="2.61924">
        <ele>19</ele>
      </trkpt>
      <trkpt lat="50.62071" lon="2.61926">
        <ele>19</ele>
      </trkpt>
      <trkpt lat="50.62066" lon="2.61926">
        <ele>19</ele>
      </trkpt>
      <trkpt lat="50.62059" lon="2.61923">
        <ele>19</ele>
      </trkpt>
      <trkpt lat="50.62053" lon="2.61918">
        <ele>19</ele>
      </trkpt>
      <trkpt lat="50.62046" lon="2.61911">
        <ele>19</ele>
      </trkpt>
      <trkpt lat="50.62038" lon="2.61903">
        <ele>19</ele>
      </trkpt>
      <trkpt lat="50.62022" lon="2.61889">
        <ele>19</ele>
      </trkpt>
      <trkpt lat="50.61993" lon="2.61863">
        <ele>19</ele>
      </trkpt>
      <trkpt lat="50.6197" lon="2.61835">
        <ele>18.9</ele>
      </trkpt>
      <trkpt lat="50.61942" lon="2.61803">
        <ele>18</ele>
      </trkpt>
      <trkpt lat="50.61915" lon="2.61777">
        <ele>18</ele>
      </trkpt>
      <trkpt lat="50.61894" lon="2.61764">
        <ele>17.9</ele>
      </trkpt>
      <trkpt lat="50.61877" lon="2.61756">
        <ele>18</ele>
      </trkpt>
      <trkpt lat="50.61871" lon="2.61755">
        <ele>18</ele>
      </trkpt>
      <trkpt lat="50.61865" lon="2.61757">
        <ele>18</ele>
      </trkpt>
      <trkpt lat="50.61859" lon="2.61761">
        <ele>18</ele>
      </trkpt>
      <trkpt lat="50.61853" lon="2.61767">
        <ele>18.2</ele>
      </trkpt>
      <trkpt lat="50.6185" lon="2.61773">
        <ele>18.3</ele>
      </trkpt>
      <trkpt lat="50.61839" lon="2.61798">
        <ele>18.8</ele>
      </trkpt>
      <trkpt lat="50.61819" lon="2.61841">
        <ele>19</ele>
      </trkpt>
      <trkpt lat="50.61811" lon="2.61856">
        <ele>19</ele>
      </trkpt>
      <trkpt lat="50.61802" lon="2.61868">
        <ele>19</ele>
      </trkpt>
      <trkpt lat="50.61778" lon="2.61893">
        <ele>19</ele>
      </trkpt>
      <trkpt lat="50.61767" lon="2.61903">
        <ele>19</ele>
      </trkpt>
      <trkpt lat="50.61738" lon="2.61931">
        <ele>19</ele>
      </trkpt>
      <trkpt lat="50.61681" lon="2.61981">
        <ele>19.2</ele>
      </trkpt>
      <trkpt lat="50.61676" lon="2.61986">
        <ele>19.2</ele>
      </trkpt>
      <trkpt lat="50.61668" lon="2.61993">
        <ele>19</ele>
      </trkpt>
      <trkpt lat="50.61656" lon="2.62007">
        <ele>19</ele>
      </trkpt>
      <trkpt lat="50.61652" lon="2.62012">
        <ele>19</ele>
      </trkpt>
      <trkpt lat="50.61632" lon="2.62041">
        <ele>19</ele>
      </trkpt>
      <trkpt lat="50.61579" lon="2.62123">
        <ele>19</ele>
      </trkpt>
      <trkpt lat="50.61499" lon="2.6224">
        <ele>19</ele>
      </trkpt>
      <trkpt lat="50.61494" lon="2.62248">
        <ele>19</ele>
      </trkpt>
      <trkpt lat="50.61464" lon="2.62293">
        <ele>19</ele>
      </trkpt>
      <trkpt lat="50.61435" lon="2.62333">
        <ele>18.7</ele>
      </trkpt>
      <trkpt lat="50.61419" lon="2.62351">
        <ele>18.1</ele>
      </trkpt>
      <trkpt lat="50.61409" lon="2.62362">
        <ele>18</ele>
      </trkpt>
      <trkpt lat="50.61373" lon="2.62403">
        <ele>19</ele>
      </trkpt>
      <trkpt lat="50.61334" lon="2.62452">
        <ele>19</ele>
      </trkpt>
      <trkpt lat="50.61314" lon="2.62475">
        <ele>19.1</ele>
        <extensions>
          <visugpx:TrkExtension xmlns:visugpx="https://www.visugpx.com/editgpx/">
            <visugpx:node>21</visugpx:node>
            </visugpx:TrkExtension>
        </extensions>
      </trkpt>
      <trkpt lat="50.61302" lon="2.62489">
        <ele>19.5</ele>
      </trkpt>
      <trkpt lat="50.61259" lon="2.62534">
        <ele>19</ele>
      </trkpt>
      <trkpt lat="50.61198" lon="2.62595">
        <ele>19</ele>
      </trkpt>
      <trkpt lat="50.6112" lon="2.62668">
        <ele>19</ele>
      </trkpt>
      <trkpt lat="50.6108" lon="2.62705">
        <ele>19</ele>
      </trkpt>
      <trkpt lat="50.61064" lon="2.6272">
        <ele>19</ele>
      </trkpt>
      <trkpt lat="50.61034" lon="2.62747">
        <ele>19</ele>
      </trkpt>
      <trkpt lat="50.61024" lon="2.62756">
        <ele>19</ele>
      </trkpt>
      <trkpt lat="50.61015" lon="2.62765">
        <ele>19</ele>
      </trkpt>
      <trkpt lat="50.61006" lon="2.62776">
        <ele>19</ele>
      </trkpt>
      <trkpt lat="50.60998" lon="2.62788">
        <ele>19</ele>
      </trkpt>
      <trkpt lat="50.60991" lon="2.628">
        <ele>19</ele>
      </trkpt>
      <trkpt lat="50.60983" lon="2.62811">
        <ele>19</ele>
      </trkpt>
      <trkpt lat="50.60978" lon="2.62818">
        <ele>19</ele>
      </trkpt>
      <trkpt lat="50.6097" lon="2.62824">
        <ele>19</ele>
      </trkpt>
      <trkpt lat="50.60963" lon="2.62826">
        <ele>19</ele>
      </trkpt>
      <trkpt lat="50.60954" lon="2.62828">
        <ele>19</ele>
      </trkpt>
      <trkpt lat="50.60901" lon="2.62834">
        <ele>19</ele>
      </trkpt>
      <trkpt lat="50.60881" lon="2.62837">
        <ele>19</ele>
      </trkpt>
      <trkpt lat="50.60854" lon="2.62842">
        <ele>19</ele>
      </trkpt>
      <trkpt lat="50.60822" lon="2.62848">
        <ele>19</ele>
      </trkpt>
      <trkpt lat="50.60788" lon="2.62854">
        <ele>19</ele>
      </trkpt>
      <trkpt lat="50.60752" lon="2.62859">
        <ele>19</ele>
      </trkpt>
      <trkpt lat="50.60738" lon="2.62862">
        <ele>19</ele>
      </trkpt>
      <trkpt lat="50.60732" lon="2.62862">
        <ele>19</ele>
      </trkpt>
      <trkpt lat="50.60722" lon="2.62864">
        <ele>19</ele>
      </trkpt>
      <trkpt lat="50.607" lon="2.62867">
        <ele>19</ele>
      </trkpt>
      <trkpt lat="50.60672" lon="2.6287">
        <ele>19</ele>
      </trkpt>
      <trkpt lat="50.6062" lon="2.62875">
        <ele>19</ele>
      </trkpt>
      <trkpt lat="50.60615" lon="2.62875">
        <ele>19</ele>
      </trkpt>
      <trkpt lat="50.6059" lon="2.62877">
        <ele>19</ele>
      </trkpt>
      <trkpt lat="50.60554" lon="2.62881">
        <ele>19</ele>
      </trkpt>
      <trkpt lat="50.60547" lon="2.62881">
        <ele>19</ele>
      </trkpt>
      <trkpt lat="50.60513" lon="2.62884">
        <ele>19</ele>
      </trkpt>
      <trkpt lat="50.60484" lon="2.62887">
        <ele>19</ele>
      </trkpt>
      <trkpt lat="50.60469" lon="2.62888">
        <ele>19</ele>
      </trkpt>
      <trkpt lat="50.60431" lon="2.62891">
        <ele>19</ele>
      </trkpt>
      <trkpt lat="50.60409" lon="2.62893">
        <ele>19</ele>
      </trkpt>
      <trkpt lat="50.60378" lon="2.62897">
        <ele>19</ele>
      </trkpt>
      <trkpt lat="50.60359" lon="2.62899">
        <ele>19</ele>
      </trkpt>
      <trkpt lat="50.60348" lon="2.62901">
        <ele>19</ele>
      </trkpt>
      <trkpt lat="50.60339" lon="2.62902">
        <ele>19</ele>
      </trkpt>
      <trkpt lat="50.60312" lon="2.62908">
        <ele>19</ele>
      </trkpt>
      <trkpt lat="50.60256" lon="2.62922">
        <ele>19</ele>
      </trkpt>
      <trkpt lat="50.60253" lon="2.62922">
        <ele>19</ele>
      </trkpt>
      <trkpt lat="50.60198" lon="2.62938">
        <ele>19</ele>
      </trkpt>
      <trkpt lat="50.60188" lon="2.62941">
        <ele>19</ele>
      </trkpt>
      <trkpt lat="50.60144" lon="2.62954">
        <ele>19</ele>
      </trkpt>
      <trkpt lat="50.60113" lon="2.62961">
        <ele>19.4</ele>
      </trkpt>
      <trkpt lat="50.60094" lon="2.62964">
        <ele>19.1</ele>
      </trkpt>
      <trkpt lat="50.60066" lon="2.62969">
        <ele>19.1</ele>
      </trkpt>
      <trkpt lat="50.60056" lon="2.62971">
        <ele>19</ele>
      </trkpt>
      <trkpt lat="50.60027" lon="2.62975">
        <ele>19</ele>
      </trkpt>
      <trkpt lat="50.60006" lon="2.62979">
        <ele>19</ele>
      </trkpt>
      <trkpt lat="50.59966" lon="2.62985">
        <ele>19</ele>
      </trkpt>
      <trkpt lat="50.59958" lon="2.62986">
        <ele>19</ele>
      </trkpt>
      <trkpt lat="50.59922" lon="2.62992">
        <ele>19</ele>
      </trkpt>
      <trkpt lat="50.59882" lon="2.62998">
        <ele>19.2</ele>
      </trkpt>
      <trkpt lat="50.59845" lon="2.63004">
        <ele>20</ele>
        <extensions>
          <visugpx:TrkExtension xmlns:visugpx="https://www.visugpx.com/editgpx/">
            <visugpx:node>22</visugpx:node>
            </visugpx:TrkExtension>
        </extensions>
      </trkpt>
      <trkpt lat="50.5981" lon="2.6301">
        <ele>20</ele>
      </trkpt>
      <trkpt lat="50.59762" lon="2.63018">
        <ele>19.8</ele>
      </trkpt>
      <trkpt lat="50.5972" lon="2.63025">
        <ele>19.1</ele>
      </trkpt>
      <trkpt lat="50.5966" lon="2.63034">
        <ele>19.2</ele>
      </trkpt>
      <trkpt lat="50.5964" lon="2.63037">
        <ele>19.3</ele>
      </trkpt>
      <trkpt lat="50.59629" lon="2.63039">
        <ele>19.3</ele>
      </trkpt>
      <trkpt lat="50.59624" lon="2.63042">
        <ele>19.2</ele>
      </trkpt>
      <trkpt lat="50.59619" lon="2.63047">
        <ele>19.2</ele>
      </trkpt>
      <trkpt lat="50.59616" lon="2.63053">
        <ele>19.2</ele>
      </trkpt>
      <trkpt lat="50.59613" lon="2.63061">
        <ele>19.3</ele>
      </trkpt>
      <trkpt lat="50.59612" lon="2.63072">
        <ele>19.6</ele>
      </trkpt>
      <trkpt lat="50.59611" lon="2.6315">
        <ele>19</ele>
      </trkpt>
      <trkpt lat="50.59611" lon="2.63201">
        <ele>19</ele>
      </trkpt>
      <trkpt lat="50.5961" lon="2.63301">
        <ele>19</ele>
      </trkpt>
      <trkpt lat="50.59609" lon="2.63314">
        <ele>19</ele>
      </trkpt>
      <trkpt lat="50.59608" lon="2.63323">
        <ele>19</ele>
      </trkpt>
      <trkpt lat="50.59606" lon="2.63327">
        <ele>19</ele>
      </trkpt>
      <trkpt lat="50.59603" lon="2.6333">
        <ele>19</ele>
      </trkpt>
      <trkpt lat="50.59594" lon="2.63333">
        <ele>19</ele>
      </trkpt>
      <trkpt lat="50.59537" lon="2.63356">
        <ele>19</ele>
      </trkpt>
      <trkpt lat="50.59527" lon="2.6336">
        <ele>19</ele>
      </trkpt>
      <trkpt lat="50.59504" lon="2.6337">
        <ele>19</ele>
      </trkpt>
      <trkpt lat="50.59496" lon="2.63374">
        <ele>19</ele>
      </trkpt>
      <trkpt lat="50.59473" lon="2.63384">
        <ele>19</ele>
      </trkpt>
      <trkpt lat="50.59464" lon="2.63388">
        <ele>19</ele>
      </trkpt>
      <trkpt lat="50.5941" lon="2.63412">
        <ele>19</ele>
      </trkpt>
      <trkpt lat="50.59367" lon="2.63431">
        <ele>19</ele>
      </trkpt>
      <trkpt lat="50.59352" lon="2.63436">
        <ele>19</ele>
      </trkpt>
      <trkpt lat="50.59338" lon="2.63436">
        <ele>19</ele>
      </trkpt>
      <trkpt lat="50.59321" lon="2.63433">
        <ele>19</ele>
      </trkpt>
      <trkpt lat="50.59298" lon="2.63425">
        <ele>19</ele>
      </trkpt>
      <trkpt lat="50.59282" lon="2.63419">
        <ele>19</ele>
      </trkpt>
      <trkpt lat="50.59248" lon="2.63404">
        <ele>19.1</ele>
      </trkpt>
      <trkpt lat="50.59221" lon="2.63387">
        <ele>20</ele>
      </trkpt>
      <trkpt lat="50.59215" lon="2.63383">
        <ele>20</ele>
      </trkpt>
      <trkpt lat="50.59191" lon="2.63366">
        <ele>20</ele>
      </trkpt>
      <trkpt lat="50.59171" lon="2.63348">
        <ele>20</ele>
      </trkpt>
      <trkpt lat="50.59153" lon="2.63329">
        <ele>20</ele>
      </trkpt>
      <trkpt lat="50.59144" lon="2.63315">
        <ele>20</ele>
      </trkpt>
      <trkpt lat="50.59138" lon="2.63331">
        <ele>20</ele>
      </trkpt>
      <trkpt lat="50.59118" lon="2.63398">
        <ele>19.2</ele>
      </trkpt>
      <trkpt lat="50.59114" lon="2.63412">
        <ele>19.1</ele>
      </trkpt>
      <trkpt lat="50.59114" lon="2.63414">
        <ele>19.1</ele>
      </trkpt>
      <trkpt lat="50.59113" lon="2.6342">
        <ele>19.2</ele>
      </trkpt>
      <trkpt lat="50.59113" lon="2.63433">
        <ele>19.6</ele>
      </trkpt>
      <trkpt lat="50.59119" lon="2.63489">
        <ele>20</ele>
      </trkpt>
      <trkpt lat="50.59121" lon="2.63501">
        <ele>20</ele>
      </trkpt>
      <trkpt lat="50.59132" lon="2.63582">
        <ele>19.2</ele>
      </trkpt>
      <trkpt lat="50.59143" lon="2.63657">
        <ele>19.7</ele>
        <extensions>
          <visugpx:TrkExtension xmlns:visugpx="https://www.visugpx.com/editgpx/">
            <visugpx:node>23</visugpx:node>
            </visugpx:TrkExtension>
        </extensions>
      </trkpt>
      <trkpt lat="50.59145" lon="2.63671">
        <ele>20</ele>
      </trkpt>
      <trkpt lat="50.59148" lon="2.63695">
        <ele>20</ele>
      </trkpt>
      <trkpt lat="50.59151" lon="2.63721">
        <ele>19.5</ele>
      </trkpt>
      <trkpt lat="50.59156" lon="2.63764">
        <ele>19.6</ele>
      </trkpt>
      <trkpt lat="50.5916" lon="2.638">
        <ele>19.8</ele>
      </trkpt>
      <trkpt lat="50.59164" lon="2.63849">
        <ele>19.4</ele>
      </trkpt>
      <trkpt lat="50.59166" lon="2.6387">
        <ele>19.3</ele>
      </trkpt>
      <trkpt lat="50.59171" lon="2.63932">
        <ele>19.8</ele>
      </trkpt>
      <trkpt lat="50.59173" lon="2.63948">
        <ele>19.8</ele>
      </trkpt>
      <trkpt lat="50.59176" lon="2.63983">
        <ele>19.7</ele>
      </trkpt>
      <trkpt lat="50.59184" lon="2.64048">
        <ele>19.4</ele>
      </trkpt>
      <trkpt lat="50.59191" lon="2.64105">
        <ele>20</ele>
      </trkpt>
      <trkpt lat="50.59196" lon="2.64137">
        <ele>20</ele>
      </trkpt>
      <trkpt lat="50.59199" lon="2.64149">
        <ele>19.9</ele>
      </trkpt>
      <trkpt lat="50.592" lon="2.64153">
        <ele>19.9</ele>
      </trkpt>
      <trkpt lat="50.59201" lon="2.64157">
        <ele>19.8</ele>
      </trkpt>
      <trkpt lat="50.59204" lon="2.64163">
        <ele>19.7</ele>
      </trkpt>
      <trkpt lat="50.59207" lon="2.64169">
        <ele>19.5</ele>
      </trkpt>
      <trkpt lat="50.59214" lon="2.64185">
        <ele>19.3</ele>
      </trkpt>
      <trkpt lat="50.59221" lon="2.64198">
        <ele>19</ele>
      </trkpt>
      <trkpt lat="50.59222" lon="2.642">
        <ele>19</ele>
      </trkpt>
      <trkpt lat="50.59227" lon="2.64208">
        <ele>19</ele>
      </trkpt>
      <trkpt lat="50.59231" lon="2.64215">
        <ele>19</ele>
      </trkpt>
      <trkpt lat="50.59235" lon="2.64221">
        <ele>19</ele>
      </trkpt>
      <trkpt lat="50.59241" lon="2.64225">
        <ele>19</ele>
      </trkpt>
      <trkpt lat="50.59248" lon="2.64229">
        <ele>19</ele>
      </trkpt>
      <trkpt lat="50.59252" lon="2.64232">
        <ele>19</ele>
      </trkpt>
      <trkpt lat="50.59256" lon="2.64238">
        <ele>19</ele>
      </trkpt>
      <trkpt lat="50.59258" lon="2.64245">
        <ele>19</ele>
      </trkpt>
      <trkpt lat="50.59259" lon="2.64252">
        <ele>19</ele>
      </trkpt>
      <trkpt lat="50.59258" lon="2.64263">
        <ele>19</ele>
      </trkpt>
      <trkpt lat="50.59258" lon="2.64268">
        <ele>19</ele>
      </trkpt>
      <trkpt lat="50.59258" lon="2.64274">
        <ele>19</ele>
      </trkpt>
      <trkpt lat="50.59259" lon="2.64281">
        <ele>19</ele>
      </trkpt>
      <trkpt lat="50.59261" lon="2.64287">
        <ele>19</ele>
      </trkpt>
      <trkpt lat="50.59265" lon="2.64294">
        <ele>19</ele>
      </trkpt>
      <trkpt lat="50.59268" lon="2.64302">
        <ele>19</ele>
      </trkpt>
      <trkpt lat="50.59272" lon="2.6431">
        <ele>19</ele>
      </trkpt>
      <trkpt lat="50.59276" lon="2.64318">
        <ele>19</ele>
      </trkpt>
      <trkpt lat="50.5928" lon="2.64326">
        <ele>19</ele>
      </trkpt>
      <trkpt lat="50.59284" lon="2.64333">
        <ele>19</ele>
      </trkpt>
      <trkpt lat="50.59287" lon="2.6434">
        <ele>19</ele>
      </trkpt>
      <trkpt lat="50.59291" lon="2.64347">
        <ele>19</ele>
      </trkpt>
      <trkpt lat="50.59294" lon="2.64354">
        <ele>19</ele>
      </trkpt>
      <trkpt lat="50.59297" lon="2.6436">
        <ele>19</ele>
      </trkpt>
      <trkpt lat="50.59299" lon="2.64365">
        <ele>19</ele>
      </trkpt>
      <trkpt lat="50.59307" lon="2.64382">
        <ele>19</ele>
      </trkpt>
      <trkpt lat="50.59324" lon="2.64419">
        <ele>19</ele>
      </trkpt>
      <trkpt lat="50.59344" lon="2.64462">
        <ele>19</ele>
      </trkpt>
      <trkpt lat="50.59382" lon="2.64544">
        <ele>19</ele>
      </trkpt>
      <trkpt lat="50.59407" lon="2.646">
        <ele>19</ele>
      </trkpt>
      <trkpt lat="50.5942" lon="2.64629">
        <ele>19</ele>
      </trkpt>
      <trkpt lat="50.59423" lon="2.64635">
        <ele>19</ele>
      </trkpt>
      <trkpt lat="50.59453" lon="2.64701">
        <ele>19</ele>
      </trkpt>
      <trkpt lat="50.59465" lon="2.64727">
        <ele>19</ele>
      </trkpt>
      <trkpt lat="50.59489" lon="2.6478">
        <ele>19.6</ele>
      </trkpt>
      <trkpt lat="50.59499" lon="2.64803">
        <ele>19.1</ele>
      </trkpt>
      <trkpt lat="50.59503" lon="2.6481">
        <ele>19</ele>
      </trkpt>
      <trkpt lat="50.5951" lon="2.64817">
        <ele>19</ele>
      </trkpt>
      <trkpt lat="50.59517" lon="2.64826">
        <ele>19</ele>
      </trkpt>
      <trkpt lat="50.59525" lon="2.64836">
        <ele>19</ele>
      </trkpt>
      <trkpt lat="50.59531" lon="2.64845">
        <ele>19.1</ele>
      </trkpt>
      <trkpt lat="50.59535" lon="2.64854">
        <ele>19.3</ele>
      </trkpt>
      <trkpt lat="50.59538" lon="2.64863">
        <ele>19.4</ele>
      </trkpt>
      <trkpt lat="50.59541" lon="2.64871">
        <ele>19.5</ele>
      </trkpt>
      <trkpt lat="50.59542" lon="2.64882">
        <ele>19.5</ele>
      </trkpt>
      <trkpt lat="50.59544" lon="2.64898">
        <ele>19.6</ele>
      </trkpt>
      <trkpt lat="50.59545" lon="2.64916">
        <ele>19.6</ele>
      </trkpt>
      <trkpt lat="50.59546" lon="2.64931">
        <ele>19.3</ele>
      </trkpt>
      <trkpt lat="50.59549" lon="2.64942">
        <ele>19.1</ele>
      </trkpt>
      <trkpt lat="50.5955" lon="2.64945">
        <ele>19</ele>
      </trkpt>
      <trkpt lat="50.59545" lon="2.6495">
        <ele>19</ele>
      </trkpt>
      <trkpt lat="50.59532" lon="2.64966">
        <ele>19</ele>
      </trkpt>
      <trkpt lat="50.59499" lon="2.65009">
        <ele>19</ele>
      </trkpt>
      <trkpt lat="50.59489" lon="2.65022">
        <ele>19</ele>
      </trkpt>
      <trkpt lat="50.5946" lon="2.65059">
        <ele>19</ele>
      </trkpt>
      <trkpt lat="50.59451" lon="2.65069">
        <ele>19</ele>
      </trkpt>
      <trkpt lat="50.59445" lon="2.65073">
        <ele>19</ele>
      </trkpt>
      <trkpt lat="50.5944" lon="2.65077">
        <ele>19</ele>
      </trkpt>
      <trkpt lat="50.59431" lon="2.65082">
        <ele>19</ele>
      </trkpt>
      <trkpt lat="50.59418" lon="2.65088">
        <ele>19</ele>
      </trkpt>
      <trkpt lat="50.59402" lon="2.65093">
        <ele>19</ele>
      </trkpt>
      <trkpt lat="50.59387" lon="2.651">
        <ele>19</ele>
      </trkpt>
      <trkpt lat="50.59371" lon="2.65107">
        <ele>19</ele>
      </trkpt>
      <trkpt lat="50.59359" lon="2.65115">
        <ele>19.1</ele>
      </trkpt>
      <trkpt lat="50.59348" lon="2.65124">
        <ele>19.2</ele>
      </trkpt>
      <trkpt lat="50.59343" lon="2.65129">
        <ele>19.2</ele>
      </trkpt>
      <trkpt lat="50.59341" lon="2.65131">
        <ele>19.2</ele>
      </trkpt>
      <trkpt lat="50.59337" lon="2.65136">
        <ele>19.1</ele>
      </trkpt>
      <trkpt lat="50.59332" lon="2.65143">
        <ele>19</ele>
      </trkpt>
      <trkpt lat="50.59328" lon="2.65151">
        <ele>19</ele>
      </trkpt>
      <trkpt lat="50.59323" lon="2.65161">
        <ele>19</ele>
      </trkpt>
      <trkpt lat="50.59297" lon="2.65224">
        <ele>19</ele>
      </trkpt>
      <trkpt lat="50.5927" lon="2.65293">
        <ele>19</ele>
      </trkpt>
      <trkpt lat="50.5926" lon="2.65317">
        <ele>19</ele>
      </trkpt>
      <trkpt lat="50.59256" lon="2.65326">
        <ele>19</ele>
      </trkpt>
      <trkpt lat="50.5925" lon="2.65334">
        <ele>19</ele>
      </trkpt>
      <trkpt lat="50.59246" lon="2.6534">
        <ele>19</ele>
      </trkpt>
      <trkpt lat="50.59239" lon="2.65346">
        <ele>19</ele>
      </trkpt>
      <trkpt lat="50.59231" lon="2.65353">
        <ele>19</ele>
      </trkpt>
      <trkpt lat="50.59221" lon="2.65359">
        <ele>19</ele>
      </trkpt>
      <trkpt lat="50.59212" lon="2.65364">
        <ele>19</ele>
      </trkpt>
      <trkpt lat="50.59202" lon="2.65368">
        <ele>19</ele>
      </trkpt>
      <trkpt lat="50.59189" lon="2.65372">
        <ele>19</ele>
      </trkpt>
      <trkpt lat="50.59179" lon="2.65374">
        <ele>19</ele>
      </trkpt>
      <trkpt lat="50.59165" lon="2.65376">
        <ele>19.1</ele>
      </trkpt>
      <trkpt lat="50.59153" lon="2.65378">
        <ele>19.5</ele>
      </trkpt>
      <trkpt lat="50.59122" lon="2.65379">
        <ele>20</ele>
      </trkpt>
      <trkpt lat="50.59086" lon="2.6538">
        <ele>20</ele>
      </trkpt>
      <trkpt lat="50.59054" lon="2.65378">
        <ele>19</ele>
      </trkpt>
      <trkpt lat="50.59044" lon="2.65379">
        <ele>19</ele>
      </trkpt>
      <trkpt lat="50.59038" lon="2.6538">
        <ele>19</ele>
      </trkpt>
      <trkpt lat="50.59034" lon="2.65383">
        <ele>19</ele>
      </trkpt>
      <trkpt lat="50.59029" lon="2.65386">
        <ele>19</ele>
      </trkpt>
      <trkpt lat="50.59026" lon="2.6539">
        <ele>18.9</ele>
      </trkpt>
      <trkpt lat="50.59024" lon="2.65395">
        <ele>18.9</ele>
      </trkpt>
      <trkpt lat="50.59021" lon="2.65402">
        <ele>18.8</ele>
      </trkpt>
      <trkpt lat="50.59014" lon="2.65433">
        <ele>18.8</ele>
      </trkpt>
      <trkpt lat="50.59008" lon="2.6546">
        <ele>19</ele>
      </trkpt>
      <trkpt lat="50.59004" lon="2.65472">
        <ele>19</ele>
      </trkpt>
      <trkpt lat="50.59" lon="2.65478">
        <ele>19</ele>
      </trkpt>
      <trkpt lat="50.58999" lon="2.65479">
        <ele>19</ele>
      </trkpt>
      <trkpt lat="50.58997" lon="2.65482">
        <ele>19</ele>
      </trkpt>
      <trkpt lat="50.58992" lon="2.65484">
        <ele>19</ele>
      </trkpt>
      <trkpt lat="50.58995" lon="2.65496">
        <ele>19</ele>
      </trkpt>
      <trkpt lat="50.58997" lon="2.65501">
        <ele>19</ele>
      </trkpt>
      <trkpt lat="50.58999" lon="2.65507">
        <ele>19</ele>
      </trkpt>
      <trkpt lat="50.59001" lon="2.65511">
        <ele>19</ele>
      </trkpt>
      <trkpt lat="50.59018" lon="2.65555">
        <ele>19.3</ele>
      </trkpt>
      <trkpt lat="50.59027" lon="2.6558">
        <ele>19</ele>
      </trkpt>
      <trkpt lat="50.59032" lon="2.65597">
        <ele>19.2</ele>
      </trkpt>
      <trkpt lat="50.59034" lon="2.65609">
        <ele>19.2</ele>
      </trkpt>
      <trkpt lat="50.59035" lon="2.65618">
        <ele>19.4</ele>
      </trkpt>
      <trkpt lat="50.59034" lon="2.65629">
        <ele>19.7</ele>
      </trkpt>
      <trkpt lat="50.59032" lon="2.65638">
        <ele>20</ele>
      </trkpt>
      <trkpt lat="50.5903" lon="2.6565">
        <ele>20</ele>
      </trkpt>
      <trkpt lat="50.59028" lon="2.6566">
        <ele>20</ele>
      </trkpt>
      <trkpt lat="50.59028" lon="2.6567">
        <ele>20</ele>
      </trkpt>
      <trkpt lat="50.59029" lon="2.65678">
        <ele>20</ele>
      </trkpt>
      <trkpt lat="50.59031" lon="2.65683">
        <ele>20</ele>
      </trkpt>
      <trkpt lat="50.59041" lon="2.65697">
        <ele>20</ele>
      </trkpt>
      <trkpt lat="50.59046" lon="2.65703">
        <ele>19.8</ele>
      </trkpt>
      <trkpt lat="50.59058" lon="2.65716">
        <ele>19.3</ele>
      </trkpt>
      <trkpt lat="50.59071" lon="2.65731">
        <ele>19.4</ele>
      </trkpt>
      <trkpt lat="50.59073" lon="2.65737">
        <ele>19.3</ele>
      </trkpt>
      <trkpt lat="50.59075" lon="2.65744">
        <ele>19.2</ele>
      </trkpt>
      <trkpt lat="50.59075" lon="2.65754">
        <ele>19</ele>
      </trkpt>
      <trkpt lat="50.59073" lon="2.65763">
        <ele>19</ele>
      </trkpt>
      <trkpt lat="50.59072" lon="2.65765">
        <ele>19</ele>
      </trkpt>
      <trkpt lat="50.59066" lon="2.65784">
        <ele>19.1</ele>
      </trkpt>
      <trkpt lat="50.59054" lon="2.65815">
        <ele>19.1</ele>
      </trkpt>
      <trkpt lat="50.59044" lon="2.65845">
        <ele>19.5</ele>
      </trkpt>
      <trkpt lat="50.59043" lon="2.65848">
        <ele>19.5</ele>
      </trkpt>
      <trkpt lat="50.59034" lon="2.65873">
        <ele>19.2</ele>
      </trkpt>
      <trkpt lat="50.59023" lon="2.65911">
        <ele>19</ele>
      </trkpt>
      <trkpt lat="50.59018" lon="2.65926">
        <ele>19.2</ele>
      </trkpt>
      <trkpt lat="50.59016" lon="2.65934">
        <ele>19.4</ele>
      </trkpt>
      <trkpt lat="50.59013" lon="2.65947">
        <ele>19.5</ele>
      </trkpt>
      <trkpt lat="50.59005" lon="2.65969">
        <ele>19.2</ele>
      </trkpt>
      <trkpt lat="50.59" lon="2.65981">
        <ele>19.3</ele>
      </trkpt>
      <trkpt lat="50.58993" lon="2.65997">
        <ele>19.7</ele>
      </trkpt>
      <trkpt lat="50.58984" lon="2.66012">
        <ele>19.4</ele>
      </trkpt>
      <trkpt lat="50.58975" lon="2.66029">
        <ele>19.1</ele>
      </trkpt>
      <trkpt lat="50.5897" lon="2.66044">
        <ele>19.1</ele>
      </trkpt>
      <trkpt lat="50.58967" lon="2.66051">
        <ele>19.2</ele>
      </trkpt>
      <trkpt lat="50.58967" lon="2.66057">
        <ele>19.2</ele>
      </trkpt>
      <trkpt lat="50.58966" lon="2.66064">
        <ele>19.2</ele>
      </trkpt>
      <trkpt lat="50.58964" lon="2.66067">
        <ele>19.2</ele>
      </trkpt>
      <trkpt lat="50.58959" lon="2.6607">
        <ele>19.2</ele>
      </trkpt>
      <trkpt lat="50.58956" lon="2.66075">
        <ele>19.2</ele>
      </trkpt>
      <trkpt lat="50.58952" lon="2.66084">
        <ele>19</ele>
      </trkpt>
      <trkpt lat="50.58947" lon="2.66094">
        <ele>19</ele>
      </trkpt>
      <trkpt lat="50.58942" lon="2.66108">
        <ele>19.1</ele>
      </trkpt>
      <trkpt lat="50.58934" lon="2.66125">
        <ele>19.2</ele>
      </trkpt>
      <trkpt lat="50.58928" lon="2.66139">
        <ele>19</ele>
      </trkpt>
      <trkpt lat="50.58921" lon="2.66156">
        <ele>19</ele>
      </trkpt>
      <trkpt lat="50.58915" lon="2.6617">
        <ele>19</ele>
      </trkpt>
      <trkpt lat="50.58909" lon="2.66183">
        <ele>19</ele>
      </trkpt>
      <trkpt lat="50.58904" lon="2.66196">
        <ele>19</ele>
      </trkpt>
      <trkpt lat="50.58898" lon="2.66207">
        <ele>19</ele>
      </trkpt>
      <trkpt lat="50.58893" lon="2.66219">
        <ele>19</ele>
      </trkpt>
      <trkpt lat="50.58886" lon="2.66231">
        <ele>19</ele>
      </trkpt>
      <trkpt lat="50.58879" lon="2.66245">
        <ele>19</ele>
      </trkpt>
      <trkpt lat="50.58874" lon="2.66253">
        <ele>19.1</ele>
      </trkpt>
      <trkpt lat="50.58872" lon="2.66257">
        <ele>19.3</ele>
      </trkpt>
      <trkpt lat="50.58864" lon="2.66269">
        <ele>19.7</ele>
      </trkpt>
      <trkpt lat="50.58857" lon="2.66281">
        <ele>19.9</ele>
      </trkpt>
      <trkpt lat="50.58848" lon="2.66296">
        <ele>19.5</ele>
      </trkpt>
      <trkpt lat="50.5884" lon="2.6631">
        <ele>19.2</ele>
      </trkpt>
      <trkpt lat="50.58834" lon="2.66322">
        <ele>19</ele>
      </trkpt>
      <trkpt lat="50.58829" lon="2.66334">
        <ele>19</ele>
      </trkpt>
      <trkpt lat="50.58825" lon="2.66342">
        <ele>19</ele>
        <extensions>
          <visugpx:TrkExtension xmlns:visugpx="https://www.visugpx.com/editgpx/">
            <visugpx:node>24</visugpx:node>
            </visugpx:TrkExtension>
        </extensions>
      </trkpt>
      <trkpt lat="50.58824" lon="2.66345">
        <ele>19</ele>
      </trkpt>
      <trkpt lat="50.58819" lon="2.66357">
        <ele>19</ele>
      </trkpt>
      <trkpt lat="50.58813" lon="2.66371">
        <ele>19</ele>
      </trkpt>
      <trkpt lat="50.58812" lon="2.66374">
        <ele>19</ele>
      </trkpt>
      <trkpt lat="50.58807" lon="2.66386">
        <ele>19</ele>
      </trkpt>
      <trkpt lat="50.588" lon="2.66401">
        <ele>19.1</ele>
      </trkpt>
      <trkpt lat="50.58796" lon="2.66412">
        <ele>19.3</ele>
      </trkpt>
      <trkpt lat="50.5879" lon="2.66426">
        <ele>19.4</ele>
      </trkpt>
      <trkpt lat="50.58781" lon="2.66446">
        <ele>19</ele>
      </trkpt>
      <trkpt lat="50.58776" lon="2.66456">
        <ele>19</ele>
      </trkpt>
      <trkpt lat="50.58773" lon="2.66463">
        <ele>19</ele>
      </trkpt>
      <trkpt lat="50.58765" lon="2.66481">
        <ele>19</ele>
      </trkpt>
      <trkpt lat="50.58763" lon="2.66485">
        <ele>19</ele>
      </trkpt>
      <trkpt lat="50.58759" lon="2.66496">
        <ele>19</ele>
      </trkpt>
      <trkpt lat="50.58752" lon="2.6651">
        <ele>19</ele>
      </trkpt>
      <trkpt lat="50.58746" lon="2.66524">
        <ele>19</ele>
      </trkpt>
      <trkpt lat="50.58741" lon="2.66535">
        <ele>19</ele>
      </trkpt>
      <trkpt lat="50.58736" lon="2.66548">
        <ele>19</ele>
      </trkpt>
      <trkpt lat="50.58732" lon="2.66561">
        <ele>19</ele>
      </trkpt>
      <trkpt lat="50.58728" lon="2.66572">
        <ele>19</ele>
      </trkpt>
      <trkpt lat="50.58726" lon="2.66579">
        <ele>19</ele>
      </trkpt>
      <trkpt lat="50.58723" lon="2.66586">
        <ele>19</ele>
      </trkpt>
      <trkpt lat="50.58719" lon="2.66598">
        <ele>19</ele>
      </trkpt>
      <trkpt lat="50.58714" lon="2.66613">
        <ele>19</ele>
      </trkpt>
      <trkpt lat="50.58708" lon="2.66628">
        <ele>19</ele>
      </trkpt>
      <trkpt lat="50.58702" lon="2.66645">
        <ele>19.1</ele>
      </trkpt>
      <trkpt lat="50.58696" lon="2.66661">
        <ele>19</ele>
      </trkpt>
      <trkpt lat="50.58691" lon="2.66677">
        <ele>19</ele>
      </trkpt>
      <trkpt lat="50.58686" lon="2.66694">
        <ele>19</ele>
      </trkpt>
      <trkpt lat="50.5868" lon="2.66714">
        <ele>19</ele>
      </trkpt>
      <trkpt lat="50.58678" lon="2.66722">
        <ele>19</ele>
      </trkpt>
      <trkpt lat="50.5867" lon="2.66749">
        <ele>19</ele>
      </trkpt>
      <trkpt lat="50.58666" lon="2.66763">
        <ele>19</ele>
      </trkpt>
      <trkpt lat="50.58664" lon="2.6677">
        <ele>19</ele>
      </trkpt>
      <trkpt lat="50.58658" lon="2.66794">
        <ele>19</ele>
      </trkpt>
      <trkpt lat="50.58657" lon="2.66795">
        <ele>19</ele>
      </trkpt>
      <trkpt lat="50.58653" lon="2.66812">
        <ele>19</ele>
      </trkpt>
      <trkpt lat="50.5865" lon="2.66823">
        <ele>19</ele>
      </trkpt>
      <trkpt lat="50.58643" lon="2.66846">
        <ele>19</ele>
      </trkpt>
      <trkpt lat="50.58641" lon="2.66854">
        <ele>19</ele>
      </trkpt>
      <trkpt lat="50.58638" lon="2.66861">
        <ele>19</ele>
      </trkpt>
      <trkpt lat="50.58633" lon="2.66877">
        <ele>19</ele>
      </trkpt>
      <trkpt lat="50.58627" lon="2.66892">
        <ele>19</ele>
      </trkpt>
      <trkpt lat="50.58623" lon="2.66905">
        <ele>19</ele>
      </trkpt>
      <trkpt lat="50.58619" lon="2.66915">
        <ele>19</ele>
      </trkpt>
      <trkpt lat="50.58617" lon="2.66921">
        <ele>19.2</ele>
      </trkpt>
      <trkpt lat="50.58609" lon="2.6694">
        <ele>19.8</ele>
      </trkpt>
      <trkpt lat="50.58603" lon="2.66956">
        <ele>19.7</ele>
      </trkpt>
      <trkpt lat="50.58596" lon="2.66973">
        <ele>19.5</ele>
      </trkpt>
      <trkpt lat="50.5859" lon="2.66993">
        <ele>19.2</ele>
      </trkpt>
      <trkpt lat="50.58585" lon="2.67009">
        <ele>19.4</ele>
      </trkpt>
      <trkpt lat="50.58584" lon="2.67014">
        <ele>19.5</ele>
      </trkpt>
      <trkpt lat="50.58582" lon="2.67026">
        <ele>19.9</ele>
      </trkpt>
      <trkpt lat="50.5858" lon="2.67043">
        <ele>19.9</ele>
      </trkpt>
      <trkpt lat="50.58578" lon="2.67057">
        <ele>19.8</ele>
      </trkpt>
      <trkpt lat="50.58575" lon="2.6707">
        <ele>19.7</ele>
      </trkpt>
      <trkpt lat="50.58571" lon="2.67084">
        <ele>19.6</ele>
      </trkpt>
      <trkpt lat="50.58569" lon="2.67093">
        <ele>19.5</ele>
      </trkpt>
      <trkpt lat="50.58568" lon="2.67094">
        <ele>19.4</ele>
      </trkpt>
      <trkpt lat="50.58564" lon="2.67105">
        <ele>19.3</ele>
      </trkpt>
      <trkpt lat="50.58556" lon="2.67123">
        <ele>19</ele>
      </trkpt>
      <trkpt lat="50.58542" lon="2.67155">
        <ele>19.5</ele>
      </trkpt>
      <trkpt lat="50.58526" lon="2.67192">
        <ele>19.1</ele>
      </trkpt>
      <trkpt lat="50.58515" lon="2.67218">
        <ele>19.1</ele>
      </trkpt>
      <trkpt lat="50.58507" lon="2.67237">
        <ele>19.1</ele>
      </trkpt>
      <trkpt lat="50.585" lon="2.67256">
        <ele>19</ele>
      </trkpt>
      <trkpt lat="50.58494" lon="2.6727">
        <ele>19.1</ele>
      </trkpt>
      <trkpt lat="50.5849" lon="2.67284">
        <ele>19.2</ele>
      </trkpt>
      <trkpt lat="50.58487" lon="2.67292">
        <ele>19.5</ele>
      </trkpt>
      <trkpt lat="50.58478" lon="2.67322">
        <ele>19.5</ele>
      </trkpt>
      <trkpt lat="50.58464" lon="2.67364">
        <ele>20</ele>
      </trkpt>
      <trkpt lat="50.58462" lon="2.67373">
        <ele>20</ele>
      </trkpt>
      <trkpt lat="50.58451" lon="2.67411">
        <ele>20</ele>
      </trkpt>
      <trkpt lat="50.5845" lon="2.67414">
        <ele>20</ele>
      </trkpt>
      <trkpt lat="50.58436" lon="2.67459">
        <ele>20</ele>
      </trkpt>
      <trkpt lat="50.58425" lon="2.67494">
        <ele>20</ele>
      </trkpt>
      <trkpt lat="50.58414" lon="2.67527">
        <ele>19</ele>
      </trkpt>
      <trkpt lat="50.5841" lon="2.6754">
        <ele>19.1</ele>
      </trkpt>
      <trkpt lat="50.58402" lon="2.67566">
        <ele>19.3</ele>
      </trkpt>
      <trkpt lat="50.58398" lon="2.6758">
        <ele>19.1</ele>
      </trkpt>
      <trkpt lat="50.58397" lon="2.67583">
        <ele>19</ele>
        <extensions>
          <visugpx:TrkExtension xmlns:visugpx="https://www.visugpx.com/editgpx/">
            <visugpx:node>25</visugpx:node>
            </visugpx:TrkExtension>
        </extensions>
      </trkpt>
      <trkpt lat="50.58385" lon="2.67615">
        <ele>19</ele>
      </trkpt>
      <trkpt lat="50.58375" lon="2.67649">
        <ele>19</ele>
      </trkpt>
      <trkpt lat="50.58358" lon="2.67703">
        <ele>19</ele>
      </trkpt>
      <trkpt lat="50.58349" lon="2.67736">
        <ele>19</ele>
      </trkpt>
      <trkpt lat="50.58342" lon="2.67758">
        <ele>19</ele>
      </trkpt>
      <trkpt lat="50.58337" lon="2.67778">
        <ele>19</ele>
      </trkpt>
      <trkpt lat="50.58331" lon="2.67791">
        <ele>19</ele>
      </trkpt>
      <trkpt lat="50.58326" lon="2.67787">
        <ele>19</ele>
      </trkpt>
      <trkpt lat="50.5832" lon="2.67782">
        <ele>19</ele>
      </trkpt>
      <trkpt lat="50.58309" lon="2.67772">
        <ele>19</ele>
      </trkpt>
      <trkpt lat="50.58301" lon="2.67763">
        <ele>19</ele>
      </trkpt>
      <trkpt lat="50.58293" lon="2.67754">
        <ele>19</ele>
      </trkpt>
      <trkpt lat="50.58285" lon="2.67744">
        <ele>19</ele>
      </trkpt>
      <trkpt lat="50.58275" lon="2.67728">
        <ele>19</ele>
      </trkpt>
      <trkpt lat="50.58263" lon="2.67707">
        <ele>19</ele>
      </trkpt>
      <trkpt lat="50.58257" lon="2.67698">
        <ele>19</ele>
      </trkpt>
      <trkpt lat="50.5825" lon="2.67687">
        <ele>19</ele>
      </trkpt>
      <trkpt lat="50.5825" lon="2.67687">
        <ele>19</ele>
      </trkpt>
      <trkpt lat="50.58237" lon="2.67664">
        <ele>19.5</ele>
      </trkpt>
      <trkpt lat="50.58225" lon="2.67644">
        <ele>20</ele>
      </trkpt>
      <trkpt lat="50.58209" lon="2.67622">
        <ele>20</ele>
      </trkpt>
      <trkpt lat="50.58199" lon="2.67608">
        <ele>19.9</ele>
      </trkpt>
      <trkpt lat="50.58183" lon="2.67588">
        <ele>19.1</ele>
      </trkpt>
      <trkpt lat="50.58176" lon="2.67579">
        <ele>19</ele>
      </trkpt>
      <trkpt lat="50.58171" lon="2.67573">
        <ele>19</ele>
      </trkpt>
      <trkpt lat="50.58168" lon="2.67582">
        <ele>19</ele>
      </trkpt>
      <trkpt lat="50.58164" lon="2.67591">
        <ele>19</ele>
      </trkpt>
      <trkpt lat="50.58157" lon="2.67619">
        <ele>19</ele>
      </trkpt>
      <trkpt lat="50.58145" lon="2.67675">
        <ele>19.8</ele>
      </trkpt>
      <trkpt lat="50.5813" lon="2.67752">
        <ele>19</ele>
      </trkpt>
      <trkpt lat="50.58119" lon="2.67823">
        <ele>19</ele>
        <extensions>
          <visugpx:TrkExtension xmlns:visugpx="https://www.visugpx.com/editgpx/">
            <visugpx:node>26</visugpx:node>
            </visugpx:TrkExtension>
        </extensions>
      </trkpt>
      <trkpt lat="50.58118" lon="2.67831">
        <ele>19</ele>
      </trkpt>
      <trkpt lat="50.58116" lon="2.67851">
        <ele>19</ele>
      </trkpt>
      <trkpt lat="50.58116" lon="2.67868">
        <ele>19</ele>
      </trkpt>
      <trkpt lat="50.58117" lon="2.67885">
        <ele>19</ele>
      </trkpt>
      <trkpt lat="50.58119" lon="2.67898">
        <ele>18.8</ele>
      </trkpt>
      <trkpt lat="50.58124" lon="2.67915">
        <ele>18.5</ele>
      </trkpt>
      <trkpt lat="50.58133" lon="2.6794">
        <ele>19</ele>
      </trkpt>
      <trkpt lat="50.58139" lon="2.6795">
        <ele>19</ele>
      </trkpt>
      <trkpt lat="50.58161" lon="2.67987">
        <ele>19</ele>
      </trkpt>
      <trkpt lat="50.58172" lon="2.68007">
        <ele>19</ele>
      </trkpt>
      <trkpt lat="50.58176" lon="2.68016">
        <ele>19</ele>
      </trkpt>
      <trkpt lat="50.58177" lon="2.68023">
        <ele>19</ele>
      </trkpt>
      <trkpt lat="50.58176" lon="2.68029">
        <ele>19</ele>
      </trkpt>
      <trkpt lat="50.58176" lon="2.68036">
        <ele>19</ele>
      </trkpt>
      <trkpt lat="50.58171" lon="2.68047">
        <ele>19</ele>
      </trkpt>
      <trkpt lat="50.58163" lon="2.68062">
        <ele>19</ele>
      </trkpt>
      <trkpt lat="50.58153" lon="2.68078">
        <ele>19</ele>
      </trkpt>
      <trkpt lat="50.58138" lon="2.68096">
        <ele>19</ele>
      </trkpt>
      <trkpt lat="50.58116" lon="2.68123">
        <ele>19</ele>
      </trkpt>
      <trkpt lat="50.58091" lon="2.68152">
        <ele>19</ele>
      </trkpt>
      <trkpt lat="50.58086" lon="2.6816">
        <ele>19</ele>
      </trkpt>
      <trkpt lat="50.58085" lon="2.68167">
        <ele>19</ele>
      </trkpt>
      <trkpt lat="50.58085" lon="2.68173">
        <ele>19</ele>
      </trkpt>
      <trkpt lat="50.58094" lon="2.68189">
        <ele>19</ele>
      </trkpt>
      <trkpt lat="50.58121" lon="2.68225">
        <ele>19</ele>
      </trkpt>
      <trkpt lat="50.58182" lon="2.68307">
        <ele>19</ele>
      </trkpt>
      <trkpt lat="50.58194" lon="2.68323">
        <ele>19</ele>
      </trkpt>
      <trkpt lat="50.58252" lon="2.68398">
        <ele>19</ele>
      </trkpt>
      <trkpt lat="50.58269" lon="2.68422">
        <ele>19</ele>
      </trkpt>
      <trkpt lat="50.58278" lon="2.68437">
        <ele>19</ele>
      </trkpt>
      <trkpt lat="50.58286" lon="2.68453">
        <ele>19</ele>
      </trkpt>
      <trkpt lat="50.58297" lon="2.68477">
        <ele>19</ele>
      </trkpt>
      <trkpt lat="50.58306" lon="2.68502">
        <ele>19</ele>
      </trkpt>
      <trkpt lat="50.58315" lon="2.68524">
        <ele>19</ele>
      </trkpt>
      <trkpt lat="50.58333" lon="2.6858">
        <ele>19</ele>
      </trkpt>
      <trkpt lat="50.58334" lon="2.68592">
        <ele>19</ele>
      </trkpt>
      <trkpt lat="50.58333" lon="2.68598">
        <ele>19</ele>
      </trkpt>
      <trkpt lat="50.58332" lon="2.68604">
        <ele>19</ele>
      </trkpt>
      <trkpt lat="50.58328" lon="2.6861">
        <ele>19</ele>
      </trkpt>
      <trkpt lat="50.58324" lon="2.68614">
        <ele>19</ele>
      </trkpt>
      <trkpt lat="50.58311" lon="2.68622">
        <ele>19</ele>
      </trkpt>
      <trkpt lat="50.58325" lon="2.68663">
        <ele>19</ele>
      </trkpt>
      <trkpt lat="50.58328" lon="2.68673">
        <ele>19</ele>
      </trkpt>
      <trkpt lat="50.58352" lon="2.68751">
        <ele>19</ele>
      </trkpt>
      <trkpt lat="50.58379" lon="2.68833">
        <ele>19</ele>
      </trkpt>
      <trkpt lat="50.58382" lon="2.68845">
        <ele>19</ele>
      </trkpt>
      <trkpt lat="50.58385" lon="2.68853">
        <ele>19</ele>
      </trkpt>
      <trkpt lat="50.58403" lon="2.68901">
        <ele>19</ele>
      </trkpt>
      <trkpt lat="50.58422" lon="2.68946">
        <ele>19</ele>
      </trkpt>
      <trkpt lat="50.58431" lon="2.68965">
        <ele>19</ele>
      </trkpt>
      <trkpt lat="50.58444" lon="2.68993">
        <ele>19</ele>
      </trkpt>
      <trkpt lat="50.58477" lon="2.69053">
        <ele>19</ele>
      </trkpt>
      <trkpt lat="50.58508" lon="2.69102">
        <ele>19</ele>
      </trkpt>
      <trkpt lat="50.58536" lon="2.69149">
        <ele>18.9</ele>
      </trkpt>
      <trkpt lat="50.5854" lon="2.69157">
        <ele>18.7</ele>
      </trkpt>
      <trkpt lat="50.58557" lon="2.6918">
        <ele>18.5</ele>
      </trkpt>
      <trkpt lat="50.58564" lon="2.69185">
        <ele>18.8</ele>
      </trkpt>
      <trkpt lat="50.58569" lon="2.6919">
        <ele>18.9</ele>
      </trkpt>
      <trkpt lat="50.58595" lon="2.69215">
        <ele>19</ele>
      </trkpt>
      <trkpt lat="50.58614" lon="2.69232">
        <ele>19</ele>
      </trkpt>
      <trkpt lat="50.58646" lon="2.6926">
        <ele>18.3</ele>
      </trkpt>
      <trkpt lat="50.58675" lon="2.69285">
        <ele>18.2</ele>
      </trkpt>
      <trkpt lat="50.58682" lon="2.69292">
        <ele>18.2</ele>
      </trkpt>
      <trkpt lat="50.58708" lon="2.69319">
        <ele>18.2</ele>
      </trkpt>
      <trkpt lat="50.58732" lon="2.69347">
        <ele>18.3</ele>
      </trkpt>
      <trkpt lat="50.58738" lon="2.69355">
        <ele>18.3</ele>
      </trkpt>
      <trkpt lat="50.58755" lon="2.69379">
        <ele>18.6</ele>
      </trkpt>
      <trkpt lat="50.58775" lon="2.69412">
        <ele>19</ele>
      </trkpt>
      <trkpt lat="50.58782" lon="2.69427">
        <ele>19</ele>
      </trkpt>
      <trkpt lat="50.58786" lon="2.69436">
        <ele>19</ele>
      </trkpt>
      <trkpt lat="50.58809" lon="2.69494">
        <ele>19.8</ele>
      </trkpt>
      <trkpt lat="50.58827" lon="2.69545">
        <ele>19.2</ele>
      </trkpt>
      <trkpt lat="50.5883" lon="2.69559">
        <ele>19.1</ele>
        <extensions>
          <visugpx:TrkExtension xmlns:visugpx="https://www.visugpx.com/editgpx/">
            <visugpx:node>27</visugpx:node>
            </visugpx:TrkExtension>
        </extensions>
      </trkpt>
      <trkpt lat="50.58835" lon="2.69577">
        <ele>19</ele>
      </trkpt>
      <trkpt lat="50.58844" lon="2.69609">
        <ele>19</ele>
      </trkpt>
      <trkpt lat="50.58849" lon="2.69628">
        <ele>19.6</ele>
      </trkpt>
      <trkpt lat="50.58866" lon="2.69697">
        <ele>20</ele>
      </trkpt>
      <trkpt lat="50.5888" lon="2.69752">
        <ele>19</ele>
      </trkpt>
      <trkpt lat="50.58886" lon="2.6979">
        <ele>19.1</ele>
      </trkpt>
      <trkpt lat="50.58888" lon="2.69799">
        <ele>19</ele>
      </trkpt>
      <trkpt lat="50.58895" lon="2.69831">
        <ele>19</ele>
      </trkpt>
      <trkpt lat="50.58904" lon="2.69871">
        <ele>19.5</ele>
      </trkpt>
      <trkpt lat="50.58912" lon="2.6991">
        <ele>20</ele>
      </trkpt>
      <trkpt lat="50.58915" lon="2.69921">
        <ele>20</ele>
      </trkpt>
      <trkpt lat="50.58936" lon="2.70012">
        <ele>19</ele>
      </trkpt>
      <trkpt lat="50.58942" lon="2.70038">
        <ele>19</ele>
      </trkpt>
      <trkpt lat="50.58933" lon="2.70044">
        <ele>19</ele>
      </trkpt>
      <trkpt lat="50.58916" lon="2.70048">
        <ele>19</ele>
      </trkpt>
      <trkpt lat="50.58889" lon="2.70053">
        <ele>19.1</ele>
      </trkpt>
      <trkpt lat="50.58863" lon="2.70055">
        <ele>19</ele>
      </trkpt>
      <trkpt lat="50.58851" lon="2.70055">
        <ele>19</ele>
      </trkpt>
      <trkpt lat="50.58823" lon="2.70058">
        <ele>18.6</ele>
      </trkpt>
      <trkpt lat="50.58813" lon="2.70058">
        <ele>18.3</ele>
      </trkpt>
      <trkpt lat="50.58804" lon="2.70061">
        <ele>18.1</ele>
      </trkpt>
      <trkpt lat="50.58794" lon="2.70064">
        <ele>18.5</ele>
      </trkpt>
      <trkpt lat="50.58788" lon="2.70066">
        <ele>18.9</ele>
      </trkpt>
      <trkpt lat="50.58774" lon="2.70072">
        <ele>19.6</ele>
      </trkpt>
      <trkpt lat="50.58751" lon="2.70083">
        <ele>20</ele>
      </trkpt>
      <trkpt lat="50.5874" lon="2.7009">
        <ele>19.8</ele>
      </trkpt>
      <trkpt lat="50.5873" lon="2.70097">
        <ele>19.9</ele>
      </trkpt>
      <trkpt lat="50.58723" lon="2.70102">
        <ele>20</ele>
      </trkpt>
      <trkpt lat="50.58709" lon="2.70114">
        <ele>20</ele>
      </trkpt>
      <trkpt lat="50.58704" lon="2.7012">
        <ele>20</ele>
      </trkpt>
      <trkpt lat="50.587" lon="2.70125">
        <ele>20</ele>
      </trkpt>
      <trkpt lat="50.58683" lon="2.70144">
        <ele>20</ele>
      </trkpt>
      <trkpt lat="50.58643" lon="2.70193">
        <ele>20</ele>
      </trkpt>
      <trkpt lat="50.58633" lon="2.70205">
        <ele>19.9</ele>
      </trkpt>
      <trkpt lat="50.58613" lon="2.70229">
        <ele>19.1</ele>
      </trkpt>
      <trkpt lat="50.58595" lon="2.7025">
        <ele>19</ele>
      </trkpt>
      <trkpt lat="50.58592" lon="2.70253">
        <ele>19</ele>
      </trkpt>
      <trkpt lat="50.58589" lon="2.70257">
        <ele>19</ele>
      </trkpt>
      <trkpt lat="50.58559" lon="2.70286">
        <ele>19</ele>
      </trkpt>
      <trkpt lat="50.58544" lon="2.70305">
        <ele>19</ele>
      </trkpt>
      <trkpt lat="50.58531" lon="2.70322">
        <ele>19</ele>
      </trkpt>
      <trkpt lat="50.58527" lon="2.70328">
        <ele>19</ele>
      </trkpt>
      <trkpt lat="50.58506" lon="2.70359">
        <ele>19</ele>
      </trkpt>
      <trkpt lat="50.5847" lon="2.70415">
        <ele>19</ele>
      </trkpt>
      <trkpt lat="50.58461" lon="2.70425">
        <ele>19</ele>
      </trkpt>
      <trkpt lat="50.58459" lon="2.70428">
        <ele>19</ele>
      </trkpt>
      <trkpt lat="50.58457" lon="2.70432">
        <ele>19</ele>
      </trkpt>
      <trkpt lat="50.58436" lon="2.70459">
        <ele>19</ele>
      </trkpt>
      <trkpt lat="50.58419" lon="2.70483">
        <ele>19</ele>
      </trkpt>
      <trkpt lat="50.58413" lon="2.70496">
        <ele>19</ele>
      </trkpt>
      <trkpt lat="50.58399" lon="2.70527">
        <ele>19</ele>
      </trkpt>
      <trkpt lat="50.58394" lon="2.7054">
        <ele>19</ele>
      </trkpt>
      <trkpt lat="50.58392" lon="2.70543">
        <ele>19</ele>
      </trkpt>
      <trkpt lat="50.58386" lon="2.70552">
        <ele>19</ele>
      </trkpt>
      <trkpt lat="50.58372" lon="2.70572">
        <ele>19</ele>
      </trkpt>
      <trkpt lat="50.58369" lon="2.70577">
        <ele>19</ele>
      </trkpt>
      <trkpt lat="50.58339" lon="2.70615">
        <ele>19</ele>
        <extensions>
          <visugpx:TrkExtension xmlns:visugpx="https://www.visugpx.com/editgpx/">
            <visugpx:node>28</visugpx:node>
            </visugpx:TrkExtension>
        </extensions>
      </trkpt>
      <trkpt lat="50.58308" lon="2.70653">
        <ele>19</ele>
      </trkpt>
      <trkpt lat="50.58301" lon="2.70663">
        <ele>19</ele>
      </trkpt>
      <trkpt lat="50.58279" lon="2.70691">
        <ele>19</ele>
      </trkpt>
      <trkpt lat="50.58235" lon="2.70747">
        <ele>20</ele>
      </trkpt>
      <trkpt lat="50.58228" lon="2.70759">
        <ele>19.9</ele>
      </trkpt>
      <trkpt lat="50.58225" lon="2.70773">
        <ele>19.9</ele>
      </trkpt>
      <trkpt lat="50.58224" lon="2.70787">
        <ele>19.9</ele>
      </trkpt>
      <trkpt lat="50.58224" lon="2.70816">
        <ele>19.6</ele>
      </trkpt>
      <trkpt lat="50.58225" lon="2.70825">
        <ele>19.3</ele>
      </trkpt>
      <trkpt lat="50.58222" lon="2.70858">
        <ele>19</ele>
      </trkpt>
      <trkpt lat="50.58216" lon="2.70878">
        <ele>19.1</ele>
      </trkpt>
      <trkpt lat="50.58215" lon="2.70882">
        <ele>19.1</ele>
      </trkpt>
      <trkpt lat="50.58211" lon="2.70891">
        <ele>19</ele>
      </trkpt>
      <trkpt lat="50.58205" lon="2.70904">
        <ele>19</ele>
      </trkpt>
      <trkpt lat="50.58201" lon="2.70912">
        <ele>19</ele>
      </trkpt>
      <trkpt lat="50.58193" lon="2.70908">
        <ele>19</ele>
      </trkpt>
      <trkpt lat="50.58188" lon="2.70907">
        <ele>19</ele>
      </trkpt>
      <trkpt lat="50.58171" lon="2.70907">
        <ele>19</ele>
      </trkpt>
      <trkpt lat="50.58142" lon="2.70908">
        <ele>19</ele>
      </trkpt>
      <trkpt lat="50.58136" lon="2.70908">
        <ele>19</ele>
      </trkpt>
      <trkpt lat="50.58093" lon="2.7091">
        <ele>19</ele>
      </trkpt>
      <trkpt lat="50.58088" lon="2.70912">
        <ele>19</ele>
      </trkpt>
      <trkpt lat="50.58084" lon="2.70916">
        <ele>19</ele>
      </trkpt>
      <trkpt lat="50.58076" lon="2.70931">
        <ele>19</ele>
      </trkpt>
      <trkpt lat="50.58045" lon="2.70991">
        <ele>19.4</ele>
      </trkpt>
      <trkpt lat="50.58033" lon="2.71013">
        <ele>19.2</ele>
      </trkpt>
      <trkpt lat="50.58019" lon="2.71037">
        <ele>19</ele>
      </trkpt>
      <trkpt lat="50.58014" lon="2.71047">
        <ele>19</ele>
      </trkpt>
      <trkpt lat="50.5801" lon="2.71054">
        <ele>19</ele>
      </trkpt>
      <trkpt lat="50.57994" lon="2.71089">
        <ele>19.2</ele>
      </trkpt>
      <trkpt lat="50.57991" lon="2.71095">
        <ele>19.3</ele>
      </trkpt>
      <trkpt lat="50.57987" lon="2.71109">
        <ele>19.5</ele>
      </trkpt>
      <trkpt lat="50.57982" lon="2.71122">
        <ele>19.4</ele>
      </trkpt>
      <trkpt lat="50.57976" lon="2.71137">
        <ele>19.1</ele>
      </trkpt>
      <trkpt lat="50.57974" lon="2.7114">
        <ele>19.1</ele>
      </trkpt>
      <trkpt lat="50.5797" lon="2.71153">
        <ele>19.1</ele>
      </trkpt>
      <trkpt lat="50.57965" lon="2.71167">
        <ele>19.3</ele>
      </trkpt>
      <trkpt lat="50.57962" lon="2.71182">
        <ele>19.7</ele>
      </trkpt>
      <trkpt lat="50.57959" lon="2.71195">
        <ele>20</ele>
      </trkpt>
      <trkpt lat="50.57956" lon="2.7121">
        <ele>20</ele>
      </trkpt>
      <trkpt lat="50.57953" lon="2.71227">
        <ele>19.9</ele>
      </trkpt>
      <trkpt lat="50.57952" lon="2.71231">
        <ele>19.8</ele>
      </trkpt>
      <trkpt lat="50.57948" lon="2.71253">
        <ele>19.1</ele>
      </trkpt>
      <trkpt lat="50.57943" lon="2.71272">
        <ele>19</ele>
      </trkpt>
      <trkpt lat="50.5794" lon="2.71287">
        <ele>19</ele>
      </trkpt>
      <trkpt lat="50.57937" lon="2.71297">
        <ele>19</ele>
      </trkpt>
      <trkpt lat="50.57931" lon="2.71323">
        <ele>19.3</ele>
      </trkpt>
      <trkpt lat="50.5793" lon="2.71334">
        <ele>19.5</ele>
      </trkpt>
      <trkpt lat="50.57929" lon="2.71334">
        <ele>19.4</ele>
      </trkpt>
      <trkpt lat="50.57927" lon="2.71335">
        <ele>19.4</ele>
      </trkpt>
      <trkpt lat="50.57927" lon="2.71337">
        <ele>19.4</ele>
      </trkpt>
      <trkpt lat="50.57926" lon="2.71339">
        <ele>19.3</ele>
      </trkpt>
      <trkpt lat="50.57926" lon="2.71342">
        <ele>19.3</ele>
      </trkpt>
      <trkpt lat="50.57927" lon="2.71343">
        <ele>19.4</ele>
      </trkpt>
      <trkpt lat="50.57922" lon="2.71352">
        <ele>19.2</ele>
      </trkpt>
      <trkpt lat="50.5792" lon="2.71358">
        <ele>19.1</ele>
      </trkpt>
      <trkpt lat="50.57906" lon="2.71393">
        <ele>19.1</ele>
      </trkpt>
      <trkpt lat="50.57886" lon="2.7145">
        <ele>19.2</ele>
      </trkpt>
      <trkpt lat="50.57878" lon="2.7147">
        <ele>19.6</ele>
      </trkpt>
      <trkpt lat="50.57871" lon="2.71488">
        <ele>19.4</ele>
      </trkpt>
      <trkpt lat="50.57866" lon="2.71502">
        <ele>19.2</ele>
      </trkpt>
      <trkpt lat="50.57861" lon="2.71517">
        <ele>19</ele>
      </trkpt>
      <trkpt lat="50.57857" lon="2.71533">
        <ele>19.2</ele>
      </trkpt>
      <trkpt lat="50.57851" lon="2.71555">
        <ele>19.6</ele>
      </trkpt>
      <trkpt lat="50.57846" lon="2.71575">
        <ele>19.5</ele>
      </trkpt>
      <trkpt lat="50.57842" lon="2.71593">
        <ele>19.3</ele>
      </trkpt>
      <trkpt lat="50.5784" lon="2.71601">
        <ele>19.2</ele>
      </trkpt>
      <trkpt lat="50.57838" lon="2.7161">
        <ele>19.2</ele>
      </trkpt>
      <trkpt lat="50.57832" lon="2.7163">
        <ele>19</ele>
      </trkpt>
      <trkpt lat="50.57824" lon="2.71652">
        <ele>19.2</ele>
      </trkpt>
      <trkpt lat="50.57816" lon="2.71678">
        <ele>19</ele>
      </trkpt>
      <trkpt lat="50.57814" lon="2.71684">
        <ele>19</ele>
      </trkpt>
      <trkpt lat="50.57804" lon="2.71716">
        <ele>19.1</ele>
      </trkpt>
      <trkpt lat="50.57793" lon="2.71747">
        <ele>19.9</ele>
      </trkpt>
      <trkpt lat="50.57788" lon="2.7176">
        <ele>20</ele>
      </trkpt>
      <trkpt lat="50.57784" lon="2.7177">
        <ele>20</ele>
      </trkpt>
      <trkpt lat="50.57779" lon="2.71781">
        <ele>20</ele>
      </trkpt>
      <trkpt lat="50.57772" lon="2.71795">
        <ele>20</ele>
      </trkpt>
      <trkpt lat="50.57766" lon="2.71808">
        <ele>20</ele>
      </trkpt>
      <trkpt lat="50.57759" lon="2.71821">
        <ele>20</ele>
      </trkpt>
      <trkpt lat="50.57753" lon="2.71831">
        <ele>20</ele>
      </trkpt>
      <trkpt lat="50.57746" lon="2.71842">
        <ele>19.9</ele>
      </trkpt>
      <trkpt lat="50.57738" lon="2.71853">
        <ele>19.6</ele>
      </trkpt>
      <trkpt lat="50.5773" lon="2.71864">
        <ele>19.4</ele>
      </trkpt>
      <trkpt lat="50.57723" lon="2.71873">
        <ele>19.4</ele>
      </trkpt>
      <trkpt lat="50.57714" lon="2.71884">
        <ele>19.9</ele>
      </trkpt>
      <trkpt lat="50.57706" lon="2.71896">
        <ele>20</ele>
      </trkpt>
      <trkpt lat="50.57703" lon="2.71901">
        <ele>20</ele>
        <extensions>
          <visugpx:TrkExtension xmlns:visugpx="https://www.visugpx.com/editgpx/">
            <visugpx:node>29</visugpx:node>
            </visugpx:TrkExtension>
        </extensions>
      </trkpt>
      <trkpt lat="50.57696" lon="2.71913">
        <ele>20</ele>
      </trkpt>
      <trkpt lat="50.57687" lon="2.71926">
        <ele>20</ele>
      </trkpt>
      <trkpt lat="50.57681" lon="2.71935">
        <ele>20</ele>
      </trkpt>
      <trkpt lat="50.57664" lon="2.71967">
        <ele>19.9</ele>
      </trkpt>
      <trkpt lat="50.57659" lon="2.71976">
        <ele>19.8</ele>
      </trkpt>
      <trkpt lat="50.57655" lon="2.71983">
        <ele>19.7</ele>
      </trkpt>
      <trkpt lat="50.57647" lon="2.71996">
        <ele>19.9</ele>
      </trkpt>
      <trkpt lat="50.57641" lon="2.72008">
        <ele>20</ele>
      </trkpt>
      <trkpt lat="50.57637" lon="2.72017">
        <ele>20</ele>
      </trkpt>
      <trkpt lat="50.57633" lon="2.72026">
        <ele>20</ele>
      </trkpt>
      <trkpt lat="50.57628" lon="2.72039">
        <ele>20</ele>
      </trkpt>
      <trkpt lat="50.57624" lon="2.72049">
        <ele>20</ele>
      </trkpt>
      <trkpt lat="50.57622" lon="2.72054">
        <ele>20</ele>
      </trkpt>
      <trkpt lat="50.5762" lon="2.72062">
        <ele>20</ele>
      </trkpt>
      <trkpt lat="50.57614" lon="2.72086">
        <ele>20</ele>
      </trkpt>
      <trkpt lat="50.57611" lon="2.72098">
        <ele>20</ele>
      </trkpt>
      <trkpt lat="50.57608" lon="2.72109">
        <ele>20</ele>
      </trkpt>
      <trkpt lat="50.57605" lon="2.7212">
        <ele>20</ele>
      </trkpt>
      <trkpt lat="50.57601" lon="2.72132">
        <ele>20</ele>
      </trkpt>
      <trkpt lat="50.57598" lon="2.72141">
        <ele>20</ele>
      </trkpt>
      <trkpt lat="50.57595" lon="2.7215">
        <ele>20</ele>
      </trkpt>
      <trkpt lat="50.57592" lon="2.7216">
        <ele>20</ele>
      </trkpt>
      <trkpt lat="50.57587" lon="2.7217">
        <ele>20</ele>
      </trkpt>
      <trkpt lat="50.57583" lon="2.7218">
        <ele>20</ele>
      </trkpt>
      <trkpt lat="50.57578" lon="2.72191">
        <ele>19.8</ele>
      </trkpt>
      <trkpt lat="50.57573" lon="2.72201">
        <ele>19.5</ele>
      </trkpt>
      <trkpt lat="50.5757" lon="2.72209">
        <ele>19.2</ele>
      </trkpt>
      <trkpt lat="50.57568" lon="2.72211">
        <ele>19.2</ele>
      </trkpt>
      <trkpt lat="50.57563" lon="2.7222">
        <ele>19</ele>
      </trkpt>
      <trkpt lat="50.57558" lon="2.72228">
        <ele>19</ele>
      </trkpt>
      <trkpt lat="50.57554" lon="2.72237">
        <ele>19.1</ele>
      </trkpt>
      <trkpt lat="50.57549" lon="2.72245">
        <ele>19.2</ele>
      </trkpt>
      <trkpt lat="50.57544" lon="2.72252">
        <ele>19.4</ele>
      </trkpt>
      <trkpt lat="50.57537" lon="2.7226">
        <ele>19.4</ele>
      </trkpt>
      <trkpt lat="50.57529" lon="2.7227">
        <ele>19.3</ele>
      </trkpt>
      <trkpt lat="50.57518" lon="2.72282">
        <ele>19</ele>
      </trkpt>
      <trkpt lat="50.57506" lon="2.72296">
        <ele>19</ele>
      </trkpt>
      <trkpt lat="50.57494" lon="2.7231">
        <ele>19</ele>
      </trkpt>
      <trkpt lat="50.57488" lon="2.72317">
        <ele>19</ele>
      </trkpt>
      <trkpt lat="50.57482" lon="2.72325">
        <ele>19</ele>
      </trkpt>
      <trkpt lat="50.57474" lon="2.72337">
        <ele>19</ele>
      </trkpt>
      <trkpt lat="50.5747" lon="2.72344">
        <ele>19</ele>
      </trkpt>
      <trkpt lat="50.57469" lon="2.72346">
        <ele>19</ele>
      </trkpt>
      <trkpt lat="50.57463" lon="2.72357">
        <ele>19</ele>
      </trkpt>
      <trkpt lat="50.57458" lon="2.72366">
        <ele>19</ele>
      </trkpt>
      <trkpt lat="50.57455" lon="2.72372">
        <ele>19</ele>
      </trkpt>
      <trkpt lat="50.57455" lon="2.72373">
        <ele>19</ele>
      </trkpt>
      <trkpt lat="50.57451" lon="2.72382">
        <ele>19</ele>
      </trkpt>
      <trkpt lat="50.57446" lon="2.72396">
        <ele>19</ele>
      </trkpt>
      <trkpt lat="50.57442" lon="2.72406">
        <ele>19</ele>
      </trkpt>
      <trkpt lat="50.57438" lon="2.72415">
        <ele>19</ele>
      </trkpt>
      <trkpt lat="50.57435" lon="2.72427">
        <ele>19.1</ele>
      </trkpt>
      <trkpt lat="50.57431" lon="2.72437">
        <ele>19.4</ele>
      </trkpt>
      <trkpt lat="50.57428" lon="2.72446">
        <ele>19.6</ele>
      </trkpt>
      <trkpt lat="50.57425" lon="2.72459">
        <ele>19.3</ele>
      </trkpt>
      <trkpt lat="50.57423" lon="2.72471">
        <ele>19</ele>
      </trkpt>
      <trkpt lat="50.5742" lon="2.72494">
        <ele>19.7</ele>
      </trkpt>
      <trkpt lat="50.57419" lon="2.72503">
        <ele>19.9</ele>
      </trkpt>
      <trkpt lat="50.57419" lon="2.7251">
        <ele>19.9</ele>
      </trkpt>
      <trkpt lat="50.57414" lon="2.72557">
        <ele>20</ele>
      </trkpt>
      <trkpt lat="50.57412" lon="2.72578">
        <ele>20</ele>
      </trkpt>
      <trkpt lat="50.5741" lon="2.72597">
        <ele>20</ele>
      </trkpt>
      <trkpt lat="50.57407" lon="2.72622">
        <ele>20</ele>
      </trkpt>
      <trkpt lat="50.57403" lon="2.72641">
        <ele>20</ele>
      </trkpt>
      <trkpt lat="50.57401" lon="2.72658">
        <ele>20</ele>
      </trkpt>
      <trkpt lat="50.57393" lon="2.72699">
        <ele>20</ele>
      </trkpt>
      <trkpt lat="50.57388" lon="2.72727">
        <ele>20</ele>
      </trkpt>
      <trkpt lat="50.57384" lon="2.72742">
        <ele>20</ele>
      </trkpt>
      <trkpt lat="50.5738" lon="2.72758">
        <ele>20</ele>
      </trkpt>
      <trkpt lat="50.57377" lon="2.72773">
        <ele>20</ele>
      </trkpt>
      <trkpt lat="50.57373" lon="2.72789">
        <ele>20</ele>
      </trkpt>
      <trkpt lat="50.57369" lon="2.72805">
        <ele>20</ele>
      </trkpt>
      <trkpt lat="50.57365" lon="2.7283">
        <ele>20</ele>
      </trkpt>
      <trkpt lat="50.57364" lon="2.72834">
        <ele>20</ele>
      </trkpt>
      <trkpt lat="50.57362" lon="2.72843">
        <ele>20</ele>
      </trkpt>
      <trkpt lat="50.5736" lon="2.72859">
        <ele>20</ele>
      </trkpt>
      <trkpt lat="50.57358" lon="2.7287">
        <ele>20</ele>
      </trkpt>
      <trkpt lat="50.57358" lon="2.72875">
        <ele>20</ele>
      </trkpt>
      <trkpt lat="50.57354" lon="2.72913">
        <ele>20</ele>
      </trkpt>
      <trkpt lat="50.57351" lon="2.72942">
        <ele>20</ele>
      </trkpt>
      <trkpt lat="50.57351" lon="2.72942">
        <ele>20</ele>
      </trkpt>
      <trkpt lat="50.57348" lon="2.72962">
        <ele>20</ele>
      </trkpt>
      <trkpt lat="50.57345" lon="2.72988">
        <ele>19.8</ele>
      </trkpt>
      <trkpt lat="50.57341" lon="2.73015">
        <ele>19.5</ele>
      </trkpt>
      <trkpt lat="50.57338" lon="2.73034">
        <ele>19.2</ele>
      </trkpt>
      <trkpt lat="50.57336" lon="2.73048">
        <ele>19.1</ele>
      </trkpt>
      <trkpt lat="50.57334" lon="2.7306">
        <ele>19.2</ele>
      </trkpt>
      <trkpt lat="50.57332" lon="2.73071">
        <ele>19.6</ele>
      </trkpt>
      <trkpt lat="50.57332" lon="2.73082">
        <ele>20</ele>
      </trkpt>
      <trkpt lat="50.57332" lon="2.73096">
        <ele>20</ele>
      </trkpt>
      <trkpt lat="50.57333" lon="2.73108">
        <ele>20</ele>
      </trkpt>
      <trkpt lat="50.57333" lon="2.73113">
        <ele>19.9</ele>
      </trkpt>
      <trkpt lat="50.57335" lon="2.73133">
        <ele>19.2</ele>
      </trkpt>
      <trkpt lat="50.57336" lon="2.73142">
        <ele>19.1</ele>
      </trkpt>
      <trkpt lat="50.57336" lon="2.73155">
        <ele>19.5</ele>
      </trkpt>
      <trkpt lat="50.57337" lon="2.73167">
        <ele>19.9</ele>
      </trkpt>
      <trkpt lat="50.57337" lon="2.7318">
        <ele>19.9</ele>
      </trkpt>
      <trkpt lat="50.57337" lon="2.73197">
        <ele>19.9</ele>
      </trkpt>
      <trkpt lat="50.57337" lon="2.73211">
        <ele>19.9</ele>
      </trkpt>
      <trkpt lat="50.57337" lon="2.73222">
        <ele>19.9</ele>
      </trkpt>
      <trkpt lat="50.57336" lon="2.73241">
        <ele>19.9</ele>
      </trkpt>
      <trkpt lat="50.57333" lon="2.73298">
        <ele>20</ele>
      </trkpt>
      <trkpt lat="50.57333" lon="2.733">
        <ele>20</ele>
      </trkpt>
      <trkpt lat="50.57332" lon="2.7333">
        <ele>20</ele>
      </trkpt>
      <trkpt lat="50.57331" lon="2.73347">
        <ele>20</ele>
      </trkpt>
      <trkpt lat="50.57331" lon="2.73351">
        <ele>20</ele>
      </trkpt>
      <trkpt lat="50.5733" lon="2.73371">
        <ele>19.6</ele>
      </trkpt>
      <trkpt lat="50.5733" lon="2.73387">
        <ele>19.1</ele>
      </trkpt>
      <trkpt lat="50.57329" lon="2.73407">
        <ele>19</ele>
      </trkpt>
      <trkpt lat="50.57329" lon="2.73425">
        <ele>19</ele>
      </trkpt>
      <trkpt lat="50.57329" lon="2.7344">
        <ele>19</ele>
      </trkpt>
      <trkpt lat="50.5733" lon="2.73449">
        <ele>19</ele>
      </trkpt>
      <trkpt lat="50.57331" lon="2.73457">
        <ele>19</ele>
      </trkpt>
      <trkpt lat="50.57333" lon="2.73466">
        <ele>19</ele>
      </trkpt>
      <trkpt lat="50.57336" lon="2.73475">
        <ele>19</ele>
      </trkpt>
      <trkpt lat="50.57339" lon="2.73485">
        <ele>19</ele>
      </trkpt>
      <trkpt lat="50.57351" lon="2.73518">
        <ele>19</ele>
      </trkpt>
      <trkpt lat="50.57359" lon="2.7354">
        <ele>19</ele>
      </trkpt>
      <trkpt lat="50.57363" lon="2.73552">
        <ele>19</ele>
      </trkpt>
      <trkpt lat="50.57369" lon="2.73569">
        <ele>19</ele>
      </trkpt>
      <trkpt lat="50.57376" lon="2.7359">
        <ele>19.2</ele>
      </trkpt>
      <trkpt lat="50.5739" lon="2.73619">
        <ele>20</ele>
      </trkpt>
      <trkpt lat="50.57406" lon="2.73651">
        <ele>20</ele>
      </trkpt>
      <trkpt lat="50.57438" lon="2.73713">
        <ele>20</ele>
      </trkpt>
      <trkpt lat="50.57441" lon="2.73717">
        <ele>20</ele>
      </trkpt>
      <trkpt lat="50.57442" lon="2.7372">
        <ele>20</ele>
      </trkpt>
      <trkpt lat="50.57444" lon="2.73723">
        <ele>20</ele>
      </trkpt>
      <trkpt lat="50.57445" lon="2.73726">
        <ele>20</ele>
      </trkpt>
      <trkpt lat="50.57457" lon="2.73745">
        <ele>19.9</ele>
      </trkpt>
      <trkpt lat="50.5746" lon="2.73752">
        <ele>20</ele>
      </trkpt>
      <trkpt lat="50.57466" lon="2.73762">
        <ele>20</ele>
      </trkpt>
      <trkpt lat="50.57479" lon="2.73789">
        <ele>20</ele>
      </trkpt>
      <trkpt lat="50.57491" lon="2.7381">
        <ele>20</ele>
      </trkpt>
      <trkpt lat="50.57499" lon="2.73824">
        <ele>20</ele>
      </trkpt>
      <trkpt lat="50.57502" lon="2.7383">
        <ele>20</ele>
      </trkpt>
      <trkpt lat="50.57515" lon="2.73847">
        <ele>20</ele>
      </trkpt>
      <trkpt lat="50.57525" lon="2.73862">
        <ele>20</ele>
        <extensions>
          <visugpx:TrkExtension xmlns:visugpx="https://www.visugpx.com/editgpx/">
            <visugpx:node>30</visugpx:node>
            </visugpx:TrkExtension>
        </extensions>
      </trkpt>
      <trkpt lat="50.57543" lon="2.73888">
        <ele>20</ele>
      </trkpt>
      <trkpt lat="50.57576" lon="2.73934">
        <ele>19.3</ele>
      </trkpt>
      <trkpt lat="50.57592" lon="2.73955">
        <ele>19</ele>
      </trkpt>
      <trkpt lat="50.57609" lon="2.73981">
        <ele>19</ele>
      </trkpt>
      <trkpt lat="50.57618" lon="2.73992">
        <ele>19</ele>
      </trkpt>
      <trkpt lat="50.57623" lon="2.74003">
        <ele>19</ele>
      </trkpt>
      <trkpt lat="50.57617" lon="2.7401">
        <ele>19</ele>
      </trkpt>
      <trkpt lat="50.57607" lon="2.74025">
        <ele>19</ele>
      </trkpt>
      <trkpt lat="50.57567" lon="2.74089">
        <ele>19.1</ele>
      </trkpt>
      <trkpt lat="50.57563" lon="2.74094">
        <ele>19.1</ele>
      </trkpt>
      <trkpt lat="50.57467" lon="2.74244">
        <ele>19</ele>
      </trkpt>
      <trkpt lat="50.57439" lon="2.74288">
        <ele>19</ele>
      </trkpt>
      <trkpt lat="50.57425" lon="2.74308">
        <ele>19</ele>
      </trkpt>
      <trkpt lat="50.57424" lon="2.74309">
        <ele>19</ele>
      </trkpt>
      <trkpt lat="50.57417" lon="2.74319">
        <ele>19</ele>
      </trkpt>
      <trkpt lat="50.57405" lon="2.74332">
        <ele>19</ele>
      </trkpt>
      <trkpt lat="50.5739" lon="2.74344">
        <ele>19</ele>
      </trkpt>
      <trkpt lat="50.57353" lon="2.74375">
        <ele>19</ele>
      </trkpt>
      <trkpt lat="50.57302" lon="2.74416">
        <ele>20</ele>
      </trkpt>
      <trkpt lat="50.57259" lon="2.74451">
        <ele>20</ele>
      </trkpt>
      <trkpt lat="50.57254" lon="2.74456">
        <ele>20</ele>
      </trkpt>
      <trkpt lat="50.57246" lon="2.74467">
        <ele>20</ele>
      </trkpt>
      <trkpt lat="50.57244" lon="2.74474">
        <ele>20</ele>
      </trkpt>
      <trkpt lat="50.57244" lon="2.74477">
        <ele>20</ele>
      </trkpt>
      <trkpt lat="50.57243" lon="2.74496">
        <ele>20</ele>
      </trkpt>
      <trkpt lat="50.57246" lon="2.74514">
        <ele>20</ele>
      </trkpt>
      <trkpt lat="50.57253" lon="2.74547">
        <ele>20</ele>
      </trkpt>
      <trkpt lat="50.57258" lon="2.74571">
        <ele>20</ele>
      </trkpt>
      <trkpt lat="50.5726" lon="2.74584">
        <ele>20</ele>
      </trkpt>
      <trkpt lat="50.57292" lon="2.74734">
        <ele>19.3</ele>
      </trkpt>
      <trkpt lat="50.57297" lon="2.74762">
        <ele>19</ele>
      </trkpt>
      <trkpt lat="50.57295" lon="2.74765">
        <ele>19</ele>
      </trkpt>
      <trkpt lat="50.57291" lon="2.74768">
        <ele>19</ele>
      </trkpt>
      <trkpt lat="50.57289" lon="2.74769">
        <ele>19</ele>
      </trkpt>
      <trkpt lat="50.57286" lon="2.74772">
        <ele>19</ele>
      </trkpt>
      <trkpt lat="50.57282" lon="2.74773">
        <ele>19</ele>
      </trkpt>
      <trkpt lat="50.57279" lon="2.74774">
        <ele>19</ele>
      </trkpt>
      <trkpt lat="50.57276" lon="2.74775">
        <ele>19</ele>
      </trkpt>
      <trkpt lat="50.57274" lon="2.74776">
        <ele>19</ele>
      </trkpt>
      <trkpt lat="50.57244" lon="2.74782">
        <ele>19.2</ele>
      </trkpt>
      <trkpt lat="50.57235" lon="2.74783">
        <ele>19.4</ele>
      </trkpt>
      <trkpt lat="50.57226" lon="2.74784">
        <ele>19.7</ele>
      </trkpt>
      <trkpt lat="50.5722" lon="2.74786">
        <ele>19.7</ele>
      </trkpt>
      <trkpt lat="50.57213" lon="2.74789">
        <ele>19.7</ele>
      </trkpt>
      <trkpt lat="50.57209" lon="2.74792">
        <ele>19.7</ele>
      </trkpt>
      <trkpt lat="50.57202" lon="2.74795">
        <ele>19.8</ele>
      </trkpt>
      <trkpt lat="50.57195" lon="2.74799">
        <ele>20</ele>
      </trkpt>
      <trkpt lat="50.57139" lon="2.74848">
        <ele>20.5</ele>
      </trkpt>
      <trkpt lat="50.57126" lon="2.74858">
        <ele>20.9</ele>
      </trkpt>
      <trkpt lat="50.5711" lon="2.74872">
        <ele>21</ele>
      </trkpt>
      <trkpt lat="50.57094" lon="2.74888">
        <ele>21</ele>
      </trkpt>
      <trkpt lat="50.57076" lon="2.74904">
        <ele>21</ele>
      </trkpt>
      <trkpt lat="50.57064" lon="2.74912">
        <ele>21</ele>
      </trkpt>
      <trkpt lat="50.57063" lon="2.74913">
        <ele>21</ele>
        <extensions>
          <visugpx:TrkExtension xmlns:visugpx="https://www.visugpx.com/editgpx/">
            <visugpx:node>31</visugpx:node>
            </visugpx:TrkExtension>
        </extensions>
      </trkpt>
      <trkpt lat="50.57053" lon="2.74921">
        <ele>21</ele>
      </trkpt>
      <trkpt lat="50.57045" lon="2.74925">
        <ele>21</ele>
      </trkpt>
      <trkpt lat="50.57032" lon="2.74931">
        <ele>21</ele>
      </trkpt>
      <trkpt lat="50.57004" lon="2.74944">
        <ele>21</ele>
      </trkpt>
      <trkpt lat="50.56957" lon="2.74965">
        <ele>20.1</ele>
      </trkpt>
      <trkpt lat="50.5695" lon="2.74968">
        <ele>20.1</ele>
      </trkpt>
      <trkpt lat="50.56915" lon="2.74984">
        <ele>20</ele>
      </trkpt>
      <trkpt lat="50.56869" lon="2.75003">
        <ele>20.1</ele>
      </trkpt>
      <trkpt lat="50.56866" lon="2.75005">
        <ele>20.2</ele>
      </trkpt>
      <trkpt lat="50.56842" lon="2.75014">
        <ele>20.5</ele>
      </trkpt>
      <trkpt lat="50.56822" lon="2.75025">
        <ele>20.1</ele>
      </trkpt>
      <trkpt lat="50.56805" lon="2.75037">
        <ele>20.3</ele>
      </trkpt>
      <trkpt lat="50.56782" lon="2.75059">
        <ele>20.2</ele>
      </trkpt>
      <trkpt lat="50.56757" lon="2.7508">
        <ele>20</ele>
      </trkpt>
      <trkpt lat="50.56753" lon="2.75083">
        <ele>20</ele>
      </trkpt>
      <trkpt lat="50.56751" lon="2.75085">
        <ele>20.1</ele>
      </trkpt>
      <trkpt lat="50.56716" lon="2.75115">
        <ele>20.1</ele>
      </trkpt>
      <trkpt lat="50.56646" lon="2.75178">
        <ele>21</ele>
      </trkpt>
      <trkpt lat="50.56621" lon="2.75205">
        <ele>21</ele>
      </trkpt>
      <trkpt lat="50.56612" lon="2.75215">
        <ele>21</ele>
      </trkpt>
      <trkpt lat="50.56605" lon="2.75223">
        <ele>21</ele>
      </trkpt>
      <trkpt lat="50.56573" lon="2.75257">
        <ele>21</ele>
      </trkpt>
      <trkpt lat="50.56534" lon="2.753">
        <ele>21</ele>
      </trkpt>
      <trkpt lat="50.56604" lon="2.75407">
        <ele>21</ele>
      </trkpt>
      <trkpt lat="50.56629" lon="2.75443">
        <ele>21</ele>
      </trkpt>
      <trkpt lat="50.56637" lon="2.75454">
        <ele>21</ele>
      </trkpt>
      <trkpt lat="50.56641" lon="2.7546">
        <ele>21</ele>
      </trkpt>
      <trkpt lat="50.56653" lon="2.75482">
        <ele>20.8</ele>
      </trkpt>
      <trkpt lat="50.56672" lon="2.75517">
        <ele>20.5</ele>
      </trkpt>
      <trkpt lat="50.56714" lon="2.75591">
        <ele>20.5</ele>
      </trkpt>
      <trkpt lat="50.56763" lon="2.75677">
        <ele>20.5</ele>
      </trkpt>
      <trkpt lat="50.56792" lon="2.75729">
        <ele>21</ele>
      </trkpt>
      <trkpt lat="50.56806" lon="2.75759">
        <ele>20.7</ele>
      </trkpt>
      <trkpt lat="50.56807" lon="2.75761">
        <ele>20.6</ele>
      </trkpt>
      <trkpt lat="50.56818" lon="2.75784">
        <ele>20.6</ele>
      </trkpt>
      <trkpt lat="50.5682" lon="2.75789">
        <ele>20.7</ele>
      </trkpt>
      <trkpt lat="50.56832" lon="2.75819">
        <ele>21</ele>
      </trkpt>
      <trkpt lat="50.56852" lon="2.75876">
        <ele>21</ele>
      </trkpt>
      <trkpt lat="50.56861" lon="2.75909">
        <ele>21</ele>
      </trkpt>
      <trkpt lat="50.56862" lon="2.75914">
        <ele>21</ele>
      </trkpt>
      <trkpt lat="50.56879" lon="2.75983">
        <ele>20.8</ele>
      </trkpt>
      <trkpt lat="50.56883" lon="2.75996">
        <ele>20.3</ele>
      </trkpt>
      <trkpt lat="50.56888" lon="2.76017">
        <ele>20.6</ele>
      </trkpt>
      <trkpt lat="50.56895" lon="2.76043">
        <ele>21</ele>
      </trkpt>
      <trkpt lat="50.56903" lon="2.76066">
        <ele>21</ele>
      </trkpt>
      <trkpt lat="50.5691" lon="2.76088">
        <ele>21</ele>
      </trkpt>
      <trkpt lat="50.56917" lon="2.76108">
        <ele>21</ele>
      </trkpt>
      <trkpt lat="50.56925" lon="2.76129">
        <ele>21</ele>
      </trkpt>
      <trkpt lat="50.56933" lon="2.76152">
        <ele>21</ele>
      </trkpt>
      <trkpt lat="50.56942" lon="2.76173">
        <ele>21</ele>
      </trkpt>
      <trkpt lat="50.56948" lon="2.76185">
        <ele>21</ele>
      </trkpt>
      <trkpt lat="50.56951" lon="2.76193">
        <ele>21</ele>
      </trkpt>
      <trkpt lat="50.56959" lon="2.7621">
        <ele>20.7</ele>
      </trkpt>
      <trkpt lat="50.56964" lon="2.7622">
        <ele>20.4</ele>
      </trkpt>
      <trkpt lat="50.56968" lon="2.76227">
        <ele>20.3</ele>
      </trkpt>
      <trkpt lat="50.56977" lon="2.76243">
        <ele>20.8</ele>
      </trkpt>
      <trkpt lat="50.56986" lon="2.76259">
        <ele>20.8</ele>
      </trkpt>
      <trkpt lat="50.56993" lon="2.76273">
        <ele>20.4</ele>
      </trkpt>
      <trkpt lat="50.56999" lon="2.76285">
        <ele>20</ele>
      </trkpt>
      <trkpt lat="50.57004" lon="2.76293">
        <ele>20.1</ele>
      </trkpt>
      <trkpt lat="50.57014" lon="2.76308">
        <ele>20.5</ele>
      </trkpt>
      <trkpt lat="50.57022" lon="2.76326">
        <ele>20.9</ele>
      </trkpt>
      <trkpt lat="50.57028" lon="2.76335">
        <ele>21</ele>
      </trkpt>
      <trkpt lat="50.57031" lon="2.76343">
        <ele>21</ele>
      </trkpt>
      <trkpt lat="50.57039" lon="2.76358">
        <ele>21</ele>
      </trkpt>
      <trkpt lat="50.57046" lon="2.76374">
        <ele>21</ele>
      </trkpt>
      <trkpt lat="50.57056" lon="2.76393">
        <ele>21</ele>
      </trkpt>
      <trkpt lat="50.57064" lon="2.76411">
        <ele>21</ele>
      </trkpt>
      <trkpt lat="50.57071" lon="2.76429">
        <ele>21</ele>
      </trkpt>
      <trkpt lat="50.5708" lon="2.76447">
        <ele>21</ele>
      </trkpt>
      <trkpt lat="50.57089" lon="2.76463">
        <ele>21</ele>
      </trkpt>
      <trkpt lat="50.57097" lon="2.76482">
        <ele>21</ele>
      </trkpt>
      <trkpt lat="50.57103" lon="2.76495">
        <ele>21</ele>
      </trkpt>
      <trkpt lat="50.57104" lon="2.76497">
        <ele>21</ele>
      </trkpt>
      <trkpt lat="50.57114" lon="2.76516">
        <ele>21</ele>
      </trkpt>
      <trkpt lat="50.57121" lon="2.76534">
        <ele>21</ele>
      </trkpt>
      <trkpt lat="50.57123" lon="2.76539">
        <ele>21</ele>
      </trkpt>
      <trkpt lat="50.57125" lon="2.76543">
        <ele>21</ele>
      </trkpt>
      <trkpt lat="50.57133" lon="2.76561">
        <ele>21</ele>
      </trkpt>
      <trkpt lat="50.5714" lon="2.76578">
        <ele>21</ele>
      </trkpt>
      <trkpt lat="50.57148" lon="2.76595">
        <ele>21</ele>
      </trkpt>
      <trkpt lat="50.57155" lon="2.76612">
        <ele>21</ele>
      </trkpt>
      <trkpt lat="50.57163" lon="2.76633">
        <ele>21</ele>
      </trkpt>
      <trkpt lat="50.57172" lon="2.76654">
        <ele>21</ele>
      </trkpt>
      <trkpt lat="50.57182" lon="2.76677">
        <ele>21</ele>
      </trkpt>
      <trkpt lat="50.57185" lon="2.76685">
        <ele>21</ele>
      </trkpt>
      <trkpt lat="50.5719" lon="2.76695">
        <ele>21</ele>
      </trkpt>
      <trkpt lat="50.57196" lon="2.76707">
        <ele>21</ele>
      </trkpt>
      <trkpt lat="50.57203" lon="2.76721">
        <ele>20.7</ele>
      </trkpt>
      <trkpt lat="50.57211" lon="2.76734">
        <ele>20.7</ele>
      </trkpt>
      <trkpt lat="50.57219" lon="2.76748">
        <ele>20.9</ele>
      </trkpt>
      <trkpt lat="50.57226" lon="2.76759">
        <ele>20.9</ele>
      </trkpt>
      <trkpt lat="50.57234" lon="2.76772">
        <ele>20.6</ele>
      </trkpt>
      <trkpt lat="50.57249" lon="2.768">
        <ele>20.8</ele>
      </trkpt>
      <trkpt lat="50.57258" lon="2.76817">
        <ele>20.7</ele>
      </trkpt>
      <trkpt lat="50.57272" lon="2.76843">
        <ele>20.2</ele>
      </trkpt>
      <trkpt lat="50.57275" lon="2.76851">
        <ele>20.1</ele>
      </trkpt>
      <trkpt lat="50.5728" lon="2.76861">
        <ele>20</ele>
      </trkpt>
      <trkpt lat="50.57287" lon="2.76876">
        <ele>20</ele>
      </trkpt>
      <trkpt lat="50.57299" lon="2.76901">
        <ele>20</ele>
      </trkpt>
      <trkpt lat="50.57307" lon="2.76918">
        <ele>20</ele>
      </trkpt>
      <trkpt lat="50.57313" lon="2.7693">
        <ele>20</ele>
      </trkpt>
      <trkpt lat="50.57323" lon="2.76949">
        <ele>20.1</ele>
      </trkpt>
      <trkpt lat="50.57336" lon="2.76978">
        <ele>20.3</ele>
      </trkpt>
      <trkpt lat="50.57346" lon="2.76999">
        <ele>20.5</ele>
      </trkpt>
      <trkpt lat="50.57362" lon="2.77027">
        <ele>21</ele>
      </trkpt>
      <trkpt lat="50.57376" lon="2.77052">
        <ele>21</ele>
      </trkpt>
      <trkpt lat="50.5738" lon="2.77061">
        <ele>20.9</ele>
      </trkpt>
      <trkpt lat="50.57388" lon="2.77078">
        <ele>21</ele>
      </trkpt>
      <trkpt lat="50.57393" lon="2.77088">
        <ele>21</ele>
      </trkpt>
      <trkpt lat="50.57399" lon="2.77102">
        <ele>21</ele>
      </trkpt>
      <trkpt lat="50.57404" lon="2.77114">
        <ele>21</ele>
      </trkpt>
      <trkpt lat="50.57409" lon="2.77128">
        <ele>21.2</ele>
      </trkpt>
      <trkpt lat="50.57413" lon="2.7714">
        <ele>21.1</ele>
      </trkpt>
      <trkpt lat="50.57416" lon="2.77155">
        <ele>20.5</ele>
      </trkpt>
      <trkpt lat="50.5742" lon="2.77169">
        <ele>20.2</ele>
      </trkpt>
      <trkpt lat="50.57424" lon="2.77182">
        <ele>20.7</ele>
      </trkpt>
      <trkpt lat="50.57427" lon="2.77197">
        <ele>21</ele>
      </trkpt>
      <trkpt lat="50.57432" lon="2.77213">
        <ele>20.6</ele>
      </trkpt>
      <trkpt lat="50.57436" lon="2.77225">
        <ele>20.4</ele>
      </trkpt>
      <trkpt lat="50.57437" lon="2.77227">
        <ele>20.4</ele>
      </trkpt>
      <trkpt lat="50.57439" lon="2.77232">
        <ele>20.5</ele>
      </trkpt>
      <trkpt lat="50.5744" lon="2.77237">
        <ele>20.6</ele>
      </trkpt>
      <trkpt lat="50.57441" lon="2.7724">
        <ele>20.7</ele>
      </trkpt>
      <trkpt lat="50.57445" lon="2.77249">
        <ele>20.9</ele>
      </trkpt>
      <trkpt lat="50.57453" lon="2.77266">
        <ele>20.7</ele>
      </trkpt>
      <trkpt lat="50.57456" lon="2.77273">
        <ele>20.6</ele>
        <extensions>
          <visugpx:TrkExtension xmlns:visugpx="https://www.visugpx.com/editgpx/">
            <visugpx:node>32</visugpx:node>
            </visugpx:TrkExtension>
        </extensions>
      </trkpt>
      <trkpt lat="50.57459" lon="2.7728">
        <ele>20.5</ele>
      </trkpt>
      <trkpt lat="50.57461" lon="2.77284">
        <ele>20.5</ele>
      </trkpt>
      <trkpt lat="50.5747" lon="2.77299">
        <ele>20.8</ele>
      </trkpt>
      <trkpt lat="50.57478" lon="2.77317">
        <ele>20.8</ele>
      </trkpt>
      <trkpt lat="50.57479" lon="2.77319">
        <ele>20.8</ele>
      </trkpt>
      <trkpt lat="50.57486" lon="2.77336">
        <ele>20.5</ele>
      </trkpt>
      <trkpt lat="50.57493" lon="2.77353">
        <ele>20.3</ele>
      </trkpt>
      <trkpt lat="50.57501" lon="2.77371">
        <ele>20</ele>
      </trkpt>
      <trkpt lat="50.57511" lon="2.77395">
        <ele>20.1</ele>
      </trkpt>
      <trkpt lat="50.57523" lon="2.77417">
        <ele>20.2</ele>
      </trkpt>
      <trkpt lat="50.57527" lon="2.77426">
        <ele>20</ele>
      </trkpt>
      <trkpt lat="50.57529" lon="2.7743">
        <ele>20</ele>
      </trkpt>
      <trkpt lat="50.57535" lon="2.77443">
        <ele>20.3</ele>
      </trkpt>
      <trkpt lat="50.57539" lon="2.77448">
        <ele>20.4</ele>
      </trkpt>
      <trkpt lat="50.57546" lon="2.77465">
        <ele>20.2</ele>
      </trkpt>
      <trkpt lat="50.57549" lon="2.77473">
        <ele>20</ele>
        <extensions>
          <visugpx:TrkExtension xmlns:visugpx="https://www.visugpx.com/editgpx/">
            <visugpx:node>33</visugpx:node>
            </visugpx:TrkExtension>
        </extensions>
      </trkpt>
      <trkpt lat="50.57553" lon="2.77483">
        <ele>20.4</ele>
      </trkpt>
      <trkpt lat="50.57554" lon="2.77492">
        <ele>20.7</ele>
      </trkpt>
      <trkpt lat="50.57555" lon="2.77502">
        <ele>21</ele>
      </trkpt>
      <trkpt lat="50.57555" lon="2.77508">
        <ele>21</ele>
      </trkpt>
      <trkpt lat="50.57555" lon="2.77513">
        <ele>21</ele>
      </trkpt>
      <trkpt lat="50.57556" lon="2.77516">
        <ele>21</ele>
      </trkpt>
      <trkpt lat="50.57557" lon="2.77518">
        <ele>21</ele>
      </trkpt>
      <trkpt lat="50.57561" lon="2.77525">
        <ele>21</ele>
        <extensions>
          <visugpx:TrkExtension xmlns:visugpx="https://www.visugpx.com/editgpx/">
            <visugpx:node>34</visugpx:node>
            </visugpx:TrkExtension>
        </extensions>
      </trkpt>
      <trkpt lat="50.57565" lon="2.77529">
        <ele>21</ele>
      </trkpt>
      <trkpt lat="50.5757" lon="2.77529">
        <ele>21</ele>
      </trkpt>
      <trkpt lat="50.57582" lon="2.77536">
        <ele>21</ele>
      </trkpt>
      <trkpt lat="50.57593" lon="2.77541">
        <ele>21</ele>
      </trkpt>
      <trkpt lat="50.57605" lon="2.77546">
        <ele>21</ele>
      </trkpt>
      <trkpt lat="50.57624" lon="2.77555">
        <ele>21</ele>
      </trkpt>
      <trkpt lat="50.57646" lon="2.7757">
        <ele>21</ele>
      </trkpt>
      <trkpt lat="50.57681" lon="2.77598">
        <ele>21</ele>
      </trkpt>
      <trkpt lat="50.57695" lon="2.77607">
        <ele>21</ele>
      </trkpt>
      <trkpt lat="50.57739" lon="2.7764">
        <ele>21</ele>
      </trkpt>
      <trkpt lat="50.57859" lon="2.77727">
        <ele>21</ele>
      </trkpt>
      <trkpt lat="50.57824" lon="2.7777">
        <ele>20.6</ele>
        <extensions>
          <visugpx:TrkExtension xmlns:visugpx="https://www.visugpx.com/editgpx/">
            <visugpx:node>35</visugpx:node>
            </visugpx:TrkExtension>
        </extensions>
      </trkpt>
      <trkpt lat="50.57783" lon="2.7782">
        <ele>20.1</ele>
      </trkpt>
      <trkpt lat="50.57765" lon="2.77842">
        <ele>20.5</ele>
      </trkpt>
      <trkpt lat="50.57758" lon="2.77851">
        <ele>20.4</ele>
      </trkpt>
      <trkpt lat="50.57743" lon="2.7787">
        <ele>20.5</ele>
      </trkpt>
      <trkpt lat="50.57662" lon="2.77978">
        <ele>21</ele>
      </trkpt>
      <trkpt lat="50.57618" lon="2.78038">
        <ele>21</ele>
      </trkpt>
      <trkpt lat="50.57598" lon="2.78065">
        <ele>21</ele>
      </trkpt>
      <trkpt lat="50.57586" lon="2.78078">
        <ele>21</ele>
      </trkpt>
      <trkpt lat="50.57541" lon="2.78124">
        <ele>20.8</ele>
      </trkpt>
      <trkpt lat="50.57516" lon="2.78146">
        <ele>20.6</ele>
      </trkpt>
      <trkpt lat="50.57475" lon="2.78183">
        <ele>20.9</ele>
      </trkpt>
      <trkpt lat="50.57468" lon="2.78189">
        <ele>20.8</ele>
      </trkpt>
      <trkpt lat="50.57426" lon="2.78225">
        <ele>20.9</ele>
      </trkpt>
      <trkpt lat="50.57406" lon="2.78243">
        <ele>20.3</ele>
      </trkpt>
      <trkpt lat="50.57367" lon="2.78282">
        <ele>20</ele>
      </trkpt>
      <trkpt lat="50.57301" lon="2.78347">
        <ele>20</ele>
      </trkpt>
      <trkpt lat="50.57296" lon="2.78352">
        <ele>20</ele>
      </trkpt>
      <trkpt lat="50.57286" lon="2.78363">
        <ele>20</ele>
      </trkpt>
      <trkpt lat="50.57256" lon="2.78396">
        <ele>20</ele>
      </trkpt>
      <trkpt lat="50.57228" lon="2.78426">
        <ele>20</ele>
      </trkpt>
      <trkpt lat="50.57189" lon="2.78468">
        <ele>21</ele>
      </trkpt>
      <trkpt lat="50.57157" lon="2.78507">
        <ele>21</ele>
      </trkpt>
      <trkpt lat="50.57157" lon="2.78507">
        <ele>21</ele>
      </trkpt>
      <trkpt lat="50.57152" lon="2.78513">
        <ele>21</ele>
      </trkpt>
      <trkpt lat="50.57125" lon="2.78548">
        <ele>21</ele>
      </trkpt>
      <trkpt lat="50.57122" lon="2.78552">
        <ele>21</ele>
      </trkpt>
      <trkpt lat="50.57108" lon="2.78572">
        <ele>21</ele>
      </trkpt>
      <trkpt lat="50.57103" lon="2.78577">
        <ele>21</ele>
      </trkpt>
      <trkpt lat="50.57099" lon="2.78582">
        <ele>21</ele>
      </trkpt>
      <trkpt lat="50.57079" lon="2.786">
        <ele>21</ele>
      </trkpt>
      <trkpt lat="50.5706" lon="2.78619">
        <ele>21</ele>
      </trkpt>
      <trkpt lat="50.57034" lon="2.78648">
        <ele>21</ele>
      </trkpt>
      <trkpt lat="50.56985" lon="2.78703">
        <ele>20.5</ele>
      </trkpt>
      <trkpt lat="50.56954" lon="2.7874">
        <ele>20.2</ele>
      </trkpt>
      <trkpt lat="50.56895" lon="2.7881">
        <ele>20.7</ele>
      </trkpt>
      <trkpt lat="50.56893" lon="2.78813">
        <ele>20.7</ele>
      </trkpt>
      <trkpt lat="50.56873" lon="2.78837">
        <ele>20.6</ele>
      </trkpt>
      <trkpt lat="50.56862" lon="2.78851">
        <ele>20.4</ele>
      </trkpt>
      <trkpt lat="50.56858" lon="2.78858">
        <ele>20.2</ele>
      </trkpt>
      <trkpt lat="50.56824" lon="2.78907">
        <ele>21</ele>
      </trkpt>
      <trkpt lat="50.56819" lon="2.78916">
        <ele>21</ele>
      </trkpt>
      <trkpt lat="50.56813" lon="2.78924">
        <ele>21</ele>
      </trkpt>
      <trkpt lat="50.56809" lon="2.7893">
        <ele>21</ele>
      </trkpt>
      <trkpt lat="50.56807" lon="2.78934">
        <ele>21</ele>
      </trkpt>
      <trkpt lat="50.56794" lon="2.78962">
        <ele>21</ele>
      </trkpt>
      <trkpt lat="50.56787" lon="2.78986">
        <ele>21</ele>
      </trkpt>
      <trkpt lat="50.56785" lon="2.79006">
        <ele>21</ele>
      </trkpt>
      <trkpt lat="50.56785" lon="2.79018">
        <ele>21</ele>
      </trkpt>
      <trkpt lat="50.56788" lon="2.79031">
        <ele>21</ele>
      </trkpt>
      <trkpt lat="50.5679" lon="2.79033">
        <ele>21</ele>
      </trkpt>
      <trkpt lat="50.56755" lon="2.79105">
        <ele>21</ele>
      </trkpt>
      <trkpt lat="50.56745" lon="2.79128">
        <ele>21.7</ele>
      </trkpt>
      <trkpt lat="50.56738" lon="2.79139">
        <ele>22</ele>
      </trkpt>
      <trkpt lat="50.56729" lon="2.79152">
        <ele>22</ele>
      </trkpt>
      <trkpt lat="50.56728" lon="2.79151">
        <ele>22</ele>
      </trkpt>
      <trkpt lat="50.56726" lon="2.7915">
        <ele>22</ele>
      </trkpt>
      <trkpt lat="50.56724" lon="2.7915">
        <ele>22</ele>
      </trkpt>
      <trkpt lat="50.56722" lon="2.79151">
        <ele>22</ele>
      </trkpt>
      <trkpt lat="50.56721" lon="2.79152">
        <ele>22</ele>
      </trkpt>
      <trkpt lat="50.56719" lon="2.79155">
        <ele>21.9</ele>
      </trkpt>
      <trkpt lat="50.56718" lon="2.79153">
        <ele>21.9</ele>
      </trkpt>
      <trkpt lat="50.56708" lon="2.79144">
        <ele>21.9</ele>
      </trkpt>
      <trkpt lat="50.567" lon="2.79136">
        <ele>22</ele>
      </trkpt>
      <trkpt lat="50.5669" lon="2.79125">
        <ele>22</ele>
      </trkpt>
      <trkpt lat="50.56682" lon="2.79115">
        <ele>22</ele>
      </trkpt>
      <trkpt lat="50.56673" lon="2.79107">
        <ele>21.9</ele>
      </trkpt>
      <trkpt lat="50.56663" lon="2.79101">
        <ele>21.6</ele>
      </trkpt>
      <trkpt lat="50.56652" lon="2.79096">
        <ele>21.2</ele>
      </trkpt>
      <trkpt lat="50.56639" lon="2.79094">
        <ele>21</ele>
      </trkpt>
      <trkpt lat="50.56627" lon="2.79094">
        <ele>21</ele>
      </trkpt>
      <trkpt lat="50.56613" lon="2.79097">
        <ele>21</ele>
      </trkpt>
      <trkpt lat="50.566" lon="2.79101">
        <ele>21.1</ele>
      </trkpt>
      <trkpt lat="50.5659" lon="2.79106">
        <ele>21.1</ele>
      </trkpt>
      <trkpt lat="50.56557" lon="2.79135">
        <ele>21.1</ele>
      </trkpt>
      <trkpt lat="50.5654" lon="2.79151">
        <ele>21</ele>
      </trkpt>
      <trkpt lat="50.56535" lon="2.79155">
        <ele>21</ele>
      </trkpt>
      <trkpt lat="50.5648" lon="2.79213">
        <ele>21.2</ele>
      </trkpt>
      <trkpt lat="50.56447" lon="2.79251">
        <ele>21</ele>
      </trkpt>
      <trkpt lat="50.56435" lon="2.79261">
        <ele>21</ele>
      </trkpt>
      <trkpt lat="50.56432" lon="2.79264">
        <ele>21</ele>
      </trkpt>
      <trkpt lat="50.56425" lon="2.79267">
        <ele>21</ele>
        <extensions>
          <visugpx:TrkExtension xmlns:visugpx="https://www.visugpx.com/editgpx/">
            <visugpx:node>36</visugpx:node>
            </visugpx:TrkExtension>
        </extensions>
      </trkpt>
      <trkpt lat="50.56414" lon="2.79273">
        <ele>21</ele>
      </trkpt>
      <trkpt lat="50.5641" lon="2.79274">
        <ele>21</ele>
      </trkpt>
      <trkpt lat="50.56391" lon="2.79288">
        <ele>21</ele>
      </trkpt>
      <trkpt lat="50.56377" lon="2.79298">
        <ele>20.7</ele>
      </trkpt>
      <trkpt lat="50.56375" lon="2.79301">
        <ele>20.6</ele>
      </trkpt>
      <trkpt lat="50.56369" lon="2.79307">
        <ele>20.3</ele>
      </trkpt>
      <trkpt lat="50.56329" lon="2.79358">
        <ele>21</ele>
      </trkpt>
      <trkpt lat="50.5631" lon="2.79382">
        <ele>21</ele>
      </trkpt>
      <trkpt lat="50.56298" lon="2.79397">
        <ele>21</ele>
      </trkpt>
      <trkpt lat="50.56255" lon="2.79443">
        <ele>21</ele>
      </trkpt>
      <trkpt lat="50.56233" lon="2.79466">
        <ele>20.5</ele>
      </trkpt>
      <trkpt lat="50.56212" lon="2.7949">
        <ele>20.5</ele>
      </trkpt>
      <trkpt lat="50.56195" lon="2.79511">
        <ele>20.4</ele>
      </trkpt>
      <trkpt lat="50.56168" lon="2.79544">
        <ele>21</ele>
      </trkpt>
      <trkpt lat="50.56151" lon="2.79564">
        <ele>21</ele>
      </trkpt>
      <trkpt lat="50.56117" lon="2.79607">
        <ele>21</ele>
      </trkpt>
      <trkpt lat="50.56059" lon="2.79679">
        <ele>21</ele>
      </trkpt>
      <trkpt lat="50.55988" lon="2.79776">
        <ele>21</ele>
      </trkpt>
      <trkpt lat="50.55976" lon="2.79792">
        <ele>21</ele>
      </trkpt>
      <trkpt lat="50.55852" lon="2.79946">
        <ele>21</ele>
      </trkpt>
      <trkpt lat="50.55795" lon="2.80014">
        <ele>21</ele>
      </trkpt>
      <trkpt lat="50.55768" lon="2.80046">
        <ele>21</ele>
      </trkpt>
      <trkpt lat="50.55753" lon="2.80062">
        <ele>21</ele>
      </trkpt>
      <trkpt lat="50.55727" lon="2.80092">
        <ele>21.1</ele>
      </trkpt>
      <trkpt lat="50.55677" lon="2.8015">
        <ele>21</ele>
      </trkpt>
      <trkpt lat="50.55651" lon="2.8018">
        <ele>21</ele>
      </trkpt>
      <trkpt lat="50.55556" lon="2.80295">
        <ele>22.6</ele>
      </trkpt>
      <trkpt lat="50.55592" lon="2.80346">
        <ele>22.3</ele>
      </trkpt>
      <trkpt lat="50.55613" lon="2.80371">
        <ele>22.3</ele>
      </trkpt>
      <trkpt lat="50.55625" lon="2.80385">
        <ele>22.4</ele>
      </trkpt>
      <trkpt lat="50.55629" lon="2.8039">
        <ele>22.4</ele>
      </trkpt>
      <trkpt lat="50.55639" lon="2.80402">
        <ele>22.5</ele>
      </trkpt>
      <trkpt lat="50.55651" lon="2.80414">
        <ele>22.5</ele>
      </trkpt>
      <trkpt lat="50.55662" lon="2.80427">
        <ele>22.6</ele>
      </trkpt>
      <trkpt lat="50.55666" lon="2.80431">
        <ele>22.6</ele>
      </trkpt>
      <trkpt lat="50.55669" lon="2.80435">
        <ele>22.6</ele>
      </trkpt>
      <trkpt lat="50.55676" lon="2.80446">
        <ele>22.7</ele>
      </trkpt>
      <trkpt lat="50.55682" lon="2.80453">
        <ele>22.7</ele>
      </trkpt>
      <trkpt lat="50.55687" lon="2.80459">
        <ele>22.5</ele>
      </trkpt>
      <trkpt lat="50.55692" lon="2.80468">
        <ele>22.2</ele>
      </trkpt>
      <trkpt lat="50.55698" lon="2.80477">
        <ele>22.4</ele>
      </trkpt>
      <trkpt lat="50.55703" lon="2.80486">
        <ele>23</ele>
      </trkpt>
      <trkpt lat="50.55707" lon="2.80492">
        <ele>23.2</ele>
      </trkpt>
      <trkpt lat="50.55712" lon="2.805">
        <ele>23.4</ele>
      </trkpt>
      <trkpt lat="50.55723" lon="2.80516">
        <ele>23</ele>
      </trkpt>
      <trkpt lat="50.55733" lon="2.80535">
        <ele>23.1</ele>
      </trkpt>
      <trkpt lat="50.55738" lon="2.80544">
        <ele>22.9</ele>
      </trkpt>
      <trkpt lat="50.55746" lon="2.80559">
        <ele>22.4</ele>
      </trkpt>
      <trkpt lat="50.55783" lon="2.80625">
        <ele>23</ele>
      </trkpt>
      <trkpt lat="50.55791" lon="2.80643">
        <ele>23.1</ele>
      </trkpt>
      <trkpt lat="50.55796" lon="2.8066">
        <ele>23.3</ele>
      </trkpt>
      <trkpt lat="50.55804" lon="2.80691">
        <ele>23.1</ele>
      </trkpt>
      <trkpt lat="50.5581" lon="2.80718">
        <ele>23.7</ele>
      </trkpt>
      <trkpt lat="50.55813" lon="2.80728">
        <ele>23.9</ele>
      </trkpt>
      <trkpt lat="50.55817" lon="2.80743">
        <ele>24.3</ele>
      </trkpt>
      <trkpt lat="50.55821" lon="2.80753">
        <ele>24.4</ele>
        <extensions>
          <visugpx:TrkExtension xmlns:visugpx="https://www.visugpx.com/editgpx/">
            <visugpx:node>37</visugpx:node>
            </visugpx:TrkExtension>
        </extensions>
      </trkpt>
      <trkpt lat="50.55825" lon="2.80763">
        <ele>24.3</ele>
      </trkpt>
      <trkpt lat="50.5585" lon="2.80811">
        <ele>24.4</ele>
      </trkpt>
      <trkpt lat="50.55862" lon="2.80839">
        <ele>24</ele>
      </trkpt>
      <trkpt lat="50.55869" lon="2.80858">
        <ele>24</ele>
      </trkpt>
      <trkpt lat="50.55877" lon="2.80877">
        <ele>24.2</ele>
      </trkpt>
      <trkpt lat="50.55885" lon="2.80902">
        <ele>24.1</ele>
      </trkpt>
      <trkpt lat="50.55906" lon="2.80957">
        <ele>24.2</ele>
      </trkpt>
      <trkpt lat="50.55911" lon="2.80969">
        <ele>24.2</ele>
      </trkpt>
      <trkpt lat="50.55917" lon="2.8098">
        <ele>24</ele>
      </trkpt>
      <trkpt lat="50.55922" lon="2.80986">
        <ele>23.9</ele>
      </trkpt>
      <trkpt lat="50.55928" lon="2.80995">
        <ele>23.9</ele>
      </trkpt>
      <trkpt lat="50.55936" lon="2.81004">
        <ele>24</ele>
      </trkpt>
      <trkpt lat="50.55945" lon="2.81014">
        <ele>24</ele>
      </trkpt>
      <trkpt lat="50.55958" lon="2.81026">
        <ele>23.5</ele>
      </trkpt>
      <trkpt lat="50.55971" lon="2.81041">
        <ele>23</ele>
      </trkpt>
      <trkpt lat="50.56001" lon="2.81074">
        <ele>23</ele>
      </trkpt>
      <trkpt lat="50.56018" lon="2.81092">
        <ele>23.1</ele>
      </trkpt>
      <trkpt lat="50.56038" lon="2.81121">
        <ele>23</ele>
      </trkpt>
      <trkpt lat="50.56056" lon="2.81147">
        <ele>23</ele>
      </trkpt>
      <trkpt lat="50.56081" lon="2.81183">
        <ele>23</ele>
      </trkpt>
      <trkpt lat="50.56102" lon="2.81217">
        <ele>22.9</ele>
      </trkpt>
      <trkpt lat="50.56118" lon="2.81242">
        <ele>22.8</ele>
      </trkpt>
      <trkpt lat="50.56126" lon="2.81257">
        <ele>22.6</ele>
      </trkpt>
      <trkpt lat="50.56081" lon="2.81308">
        <ele>23.2</ele>
      </trkpt>
      <trkpt lat="50.56012" lon="2.81399">
        <ele>23.8</ele>
      </trkpt>
      <trkpt lat="50.56009" lon="2.81402">
        <ele>23.7</ele>
      </trkpt>
      <trkpt lat="50.56008" lon="2.81407">
        <ele>23.5</ele>
      </trkpt>
      <trkpt lat="50.56006" lon="2.81412">
        <ele>23.3</ele>
      </trkpt>
      <trkpt lat="50.56004" lon="2.81416">
        <ele>23.2</ele>
      </trkpt>
      <trkpt lat="50.56004" lon="2.81423">
        <ele>23.1</ele>
      </trkpt>
      <trkpt lat="50.56003" lon="2.81428">
        <ele>23.1</ele>
      </trkpt>
      <trkpt lat="50.56004" lon="2.81432">
        <ele>23.1</ele>
      </trkpt>
      <trkpt lat="50.56004" lon="2.81436">
        <ele>23.1</ele>
      </trkpt>
      <trkpt lat="50.56005" lon="2.81439">
        <ele>23.2</ele>
      </trkpt>
      <trkpt lat="50.56006" lon="2.81442">
        <ele>23.2</ele>
      </trkpt>
      <trkpt lat="50.56008" lon="2.81446">
        <ele>23.3</ele>
      </trkpt>
      <trkpt lat="50.5601" lon="2.81451">
        <ele>23.3</ele>
      </trkpt>
      <trkpt lat="50.56027" lon="2.81476">
        <ele>23</ele>
      </trkpt>
      <trkpt lat="50.56044" lon="2.81501">
        <ele>23</ele>
      </trkpt>
      <trkpt lat="50.56047" lon="2.81505">
        <ele>23</ele>
      </trkpt>
      <trkpt lat="50.56048" lon="2.81507">
        <ele>23</ele>
      </trkpt>
      <trkpt lat="50.5605" lon="2.81511">
        <ele>23</ele>
      </trkpt>
      <trkpt lat="50.56051" lon="2.81514">
        <ele>23</ele>
      </trkpt>
      <trkpt lat="50.56052" lon="2.81521">
        <ele>23</ele>
      </trkpt>
      <trkpt lat="50.56052" lon="2.81526">
        <ele>23</ele>
      </trkpt>
      <trkpt lat="50.56052" lon="2.81531">
        <ele>23</ele>
      </trkpt>
      <trkpt lat="50.56051" lon="2.81536">
        <ele>23</ele>
      </trkpt>
      <trkpt lat="50.5605" lon="2.81541">
        <ele>23</ele>
      </trkpt>
      <trkpt lat="50.56049" lon="2.81544">
        <ele>23</ele>
      </trkpt>
      <trkpt lat="50.56047" lon="2.81549">
        <ele>23</ele>
      </trkpt>
      <trkpt lat="50.56045" lon="2.81553">
        <ele>23</ele>
      </trkpt>
      <trkpt lat="50.56043" lon="2.81559">
        <ele>23</ele>
      </trkpt>
      <trkpt lat="50.56039" lon="2.81565">
        <ele>23</ele>
      </trkpt>
      <trkpt lat="50.56027" lon="2.81583">
        <ele>23</ele>
      </trkpt>
      <trkpt lat="50.56022" lon="2.8159">
        <ele>23</ele>
      </trkpt>
      <trkpt lat="50.56017" lon="2.81598">
        <ele>23</ele>
      </trkpt>
      <trkpt lat="50.5601" lon="2.81608">
        <ele>23</ele>
        <extensions>
          <visugpx:TrkExtension xmlns:visugpx="https://www.visugpx.com/editgpx/">
            <visugpx:node>38</visugpx:node>
            </visugpx:TrkExtension>
        </extensions>
      </trkpt>
      <trkpt lat="50.5595" lon="2.81698">
        <ele>23.8</ele>
      </trkpt>
      <trkpt lat="50.55943" lon="2.81709">
        <ele>24</ele>
      </trkpt>
      <trkpt lat="50.55938" lon="2.81718">
        <ele>24</ele>
      </trkpt>
      <trkpt lat="50.55935" lon="2.81725">
        <ele>24</ele>
      </trkpt>
      <trkpt lat="50.55932" lon="2.81731">
        <ele>24.1</ele>
      </trkpt>
      <trkpt lat="50.55929" lon="2.81737">
        <ele>24.3</ele>
      </trkpt>
      <trkpt lat="50.55928" lon="2.81743">
        <ele>24.4</ele>
      </trkpt>
      <trkpt lat="50.55927" lon="2.81748">
        <ele>24.6</ele>
      </trkpt>
      <trkpt lat="50.55927" lon="2.81754">
        <ele>24.6</ele>
      </trkpt>
      <trkpt lat="50.55928" lon="2.81762">
        <ele>24.6</ele>
      </trkpt>
      <trkpt lat="50.5593" lon="2.81768">
        <ele>24.5</ele>
      </trkpt>
      <trkpt lat="50.55931" lon="2.81772">
        <ele>24.5</ele>
      </trkpt>
      <trkpt lat="50.55951" lon="2.81833">
        <ele>24.8</ele>
      </trkpt>
      <trkpt lat="50.55955" lon="2.81846">
        <ele>24.6</ele>
      </trkpt>
      <trkpt lat="50.55968" lon="2.81892">
        <ele>24.2</ele>
      </trkpt>
      <trkpt lat="50.55977" lon="2.81922">
        <ele>24.8</ele>
      </trkpt>
      <trkpt lat="50.55978" lon="2.81929">
        <ele>24.8</ele>
      </trkpt>
      <trkpt lat="50.55978" lon="2.81936">
        <ele>24.8</ele>
      </trkpt>
      <trkpt lat="50.55979" lon="2.81945">
        <ele>24.8</ele>
      </trkpt>
      <trkpt lat="50.55979" lon="2.8195">
        <ele>24.8</ele>
      </trkpt>
      <trkpt lat="50.55978" lon="2.81957">
        <ele>24.8</ele>
      </trkpt>
      <trkpt lat="50.55977" lon="2.81964">
        <ele>24.8</ele>
      </trkpt>
      <trkpt lat="50.55975" lon="2.8197">
        <ele>24.9</ele>
      </trkpt>
      <trkpt lat="50.55972" lon="2.81975">
        <ele>25</ele>
      </trkpt>
      <trkpt lat="50.55969" lon="2.8198">
        <ele>25</ele>
      </trkpt>
      <trkpt lat="50.55965" lon="2.81985">
        <ele>25</ele>
      </trkpt>
      <trkpt lat="50.5596" lon="2.81992">
        <ele>25</ele>
      </trkpt>
      <trkpt lat="50.55956" lon="2.81999">
        <ele>25</ele>
      </trkpt>
      <trkpt lat="50.55952" lon="2.82005">
        <ele>25</ele>
      </trkpt>
      <trkpt lat="50.55949" lon="2.8201">
        <ele>25</ele>
      </trkpt>
      <trkpt lat="50.55947" lon="2.82013">
        <ele>25</ele>
      </trkpt>
      <trkpt lat="50.55944" lon="2.82018">
        <ele>25</ele>
      </trkpt>
      <trkpt lat="50.55941" lon="2.82023">
        <ele>25.1</ele>
      </trkpt>
      <trkpt lat="50.55939" lon="2.8203">
        <ele>25.3</ele>
      </trkpt>
      <trkpt lat="50.55936" lon="2.82038">
        <ele>25.6</ele>
      </trkpt>
      <trkpt lat="50.55935" lon="2.82044">
        <ele>25.7</ele>
      </trkpt>
      <trkpt lat="50.55933" lon="2.82049">
        <ele>25.9</ele>
      </trkpt>
      <trkpt lat="50.55932" lon="2.82053">
        <ele>25.9</ele>
      </trkpt>
      <trkpt lat="50.55932" lon="2.82054">
        <ele>26</ele>
      </trkpt>
      <trkpt lat="50.55932" lon="2.8206">
        <ele>26.1</ele>
      </trkpt>
      <trkpt lat="50.55932" lon="2.82067">
        <ele>26.2</ele>
      </trkpt>
      <trkpt lat="50.55933" lon="2.82074">
        <ele>26.3</ele>
      </trkpt>
      <trkpt lat="50.55933" lon="2.82082">
        <ele>26.4</ele>
      </trkpt>
      <trkpt lat="50.55934" lon="2.8209">
        <ele>26.4</ele>
      </trkpt>
      <trkpt lat="50.55935" lon="2.82098">
        <ele>26.3</ele>
      </trkpt>
      <trkpt lat="50.55936" lon="2.82106">
        <ele>26.3</ele>
      </trkpt>
      <trkpt lat="50.55937" lon="2.82113">
        <ele>26.3</ele>
      </trkpt>
      <trkpt lat="50.5594" lon="2.82121">
        <ele>26.2</ele>
      </trkpt>
      <trkpt lat="50.55943" lon="2.82133">
        <ele>26.1</ele>
      </trkpt>
      <trkpt lat="50.55945" lon="2.82142">
        <ele>26</ele>
      </trkpt>
      <trkpt lat="50.55947" lon="2.82151">
        <ele>26</ele>
      </trkpt>
      <trkpt lat="50.55949" lon="2.82159">
        <ele>26</ele>
      </trkpt>
      <trkpt lat="50.5595" lon="2.82168">
        <ele>26</ele>
      </trkpt>
      <trkpt lat="50.55951" lon="2.82176">
        <ele>26.3</ele>
      </trkpt>
      <trkpt lat="50.55953" lon="2.82186">
        <ele>26.5</ele>
      </trkpt>
      <trkpt lat="50.55953" lon="2.82189">
        <ele>26.6</ele>
      </trkpt>
      <trkpt lat="50.55954" lon="2.82196">
        <ele>26.7</ele>
      </trkpt>
      <trkpt lat="50.55955" lon="2.82206">
        <ele>26.6</ele>
      </trkpt>
      <trkpt lat="50.55957" lon="2.82218">
        <ele>26.5</ele>
      </trkpt>
      <trkpt lat="50.55958" lon="2.82229">
        <ele>26.5</ele>
      </trkpt>
      <trkpt lat="50.55959" lon="2.82243">
        <ele>26.5</ele>
      </trkpt>
      <trkpt lat="50.55965" lon="2.82283">
        <ele>26.4</ele>
      </trkpt>
      <trkpt lat="50.55966" lon="2.82292">
        <ele>26.6</ele>
      </trkpt>
      <trkpt lat="50.55966" lon="2.82302">
        <ele>26.9</ele>
      </trkpt>
      <trkpt lat="50.55967" lon="2.82311">
        <ele>27</ele>
      </trkpt>
      <trkpt lat="50.55967" lon="2.82317">
        <ele>27.1</ele>
      </trkpt>
      <trkpt lat="50.55967" lon="2.82326">
        <ele>27.1</ele>
      </trkpt>
      <trkpt lat="50.55966" lon="2.82334">
        <ele>27.2</ele>
      </trkpt>
      <trkpt lat="50.55964" lon="2.8234">
        <ele>27.3</ele>
      </trkpt>
      <trkpt lat="50.55962" lon="2.82347">
        <ele>27.4</ele>
      </trkpt>
      <trkpt lat="50.5596" lon="2.82353">
        <ele>27.4</ele>
      </trkpt>
      <trkpt lat="50.55957" lon="2.82359">
        <ele>27.5</ele>
      </trkpt>
      <trkpt lat="50.55956" lon="2.82363">
        <ele>27.6</ele>
      </trkpt>
      <trkpt lat="50.55926" lon="2.82434">
        <ele>29</ele>
      </trkpt>
      <trkpt lat="50.55924" lon="2.82439">
        <ele>29</ele>
      </trkpt>
      <trkpt lat="50.55923" lon="2.82444">
        <ele>29</ele>
      </trkpt>
      <trkpt lat="50.55922" lon="2.8245">
        <ele>29</ele>
      </trkpt>
      <trkpt lat="50.55922" lon="2.82455">
        <ele>29</ele>
      </trkpt>
      <trkpt lat="50.55922" lon="2.82459">
        <ele>29</ele>
      </trkpt>
      <trkpt lat="50.55922" lon="2.82463">
        <ele>29</ele>
      </trkpt>
      <trkpt lat="50.55922" lon="2.82466">
        <ele>29</ele>
      </trkpt>
      <trkpt lat="50.55923" lon="2.82469">
        <ele>29</ele>
      </trkpt>
      <trkpt lat="50.5594" lon="2.82542">
        <ele>30</ele>
      </trkpt>
      <trkpt lat="50.55943" lon="2.82555">
        <ele>30</ele>
      </trkpt>
      <trkpt lat="50.55943" lon="2.82558">
        <ele>30</ele>
      </trkpt>
      <trkpt lat="50.55944" lon="2.82562">
        <ele>30</ele>
      </trkpt>
      <trkpt lat="50.55944" lon="2.82566">
        <ele>30</ele>
      </trkpt>
      <trkpt lat="50.55943" lon="2.8257">
        <ele>30</ele>
      </trkpt>
      <trkpt lat="50.55941" lon="2.82573">
        <ele>30.1</ele>
      </trkpt>
      <trkpt lat="50.5594" lon="2.82578">
        <ele>30.1</ele>
      </trkpt>
      <trkpt lat="50.55937" lon="2.82583">
        <ele>30.3</ele>
      </trkpt>
      <trkpt lat="50.55936" lon="2.82588">
        <ele>30.3</ele>
      </trkpt>
      <trkpt lat="50.55934" lon="2.82593">
        <ele>30.4</ele>
      </trkpt>
      <trkpt lat="50.55931" lon="2.82599">
        <ele>30.5</ele>
      </trkpt>
      <trkpt lat="50.55929" lon="2.82605">
        <ele>30.6</ele>
      </trkpt>
      <trkpt lat="50.55928" lon="2.82611">
        <ele>30.6</ele>
      </trkpt>
      <trkpt lat="50.55926" lon="2.82617">
        <ele>30.7</ele>
      </trkpt>
      <trkpt lat="50.55926" lon="2.82619">
        <ele>30.7</ele>
      </trkpt>
      <trkpt lat="50.55926" lon="2.82622">
        <ele>30.7</ele>
      </trkpt>
      <trkpt lat="50.55926" lon="2.82632">
        <ele>30.7</ele>
      </trkpt>
      <trkpt lat="50.55926" lon="2.82637">
        <ele>30.7</ele>
      </trkpt>
      <trkpt lat="50.55926" lon="2.82643">
        <ele>30.7</ele>
      </trkpt>
      <trkpt lat="50.55927" lon="2.82651">
        <ele>30.6</ele>
      </trkpt>
      <trkpt lat="50.55928" lon="2.8266">
        <ele>30.6</ele>
      </trkpt>
      <trkpt lat="50.55929" lon="2.82667">
        <ele>30.6</ele>
      </trkpt>
      <trkpt lat="50.55929" lon="2.82674">
        <ele>30.6</ele>
      </trkpt>
      <trkpt lat="50.5593" lon="2.82682">
        <ele>30.5</ele>
      </trkpt>
      <trkpt lat="50.55931" lon="2.82691">
        <ele>30.5</ele>
      </trkpt>
      <trkpt lat="50.55932" lon="2.827">
        <ele>30.6</ele>
      </trkpt>
      <trkpt lat="50.55932" lon="2.82709">
        <ele>30.7</ele>
      </trkpt>
      <trkpt lat="50.55933" lon="2.82719">
        <ele>30.9</ele>
      </trkpt>
      <trkpt lat="50.55933" lon="2.82729">
        <ele>31</ele>
      </trkpt>
      <trkpt lat="50.55933" lon="2.82737">
        <ele>31</ele>
      </trkpt>
      <trkpt lat="50.55933" lon="2.82748">
        <ele>31</ele>
      </trkpt>
      <trkpt lat="50.55933" lon="2.82759">
        <ele>31</ele>
      </trkpt>
      <trkpt lat="50.55933" lon="2.82769">
        <ele>31</ele>
      </trkpt>
      <trkpt lat="50.55933" lon="2.82779">
        <ele>31</ele>
      </trkpt>
      <trkpt lat="50.55933" lon="2.82789">
        <ele>30.8</ele>
      </trkpt>
      <trkpt lat="50.55933" lon="2.82796">
        <ele>30.6</ele>
      </trkpt>
      <trkpt lat="50.55932" lon="2.82803">
        <ele>30.5</ele>
      </trkpt>
      <trkpt lat="50.55931" lon="2.82808">
        <ele>30.5</ele>
      </trkpt>
      <trkpt lat="50.5593" lon="2.82816">
        <ele>30.7</ele>
      </trkpt>
      <trkpt lat="50.55928" lon="2.82824">
        <ele>30.9</ele>
      </trkpt>
      <trkpt lat="50.55925" lon="2.82832">
        <ele>31</ele>
      </trkpt>
      <trkpt lat="50.55922" lon="2.82838">
        <ele>30.9</ele>
      </trkpt>
      <trkpt lat="50.55919" lon="2.82844">
        <ele>30.6</ele>
      </trkpt>
      <trkpt lat="50.55914" lon="2.82853">
        <ele>30.3</ele>
      </trkpt>
      <trkpt lat="50.55909" lon="2.82863">
        <ele>30</ele>
      </trkpt>
      <trkpt lat="50.55905" lon="2.8287">
        <ele>30</ele>
      </trkpt>
      <trkpt lat="50.55896" lon="2.82886">
        <ele>30</ele>
      </trkpt>
      <trkpt lat="50.55889" lon="2.82901">
        <ele>30</ele>
      </trkpt>
      <trkpt lat="50.55892" lon="2.82906">
        <ele>30</ele>
      </trkpt>
      <trkpt lat="50.55896" lon="2.82915">
        <ele>30</ele>
      </trkpt>
      <trkpt lat="50.55909" lon="2.82942">
        <ele>30.3</ele>
        <extensions>
          <visugpx:TrkExtension xmlns:visugpx="https://www.visugpx.com/editgpx/">
            <visugpx:node>39</visugpx:node>
            </visugpx:TrkExtension>
        </extensions>
      </trkpt>
      <trkpt lat="50.55916" lon="2.82957">
        <ele>30</ele>
      </trkpt>
      <trkpt lat="50.55928" lon="2.82983">
        <ele>30.2</ele>
      </trkpt>
      <trkpt lat="50.55946" lon="2.83023">
        <ele>30.1</ele>
      </trkpt>
      <trkpt lat="50.55951" lon="2.83032">
        <ele>30.4</ele>
      </trkpt>
      <trkpt lat="50.55936" lon="2.83047">
        <ele>30.8</ele>
      </trkpt>
      <trkpt lat="50.55921" lon="2.83063">
        <ele>31.2</ele>
      </trkpt>
      <trkpt lat="50.55851" lon="2.83143">
        <ele>31</ele>
      </trkpt>
      <trkpt lat="50.55832" lon="2.83164">
        <ele>31</ele>
      </trkpt>
      <trkpt lat="50.55822" lon="2.83175">
        <ele>31</ele>
      </trkpt>
      <trkpt lat="50.5581" lon="2.8319">
        <ele>31</ele>
      </trkpt>
      <trkpt lat="50.55783" lon="2.8322">
        <ele>31.7</ele>
      </trkpt>
      <trkpt lat="50.55732" lon="2.83276">
        <ele>31</ele>
      </trkpt>
      <trkpt lat="50.55715" lon="2.83295">
        <ele>30.3</ele>
        <extensions>
          <visugpx:TrkExtension xmlns:visugpx="https://www.visugpx.com/editgpx/">
            <visugpx:node>40</visugpx:node>
            </visugpx:TrkExtension>
        </extensions>
      </trkpt>
      <trkpt lat="50.55682" lon="2.83331">
        <ele>29.6</ele>
        <extensions>
          <visugpx:TrkExtension xmlns:visugpx="https://www.visugpx.com/editgpx/">
            <visugpx:node>41</visugpx:node>
            </visugpx:TrkExtension>
        </extensions>
      </trkpt>
      <trkpt lat="50.55672" lon="2.83348">
        <ele>29.6</ele>
        <extensions>
          <visugpx:TrkExtension xmlns:visugpx="https://www.visugpx.com/editgpx/">
            <visugpx:node>42</visugpx:node>
            </visugpx:TrkExtension>
        </extensions>
      </trkpt>
      <trkpt lat="50.55694" lon="2.83375">
        <ele>30</ele>
      </trkpt>
      <trkpt lat="50.5573" lon="2.83433">
        <ele>30.1</ele>
      </trkpt>
      <trkpt lat="50.55732" lon="2.83437">
        <ele>30.1</ele>
      </trkpt>
      <trkpt lat="50.55735" lon="2.83442">
        <ele>30</ele>
      </trkpt>
      <trkpt lat="50.55742" lon="2.83453">
        <ele>30</ele>
      </trkpt>
      <trkpt lat="50.55746" lon="2.83459">
        <ele>30</ele>
      </trkpt>
      <trkpt lat="50.5575" lon="2.83465">
        <ele>30</ele>
      </trkpt>
      <trkpt lat="50.55754" lon="2.83471">
        <ele>30.1</ele>
      </trkpt>
      <trkpt lat="50.55757" lon="2.83477">
        <ele>30.3</ele>
      </trkpt>
      <trkpt lat="50.55761" lon="2.83482">
        <ele>30.5</ele>
      </trkpt>
      <trkpt lat="50.55764" lon="2.83488">
        <ele>30.8</ele>
      </trkpt>
      <trkpt lat="50.55767" lon="2.83493">
        <ele>31.1</ele>
      </trkpt>
      <trkpt lat="50.5577" lon="2.83499">
        <ele>31.4</ele>
      </trkpt>
      <trkpt lat="50.55773" lon="2.83505">
        <ele>31.7</ele>
      </trkpt>
      <trkpt lat="50.55776" lon="2.83511">
        <ele>31.9</ele>
      </trkpt>
      <trkpt lat="50.55779" lon="2.83517">
        <ele>32</ele>
      </trkpt>
      <trkpt lat="50.55783" lon="2.83522">
        <ele>32</ele>
      </trkpt>
      <trkpt lat="50.55786" lon="2.83528">
        <ele>32</ele>
      </trkpt>
      <trkpt lat="50.55789" lon="2.83533">
        <ele>31.9</ele>
      </trkpt>
      <trkpt lat="50.55791" lon="2.83535">
        <ele>31.9</ele>
        <extensions>
          <visugpx:TrkExtension xmlns:visugpx="https://www.visugpx.com/editgpx/">
            <visugpx:node>43</visugpx:node>
            </visugpx:TrkExtension>
        </extensions>
      </trkpt>
      <trkpt lat="50.55792" lon="2.83537">
        <ele>31.8</ele>
      </trkpt>
      <trkpt lat="50.55795" lon="2.83541">
        <ele>31.8</ele>
      </trkpt>
      <trkpt lat="50.55797" lon="2.83545">
        <ele>31.8</ele>
      </trkpt>
      <trkpt lat="50.55799" lon="2.83548">
        <ele>31.8</ele>
      </trkpt>
      <trkpt lat="50.55801" lon="2.83552">
        <ele>31.9</ele>
      </trkpt>
      <trkpt lat="50.55802" lon="2.83554">
        <ele>31.9</ele>
      </trkpt>
      <trkpt lat="50.55808" lon="2.83564">
        <ele>31.7</ele>
      </trkpt>
      <trkpt lat="50.55812" lon="2.8357">
        <ele>31.5</ele>
      </trkpt>
      <trkpt lat="50.55815" lon="2.83576">
        <ele>31.3</ele>
      </trkpt>
      <trkpt lat="50.55819" lon="2.83582">
        <ele>31</ele>
      </trkpt>
      <trkpt lat="50.55823" lon="2.83588">
        <ele>31</ele>
      </trkpt>
      <trkpt lat="50.55827" lon="2.83594">
        <ele>31</ele>
      </trkpt>
      <trkpt lat="50.5583" lon="2.836">
        <ele>31</ele>
      </trkpt>
      <trkpt lat="50.55834" lon="2.83605">
        <ele>31</ele>
      </trkpt>
      <trkpt lat="50.55837" lon="2.83611">
        <ele>31.1</ele>
      </trkpt>
      <trkpt lat="50.55841" lon="2.83617">
        <ele>31.2</ele>
      </trkpt>
      <trkpt lat="50.55844" lon="2.83622">
        <ele>31.2</ele>
      </trkpt>
      <trkpt lat="50.55847" lon="2.83627">
        <ele>31.2</ele>
      </trkpt>
      <trkpt lat="50.5585" lon="2.83632">
        <ele>31.1</ele>
      </trkpt>
      <trkpt lat="50.55852" lon="2.83636">
        <ele>31.1</ele>
      </trkpt>
      <trkpt lat="50.55855" lon="2.83639">
        <ele>31</ele>
      </trkpt>
      <trkpt lat="50.55856" lon="2.83643">
        <ele>31</ele>
      </trkpt>
      <trkpt lat="50.55857" lon="2.83647">
        <ele>31</ele>
      </trkpt>
      <trkpt lat="50.55857" lon="2.83652">
        <ele>31</ele>
      </trkpt>
      <trkpt lat="50.55856" lon="2.83656">
        <ele>31</ele>
      </trkpt>
      <trkpt lat="50.55854" lon="2.8366">
        <ele>31</ele>
      </trkpt>
      <trkpt lat="50.55852" lon="2.83662">
        <ele>31</ele>
      </trkpt>
      <trkpt lat="50.5585" lon="2.83664">
        <ele>31</ele>
      </trkpt>
      <trkpt lat="50.55848" lon="2.83666">
        <ele>31</ele>
      </trkpt>
      <trkpt lat="50.55844" lon="2.83669">
        <ele>31.1</ele>
      </trkpt>
      <trkpt lat="50.55838" lon="2.83672">
        <ele>31.1</ele>
      </trkpt>
      <trkpt lat="50.55817" lon="2.83683">
        <ele>31.2</ele>
      </trkpt>
      <trkpt lat="50.55816" lon="2.83683">
        <ele>31.3</ele>
        <extensions>
          <visugpx:TrkExtension xmlns:visugpx="https://www.visugpx.com/editgpx/">
            <visugpx:node>44</visugpx:node>
            </visugpx:TrkExtension>
        </extensions>
      </trkpt>
      <trkpt lat="50.55813" lon="2.83683">
        <ele>31.3</ele>
      </trkpt>
      <trkpt lat="50.5581" lon="2.8368">
        <ele>31.4</ele>
      </trkpt>
      <trkpt lat="50.55806" lon="2.83676">
        <ele>31.7</ele>
      </trkpt>
      <trkpt lat="50.558" lon="2.8367">
        <ele>31.7</ele>
      </trkpt>
      <trkpt lat="50.55793" lon="2.83668">
        <ele>31.5</ele>
      </trkpt>
      <trkpt lat="50.55787" lon="2.83667">
        <ele>31.3</ele>
      </trkpt>
      <trkpt lat="50.55781" lon="2.83666">
        <ele>31.1</ele>
      </trkpt>
      <trkpt lat="50.55776" lon="2.83666">
        <ele>31</ele>
      </trkpt>
      <trkpt lat="50.55773" lon="2.83668">
        <ele>31</ele>
      </trkpt>
      <trkpt lat="50.5577" lon="2.83671">
        <ele>31.1</ele>
      </trkpt>
      <trkpt lat="50.55757" lon="2.8369">
        <ele>31.2</ele>
      </trkpt>
      <trkpt lat="50.55755" lon="2.83693">
        <ele>31.2</ele>
      </trkpt>
      <trkpt lat="50.55754" lon="2.83696">
        <ele>31.2</ele>
      </trkpt>
      <trkpt lat="50.55754" lon="2.837">
        <ele>31.2</ele>
      </trkpt>
      <trkpt lat="50.55754" lon="2.83707">
        <ele>31.2</ele>
      </trkpt>
      <trkpt lat="50.55754" lon="2.83714">
        <ele>31.2</ele>
      </trkpt>
      <trkpt lat="50.55751" lon="2.83719">
        <ele>31.1</ele>
      </trkpt>
      <trkpt lat="50.55745" lon="2.83724">
        <ele>31.2</ele>
      </trkpt>
      <trkpt lat="50.55727" lon="2.83735">
        <ele>31.1</ele>
      </trkpt>
      <trkpt lat="50.55719" lon="2.83739">
        <ele>30.8</ele>
      </trkpt>
      <trkpt lat="50.55708" lon="2.83743">
        <ele>30.6</ele>
      </trkpt>
      <trkpt lat="50.55696" lon="2.83746">
        <ele>30.4</ele>
      </trkpt>
      <trkpt lat="50.55686" lon="2.83747">
        <ele>30</ele>
      </trkpt>
      <trkpt lat="50.55671" lon="2.83749">
        <ele>29.2</ele>
      </trkpt>
      <trkpt lat="50.55651" lon="2.8375">
        <ele>29</ele>
      </trkpt>
      <trkpt lat="50.55632" lon="2.83751">
        <ele>29</ele>
      </trkpt>
      <trkpt lat="50.55612" lon="2.83755">
        <ele>29</ele>
      </trkpt>
      <trkpt lat="50.55603" lon="2.83756">
        <ele>28.7</ele>
        <extensions>
          <visugpx:TrkExtension xmlns:visugpx="https://www.visugpx.com/editgpx/">
            <visugpx:node>45</visugpx:node>
            </visugpx:TrkExtension>
        </extensions>
      </trkpt>
      <trkpt lat="50.55588" lon="2.8376">
        <ele>28.2</ele>
      </trkpt>
      <trkpt lat="50.55562" lon="2.83767">
        <ele>27.2</ele>
      </trkpt>
      <trkpt lat="50.55539" lon="2.83773">
        <ele>27</ele>
      </trkpt>
      <trkpt lat="50.55531" lon="2.83775">
        <ele>27</ele>
      </trkpt>
      <trkpt lat="50.55528" lon="2.83789">
        <ele>27</ele>
      </trkpt>
      <trkpt lat="50.55507" lon="2.83792">
        <ele>27</ele>
      </trkpt>
      <trkpt lat="50.5549" lon="2.83794">
        <ele>26.8</ele>
      </trkpt>
      <trkpt lat="50.55481" lon="2.83795">
        <ele>26.6</ele>
      </trkpt>
      <trkpt lat="50.55469" lon="2.83795">
        <ele>26.3</ele>
      </trkpt>
      <trkpt lat="50.55458" lon="2.83794">
        <ele>26.2</ele>
      </trkpt>
      <trkpt lat="50.55448" lon="2.83794">
        <ele>26.1</ele>
      </trkpt>
      <trkpt lat="50.55434" lon="2.83792">
        <ele>26</ele>
      </trkpt>
      <trkpt lat="50.55421" lon="2.8379">
        <ele>26</ele>
      </trkpt>
      <trkpt lat="50.55409" lon="2.83788">
        <ele>26</ele>
      </trkpt>
      <trkpt lat="50.554" lon="2.83786">
        <ele>26</ele>
      </trkpt>
      <trkpt lat="50.55391" lon="2.83784">
        <ele>26</ele>
      </trkpt>
      <trkpt lat="50.55387" lon="2.83783">
        <ele>26</ele>
      </trkpt>
      <trkpt lat="50.55379" lon="2.83782">
        <ele>26</ele>
      </trkpt>
      <trkpt lat="50.5537" lon="2.8378">
        <ele>26</ele>
      </trkpt>
      <trkpt lat="50.55362" lon="2.83778">
        <ele>26</ele>
      </trkpt>
      <trkpt lat="50.55354" lon="2.83776">
        <ele>26</ele>
      </trkpt>
      <trkpt lat="50.55344" lon="2.83775">
        <ele>26</ele>
      </trkpt>
      <trkpt lat="50.55306" lon="2.83766">
        <ele>26</ele>
      </trkpt>
      <trkpt lat="50.5529" lon="2.83762">
        <ele>26</ele>
      </trkpt>
      <trkpt lat="50.55274" lon="2.83757">
        <ele>26</ele>
      </trkpt>
      <trkpt lat="50.55258" lon="2.83752">
        <ele>26</ele>
      </trkpt>
      <trkpt lat="50.5525" lon="2.83748">
        <ele>26</ele>
      </trkpt>
      <trkpt lat="50.55244" lon="2.83745">
        <ele>26</ele>
      </trkpt>
      <trkpt lat="50.55237" lon="2.83742">
        <ele>26</ele>
      </trkpt>
      <trkpt lat="50.55231" lon="2.83738">
        <ele>26</ele>
      </trkpt>
      <trkpt lat="50.55226" lon="2.83736">
        <ele>26</ele>
      </trkpt>
      <trkpt lat="50.55217" lon="2.83731">
        <ele>26</ele>
      </trkpt>
      <trkpt lat="50.55211" lon="2.83727">
        <ele>26</ele>
      </trkpt>
      <trkpt lat="50.55206" lon="2.83724">
        <ele>26</ele>
      </trkpt>
      <trkpt lat="50.55202" lon="2.83721">
        <ele>26</ele>
      </trkpt>
      <trkpt lat="50.55194" lon="2.83716">
        <ele>26</ele>
      </trkpt>
      <trkpt lat="50.55187" lon="2.83711">
        <ele>26</ele>
      </trkpt>
      <trkpt lat="50.55187" lon="2.83711">
        <ele>26</ele>
      </trkpt>
      <trkpt lat="50.55182" lon="2.83708">
        <ele>26</ele>
      </trkpt>
      <trkpt lat="50.55176" lon="2.83705">
        <ele>26</ele>
      </trkpt>
      <trkpt lat="50.55169" lon="2.83701">
        <ele>26</ele>
      </trkpt>
      <trkpt lat="50.55161" lon="2.83697">
        <ele>26</ele>
      </trkpt>
      <trkpt lat="50.55152" lon="2.83693">
        <ele>26</ele>
      </trkpt>
      <trkpt lat="50.55146" lon="2.83691">
        <ele>26</ele>
      </trkpt>
      <trkpt lat="50.55139" lon="2.83689">
        <ele>26</ele>
      </trkpt>
      <trkpt lat="50.55131" lon="2.83687">
        <ele>25.8</ele>
      </trkpt>
      <trkpt lat="50.55119" lon="2.83684">
        <ele>25.6</ele>
      </trkpt>
      <trkpt lat="50.55113" lon="2.83683">
        <ele>25.5</ele>
      </trkpt>
      <trkpt lat="50.55104" lon="2.83682">
        <ele>25.4</ele>
      </trkpt>
      <trkpt lat="50.55097" lon="2.83682">
        <ele>25.4</ele>
      </trkpt>
      <trkpt lat="50.55089" lon="2.83682">
        <ele>25.4</ele>
      </trkpt>
      <trkpt lat="50.55078" lon="2.83683">
        <ele>25.4</ele>
      </trkpt>
      <trkpt lat="50.55066" lon="2.83685">
        <ele>25.3</ele>
      </trkpt>
      <trkpt lat="50.55056" lon="2.83687">
        <ele>25.3</ele>
      </trkpt>
      <trkpt lat="50.55044" lon="2.83691">
        <ele>25.5</ele>
      </trkpt>
      <trkpt lat="50.55034" lon="2.83694">
        <ele>25.8</ele>
      </trkpt>
      <trkpt lat="50.5503" lon="2.83695">
        <ele>25.9</ele>
      </trkpt>
      <trkpt lat="50.55026" lon="2.83696">
        <ele>25.9</ele>
      </trkpt>
      <trkpt lat="50.55016" lon="2.837">
        <ele>25.6</ele>
      </trkpt>
      <trkpt lat="50.55002" lon="2.83705">
        <ele>25.1</ele>
      </trkpt>
      <trkpt lat="50.5499" lon="2.83711">
        <ele>25</ele>
      </trkpt>
      <trkpt lat="50.54979" lon="2.83716">
        <ele>25</ele>
      </trkpt>
      <trkpt lat="50.54973" lon="2.83719">
        <ele>25</ele>
      </trkpt>
      <trkpt lat="50.54966" lon="2.83722">
        <ele>25</ele>
      </trkpt>
      <trkpt lat="50.54959" lon="2.83726">
        <ele>25.1</ele>
      </trkpt>
      <trkpt lat="50.54944" lon="2.83735">
        <ele>25</ele>
      </trkpt>
      <trkpt lat="50.54934" lon="2.83739">
        <ele>25</ele>
      </trkpt>
      <trkpt lat="50.54924" lon="2.83744">
        <ele>25</ele>
      </trkpt>
      <trkpt lat="50.54913" lon="2.83748">
        <ele>25.1</ele>
      </trkpt>
      <trkpt lat="50.54904" lon="2.83752">
        <ele>25.5</ele>
      </trkpt>
      <trkpt lat="50.54891" lon="2.83757">
        <ele>25.9</ele>
      </trkpt>
      <trkpt lat="50.54878" lon="2.83761">
        <ele>26</ele>
      </trkpt>
      <trkpt lat="50.5486" lon="2.83766">
        <ele>26</ele>
      </trkpt>
      <trkpt lat="50.54844" lon="2.83769">
        <ele>26</ele>
      </trkpt>
      <trkpt lat="50.54834" lon="2.83771">
        <ele>26</ele>
      </trkpt>
      <trkpt lat="50.54819" lon="2.83773">
        <ele>26</ele>
      </trkpt>
      <trkpt lat="50.54803" lon="2.83776">
        <ele>26</ele>
      </trkpt>
      <trkpt lat="50.5479" lon="2.8378">
        <ele>26</ele>
      </trkpt>
      <trkpt lat="50.5478" lon="2.83782">
        <ele>26</ele>
      </trkpt>
      <trkpt lat="50.54768" lon="2.83786">
        <ele>26</ele>
      </trkpt>
      <trkpt lat="50.5476" lon="2.83788">
        <ele>26</ele>
      </trkpt>
      <trkpt lat="50.54753" lon="2.8379">
        <ele>26</ele>
      </trkpt>
      <trkpt lat="50.54737" lon="2.83796">
        <ele>26.3</ele>
      </trkpt>
      <trkpt lat="50.54723" lon="2.83801">
        <ele>26.8</ele>
      </trkpt>
      <trkpt lat="50.5471" lon="2.83806">
        <ele>27</ele>
      </trkpt>
      <trkpt lat="50.54687" lon="2.83817">
        <ele>26.6</ele>
      </trkpt>
      <trkpt lat="50.54665" lon="2.83828">
        <ele>26.2</ele>
      </trkpt>
      <trkpt lat="50.54648" lon="2.83837">
        <ele>26.6</ele>
      </trkpt>
      <trkpt lat="50.54618" lon="2.83856">
        <ele>26.8</ele>
      </trkpt>
      <trkpt lat="50.54578" lon="2.83881">
        <ele>27</ele>
      </trkpt>
      <trkpt lat="50.54577" lon="2.83881">
        <ele>27</ele>
        <extensions>
          <visugpx:TrkExtension xmlns:visugpx="https://www.visugpx.com/editgpx/">
            <visugpx:node>46</visugpx:node>
            </visugpx:TrkExtension>
        </extensions>
      </trkpt>
      <trkpt lat="50.54543" lon="2.83902">
        <ele>26.5</ele>
      </trkpt>
      <trkpt lat="50.54531" lon="2.83909">
        <ele>26.1</ele>
      </trkpt>
      <trkpt lat="50.5452" lon="2.83916">
        <ele>26</ele>
      </trkpt>
      <trkpt lat="50.54508" lon="2.83924">
        <ele>26</ele>
      </trkpt>
      <trkpt lat="50.54498" lon="2.8393">
        <ele>26</ele>
      </trkpt>
      <trkpt lat="50.5449" lon="2.83934">
        <ele>26</ele>
      </trkpt>
      <trkpt lat="50.54476" lon="2.83943">
        <ele>26</ele>
      </trkpt>
      <trkpt lat="50.54464" lon="2.8395">
        <ele>26</ele>
      </trkpt>
      <trkpt lat="50.54436" lon="2.83967">
        <ele>25.7</ele>
      </trkpt>
      <trkpt lat="50.54423" lon="2.83975">
        <ele>25.2</ele>
      </trkpt>
      <trkpt lat="50.54391" lon="2.83995">
        <ele>25</ele>
      </trkpt>
      <trkpt lat="50.54377" lon="2.84003">
        <ele>25</ele>
      </trkpt>
      <trkpt lat="50.54365" lon="2.84004">
        <ele>25</ele>
      </trkpt>
      <trkpt lat="50.54353" lon="2.84005">
        <ele>25</ele>
      </trkpt>
      <trkpt lat="50.54345" lon="2.84006">
        <ele>25</ele>
        <extensions>
          <visugpx:TrkExtension xmlns:visugpx="https://www.visugpx.com/editgpx/">
            <visugpx:node>47</visugpx:node>
            </visugpx:TrkExtension>
        </extensions>
      </trkpt>
      <trkpt lat="50.54353" lon="2.84034">
        <ele>25</ele>
      </trkpt>
      <trkpt lat="50.54361" lon="2.84059">
        <ele>25</ele>
        <extensions>
          <visugpx:TrkExtension xmlns:visugpx="https://www.visugpx.com/editgpx/">
            <visugpx:node>48</visugpx:node>
            </visugpx:TrkExtension>
        </extensions>
      </trkpt>
      <trkpt lat="50.54387" lon="2.84145">
        <ele>25</ele>
      </trkpt>
      <trkpt lat="50.54395" lon="2.84174">
        <ele>25</ele>
      </trkpt>
      <trkpt lat="50.54396" lon="2.84178">
        <ele>25</ele>
      </trkpt>
      <trkpt lat="50.54406" lon="2.84209">
        <ele>25</ele>
      </trkpt>
      <trkpt lat="50.54416" lon="2.8424">
        <ele>25</ele>
      </trkpt>
      <trkpt lat="50.54426" lon="2.84266">
        <ele>24.9</ele>
      </trkpt>
      <trkpt lat="50.54436" lon="2.84291">
        <ele>24.7</ele>
      </trkpt>
      <trkpt lat="50.54438" lon="2.84296">
        <ele>24.5</ele>
      </trkpt>
      <trkpt lat="50.54441" lon="2.84302">
        <ele>24.2</ele>
      </trkpt>
      <trkpt lat="50.54449" lon="2.84319">
        <ele>24.1</ele>
      </trkpt>
      <trkpt lat="50.54453" lon="2.84327">
        <ele>24.1</ele>
      </trkpt>
      <trkpt lat="50.54458" lon="2.84338">
        <ele>24</ele>
      </trkpt>
      <trkpt lat="50.54465" lon="2.84354">
        <ele>24</ele>
      </trkpt>
      <trkpt lat="50.54475" lon="2.84371">
        <ele>24.4</ele>
      </trkpt>
      <trkpt lat="50.54478" lon="2.84376">
        <ele>24.6</ele>
      </trkpt>
      <trkpt lat="50.54491" lon="2.84399">
        <ele>24.8</ele>
      </trkpt>
      <trkpt lat="50.54507" lon="2.84423">
        <ele>24.4</ele>
      </trkpt>
      <trkpt lat="50.54525" lon="2.84452">
        <ele>25</ele>
      </trkpt>
      <trkpt lat="50.54537" lon="2.84469">
        <ele>25</ele>
      </trkpt>
      <trkpt lat="50.54549" lon="2.84486">
        <ele>25</ele>
      </trkpt>
      <trkpt lat="50.54563" lon="2.84509">
        <ele>24.9</ele>
      </trkpt>
      <trkpt lat="50.54577" lon="2.84527">
        <ele>24.2</ele>
      </trkpt>
      <trkpt lat="50.54588" lon="2.8454">
        <ele>24.5</ele>
      </trkpt>
      <trkpt lat="50.54591" lon="2.84544">
        <ele>24.7</ele>
      </trkpt>
      <trkpt lat="50.54608" lon="2.8456">
        <ele>25</ele>
      </trkpt>
      <trkpt lat="50.54631" lon="2.84579">
        <ele>24.4</ele>
      </trkpt>
      <trkpt lat="50.54665" lon="2.84606">
        <ele>24.2</ele>
      </trkpt>
      <trkpt lat="50.54681" lon="2.84618">
        <ele>24.1</ele>
      </trkpt>
      <trkpt lat="50.54696" lon="2.8463">
        <ele>24</ele>
      </trkpt>
      <trkpt lat="50.54773" lon="2.84696">
        <ele>24</ele>
      </trkpt>
      <trkpt lat="50.54784" lon="2.84706">
        <ele>24</ele>
      </trkpt>
      <trkpt lat="50.54788" lon="2.84714">
        <ele>24</ele>
      </trkpt>
      <trkpt lat="50.54795" lon="2.84724">
        <ele>24</ele>
      </trkpt>
      <trkpt lat="50.54804" lon="2.84734">
        <ele>24</ele>
      </trkpt>
      <trkpt lat="50.54812" lon="2.8474">
        <ele>24</ele>
      </trkpt>
      <trkpt lat="50.54819" lon="2.84744">
        <ele>24</ele>
      </trkpt>
      <trkpt lat="50.54826" lon="2.84746">
        <ele>24</ele>
      </trkpt>
      <trkpt lat="50.54842" lon="2.84767">
        <ele>24.1</ele>
      </trkpt>
      <trkpt lat="50.54845" lon="2.84771">
        <ele>24.1</ele>
      </trkpt>
      <trkpt lat="50.54859" lon="2.8479">
        <ele>24.4</ele>
      </trkpt>
      <trkpt lat="50.54885" lon="2.84834">
        <ele>25</ele>
      </trkpt>
      <trkpt lat="50.54892" lon="2.84846">
        <ele>25</ele>
      </trkpt>
      <trkpt lat="50.54905" lon="2.84868">
        <ele>25</ele>
      </trkpt>
      <trkpt lat="50.54955" lon="2.84954">
        <ele>25</ele>
      </trkpt>
      <trkpt lat="50.54966" lon="2.84977">
        <ele>25</ele>
      </trkpt>
      <trkpt lat="50.5497" lon="2.84983">
        <ele>25</ele>
      </trkpt>
      <trkpt lat="50.54973" lon="2.84993">
        <ele>25</ele>
      </trkpt>
      <trkpt lat="50.54975" lon="2.85003">
        <ele>25</ele>
      </trkpt>
      <trkpt lat="50.54977" lon="2.85014">
        <ele>25.1</ele>
      </trkpt>
      <trkpt lat="50.54979" lon="2.85035">
        <ele>25.2</ele>
        <extensions>
          <visugpx:TrkExtension xmlns:visugpx="https://www.visugpx.com/editgpx/">
            <visugpx:node>49</visugpx:node>
            </visugpx:TrkExtension>
        </extensions>
      </trkpt>
      <trkpt lat="50.54984" lon="2.8508">
        <ele>25</ele>
      </trkpt>
      <trkpt lat="50.5499" lon="2.85119">
        <ele>25.5</ele>
      </trkpt>
      <trkpt lat="50.54996" lon="2.85151">
        <ele>25</ele>
      </trkpt>
      <trkpt lat="50.55005" lon="2.85178">
        <ele>25</ele>
      </trkpt>
      <trkpt lat="50.55009" lon="2.85191">
        <ele>25</ele>
      </trkpt>
      <trkpt lat="50.55013" lon="2.85203">
        <ele>25</ele>
      </trkpt>
      <trkpt lat="50.55015" lon="2.85215">
        <ele>25</ele>
      </trkpt>
      <trkpt lat="50.55017" lon="2.85229">
        <ele>25</ele>
      </trkpt>
      <trkpt lat="50.55066" lon="2.85391">
        <ele>25</ele>
      </trkpt>
      <trkpt lat="50.55076" lon="2.85423">
        <ele>25</ele>
      </trkpt>
      <trkpt lat="50.55082" lon="2.85443">
        <ele>25</ele>
      </trkpt>
      <trkpt lat="50.55086" lon="2.85451">
        <ele>25</ele>
      </trkpt>
      <trkpt lat="50.55097" lon="2.8548">
        <ele>24.5</ele>
      </trkpt>
      <trkpt lat="50.551" lon="2.85489">
        <ele>24.4</ele>
      </trkpt>
      <trkpt lat="50.55102" lon="2.85509">
        <ele>24.5</ele>
      </trkpt>
      <trkpt lat="50.55107" lon="2.85526">
        <ele>24.9</ele>
      </trkpt>
      <trkpt lat="50.55113" lon="2.8555">
        <ele>25</ele>
      </trkpt>
      <trkpt lat="50.55114" lon="2.85555">
        <ele>25</ele>
      </trkpt>
      <trkpt lat="50.55116" lon="2.85563">
        <ele>24.8</ele>
      </trkpt>
      <trkpt lat="50.5512" lon="2.85582">
        <ele>24.4</ele>
      </trkpt>
      <trkpt lat="50.55128" lon="2.85623">
        <ele>25</ele>
      </trkpt>
      <trkpt lat="50.55132" lon="2.8565">
        <ele>25</ele>
      </trkpt>
      <trkpt lat="50.55136" lon="2.8568">
        <ele>25</ele>
      </trkpt>
      <trkpt lat="50.55137" lon="2.85684">
        <ele>25</ele>
      </trkpt>
      <trkpt lat="50.55141" lon="2.85707">
        <ele>25</ele>
      </trkpt>
      <trkpt lat="50.55144" lon="2.85722">
        <ele>25</ele>
      </trkpt>
      <trkpt lat="50.55148" lon="2.85734">
        <ele>25</ele>
      </trkpt>
      <trkpt lat="50.55153" lon="2.8575">
        <ele>25</ele>
      </trkpt>
      <trkpt lat="50.55162" lon="2.85774">
        <ele>25</ele>
      </trkpt>
      <trkpt lat="50.55169" lon="2.85787">
        <ele>25.1</ele>
      </trkpt>
      <trkpt lat="50.55177" lon="2.858">
        <ele>25.1</ele>
      </trkpt>
      <trkpt lat="50.55178" lon="2.85803">
        <ele>25</ele>
      </trkpt>
      <trkpt lat="50.55185" lon="2.85816">
        <ele>25.1</ele>
      </trkpt>
      <trkpt lat="50.55189" lon="2.85826">
        <ele>25.1</ele>
      </trkpt>
      <trkpt lat="50.55192" lon="2.85833">
        <ele>25.1</ele>
      </trkpt>
      <trkpt lat="50.55197" lon="2.8585">
        <ele>25</ele>
      </trkpt>
      <trkpt lat="50.55199" lon="2.85855">
        <ele>25</ele>
      </trkpt>
      <trkpt lat="50.55203" lon="2.85869">
        <ele>25</ele>
      </trkpt>
      <trkpt lat="50.55209" lon="2.85887">
        <ele>25</ele>
      </trkpt>
      <trkpt lat="50.55213" lon="2.85905">
        <ele>25</ele>
      </trkpt>
      <trkpt lat="50.55214" lon="2.85913">
        <ele>25</ele>
      </trkpt>
      <trkpt lat="50.55218" lon="2.85931">
        <ele>25</ele>
      </trkpt>
      <trkpt lat="50.5522" lon="2.85952">
        <ele>25</ele>
      </trkpt>
      <trkpt lat="50.55223" lon="2.85975">
        <ele>25</ele>
      </trkpt>
      <trkpt lat="50.55224" lon="2.85992">
        <ele>25</ele>
      </trkpt>
      <trkpt lat="50.55225" lon="2.86006">
        <ele>25</ele>
      </trkpt>
      <trkpt lat="50.55225" lon="2.86022">
        <ele>25</ele>
      </trkpt>
      <trkpt lat="50.55226" lon="2.86037">
        <ele>25</ele>
      </trkpt>
      <trkpt lat="50.55227" lon="2.86052">
        <ele>25</ele>
      </trkpt>
      <trkpt lat="50.55229" lon="2.86069">
        <ele>25</ele>
      </trkpt>
      <trkpt lat="50.55232" lon="2.86082">
        <ele>25</ele>
      </trkpt>
      <trkpt lat="50.55234" lon="2.86096">
        <ele>25</ele>
      </trkpt>
      <trkpt lat="50.55238" lon="2.86109">
        <ele>25</ele>
      </trkpt>
      <trkpt lat="50.55246" lon="2.8613">
        <ele>24.4</ele>
      </trkpt>
      <trkpt lat="50.55256" lon="2.86149">
        <ele>24.5</ele>
      </trkpt>
      <trkpt lat="50.55265" lon="2.86161">
        <ele>24.9</ele>
      </trkpt>
      <trkpt lat="50.55266" lon="2.86164">
        <ele>25</ele>
      </trkpt>
      <trkpt lat="50.55276" lon="2.86175">
        <ele>25</ele>
      </trkpt>
      <trkpt lat="50.55285" lon="2.86187">
        <ele>25</ele>
      </trkpt>
      <trkpt lat="50.55292" lon="2.86198">
        <ele>25.1</ele>
      </trkpt>
      <trkpt lat="50.553" lon="2.86213">
        <ele>25.1</ele>
      </trkpt>
      <trkpt lat="50.55312" lon="2.86246">
        <ele>25.9</ele>
      </trkpt>
      <trkpt lat="50.55316" lon="2.86255">
        <ele>26</ele>
        <extensions>
          <visugpx:TrkExtension xmlns:visugpx="https://www.visugpx.com/editgpx/">
            <visugpx:node>50</visugpx:node>
            </visugpx:TrkExtension>
        </extensions>
      </trkpt>
      <trkpt lat="50.55335" lon="2.86307">
        <ele>26</ele>
      </trkpt>
      <trkpt lat="50.55353" lon="2.8635">
        <ele>26</ele>
      </trkpt>
      <trkpt lat="50.55365" lon="2.8638">
        <ele>26.1</ele>
      </trkpt>
      <trkpt lat="50.55386" lon="2.86435">
        <ele>26</ele>
      </trkpt>
      <trkpt lat="50.55404" lon="2.86485">
        <ele>26.3</ele>
      </trkpt>
      <trkpt lat="50.554" lon="2.86486">
        <ele>26.2</ele>
      </trkpt>
      <trkpt lat="50.55398" lon="2.86489">
        <ele>26.1</ele>
      </trkpt>
      <trkpt lat="50.55395" lon="2.86494">
        <ele>26</ele>
      </trkpt>
      <trkpt lat="50.55395" lon="2.86499">
        <ele>26</ele>
      </trkpt>
      <trkpt lat="50.55395" lon="2.86505">
        <ele>26</ele>
      </trkpt>
      <trkpt lat="50.55397" lon="2.8651">
        <ele>26</ele>
      </trkpt>
      <trkpt lat="50.55365" lon="2.86542">
        <ele>26</ele>
      </trkpt>
      <trkpt lat="50.55334" lon="2.86583">
        <ele>25</ele>
      </trkpt>
      <trkpt lat="50.5533" lon="2.86588">
        <ele>25</ele>
      </trkpt>
      <trkpt lat="50.55326" lon="2.86594">
        <ele>25</ele>
      </trkpt>
      <trkpt lat="50.55279" lon="2.86659">
        <ele>25</ele>
      </trkpt>
      <trkpt lat="50.55219" lon="2.86746">
        <ele>24</ele>
      </trkpt>
      <trkpt lat="50.55191" lon="2.86785">
        <ele>24.2</ele>
      </trkpt>
      <trkpt lat="50.55162" lon="2.86822">
        <ele>24.7</ele>
      </trkpt>
      <trkpt lat="50.55156" lon="2.86828">
        <ele>24.9</ele>
      </trkpt>
      <trkpt lat="50.55139" lon="2.86844">
        <ele>25</ele>
      </trkpt>
      <trkpt lat="50.55137" lon="2.86846">
        <ele>25</ele>
      </trkpt>
      <trkpt lat="50.55132" lon="2.86851">
        <ele>24.8</ele>
      </trkpt>
      <trkpt lat="50.55117" lon="2.86865">
        <ele>24.2</ele>
      </trkpt>
      <trkpt lat="50.55111" lon="2.86871">
        <ele>24</ele>
      </trkpt>
      <trkpt lat="50.5513" lon="2.86919">
        <ele>24</ele>
      </trkpt>
      <trkpt lat="50.55177" lon="2.87026">
        <ele>24.4</ele>
      </trkpt>
      <trkpt lat="50.552" lon="2.87075">
        <ele>24.2</ele>
      </trkpt>
      <trkpt lat="50.55201" lon="2.87079">
        <ele>24.2</ele>
        <extensions>
          <visugpx:TrkExtension xmlns:visugpx="https://www.visugpx.com/editgpx/">
            <visugpx:node>51</visugpx:node>
            </visugpx:TrkExtension>
        </extensions>
      </trkpt>
      <trkpt lat="50.55225" lon="2.87127">
        <ele>25</ele>
      </trkpt>
      <trkpt lat="50.55243" lon="2.87162">
        <ele>25</ele>
      </trkpt>
      <trkpt lat="50.55249" lon="2.87174">
        <ele>25</ele>
      </trkpt>
      <trkpt lat="50.55278" lon="2.87232">
        <ele>26</ele>
      </trkpt>
      <trkpt lat="50.55282" lon="2.87239">
        <ele>26</ele>
      </trkpt>
      <trkpt lat="50.55288" lon="2.87247">
        <ele>26</ele>
      </trkpt>
      <trkpt lat="50.5529" lon="2.8725">
        <ele>26</ele>
      </trkpt>
      <trkpt lat="50.55292" lon="2.87253">
        <ele>26</ele>
      </trkpt>
      <trkpt lat="50.55298" lon="2.8726">
        <ele>26</ele>
      </trkpt>
      <trkpt lat="50.55306" lon="2.87268">
        <ele>26</ele>
      </trkpt>
      <trkpt lat="50.55327" lon="2.87287">
        <ele>26</ele>
      </trkpt>
      <trkpt lat="50.55349" lon="2.87305">
        <ele>26</ele>
      </trkpt>
      <trkpt lat="50.55354" lon="2.87309">
        <ele>26</ele>
      </trkpt>
      <trkpt lat="50.55363" lon="2.87317">
        <ele>26</ele>
      </trkpt>
      <trkpt lat="50.55367" lon="2.87321">
        <ele>26</ele>
      </trkpt>
      <trkpt lat="50.55369" lon="2.87323">
        <ele>26</ele>
      </trkpt>
      <trkpt lat="50.55372" lon="2.87326">
        <ele>26</ele>
      </trkpt>
      <trkpt lat="50.55373" lon="2.87328">
        <ele>26</ele>
      </trkpt>
      <trkpt lat="50.55373" lon="2.87328">
        <ele>26</ele>
      </trkpt>
      <trkpt lat="50.55373" lon="2.87329">
        <ele>26</ele>
      </trkpt>
      <trkpt lat="50.55373" lon="2.8733">
        <ele>26</ele>
      </trkpt>
      <trkpt lat="50.55373" lon="2.87332">
        <ele>26</ele>
      </trkpt>
      <trkpt lat="50.55373" lon="2.87333">
        <ele>26</ele>
      </trkpt>
      <trkpt lat="50.55373" lon="2.87334">
        <ele>26</ele>
      </trkpt>
      <trkpt lat="50.55374" lon="2.87335">
        <ele>26</ele>
      </trkpt>
      <trkpt lat="50.55374" lon="2.87336">
        <ele>26</ele>
      </trkpt>
      <trkpt lat="50.55375" lon="2.87337">
        <ele>26</ele>
      </trkpt>
      <trkpt lat="50.55376" lon="2.87337">
        <ele>26</ele>
      </trkpt>
      <trkpt lat="50.55377" lon="2.87337">
        <ele>26</ele>
      </trkpt>
      <trkpt lat="50.55378" lon="2.87337">
        <ele>26</ele>
      </trkpt>
      <trkpt lat="50.5538" lon="2.87342">
        <ele>26</ele>
      </trkpt>
      <trkpt lat="50.55387" lon="2.87363">
        <ele>26.1</ele>
      </trkpt>
      <trkpt lat="50.55391" lon="2.8738">
        <ele>26.7</ele>
      </trkpt>
      <trkpt lat="50.55395" lon="2.87393">
        <ele>27</ele>
      </trkpt>
      <trkpt lat="50.55399" lon="2.87405">
        <ele>27</ele>
      </trkpt>
      <trkpt lat="50.55402" lon="2.87416">
        <ele>27</ele>
      </trkpt>
      <trkpt lat="50.55406" lon="2.87424">
        <ele>26.8</ele>
      </trkpt>
      <trkpt lat="50.55409" lon="2.8743">
        <ele>26.7</ele>
      </trkpt>
      <trkpt lat="50.55412" lon="2.87435">
        <ele>26.5</ele>
      </trkpt>
      <trkpt lat="50.55414" lon="2.87439">
        <ele>26.3</ele>
      </trkpt>
      <trkpt lat="50.55417" lon="2.87443">
        <ele>26.1</ele>
      </trkpt>
      <trkpt lat="50.55422" lon="2.87447">
        <ele>26.3</ele>
      </trkpt>
      <trkpt lat="50.55426" lon="2.87452">
        <ele>26.5</ele>
      </trkpt>
      <trkpt lat="50.55432" lon="2.87457">
        <ele>26.8</ele>
      </trkpt>
      <trkpt lat="50.55438" lon="2.87461">
        <ele>26.9</ele>
      </trkpt>
      <trkpt lat="50.55443" lon="2.87466">
        <ele>27</ele>
      </trkpt>
      <trkpt lat="50.55448" lon="2.87472">
        <ele>27</ele>
      </trkpt>
      <trkpt lat="50.55454" lon="2.87479">
        <ele>27</ele>
      </trkpt>
      <trkpt lat="50.55454" lon="2.87479">
        <ele>27</ele>
      </trkpt>
      <trkpt lat="50.55459" lon="2.87486">
        <ele>27</ele>
      </trkpt>
      <trkpt lat="50.55465" lon="2.87493">
        <ele>27</ele>
      </trkpt>
      <trkpt lat="50.55469" lon="2.87499">
        <ele>27</ele>
      </trkpt>
      <trkpt lat="50.55476" lon="2.87509">
        <ele>27.1</ele>
      </trkpt>
      <trkpt lat="50.55486" lon="2.87525">
        <ele>27</ele>
      </trkpt>
      <trkpt lat="50.55495" lon="2.87536">
        <ele>27</ele>
      </trkpt>
      <trkpt lat="50.55502" lon="2.87546">
        <ele>27</ele>
      </trkpt>
      <trkpt lat="50.55509" lon="2.87557">
        <ele>27</ele>
      </trkpt>
      <trkpt lat="50.55516" lon="2.87568">
        <ele>27</ele>
      </trkpt>
      <trkpt lat="50.55523" lon="2.87582">
        <ele>27</ele>
      </trkpt>
      <trkpt lat="50.55529" lon="2.87595">
        <ele>27</ele>
      </trkpt>
      <trkpt lat="50.55535" lon="2.87604">
        <ele>27</ele>
      </trkpt>
      <trkpt lat="50.55541" lon="2.87615">
        <ele>27</ele>
      </trkpt>
      <trkpt lat="50.55546" lon="2.87627">
        <ele>27</ele>
      </trkpt>
      <trkpt lat="50.55551" lon="2.87637">
        <ele>27</ele>
      </trkpt>
      <trkpt lat="50.55553" lon="2.87642">
        <ele>27</ele>
      </trkpt>
      <trkpt lat="50.55556" lon="2.87647">
        <ele>27</ele>
      </trkpt>
      <trkpt lat="50.55557" lon="2.87649">
        <ele>27.1</ele>
      </trkpt>
      <trkpt lat="50.55559" lon="2.87653">
        <ele>27.1</ele>
      </trkpt>
      <trkpt lat="50.55564" lon="2.87662">
        <ele>27.3</ele>
      </trkpt>
      <trkpt lat="50.5557" lon="2.8767">
        <ele>27.6</ele>
      </trkpt>
      <trkpt lat="50.55584" lon="2.87687">
        <ele>28</ele>
      </trkpt>
      <trkpt lat="50.55598" lon="2.87701">
        <ele>28</ele>
      </trkpt>
      <trkpt lat="50.55615" lon="2.8772">
        <ele>28</ele>
      </trkpt>
      <trkpt lat="50.55615" lon="2.8772">
        <ele>28</ele>
      </trkpt>
      <trkpt lat="50.55625" lon="2.87733">
        <ele>28.4</ele>
      </trkpt>
      <trkpt lat="50.55628" lon="2.87737">
        <ele>28.5</ele>
      </trkpt>
      <trkpt lat="50.55752" lon="2.87914">
        <ele>30.9</ele>
      </trkpt>
      <trkpt lat="50.55762" lon="2.87926">
        <ele>31</ele>
      </trkpt>
      <trkpt lat="50.55776" lon="2.87948">
        <ele>31</ele>
      </trkpt>
      <trkpt lat="50.55805" lon="2.87989">
        <ele>31</ele>
      </trkpt>
      <trkpt lat="50.55806" lon="2.87991">
        <ele>31</ele>
        <extensions>
          <visugpx:TrkExtension xmlns:visugpx="https://www.visugpx.com/editgpx/">
            <visugpx:node>52</visugpx:node>
            </visugpx:TrkExtension>
        </extensions>
      </trkpt>
      <trkpt lat="50.5582" lon="2.88009">
        <ele>31.7</ele>
      </trkpt>
      <trkpt lat="50.55839" lon="2.88038">
        <ele>32</ele>
      </trkpt>
      <trkpt lat="50.55881" lon="2.88111">
        <ele>32</ele>
      </trkpt>
      <trkpt lat="50.55898" lon="2.88139">
        <ele>32</ele>
      </trkpt>
      <trkpt lat="50.55913" lon="2.88164">
        <ele>32</ele>
      </trkpt>
      <trkpt lat="50.55937" lon="2.88193">
        <ele>32</ele>
      </trkpt>
      <trkpt lat="50.55963" lon="2.88224">
        <ele>32</ele>
      </trkpt>
      <trkpt lat="50.56014" lon="2.8828">
        <ele>31.5</ele>
      </trkpt>
      <trkpt lat="50.5602" lon="2.88289">
        <ele>31.4</ele>
      </trkpt>
      <trkpt lat="50.56024" lon="2.88295">
        <ele>31.3</ele>
      </trkpt>
      <trkpt lat="50.56031" lon="2.88311">
        <ele>31.1</ele>
      </trkpt>
      <trkpt lat="50.56038" lon="2.88337">
        <ele>31.4</ele>
      </trkpt>
      <trkpt lat="50.56046" lon="2.88372">
        <ele>31.7</ele>
      </trkpt>
      <trkpt lat="50.56109" lon="2.88632">
        <ele>32</ele>
      </trkpt>
      <trkpt lat="50.56125" lon="2.88695">
        <ele>32.5</ele>
      </trkpt>
      <trkpt lat="50.56128" lon="2.88704">
        <ele>32.6</ele>
      </trkpt>
      <trkpt lat="50.56139" lon="2.88751">
        <ele>33</ele>
      </trkpt>
      <trkpt lat="50.56153" lon="2.88811">
        <ele>32.9</ele>
      </trkpt>
      <trkpt lat="50.56158" lon="2.8883">
        <ele>32.7</ele>
      </trkpt>
      <trkpt lat="50.56177" lon="2.88908">
        <ele>32.4</ele>
      </trkpt>
      <trkpt lat="50.56184" lon="2.88933">
        <ele>32.3</ele>
      </trkpt>
      <trkpt lat="50.56194" lon="2.8897">
        <ele>32</ele>
      </trkpt>
      <trkpt lat="50.5621" lon="2.89033">
        <ele>32</ele>
      </trkpt>
      <trkpt lat="50.56226" lon="2.891">
        <ele>32.1</ele>
      </trkpt>
      <trkpt lat="50.56243" lon="2.89177">
        <ele>32</ele>
      </trkpt>
      <trkpt lat="50.56262" lon="2.89275">
        <ele>32</ele>
      </trkpt>
      <trkpt lat="50.56288" lon="2.89404">
        <ele>31.2</ele>
      </trkpt>
      <trkpt lat="50.56307" lon="2.89504">
        <ele>31</ele>
        <extensions>
          <visugpx:TrkExtension xmlns:visugpx="https://www.visugpx.com/editgpx/">
            <visugpx:node>53</visugpx:node>
            </visugpx:TrkExtension>
        </extensions>
      </trkpt>
      <trkpt lat="50.56308" lon="2.89506">
        <ele>31</ele>
      </trkpt>
      <trkpt lat="50.56312" lon="2.89535">
        <ele>31</ele>
      </trkpt>
      <trkpt lat="50.56312" lon="2.89547">
        <ele>31</ele>
      </trkpt>
      <trkpt lat="50.56314" lon="2.89565">
        <ele>31</ele>
      </trkpt>
      <trkpt lat="50.56315" lon="2.89572">
        <ele>31</ele>
      </trkpt>
      <trkpt lat="50.56319" lon="2.89584">
        <ele>31</ele>
      </trkpt>
      <trkpt lat="50.5636" lon="2.89665">
        <ele>31</ele>
      </trkpt>
      <trkpt lat="50.5637" lon="2.89685">
        <ele>31</ele>
      </trkpt>
      <trkpt lat="50.56408" lon="2.89757">
        <ele>31</ele>
      </trkpt>
      <trkpt lat="50.56371" lon="2.89804">
        <ele>31</ele>
        <extensions>
          <visugpx:TrkExtension xmlns:visugpx="https://www.visugpx.com/editgpx/">
            <visugpx:node>54</visugpx:node>
            </visugpx:TrkExtension>
        </extensions>
      </trkpt>
      <trkpt lat="50.56367" lon="2.89809">
        <ele>30.9</ele>
      </trkpt>
      <trkpt lat="50.56356" lon="2.89823">
        <ele>30.3</ele>
      </trkpt>
      <trkpt lat="50.56356" lon="2.89823">
        <ele>30.3</ele>
      </trkpt>
      <trkpt lat="50.56331" lon="2.89858">
        <ele>30</ele>
      </trkpt>
      <trkpt lat="50.56327" lon="2.89863">
        <ele>30</ele>
      </trkpt>
      <trkpt lat="50.56314" lon="2.89886">
        <ele>30</ele>
      </trkpt>
      <trkpt lat="50.5631" lon="2.89892">
        <ele>30</ele>
      </trkpt>
      <trkpt lat="50.56303" lon="2.89903">
        <ele>30</ele>
      </trkpt>
      <trkpt lat="50.56296" lon="2.89916">
        <ele>30</ele>
      </trkpt>
      <trkpt lat="50.56296" lon="2.89916">
        <ele>30</ele>
      </trkpt>
      <trkpt lat="50.56293" lon="2.89923">
        <ele>30</ele>
      </trkpt>
      <trkpt lat="50.56291" lon="2.8993">
        <ele>30</ele>
      </trkpt>
      <trkpt lat="50.5629" lon="2.89932">
        <ele>30</ele>
      </trkpt>
      <trkpt lat="50.56285" lon="2.89946">
        <ele>30</ele>
      </trkpt>
      <trkpt lat="50.56282" lon="2.89945">
        <ele>30</ele>
      </trkpt>
      <trkpt lat="50.56279" lon="2.89945">
        <ele>30</ele>
      </trkpt>
      <trkpt lat="50.56277" lon="2.89947">
        <ele>30</ele>
      </trkpt>
      <trkpt lat="50.56275" lon="2.89949">
        <ele>30</ele>
      </trkpt>
      <trkpt lat="50.56274" lon="2.89953">
        <ele>30</ele>
      </trkpt>
      <trkpt lat="50.56273" lon="2.89958">
        <ele>30</ele>
      </trkpt>
      <trkpt lat="50.56273" lon="2.89964">
        <ele>30</ele>
      </trkpt>
      <trkpt lat="50.5627" lon="2.89966">
        <ele>30</ele>
      </trkpt>
      <trkpt lat="50.56264" lon="2.89971">
        <ele>30</ele>
      </trkpt>
      <trkpt lat="50.56257" lon="2.89978">
        <ele>30</ele>
      </trkpt>
      <trkpt lat="50.56244" lon="2.89992">
        <ele>29.8</ele>
      </trkpt>
      <trkpt lat="50.56196" lon="2.90049">
        <ele>29.1</ele>
      </trkpt>
      <trkpt lat="50.56153" lon="2.90102">
        <ele>28.7</ele>
      </trkpt>
      <trkpt lat="50.56131" lon="2.90129">
        <ele>27.8</ele>
        <extensions>
          <visugpx:TrkExtension xmlns:visugpx="https://www.visugpx.com/editgpx/">
            <visugpx:node>55</visugpx:node>
            </visugpx:TrkExtension>
        </extensions>
      </trkpt>
      <trkpt lat="50.56126" lon="2.90135">
        <ele>27.6</ele>
      </trkpt>
      <trkpt lat="50.56126" lon="2.90136">
        <ele>27.6</ele>
      </trkpt>
      <trkpt lat="50.56114" lon="2.90149">
        <ele>27.1</ele>
      </trkpt>
      <trkpt lat="50.56073" lon="2.90184">
        <ele>26.8</ele>
      </trkpt>
      <trkpt lat="50.5607" lon="2.90187">
        <ele>26.6</ele>
      </trkpt>
      <trkpt lat="50.56064" lon="2.90191">
        <ele>26.4</ele>
      </trkpt>
      <trkpt lat="50.56041" lon="2.9021">
        <ele>26.2</ele>
      </trkpt>
      <trkpt lat="50.56008" lon="2.90237">
        <ele>25.5</ele>
      </trkpt>
      <trkpt lat="50.55996" lon="2.90246">
        <ele>25.1</ele>
      </trkpt>
      <trkpt lat="50.55977" lon="2.90261">
        <ele>24.7</ele>
      </trkpt>
      <trkpt lat="50.55969" lon="2.90272">
        <ele>24.2</ele>
      </trkpt>
      <trkpt lat="50.55967" lon="2.90278">
        <ele>24</ele>
      </trkpt>
      <trkpt lat="50.5595" lon="2.90297">
        <ele>23.4</ele>
      </trkpt>
      <trkpt lat="50.55914" lon="2.90332">
        <ele>22</ele>
      </trkpt>
      <trkpt lat="50.55892" lon="2.90351">
        <ele>22</ele>
      </trkpt>
      <trkpt lat="50.55879" lon="2.90352">
        <ele>22</ele>
        <extensions>
          <visugpx:TrkExtension xmlns:visugpx="https://www.visugpx.com/editgpx/">
            <visugpx:node>56</visugpx:node>
            </visugpx:TrkExtension>
        </extensions>
      </trkpt>
      <trkpt lat="50.55855" lon="2.90356">
        <ele>22</ele>
      </trkpt>
      <trkpt lat="50.5582" lon="2.90359">
        <ele>22</ele>
      </trkpt>
      <trkpt lat="50.55794" lon="2.90362">
        <ele>22</ele>
      </trkpt>
      <trkpt lat="50.55775" lon="2.90398">
        <ele>22</ele>
      </trkpt>
      <trkpt lat="50.55747" lon="2.90446">
        <ele>22</ele>
        <extensions>
          <visugpx:TrkExtension xmlns:visugpx="https://www.visugpx.com/editgpx/">
            <visugpx:node>57</visugpx:node>
            </visugpx:TrkExtension>
        </extensions>
      </trkpt>
      <trkpt lat="50.55702" lon="2.90523">
        <ele>22</ele>
      </trkpt>
      <trkpt lat="50.55686" lon="2.90552">
        <ele>22</ele>
      </trkpt>
      <trkpt lat="50.55567" lon="2.90759">
        <ele>22</ele>
      </trkpt>
      <trkpt lat="50.5556" lon="2.90772">
        <ele>22</ele>
      </trkpt>
      <trkpt lat="50.5542" lon="2.91025">
        <ele>21</ele>
      </trkpt>
      <trkpt lat="50.5535" lon="2.91151">
        <ele>21</ele>
      </trkpt>
      <trkpt lat="50.55344" lon="2.91161">
        <ele>21</ele>
      </trkpt>
      <trkpt lat="50.55303" lon="2.91239">
        <ele>20.9</ele>
      </trkpt>
      <trkpt lat="50.55296" lon="2.91255">
        <ele>20.7</ele>
      </trkpt>
      <trkpt lat="50.55291" lon="2.91265">
        <ele>20.5</ele>
      </trkpt>
      <trkpt lat="50.55286" lon="2.91281">
        <ele>20.3</ele>
      </trkpt>
      <trkpt lat="50.55278" lon="2.91305">
        <ele>20</ele>
      </trkpt>
      <trkpt lat="50.55274" lon="2.91326">
        <ele>20.1</ele>
      </trkpt>
      <trkpt lat="50.55276" lon="2.91339">
        <ele>20.3</ele>
      </trkpt>
      <trkpt lat="50.55276" lon="2.91341">
        <ele>20.3</ele>
      </trkpt>
      <trkpt lat="50.55278" lon="2.91347">
        <ele>20.5</ele>
      </trkpt>
      <trkpt lat="50.55283" lon="2.91367">
        <ele>21</ele>
      </trkpt>
      <trkpt lat="50.55287" lon="2.91379">
        <ele>21</ele>
      </trkpt>
      <trkpt lat="50.55293" lon="2.91402">
        <ele>21</ele>
      </trkpt>
      <trkpt lat="50.553" lon="2.91425">
        <ele>21</ele>
      </trkpt>
      <trkpt lat="50.55302" lon="2.91435">
        <ele>21</ele>
      </trkpt>
      <trkpt lat="50.55304" lon="2.91441">
        <ele>21</ele>
      </trkpt>
      <trkpt lat="50.55307" lon="2.9145">
        <ele>21</ele>
      </trkpt>
      <trkpt lat="50.55309" lon="2.9146">
        <ele>21</ele>
      </trkpt>
      <trkpt lat="50.5531" lon="2.91464">
        <ele>21</ele>
      </trkpt>
      <trkpt lat="50.55311" lon="2.91466">
        <ele>21</ele>
        <extensions>
          <visugpx:TrkExtension xmlns:visugpx="https://www.visugpx.com/editgpx/">
            <visugpx:node>58</visugpx:node>
            </visugpx:TrkExtension>
        </extensions>
      </trkpt>
      <trkpt lat="50.55308" lon="2.91469">
        <ele>21</ele>
      </trkpt>
      <trkpt lat="50.55304" lon="2.91472">
        <ele>21</ele>
      </trkpt>
      <trkpt lat="50.55301" lon="2.91474">
        <ele>21</ele>
      </trkpt>
      <trkpt lat="50.55298" lon="2.91476">
        <ele>21</ele>
      </trkpt>
      <trkpt lat="50.55291" lon="2.91481">
        <ele>21</ele>
      </trkpt>
      <trkpt lat="50.55267" lon="2.91498">
        <ele>21</ele>
      </trkpt>
      <trkpt lat="50.55255" lon="2.91508">
        <ele>21</ele>
      </trkpt>
      <trkpt lat="50.55252" lon="2.91511">
        <ele>21</ele>
      </trkpt>
      <trkpt lat="50.55249" lon="2.91513">
        <ele>21</ele>
      </trkpt>
      <trkpt lat="50.5524" lon="2.91522">
        <ele>21</ele>
      </trkpt>
      <trkpt lat="50.55237" lon="2.91526">
        <ele>21</ele>
      </trkpt>
      <trkpt lat="50.5523" lon="2.91532">
        <ele>21</ele>
      </trkpt>
      <trkpt lat="50.55221" lon="2.91542">
        <ele>21</ele>
      </trkpt>
      <trkpt lat="50.55213" lon="2.91554">
        <ele>21.3</ele>
      </trkpt>
      <trkpt lat="50.55209" lon="2.91562">
        <ele>21.5</ele>
      </trkpt>
      <trkpt lat="50.55204" lon="2.91573">
        <ele>21.7</ele>
      </trkpt>
      <trkpt lat="50.55202" lon="2.9158">
        <ele>21.7</ele>
      </trkpt>
      <trkpt lat="50.55199" lon="2.91588">
        <ele>21.8</ele>
      </trkpt>
      <trkpt lat="50.55154" lon="2.91702">
        <ele>21.9</ele>
      </trkpt>
      <trkpt lat="50.55147" lon="2.91721">
        <ele>21.7</ele>
      </trkpt>
      <trkpt lat="50.55115" lon="2.91804">
        <ele>23.9</ele>
      </trkpt>
      <trkpt lat="50.55114" lon="2.91803">
        <ele>23.9</ele>
      </trkpt>
      <trkpt lat="50.55111" lon="2.91803">
        <ele>24</ele>
      </trkpt>
      <trkpt lat="50.55109" lon="2.91804">
        <ele>24</ele>
      </trkpt>
      <trkpt lat="50.55107" lon="2.91807">
        <ele>24</ele>
      </trkpt>
      <trkpt lat="50.55106" lon="2.91811">
        <ele>24</ele>
      </trkpt>
      <trkpt lat="50.55106" lon="2.91812">
        <ele>24</ele>
      </trkpt>
      <trkpt lat="50.55105" lon="2.91815">
        <ele>24</ele>
      </trkpt>
      <trkpt lat="50.55104" lon="2.91819">
        <ele>24</ele>
      </trkpt>
      <trkpt lat="50.55103" lon="2.91823">
        <ele>24</ele>
      </trkpt>
      <trkpt lat="50.55104" lon="2.91829">
        <ele>24</ele>
      </trkpt>
      <trkpt lat="50.551" lon="2.91829">
        <ele>24</ele>
      </trkpt>
      <trkpt lat="50.55096" lon="2.9183">
        <ele>24</ele>
      </trkpt>
      <trkpt lat="50.55095" lon="2.9183">
        <ele>24</ele>
      </trkpt>
      <trkpt lat="50.5508" lon="2.91834">
        <ele>24</ele>
      </trkpt>
      <trkpt lat="50.55076" lon="2.91835">
        <ele>23.9</ele>
      </trkpt>
      <trkpt lat="50.55073" lon="2.91834">
        <ele>24</ele>
      </trkpt>
      <trkpt lat="50.55068" lon="2.91832">
        <ele>24</ele>
      </trkpt>
      <trkpt lat="50.55014" lon="2.91788">
        <ele>23.8</ele>
        <extensions>
          <visugpx:TrkExtension xmlns:visugpx="https://www.visugpx.com/editgpx/">
            <visugpx:node>59</visugpx:node>
            </visugpx:TrkExtension>
        </extensions>
      </trkpt>
      <trkpt lat="50.55012" lon="2.91786">
        <ele>23.8</ele>
      </trkpt>
      <trkpt lat="50.5498" lon="2.91763">
        <ele>24</ele>
      </trkpt>
      <trkpt lat="50.54976" lon="2.91758">
        <ele>24</ele>
      </trkpt>
      <trkpt lat="50.54972" lon="2.91773">
        <ele>24</ele>
      </trkpt>
      <trkpt lat="50.54972" lon="2.91783">
        <ele>23.8</ele>
      </trkpt>
      <trkpt lat="50.54975" lon="2.91816">
        <ele>23</ele>
      </trkpt>
      <trkpt lat="50.54979" lon="2.91872">
        <ele>22</ele>
      </trkpt>
      <trkpt lat="50.54981" lon="2.91882">
        <ele>22</ele>
      </trkpt>
      <trkpt lat="50.54956" lon="2.91922">
        <ele>23</ele>
      </trkpt>
      <trkpt lat="50.54944" lon="2.9194">
        <ele>23</ele>
      </trkpt>
      <trkpt lat="50.54941" lon="2.91944">
        <ele>23</ele>
      </trkpt>
      <trkpt lat="50.54913" lon="2.91983">
        <ele>23</ele>
      </trkpt>
      <trkpt lat="50.549" lon="2.91979">
        <ele>23</ele>
      </trkpt>
      <trkpt lat="50.5488" lon="2.9197">
        <ele>23</ele>
      </trkpt>
      <trkpt lat="50.5486" lon="2.91961">
        <ele>23.4</ele>
      </trkpt>
      <trkpt lat="50.54849" lon="2.91956">
        <ele>23.6</ele>
      </trkpt>
      <trkpt lat="50.5484" lon="2.91957">
        <ele>23.5</ele>
      </trkpt>
      <trkpt lat="50.54835" lon="2.91969">
        <ele>23.1</ele>
      </trkpt>
      <trkpt lat="50.54831" lon="2.91978">
        <ele>23.3</ele>
      </trkpt>
      <trkpt lat="50.54825" lon="2.91987">
        <ele>23.7</ele>
      </trkpt>
      <trkpt lat="50.54817" lon="2.91998">
        <ele>24</ele>
      </trkpt>
      <trkpt lat="50.54803" lon="2.92014">
        <ele>24</ele>
      </trkpt>
      <trkpt lat="50.54795" lon="2.9202">
        <ele>24</ele>
      </trkpt>
      <trkpt lat="50.54788" lon="2.92024">
        <ele>24</ele>
      </trkpt>
      <trkpt lat="50.54771" lon="2.9203">
        <ele>24.3</ele>
      </trkpt>
      <trkpt lat="50.54691" lon="2.92048">
        <ele>23.5</ele>
      </trkpt>
      <trkpt lat="50.5468" lon="2.92051">
        <ele>21.9</ele>
      </trkpt>
      <trkpt lat="50.54679" lon="2.92051">
        <ele>21.8</ele>
      </trkpt>
      <trkpt lat="50.54671" lon="2.92052">
        <ele>20.6</ele>
      </trkpt>
      <trkpt lat="50.54656" lon="2.92056">
        <ele>20</ele>
      </trkpt>
      <trkpt lat="50.54642" lon="2.92059">
        <ele>20</ele>
      </trkpt>
      <trkpt lat="50.54633" lon="2.92061">
        <ele>21.1</ele>
      </trkpt>
      <trkpt lat="50.54628" lon="2.92062">
        <ele>22</ele>
      </trkpt>
      <trkpt lat="50.5462" lon="2.92064">
        <ele>23.4</ele>
      </trkpt>
      <trkpt lat="50.54598" lon="2.92069">
        <ele>24.8</ele>
      </trkpt>
      <trkpt lat="50.54499" lon="2.92091">
        <ele>24.7</ele>
        <extensions>
          <visugpx:TrkExtension xmlns:visugpx="https://www.visugpx.com/editgpx/">
            <visugpx:node>60</visugpx:node>
            </visugpx:TrkExtension>
        </extensions>
      </trkpt>
      <trkpt lat="50.54411" lon="2.9211">
        <ele>24</ele>
      </trkpt>
      <trkpt lat="50.54388" lon="2.92115">
        <ele>24.2</ele>
      </trkpt>
      <trkpt lat="50.54375" lon="2.92115">
        <ele>24.6</ele>
      </trkpt>
      <trkpt lat="50.54362" lon="2.92114">
        <ele>25</ele>
      </trkpt>
      <trkpt lat="50.54352" lon="2.92111">
        <ele>24.7</ele>
      </trkpt>
      <trkpt lat="50.54336" lon="2.92104">
        <ele>24.1</ele>
      </trkpt>
      <trkpt lat="50.54261" lon="2.92051">
        <ele>23.3</ele>
      </trkpt>
      <trkpt lat="50.54223" lon="2.92029">
        <ele>23.9</ele>
      </trkpt>
      <trkpt lat="50.54214" lon="2.92026">
        <ele>23.9</ele>
      </trkpt>
      <trkpt lat="50.54212" lon="2.92025">
        <ele>23.8</ele>
      </trkpt>
      <trkpt lat="50.54211" lon="2.92025">
        <ele>23.8</ele>
      </trkpt>
      <trkpt lat="50.5419" lon="2.92018">
        <ele>23.2</ele>
      </trkpt>
      <trkpt lat="50.54176" lon="2.92016">
        <ele>23.1</ele>
      </trkpt>
      <trkpt lat="50.5416" lon="2.92015">
        <ele>23</ele>
      </trkpt>
      <trkpt lat="50.54143" lon="2.92015">
        <ele>23</ele>
      </trkpt>
      <trkpt lat="50.54126" lon="2.92017">
        <ele>23</ele>
      </trkpt>
      <trkpt lat="50.54108" lon="2.9202">
        <ele>23</ele>
      </trkpt>
      <trkpt lat="50.54093" lon="2.92025">
        <ele>23</ele>
      </trkpt>
      <trkpt lat="50.5408" lon="2.9203">
        <ele>23</ele>
      </trkpt>
      <trkpt lat="50.54079" lon="2.92031">
        <ele>23</ele>
      </trkpt>
      <trkpt lat="50.54069" lon="2.92036">
        <ele>23</ele>
      </trkpt>
      <trkpt lat="50.54049" lon="2.92047">
        <ele>23</ele>
      </trkpt>
      <trkpt lat="50.54025" lon="2.92066">
        <ele>23</ele>
      </trkpt>
      <trkpt lat="50.53905" lon="2.92164">
        <ele>22.5</ele>
        <extensions>
          <visugpx:TrkExtension xmlns:visugpx="https://www.visugpx.com/editgpx/">
            <visugpx:node>61</visugpx:node>
            </visugpx:TrkExtension>
        </extensions>
      </trkpt>
      <trkpt lat="50.53873" lon="2.9219">
        <ele>22.1</ele>
      </trkpt>
      <trkpt lat="50.5381" lon="2.92242">
        <ele>22</ele>
      </trkpt>
      <trkpt lat="50.53745" lon="2.92296">
        <ele>22</ele>
      </trkpt>
      <trkpt lat="50.53735" lon="2.92304">
        <ele>22</ele>
      </trkpt>
      <trkpt lat="50.53721" lon="2.92317">
        <ele>21.6</ele>
      </trkpt>
      <trkpt lat="50.53697" lon="2.92343">
        <ele>21.9</ele>
      </trkpt>
      <trkpt lat="50.53673" lon="2.92369">
        <ele>22.2</ele>
      </trkpt>
      <trkpt lat="50.53626" lon="2.9242">
        <ele>23</ele>
      </trkpt>
      <trkpt lat="50.53617" lon="2.92433">
        <ele>23</ele>
      </trkpt>
      <trkpt lat="50.53595" lon="2.92471">
        <ele>23.4</ele>
      </trkpt>
      <trkpt lat="50.53578" lon="2.92504">
        <ele>23.7</ele>
      </trkpt>
      <trkpt lat="50.53533" lon="2.92587">
        <ele>23</ele>
      </trkpt>
      <trkpt lat="50.53515" lon="2.92618">
        <ele>23</ele>
      </trkpt>
      <trkpt lat="50.53485" lon="2.9266">
        <ele>23</ele>
      </trkpt>
      <trkpt lat="50.53478" lon="2.92666">
        <ele>23</ele>
      </trkpt>
      <trkpt lat="50.53455" lon="2.92689">
        <ele>23.6</ele>
      </trkpt>
      <trkpt lat="50.53422" lon="2.92715">
        <ele>23.2</ele>
      </trkpt>
      <trkpt lat="50.53384" lon="2.92741">
        <ele>23</ele>
      </trkpt>
      <trkpt lat="50.53345" lon="2.9277">
        <ele>23</ele>
      </trkpt>
      <trkpt lat="50.53331" lon="2.9278">
        <ele>23</ele>
      </trkpt>
      <trkpt lat="50.53279" lon="2.92818">
        <ele>23</ele>
      </trkpt>
      <trkpt lat="50.5324" lon="2.92846">
        <ele>22.6</ele>
      </trkpt>
      <trkpt lat="50.53183" lon="2.92887">
        <ele>22</ele>
      </trkpt>
      <trkpt lat="50.53158" lon="2.92906">
        <ele>22</ele>
      </trkpt>
      <trkpt lat="50.53151" lon="2.9291">
        <ele>22</ele>
        <extensions>
          <visugpx:TrkExtension xmlns:visugpx="https://www.visugpx.com/editgpx/">
            <visugpx:node>62</visugpx:node>
            </visugpx:TrkExtension>
        </extensions>
      </trkpt>
      <trkpt lat="50.53121" lon="2.92931">
        <ele>22</ele>
      </trkpt>
      <trkpt lat="50.5309" lon="2.92953">
        <ele>22</ele>
      </trkpt>
      <trkpt lat="50.53051" lon="2.92983">
        <ele>22.2</ele>
      </trkpt>
      <trkpt lat="50.53039" lon="2.92993">
        <ele>22.6</ele>
      </trkpt>
      <trkpt lat="50.53027" lon="2.93004">
        <ele>22.9</ele>
      </trkpt>
      <trkpt lat="50.53008" lon="2.93023">
        <ele>22.8</ele>
      </trkpt>
      <trkpt lat="50.52997" lon="2.93034">
        <ele>23</ele>
      </trkpt>
      <trkpt lat="50.52989" lon="2.93042">
        <ele>23</ele>
      </trkpt>
      <trkpt lat="50.52958" lon="2.93081">
        <ele>23</ele>
      </trkpt>
      <trkpt lat="50.52955" lon="2.93086">
        <ele>23</ele>
      </trkpt>
      <trkpt lat="50.5295" lon="2.93093">
        <ele>23</ele>
      </trkpt>
      <trkpt lat="50.5293" lon="2.93124">
        <ele>23</ele>
      </trkpt>
      <trkpt lat="50.52925" lon="2.93133">
        <ele>23</ele>
      </trkpt>
      <trkpt lat="50.5292" lon="2.93143">
        <ele>23</ele>
      </trkpt>
      <trkpt lat="50.5292" lon="2.93144">
        <ele>23</ele>
      </trkpt>
      <trkpt lat="50.52919" lon="2.93148">
        <ele>23</ele>
        <extensions>
          <visugpx:TrkExtension xmlns:visugpx="https://www.visugpx.com/editgpx/">
            <visugpx:node>63</visugpx:node>
            </visugpx:TrkExtension>
        </extensions>
      </trkpt>
      <trkpt lat="50.52915" lon="2.93161">
        <ele>23.1</ele>
      </trkpt>
      <trkpt lat="50.52915" lon="2.93147">
        <ele>23.1</ele>
      </trkpt>
      <trkpt lat="50.52913" lon="2.93105">
        <ele>23.1</ele>
      </trkpt>
      <trkpt lat="50.52909" lon="2.93079">
        <ele>23.3</ele>
      </trkpt>
      <trkpt lat="50.52906" lon="2.93069">
        <ele>23.4</ele>
      </trkpt>
      <trkpt lat="50.52904" lon="2.93063">
        <ele>23.5</ele>
        <extensions>
          <visugpx:TrkExtension xmlns:visugpx="https://www.visugpx.com/editgpx/">
            <visugpx:node>64</visugpx:node>
            </visugpx:TrkExtension>
        </extensions>
      </trkpt>
      <trkpt lat="50.52903" lon="2.93061">
        <ele>23.5</ele>
      </trkpt>
      <trkpt lat="50.52893" lon="2.93043">
        <ele>23.9</ele>
      </trkpt>
      <trkpt lat="50.52889" lon="2.93034">
        <ele>24</ele>
      </trkpt>
      <trkpt lat="50.52874" lon="2.93014">
        <ele>23.8</ele>
      </trkpt>
      <trkpt lat="50.52853" lon="2.92982">
        <ele>23.5</ele>
      </trkpt>
      <trkpt lat="50.52848" lon="2.92975">
        <ele>23.5</ele>
      </trkpt>
      <trkpt lat="50.52843" lon="2.92964">
        <ele>23.8</ele>
      </trkpt>
      <trkpt lat="50.52837" lon="2.9295">
        <ele>24</ele>
      </trkpt>
      <trkpt lat="50.52835" lon="2.92946">
        <ele>24</ele>
      </trkpt>
      <trkpt lat="50.52831" lon="2.92933">
        <ele>24</ele>
      </trkpt>
      <trkpt lat="50.52829" lon="2.92927">
        <ele>24</ele>
      </trkpt>
      <trkpt lat="50.52827" lon="2.92923">
        <ele>24</ele>
      </trkpt>
      <trkpt lat="50.52824" lon="2.92915">
        <ele>24</ele>
      </trkpt>
      <trkpt lat="50.5282" lon="2.92905">
        <ele>24</ele>
      </trkpt>
      <trkpt lat="50.52817" lon="2.92894">
        <ele>24</ele>
      </trkpt>
      <trkpt lat="50.52813" lon="2.92879">
        <ele>24</ele>
      </trkpt>
      <trkpt lat="50.52809" lon="2.92864">
        <ele>24</ele>
      </trkpt>
      <trkpt lat="50.52808" lon="2.92857">
        <ele>24</ele>
      </trkpt>
      <trkpt lat="50.52807" lon="2.92849">
        <ele>24</ele>
      </trkpt>
      <trkpt lat="50.52805" lon="2.9284">
        <ele>24</ele>
      </trkpt>
      <trkpt lat="50.52804" lon="2.92833">
        <ele>24</ele>
      </trkpt>
      <trkpt lat="50.52803" lon="2.92825">
        <ele>24</ele>
      </trkpt>
      <trkpt lat="50.52802" lon="2.92814">
        <ele>24</ele>
      </trkpt>
      <trkpt lat="50.528" lon="2.92806">
        <ele>24</ele>
      </trkpt>
      <trkpt lat="50.52797" lon="2.92796">
        <ele>24</ele>
      </trkpt>
      <trkpt lat="50.52794" lon="2.92785">
        <ele>24</ele>
      </trkpt>
      <trkpt lat="50.52791" lon="2.92778">
        <ele>24</ele>
      </trkpt>
      <trkpt lat="50.52789" lon="2.92774">
        <ele>24</ele>
      </trkpt>
      <trkpt lat="50.52784" lon="2.92759">
        <ele>24</ele>
      </trkpt>
      <trkpt lat="50.52778" lon="2.92742">
        <ele>24</ele>
      </trkpt>
      <trkpt lat="50.52773" lon="2.92727">
        <ele>24</ele>
      </trkpt>
      <trkpt lat="50.5277" lon="2.92714">
        <ele>24</ele>
      </trkpt>
      <trkpt lat="50.52766" lon="2.92696">
        <ele>24</ele>
      </trkpt>
      <trkpt lat="50.52763" lon="2.92688">
        <ele>23.8</ele>
      </trkpt>
      <trkpt lat="50.52751" lon="2.92654">
        <ele>23</ele>
      </trkpt>
      <trkpt lat="50.52738" lon="2.92634">
        <ele>23</ele>
      </trkpt>
      <trkpt lat="50.52731" lon="2.92638">
        <ele>23</ele>
      </trkpt>
      <trkpt lat="50.52726" lon="2.9264">
        <ele>23</ele>
      </trkpt>
      <trkpt lat="50.52721" lon="2.92639">
        <ele>23</ele>
      </trkpt>
      <trkpt lat="50.52709" lon="2.92633">
        <ele>23.5</ele>
      </trkpt>
      <trkpt lat="50.52698" lon="2.92624">
        <ele>23.9</ele>
      </trkpt>
      <trkpt lat="50.5269" lon="2.92617">
        <ele>24</ele>
      </trkpt>
      <trkpt lat="50.5268" lon="2.92605">
        <ele>24</ele>
      </trkpt>
      <trkpt lat="50.52663" lon="2.92575">
        <ele>24</ele>
        <extensions>
          <visugpx:TrkExtension xmlns:visugpx="https://www.visugpx.com/editgpx/">
            <visugpx:node>65</visugpx:node>
            </visugpx:TrkExtension>
        </extensions>
      </trkpt>
      <trkpt lat="50.5265" lon="2.92553">
        <ele>24</ele>
      </trkpt>
      <trkpt lat="50.52644" lon="2.92557">
        <ele>24</ele>
      </trkpt>
      <trkpt lat="50.52602" lon="2.9256">
        <ele>25</ele>
      </trkpt>
      <trkpt lat="50.52584" lon="2.9256">
        <ele>25</ele>
      </trkpt>
      <trkpt lat="50.52567" lon="2.92559">
        <ele>25</ele>
      </trkpt>
      <trkpt lat="50.52562" lon="2.92559">
        <ele>25</ele>
      </trkpt>
      <trkpt lat="50.52562" lon="2.92513">
        <ele>25</ele>
      </trkpt>
      <trkpt lat="50.52563" lon="2.92474">
        <ele>25</ele>
      </trkpt>
      <trkpt lat="50.52563" lon="2.92462">
        <ele>25</ele>
      </trkpt>
      <trkpt lat="50.52561" lon="2.92453">
        <ele>25</ele>
      </trkpt>
      <trkpt lat="50.52555" lon="2.92428">
        <ele>25</ele>
      </trkpt>
      <trkpt lat="50.52549" lon="2.9241">
        <ele>25.2</ele>
      </trkpt>
      <trkpt lat="50.52535" lon="2.92361">
        <ele>26</ele>
      </trkpt>
      <trkpt lat="50.52532" lon="2.92345">
        <ele>25.5</ele>
      </trkpt>
      <trkpt lat="50.5253" lon="2.92338">
        <ele>25.2</ele>
      </trkpt>
      <trkpt lat="50.52528" lon="2.92331">
        <ele>25</ele>
      </trkpt>
      <trkpt lat="50.52526" lon="2.92316">
        <ele>25</ele>
      </trkpt>
      <trkpt lat="50.52523" lon="2.92292">
        <ele>25.5</ele>
      </trkpt>
      <trkpt lat="50.52518" lon="2.92208">
        <ele>25.2</ele>
      </trkpt>
      <trkpt lat="50.52517" lon="2.92203">
        <ele>25.1</ele>
      </trkpt>
      <trkpt lat="50.52513" lon="2.92166">
        <ele>25</ele>
      </trkpt>
      <trkpt lat="50.52508" lon="2.92098">
        <ele>24.7</ele>
      </trkpt>
      <trkpt lat="50.52506" lon="2.92079">
        <ele>24.8</ele>
        <extensions>
          <visugpx:TrkExtension xmlns:visugpx="https://www.visugpx.com/editgpx/">
            <visugpx:node>66</visugpx:node>
            </visugpx:TrkExtension>
        </extensions>
      </trkpt>
    </trkseg>
  </trk>
</gpx>